<?xml version='1.0' encoding='UTF-8'?><gpx version="1.1" creator="JPX - https://github.com/jenetics/jpx" xmlns="http://www.topografix.com/GPX/1/1"><trk><trkseg><trkpt lat="45.06968414386186" lon="7.667983165474919"><ele>257.0</ele><time>2026-04-11T07:51:00Z</time></trkpt><trkpt lat="45.0696378043337" lon="7.668044254464731"><ele>257.0</ele><time>2026-04-11T07:51:02Z</time></trkpt><trkpt lat="45.069551054460895" lon="7.667974028056053"><ele>257.0</ele><time>2026-04-11T07:51:03Z</time></trkpt><trkpt lat="45.069506912076946" lon="7.667902218238464"><ele>257.0</ele><time>2026-04-11T07:51:31Z</time></trkpt><trkpt lat="45.06958662002995" lon="7.6680024669195"><ele>257.0</ele><time>2026-04-11T07:51:36Z</time></trkpt><trkpt lat="45.06965370741485" lon="7.6680793616856615"><ele>257.0</ele><time>2026-04-11T07:51:37Z</time></trkpt><trkpt lat="45.06971000940447" lon="7.668129270122946"><ele>257.0</ele><time>2026-04-11T07:51:38Z</time></trkpt><trkpt lat="45.069805970333704" lon="7.66824628925248"><ele>257.0</ele><time>2026-04-11T07:51:40Z</time></trkpt><trkpt lat="45.06988102239811" lon="7.668327576779643"><ele>257.0</ele><time>2026-04-11T07:51:41Z</time></trkpt><trkpt lat="45.06996218629985" lon="7.668403098377483"><ele>257.0</ele><time>2026-04-11T07:51:42Z</time></trkpt><trkpt lat="45.07005291871679" lon="7.668468991117446"><ele>257.0</ele><time>2026-04-11T07:51:43Z</time></trkpt><trkpt lat="45.07014448359876" lon="7.668541200370601"><ele>257.0</ele><time>2026-04-11T07:51:44Z</time></trkpt><trkpt lat="45.070226140126366" lon="7.668612370575497"><ele>257.0</ele><time>2026-04-11T07:51:45Z</time></trkpt><trkpt lat="45.070297452507766" lon="7.668665800256512"><ele>257.0</ele><time>2026-04-11T07:51:46Z</time></trkpt><trkpt lat="45.070355729463" lon="7.668707527281534"><ele>257.0</ele><time>2026-04-11T07:51:47Z</time></trkpt><trkpt lat="45.070408727542954" lon="7.668798719208586"><ele>257.0</ele><time>2026-04-11T07:51:49Z</time></trkpt><trkpt lat="45.07038103183896" lon="7.669071762235829"><ele>257.0</ele><time>2026-04-11T07:51:53Z</time></trkpt><trkpt lat="45.07034044718192" lon="7.669169650793841"><ele>257.0</ele><time>2026-04-11T07:51:54Z</time></trkpt><trkpt lat="45.0702752575177" lon="7.669241756122135"><ele>257.0</ele><time>2026-04-11T07:51:55Z</time></trkpt><trkpt lat="45.07023686655987" lon="7.66934769977452"><ele>257.0</ele><time>2026-04-11T07:51:56Z</time></trkpt><trkpt lat="45.07020604655899" lon="7.669432750635589"><ele>257.0</ele><time>2026-04-11T07:51:57Z</time></trkpt><trkpt lat="45.07017017612006" lon="7.669531617858186"><ele>257.0</ele><time>2026-04-11T07:51:58Z</time></trkpt><trkpt lat="45.070131546229554" lon="7.669638056154966"><ele>257.2</ele><time>2026-04-11T07:51:59Z</time></trkpt><trkpt lat="45.07007926845068" lon="7.669782098963543"><ele>257.4</ele><time>2026-04-11T07:52:00Z</time></trkpt><trkpt lat="45.07002725469865" lon="7.669925414307987"><ele>257.6</ele><time>2026-04-11T07:52:01.001Z</time></trkpt><trkpt lat="45.06998443288823" lon="7.67004340275529"><ele>257.8</ele><time>2026-04-11T07:52:02.001Z</time></trkpt><trkpt lat="45.06995299947977" lon="7.6701300123271166"><ele>258.0</ele><time>2026-04-11T07:52:03.001Z</time></trkpt><trkpt lat="45.06992191337717" lon="7.6702156648224324"><ele>256.6</ele><time>2026-04-11T07:52:04.001Z</time></trkpt><trkpt lat="45.069879713038915" lon="7.670332347932105"><ele>255.20000000000002</ele><time>2026-04-11T07:52:05.001Z</time></trkpt><trkpt lat="45.06983187151047" lon="7.670464512548476"><ele>253.8</ele><time>2026-04-11T07:52:06.001Z</time></trkpt><trkpt lat="45.069786185495296" lon="7.670590722425145"><ele>252.4</ele><time>2026-04-11T07:52:07.001Z</time></trkpt><trkpt lat="45.06973642105138" lon="7.670728199189363"><ele>251.0</ele><time>2026-04-11T07:52:08.001Z</time></trkpt><trkpt lat="45.069684559101404" lon="7.670871470389501"><ele>251.0</ele><time>2026-04-11T07:52:09.001Z</time></trkpt><trkpt lat="45.06963438041978" lon="7.671009784464101"><ele>251.0</ele><time>2026-04-11T07:52:10.001Z</time></trkpt><trkpt lat="45.06953286117749" lon="7.671268521740997"><ele>251.0</ele><time>2026-04-11T07:52:12.001Z</time></trkpt><trkpt lat="45.06949614400959" lon="7.671373666329618"><ele>251.0</ele><time>2026-04-11T07:52:13.001Z</time></trkpt><trkpt lat="45.06946459519137" lon="7.671459437897101"><ele>251.75</ele><time>2026-04-11T07:52:14.001Z</time></trkpt><trkpt lat="45.06943701332845" lon="7.671553826342839"><ele>252.5</ele><time>2026-04-11T07:52:17.001Z</time></trkpt><trkpt lat="45.0696012132903" lon="7.671702659345543"><ele>253.25</ele><time>2026-04-11T07:52:19.001Z</time></trkpt><trkpt lat="45.069695018275326" lon="7.671767671487725"><ele>254.0</ele><time>2026-04-11T07:52:20.001Z</time></trkpt><trkpt lat="45.0697851792397" lon="7.671806172047787"><ele>254.0</ele><time>2026-04-11T07:52:21.001Z</time></trkpt><trkpt lat="45.06985634722718" lon="7.671871052564138"><ele>253.99999999999997</ele><time>2026-04-11T07:52:22.001Z</time></trkpt><trkpt lat="45.06994179765365" lon="7.671918780089794"><ele>253.99999999999997</ele><time>2026-04-11T07:52:23.001Z</time></trkpt><trkpt lat="45.070020294263" lon="7.671995973478916"><ele>254.0</ele><time>2026-04-11T07:52:24.001Z</time></trkpt><trkpt lat="45.07011161665103" lon="7.6720601997587385"><ele>254.0</ele><time>2026-04-11T07:52:25.001Z</time></trkpt><trkpt lat="45.070186780035186" lon="7.6721130615426745"><ele>253.66666666666669</ele><time>2026-04-11T07:52:26.001Z</time></trkpt><trkpt lat="45.070257474120865" lon="7.672138081040818"><ele>253.33333333333334</ele><time>2026-04-11T07:52:27.001Z</time></trkpt><trkpt lat="45.070325018868" lon="7.672236530026036"><ele>253.0</ele><time>2026-04-11T07:52:29.001Z</time></trkpt><trkpt lat="45.07029888316558" lon="7.672387585964686"><ele>252.66666666666669</ele><time>2026-04-11T07:52:30.001Z</time></trkpt><trkpt lat="45.070263873369846" lon="7.672482826242945"><ele>252.33333333333334</ele><time>2026-04-11T07:52:31.001Z</time></trkpt><trkpt lat="45.070214584516435" lon="7.672580377220186"><ele>252.0</ele><time>2026-04-11T07:52:32.001Z</time></trkpt><trkpt lat="45.070162067828804" lon="7.6726960318941035"><ele>252.0</ele><time>2026-04-11T07:52:33.001Z</time></trkpt><trkpt lat="45.070116716983584" lon="7.672811862373843"><ele>252.0</ele><time>2026-04-11T07:52:34.001Z</time></trkpt><trkpt lat="45.070077834996944" lon="7.672913751109383"><ele>252.0</ele><time>2026-04-11T07:52:35.001Z</time></trkpt><trkpt lat="45.07004262032437" lon="7.673023887304482"><ele>252.0</ele><time>2026-04-11T07:52:36.001Z</time></trkpt><trkpt lat="45.07000502242142" lon="7.673138987796466"><ele>252.0</ele><time>2026-04-11T07:52:37.001Z</time></trkpt><trkpt lat="45.06996963737165" lon="7.673247363055142"><ele>252.0</ele><time>2026-04-11T07:52:38Z</time></trkpt><trkpt lat="45.06993736492994" lon="7.673336909794891"><ele>252.0</ele><time>2026-04-11T07:52:39Z</time></trkpt><trkpt lat="45.06988387935374" lon="7.673458216393015"><ele>252.0</ele><time>2026-04-11T07:52:41Z</time></trkpt><trkpt lat="45.069848256893025" lon="7.673554407143566"><ele>252.0</ele><time>2026-04-11T07:52:44Z</time></trkpt><trkpt lat="45.069741271927526" lon="7.673519018881849"><ele>252.0</ele><time>2026-04-11T07:52:45Z</time></trkpt><trkpt lat="45.06966154371019" lon="7.673477756809496"><ele>252.0</ele><time>2026-04-11T07:52:46Z</time></trkpt><trkpt lat="45.06959425320059" lon="7.673415633573961"><ele>252.0</ele><time>2026-04-11T07:52:47Z</time></trkpt><trkpt lat="45.069529959753964" lon="7.673357811034844"><ele>252.0</ele><time>2026-04-11T07:52:48Z</time></trkpt><trkpt lat="45.06946308338264" lon="7.673300772497693"><ele>252.0</ele><time>2026-04-11T07:52:49Z</time></trkpt><trkpt lat="45.06940360835198" lon="7.673259738767914"><ele>252.0</ele><time>2026-04-11T07:52:50Z</time></trkpt><trkpt lat="45.069347280917974" lon="7.673215781227884"><ele>252.0</ele><time>2026-04-11T07:52:51Z</time></trkpt><trkpt lat="45.06927259244764" lon="7.67316967430506"><ele>252.0</ele><time>2026-04-11T07:52:52Z</time></trkpt><trkpt lat="45.06919411840975" lon="7.673119725540386"><ele>252.0</ele><time>2026-04-11T07:52:53Z</time></trkpt><trkpt lat="45.06912233665868" lon="7.673074081778546"><ele>252.0</ele><time>2026-04-11T07:52:54Z</time></trkpt><trkpt lat="45.069043971627224" lon="7.673026496845879"><ele>252.0</ele><time>2026-04-11T07:52:55Z</time></trkpt><trkpt lat="45.06896709065134" lon="7.672976810571457"><ele>252.0</ele><time>2026-04-11T07:52:56Z</time></trkpt><trkpt lat="45.0688963526429" lon="7.672924515308783"><ele>252.0</ele><time>2026-04-11T07:52:57Z</time></trkpt><trkpt lat="45.06882830755464" lon="7.672869659764733"><ele>252.0</ele><time>2026-04-11T07:52:58Z</time></trkpt><trkpt lat="45.06874668037854" lon="7.672826302384224"><ele>252.39999999999998</ele><time>2026-04-11T07:52:59Z</time></trkpt><trkpt lat="45.06866938358796" lon="7.6727749981267275"><ele>252.79999999999998</ele><time>2026-04-11T07:53:00Z</time></trkpt><trkpt lat="45.0685931691116" lon="7.672716585674362"><ele>253.2</ele><time>2026-04-11T07:53:01Z</time></trkpt><trkpt lat="45.06851656291759" lon="7.6726600832479726"><ele>253.6</ele><time>2026-04-11T07:53:02Z</time></trkpt><trkpt lat="45.06836646139056" lon="7.672554648663089"><ele>254.0</ele><time>2026-04-11T07:53:04Z</time></trkpt><trkpt lat="45.06824883378033" lon="7.672471560785578"><ele>253.00000000000003</ele><time>2026-04-11T07:53:06Z</time></trkpt><trkpt lat="45.06817886614541" lon="7.672449152908385"><ele>252.0</ele><time>2026-04-11T07:53:07Z</time></trkpt><trkpt lat="45.06810636241271" lon="7.672384915494264"><ele>251.0</ele><time>2026-04-11T07:53:08Z</time></trkpt><trkpt lat="45.06804610914612" lon="7.672353229614202"><ele>250.0</ele><time>2026-04-11T07:53:09Z</time></trkpt><trkpt lat="45.067989891413546" lon="7.6723017078683755"><ele>249.00000000000003</ele><time>2026-04-11T07:53:10Z</time></trkpt><trkpt lat="45.06791554761883" lon="7.672262858287969"><ele>248.0</ele><time>2026-04-11T07:53:11Z</time></trkpt><trkpt lat="45.06781088803159" lon="7.672189734361843"><ele>248.0</ele><time>2026-04-11T07:53:13Z</time></trkpt><trkpt lat="45.06771383192448" lon="7.672114301894372"><ele>248.0</ele><time>2026-04-11T07:53:15Z</time></trkpt><trkpt lat="45.06762164255225" lon="7.672057439644221"><ele>248.0</ele><time>2026-04-11T07:53:17Z</time></trkpt><trkpt lat="45.067556786989314" lon="7.672009379008829"><ele>248.0</ele><time>2026-04-11T07:53:20Z</time></trkpt><trkpt lat="45.067484061495115" lon="7.671961011891594"><ele>248.0</ele><time>2026-04-11T07:54:00Z</time></trkpt><trkpt lat="45.067375706299764" lon="7.671898152127853"><ele>248.50000000000003</ele><time>2026-04-11T07:54:02Z</time></trkpt><trkpt lat="45.06731164560797" lon="7.671869084550579"><ele>249.0</ele><time>2026-04-11T07:54:04.001Z</time></trkpt><trkpt lat="45.06724453126307" lon="7.671887097062863"><ele>249.5</ele><time>2026-04-11T07:54:07.001Z</time></trkpt><trkpt lat="45.067184405885754" lon="7.67193707250875"><ele>250.0</ele><time>2026-04-11T07:54:10.001Z</time></trkpt><trkpt lat="45.06714819429514" lon="7.672022476515107"><ele>250.50000000000003</ele><time>2026-04-11T07:54:16.001Z</time></trkpt><trkpt lat="45.06710554701153" lon="7.672134431532701"><ele>251.0</ele><time>2026-04-11T07:54:17.001Z</time></trkpt><trkpt lat="45.067070733553884" lon="7.6722504810435055"><ele>251.25</ele><time>2026-04-11T07:54:18.001Z</time></trkpt><trkpt lat="45.0670166105281" lon="7.672407482247661"><ele>251.5</ele><time>2026-04-11T07:54:19.001Z</time></trkpt><trkpt lat="45.06694897860489" lon="7.672614299510838"><ele>251.75</ele><time>2026-04-11T07:54:20.001Z</time></trkpt><trkpt lat="45.06687300876406" lon="7.672819960205837"><ele>252.0</ele><time>2026-04-11T07:54:21.001Z</time></trkpt><trkpt lat="45.0668058263876" lon="7.672997314065497"><ele>252.25</ele><time>2026-04-11T07:54:22.001Z</time></trkpt><trkpt lat="45.06674663557549" lon="7.673158659232079"><ele>252.5</ele><time>2026-04-11T07:54:23.001Z</time></trkpt><trkpt lat="45.066692477339565" lon="7.6733044368342"><ele>252.75</ele><time>2026-04-11T07:54:24.001Z</time></trkpt><trkpt lat="45.06663847076327" lon="7.673450145701418"><ele>253.0</ele><time>2026-04-11T07:54:25.001Z</time></trkpt><trkpt lat="45.06658851516724" lon="7.673598048640385"><ele>253.33333333333331</ele><time>2026-04-11T07:54:26.001Z</time></trkpt><trkpt lat="45.066539638681554" lon="7.673732864185206"><ele>253.66666666666666</ele><time>2026-04-11T07:54:27.001Z</time></trkpt><trkpt lat="45.066499294276554" lon="7.673854590297349"><ele>254.0</ele><time>2026-04-11T07:54:28.001Z</time></trkpt><trkpt lat="45.06645922758583" lon="7.673962958672118"><ele>254.33333333333331</ele><time>2026-04-11T07:54:29.001Z</time></trkpt><trkpt lat="45.066425425769104" lon="7.674070632436997"><ele>254.66666666666666</ele><time>2026-04-11T07:54:30.001Z</time></trkpt><trkpt lat="45.066396638252414" lon="7.674157112131438"><ele>255.0</ele><time>2026-04-11T07:54:31.001Z</time></trkpt><trkpt lat="45.066361087100404" lon="7.674284353605296"><ele>255.0</ele><time>2026-04-11T07:54:33.001Z</time></trkpt><trkpt lat="45.06632692091803" lon="7.674382329903468"><ele>255.0</ele><time>2026-04-11T07:54:36.001Z</time></trkpt><trkpt lat="45.06629367921429" lon="7.674477655118973"><ele>255.0</ele><time>2026-04-11T07:54:39.001Z</time></trkpt><trkpt lat="45.066323512042565" lon="7.674392105310991"><ele>255.0</ele><time>2026-04-11T07:54:48Z</time></trkpt><trkpt lat="45.066302907032785" lon="7.674493158742146"><ele>255.0</ele><time>2026-04-11T07:57:17Z</time></trkpt><trkpt lat="45.06625216955143" lon="7.67459466518747"><ele>255.0</ele><time>2026-04-11T07:57:19Z</time></trkpt><trkpt lat="45.06621038133083" lon="7.674686640638879"><ele>254.83333333333334</ele><time>2026-04-11T07:57:21Z</time></trkpt><trkpt lat="45.06618855536875" lon="7.674773607893482"><ele>254.66666666666669</ele><time>2026-04-11T07:57:34Z</time></trkpt><trkpt lat="45.06613017332485" lon="7.674899865968379"><ele>254.5</ele><time>2026-04-11T07:57:36Z</time></trkpt><trkpt lat="45.06613025399412" lon="7.675016968742156"><ele>254.33333333333334</ele><time>2026-04-11T07:57:37Z</time></trkpt><trkpt lat="45.06613337047902" lon="7.675137274330795"><ele>254.16666666666669</ele><time>2026-04-11T07:57:38Z</time></trkpt><trkpt lat="45.06616708557402" lon="7.6752325909324925"><ele>254.0</ele><time>2026-04-11T07:57:39Z</time></trkpt><trkpt lat="45.06618937845726" lon="7.675356210655455"><ele>254.0</ele><time>2026-04-11T07:57:40Z</time></trkpt><trkpt lat="45.066163546236425" lon="7.675467753708252"><ele>253.99999999999997</ele><time>2026-04-11T07:57:41Z</time></trkpt><trkpt lat="45.066284178244295" lon="7.675548220453318"><ele>253.99999999999997</ele><time>2026-04-11T07:57:42Z</time></trkpt><trkpt lat="45.066374541583926" lon="7.675596989686256"><ele>254.0</ele><time>2026-04-11T07:57:43Z</time></trkpt><trkpt lat="45.06647980413115" lon="7.67563963073861"><ele>254.0</ele><time>2026-04-11T07:57:44Z</time></trkpt><trkpt lat="45.0665754346912" lon="7.675692861055334"><ele>253.2</ele><time>2026-04-11T07:57:45Z</time></trkpt><trkpt lat="45.06666526417265" lon="7.675797471784897"><ele>252.39999999999998</ele><time>2026-04-11T07:57:46Z</time></trkpt><trkpt lat="45.066764460800854" lon="7.675867057600244"><ele>251.6</ele><time>2026-04-11T07:57:47Z</time></trkpt><trkpt lat="45.06686225529709" lon="7.675935910837164"><ele>250.8</ele><time>2026-04-11T07:57:48Z</time></trkpt><trkpt lat="45.06695649622317" lon="7.676002262146171"><ele>250.0</ele><time>2026-04-11T07:57:49Z</time></trkpt><trkpt lat="45.0670547121338" lon="7.676071412078564"><ele>250.49999999999997</ele><time>2026-04-11T07:57:50Z</time></trkpt><trkpt lat="45.067135803869014" lon="7.67612850556637"><ele>251.0</ele><time>2026-04-11T07:57:51Z</time></trkpt><trkpt lat="45.067205750422076" lon="7.676177374073904"><ele>251.5</ele><time>2026-04-11T07:57:52Z</time></trkpt><trkpt lat="45.06726461189924" lon="7.67621840130442"><ele>252.0</ele><time>2026-04-11T07:57:53Z</time></trkpt><trkpt lat="45.067338882198314" lon="7.676219987006666"><ele>252.49999999999997</ele><time>2026-04-11T07:57:54Z</time></trkpt><trkpt lat="45.067412113709366" lon="7.676262778699017"><ele>253.0</ele><time>2026-04-11T07:57:55Z</time></trkpt><trkpt lat="45.067652798314676" lon="7.675806795405053"><ele>253.0</ele><time>2026-04-11T07:57:56Z</time></trkpt><trkpt lat="45.067930968535386" lon="7.675782759399743"><ele>253.0</ele><time>2026-04-11T07:57:59Z</time></trkpt><trkpt lat="45.068022201385396" lon="7.675720573602162"><ele>253.0</ele><time>2026-04-11T07:58:00Z</time></trkpt><trkpt lat="45.06813190801566" lon="7.67565815357398"><ele>253.0</ele><time>2026-04-11T07:58:01Z</time></trkpt><trkpt lat="45.068222368088925" lon="7.675623233615992"><ele>253.0</ele><time>2026-04-11T07:58:02Z</time></trkpt><trkpt lat="45.06831398882033" lon="7.675605461862362"><ele>253.0</ele><time>2026-04-11T07:58:03Z</time></trkpt><trkpt lat="45.068416177135234" lon="7.675625368854858"><ele>253.0</ele><time>2026-04-11T07:58:04Z</time></trkpt><trkpt lat="45.06851322685973" lon="7.675645388785587"><ele>253.0</ele><time>2026-04-11T07:58:05Z</time></trkpt><trkpt lat="45.06856235825654" lon="7.675779462529847"><ele>252.33333333333331</ele><time>2026-04-11T07:58:06Z</time></trkpt><trkpt lat="45.06853679935829" lon="7.676186302109126"><ele>251.66666666666669</ele><time>2026-04-11T07:58:07Z</time></trkpt><trkpt lat="45.06858649931111" lon="7.676328282431682"><ele>251.0</ele><time>2026-04-11T07:58:08Z</time></trkpt><trkpt lat="45.068646895457654" lon="7.676469219669535"><ele>251.0</ele><time>2026-04-11T07:58:09Z</time></trkpt><trkpt lat="45.068720595213165" lon="7.6766172411463325"><ele>251.0</ele><time>2026-04-11T07:58:10Z</time></trkpt><trkpt lat="45.06878768118706" lon="7.6767618059824185"><ele>251.0</ele><time>2026-04-11T07:58:11Z</time></trkpt><trkpt lat="45.06885502082797" lon="7.676882321735699"><ele>251.0</ele><time>2026-04-11T07:58:12Z</time></trkpt><trkpt lat="45.06891151458276" lon="7.677022209636862"><ele>250.75</ele><time>2026-04-11T07:58:13Z</time></trkpt><trkpt lat="45.06896475433057" lon="7.677160532077961"><ele>250.5</ele><time>2026-04-11T07:58:14Z</time></trkpt><trkpt lat="45.06901871107632" lon="7.67731106701882"><ele>250.25</ele><time>2026-04-11T07:58:15Z</time></trkpt><trkpt lat="45.069019816599265" lon="7.677620006062993"><ele>250.0</ele><time>2026-04-11T07:58:16Z</time></trkpt><trkpt lat="45.06910537959844" lon="7.677679111499063"><ele>249.83333333333331</ele><time>2026-04-11T07:58:17Z</time></trkpt><trkpt lat="45.069192054411914" lon="7.677738984960536"><ele>249.66666666666666</ele><time>2026-04-11T07:58:18Z</time></trkpt><trkpt lat="45.06927601470435" lon="7.677796983279827"><ele>249.5</ele><time>2026-04-11T07:58:19Z</time></trkpt><trkpt lat="45.06935386476434" lon="7.677850760624602"><ele>249.33333333333331</ele><time>2026-04-11T07:58:20Z</time></trkpt><trkpt lat="45.06943265607321" lon="7.677900461246901"><ele>249.16666666666666</ele><time>2026-04-11T07:58:21Z</time></trkpt><trkpt lat="45.06950088191393" lon="7.677941149452971"><ele>249.0</ele><time>2026-04-11T07:58:22Z</time></trkpt><trkpt lat="45.06958009830483" lon="7.67796570589841"><ele>249.66666666666666</ele><time>2026-04-11T07:58:23Z</time></trkpt><trkpt lat="45.06964562531065" lon="7.677987065647063"><ele>250.33333333333331</ele><time>2026-04-11T07:58:24Z</time></trkpt><trkpt lat="45.06974951400692" lon="7.678034567278259"><ele>251.0</ele><time>2026-04-11T07:58:26Z</time></trkpt><trkpt lat="45.069824462329834" lon="7.678076720780197"><ele>251.66666666666666</ele><time>2026-04-11T07:58:28Z</time></trkpt><trkpt lat="45.06988400578982" lon="7.678111046722383"><ele>252.33333333333331</ele><time>2026-04-11T07:58:30Z</time></trkpt><trkpt lat="45.069953311728334" lon="7.678151000562266"><ele>253.0</ele><time>2026-04-11T07:59:50Z</time></trkpt><trkpt lat="45.07004178712539" lon="7.678191352093206"><ele>253.4</ele><time>2026-04-11T07:59:52Z</time></trkpt><trkpt lat="45.07012603307202" lon="7.677996619024985"><ele>253.8</ele><time>2026-04-11T07:59:53Z</time></trkpt><trkpt lat="45.07018040598297" lon="7.6779259346666295"><ele>254.2</ele><time>2026-04-11T07:59:54Z</time></trkpt><trkpt lat="45.07022419290917" lon="7.677841428483564"><ele>254.6</ele><time>2026-04-11T07:59:55Z</time></trkpt><trkpt lat="45.07027102218046" lon="7.677744510409376"><ele>255.0</ele><time>2026-04-11T07:59:56Z</time></trkpt><trkpt lat="45.070323125902696" lon="7.6776359644014995"><ele>254.2</ele><time>2026-04-11T07:59:57Z</time></trkpt><trkpt lat="45.07037239464863" lon="7.677517345198138"><ele>253.4</ele><time>2026-04-11T07:59:58Z</time></trkpt><trkpt lat="45.07042099727287" lon="7.677385125796857"><ele>252.60000000000002</ele><time>2026-04-11T07:59:59Z</time></trkpt><trkpt lat="45.07046613004628" lon="7.677247211987924"><ele>251.8</ele><time>2026-04-11T08:00:00Z</time></trkpt><trkpt lat="45.07051136168842" lon="7.677109558694911"><ele>251.0</ele><time>2026-04-11T08:00:01Z</time></trkpt><trkpt lat="45.07057728116332" lon="7.676966394828836"><ele>251.0</ele><time>2026-04-11T08:00:02Z</time></trkpt><trkpt lat="45.0706314410384" lon="7.676831026040878"><ele>251.00000000000003</ele><time>2026-04-11T08:00:03Z</time></trkpt><trkpt lat="45.070680354596185" lon="7.676696245543822"><ele>251.00000000000003</ele><time>2026-04-11T08:00:04Z</time></trkpt><trkpt lat="45.07073175678406" lon="7.6765617965055215"><ele>251.0</ele><time>2026-04-11T08:00:05Z</time></trkpt><trkpt lat="45.070776465200076" lon="7.676426953006959"><ele>251.0</ele><time>2026-04-11T08:00:06Z</time></trkpt><trkpt lat="45.070821084586385" lon="7.676291716332771"><ele>251.0</ele><time>2026-04-11T08:00:07Z</time></trkpt><trkpt lat="45.070872095518894" lon="7.676160733946907"><ele>251.00000000000003</ele><time>2026-04-11T08:00:08Z</time></trkpt><trkpt lat="45.07092132545417" lon="7.676025407085086"><ele>251.00000000000003</ele><time>2026-04-11T08:00:09Z</time></trkpt><trkpt lat="45.07097323341277" lon="7.675885731433031"><ele>251.0</ele><time>2026-04-11T08:00:10Z</time></trkpt><trkpt lat="45.07102500544048" lon="7.675754871925476"><ele>251.0</ele><time>2026-04-11T08:00:11Z</time></trkpt><trkpt lat="45.07107124936513" lon="7.675620525878891"><ele>251.33333333333334</ele><time>2026-04-11T08:00:12Z</time></trkpt><trkpt lat="45.07110913459726" lon="7.67550854649602"><ele>251.66666666666669</ele><time>2026-04-11T08:00:13Z</time></trkpt><trkpt lat="45.07113960404838" lon="7.675412093593376"><ele>252.0</ele><time>2026-04-11T08:00:14Z</time></trkpt><trkpt lat="45.07117230170837" lon="7.67532917125206"><ele>252.33333333333331</ele><time>2026-04-11T08:00:15Z</time></trkpt><trkpt lat="45.071214921001285" lon="7.675209756158836"><ele>252.66666666666666</ele><time>2026-04-11T08:00:17Z</time></trkpt><trkpt lat="45.071255475554494" lon="7.675117847743274"><ele>253.0</ele><time>2026-04-11T08:01:03.001Z</time></trkpt><trkpt lat="45.071283224396225" lon="7.675019668756288"><ele>252.16666666666666</ele><time>2026-04-11T08:01:04.001Z</time></trkpt><trkpt lat="45.07131822559033" lon="7.674916690376709"><ele>251.33333333333331</ele><time>2026-04-11T08:01:05.001Z</time></trkpt><trkpt lat="45.07134663244907" lon="7.674819234666815"><ele>250.5</ele><time>2026-04-11T08:01:06.001Z</time></trkpt><trkpt lat="45.0713755132886" lon="7.674724888083545"><ele>249.66666666666669</ele><time>2026-04-11T08:01:07.001Z</time></trkpt><trkpt lat="45.07140833911756" lon="7.6746184380256395"><ele>248.83333333333334</ele><time>2026-04-11T08:01:08.001Z</time></trkpt><trkpt lat="45.071444304910386" lon="7.674502274588633"><ele>248.0</ele><time>2026-04-11T08:01:09.001Z</time></trkpt><trkpt lat="45.07147352886339" lon="7.674386313432831"><ele>247.5</ele><time>2026-04-11T08:01:10.001Z</time></trkpt><trkpt lat="45.07152297781541" lon="7.674281836197163"><ele>247.0</ele><time>2026-04-11T08:01:11.001Z</time></trkpt><trkpt lat="45.07157603065241" lon="7.674132899560641"><ele>246.5</ele><time>2026-04-11T08:01:12.001Z</time></trkpt><trkpt lat="45.07164067425384" lon="7.673951423878032"><ele>246.0</ele><time>2026-04-11T08:01:13.001Z</time></trkpt><trkpt lat="45.07171026908537" lon="7.673754521200945"><ele>248.33333333333331</ele><time>2026-04-11T08:01:14.001Z</time></trkpt><trkpt lat="45.071767874087506" lon="7.673560022215324"><ele>250.66666666666666</ele><time>2026-04-11T08:01:15.001Z</time></trkpt><trkpt lat="45.07184516347524" lon="7.673369152943448"><ele>253.0</ele><time>2026-04-11T08:01:16.001Z</time></trkpt><trkpt lat="45.07191982008977" lon="7.6731804533787615"><ele>253.0</ele><time>2026-04-11T08:01:17.001Z</time></trkpt><trkpt lat="45.071985017392095" lon="7.672994751215803"><ele>253.0</ele><time>2026-04-11T08:01:18.001Z</time></trkpt><trkpt lat="45.07203481861145" lon="7.672821247714779"><ele>253.0</ele><time>2026-04-11T08:01:19.001Z</time></trkpt><trkpt lat="45.07209683157909" lon="7.672665727109012"><ele>253.0</ele><time>2026-04-11T08:01:20.001Z</time></trkpt><trkpt lat="45.07216085884782" lon="7.672485849329216"><ele>253.0</ele><time>2026-04-11T08:01:21.001Z</time></trkpt><trkpt lat="45.072229782530144" lon="7.672292215624846"><ele>253.0</ele><time>2026-04-11T08:01:22.001Z</time></trkpt><trkpt lat="45.07230643148179" lon="7.672076682529505"><ele>253.0</ele><time>2026-04-11T08:01:23.001Z</time></trkpt><trkpt lat="45.07237824691981" lon="7.671901883383977"><ele>252.25</ele><time>2026-04-11T08:01:24.001Z</time></trkpt><trkpt lat="45.07243472835881" lon="7.671719587192089"><ele>251.5</ele><time>2026-04-11T08:01:25.001Z</time></trkpt><trkpt lat="45.07250123746614" lon="7.671532248456767"><ele>250.75</ele><time>2026-04-11T08:01:26.001Z</time></trkpt><trkpt lat="45.07256400043814" lon="7.671344620021645"><ele>250.0</ele><time>2026-04-11T08:01:27.001Z</time></trkpt><trkpt lat="45.07262755073415" lon="7.671185373418726"><ele>251.4</ele><time>2026-04-11T08:01:28.001Z</time></trkpt><trkpt lat="45.0726924725852" lon="7.6710473602556295"><ele>252.8</ele><time>2026-04-11T08:01:29.001Z</time></trkpt><trkpt lat="45.07274306054293" lon="7.670919975568193"><ele>254.2</ele><time>2026-04-11T08:01:30.001Z</time></trkpt><trkpt lat="45.072781051392134" lon="7.670820735712488"><ele>255.6</ele><time>2026-04-11T08:01:31.001Z</time></trkpt><trkpt lat="45.072817925658335" lon="7.670717811713772"><ele>257.0</ele><time>2026-04-11T08:01:33.001Z</time></trkpt><trkpt lat="45.07286070934662" lon="7.670615282502352"><ele>257.0</ele><time>2026-04-11T08:02:14.001Z</time></trkpt><trkpt lat="45.07289314757017" lon="7.670506323642747"><ele>257.0</ele><time>2026-04-11T08:02:15.001Z</time></trkpt><trkpt lat="45.07292636154654" lon="7.670373322262442"><ele>257.0</ele><time>2026-04-11T08:02:16.001Z</time></trkpt><trkpt lat="45.072957971737814" lon="7.670262266419895"><ele>257.0</ele><time>2026-04-11T08:02:17.001Z</time></trkpt><trkpt lat="45.07299608272772" lon="7.6701349880523155"><ele>257.0</ele><time>2026-04-11T08:02:18.001Z</time></trkpt><trkpt lat="45.0730526331475" lon="7.669977694858238"><ele>257.0</ele><time>2026-04-11T08:02:19.001Z</time></trkpt><trkpt lat="45.0731102848008" lon="7.66981704394319"><ele>257.0</ele><time>2026-04-11T08:02:20.001Z</time></trkpt><trkpt lat="45.07315882870814" lon="7.669675865364853"><ele>257.0</ele><time>2026-04-11T08:02:21.001Z</time></trkpt><trkpt lat="45.0732283018398" lon="7.669536589725912"><ele>257.0</ele><time>2026-04-11T08:02:22.001Z</time></trkpt><trkpt lat="45.07327224422967" lon="7.66938966523595"><ele>256.75</ele><time>2026-04-11T08:02:23.001Z</time></trkpt><trkpt lat="45.07332347895844" lon="7.66924382945737"><ele>256.5</ele><time>2026-04-11T08:02:24.001Z</time></trkpt><trkpt lat="45.073374473383495" lon="7.66909166627328"><ele>256.25</ele><time>2026-04-11T08:02:25.001Z</time></trkpt><trkpt lat="45.073426483778285" lon="7.668950352113286"><ele>256.0</ele><time>2026-04-11T08:02:26.001Z</time></trkpt><trkpt lat="45.07347457591623" lon="7.668817245769473"><ele>256.0</ele><time>2026-04-11T08:02:27.001Z</time></trkpt><trkpt lat="45.07352285698232" lon="7.668688024724768"><ele>256.0</ele><time>2026-04-11T08:02:28.001Z</time></trkpt><trkpt lat="45.073565704741846" lon="7.668570095257736"><ele>256.0</ele><time>2026-04-11T08:02:29.001Z</time></trkpt><trkpt lat="45.073603527818584" lon="7.668470408230707"><ele>256.0</ele><time>2026-04-11T08:02:30.001Z</time></trkpt><trkpt lat="45.07364603074069" lon="7.668394155185016"><ele>256.0</ele><time>2026-04-11T08:02:31.001Z</time></trkpt><trkpt lat="45.07376955979887" lon="7.668298286727707"><ele>254.0</ele><time>2026-04-11T08:02:33.001Z</time></trkpt><trkpt lat="45.07385514286953" lon="7.668285337257639"><ele>252.0</ele><time>2026-04-11T08:02:34.001Z</time></trkpt><trkpt lat="45.07396126639877" lon="7.668312685066616"><ele>250.0</ele><time>2026-04-11T08:02:35.001Z</time></trkpt><trkpt lat="45.074083390466434" lon="7.668377144395137"><ele>248.0</ele><time>2026-04-11T08:02:36.001Z</time></trkpt><trkpt lat="45.074223144611466" lon="7.668468959624944"><ele>248.0</ele><time>2026-04-11T08:02:37.001Z</time></trkpt><trkpt lat="45.0743713682572" lon="7.668575824671366"><ele>248.0</ele><time>2026-04-11T08:02:38.001Z</time></trkpt><trkpt lat="45.074540090085" lon="7.668679390280595"><ele>248.0</ele><time>2026-04-11T08:02:39.001Z</time></trkpt><trkpt lat="45.07472940522283" lon="7.668781382568831"><ele>250.33333333333334</ele><time>2026-04-11T08:02:40.001Z</time></trkpt><trkpt lat="45.074906442285325" lon="7.668913604770659"><ele>252.66666666666669</ele><time>2026-04-11T08:02:41.001Z</time></trkpt><trkpt lat="45.07507632818734" lon="7.669036215752766"><ele>255.0</ele><time>2026-04-11T08:02:42.001Z</time></trkpt><trkpt lat="45.07523490603623" lon="7.669148469607351"><ele>256.3333333333333</ele><time>2026-04-11T08:02:43.001Z</time></trkpt><trkpt lat="45.07538977994392" lon="7.669258758308502"><ele>257.66666666666663</ele><time>2026-04-11T08:02:44.001Z</time></trkpt><trkpt lat="45.07555688682304" lon="7.669377356141335"><ele>259.0</ele><time>2026-04-11T08:02:45.001Z</time></trkpt><trkpt lat="45.07570805225539" lon="7.669490724155176"><ele>259.25</ele><time>2026-04-11T08:02:46.001Z</time></trkpt><trkpt lat="45.075845965455656" lon="7.669588485512047"><ele>259.5</ele><time>2026-04-11T08:02:47.001Z</time></trkpt><trkpt lat="45.0759726960205" lon="7.669682188440667"><ele>259.75</ele><time>2026-04-11T08:02:48.001Z</time></trkpt><trkpt lat="45.07608951541535" lon="7.6697582829259625"><ele>260.0</ele><time>2026-04-11T08:02:49.001Z</time></trkpt><trkpt lat="45.07620014763126" lon="7.669838150179877"><ele>260.0</ele><time>2026-04-11T08:02:50.001Z</time></trkpt><trkpt lat="45.07629653437884" lon="7.669915810588497"><ele>260.0</ele><time>2026-04-11T08:02:51.001Z</time></trkpt><trkpt lat="45.07638561209311" lon="7.669986496276059"><ele>260.0</ele><time>2026-04-11T08:02:52.001Z</time></trkpt><trkpt lat="45.07647663555222" lon="7.67005529195009"><ele>260.0</ele><time>2026-04-11T08:02:53.001Z</time></trkpt><trkpt lat="45.076560751612114" lon="7.670116415853345"><ele>260.0</ele><time>2026-04-11T08:02:54.001Z</time></trkpt><trkpt lat="45.076639519772044" lon="7.670171315342869"><ele>260.1666666666667</ele><time>2026-04-11T08:02:55.001Z</time></trkpt><trkpt lat="45.07670885087451" lon="7.670219886866965"><ele>260.33333333333337</ele><time>2026-04-11T08:02:56.001Z</time></trkpt><trkpt lat="45.07678673277772" lon="7.670273336889904"><ele>260.5</ele><time>2026-04-11T08:02:57.001Z</time></trkpt><trkpt lat="45.07686297915424" lon="7.67031634632"><ele>260.6666666666667</ele><time>2026-04-11T08:02:58.001Z</time></trkpt><trkpt lat="45.07694904292605" lon="7.670385471917537"><ele>260.8333333333333</ele><time>2026-04-11T08:02:59.001Z</time></trkpt><trkpt lat="45.07703509012315" lon="7.670443865664835"><ele>261.0</ele><time>2026-04-11T08:03:00.001Z</time></trkpt><trkpt lat="45.077112373512996" lon="7.670504853812632"><ele>261.0</ele><time>2026-04-11T08:03:01.001Z</time></trkpt><trkpt lat="45.07718371259992" lon="7.670565413611498"><ele>261.0</ele><time>2026-04-11T08:03:02.001Z</time></trkpt><trkpt lat="45.07725182532321" lon="7.670624635218642"><ele>261.0</ele><time>2026-04-11T08:03:03.001Z</time></trkpt><trkpt lat="45.07732506934122" lon="7.670686632284829"><ele>261.0</ele><time>2026-04-11T08:03:04.001Z</time></trkpt><trkpt lat="45.077401575382694" lon="7.670739822165196"><ele>261.0</ele><time>2026-04-11T08:03:05.001Z</time></trkpt><trkpt lat="45.077481218789735" lon="7.670793297503318"><ele>261.0</ele><time>2026-04-11T08:03:06.001Z</time></trkpt><trkpt lat="45.0775591368237" lon="7.670839245402535"><ele>260.40000000000003</ele><time>2026-04-11T08:03:07.001Z</time></trkpt><trkpt lat="45.07762161926168" lon="7.670888534747336"><ele>259.8</ele><time>2026-04-11T08:03:08.001Z</time></trkpt><trkpt lat="45.07772355135699" lon="7.6709477824894465"><ele>259.20000000000005</ele><time>2026-04-11T08:03:10.001Z</time></trkpt><trkpt lat="45.07783942203208" lon="7.671042146465424"><ele>258.6</ele><time>2026-04-11T08:03:12.001Z</time></trkpt><trkpt lat="45.07790181600632" lon="7.671129392632186"><ele>258.0</ele><time>2026-04-11T08:03:13.001Z</time></trkpt><trkpt lat="45.07795874602951" lon="7.671237462812245"><ele>257.5</ele><time>2026-04-11T08:03:14.001Z</time></trkpt><trkpt lat="45.078004255901114" lon="7.671375937688384"><ele>257.0</ele><time>2026-04-11T08:03:15.001Z</time></trkpt><trkpt lat="45.07804635396212" lon="7.671553019333274"><ele>256.5</ele><time>2026-04-11T08:03:16.001Z</time></trkpt><trkpt lat="45.07809170277793" lon="7.671745441118375"><ele>256.0</ele><time>2026-04-11T08:03:17.001Z</time></trkpt><trkpt lat="45.07812475894362" lon="7.67189972745354"><ele>255.99999999999997</ele><time>2026-04-11T08:03:18.001Z</time></trkpt><trkpt lat="45.078155370784685" lon="7.672005408342603"><ele>256.0</ele><time>2026-04-11T08:03:19.001Z</time></trkpt><trkpt lat="45.078166608054254" lon="7.6721047833353735"><ele>256.0</ele><time>2026-04-11T08:03:20.001Z</time></trkpt><trkpt lat="45.07820473069069" lon="7.672245540066975"><ele>256.0</ele><time>2026-04-11T08:03:22.001Z</time></trkpt><trkpt lat="45.07825087402637" lon="7.672317701738508"><ele>255.99999999999997</ele><time>2026-04-11T08:03:25.001Z</time></trkpt><trkpt lat="45.07826168175205" lon="7.672410149384765"><ele>256.0</ele><time>2026-04-11T08:03:26.001Z</time></trkpt><trkpt lat="45.07829572506934" lon="7.672561853289149"><ele>254.0</ele><time>2026-04-11T08:03:27.001Z</time></trkpt><trkpt lat="45.07832799931157" lon="7.672708056410989"><ele>252.0</ele><time>2026-04-11T08:03:28.001Z</time></trkpt><trkpt lat="45.078384815805826" lon="7.672931406483802"><ele>250.0</ele><time>2026-04-11T08:03:29.001Z</time></trkpt><trkpt lat="45.07845531684767" lon="7.673209260531789"><ele>249.66666666666666</ele><time>2026-04-11T08:03:30.001Z</time></trkpt><trkpt lat="45.07852802542626" lon="7.673518532844719"><ele>249.33333333333331</ele><time>2026-04-11T08:03:31.001Z</time></trkpt><trkpt lat="45.07858585208497" lon="7.673773085410326"><ele>249.0</ele><time>2026-04-11T08:03:32.001Z</time></trkpt><trkpt lat="45.07863968794384" lon="7.674011139890969"><ele>249.0</ele><time>2026-04-11T08:03:33.001Z</time></trkpt><trkpt lat="45.07869272405107" lon="7.674231788719286"><ele>249.0</ele><time>2026-04-11T08:03:34.001Z</time></trkpt><trkpt lat="45.07874121481674" lon="7.674443194238548"><ele>249.0</ele><time>2026-04-11T08:03:35.001Z</time></trkpt><trkpt lat="45.078781998050495" lon="7.674645892640589"><ele>249.0</ele><time>2026-04-11T08:03:36.001Z</time></trkpt><trkpt lat="45.07882773800838" lon="7.67484104122497"><ele>249.0</ele><time>2026-04-11T08:03:37.001Z</time></trkpt><trkpt lat="45.07888253265184" lon="7.675025204010368"><ele>249.0</ele><time>2026-04-11T08:03:38.001Z</time></trkpt><trkpt lat="45.07894230882623" lon="7.675167069126126"><ele>249.0</ele><time>2026-04-11T08:03:39.001Z</time></trkpt><trkpt lat="45.078938714321986" lon="7.675383521465407"><ele>248.33333333333334</ele><time>2026-04-11T08:03:40.001Z</time></trkpt><trkpt lat="45.07896602329449" lon="7.6755113060094775"><ele>247.66666666666669</ele><time>2026-04-11T08:03:41.001Z</time></trkpt><trkpt lat="45.07898484465536" lon="7.67561148304536"><ele>247.0</ele><time>2026-04-11T08:03:42.001Z</time></trkpt><trkpt lat="45.07898370903751" lon="7.67571094226665"><ele>246.33333333333334</ele><time>2026-04-11T08:03:43.001Z</time></trkpt><trkpt lat="45.07895998207152" lon="7.675810077758996"><ele>245.66666666666669</ele><time>2026-04-11T08:03:44.001Z</time></trkpt><trkpt lat="45.07892964982711" lon="7.675898212941192"><ele>245.0</ele><time>2026-04-11T08:03:45.001Z</time></trkpt><trkpt lat="45.07888330198045" lon="7.676036481356231"><ele>244.66666666666669</ele><time>2026-04-11T08:03:47.001Z</time></trkpt><trkpt lat="45.07885404310081" lon="7.676129508018266"><ele>244.33333333333334</ele><time>2026-04-11T08:03:49.001Z</time></trkpt><trkpt lat="45.07884726621544" lon="7.676262976910015"><ele>244.0</ele><time>2026-04-11T08:04:49.001Z</time></trkpt><trkpt lat="45.07886634953921" lon="7.6763690892795715"><ele>243.66666666666669</ele><time>2026-04-11T08:04:51.001Z</time></trkpt><trkpt lat="45.078883932207646" lon="7.6764839542641035"><ele>243.33333333333334</ele><time>2026-04-11T08:04:53.001Z</time></trkpt><trkpt lat="45.07892505507504" lon="7.676601391116289"><ele>243.0</ele><time>2026-04-11T08:04:55.001Z</time></trkpt><trkpt lat="45.07898836947113" lon="7.676671268274542"><ele>243.0</ele><time>2026-04-11T08:04:58.001Z</time></trkpt><trkpt lat="45.07907103602433" lon="7.6767369366580995"><ele>243.0</ele><time>2026-04-11T08:05:01.001Z</time></trkpt><trkpt lat="45.079178405694044" lon="7.676716829312877"><ele>243.0</ele><time>2026-04-11T08:05:03.001Z</time></trkpt><trkpt lat="45.07926350978076" lon="7.676687904393215"><ele>243.0</ele><time>2026-04-11T08:05:04.001Z</time></trkpt><trkpt lat="45.07934389260725" lon="7.676639331056095"><ele>243.0</ele><time>2026-04-11T08:05:05.001Z</time></trkpt><trkpt lat="45.07942262540741" lon="7.676592246888393"><ele>242.83333333333334</ele><time>2026-04-11T08:05:06.001Z</time></trkpt><trkpt lat="45.079500109083035" lon="7.676576045615254"><ele>242.66666666666669</ele><time>2026-04-11T08:05:07.001Z</time></trkpt><trkpt lat="45.07954769178986" lon="7.676658265903953"><ele>242.5</ele><time>2026-04-11T08:05:08.001Z</time></trkpt><trkpt lat="45.07961510881311" lon="7.676705804971255"><ele>242.33333333333334</ele><time>2026-04-11T08:05:09.001Z</time></trkpt><trkpt lat="45.07969594497872" lon="7.676763037662015"><ele>242.16666666666669</ele><time>2026-04-11T08:05:10.001Z</time></trkpt><trkpt lat="45.07979519053057" lon="7.676833304356889"><ele>242.0</ele><time>2026-04-11T08:05:11.001Z</time></trkpt><trkpt lat="45.07993100270097" lon="7.676928381768676"><ele>241.66666666666669</ele><time>2026-04-11T08:05:12.001Z</time></trkpt><trkpt lat="45.080078977342026" lon="7.677028922601311"><ele>241.33333333333331</ele><time>2026-04-11T08:05:13.001Z</time></trkpt><trkpt lat="45.080261679885034" lon="7.677093523571107"><ele>241.0</ele><time>2026-04-11T08:05:14.001Z</time></trkpt><trkpt lat="45.08059243378719" lon="7.677331948937988"><ele>241.0</ele><time>2026-04-11T08:05:16.001Z</time></trkpt><trkpt lat="45.08073590991573" lon="7.677432845653845"><ele>241.0</ele><time>2026-04-11T08:05:17.001Z</time></trkpt><trkpt lat="45.08087939980316" lon="7.677534918361028"><ele>241.0</ele><time>2026-04-11T08:05:18.001Z</time></trkpt><trkpt lat="45.081043782817105" lon="7.677649220314297"><ele>239.66666666666666</ele><time>2026-04-11T08:05:19.001Z</time></trkpt><trkpt lat="45.08120530201893" lon="7.677760968315554"><ele>238.33333333333331</ele><time>2026-04-11T08:05:20.001Z</time></trkpt><trkpt lat="45.081347442548065" lon="7.677863881292981"><ele>237.0</ele><time>2026-04-11T08:05:21.001Z</time></trkpt><trkpt lat="45.08147911615222" lon="7.677955285946183"><ele>237.0</ele><time>2026-04-11T08:05:22.001Z</time></trkpt><trkpt lat="45.08159777526948" lon="7.678047600210732"><ele>237.0</ele><time>2026-04-11T08:05:23.001Z</time></trkpt><trkpt lat="45.0817294091043" lon="7.678143694461288"><ele>237.0</ele><time>2026-04-11T08:05:24.001Z</time></trkpt><trkpt lat="45.08186839069333" lon="7.678242177030058"><ele>237.0</ele><time>2026-04-11T08:05:25.001Z</time></trkpt><trkpt lat="45.08202965810391" lon="7.678352145025827"><ele>237.0</ele><time>2026-04-11T08:05:26.001Z</time></trkpt><trkpt lat="45.082187758644295" lon="7.678462471921638"><ele>237.0</ele><time>2026-04-11T08:05:27.001Z</time></trkpt><trkpt lat="45.08233775259667" lon="7.6785782459637035"><ele>237.0</ele><time>2026-04-11T08:05:28.001Z</time></trkpt><trkpt lat="45.08249592627218" lon="7.678684828945221"><ele>238.0</ele><time>2026-04-11T08:05:29.001Z</time></trkpt><trkpt lat="45.08264282601301" lon="7.6788006246630625"><ele>239.0</ele><time>2026-04-11T08:05:30.001Z</time></trkpt><trkpt lat="45.08278843757225" lon="7.678904267193929"><ele>240.0</ele><time>2026-04-11T08:05:31.001Z</time></trkpt><trkpt lat="45.08291894586663" lon="7.679002500109332"><ele>240.0</ele><time>2026-04-11T08:05:32.001Z</time></trkpt><trkpt lat="45.08305106505941" lon="7.67909462420768"><ele>240.0</ele><time>2026-04-11T08:05:33.001Z</time></trkpt><trkpt lat="45.08318426666377" lon="7.67919139234912"><ele>240.0</ele><time>2026-04-11T08:05:34.001Z</time></trkpt><trkpt lat="45.08331638609042" lon="7.679290182729039"><ele>240.0</ele><time>2026-04-11T08:05:35.001Z</time></trkpt><trkpt lat="45.08344677094469" lon="7.679381874461605"><ele>239.25</ele><time>2026-04-11T08:05:36.001Z</time></trkpt><trkpt lat="45.083572747601394" lon="7.679474870931059"><ele>238.5</ele><time>2026-04-11T08:05:37.001Z</time></trkpt><trkpt lat="45.083692620904976" lon="7.6795668939937"><ele>237.75</ele><time>2026-04-11T08:05:38.001Z</time></trkpt><trkpt lat="45.08381140040221" lon="7.679640334680707"><ele>237.0</ele><time>2026-04-11T08:05:39.001Z</time></trkpt><trkpt lat="45.08392700409656" lon="7.679722627505044"><ele>237.0</ele><time>2026-04-11T08:05:40.001Z</time></trkpt><trkpt lat="45.0840388946034" lon="7.679806388554793"><ele>237.0</ele><time>2026-04-11T08:05:41.001Z</time></trkpt><trkpt lat="45.08415115126523" lon="7.679886993641032"><ele>237.0</ele><time>2026-04-11T08:05:42.001Z</time></trkpt><trkpt lat="45.084272770370795" lon="7.679977734243599"><ele>237.0</ele><time>2026-04-11T08:05:43.001Z</time></trkpt><trkpt lat="45.08440571951867" lon="7.680066085977698"><ele>236.25</ele><time>2026-04-11T08:05:44.001Z</time></trkpt><trkpt lat="45.08453249333589" lon="7.680160986701692"><ele>235.5</ele><time>2026-04-11T08:05:45.001Z</time></trkpt><trkpt lat="45.084648530755416" lon="7.680264203283271"><ele>234.75</ele><time>2026-04-11T08:05:46.001Z</time></trkpt><trkpt lat="45.08476010485749" lon="7.680349038413228"><ele>234.0</ele><time>2026-04-11T08:05:47.001Z</time></trkpt><trkpt lat="45.08486370613917" lon="7.680416854949352"><ele>233.66666666666666</ele><time>2026-04-11T08:05:48.001Z</time></trkpt><trkpt lat="45.08493530182071" lon="7.680462763704853"><ele>233.33333333333331</ele><time>2026-04-11T08:05:49.001Z</time></trkpt><trkpt lat="45.08501698840502" lon="7.680526772027285"><ele>233.0</ele><time>2026-04-11T08:05:51.001Z</time></trkpt><trkpt lat="45.085113547587746" lon="7.680587331820122"><ele>232.66666666666666</ele><time>2026-04-11T08:05:55.001Z</time></trkpt><trkpt lat="45.085182990906624" lon="7.68063260526099"><ele>232.33333333333331</ele><time>2026-04-11T08:05:59.001Z</time></trkpt><trkpt lat="45.085266704708324" lon="7.680687832500207"><ele>232.0</ele><time>2026-04-11T08:06:33.001Z</time></trkpt><trkpt lat="45.08527682279329" lon="7.680835965379566"><ele>232.0</ele><time>2026-04-11T08:06:36.001Z</time></trkpt><trkpt lat="45.08519731288141" lon="7.680964428259806"><ele>232.0</ele><time>2026-04-11T08:06:38.001Z</time></trkpt><trkpt lat="45.08511034005854" lon="7.681106436450327"><ele>232.0</ele><time>2026-04-11T08:06:40.001Z</time></trkpt><trkpt lat="45.085067144560064" lon="7.68117469302125"><ele>232.0</ele><time>2026-04-11T08:06:41.001Z</time></trkpt><trkpt lat="45.08502946709565" lon="7.681269437935623"><ele>232.0</ele><time>2026-04-11T08:06:42.001Z</time></trkpt><trkpt lat="45.084975049201134" lon="7.6815202808757075"><ele>232.0</ele><time>2026-04-11T08:06:44.001Z</time></trkpt><trkpt lat="45.08495001197166" lon="7.6816534346886085"><ele>232.0</ele><time>2026-04-11T08:06:45.001Z</time></trkpt><trkpt lat="45.084913768154316" lon="7.681787224608298"><ele>232.0</ele><time>2026-04-11T08:06:46.001Z</time></trkpt><trkpt lat="45.08487067252368" lon="7.681917996600529"><ele>232.0</ele><time>2026-04-11T08:06:47.001Z</time></trkpt><trkpt lat="45.08482753357416" lon="7.682043142982054"><ele>232.0</ele><time>2026-04-11T08:06:48.001Z</time></trkpt><trkpt lat="45.084783562935066" lon="7.682161947253702"><ele>232.0</ele><time>2026-04-11T08:06:49.001Z</time></trkpt><trkpt lat="45.084745468067425" lon="7.682277998367401"><ele>232.0</ele><time>2026-04-11T08:06:50.001Z</time></trkpt><trkpt lat="45.08470722293902" lon="7.682388166269994"><ele>232.0</ele><time>2026-04-11T08:06:51.001Z</time></trkpt><trkpt lat="45.08466749122315" lon="7.682502992591882"><ele>232.0</ele><time>2026-04-11T08:06:52.001Z</time></trkpt><trkpt lat="45.084634531330714" lon="7.6825989031285395"><ele>232.0</ele><time>2026-04-11T08:06:53.001Z</time></trkpt><trkpt lat="45.08458605692207" lon="7.682737412905527"><ele>232.39999999999998</ele><time>2026-04-11T08:06:55.001Z</time></trkpt><trkpt lat="45.08455262774996" lon="7.682866533222092"><ele>232.79999999999998</ele><time>2026-04-11T08:06:57.001Z</time></trkpt><trkpt lat="45.08451231061306" lon="7.6829840658965045"><ele>233.2</ele><time>2026-04-11T08:06:59.001Z</time></trkpt><trkpt lat="45.08446065031689" lon="7.683138554041929"><ele>233.6</ele><time>2026-04-11T08:07:01.001Z</time></trkpt><trkpt lat="45.08441641501342" lon="7.683247531337027"><ele>234.0</ele><time>2026-04-11T08:07:02.001Z</time></trkpt><trkpt lat="45.084378508753474" lon="7.6833735343141925"><ele>234.0</ele><time>2026-04-11T08:07:03.001Z</time></trkpt><trkpt lat="45.084332187132176" lon="7.683505841982994"><ele>233.99999999999997</ele><time>2026-04-11T08:07:04.001Z</time></trkpt><trkpt lat="45.0842824100306" lon="7.6836394923236595"><ele>233.99999999999997</ele><time>2026-04-11T08:07:05.001Z</time></trkpt><trkpt lat="45.084233390985375" lon="7.683792663011465"><ele>234.0</ele><time>2026-04-11T08:07:06.001Z</time></trkpt><trkpt lat="45.084184501449364" lon="7.683946963235255"><ele>234.0</ele><time>2026-04-11T08:07:07.001Z</time></trkpt><trkpt lat="45.084139053451736" lon="7.684110973053385"><ele>234.25</ele><time>2026-04-11T08:07:08.001Z</time></trkpt><trkpt lat="45.08407895077046" lon="7.684287978716385"><ele>234.5</ele><time>2026-04-11T08:07:09.001Z</time></trkpt><trkpt lat="45.08402560234791" lon="7.684469807059918"><ele>234.75</ele><time>2026-04-11T08:07:10.001Z</time></trkpt><trkpt lat="45.08397238240621" lon="7.684649431021506"><ele>235.0</ele><time>2026-04-11T08:07:11.001Z</time></trkpt><trkpt lat="45.083908264703645" lon="7.684832793127483"><ele>234.75</ele><time>2026-04-11T08:07:12.001Z</time></trkpt><trkpt lat="45.08384548323562" lon="7.685022936182225"><ele>234.5</ele><time>2026-04-11T08:07:13.001Z</time></trkpt><trkpt lat="45.08376967280085" lon="7.68520387036875"><ele>234.25</ele><time>2026-04-11T08:07:14.001Z</time></trkpt><trkpt lat="45.08373380494358" lon="7.685376563968281"><ele>234.0</ele><time>2026-04-11T08:07:15.001Z</time></trkpt><trkpt lat="45.08365464114369" lon="7.685562994605533"><ele>234.0</ele><time>2026-04-11T08:07:16.001Z</time></trkpt><trkpt lat="45.08357141603925" lon="7.6858154301700905"><ele>234.0</ele><time>2026-04-11T08:07:17.001Z</time></trkpt><trkpt lat="45.0834969534077" lon="7.686040940745022"><ele>234.0</ele><time>2026-04-11T08:07:18.001Z</time></trkpt><trkpt lat="45.083446230821686" lon="7.686248630360265"><ele>234.0</ele><time>2026-04-11T08:07:19.001Z</time></trkpt><trkpt lat="45.083373588343505" lon="7.686460533398894"><ele>234.0</ele><time>2026-04-11T08:07:20Z</time></trkpt><trkpt lat="45.08330608757181" lon="7.68664401503405"><ele>234.0</ele><time>2026-04-11T08:07:21Z</time></trkpt><trkpt lat="45.08325074529866" lon="7.686798738482949"><ele>234.0</ele><time>2026-04-11T08:07:22Z</time></trkpt><trkpt lat="45.083204235259515" lon="7.686934898105706"><ele>234.6</ele><time>2026-04-11T08:07:23Z</time></trkpt><trkpt lat="45.083167168907984" lon="7.687057052290006"><ele>235.2</ele><time>2026-04-11T08:07:24Z</time></trkpt><trkpt lat="45.08312477842955" lon="7.687163183145755"><ele>235.79999999999998</ele><time>2026-04-11T08:07:25Z</time></trkpt><trkpt lat="45.08308903016461" lon="7.687259835149568"><ele>236.39999999999998</ele><time>2026-04-11T08:07:26Z</time></trkpt><trkpt lat="45.08303718831024" lon="7.687384407314993"><ele>237.0</ele><time>2026-04-11T08:07:28Z</time></trkpt><trkpt lat="45.082984409021485" lon="7.6875578100501745"><ele>237.0</ele><time>2026-04-11T08:07:55.001Z</time></trkpt><trkpt lat="45.08294715211164" lon="7.687674701357323"><ele>237.0</ele><time>2026-04-11T08:07:56.001Z</time></trkpt><trkpt lat="45.08290381483901" lon="7.687799447947573"><ele>237.0</ele><time>2026-04-11T08:07:57.001Z</time></trkpt><trkpt lat="45.08285285504743" lon="7.6879582116057845"><ele>237.0</ele><time>2026-04-11T08:07:58.001Z</time></trkpt><trkpt lat="45.08280734181738" lon="7.688138361996652"><ele>237.0</ele><time>2026-04-11T08:07:59.001Z</time></trkpt><trkpt lat="45.082742821737284" lon="7.6883027205730015"><ele>236.75</ele><time>2026-04-11T08:08:00.001Z</time></trkpt><trkpt lat="45.08268624462404" lon="7.688460072166897"><ele>236.5</ele><time>2026-04-11T08:08:01.001Z</time></trkpt><trkpt lat="45.08262881325398" lon="7.688646524528851"><ele>236.25</ele><time>2026-04-11T08:08:02.001Z</time></trkpt><trkpt lat="45.08256603541107" lon="7.688830801793883"><ele>236.0</ele><time>2026-04-11T08:08:03.001Z</time></trkpt><trkpt lat="45.082506318600025" lon="7.6890204624494185"><ele>235.75</ele><time>2026-04-11T08:08:04.001Z</time></trkpt><trkpt lat="45.08244833848474" lon="7.689208584295962"><ele>235.5</ele><time>2026-04-11T08:08:05.001Z</time></trkpt><trkpt lat="45.08239223364953" lon="7.6893854623811775"><ele>235.25</ele><time>2026-04-11T08:08:06.001Z</time></trkpt><trkpt lat="45.08234011596426" lon="7.689550439966639"><ele>235.0</ele><time>2026-04-11T08:08:07.001Z</time></trkpt><trkpt lat="45.08227644364434" lon="7.689708236106273"><ele>234.75</ele><time>2026-04-11T08:08:08.001Z</time></trkpt><trkpt lat="45.082216277718985" lon="7.689877622371683"><ele>234.5</ele><time>2026-04-11T08:08:09.001Z</time></trkpt><trkpt lat="45.08216268141874" lon="7.690055516731089"><ele>234.25</ele><time>2026-04-11T08:08:10.001Z</time></trkpt><trkpt lat="45.08210606319668" lon="7.690230925464426"><ele>234.0</ele><time>2026-04-11T08:08:11.001Z</time></trkpt><trkpt lat="45.08205178196122" lon="7.690404149641174"><ele>234.0</ele><time>2026-04-11T08:08:12.001Z</time></trkpt><trkpt lat="45.08199045854044" lon="7.69057948562687"><ele>234.0</ele><time>2026-04-11T08:08:13.001Z</time></trkpt><trkpt lat="45.081929924294684" lon="7.690770308437378"><ele>234.0</ele><time>2026-04-11T08:08:14.001Z</time></trkpt><trkpt lat="45.08186841675923" lon="7.690962826277624"><ele>234.0</ele><time>2026-04-11T08:08:15.001Z</time></trkpt><trkpt lat="45.08180149614837" lon="7.691152989607394"><ele>233.75</ele><time>2026-04-11T08:08:16.001Z</time></trkpt><trkpt lat="45.08174765809859" lon="7.6913443687872425"><ele>233.5</ele><time>2026-04-11T08:08:17.001Z</time></trkpt><trkpt lat="45.08168377716963" lon="7.691523440649921"><ele>233.25</ele><time>2026-04-11T08:08:18.001Z</time></trkpt><trkpt lat="45.081630619599146" lon="7.691692095420974"><ele>233.0</ele><time>2026-04-11T08:08:19.001Z</time></trkpt><trkpt lat="45.08158350279605" lon="7.691837949784678"><ele>232.60000000000002</ele><time>2026-04-11T08:08:20.001Z</time></trkpt><trkpt lat="45.081548764872856" lon="7.6919646599678355"><ele>232.20000000000002</ele><time>2026-04-11T08:08:21.001Z</time></trkpt><trkpt lat="45.08150680051005" lon="7.6920767409684965"><ele>231.8</ele><time>2026-04-11T08:08:23.001Z</time></trkpt><trkpt lat="45.08146211326721" lon="7.6921837935511315"><ele>231.4</ele><time>2026-04-11T08:08:26.001Z</time></trkpt><trkpt lat="45.081409359808546" lon="7.69232210229147"><ele>231.0</ele><time>2026-04-11T08:08:28.001Z</time></trkpt><trkpt lat="45.081356489291466" lon="7.692473075660078"><ele>231.0</ele><time>2026-04-11T08:08:30.001Z</time></trkpt><trkpt lat="45.08132565892307" lon="7.6925742641908395"><ele>231.00000000000003</ele><time>2026-04-11T08:08:31.001Z</time></trkpt><trkpt lat="45.081304159164645" lon="7.692690856332455"><ele>231.00000000000003</ele><time>2026-04-11T08:08:32.001Z</time></trkpt><trkpt lat="45.08126892327673" lon="7.692792105025916"><ele>231.0</ele><time>2026-04-11T08:08:33.001Z</time></trkpt><trkpt lat="45.08122646489168" lon="7.692897751865096"><ele>231.0</ele><time>2026-04-11T08:08:34.001Z</time></trkpt><trkpt lat="45.08136597657024" lon="7.693100722256665"><ele>231.0</ele><time>2026-04-11T08:08:35.001Z</time></trkpt><trkpt lat="45.081416190586225" lon="7.69323328788919"><ele>231.0</ele><time>2026-04-11T08:08:36.001Z</time></trkpt><trkpt lat="45.081488643350305" lon="7.693376722639129"><ele>231.0</ele><time>2026-04-11T08:08:37.001Z</time></trkpt><trkpt lat="45.08157813065902" lon="7.693560312194079"><ele>231.0</ele><time>2026-04-11T08:08:38.001Z</time></trkpt><trkpt lat="45.08167007032377" lon="7.693761016718779"><ele>231.0</ele><time>2026-04-11T08:08:39.001Z</time></trkpt><trkpt lat="45.08177563638699" lon="7.693996348439883"><ele>231.0</ele><time>2026-04-11T08:08:40.001Z</time></trkpt><trkpt lat="45.08187489877077" lon="7.694218373567355"><ele>231.0</ele><time>2026-04-11T08:08:41.001Z</time></trkpt><trkpt lat="45.081965652970915" lon="7.694420137643069"><ele>230.66666666666669</ele><time>2026-04-11T08:08:42.001Z</time></trkpt><trkpt lat="45.082050945778626" lon="7.69461037313183"><ele>230.33333333333334</ele><time>2026-04-11T08:08:43.001Z</time></trkpt><trkpt lat="45.08213285057753" lon="7.694791171221396"><ele>230.0</ele><time>2026-04-11T08:08:44.001Z</time></trkpt><trkpt lat="45.08220753467741" lon="7.694967793128571"><ele>230.0</ele><time>2026-04-11T08:08:45.001Z</time></trkpt><trkpt lat="45.08226941947162" lon="7.695149988986052"><ele>230.0</ele><time>2026-04-11T08:08:46.001Z</time></trkpt><trkpt lat="45.08235780921431" lon="7.695314050444143"><ele>230.0</ele><time>2026-04-11T08:08:47.001Z</time></trkpt><trkpt lat="45.08245155052313" lon="7.695521436090567"><ele>229.66666666666669</ele><time>2026-04-11T08:08:48.001Z</time></trkpt><trkpt lat="45.082546904952146" lon="7.695732284296563"><ele>229.33333333333331</ele><time>2026-04-11T08:08:49.001Z</time></trkpt><trkpt lat="45.082639711776025" lon="7.695937514138077"><ele>229.0</ele><time>2026-04-11T08:08:50.001Z</time></trkpt><trkpt lat="45.082721697605535" lon="7.696119095098127"><ele>230.25</ele><time>2026-04-11T08:08:51.001Z</time></trkpt><trkpt lat="45.082796575673946" lon="7.696284933599273"><ele>231.5</ele><time>2026-04-11T08:08:52.001Z</time></trkpt><trkpt lat="45.08286206719874" lon="7.696429983261986"><ele>232.75</ele><time>2026-04-11T08:08:53.001Z</time></trkpt><trkpt lat="45.082928095915605" lon="7.6965762225036105"><ele>234.0</ele><time>2026-04-11T08:08:54.001Z</time></trkpt><trkpt lat="45.08298518269953" lon="7.69670265739502"><ele>234.0</ele><time>2026-04-11T08:08:55.001Z</time></trkpt><trkpt lat="45.08303901549891" lon="7.696821885368737"><ele>233.99999999999997</ele><time>2026-04-11T08:08:56.001Z</time></trkpt><trkpt lat="45.08307482202972" lon="7.696935964426182"><ele>233.99999999999997</ele><time>2026-04-11T08:08:57.001Z</time></trkpt><trkpt lat="45.08312633044034" lon="7.697044814629587"><ele>234.0</ele><time>2026-04-11T08:08:59.001Z</time></trkpt><trkpt lat="45.08318025064965" lon="7.697168828884133"><ele>234.0</ele><time>2026-04-11T08:10:06.001Z</time></trkpt><trkpt lat="45.08322595753954" lon="7.697270304620397"><ele>233.39999999999998</ele><time>2026-04-11T08:10:07.001Z</time></trkpt><trkpt lat="45.083272632510756" lon="7.69736462900024"><ele>232.79999999999998</ele><time>2026-04-11T08:10:08.001Z</time></trkpt><trkpt lat="45.083334940159865" lon="7.69747507643321"><ele>232.20000000000002</ele><time>2026-04-11T08:10:09.001Z</time></trkpt><trkpt lat="45.083385050423075" lon="7.697607369260982"><ele>231.60000000000002</ele><time>2026-04-11T08:10:10.001Z</time></trkpt><trkpt lat="45.083442644007185" lon="7.697763017477012"><ele>231.0</ele><time>2026-04-11T08:10:11.001Z</time></trkpt><trkpt lat="45.08351996598961" lon="7.697936196228595"><ele>230.66666666666669</ele><time>2026-04-11T08:10:12.001Z</time></trkpt><trkpt lat="45.08360404057771" lon="7.698114821925455"><ele>230.33333333333334</ele><time>2026-04-11T08:10:13.001Z</time></trkpt><trkpt lat="45.08368904322698" lon="7.698304708817047"><ele>230.0</ele><time>2026-04-11T08:10:14.001Z</time></trkpt><trkpt lat="45.08378759441061" lon="7.6985283193471625"><ele>229.33333333333334</ele><time>2026-04-11T08:10:15.001Z</time></trkpt><trkpt lat="45.083898517831024" lon="7.698779940483749"><ele>228.66666666666669</ele><time>2026-04-11T08:10:16.001Z</time></trkpt><trkpt lat="45.083988000790754" lon="7.698982590644073"><ele>228.0</ele><time>2026-04-11T08:10:17.001Z</time></trkpt><trkpt lat="45.08405261686433" lon="7.6991289257962965"><ele>228.2</ele><time>2026-04-11T08:10:18.001Z</time></trkpt><trkpt lat="45.08410231426348" lon="7.6992414742186925"><ele>228.4</ele><time>2026-04-11T08:10:19.001Z</time></trkpt><trkpt lat="45.08415755247361" lon="7.699365103528306"><ele>228.59999999999997</ele><time>2026-04-11T08:10:20.001Z</time></trkpt><trkpt lat="45.08421003900438" lon="7.699481239987834"><ele>228.79999999999998</ele><time>2026-04-11T08:10:21.001Z</time></trkpt><trkpt lat="45.08426764614724" lon="7.699608706456384"><ele>229.0</ele><time>2026-04-11T08:10:22.001Z</time></trkpt><trkpt lat="45.08430604517069" lon="7.6997179996966985"><ele>229.0</ele><time>2026-04-11T08:10:23.001Z</time></trkpt><trkpt lat="45.08438018504786" lon="7.699881191784383"><ele>229.0</ele><time>2026-04-11T08:10:24.001Z</time></trkpt><trkpt lat="45.08446120427176" lon="7.700048837369101"><ele>229.0</ele><time>2026-04-11T08:10:25.001Z</time></trkpt><trkpt lat="45.08452731158489" lon="7.700196679619738"><ele>229.0</ele><time>2026-04-11T08:10:26.001Z</time></trkpt><trkpt lat="45.08458730769889" lon="7.7003364500849"><ele>228.5</ele><time>2026-04-11T08:10:27.001Z</time></trkpt><trkpt lat="45.08464602362331" lon="7.700475803220994"><ele>228.0</ele><time>2026-04-11T08:10:28.001Z</time></trkpt><trkpt lat="45.084708519992645" lon="7.700616641603822"><ele>227.5</ele><time>2026-04-11T08:10:29.001Z</time></trkpt><trkpt lat="45.08477205831596" lon="7.700760977399206"><ele>227.0</ele><time>2026-04-11T08:10:30.001Z</time></trkpt><trkpt lat="45.084838602846894" lon="7.7009101575282255"><ele>227.0</ele><time>2026-04-11T08:10:31.001Z</time></trkpt><trkpt lat="45.08490741623761" lon="7.701064037721266"><ele>227.0</ele><time>2026-04-11T08:10:32.001Z</time></trkpt><trkpt lat="45.08499466685781" lon="7.701249830270966"><ele>227.0</ele><time>2026-04-11T08:10:33.001Z</time></trkpt><trkpt lat="45.085102258489115" lon="7.701470966954739"><ele>227.0</ele><time>2026-04-11T08:10:34.001Z</time></trkpt><trkpt lat="45.08521158993376" lon="7.7017046887726535"><ele>227.0</ele><time>2026-04-11T08:10:35.001Z</time></trkpt><trkpt lat="45.085314191000634" lon="7.701950701489934"><ele>227.0</ele><time>2026-04-11T08:10:36.001Z</time></trkpt><trkpt lat="45.08542160055941" lon="7.70219559632305"><ele>227.0</ele><time>2026-04-11T08:10:37.001Z</time></trkpt><trkpt lat="45.08555528469648" lon="7.702477656591953"><ele>227.0</ele><time>2026-04-11T08:10:38.001Z</time></trkpt><trkpt lat="45.08568934221531" lon="7.702767908208435"><ele>227.0</ele><time>2026-04-11T08:10:39.001Z</time></trkpt><trkpt lat="45.085815336391455" lon="7.703039399320763"><ele>227.0</ele><time>2026-04-11T08:10:40.001Z</time></trkpt><trkpt lat="45.08592754522714" lon="7.703281255677815"><ele>227.0</ele><time>2026-04-11T08:10:41.001Z</time></trkpt><trkpt lat="45.08601444045205" lon="7.7034552056838015"><ele>226.83333333333334</ele><time>2026-04-11T08:10:42.001Z</time></trkpt><trkpt lat="45.08607900357395" lon="7.703590029177087"><ele>226.66666666666669</ele><time>2026-04-11T08:10:43.001Z</time></trkpt><trkpt lat="45.086129929018036" lon="7.703702648063135"><ele>226.5</ele><time>2026-04-11T08:10:44.001Z</time></trkpt><trkpt lat="45.0861651594563" lon="7.703788457617962"><ele>226.33333333333331</ele><time>2026-04-11T08:10:45.001Z</time></trkpt><trkpt lat="45.08620135914959" lon="7.703868546682116"><ele>226.16666666666666</ele><time>2026-04-11T08:10:47.001Z</time></trkpt><trkpt lat="45.08624683076765" lon="7.703975471718804"><ele>226.0</ele><time>2026-04-11T08:11:24.001Z</time></trkpt><trkpt lat="45.086305771942484" lon="7.70410557473694"><ele>226.0</ele><time>2026-04-11T08:11:25.001Z</time></trkpt><trkpt lat="45.08636788975389" lon="7.704250896603555"><ele>226.0</ele><time>2026-04-11T08:11:26.001Z</time></trkpt><trkpt lat="45.08645887440435" lon="7.704450372667887"><ele>226.0</ele><time>2026-04-11T08:11:27.001Z</time></trkpt><trkpt lat="45.08657485402578" lon="7.70469455984284"><ele>226.33333333333331</ele><time>2026-04-11T08:11:28.001Z</time></trkpt><trkpt lat="45.0866905834122" lon="7.704955054008132"><ele>226.66666666666669</ele><time>2026-04-11T08:11:29.001Z</time></trkpt><trkpt lat="45.08679470211117" lon="7.705181102567184"><ele>227.0</ele><time>2026-04-11T08:11:30.001Z</time></trkpt><trkpt lat="45.08689527871689" lon="7.705396777159235"><ele>227.0</ele><time>2026-04-11T08:11:31.001Z</time></trkpt><trkpt lat="45.08698423397369" lon="7.705595348974402"><ele>227.0</ele><time>2026-04-11T08:11:32Z</time></trkpt><trkpt lat="45.087068130570536" lon="7.70579060921191"><ele>227.0</ele><time>2026-04-11T08:11:33Z</time></trkpt><trkpt lat="45.087152349309605" lon="7.705974346630273"><ele>226.75</ele><time>2026-04-11T08:11:34Z</time></trkpt><trkpt lat="45.08723453306557" lon="7.706150924740639"><ele>226.5</ele><time>2026-04-11T08:11:35Z</time></trkpt><trkpt lat="45.08731395725572" lon="7.70632538959173"><ele>226.25</ele><time>2026-04-11T08:11:36Z</time></trkpt><trkpt lat="45.087389709789605" lon="7.706498916237767"><ele>226.0</ele><time>2026-04-11T08:11:37Z</time></trkpt><trkpt lat="45.08746255596754" lon="7.70666017329822"><ele>226.25</ele><time>2026-04-11T08:11:38Z</time></trkpt><trkpt lat="45.08753110143585" lon="7.706808028562543"><ele>226.5</ele><time>2026-04-11T08:11:39Z</time></trkpt><trkpt lat="45.08759705466611" lon="7.706947908706109"><ele>226.75</ele><time>2026-04-11T08:11:40Z</time></trkpt><trkpt lat="45.08765543323971" lon="7.70707766629249"><ele>227.0</ele><time>2026-04-11T08:11:41Z</time></trkpt><trkpt lat="45.08770557726321" lon="7.7071977650160255"><ele>227.00000000000003</ele><time>2026-04-11T08:11:42Z</time></trkpt><trkpt lat="45.087749347400496" lon="7.707298856263114"><ele>227.0</ele><time>2026-04-11T08:11:43Z</time></trkpt><trkpt lat="45.08778453303014" lon="7.707378906134428"><ele>227.0</ele><time>2026-04-11T08:11:44Z</time></trkpt><trkpt lat="45.08782863621091" lon="7.707483551469233"><ele>227.0</ele><time>2026-04-11T08:11:46Z</time></trkpt><trkpt lat="45.08786889261897" lon="7.707585019746764"><ele>227.00000000000003</ele><time>2026-04-11T08:11:50Z</time></trkpt><trkpt lat="45.08792952475243" lon="7.7077224918422695"><ele>227.0</ele><time>2026-04-11T08:11:51Z</time></trkpt><trkpt lat="45.087995431698815" lon="7.70787141479838"><ele>226.66666666666669</ele><time>2026-04-11T08:11:52Z</time></trkpt><trkpt lat="45.08808884112493" lon="7.708073359389568"><ele>226.33333333333331</ele><time>2026-04-11T08:11:53Z</time></trkpt><trkpt lat="45.088195601866296" lon="7.7083124992947765"><ele>226.0</ele><time>2026-04-11T08:11:54Z</time></trkpt><trkpt lat="45.0883205506179" lon="7.708577350277779"><ele>226.0</ele><time>2026-04-11T08:11:55Z</time></trkpt><trkpt lat="45.08843020629702" lon="7.7088232249234"><ele>226.0</ele><time>2026-04-11T08:11:56Z</time></trkpt><trkpt lat="45.08853739326561" lon="7.709056764928479"><ele>226.0</ele><time>2026-04-11T08:11:57Z</time></trkpt><trkpt lat="45.08863634556652" lon="7.709280066465496"><ele>226.0</ele><time>2026-04-11T08:11:58Z</time></trkpt><trkpt lat="45.08873839842484" lon="7.70950031842475"><ele>226.0</ele><time>2026-04-11T08:11:59Z</time></trkpt><trkpt lat="45.08883393815213" lon="7.709717778963582"><ele>226.0</ele><time>2026-04-11T08:12:00Z</time></trkpt><trkpt lat="45.088927805219654" lon="7.709923872014458"><ele>226.0</ele><time>2026-04-11T08:12:01Z</time></trkpt><trkpt lat="45.08901336348364" lon="7.710111683569633"><ele>226.0</ele><time>2026-04-11T08:12:02Z</time></trkpt><trkpt lat="45.089096324465984" lon="7.7102967591867095"><ele>226.0</ele><time>2026-04-11T08:12:03Z</time></trkpt><trkpt lat="45.089183574981526" lon="7.71048830433216"><ele>225.0</ele><time>2026-04-11T08:12:04Z</time></trkpt><trkpt lat="45.08927748400875" lon="7.710675753739107"><ele>224.0</ele><time>2026-04-11T08:12:05Z</time></trkpt><trkpt lat="45.089388092944546" lon="7.710852055153464"><ele>223.0</ele><time>2026-04-11T08:12:06Z</time></trkpt><trkpt lat="45.0895165478872" lon="7.7110062711512315"><ele>223.33333333333331</ele><time>2026-04-11T08:12:07Z</time></trkpt><trkpt lat="45.08965671378475" lon="7.711149732620104"><ele>223.66666666666669</ele><time>2026-04-11T08:12:08Z</time></trkpt><trkpt lat="45.08979607541264" lon="7.711280987634751"><ele>224.0</ele><time>2026-04-11T08:12:09Z</time></trkpt><trkpt lat="45.089913505930106" lon="7.7113981119633195"><ele>224.2</ele><time>2026-04-11T08:12:10Z</time></trkpt><trkpt lat="45.09001379981854" lon="7.711508649815902"><ele>224.39999999999998</ele><time>2026-04-11T08:12:11Z</time></trkpt><trkpt lat="45.09010659819388" lon="7.711599697470737"><ele>224.6</ele><time>2026-04-11T08:12:12Z</time></trkpt><trkpt lat="45.09017586972092" lon="7.711671417469126"><ele>224.8</ele><time>2026-04-11T08:12:13Z</time></trkpt><trkpt lat="45.09024606623634" lon="7.711742997609004"><ele>225.0</ele><time>2026-04-11T08:12:15Z</time></trkpt><trkpt lat="45.09029542657158" lon="7.711801362071981"><ele>225.0</ele><time>2026-04-11T08:12:29.001Z</time></trkpt><trkpt lat="45.09036589736215" lon="7.711874863052003"><ele>225.0</ele><time>2026-04-11T08:12:30.001Z</time></trkpt><trkpt lat="45.09043858175645" lon="7.7119601287986"><ele>225.0</ele><time>2026-04-11T08:12:31.001Z</time></trkpt><trkpt lat="45.090523813192455" lon="7.7120798119172775"><ele>225.0</ele><time>2026-04-11T08:12:32.001Z</time></trkpt><trkpt lat="45.09063580219631" lon="7.71221839390131"><ele>224.33333333333331</ele><time>2026-04-11T08:12:33.001Z</time></trkpt><trkpt lat="45.090779118226216" lon="7.712356542469691"><ele>223.66666666666666</ele><time>2026-04-11T08:12:34.001Z</time></trkpt><trkpt lat="45.090934473813924" lon="7.712503074436189"><ele>223.0</ele><time>2026-04-11T08:12:35.001Z</time></trkpt><trkpt lat="45.09109523342872" lon="7.712661760406061"><ele>223.33333333333331</ele><time>2026-04-11T08:12:36.001Z</time></trkpt><trkpt lat="45.09123983369541" lon="7.712814059704329"><ele>223.66666666666669</ele><time>2026-04-11T08:12:37.001Z</time></trkpt><trkpt lat="45.091376465165524" lon="7.712956411797558"><ele>224.0</ele><time>2026-04-11T08:12:38.001Z</time></trkpt><trkpt lat="45.09151832564692" lon="7.713103369309845"><ele>224.66666666666669</ele><time>2026-04-11T08:12:39.001Z</time></trkpt><trkpt lat="45.09166009978852" lon="7.713253536203044"><ele>225.33333333333331</ele><time>2026-04-11T08:12:40.001Z</time></trkpt><trkpt lat="45.091804520758274" lon="7.713403132806627"><ele>226.0</ele><time>2026-04-11T08:12:41.001Z</time></trkpt><trkpt lat="45.09195338300707" lon="7.713557766586733"><ele>226.0</ele><time>2026-04-11T08:12:42.001Z</time></trkpt><trkpt lat="45.09211816896883" lon="7.713726059648564"><ele>226.0</ele><time>2026-04-11T08:12:43.001Z</time></trkpt><trkpt lat="45.09228671334648" lon="7.7138990167567325"><ele>226.0</ele><time>2026-04-11T08:12:44.001Z</time></trkpt><trkpt lat="45.09243864127995" lon="7.714051952158472"><ele>226.0</ele><time>2026-04-11T08:12:45.001Z</time></trkpt><trkpt lat="45.09258135339813" lon="7.71420309885789"><ele>226.0</ele><time>2026-04-11T08:12:46.001Z</time></trkpt><trkpt lat="45.09272351775236" lon="7.714355350550557"><ele>226.0</ele><time>2026-04-11T08:12:47.001Z</time></trkpt><trkpt lat="45.092866493806454" lon="7.71449177554135"><ele>226.0</ele><time>2026-04-11T08:12:48.001Z</time></trkpt><trkpt lat="45.09299677098234" lon="7.714637728682047"><ele>226.0</ele><time>2026-04-11T08:12:49.001Z</time></trkpt><trkpt lat="45.093118437679244" lon="7.714764753978921"><ele>226.0</ele><time>2026-04-11T08:12:50.001Z</time></trkpt><trkpt lat="45.093210121808696" lon="7.714857944736373"><ele>226.0</ele><time>2026-04-11T08:12:51.001Z</time></trkpt><trkpt lat="45.09326537238618" lon="7.71491403498566"><ele>226.0</ele><time>2026-04-11T08:12:52.001Z</time></trkpt><trkpt lat="45.09335082980168" lon="7.715002556875721"><ele>226.00000000000003</ele><time>2026-04-11T08:14:14Z</time></trkpt><trkpt lat="45.09343600100407" lon="7.71509159159413"><ele>226.00000000000003</ele><time>2026-04-11T08:14:15Z</time></trkpt><trkpt lat="45.09351346725766" lon="7.715181132327809"><ele>226.0</ele><time>2026-04-11T08:14:16Z</time></trkpt><trkpt lat="45.09361823730583" lon="7.715282737459313"><ele>226.0</ele><time>2026-04-11T08:14:17Z</time></trkpt><trkpt lat="45.09374174776681" lon="7.715409700944142"><ele>225.66666666666666</ele><time>2026-04-11T08:14:18Z</time></trkpt><trkpt lat="45.09386150883749" lon="7.715532779464399"><ele>225.33333333333331</ele><time>2026-04-11T08:14:19Z</time></trkpt><trkpt lat="45.09397291932834" lon="7.7156719278649195"><ele>225.0</ele><time>2026-04-11T08:14:20Z</time></trkpt><trkpt lat="45.094095949451706" lon="7.715826545872263"><ele>225.0</ele><time>2026-04-11T08:14:21Z</time></trkpt><trkpt lat="45.09421070384277" lon="7.715982030950984"><ele>225.0</ele><time>2026-04-11T08:14:22Z</time></trkpt><trkpt lat="45.09431181357203" lon="7.716114783935803"><ele>225.0</ele><time>2026-04-11T08:14:23Z</time></trkpt><trkpt lat="45.094403819363414" lon="7.716243187129865"><ele>225.0</ele><time>2026-04-11T08:14:24Z</time></trkpt><trkpt lat="45.09448748581316" lon="7.716360035725949"><ele>224.2</ele><time>2026-04-11T08:14:25Z</time></trkpt><trkpt lat="45.09457064481831" lon="7.716468889180992"><ele>223.4</ele><time>2026-04-11T08:14:26Z</time></trkpt><trkpt lat="45.09463387678669" lon="7.716553105484032"><ele>222.60000000000002</ele><time>2026-04-11T08:14:27Z</time></trkpt><trkpt lat="45.09468782413407" lon="7.716634461139623"><ele>221.8</ele><time>2026-04-11T08:14:29Z</time></trkpt><trkpt lat="45.094796943727324" lon="7.716776506610972"><ele>221.0</ele><time>2026-04-11T08:14:41.001Z</time></trkpt><trkpt lat="45.09488014389458" lon="7.716894081664003"><ele>220.66666666666669</ele><time>2026-04-11T08:14:42.001Z</time></trkpt><trkpt lat="45.094998658385244" lon="7.71705624382253"><ele>220.33333333333331</ele><time>2026-04-11T08:14:43.001Z</time></trkpt><trkpt lat="45.0951098140949" lon="7.717211893334331"><ele>220.0</ele><time>2026-04-11T08:14:44.001Z</time></trkpt><trkpt lat="45.0952157196991" lon="7.717363050637204"><ele>220.0</ele><time>2026-04-11T08:14:45.001Z</time></trkpt><trkpt lat="45.09530937166883" lon="7.717495429044687"><ele>220.0</ele><time>2026-04-11T08:14:46.001Z</time></trkpt><trkpt lat="45.09539489923207" lon="7.717625594031298"><ele>220.0</ele><time>2026-04-11T08:14:47.001Z</time></trkpt><trkpt lat="45.095483995514385" lon="7.717745173333025"><ele>220.0</ele><time>2026-04-11T08:14:48.001Z</time></trkpt><trkpt lat="45.09559246826889" lon="7.717884214749405"><ele>220.25</ele><time>2026-04-11T08:14:49.001Z</time></trkpt><trkpt lat="45.09570584691875" lon="7.718025468836015"><ele>220.5</ele><time>2026-04-11T08:14:50.001Z</time></trkpt><trkpt lat="45.095807462182464" lon="7.718151892641166"><ele>220.75</ele><time>2026-04-11T08:14:51.001Z</time></trkpt><trkpt lat="45.09589680597692" lon="7.718286247262215"><ele>221.0</ele><time>2026-04-11T08:14:52.001Z</time></trkpt><trkpt lat="45.09597909299722" lon="7.718408540307098"><ele>220.0</ele><time>2026-04-11T08:14:53.001Z</time></trkpt><trkpt lat="45.09606733608865" lon="7.718526970097024"><ele>219.0</ele><time>2026-04-11T08:14:54.001Z</time></trkpt><trkpt lat="45.09615714541196" lon="7.718647198578397"><ele>218.0</ele><time>2026-04-11T08:14:55.001Z</time></trkpt><trkpt lat="45.09624995416743" lon="7.718765521507827"><ele>217.0</ele><time>2026-04-11T08:14:56.001Z</time></trkpt><trkpt lat="45.09633596004555" lon="7.718884151044056"><ele>216.25</ele><time>2026-04-11T08:14:57.001Z</time></trkpt><trkpt lat="45.09642067809684" lon="7.718998084811013"><ele>215.5</ele><time>2026-04-11T08:14:58.001Z</time></trkpt><trkpt lat="45.09650115604137" lon="7.7191071326251155"><ele>214.75</ele><time>2026-04-11T08:14:59.001Z</time></trkpt><trkpt lat="45.0965843642794" lon="7.719225965616189"><ele>214.0</ele><time>2026-04-11T08:15:00.001Z</time></trkpt><trkpt lat="45.09667046281381" lon="7.7193475993123855"><ele>214.0</ele><time>2026-04-11T08:15:01.001Z</time></trkpt><trkpt lat="45.09675576875194" lon="7.719464077821838"><ele>214.0</ele><time>2026-04-11T08:15:02.001Z</time></trkpt><trkpt lat="45.09691464919347" lon="7.719677670399922"><ele>214.0</ele><time>2026-04-11T08:15:04.001Z</time></trkpt><trkpt lat="45.09698345888815" lon="7.719774169504057"><ele>214.0</ele><time>2026-04-11T08:15:05.001Z</time></trkpt><trkpt lat="45.09705973290306" lon="7.719882163942581"><ele>214.0</ele><time>2026-04-11T08:15:06.001Z</time></trkpt><trkpt lat="45.097147198995486" lon="7.720001554810067"><ele>214.0</ele><time>2026-04-11T08:15:07.001Z</time></trkpt><trkpt lat="45.097237014116665" lon="7.720121028925612"><ele>214.0</ele><time>2026-04-11T08:15:08.001Z</time></trkpt><trkpt lat="45.097323153938355" lon="7.720241947307509"><ele>214.0</ele><time>2026-04-11T08:15:09.001Z</time></trkpt><trkpt lat="45.09741161258421" lon="7.720360477024208"><ele>213.5</ele><time>2026-04-11T08:15:10.001Z</time></trkpt><trkpt lat="45.09749898438466" lon="7.720473368408572"><ele>213.0</ele><time>2026-04-11T08:15:11.001Z</time></trkpt><trkpt lat="45.09758291144447" lon="7.72058454136966"><ele>212.5</ele><time>2026-04-11T08:15:12.001Z</time></trkpt><trkpt lat="45.09767215414029" lon="7.720707703063037"><ele>212.0</ele><time>2026-04-11T08:15:13.001Z</time></trkpt><trkpt lat="45.097761510828214" lon="7.7208346829592465"><ele>212.0</ele><time>2026-04-11T08:15:14.001Z</time></trkpt><trkpt lat="45.09785813073175" lon="7.7209654582455105"><ele>212.0</ele><time>2026-04-11T08:15:15.001Z</time></trkpt><trkpt lat="45.097958378705016" lon="7.721098166001495"><ele>212.0</ele><time>2026-04-11T08:15:16.001Z</time></trkpt><trkpt lat="45.09805520107821" lon="7.721230119448426"><ele>212.0</ele><time>2026-04-11T08:15:17.001Z</time></trkpt><trkpt lat="45.09814171749164" lon="7.721349872011923"><ele>211.75</ele><time>2026-04-11T08:15:18.001Z</time></trkpt><trkpt lat="45.09822832127335" lon="7.721467239422308"><ele>211.5</ele><time>2026-04-11T08:15:19.001Z</time></trkpt><trkpt lat="45.0983127484998" lon="7.72158455706933"><ele>211.25</ele><time>2026-04-11T08:15:20.001Z</time></trkpt><trkpt lat="45.09839936300634" lon="7.721706945404445"><ele>211.0</ele><time>2026-04-11T08:15:21.001Z</time></trkpt><trkpt lat="45.09847885774859" lon="7.721819318919217"><ele>210.83333333333331</ele><time>2026-04-11T08:15:22.001Z</time></trkpt><trkpt lat="45.09854332265369" lon="7.721914395131077"><ele>210.66666666666666</ele><time>2026-04-11T08:15:23.001Z</time></trkpt><trkpt lat="45.09859784870559" lon="7.721995136374756"><ele>210.5</ele><time>2026-04-11T08:15:24.001Z</time></trkpt><trkpt lat="45.09864448994505" lon="7.72206599729943"><ele>210.33333333333331</ele><time>2026-04-11T08:15:25.001Z</time></trkpt><trkpt lat="45.09868829919072" lon="7.722131028041667"><ele>210.16666666666666</ele><time>2026-04-11T08:15:26.001Z</time></trkpt><trkpt lat="45.09876229671605" lon="7.722242547128134"><ele>210.0</ele><time>2026-04-11T08:15:28.001Z</time></trkpt><trkpt lat="45.0988237005806" lon="7.722336260718576"><ele>210.0</ele><time>2026-04-11T08:15:30.001Z</time></trkpt><trkpt lat="45.098893679785895" lon="7.722431238492208"><ele>210.0</ele><time>2026-04-11T08:16:09Z</time></trkpt><trkpt lat="45.098967019635495" lon="7.722528467516462"><ele>210.0</ele><time>2026-04-11T08:16:11Z</time></trkpt><trkpt lat="45.09901483027433" lon="7.722601846970878"><ele>210.0</ele><time>2026-04-11T08:16:12Z</time></trkpt><trkpt lat="45.099059548955964" lon="7.722668176342599"><ele>210.0</ele><time>2026-04-11T08:16:13Z</time></trkpt><trkpt lat="45.09910975270434" lon="7.722741379308154"><ele>210.0</ele><time>2026-04-11T08:16:14Z</time></trkpt><trkpt lat="45.099161427968866" lon="7.722815780470584"><ele>210.6</ele><time>2026-04-11T08:16:15Z</time></trkpt><trkpt lat="45.09921770326997" lon="7.722896906289027"><ele>211.2</ele><time>2026-04-11T08:16:16Z</time></trkpt><trkpt lat="45.09928543344976" lon="7.723006577162243"><ele>211.8</ele><time>2026-04-11T08:16:17Z</time></trkpt><trkpt lat="45.09937197694836" lon="7.723096435683934"><ele>212.4</ele><time>2026-04-11T08:16:18Z</time></trkpt><trkpt lat="45.099403321581704" lon="7.723278622436587"><ele>213.0</ele><time>2026-04-11T08:16:19Z</time></trkpt><trkpt lat="45.09944907009239" lon="7.723428952344879"><ele>213.0</ele><time>2026-04-11T08:16:20Z</time></trkpt><trkpt lat="45.099480782436615" lon="7.723596800475844"><ele>213.0</ele><time>2026-04-11T08:16:21Z</time></trkpt><trkpt lat="45.09950838092928" lon="7.723797210347233"><ele>213.0</ele><time>2026-04-11T08:16:22Z</time></trkpt><trkpt lat="45.09953090645679" lon="7.724008507970611"><ele>213.0</ele><time>2026-04-11T08:16:23Z</time></trkpt><trkpt lat="45.099559406084545" lon="7.72425815660233"><ele>213.0</ele><time>2026-04-11T08:16:24Z</time></trkpt><trkpt lat="45.09959565958353" lon="7.724524020014225"><ele>213.0</ele><time>2026-04-11T08:16:25Z</time></trkpt><trkpt lat="45.09962426647176" lon="7.724756340858627"><ele>213.0</ele><time>2026-04-11T08:16:26Z</time></trkpt><trkpt lat="45.099647496564856" lon="7.724976249505811"><ele>213.0</ele><time>2026-04-11T08:16:27Z</time></trkpt><trkpt lat="45.099671645134805" lon="7.725196516047347"><ele>213.0</ele><time>2026-04-11T08:16:28Z</time></trkpt><trkpt lat="45.09969359676129" lon="7.7253965788582155"><ele>213.0</ele><time>2026-04-11T08:16:29Z</time></trkpt><trkpt lat="45.099715166607496" lon="7.725573814636961"><ele>213.0</ele><time>2026-04-11T08:16:30Z</time></trkpt><trkpt lat="45.09973368892606" lon="7.725725316913952"><ele>213.0</ele><time>2026-04-11T08:16:31Z</time></trkpt><trkpt lat="45.09975069195711" lon="7.725871193980574"><ele>213.0</ele><time>2026-04-11T08:16:32Z</time></trkpt><trkpt lat="45.099766484831534" lon="7.726027186607253"><ele>213.0</ele><time>2026-04-11T08:16:33Z</time></trkpt><trkpt lat="45.0997860061249" lon="7.726207623311198"><ele>213.0</ele><time>2026-04-11T08:16:34Z</time></trkpt><trkpt lat="45.09980973260891" lon="7.726409887392173"><ele>213.0</ele><time>2026-04-11T08:16:35Z</time></trkpt><trkpt lat="45.0998381415825" lon="7.726607120710351"><ele>213.0</ele><time>2026-04-11T08:16:36Z</time></trkpt><trkpt lat="45.09986316527691" lon="7.726765765439153"><ele>213.0</ele><time>2026-04-11T08:16:37Z</time></trkpt><trkpt lat="45.099884405957035" lon="7.726965603485239"><ele>213.0</ele><time>2026-04-11T08:17:06.001Z</time></trkpt><trkpt lat="45.099901612695284" lon="7.727097751072168"><ele>213.25</ele><time>2026-04-11T08:17:07.001Z</time></trkpt><trkpt lat="45.09991682361926" lon="7.727264991097883"><ele>213.5</ele><time>2026-04-11T08:17:08.001Z</time></trkpt><trkpt lat="45.09993492031504" lon="7.7274681471096"><ele>213.75</ele><time>2026-04-11T08:17:09.001Z</time></trkpt><trkpt lat="45.09996031539561" lon="7.727658109200435"><ele>214.0</ele><time>2026-04-11T08:17:10.001Z</time></trkpt><trkpt lat="45.09999077341957" lon="7.727837620894728"><ele>214.0</ele><time>2026-04-11T08:17:11.001Z</time></trkpt><trkpt lat="45.09999297762576" lon="7.72801098973918"><ele>214.0</ele><time>2026-04-11T08:17:12.001Z</time></trkpt><trkpt lat="45.1000215705907" lon="7.728176142213461"><ele>214.0</ele><time>2026-04-11T08:17:13.001Z</time></trkpt><trkpt lat="45.10004318510731" lon="7.728334528048664"><ele>214.0</ele><time>2026-04-11T08:17:14.001Z</time></trkpt><trkpt lat="45.10006440556144" lon="7.728533460885529"><ele>213.33333333333331</ele><time>2026-04-11T08:17:15.001Z</time></trkpt><trkpt lat="45.1000916183933" lon="7.728781043027367"><ele>212.66666666666669</ele><time>2026-04-11T08:17:16.001Z</time></trkpt><trkpt lat="45.10012391192899" lon="7.729053545345331"><ele>212.0</ele><time>2026-04-11T08:17:17.001Z</time></trkpt><trkpt lat="45.10015474079739" lon="7.729298503437627"><ele>212.33333333333334</ele><time>2026-04-11T08:17:18.001Z</time></trkpt><trkpt lat="45.10017698301139" lon="7.729527575649108"><ele>212.66666666666669</ele><time>2026-04-11T08:17:19.001Z</time></trkpt><trkpt lat="45.1002019726694" lon="7.729751418990289"><ele>213.0</ele><time>2026-04-11T08:17:20.001Z</time></trkpt><trkpt lat="45.10022561457526" lon="7.72997288208867"><ele>213.0</ele><time>2026-04-11T08:17:21.001Z</time></trkpt><trkpt lat="45.10024970588821" lon="7.730190374559332"><ele>213.0</ele><time>2026-04-11T08:17:22.001Z</time></trkpt><trkpt lat="45.10027506947704" lon="7.730395657453188"><ele>213.0</ele><time>2026-04-11T08:17:23.001Z</time></trkpt><trkpt lat="45.10030142754086" lon="7.730591300902697"><ele>213.0</ele><time>2026-04-11T08:17:24.001Z</time></trkpt><trkpt lat="45.10032333971315" lon="7.730787400256618"><ele>212.5</ele><time>2026-04-11T08:17:25.001Z</time></trkpt><trkpt lat="45.1003374183232" lon="7.7309789458516525"><ele>212.0</ele><time>2026-04-11T08:17:26.001Z</time></trkpt><trkpt lat="45.10035737812135" lon="7.731171000342363"><ele>211.5</ele><time>2026-04-11T08:17:27.001Z</time></trkpt><trkpt lat="45.10038121109169" lon="7.7313564976362805"><ele>211.0</ele><time>2026-04-11T08:17:28.001Z</time></trkpt><trkpt lat="45.10039752195042" lon="7.73152766921531"><ele>211.0</ele><time>2026-04-11T08:17:29.001Z</time></trkpt><trkpt lat="45.100411725612034" lon="7.731680929251491"><ele>211.0</ele><time>2026-04-11T08:17:30.001Z</time></trkpt><trkpt lat="45.100427486032935" lon="7.731816519416367"><ele>211.0</ele><time>2026-04-11T08:17:31.001Z</time></trkpt><trkpt lat="45.10043878330476" lon="7.731934179652983"><ele>211.0</ele><time>2026-04-11T08:17:32.001Z</time></trkpt><trkpt lat="45.10045486434296" lon="7.732078882988091"><ele>211.0</ele><time>2026-04-11T08:17:34.001Z</time></trkpt><trkpt lat="45.10047763457838" lon="7.732192915314327"><ele>211.0</ele><time>2026-04-11T08:18:16Z</time></trkpt><trkpt lat="45.1004978509998" lon="7.732339309421594"><ele>211.0</ele><time>2026-04-11T08:18:17Z</time></trkpt><trkpt lat="45.10051992366953" lon="7.732495458385068"><ele>211.0</ele><time>2026-04-11T08:18:18Z</time></trkpt><trkpt lat="45.10053666358019" lon="7.732697097645733"><ele>211.0</ele><time>2026-04-11T08:18:19Z</time></trkpt><trkpt lat="45.10055899624768" lon="7.732896584310637"><ele>211.0</ele><time>2026-04-11T08:18:20Z</time></trkpt><trkpt lat="45.10057737676406" lon="7.733101652521367"><ele>211.0</ele><time>2026-04-11T08:18:21Z</time></trkpt><trkpt lat="45.10060771376724" lon="7.733339646098776"><ele>211.0</ele><time>2026-04-11T08:18:22Z</time></trkpt><trkpt lat="45.1006318336279" lon="7.733565583893441"><ele>211.0</ele><time>2026-04-11T08:18:23Z</time></trkpt><trkpt lat="45.10065710258613" lon="7.733794051486044"><ele>211.0</ele><time>2026-04-11T08:18:24Z</time></trkpt><trkpt lat="45.100687000567866" lon="7.73402864605204"><ele>211.0</ele><time>2026-04-11T08:18:25Z</time></trkpt><trkpt lat="45.10070875558974" lon="7.734253105533621"><ele>211.0</ele><time>2026-04-11T08:18:26Z</time></trkpt><trkpt lat="45.100729826238286" lon="7.734461552767708"><ele>211.0</ele><time>2026-04-11T08:18:27Z</time></trkpt><trkpt lat="45.10075589120997" lon="7.734663735199704"><ele>211.0</ele><time>2026-04-11T08:18:28Z</time></trkpt><trkpt lat="45.10078044573899" lon="7.734877319795961"><ele>211.0</ele><time>2026-04-11T08:18:29Z</time></trkpt><trkpt lat="45.100809143313604" lon="7.735093220559732"><ele>210.66666666666666</ele><time>2026-04-11T08:18:30Z</time></trkpt><trkpt lat="45.10083678045111" lon="7.735319324665008"><ele>210.33333333333331</ele><time>2026-04-11T08:18:31Z</time></trkpt><trkpt lat="45.10086333876147" lon="7.735544388389356"><ele>210.0</ele><time>2026-04-11T08:18:32Z</time></trkpt><trkpt lat="45.100886409404225" lon="7.735770929525718"><ele>210.0</ele><time>2026-04-11T08:18:33Z</time></trkpt><trkpt lat="45.10091158049418" lon="7.736002640949695"><ele>210.0</ele><time>2026-04-11T08:18:34Z</time></trkpt><trkpt lat="45.10093864343431" lon="7.736237443382986"><ele>210.0</ele><time>2026-04-11T08:18:35Z</time></trkpt><trkpt lat="45.100964767213306" lon="7.7364660899813735"><ele>210.0</ele><time>2026-04-11T08:18:36Z</time></trkpt><trkpt lat="45.10099092832294" lon="7.736695350880049"><ele>210.0</ele><time>2026-04-11T08:18:37Z</time></trkpt><trkpt lat="45.101017135600685" lon="7.736917183819055"><ele>210.0</ele><time>2026-04-11T08:18:38Z</time></trkpt><trkpt lat="45.10104443470516" lon="7.737137283915034"><ele>210.33333333333331</ele><time>2026-04-11T08:18:39Z</time></trkpt><trkpt lat="45.10106848653342" lon="7.737351641783348"><ele>210.66666666666666</ele><time>2026-04-11T08:18:40Z</time></trkpt><trkpt lat="45.10109246789761" lon="7.737575137898399"><ele>211.0</ele><time>2026-04-11T08:18:41Z</time></trkpt><trkpt lat="45.101116884509615" lon="7.737789719478667"><ele>211.0</ele><time>2026-04-11T08:18:42Z</time></trkpt><trkpt lat="45.10113993415576" lon="7.73800618418802"><ele>211.0</ele><time>2026-04-11T08:18:43Z</time></trkpt><trkpt lat="45.101166214045065" lon="7.738223221493661"><ele>211.0</ele><time>2026-04-11T08:18:44Z</time></trkpt><trkpt lat="45.10119018439489" lon="7.738444060733903"><ele>210.0</ele><time>2026-04-11T08:18:45Z</time></trkpt><trkpt lat="45.1012166505044" lon="7.73867080561316"><ele>209.0</ele><time>2026-04-11T08:18:46Z</time></trkpt><trkpt lat="45.101247129323795" lon="7.7389109375239755"><ele>208.0</ele><time>2026-04-11T08:18:47Z</time></trkpt><trkpt lat="45.10127556609379" lon="7.7391580326549185"><ele>208.0</ele><time>2026-04-11T08:18:48Z</time></trkpt><trkpt lat="45.10130545591563" lon="7.739408301503786"><ele>208.0</ele><time>2026-04-11T08:18:49Z</time></trkpt><trkpt lat="45.10133396079334" lon="7.739666794508038"><ele>208.0</ele><time>2026-04-11T08:18:50.001Z</time></trkpt><trkpt lat="45.10135402052864" lon="7.7399046793163615"><ele>208.0</ele><time>2026-04-11T08:18:51.001Z</time></trkpt><trkpt lat="45.101381421195285" lon="7.740137051177108"><ele>208.0</ele><time>2026-04-11T08:18:52.001Z</time></trkpt><trkpt lat="45.10141080216416" lon="7.740364794054384"><ele>208.0</ele><time>2026-04-11T08:18:53.001Z</time></trkpt><trkpt lat="45.10143724340511" lon="7.740578699453552"><ele>209.0</ele><time>2026-04-11T08:18:54.001Z</time></trkpt><trkpt lat="45.10145743401849" lon="7.740788850164532"><ele>210.0</ele><time>2026-04-11T08:18:55.001Z</time></trkpt><trkpt lat="45.1014829740971" lon="7.740994502939424"><ele>211.0</ele><time>2026-04-11T08:18:56.001Z</time></trkpt><trkpt lat="45.101506432449504" lon="7.741208852473596"><ele>211.0</ele><time>2026-04-11T08:18:57.001Z</time></trkpt><trkpt lat="45.101528414679464" lon="7.741416054896197"><ele>211.0</ele><time>2026-04-11T08:18:58.001Z</time></trkpt><trkpt lat="45.101553407903566" lon="7.7416254645603955"><ele>211.0</ele><time>2026-04-11T08:18:59.001Z</time></trkpt><trkpt lat="45.1015766839642" lon="7.741837399292224"><ele>211.0</ele><time>2026-04-11T08:19:00.001Z</time></trkpt><trkpt lat="45.10159857067174" lon="7.74203368422424"><ele>211.0</ele><time>2026-04-11T08:19:01.001Z</time></trkpt><trkpt lat="45.10161965893959" lon="7.742215421677317"><ele>211.0</ele><time>2026-04-11T08:19:02.001Z</time></trkpt><trkpt lat="45.10164007991255" lon="7.742396871141944"><ele>211.0</ele><time>2026-04-11T08:19:03.001Z</time></trkpt><trkpt lat="45.10166408773524" lon="7.7425867564504465"><ele>211.0</ele><time>2026-04-11T08:19:04.001Z</time></trkpt><trkpt lat="45.101686945514764" lon="7.742782475201052"><ele>210.25</ele><time>2026-04-11T08:19:05.001Z</time></trkpt><trkpt lat="45.10170923198517" lon="7.742970226448712"><ele>209.5</ele><time>2026-04-11T08:19:06.001Z</time></trkpt><trkpt lat="45.10172962094168" lon="7.743152932048912"><ele>208.75</ele><time>2026-04-11T08:19:07.001Z</time></trkpt><trkpt lat="45.10174876329962" lon="7.743341068379598"><ele>208.0</ele><time>2026-04-11T08:19:08.001Z</time></trkpt><trkpt lat="45.10177006661653" lon="7.743538004402594"><ele>208.25</ele><time>2026-04-11T08:19:09.001Z</time></trkpt><trkpt lat="45.10179414805402" lon="7.743731914623822"><ele>208.5</ele><time>2026-04-11T08:19:10.001Z</time></trkpt><trkpt lat="45.10181663817007" lon="7.743925782601293"><ele>208.75</ele><time>2026-04-11T08:19:11.001Z</time></trkpt><trkpt lat="45.10183870185803" lon="7.744114139660268"><ele>209.0</ele><time>2026-04-11T08:19:12.001Z</time></trkpt><trkpt lat="45.10186157034482" lon="7.744304702881069"><ele>209.25</ele><time>2026-04-11T08:19:13.001Z</time></trkpt><trkpt lat="45.10188286912668" lon="7.744505828872887"><ele>209.5</ele><time>2026-04-11T08:19:14.001Z</time></trkpt><trkpt lat="45.10190617596839" lon="7.744708351705893"><ele>209.75</ele><time>2026-04-11T08:19:15.001Z</time></trkpt><trkpt lat="45.10193095521099" lon="7.744908846919383"><ele>210.0</ele><time>2026-04-11T08:19:16.001Z</time></trkpt><trkpt lat="45.101956339644445" lon="7.7451073487839155"><ele>210.25</ele><time>2026-04-11T08:19:17.001Z</time></trkpt><trkpt lat="45.10198165772999" lon="7.7453146048894705"><ele>210.5</ele><time>2026-04-11T08:19:18.001Z</time></trkpt><trkpt lat="45.1020045455914" lon="7.745519547640557"><ele>210.75</ele><time>2026-04-11T08:19:19.001Z</time></trkpt><trkpt lat="45.10202881601999" lon="7.745724038639131"><ele>211.0</ele><time>2026-04-11T08:19:20.001Z</time></trkpt><trkpt lat="45.102049087537175" lon="7.745936475546009"><ele>210.75</ele><time>2026-04-11T08:19:21.001Z</time></trkpt><trkpt lat="45.10207328480446" lon="7.746141300088516"><ele>210.5</ele><time>2026-04-11T08:19:22.001Z</time></trkpt><trkpt lat="45.10209603323562" lon="7.74635126131496"><ele>210.25</ele><time>2026-04-11T08:19:23.001Z</time></trkpt><trkpt lat="45.10211828437556" lon="7.746554623460722"><ele>210.0</ele><time>2026-04-11T08:19:24.001Z</time></trkpt><trkpt lat="45.102140142915125" lon="7.746761645162718"><ele>210.0</ele><time>2026-04-11T08:19:25.001Z</time></trkpt><trkpt lat="45.102162236625794" lon="7.746958894297528"><ele>210.0</ele><time>2026-04-11T08:19:26.001Z</time></trkpt><trkpt lat="45.102179505083505" lon="7.747140872856952"><ele>210.0</ele><time>2026-04-11T08:19:27.001Z</time></trkpt><trkpt lat="45.10219925438824" lon="7.747319083421005"><ele>210.0</ele><time>2026-04-11T08:19:28.001Z</time></trkpt><trkpt lat="45.10222214918758" lon="7.747505570477311"><ele>210.0</ele><time>2026-04-11T08:19:29.001Z</time></trkpt><trkpt lat="45.1022428214544" lon="7.747695140435734"><ele>210.0</ele><time>2026-04-11T08:19:30.001Z</time></trkpt><trkpt lat="45.102263272155284" lon="7.747886102110887"><ele>210.0</ele><time>2026-04-11T08:19:31.001Z</time></trkpt><trkpt lat="45.1022801199849" lon="7.748080998759885"><ele>210.0</ele><time>2026-04-11T08:19:32.001Z</time></trkpt><trkpt lat="45.10230516779205" lon="7.748280064562423"><ele>209.5</ele><time>2026-04-11T08:19:33.001Z</time></trkpt><trkpt lat="45.10232884277079" lon="7.748477996443668"><ele>209.0</ele><time>2026-04-11T08:19:34.001Z</time></trkpt><trkpt lat="45.10234911590001" lon="7.748668490392604"><ele>208.5</ele><time>2026-04-11T08:19:35.001Z</time></trkpt><trkpt lat="45.10236932255627" lon="7.748854164033567"><ele>208.0</ele><time>2026-04-11T08:19:36.001Z</time></trkpt><trkpt lat="45.102384274418576" lon="7.749026761619133"><ele>208.0</ele><time>2026-04-11T08:19:37.001Z</time></trkpt><trkpt lat="45.102404369342665" lon="7.749190093112847"><ele>208.0</ele><time>2026-04-11T08:19:38.001Z</time></trkpt><trkpt lat="45.10241955878928" lon="7.749342116682664"><ele>208.0</ele><time>2026-04-11T08:19:39.001Z</time></trkpt><trkpt lat="45.102436684525955" lon="7.749463020030139"><ele>208.0</ele><time>2026-04-11T08:19:40.001Z</time></trkpt><trkpt lat="45.102450838785316" lon="7.749569783682071"><ele>208.0</ele><time>2026-04-11T08:19:41.001Z</time></trkpt><trkpt lat="45.102462808044834" lon="7.749692141899684"><ele>207.99999999999997</ele><time>2026-04-11T08:19:43.001Z</time></trkpt><trkpt lat="45.10247436059747" lon="7.749784016351769"><ele>208.0</ele><time>2026-04-11T08:20:04Z</time></trkpt><trkpt lat="45.102480945714056" lon="7.749944510988409"><ele>208.0</ele><time>2026-04-11T08:20:06Z</time></trkpt><trkpt lat="45.10248636970995" lon="7.750036754751649"><ele>208.0</ele><time>2026-04-11T08:20:07Z</time></trkpt><trkpt lat="45.102501764637346" lon="7.750135728659386"><ele>207.99999999999997</ele><time>2026-04-11T08:20:08Z</time></trkpt><trkpt lat="45.10252924928352" lon="7.7502807761111026"><ele>208.0</ele><time>2026-04-11T08:20:09Z</time></trkpt><trkpt lat="45.10255743798202" lon="7.750475539016414"><ele>207.66666666666666</ele><time>2026-04-11T08:20:10Z</time></trkpt><trkpt lat="45.10258053399731" lon="7.750691317030636"><ele>207.33333333333331</ele><time>2026-04-11T08:20:11Z</time></trkpt><trkpt lat="45.102611189485216" lon="7.750937380956332"><ele>207.0</ele><time>2026-04-11T08:20:12Z</time></trkpt><trkpt lat="45.102641185138786" lon="7.75119513653231"><ele>207.0</ele><time>2026-04-11T08:20:13Z</time></trkpt><trkpt lat="45.10266779609915" lon="7.751441135239929"><ele>207.0</ele><time>2026-04-11T08:20:14Z</time></trkpt><trkpt lat="45.10269485114987" lon="7.751690762267486"><ele>207.0</ele><time>2026-04-11T08:20:15Z</time></trkpt><trkpt lat="45.102723550399034" lon="7.751944668025017"><ele>207.33333333333331</ele><time>2026-04-11T08:20:16Z</time></trkpt><trkpt lat="45.102751946726535" lon="7.7521957655164035"><ele>207.66666666666666</ele><time>2026-04-11T08:20:17Z</time></trkpt><trkpt lat="45.10278129784246" lon="7.752465661538502"><ele>208.0</ele><time>2026-04-11T08:20:18Z</time></trkpt><trkpt lat="45.1028121322094" lon="7.752738910841856"><ele>208.0</ele><time>2026-04-11T08:20:19Z</time></trkpt><trkpt lat="45.10284075780441" lon="7.752977223153656"><ele>208.0</ele><time>2026-04-11T08:20:20Z</time></trkpt><trkpt lat="45.102864731846886" lon="7.753192207958552"><ele>208.0</ele><time>2026-04-11T08:20:21Z</time></trkpt><trkpt lat="45.10288704738219" lon="7.75339443536764"><ele>208.25</ele><time>2026-04-11T08:20:22Z</time></trkpt><trkpt lat="45.1029077537641" lon="7.753593515750156"><ele>208.5</ele><time>2026-04-11T08:20:23Z</time></trkpt><trkpt lat="45.10292092898669" lon="7.753796845936919"><ele>208.75</ele><time>2026-04-11T08:20:24Z</time></trkpt><trkpt lat="45.10294454166685" lon="7.754010782234572"><ele>209.0</ele><time>2026-04-11T08:20:25Z</time></trkpt><trkpt lat="45.10297259053327" lon="7.754159690256658"><ele>209.0</ele><time>2026-04-11T08:20:26Z</time></trkpt><trkpt lat="45.10299133061027" lon="7.754331764718278"><ele>209.0</ele><time>2026-04-11T08:20:27Z</time></trkpt><trkpt lat="45.10300794545464" lon="7.754493011819384"><ele>209.0</ele><time>2026-04-11T08:20:28Z</time></trkpt><trkpt lat="45.10302292567798" lon="7.7546377039763605"><ele>209.0</ele><time>2026-04-11T08:20:29Z</time></trkpt><trkpt lat="45.10303586472738" lon="7.754765701425811"><ele>209.0</ele><time>2026-04-11T08:20:30Z</time></trkpt><trkpt lat="45.10304704906311" lon="7.754868009887445"><ele>208.66666666666669</ele><time>2026-04-11T08:20:31Z</time></trkpt><trkpt lat="45.10305142227788" lon="7.754971342335308"><ele>208.33333333333334</ele><time>2026-04-11T08:20:33Z</time></trkpt><trkpt lat="45.10306921274386" lon="7.755070264689074"><ele>208.0</ele><time>2026-04-11T08:20:37Z</time></trkpt><trkpt lat="45.10307279394574" lon="7.755170659908383"><ele>207.66666666666669</ele><time>2026-04-11T08:20:43Z</time></trkpt><trkpt lat="45.10307860485884" lon="7.755274595862036"><ele>207.33333333333334</ele><time>2026-04-11T08:20:44Z</time></trkpt><trkpt lat="45.103088110307425" lon="7.755378863498422"><ele>207.0</ele><time>2026-04-11T08:20:45Z</time></trkpt><trkpt lat="45.10310594109554" lon="7.7555516087078225"><ele>207.0</ele><time>2026-04-11T08:20:47Z</time></trkpt><trkpt lat="45.10312478636603" lon="7.755694023391261"><ele>207.0</ele><time>2026-04-11T08:20:48Z</time></trkpt><trkpt lat="45.103152990913294" lon="7.755896803467329"><ele>207.0</ele><time>2026-04-11T08:20:49Z</time></trkpt><trkpt lat="45.10317511944918" lon="7.756076625333056"><ele>207.0</ele><time>2026-04-11T08:20:50Z</time></trkpt><trkpt lat="45.10319448059935" lon="7.756280191337207"><ele>207.0</ele><time>2026-04-11T08:20:51Z</time></trkpt><trkpt lat="45.10321001831113" lon="7.7564720679481995"><ele>207.0</ele><time>2026-04-11T08:20:52Z</time></trkpt><trkpt lat="45.10322851167807" lon="7.756665589645791"><ele>207.0</ele><time>2026-04-11T08:20:53Z</time></trkpt><trkpt lat="45.10326476278025" lon="7.756857074760868"><ele>207.0</ele><time>2026-04-11T08:20:54Z</time></trkpt><trkpt lat="45.10328725455764" lon="7.757054969297465"><ele>207.33333333333331</ele><time>2026-04-11T08:20:55Z</time></trkpt><trkpt lat="45.10330802574845" lon="7.757237914560223"><ele>207.66666666666666</ele><time>2026-04-11T08:20:56Z</time></trkpt><trkpt lat="45.10331405221022" lon="7.757412155414395"><ele>208.0</ele><time>2026-04-11T08:20:57Z</time></trkpt><trkpt lat="45.103356911140054" lon="7.757785534157017"><ele>208.0</ele><time>2026-04-11T08:20:59Z</time></trkpt><trkpt lat="45.10337644860574" lon="7.757985902048197"><ele>208.0</ele><time>2026-04-11T08:21:00Z</time></trkpt><trkpt lat="45.10340257200948" lon="7.758175665102524"><ele>208.0</ele><time>2026-04-11T08:21:01Z</time></trkpt><trkpt lat="45.10342201612621" lon="7.7583488850583135"><ele>208.0</ele><time>2026-04-11T08:21:02Z</time></trkpt><trkpt lat="45.10344461330094" lon="7.758517777603812"><ele>207.75</ele><time>2026-04-11T08:21:03Z</time></trkpt><trkpt lat="45.10346709383315" lon="7.758683349168042"><ele>207.5</ele><time>2026-04-11T08:21:04Z</time></trkpt><trkpt lat="45.103490601139534" lon="7.758856436879003"><ele>207.25</ele><time>2026-04-11T08:21:05Z</time></trkpt><trkpt lat="45.10351198850642" lon="7.759047350348245"><ele>207.0</ele><time>2026-04-11T08:21:06Z</time></trkpt><trkpt lat="45.10353372846588" lon="7.759236769860467"><ele>207.0</ele><time>2026-04-11T08:21:07Z</time></trkpt><trkpt lat="45.10355374650878" lon="7.759415945707444"><ele>207.0</ele><time>2026-04-11T08:21:08.001Z</time></trkpt><trkpt lat="45.10357039026329" lon="7.759589441461506"><ele>207.0</ele><time>2026-04-11T08:21:09.001Z</time></trkpt><trkpt lat="45.10358129224491" lon="7.759754146800021"><ele>207.0</ele><time>2026-04-11T08:21:10.001Z</time></trkpt><trkpt lat="45.10358541400058" lon="7.759906369750238"><ele>207.0</ele><time>2026-04-11T08:21:11.001Z</time></trkpt><trkpt lat="45.103577338875745" lon="7.760043166408088"><ele>207.0</ele><time>2026-04-11T08:21:12.001Z</time></trkpt><trkpt lat="45.10355376112689" lon="7.760179044922157"><ele>207.0</ele><time>2026-04-11T08:21:13.001Z</time></trkpt><trkpt lat="45.103528457562554" lon="7.760307449973524"><ele>207.0</ele><time>2026-04-11T08:21:14.001Z</time></trkpt><trkpt lat="45.10350253078591" lon="7.760427041603772"><ele>207.0</ele><time>2026-04-11T08:21:15.001Z</time></trkpt><trkpt lat="45.10347684582855" lon="7.7605342880443065"><ele>207.16666666666666</ele><time>2026-04-11T08:21:16.001Z</time></trkpt><trkpt lat="45.10345405869772" lon="7.760631625776596"><ele>207.33333333333331</ele><time>2026-04-11T08:21:17.001Z</time></trkpt><trkpt lat="45.10343346742724" lon="7.760716276789132"><ele>207.5</ele><time>2026-04-11T08:21:18.001Z</time></trkpt><trkpt lat="45.103386390181946" lon="7.760852312046463"><ele>207.66666666666666</ele><time>2026-04-11T08:21:20.001Z</time></trkpt><trkpt lat="45.10330022315455" lon="7.760990862694644"><ele>207.83333333333331</ele><time>2026-04-11T08:21:22.001Z</time></trkpt><trkpt lat="45.103270379861556" lon="7.761075697108106"><ele>208.0</ele><time>2026-04-11T08:21:23.001Z</time></trkpt><trkpt lat="45.103269587856296" lon="7.761169419379517"><ele>207.25</ele><time>2026-04-11T08:21:24.001Z</time></trkpt><trkpt lat="45.10331684826578" lon="7.761312500860419"><ele>206.5</ele><time>2026-04-11T08:21:26.001Z</time></trkpt><trkpt lat="45.10334340667204" lon="7.761468274049293"><ele>205.75</ele><time>2026-04-11T08:21:28.001Z</time></trkpt><trkpt lat="45.10333923751544" lon="7.76155835735405"><ele>205.0</ele><time>2026-04-11T08:21:29.001Z</time></trkpt><trkpt lat="45.10333080751149" lon="7.761808907309452"><ele>204.2</ele><time>2026-04-11T08:21:32.001Z</time></trkpt><trkpt lat="45.10332580762237" lon="7.761901809644412"><ele>203.4</ele><time>2026-04-11T08:21:33.001Z</time></trkpt><trkpt lat="45.103316145975555" lon="7.762090354380873"><ele>202.60000000000002</ele><time>2026-04-11T08:21:35.001Z</time></trkpt><trkpt lat="45.103310102549294" lon="7.76220747847458"><ele>201.8</ele><time>2026-04-11T08:21:36.001Z</time></trkpt><trkpt lat="45.103304259547805" lon="7.762334496063696"><ele>201.0</ele><time>2026-04-11T08:21:37.001Z</time></trkpt><trkpt lat="45.103300387634235" lon="7.7624724511622425"><ele>201.0</ele><time>2026-04-11T08:21:38.001Z</time></trkpt><trkpt lat="45.103292395034714" lon="7.762611449861131"><ele>201.0</ele><time>2026-04-11T08:21:39.001Z</time></trkpt><trkpt lat="45.103287642471685" lon="7.762757344660818"><ele>201.0</ele><time>2026-04-11T08:21:40.001Z</time></trkpt><trkpt lat="45.10328311344384" lon="7.762908280994778"><ele>201.0</ele><time>2026-04-11T08:21:41.001Z</time></trkpt><trkpt lat="45.103275662528894" lon="7.7630625415040315"><ele>201.0</ele><time>2026-04-11T08:21:42.001Z</time></trkpt><trkpt lat="45.103268940469974" lon="7.763197324641168"><ele>201.0</ele><time>2026-04-11T08:21:43.001Z</time></trkpt><trkpt lat="45.10326960869278" lon="7.7633474578978205"><ele>201.0</ele><time>2026-04-11T08:21:44.001Z</time></trkpt><trkpt lat="45.10326609188176" lon="7.763477880096375"><ele>201.0</ele><time>2026-04-11T08:21:45.001Z</time></trkpt><trkpt lat="45.10325973356498" lon="7.763603381637377"><ele>201.0</ele><time>2026-04-11T08:21:46.001Z</time></trkpt><trkpt lat="45.1032553324369" lon="7.763728844614772"><ele>201.0</ele><time>2026-04-11T08:21:47.001Z</time></trkpt><trkpt lat="45.10324962226388" lon="7.763846594883262"><ele>201.42857142857142</ele><time>2026-04-11T08:21:48.001Z</time></trkpt><trkpt lat="45.10324598276231" lon="7.763956357925145"><ele>201.85714285714286</ele><time>2026-04-11T08:21:49.001Z</time></trkpt><trkpt lat="45.10324198016718" lon="7.764055137603609"><ele>202.28571428571428</ele><time>2026-04-11T08:21:50.001Z</time></trkpt><trkpt lat="45.103239526454665" lon="7.764148767148332"><ele>202.71428571428572</ele><time>2026-04-11T08:21:51.001Z</time></trkpt><trkpt lat="45.10323669963332" lon="7.764242697835278"><ele>203.14285714285717</ele><time>2026-04-11T08:21:52.001Z</time></trkpt><trkpt lat="45.10323220099974" lon="7.764334325654044"><ele>203.57142857142858</ele><time>2026-04-11T08:21:53.001Z</time></trkpt><trkpt lat="45.10322825102968" lon="7.764433279181454"><ele>204.0</ele><time>2026-04-11T08:21:54.001Z</time></trkpt><trkpt lat="45.103225959647574" lon="7.764539873667924"><ele>204.0</ele><time>2026-04-11T08:21:55.001Z</time></trkpt><trkpt lat="45.10322021727555" lon="7.764661472486679"><ele>204.0</ele><time>2026-04-11T08:21:56.001Z</time></trkpt><trkpt lat="45.10321935172082" lon="7.7647733269009995"><ele>204.0</ele><time>2026-04-11T08:21:57.001Z</time></trkpt><trkpt lat="45.103224713145934" lon="7.764895794522356"><ele>204.0</ele><time>2026-04-11T08:21:58.001Z</time></trkpt><trkpt lat="45.10323877259108" lon="7.765014525498959"><ele>204.0</ele><time>2026-04-11T08:21:59.001Z</time></trkpt><trkpt lat="45.103261543757924" lon="7.765138559507048"><ele>204.0</ele><time>2026-04-11T08:22:00.001Z</time></trkpt><trkpt lat="45.10330242558622" lon="7.765246143129689"><ele>205.0</ele><time>2026-04-11T08:22:01.001Z</time></trkpt><trkpt lat="45.10335640566672" lon="7.76534819954631"><ele>206.0</ele><time>2026-04-11T08:22:02Z</time></trkpt><trkpt lat="45.10341218822044" lon="7.765430810047565"><ele>207.0</ele><time>2026-04-11T08:22:03Z</time></trkpt><trkpt lat="45.10347452676841" lon="7.765511509211813"><ele>208.0</ele><time>2026-04-11T08:22:04Z</time></trkpt><trkpt lat="45.10354471956546" lon="7.765583922549755"><ele>209.0</ele><time>2026-04-11T08:22:05Z</time></trkpt><trkpt lat="45.103607296813124" lon="7.765654123500955"><ele>210.0</ele><time>2026-04-11T08:22:06Z</time></trkpt><trkpt lat="45.10366103950725" lon="7.765713164108733"><ele>210.0</ele><time>2026-04-11T08:22:07Z</time></trkpt><trkpt lat="45.103715688583705" lon="7.765770924188581"><ele>210.0</ele><time>2026-04-11T08:22:08Z</time></trkpt><trkpt lat="45.10381496104491" lon="7.765876122162282"><ele>210.0</ele><time>2026-04-11T08:22:10Z</time></trkpt><trkpt lat="45.10386656209755" lon="7.765933208312372"><ele>210.0</ele><time>2026-04-11T08:22:11Z</time></trkpt><trkpt lat="45.1039573283134" lon="7.766030586458682"><ele>210.0</ele><time>2026-04-11T08:22:13Z</time></trkpt><trkpt lat="45.104041681097" lon="7.766115915224743"><ele>209.2</ele><time>2026-04-11T08:22:15Z</time></trkpt><trkpt lat="45.104119991345364" lon="7.766193351770289"><ele>208.4</ele><time>2026-04-11T08:22:17Z</time></trkpt><trkpt lat="45.10419086132173" lon="7.766260373227908"><ele>207.60000000000002</ele><time>2026-04-11T08:22:19Z</time></trkpt><trkpt lat="45.104303231577695" lon="7.766355039743965"><ele>206.8</ele><time>2026-04-11T08:22:21Z</time></trkpt><trkpt lat="45.10437304954561" lon="7.766408622048051"><ele>206.0</ele><time>2026-04-11T08:22:22Z</time></trkpt><trkpt lat="45.10443859910337" lon="7.766466572851042"><ele>206.00000000000003</ele><time>2026-04-11T08:22:23Z</time></trkpt><trkpt lat="45.104495817350454" lon="7.766529633251915"><ele>206.0</ele><time>2026-04-11T08:22:24Z</time></trkpt><trkpt lat="45.104549182283286" lon="7.766589379867717"><ele>206.0</ele><time>2026-04-11T08:22:25Z</time></trkpt><trkpt lat="45.104632287720435" lon="7.766702450794305"><ele>206.0</ele><time>2026-04-11T08:22:27Z</time></trkpt><trkpt lat="45.104667112856795" lon="7.766783647256441"><ele>206.00000000000003</ele><time>2026-04-11T08:22:28Z</time></trkpt><trkpt lat="45.104699201290266" lon="7.7668761250691105"><ele>206.0</ele><time>2026-04-11T08:22:29Z</time></trkpt><trkpt lat="45.104714050457034" lon="7.766964292632609"><ele>207.66666666666669</ele><time>2026-04-11T08:22:30Z</time></trkpt><trkpt lat="45.1047256456329" lon="7.7670693582279515"><ele>209.33333333333334</ele><time>2026-04-11T08:22:31Z</time></trkpt><trkpt lat="45.104728526999786" lon="7.7671683921662975"><ele>211.0</ele><time>2026-04-11T08:22:32Z</time></trkpt><trkpt lat="45.10471907804417" lon="7.767260314085787"><ele>212.66666666666669</ele><time>2026-04-11T08:22:33Z</time></trkpt><trkpt lat="45.10469987475002" lon="7.767357156000491"><ele>214.33333333333334</ele><time>2026-04-11T08:22:34Z</time></trkpt><trkpt lat="45.10466971995361" lon="7.767446036871884"><ele>216.0</ele><time>2026-04-11T08:22:35Z</time></trkpt><trkpt lat="45.10459475680856" lon="7.767570897170693"><ele>216.0</ele><time>2026-04-11T08:22:37Z</time></trkpt><trkpt lat="45.10449883748987" lon="7.767650633382487"><ele>216.0</ele><time>2026-04-11T08:22:39Z</time></trkpt><trkpt lat="45.104430590917914" lon="7.767748118605937"><ele>216.0</ele><time>2026-04-11T08:22:41Z</time></trkpt><trkpt lat="45.10444826311281" lon="7.76794473051669"><ele>216.0</ele><time>2026-04-11T08:22:43Z</time></trkpt><trkpt lat="45.104550662023335" lon="7.7682736741275775"><ele>220.25</ele><time>2026-04-11T08:22:45Z</time></trkpt><trkpt lat="45.104560326230214" lon="7.768474822744853"><ele>224.5</ele><time>2026-04-11T08:22:46Z</time></trkpt><trkpt lat="45.104588979459784" lon="7.768672737032197"><ele>228.75</ele><time>2026-04-11T08:22:47Z</time></trkpt><trkpt lat="45.104610275070804" lon="7.768880159413105"><ele>233.0</ele><time>2026-04-11T08:22:48Z</time></trkpt><trkpt lat="45.104636141841894" lon="7.769103787396762"><ele>233.0</ele><time>2026-04-11T08:22:49Z</time></trkpt><trkpt lat="45.10465998054158" lon="7.769358017362865"><ele>233.0</ele><time>2026-04-11T08:22:50Z</time></trkpt><trkpt lat="45.104683129001806" lon="7.769609689591998"><ele>233.0</ele><time>2026-04-11T08:22:51Z</time></trkpt><trkpt lat="45.104701426802734" lon="7.769871824272922"><ele>233.0</ele><time>2026-04-11T08:22:52Z</time></trkpt><trkpt lat="45.1047249044993" lon="7.7701411059820815"><ele>233.0</ele><time>2026-04-11T08:22:53Z</time></trkpt><trkpt lat="45.10474917335391" lon="7.770411058821983"><ele>233.0</ele><time>2026-04-11T08:22:54Z</time></trkpt><trkpt lat="45.10477052835082" lon="7.770677736163613"><ele>233.66666666666669</ele><time>2026-04-11T08:22:55Z</time></trkpt><trkpt lat="45.104794754881574" lon="7.770937706589245"><ele>234.33333333333331</ele><time>2026-04-11T08:22:56Z</time></trkpt><trkpt lat="45.10481876788672" lon="7.77118894207044"><ele>235.0</ele><time>2026-04-11T08:22:57Z</time></trkpt><trkpt lat="45.10484233379969" lon="7.771428188133525"><ele>235.0</ele><time>2026-04-11T08:22:58Z</time></trkpt><trkpt lat="45.10486670167214" lon="7.771674002789994"><ele>235.0</ele><time>2026-04-11T08:22:59Z</time></trkpt><trkpt lat="45.10490527021274" lon="7.7719230533522055"><ele>235.0</ele><time>2026-04-11T08:23:00Z</time></trkpt><trkpt lat="45.10497360519061" lon="7.772176316113027"><ele>235.66666666666666</ele><time>2026-04-11T08:23:01Z</time></trkpt><trkpt lat="45.10503420011859" lon="7.7724445129954"><ele>236.33333333333331</ele><time>2026-04-11T08:23:02Z</time></trkpt><trkpt lat="45.105086168595825" lon="7.772726699527757"><ele>237.0</ele><time>2026-04-11T08:23:03Z</time></trkpt><trkpt lat="45.10516762634642" lon="7.772977426146073"><ele>237.0</ele><time>2026-04-11T08:23:04Z</time></trkpt><trkpt lat="45.105263280055325" lon="7.773216366270782"><ele>237.0</ele><time>2026-04-11T08:23:05Z</time></trkpt><trkpt lat="45.10537695977386" lon="7.773423017148032"><ele>237.0</ele><time>2026-04-11T08:23:06Z</time></trkpt><trkpt lat="45.10548784089789" lon="7.773601143797699"><ele>239.0</ele><time>2026-04-11T08:23:07Z</time></trkpt><trkpt lat="45.10559695768246" lon="7.7737648145791045"><ele>241.0</ele><time>2026-04-11T08:23:08Z</time></trkpt><trkpt lat="45.105698362286255" lon="7.7739145263662435"><ele>243.0</ele><time>2026-04-11T08:23:09Z</time></trkpt><trkpt lat="45.10579800721239" lon="7.774057875279"><ele>245.0</ele><time>2026-04-11T08:23:10Z</time></trkpt><trkpt lat="45.105889466882" lon="7.774197376365546"><ele>238.25</ele><time>2026-04-11T08:23:11Z</time></trkpt><trkpt lat="45.105978061528916" lon="7.7743351590501995"><ele>231.5</ele><time>2026-04-11T08:23:12Z</time></trkpt><trkpt lat="45.10606901369867" lon="7.7744527757878625"><ele>224.75</ele><time>2026-04-11T08:23:13Z</time></trkpt><trkpt lat="45.10616693839201" lon="7.774540122305061"><ele>218.0</ele><time>2026-04-11T08:23:14Z</time></trkpt><trkpt lat="45.1062667138598" lon="7.774601599348302"><ele>218.00000000000003</ele><time>2026-04-11T08:23:15Z</time></trkpt><trkpt lat="45.10636247678472" lon="7.774650861326676"><ele>218.0</ele><time>2026-04-11T08:23:16Z</time></trkpt><trkpt lat="45.10644490380671" lon="7.774692145191921"><ele>218.0</ele><time>2026-04-11T08:23:17Z</time></trkpt><trkpt lat="45.10652696191183" lon="7.7747246986526175"><ele>218.0</ele><time>2026-04-11T08:23:18Z</time></trkpt><trkpt lat="45.10658782905765" lon="7.77478111798808"><ele>218.00000000000003</ele><time>2026-04-11T08:23:19Z</time></trkpt><trkpt lat="45.106661088847765" lon="7.774820664766462"><ele>218.0</ele><time>2026-04-11T08:23:21Z</time></trkpt><trkpt lat="45.10676779428467" lon="7.7748766997809255"><ele>217.2</ele><time>2026-04-11T08:23:25Z</time></trkpt><trkpt lat="45.10684315364506" lon="7.774916201543044"><ele>216.4</ele><time>2026-04-11T08:23:26Z</time></trkpt><trkpt lat="45.10693740642709" lon="7.774965606835727"><ele>215.59999999999997</ele><time>2026-04-11T08:23:28Z</time></trkpt><trkpt lat="45.10704110127621" lon="7.774999557596395"><ele>214.79999999999998</ele><time>2026-04-11T08:23:44.001Z</time></trkpt><trkpt lat="45.10712980274819" lon="7.775066456872649"><ele>214.0</ele><time>2026-04-11T08:23:45.001Z</time></trkpt><trkpt lat="45.107231858762155" lon="7.775119952482064"><ele>214.66666666666666</ele><time>2026-04-11T08:23:46.001Z</time></trkpt><trkpt lat="45.10736556439529" lon="7.775190406860595"><ele>215.33333333333331</ele><time>2026-04-11T08:23:47.001Z</time></trkpt><trkpt lat="45.107512806980914" lon="7.775268108817223"><ele>216.0</ele><time>2026-04-11T08:23:48.001Z</time></trkpt><trkpt lat="45.10765633019587" lon="7.775344578775064"><ele>216.0</ele><time>2026-04-11T08:23:49.001Z</time></trkpt><trkpt lat="45.1077971019208" lon="7.775414320633164"><ele>216.0</ele><time>2026-04-11T08:23:50.001Z</time></trkpt><trkpt lat="45.10793609324472" lon="7.775454650842129"><ele>216.0</ele><time>2026-04-11T08:23:51.001Z</time></trkpt><trkpt lat="45.10806637823985" lon="7.775520901711707"><ele>216.0</ele><time>2026-04-11T08:23:52.001Z</time></trkpt><trkpt lat="45.108198687773765" lon="7.775564917268096"><ele>215.0</ele><time>2026-04-11T08:23:53.001Z</time></trkpt><trkpt lat="45.108339720863576" lon="7.7755933275494025"><ele>214.0</ele><time>2026-04-11T08:23:54.001Z</time></trkpt><trkpt lat="45.108491030130814" lon="7.775610351904322"><ele>213.0</ele><time>2026-04-11T08:23:55.001Z</time></trkpt><trkpt lat="45.108641892568876" lon="7.775634274706345"><ele>212.0</ele><time>2026-04-11T08:23:56.001Z</time></trkpt><trkpt lat="45.10879533634919" lon="7.775661483005427"><ele>212.0</ele><time>2026-04-11T08:23:57.001Z</time></trkpt><trkpt lat="45.10894557965272" lon="7.775687270242927"><ele>212.0</ele><time>2026-04-11T08:23:58.001Z</time></trkpt><trkpt lat="45.10909339161439" lon="7.775710441757785"><ele>212.0</ele><time>2026-04-11T08:23:59.001Z</time></trkpt><trkpt lat="45.109245382932286" lon="7.7757310213583555"><ele>210.66666666666669</ele><time>2026-04-11T08:24:00.001Z</time></trkpt><trkpt lat="45.10939902903157" lon="7.775754478639864"><ele>209.33333333333331</ele><time>2026-04-11T08:24:01.001Z</time></trkpt><trkpt lat="45.10955530560301" lon="7.775780136248378"><ele>208.0</ele><time>2026-04-11T08:24:02.001Z</time></trkpt><trkpt lat="45.109718351071166" lon="7.77580786095074"><ele>208.0</ele><time>2026-04-11T08:24:03.001Z</time></trkpt><trkpt lat="45.10988248872185" lon="7.7758360099025445"><ele>208.0</ele><time>2026-04-11T08:24:04.001Z</time></trkpt><trkpt lat="45.11004336889835" lon="7.775864740995963"><ele>208.0</ele><time>2026-04-11T08:24:05.001Z</time></trkpt><trkpt lat="45.110201446124684" lon="7.775891871785897"><ele>208.33333333333331</ele><time>2026-04-11T08:24:06.001Z</time></trkpt><trkpt lat="45.11035644833265" lon="7.775913756643871"><ele>208.66666666666669</ele><time>2026-04-11T08:24:07.001Z</time></trkpt><trkpt lat="45.11051276011949" lon="7.7759337199330245"><ele>209.0</ele><time>2026-04-11T08:24:08Z</time></trkpt><trkpt lat="45.11066647054202" lon="7.775958250836563"><ele>209.33333333333334</ele><time>2026-04-11T08:24:09Z</time></trkpt><trkpt lat="45.110820324046514" lon="7.775985968860085"><ele>209.66666666666669</ele><time>2026-04-11T08:24:10Z</time></trkpt><trkpt lat="45.11097268412982" lon="7.776020077123707"><ele>210.0</ele><time>2026-04-11T08:24:11Z</time></trkpt><trkpt lat="45.11111808921688" lon="7.776073247755157"><ele>211.33333333333331</ele><time>2026-04-11T08:24:12Z</time></trkpt><trkpt lat="45.111261196961166" lon="7.776160317684873"><ele>212.66666666666666</ele><time>2026-04-11T08:24:13Z</time></trkpt><trkpt lat="45.11139513614152" lon="7.776262317289108"><ele>214.0</ele><time>2026-04-11T08:24:14Z</time></trkpt><trkpt lat="45.111522207054094" lon="7.776386117690734"><ele>214.0</ele><time>2026-04-11T08:24:15Z</time></trkpt><trkpt lat="45.11163339486681" lon="7.7765405153000104"><ele>214.0</ele><time>2026-04-11T08:24:16Z</time></trkpt><trkpt lat="45.11174045051732" lon="7.776711152055907"><ele>214.0</ele><time>2026-04-11T08:24:17Z</time></trkpt><trkpt lat="45.11183645290428" lon="7.776903255739205"><ele>214.0</ele><time>2026-04-11T08:24:18Z</time></trkpt><trkpt lat="45.11192389538072" lon="7.77710875639995"><ele>214.0</ele><time>2026-04-11T08:24:19Z</time></trkpt><trkpt lat="45.11199971744174" lon="7.777321092892889"><ele>214.0</ele><time>2026-04-11T08:24:20Z</time></trkpt><trkpt lat="45.11207778804644" lon="7.777533107370486"><ele>214.66666666666666</ele><time>2026-04-11T08:24:21Z</time></trkpt><trkpt lat="45.11215867551574" lon="7.7777389214207115"><ele>215.33333333333331</ele><time>2026-04-11T08:24:22Z</time></trkpt><trkpt lat="45.112235882009635" lon="7.777943528530499"><ele>216.0</ele><time>2026-04-11T08:24:23Z</time></trkpt><trkpt lat="45.112312199661226" lon="7.778145776259928"><ele>216.0</ele><time>2026-04-11T08:24:24Z</time></trkpt><trkpt lat="45.112394534864485" lon="7.778359241093903"><ele>216.0</ele><time>2026-04-11T08:24:25Z</time></trkpt><trkpt lat="45.112482757074524" lon="7.778580922397083"><ele>216.0</ele><time>2026-04-11T08:24:26Z</time></trkpt><trkpt lat="45.11257262782976" lon="7.778805793480861"><ele>219.0</ele><time>2026-04-11T08:24:27Z</time></trkpt><trkpt lat="45.112656141926536" lon="7.779018004119632"><ele>222.0</ele><time>2026-04-11T08:24:28Z</time></trkpt><trkpt lat="45.11273222254622" lon="7.779217474678372"><ele>225.0</ele><time>2026-04-11T08:24:29Z</time></trkpt><trkpt lat="45.11280439365979" lon="7.779400022055192"><ele>226.25</ele><time>2026-04-11T08:24:30Z</time></trkpt><trkpt lat="45.11287635186562" lon="7.779573492369108"><ele>227.5</ele><time>2026-04-11T08:24:31Z</time></trkpt><trkpt lat="45.11295467997924" lon="7.779741393303364"><ele>228.75</ele><time>2026-04-11T08:24:32Z</time></trkpt><trkpt lat="45.113051736039836" lon="7.779905935606423"><ele>230.0</ele><time>2026-04-11T08:24:33Z</time></trkpt><trkpt lat="45.11316879365718" lon="7.780058868119738"><ele>230.33333333333334</ele><time>2026-04-11T08:24:34Z</time></trkpt><trkpt lat="45.11330829326788" lon="7.780204760782487"><ele>230.66666666666669</ele><time>2026-04-11T08:24:35Z</time></trkpt><trkpt lat="45.11346096774109" lon="7.780341241795852"><ele>231.0</ele><time>2026-04-11T08:24:36Z</time></trkpt><trkpt lat="45.11361267175729" lon="7.7804807385997075"><ele>231.0</ele><time>2026-04-11T08:24:37Z</time></trkpt><trkpt lat="45.1137539702481" lon="7.780615672532899"><ele>231.0</ele><time>2026-04-11T08:24:38Z</time></trkpt><trkpt lat="45.11388536476775" lon="7.780746014986318"><ele>231.0</ele><time>2026-04-11T08:24:39Z</time></trkpt><trkpt lat="45.11400155433967" lon="7.780850274749632"><ele>231.4</ele><time>2026-04-11T08:24:40Z</time></trkpt><trkpt lat="45.11410843874496" lon="7.780958304088335"><ele>231.8</ele><time>2026-04-11T08:24:41Z</time></trkpt><trkpt lat="45.11420271711505" lon="7.781055245404993"><ele>232.20000000000002</ele><time>2026-04-11T08:24:42Z</time></trkpt><trkpt lat="45.11429142628192" lon="7.781137141986328"><ele>232.60000000000002</ele><time>2026-04-11T08:24:43Z</time></trkpt><trkpt lat="45.11434964653723" lon="7.781196316947712"><ele>233.0</ele><time>2026-04-11T08:24:44Z</time></trkpt><trkpt lat="45.11441283838374" lon="7.7812509820657905"><ele>234.25</ele><time>2026-04-11T08:24:46Z</time></trkpt><trkpt lat="45.114519764886126" lon="7.781363900094275"><ele>235.5</ele><time>2026-04-11T08:25:02Z</time></trkpt><trkpt lat="45.114608904980464" lon="7.781449256537524"><ele>236.75</ele><time>2026-04-11T08:25:03Z</time></trkpt><trkpt lat="45.114698752526444" lon="7.781532336551713"><ele>238.0</ele><time>2026-04-11T08:25:04Z</time></trkpt><trkpt lat="45.11481375248705" lon="7.781634672083023"><ele>238.66666666666666</ele><time>2026-04-11T08:25:05Z</time></trkpt><trkpt lat="45.11493729866309" lon="7.781749082315795"><ele>239.33333333333331</ele><time>2026-04-11T08:25:06Z</time></trkpt><trkpt lat="45.11505528764992" lon="7.781868720338687"><ele>240.0</ele><time>2026-04-11T08:25:07Z</time></trkpt><trkpt lat="45.11518464576519" lon="7.781999988146711"><ele>241.33333333333331</ele><time>2026-04-11T08:25:08Z</time></trkpt><trkpt lat="45.115324360000855" lon="7.782129211147194"><ele>242.66666666666666</ele><time>2026-04-11T08:25:09Z</time></trkpt><trkpt lat="45.11545798783619" lon="7.782250903464745"><ele>244.0</ele><time>2026-04-11T08:25:10Z</time></trkpt><trkpt lat="45.115586703406635" lon="7.782378013497688"><ele>244.0</ele><time>2026-04-11T08:25:11Z</time></trkpt><trkpt lat="45.11570894132102" lon="7.7825144139457905"><ele>244.0</ele><time>2026-04-11T08:25:12Z</time></trkpt><trkpt lat="45.115832332719215" lon="7.7826733871432365"><ele>244.0</ele><time>2026-04-11T08:25:13Z</time></trkpt><trkpt lat="45.115942834569545" lon="7.782863647778116"><ele>241.66666666666666</ele><time>2026-04-11T08:25:14Z</time></trkpt><trkpt lat="45.11605111275087" lon="7.783064857930081"><ele>239.33333333333331</ele><time>2026-04-11T08:25:15Z</time></trkpt><trkpt lat="45.116161872527805" lon="7.783269509794724"><ele>237.0</ele><time>2026-04-11T08:25:16Z</time></trkpt><trkpt lat="45.1162725165349" lon="7.783468884557958"><ele>237.0</ele><time>2026-04-11T08:25:17Z</time></trkpt><trkpt lat="45.116383150131846" lon="7.783673288657989"><ele>237.0</ele><time>2026-04-11T08:25:18Z</time></trkpt><trkpt lat="45.11650152791158" lon="7.7838915874177195"><ele>237.0</ele><time>2026-04-11T08:25:19Z</time></trkpt><trkpt lat="45.1166190328812" lon="7.784119323543179"><ele>233.33333333333331</ele><time>2026-04-11T08:25:20Z</time></trkpt><trkpt lat="45.1167360291334" lon="7.784337851144749"><ele>229.66666666666666</ele><time>2026-04-11T08:25:21Z</time></trkpt><trkpt lat="45.116852249633354" lon="7.784551132469194"><ele>226.0</ele><time>2026-04-11T08:25:22Z</time></trkpt><trkpt lat="45.116967971142316" lon="7.784759926781462"><ele>225.33333333333331</ele><time>2026-04-11T08:25:23Z</time></trkpt><trkpt lat="45.117076526236076" lon="7.784961882552893"><ele>224.66666666666669</ele><time>2026-04-11T08:25:24Z</time></trkpt><trkpt lat="45.11718342251906" lon="7.785153232088201"><ele>224.0</ele><time>2026-04-11T08:25:25Z</time></trkpt><trkpt lat="45.11729585511066" lon="7.785320992508127"><ele>226.33333333333334</ele><time>2026-04-11T08:25:26Z</time></trkpt><trkpt lat="45.11739120680459" lon="7.785540186642915"><ele>228.66666666666669</ele><time>2026-04-11T08:25:27Z</time></trkpt><trkpt lat="45.11748853197736" lon="7.7857319415961665"><ele>231.0</ele><time>2026-04-11T08:25:28Z</time></trkpt><trkpt lat="45.11756196318505" lon="7.785946437560748"><ele>225.66666666666669</ele><time>2026-04-11T08:25:29Z</time></trkpt><trkpt lat="45.11762096628342" lon="7.786178617418946"><ele>220.33333333333334</ele><time>2026-04-11T08:25:30Z</time></trkpt><trkpt lat="45.11766488309481" lon="7.786423162771168"><ele>215.0</ele><time>2026-04-11T08:25:31Z</time></trkpt><trkpt lat="45.11769447270291" lon="7.786668324336376"><ele>214.66666666666669</ele><time>2026-04-11T08:25:32.001Z</time></trkpt><trkpt lat="45.11770349673801" lon="7.786911653673026"><ele>214.33333333333331</ele><time>2026-04-11T08:25:33.001Z</time></trkpt><trkpt lat="45.117698769838206" lon="7.787127784406438"><ele>214.0</ele><time>2026-04-11T08:25:34.001Z</time></trkpt><trkpt lat="45.11768789769219" lon="7.787325686989039"><ele>214.0</ele><time>2026-04-11T08:25:35.001Z</time></trkpt><trkpt lat="45.117669120402724" lon="7.7875316481015044"><ele>214.0</ele><time>2026-04-11T08:25:36.001Z</time></trkpt><trkpt lat="45.11764944102863" lon="7.787753346824906"><ele>214.0</ele><time>2026-04-11T08:25:37.001Z</time></trkpt><trkpt lat="45.11763807090961" lon="7.787978413829387"><ele>212.66666666666666</ele><time>2026-04-11T08:25:38.001Z</time></trkpt><trkpt lat="45.11762419251296" lon="7.788203835666078"><ele>211.33333333333331</ele><time>2026-04-11T08:25:39.001Z</time></trkpt><trkpt lat="45.1176098907572" lon="7.788429374541024"><ele>210.0</ele><time>2026-04-11T08:25:40.001Z</time></trkpt><trkpt lat="45.1175970484506" lon="7.788659818304272"><ele>210.0</ele><time>2026-04-11T08:25:41.001Z</time></trkpt><trkpt lat="45.1175810190231" lon="7.788882186119783"><ele>210.0</ele><time>2026-04-11T08:25:42.001Z</time></trkpt><trkpt lat="45.11756430152399" lon="7.789105241039209"><ele>210.0</ele><time>2026-04-11T08:25:43.001Z</time></trkpt><trkpt lat="45.117552321785475" lon="7.789330539726565"><ele>210.0</ele><time>2026-04-11T08:25:44.001Z</time></trkpt><trkpt lat="45.11754320888057" lon="7.789556760256406"><ele>210.0</ele><time>2026-04-11T08:25:45.001Z</time></trkpt><trkpt lat="45.11752844025174" lon="7.789772251354774"><ele>210.0</ele><time>2026-04-11T08:25:46.001Z</time></trkpt><trkpt lat="45.11751450472004" lon="7.789990138880258"><ele>209.33333333333331</ele><time>2026-04-11T08:25:47.001Z</time></trkpt><trkpt lat="45.11750647544054" lon="7.790209762739414"><ele>208.66666666666666</ele><time>2026-04-11T08:25:48.001Z</time></trkpt><trkpt lat="45.11749404634048" lon="7.790424103580651"><ele>208.0</ele><time>2026-04-11T08:25:49.001Z</time></trkpt><trkpt lat="45.11748100125463" lon="7.790641116115242"><ele>208.0</ele><time>2026-04-11T08:25:50.001Z</time></trkpt><trkpt lat="45.11746668935995" lon="7.7908596009848745"><ele>208.0</ele><time>2026-04-11T08:25:51.001Z</time></trkpt><trkpt lat="45.11745359825676" lon="7.791080080140913"><ele>208.0</ele><time>2026-04-11T08:25:52.001Z</time></trkpt><trkpt lat="45.11743912693621" lon="7.791298890996843"><ele>208.0</ele><time>2026-04-11T08:25:53.001Z</time></trkpt><trkpt lat="45.11742326243155" lon="7.791515677339088"><ele>208.0</ele><time>2026-04-11T08:25:54.001Z</time></trkpt><trkpt lat="45.117409488038795" lon="7.791736860496934"><ele>208.0</ele><time>2026-04-11T08:25:55.001Z</time></trkpt><trkpt lat="45.11739677353994" lon="7.791961491897926"><ele>212.33333333333331</ele><time>2026-04-11T08:25:56.001Z</time></trkpt><trkpt lat="45.117385076609054" lon="7.79218386457878"><ele>216.66666666666669</ele><time>2026-04-11T08:25:57.001Z</time></trkpt><trkpt lat="45.11737261912326" lon="7.792403967357372"><ele>221.0</ele><time>2026-04-11T08:25:58.001Z</time></trkpt><trkpt lat="45.117359108256565" lon="7.792620894878317"><ele>219.4</ele><time>2026-04-11T08:25:59.001Z</time></trkpt><trkpt lat="45.117346822977886" lon="7.79282480533816"><ele>217.8</ele><time>2026-04-11T08:26:00.001Z</time></trkpt><trkpt lat="45.11734089155831" lon="7.792991791110514"><ele>216.20000000000002</ele><time>2026-04-11T08:26:01.001Z</time></trkpt><trkpt lat="45.11734063542866" lon="7.7931230061969785"><ele>214.60000000000002</ele><time>2026-04-11T08:26:02.001Z</time></trkpt><trkpt lat="45.117346737884624" lon="7.793218252241131"><ele>213.0</ele><time>2026-04-11T08:26:03.001Z</time></trkpt><trkpt lat="45.11734855003289" lon="7.793316449667688"><ele>213.0</ele><time>2026-04-11T08:26:04.001Z</time></trkpt><trkpt lat="45.117346551147456" lon="7.793442304860158"><ele>213.0</ele><time>2026-04-11T08:26:05.001Z</time></trkpt><trkpt lat="45.11732641809932" lon="7.793613496299382"><ele>213.0</ele><time>2026-04-11T08:26:06.001Z</time></trkpt><trkpt lat="45.11730567042241" lon="7.793827248749737"><ele>213.0</ele><time>2026-04-11T08:26:07.001Z</time></trkpt><trkpt lat="45.11725715430367" lon="7.794271030612825"><ele>215.66666666666669</ele><time>2026-04-11T08:26:09.001Z</time></trkpt><trkpt lat="45.11724497963974" lon="7.7945028693707314"><ele>218.33333333333334</ele><time>2026-04-11T08:26:10.001Z</time></trkpt><trkpt lat="45.11723114604341" lon="7.794723118895912"><ele>221.0</ele><time>2026-04-11T08:26:11.001Z</time></trkpt><trkpt lat="45.11722469209279" lon="7.794925635219658"><ele>221.0</ele><time>2026-04-11T08:26:12.001Z</time></trkpt><trkpt lat="45.117218465099526" lon="7.795110847528117"><ele>221.0</ele><time>2026-04-11T08:26:13.001Z</time></trkpt><trkpt lat="45.117199478348" lon="7.795286121968881"><ele>221.0</ele><time>2026-04-11T08:26:14Z</time></trkpt><trkpt lat="45.11719109093127" lon="7.795459059934365"><ele>221.0</ele><time>2026-04-11T08:26:15Z</time></trkpt><trkpt lat="45.117180749191235" lon="7.795627892068433"><ele>221.0</ele><time>2026-04-11T08:26:16Z</time></trkpt><trkpt lat="45.11717335887344" lon="7.79578657026622"><ele>221.00000000000003</ele><time>2026-04-11T08:26:17Z</time></trkpt><trkpt lat="45.1171686933662" lon="7.79594043369062"><ele>221.00000000000003</ele><time>2026-04-11T08:26:18Z</time></trkpt><trkpt lat="45.11716053036978" lon="7.796084852568921"><ele>221.0</ele><time>2026-04-11T08:26:19Z</time></trkpt><trkpt lat="45.117152510927745" lon="7.796205421929377"><ele>221.0</ele><time>2026-04-11T08:26:20Z</time></trkpt><trkpt lat="45.117146687248834" lon="7.796312842176923"><ele>221.0</ele><time>2026-04-11T08:26:21Z</time></trkpt><trkpt lat="45.117144720075245" lon="7.7964126902550435"><ele>221.00000000000003</ele><time>2026-04-11T08:26:22Z</time></trkpt><trkpt lat="45.11713646384204" lon="7.796518965177201"><ele>221.00000000000003</ele><time>2026-04-11T08:26:23Z</time></trkpt><trkpt lat="45.11712261643342" lon="7.796681556865164"><ele>221.0</ele><time>2026-04-11T08:26:24Z</time></trkpt><trkpt lat="45.11711215898774" lon="7.796860992593576"><ele>221.0</ele><time>2026-04-11T08:26:25Z</time></trkpt><trkpt lat="45.11710137964058" lon="7.797034635774059"><ele>220.0</ele><time>2026-04-11T08:26:26Z</time></trkpt><trkpt lat="45.11709041740189" lon="7.797221113669976"><ele>219.0</ele><time>2026-04-11T08:26:27Z</time></trkpt><trkpt lat="45.11707872562261" lon="7.797423871877056"><ele>218.0</ele><time>2026-04-11T08:26:28Z</time></trkpt><trkpt lat="45.11706615595842" lon="7.797619480740591"><ele>217.0</ele><time>2026-04-11T08:26:29Z</time></trkpt><trkpt lat="45.11705572266254" lon="7.797821045516083"><ele>216.0</ele><time>2026-04-11T08:26:30Z</time></trkpt><trkpt lat="45.11704431946974" lon="7.798027490248743"><ele>215.0</ele><time>2026-04-11T08:26:31Z</time></trkpt><trkpt lat="45.11702337093553" lon="7.798241014452492"><ele>214.0</ele><time>2026-04-11T08:26:32Z</time></trkpt><trkpt lat="45.11700288922285" lon="7.798453069151937"><ele>213.0</ele><time>2026-04-11T08:26:33Z</time></trkpt><trkpt lat="45.116999593608256" lon="7.798666426036251"><ele>213.0</ele><time>2026-04-11T08:26:34Z</time></trkpt><trkpt lat="45.11698565696241" lon="7.798882583168341"><ele>213.0</ele><time>2026-04-11T08:26:35Z</time></trkpt><trkpt lat="45.116971374300725" lon="7.799094929149722"><ele>213.0</ele><time>2026-04-11T08:26:36Z</time></trkpt><trkpt lat="45.11696072314436" lon="7.799304374962871"><ele>213.33333333333331</ele><time>2026-04-11T08:26:37Z</time></trkpt><trkpt lat="45.11694848479453" lon="7.799526612942769"><ele>213.66666666666666</ele><time>2026-04-11T08:26:38Z</time></trkpt><trkpt lat="45.11693739581257" lon="7.799740839027075"><ele>214.0</ele><time>2026-04-11T08:26:39Z</time></trkpt><trkpt lat="45.11693751247853" lon="7.799950177629426"><ele>214.0</ele><time>2026-04-11T08:26:40Z</time></trkpt><trkpt lat="45.1169586511571" lon="7.800148482405462"><ele>214.0</ele><time>2026-04-11T08:26:41Z</time></trkpt><trkpt lat="45.117010667803505" lon="7.8003652641994"><ele>214.0</ele><time>2026-04-11T08:26:42Z</time></trkpt><trkpt lat="45.11706674190684" lon="7.800629263651188"><ele>214.25</ele><time>2026-04-11T08:26:43Z</time></trkpt><trkpt lat="45.11711066189234" lon="7.800843013739785"><ele>214.5</ele><time>2026-04-11T08:26:44Z</time></trkpt><trkpt lat="45.11714914022726" lon="7.801035372626647"><ele>214.75</ele><time>2026-04-11T08:26:45Z</time></trkpt><trkpt lat="45.11719009771844" lon="7.801234430722351"><ele>215.0</ele><time>2026-04-11T08:26:46Z</time></trkpt><trkpt lat="45.1172345707714" lon="7.801441792950878"><ele>216.33333333333334</ele><time>2026-04-11T08:26:47Z</time></trkpt><trkpt lat="45.11727564257234" lon="7.801662376046042"><ele>217.66666666666669</ele><time>2026-04-11T08:26:48Z</time></trkpt><trkpt lat="45.11731566865577" lon="7.801887134130113"><ele>219.0</ele><time>2026-04-11T08:26:49Z</time></trkpt><trkpt lat="45.11735798627002" lon="7.802116310907959"><ele>218.66666666666669</ele><time>2026-04-11T08:26:50Z</time></trkpt><trkpt lat="45.11740440109569" lon="7.802348134248236"><ele>218.33333333333334</ele><time>2026-04-11T08:26:51Z</time></trkpt><trkpt lat="45.11745083224455" lon="7.802580900615074"><ele>218.0</ele><time>2026-04-11T08:26:52Z</time></trkpt><trkpt lat="45.11750515401921" lon="7.8028101221503965"><ele>218.0</ele><time>2026-04-11T08:26:53Z</time></trkpt><trkpt lat="45.11755046332761" lon="7.80303598929243"><ele>218.0</ele><time>2026-04-11T08:26:54Z</time></trkpt><trkpt lat="45.11759294923513" lon="7.803252669680385"><ele>218.0</ele><time>2026-04-11T08:26:55Z</time></trkpt><trkpt lat="45.117630513790225" lon="7.80345486600686"><ele>217.66666666666669</ele><time>2026-04-11T08:26:56Z</time></trkpt><trkpt lat="45.11767137992578" lon="7.803672421104277"><ele>217.33333333333331</ele><time>2026-04-11T08:26:57Z</time></trkpt><trkpt lat="45.11771183057583" lon="7.80389392649643"><ele>217.0</ele><time>2026-04-11T08:26:58Z</time></trkpt><trkpt lat="45.11774336886456" lon="7.804117084185787"><ele>217.33333333333331</ele><time>2026-04-11T08:26:59Z</time></trkpt><trkpt lat="45.11776280991713" lon="7.804350803233826"><ele>217.66666666666669</ele><time>2026-04-11T08:27:00Z</time></trkpt><trkpt lat="45.11778279834301" lon="7.804580766025516"><ele>218.0</ele><time>2026-04-11T08:27:01Z</time></trkpt><trkpt lat="45.117803934558495" lon="7.804807639640749"><ele>218.0</ele><time>2026-04-11T08:27:02Z</time></trkpt><trkpt lat="45.117824702574374" lon="7.805009096276012"><ele>218.0</ele><time>2026-04-11T08:27:03Z</time></trkpt><trkpt lat="45.11785706296764" lon="7.805201335608905"><ele>218.0</ele><time>2026-04-11T08:27:04Z</time></trkpt><trkpt lat="45.11790846926162" lon="7.805398462519292"><ele>218.0</ele><time>2026-04-11T08:27:05Z</time></trkpt><trkpt lat="45.11797911891266" lon="7.80559997145323"><ele>217.0</ele><time>2026-04-11T08:27:06Z</time></trkpt><trkpt lat="45.118058229560205" lon="7.805805558987742"><ele>216.0</ele><time>2026-04-11T08:27:07Z</time></trkpt><trkpt lat="45.11813930700209" lon="7.806002242509123"><ele>215.0</ele><time>2026-04-11T08:27:08Z</time></trkpt><trkpt lat="45.11820427963108" lon="7.806179460339584"><ele>215.25</ele><time>2026-04-11T08:27:09Z</time></trkpt><trkpt lat="45.11826529644679" lon="7.806339843330172"><ele>215.5</ele><time>2026-04-11T08:27:10Z</time></trkpt><trkpt lat="45.118314907091" lon="7.806500945723414"><ele>215.75</ele><time>2026-04-11T08:27:11Z</time></trkpt><trkpt lat="45.11837711880049" lon="7.806663946604661"><ele>216.0</ele><time>2026-04-11T08:27:12Z</time></trkpt><trkpt lat="45.11844402435582" lon="7.806839831857913"><ele>216.0</ele><time>2026-04-11T08:27:13Z</time></trkpt><trkpt lat="45.11850821365172" lon="7.8070190266375805"><ele>216.0</ele><time>2026-04-11T08:27:14Z</time></trkpt><trkpt lat="45.11857423102625" lon="7.807192444486515"><ele>216.0</ele><time>2026-04-11T08:27:15Z</time></trkpt><trkpt lat="45.11863573623079" lon="7.8073535607295845"><ele>216.0</ele><time>2026-04-11T08:27:16Z</time></trkpt><trkpt lat="45.11870048053207" lon="7.807522355992694"><ele>216.5</ele><time>2026-04-11T08:27:17Z</time></trkpt><trkpt lat="45.1187627716318" lon="7.807692790416938"><ele>217.0</ele><time>2026-04-11T08:27:18Z</time></trkpt><trkpt lat="45.11882609674228" lon="7.807862314449934"><ele>217.5</ele><time>2026-04-11T08:27:19Z</time></trkpt><trkpt lat="45.11888951773669" lon="7.808033291452887"><ele>218.0</ele><time>2026-04-11T08:27:20Z</time></trkpt><trkpt lat="45.11895334474295" lon="7.8082070197686795"><ele>218.0</ele><time>2026-04-11T08:27:21Z</time></trkpt><trkpt lat="45.11901854329394" lon="7.808386973352324"><ele>218.0</ele><time>2026-04-11T08:27:22Z</time></trkpt><trkpt lat="45.119084214328744" lon="7.80855878474515"><ele>218.0</ele><time>2026-04-11T08:27:23Z</time></trkpt><trkpt lat="45.11914655480892" lon="7.808735591464536"><ele>218.0</ele><time>2026-04-11T08:27:24Z</time></trkpt><trkpt lat="45.119201860407216" lon="7.808880594933878"><ele>217.5</ele><time>2026-04-11T08:27:25Z</time></trkpt><trkpt lat="45.11925452599006" lon="7.809023213381846"><ele>217.0</ele><time>2026-04-11T08:27:26Z</time></trkpt><trkpt lat="45.119311036196315" lon="7.809173938558432"><ele>216.5</ele><time>2026-04-11T08:27:27Z</time></trkpt><trkpt lat="45.119373863337984" lon="7.8093390455780085"><ele>216.0</ele><time>2026-04-11T08:27:28Z</time></trkpt><trkpt lat="45.119443044709186" lon="7.8095059142571746"><ele>216.0</ele><time>2026-04-11T08:27:29Z</time></trkpt><trkpt lat="45.119520345142426" lon="7.809680231734615"><ele>216.0</ele><time>2026-04-11T08:27:30Z</time></trkpt><trkpt lat="45.11959977673593" lon="7.809850573330572"><ele>216.0</ele><time>2026-04-11T08:27:31Z</time></trkpt><trkpt lat="45.11967942564838" lon="7.810018318857965"><ele>216.0</ele><time>2026-04-11T08:27:32Z</time></trkpt><trkpt lat="45.119771306602935" lon="7.810191072884573"><ele>215.5</ele><time>2026-04-11T08:27:33Z</time></trkpt><trkpt lat="45.119857451979534" lon="7.810358504693112"><ele>215.0</ele><time>2026-04-11T08:27:34Z</time></trkpt><trkpt lat="45.11994276916464" lon="7.810525279376016"><ele>214.5</ele><time>2026-04-11T08:27:35Z</time></trkpt><trkpt lat="45.120028033696684" lon="7.8106899687525075"><ele>214.0</ele><time>2026-04-11T08:27:36Z</time></trkpt><trkpt lat="45.12011839603391" lon="7.810844944899615"><ele>215.75</ele><time>2026-04-11T08:27:37Z</time></trkpt><trkpt lat="45.12019821375235" lon="7.811018253034702"><ele>217.5</ele><time>2026-04-11T08:27:38Z</time></trkpt><trkpt lat="45.120281088030865" lon="7.811171127622301"><ele>219.25</ele><time>2026-04-11T08:27:39Z</time></trkpt><trkpt lat="45.12036122579042" lon="7.81132879568589"><ele>221.0</ele><time>2026-04-11T08:27:40Z</time></trkpt><trkpt lat="45.120441187205266" lon="7.811477213832818"><ele>221.0</ele><time>2026-04-11T08:27:41Z</time></trkpt><trkpt lat="45.12051905472503" lon="7.811626498174975"><ele>221.0</ele><time>2026-04-11T08:27:42.001Z</time></trkpt><trkpt lat="45.12059594663222" lon="7.8117736914034275"><ele>221.0</ele><time>2026-04-11T08:27:43.001Z</time></trkpt><trkpt lat="45.1206712169152" lon="7.811916060971317"><ele>221.0</ele><time>2026-04-11T08:27:44.001Z</time></trkpt><trkpt lat="45.120743547086306" lon="7.81205096025358"><ele>220.60000000000002</ele><time>2026-04-11T08:27:45.001Z</time></trkpt><trkpt lat="45.12081134670239" lon="7.8121792162551875"><ele>220.20000000000002</ele><time>2026-04-11T08:27:46.001Z</time></trkpt><trkpt lat="45.12087840278088" lon="7.812298852263409"><ele>219.79999999999998</ele><time>2026-04-11T08:27:47.001Z</time></trkpt><trkpt lat="45.12093364035909" lon="7.812401300993445"><ele>219.39999999999998</ele><time>2026-04-11T08:27:48.001Z</time></trkpt><trkpt lat="45.120979235399425" lon="7.812495478535485"><ele>219.0</ele><time>2026-04-11T08:27:49.001Z</time></trkpt><trkpt lat="45.121025310349495" lon="7.812579223728283"><ele>219.0</ele><time>2026-04-11T08:27:50.001Z</time></trkpt><trkpt lat="45.121062055140754" lon="7.812652463331378"><ele>218.99999999999997</ele><time>2026-04-11T08:27:51.001Z</time></trkpt><trkpt lat="45.121098102818486" lon="7.812746493691012"><ele>218.99999999999997</ele><time>2026-04-11T08:27:54.001Z</time></trkpt><trkpt lat="45.121168459051994" lon="7.812852631319538"><ele>219.0</ele><time>2026-04-11T08:28:05.001Z</time></trkpt><trkpt lat="45.12123018556141" lon="7.812973301547687"><ele>219.0</ele><time>2026-04-11T08:28:06.001Z</time></trkpt><trkpt lat="45.12129018521729" lon="7.813097957810471"><ele>219.25</ele><time>2026-04-11T08:28:07.001Z</time></trkpt><trkpt lat="45.12136463468468" lon="7.8132372552039735"><ele>219.5</ele><time>2026-04-11T08:28:08.001Z</time></trkpt><trkpt lat="45.12143687348501" lon="7.813385100638197"><ele>219.75</ele><time>2026-04-11T08:28:09.001Z</time></trkpt><trkpt lat="45.12151141029446" lon="7.813565952582034"><ele>220.0</ele><time>2026-04-11T08:28:10.001Z</time></trkpt><trkpt lat="45.121572207341295" lon="7.8137704950677795"><ele>220.0</ele><time>2026-04-11T08:28:11.001Z</time></trkpt><trkpt lat="45.12160198954074" lon="7.813964389837469"><ele>220.0</ele><time>2026-04-11T08:28:12.001Z</time></trkpt><trkpt lat="45.121619815066154" lon="7.814155753954534"><ele>220.0</ele><time>2026-04-11T08:28:13.001Z</time></trkpt><trkpt lat="45.12163260759255" lon="7.814339715770633"><ele>220.0</ele><time>2026-04-11T08:28:14.001Z</time></trkpt><trkpt lat="45.12164988846796" lon="7.814498748673583"><ele>219.6</ele><time>2026-04-11T08:28:15.001Z</time></trkpt><trkpt lat="45.12166611184" lon="7.8146472184269475"><ele>219.2</ele><time>2026-04-11T08:28:16.001Z</time></trkpt><trkpt lat="45.12168236985144" lon="7.814783834248055"><ele>218.8</ele><time>2026-04-11T08:28:17.001Z</time></trkpt><trkpt lat="45.121697317371414" lon="7.8149072791927985"><ele>218.4</ele><time>2026-04-11T08:28:18.001Z</time></trkpt><trkpt lat="45.12171075855165" lon="7.815007420290495"><ele>218.0</ele><time>2026-04-11T08:28:19.001Z</time></trkpt><trkpt lat="45.12172600987543" lon="7.815131520459903"><ele>218.4</ele><time>2026-04-11T08:28:21Z</time></trkpt><trkpt lat="45.12173077113925" lon="7.815220614189817"><ele>218.8</ele><time>2026-04-11T08:28:24Z</time></trkpt><trkpt lat="45.121750329122825" lon="7.8153443407701095"><ele>219.2</ele><time>2026-04-11T08:28:54Z</time></trkpt><trkpt lat="45.121750579785584" lon="7.815479853714412"><ele>219.6</ele><time>2026-04-11T08:28:55Z</time></trkpt><trkpt lat="45.121762821851064" lon="7.815612886835042"><ele>220.0</ele><time>2026-04-11T08:28:56Z</time></trkpt><trkpt lat="45.121772848422864" lon="7.815773240176588"><ele>220.0</ele><time>2026-04-11T08:28:57Z</time></trkpt><trkpt lat="45.121806622173395" lon="7.815933047415201"><ele>220.0</ele><time>2026-04-11T08:28:58Z</time></trkpt><trkpt lat="45.12185822744254" lon="7.816082454328626"><ele>220.0</ele><time>2026-04-11T08:28:59Z</time></trkpt><trkpt lat="45.12194509081764" lon="7.816223123491185"><ele>220.0</ele><time>2026-04-11T08:29:00Z</time></trkpt><trkpt lat="45.12203706417489" lon="7.816345165582047"><ele>219.83333333333331</ele><time>2026-04-11T08:29:01Z</time></trkpt><trkpt lat="45.12212327919168" lon="7.81643797067504"><ele>219.66666666666666</ele><time>2026-04-11T08:29:02Z</time></trkpt><trkpt lat="45.122196780781515" lon="7.81651370618638"><ele>219.5</ele><time>2026-04-11T08:29:03Z</time></trkpt><trkpt lat="45.12225769520325" lon="7.816594528616881"><ele>219.33333333333331</ele><time>2026-04-11T08:29:04Z</time></trkpt><trkpt lat="45.12231481847676" lon="7.816655436374907"><ele>219.16666666666666</ele><time>2026-04-11T08:29:05Z</time></trkpt><trkpt lat="45.12236484448558" lon="7.8167125865440905"><ele>219.0</ele><time>2026-04-11T08:29:06Z</time></trkpt><trkpt lat="45.122439887736796" lon="7.816801648786176"><ele>219.2</ele><time>2026-04-11T08:29:08Z</time></trkpt><trkpt lat="45.12250455819184" lon="7.816884057857714"><ele>219.39999999999998</ele><time>2026-04-11T08:29:30Z</time></trkpt><trkpt lat="45.12257299926859" lon="7.816962746543026"><ele>219.6</ele><time>2026-04-11T08:29:31Z</time></trkpt><trkpt lat="45.12264884629771" lon="7.817051445255382"><ele>219.8</ele><time>2026-04-11T08:29:32Z</time></trkpt><trkpt lat="45.122724524458384" lon="7.817134353482368"><ele>220.0</ele><time>2026-04-11T08:29:33Z</time></trkpt><trkpt lat="45.12280831626795" lon="7.817233872201387"><ele>220.0</ele><time>2026-04-11T08:29:34Z</time></trkpt><trkpt lat="45.122912556446245" lon="7.817359174200072"><ele>220.0</ele><time>2026-04-11T08:29:35Z</time></trkpt><trkpt lat="45.12302281025925" lon="7.817479650047793"><ele>220.0</ele><time>2026-04-11T08:29:36Z</time></trkpt><trkpt lat="45.12313269264827" lon="7.817615036447859"><ele>220.0</ele><time>2026-04-11T08:29:37Z</time></trkpt><trkpt lat="45.12326452532277" lon="7.817766941598661"><ele>219.33333333333331</ele><time>2026-04-11T08:29:38Z</time></trkpt><trkpt lat="45.12339947250525" lon="7.817925907424696"><ele>218.66666666666669</ele><time>2026-04-11T08:29:39Z</time></trkpt><trkpt lat="45.12352747349625" lon="7.818076716332572"><ele>218.0</ele><time>2026-04-11T08:29:40Z</time></trkpt><trkpt lat="45.12364108085684" lon="7.818209116496432"><ele>218.0</ele><time>2026-04-11T08:29:41Z</time></trkpt><trkpt lat="45.12373994071736" lon="7.818327340316742"><ele>218.0</ele><time>2026-04-11T08:29:42Z</time></trkpt><trkpt lat="45.12383319206173" lon="7.818426603085998"><ele>218.0</ele><time>2026-04-11T08:29:43Z</time></trkpt><trkpt lat="45.12392001130832" lon="7.818521215759979"><ele>218.0</ele><time>2026-04-11T08:29:44Z</time></trkpt><trkpt lat="45.124001057845874" lon="7.818599025722338"><ele>219.60000000000002</ele><time>2026-04-11T08:29:45Z</time></trkpt><trkpt lat="45.12407349617781" lon="7.8186593742104415"><ele>221.20000000000002</ele><time>2026-04-11T08:29:46Z</time></trkpt><trkpt lat="45.12414980889752" lon="7.818739784345612"><ele>222.8</ele><time>2026-04-11T08:29:49Z</time></trkpt><trkpt lat="45.1242038373026" lon="7.818801187425439"><ele>224.4</ele><time>2026-04-11T08:29:50Z</time></trkpt><trkpt lat="45.124274026305955" lon="7.818891907612385"><ele>226.0</ele><time>2026-04-11T08:29:51Z</time></trkpt><trkpt lat="45.12434544795616" lon="7.81901505550272"><ele>226.0</ele><time>2026-04-11T08:29:52Z</time></trkpt><trkpt lat="45.12441445629143" lon="7.8191593919106674"><ele>226.0</ele><time>2026-04-11T08:29:53Z</time></trkpt><trkpt lat="45.12449202669385" lon="7.819325682562543"><ele>226.0</ele><time>2026-04-11T08:29:54Z</time></trkpt><trkpt lat="45.124566616433846" lon="7.819491283102353"><ele>226.0</ele><time>2026-04-11T08:29:55Z</time></trkpt><trkpt lat="45.12465653726159" lon="7.819670542099862"><ele>226.66666666666666</ele><time>2026-04-11T08:29:56Z</time></trkpt><trkpt lat="45.1247445866697" lon="7.819840227237433"><ele>227.33333333333331</ele><time>2026-04-11T08:29:57Z</time></trkpt><trkpt lat="45.12483237710228" lon="7.82001188705655"><ele>228.0</ele><time>2026-04-11T08:29:58Z</time></trkpt><trkpt lat="45.124916973994765" lon="7.820191484570389"><ele>228.0</ele><time>2026-04-11T08:29:59Z</time></trkpt><trkpt lat="45.12499870959173" lon="7.820362058286201"><ele>228.0</ele><time>2026-04-11T08:30:00.001Z</time></trkpt><trkpt lat="45.12506918481908" lon="7.820507320655154"><ele>228.0</ele><time>2026-04-11T08:30:01.001Z</time></trkpt><trkpt lat="45.12513847880016" lon="7.820640172668664"><ele>228.0</ele><time>2026-04-11T08:30:02.001Z</time></trkpt><trkpt lat="45.12520051621368" lon="7.820764866142047"><ele>228.0</ele><time>2026-04-11T08:30:03.001Z</time></trkpt><trkpt lat="45.12525810514972" lon="7.820877741713312"><ele>228.0</ele><time>2026-04-11T08:30:04.001Z</time></trkpt><trkpt lat="45.12531162851006" lon="7.820977934059188"><ele>228.0</ele><time>2026-04-11T08:30:05.001Z</time></trkpt><trkpt lat="45.125360801878294" lon="7.821067138952752"><ele>228.0</ele><time>2026-04-11T08:30:06.001Z</time></trkpt><trkpt lat="45.12540232786152" lon="7.821152028084343"><ele>228.0</ele><time>2026-04-11T08:30:07.001Z</time></trkpt><trkpt lat="45.12545720540648" lon="7.821243965722348"><ele>228.0</ele><time>2026-04-11T08:30:08.001Z</time></trkpt><trkpt lat="45.12552472989778" lon="7.8213023706322975"><ele>227.8</ele><time>2026-04-11T08:30:09.001Z</time></trkpt><trkpt lat="45.125613712045926" lon="7.821326319948735"><ele>227.60000000000002</ele><time>2026-04-11T08:30:10.001Z</time></trkpt><trkpt lat="45.12572237244345" lon="7.821342597960327"><ele>227.39999999999998</ele><time>2026-04-11T08:30:11.001Z</time></trkpt><trkpt lat="45.1258306464694" lon="7.821384998972569"><ele>227.2</ele><time>2026-04-11T08:30:12.001Z</time></trkpt><trkpt lat="45.12593549421672" lon="7.821451310937715"><ele>227.0</ele><time>2026-04-11T08:30:13.001Z</time></trkpt><trkpt lat="45.126043267350994" lon="7.8214741537169"><ele>226.2</ele><time>2026-04-11T08:30:14.001Z</time></trkpt><trkpt lat="45.12612826377992" lon="7.821534662700969"><ele>225.39999999999998</ele><time>2026-04-11T08:30:15.001Z</time></trkpt><trkpt lat="45.126230604137795" lon="7.821578331803028"><ele>224.60000000000002</ele><time>2026-04-11T08:30:16.001Z</time></trkpt><trkpt lat="45.126334081638454" lon="7.821622486125015"><ele>223.8</ele><time>2026-04-11T08:30:17.001Z</time></trkpt><trkpt lat="45.126422528132004" lon="7.821660226647994"><ele>223.0</ele><time>2026-04-11T08:30:18.001Z</time></trkpt><trkpt lat="45.12651161954571" lon="7.821698465702813"><ele>222.5</ele><time>2026-04-11T08:30:19.001Z</time></trkpt><trkpt lat="45.126626433580846" lon="7.821747960614856"><ele>222.0</ele><time>2026-04-11T08:30:20.001Z</time></trkpt><trkpt lat="45.126762218769876" lon="7.821806495932569"><ele>221.5</ele><time>2026-04-11T08:30:21.001Z</time></trkpt><trkpt lat="45.12689107865388" lon="7.8218620458340355"><ele>221.0</ele><time>2026-04-11T08:30:22.001Z</time></trkpt><trkpt lat="45.127014441119734" lon="7.821896895560017"><ele>221.0</ele><time>2026-04-11T08:30:23.001Z</time></trkpt><trkpt lat="45.127130063377315" lon="7.8219542663477455"><ele>221.0</ele><time>2026-04-11T08:30:24.001Z</time></trkpt><trkpt lat="45.12724890155439" lon="7.822002359924485"><ele>221.0</ele><time>2026-04-11T08:30:25.001Z</time></trkpt><trkpt lat="45.1273579614248" lon="7.822050786867289"><ele>221.0</ele><time>2026-04-11T08:30:26Z</time></trkpt><trkpt lat="45.127471617652155" lon="7.822096065201531"><ele>220.4</ele><time>2026-04-11T08:30:27Z</time></trkpt><trkpt lat="45.12758319633233" lon="7.822144450201419"><ele>219.8</ele><time>2026-04-11T08:30:28Z</time></trkpt><trkpt lat="45.127687671738165" lon="7.822191746919511"><ele>219.20000000000002</ele><time>2026-04-11T08:30:29Z</time></trkpt><trkpt lat="45.127775872369746" lon="7.822228873742909"><ele>218.60000000000002</ele><time>2026-04-11T08:30:30Z</time></trkpt><trkpt lat="45.12785814513713" lon="7.822267462005835"><ele>218.0</ele><time>2026-04-11T08:30:31Z</time></trkpt><trkpt lat="45.127931493221205" lon="7.822297650198662"><ele>218.00000000000003</ele><time>2026-04-11T08:30:32Z</time></trkpt><trkpt lat="45.12800191312848" lon="7.822328306275489"><ele>218.0</ele><time>2026-04-11T08:30:33Z</time></trkpt><trkpt lat="45.1280833739077" lon="7.822363341446446"><ele>218.0</ele><time>2026-04-11T08:30:34Z</time></trkpt><trkpt lat="45.12817004662144" lon="7.822402299427765"><ele>218.0</ele><time>2026-04-11T08:30:35Z</time></trkpt><trkpt lat="45.128254611642845" lon="7.822430304607517"><ele>218.00000000000003</ele><time>2026-04-11T08:30:36Z</time></trkpt><trkpt lat="45.128341715291114" lon="7.822466284494695"><ele>218.0</ele><time>2026-04-11T08:30:37Z</time></trkpt><trkpt lat="45.12844054630834" lon="7.8225264390179605"><ele>217.4</ele><time>2026-04-11T08:30:38Z</time></trkpt><trkpt lat="45.12855058186515" lon="7.822573038727225"><ele>216.8</ele><time>2026-04-11T08:30:39Z</time></trkpt><trkpt lat="45.12863834976332" lon="7.822610986890812"><ele>216.2</ele><time>2026-04-11T08:30:40Z</time></trkpt><trkpt lat="45.12872368675147" lon="7.822626590054128"><ele>215.6</ele><time>2026-04-11T08:30:41Z</time></trkpt><trkpt lat="45.12880176069501" lon="7.8226708335905295"><ele>215.0</ele><time>2026-04-11T08:30:42Z</time></trkpt><trkpt lat="45.128878663809154" lon="7.8227069158527565"><ele>215.16666666666669</ele><time>2026-04-11T08:30:43Z</time></trkpt><trkpt lat="45.128954029883964" lon="7.822743386851749"><ele>215.33333333333334</ele><time>2026-04-11T08:30:44Z</time></trkpt><trkpt lat="45.12902603937743" lon="7.822780215968326"><ele>215.5</ele><time>2026-04-11T08:30:45Z</time></trkpt><trkpt lat="45.12909592972801" lon="7.822826352672001"><ele>215.66666666666669</ele><time>2026-04-11T08:30:46Z</time></trkpt><trkpt lat="45.12916645387284" lon="7.822875716353448"><ele>215.83333333333334</ele><time>2026-04-11T08:30:47Z</time></trkpt><trkpt lat="45.129239496255295" lon="7.822927587822266"><ele>216.0</ele><time>2026-04-11T08:30:48Z</time></trkpt><trkpt lat="45.129311110163435" lon="7.822980418897786"><ele>216.0</ele><time>2026-04-11T08:30:49Z</time></trkpt><trkpt lat="45.12938597828511" lon="7.823043050700481"><ele>216.00000000000003</ele><time>2026-04-11T08:30:50Z</time></trkpt><trkpt lat="45.129459570444475" lon="7.823114729417835"><ele>216.00000000000003</ele><time>2026-04-11T08:30:51Z</time></trkpt><trkpt lat="45.12953394085038" lon="7.823197178564646"><ele>216.0</ele><time>2026-04-11T08:30:52Z</time></trkpt><trkpt lat="45.129606431778114" lon="7.823284333333328"><ele>216.0</ele><time>2026-04-11T08:30:53Z</time></trkpt><trkpt lat="45.129673554646324" lon="7.823374089408315"><ele>216.0</ele><time>2026-04-11T08:30:54Z</time></trkpt><trkpt lat="45.12974491734805" lon="7.823466410122421"><ele>216.00000000000003</ele><time>2026-04-11T08:30:55Z</time></trkpt><trkpt lat="45.12981536877067" lon="7.823572491487012"><ele>216.00000000000003</ele><time>2026-04-11T08:30:56Z</time></trkpt><trkpt lat="45.12988054209088" lon="7.823679702077182"><ele>216.0</ele><time>2026-04-11T08:30:57Z</time></trkpt><trkpt lat="45.12993360111256" lon="7.823776711794858"><ele>216.0</ele><time>2026-04-11T08:30:58Z</time></trkpt><trkpt lat="45.12998101448026" lon="7.823869968119055"><ele>215.33333333333334</ele><time>2026-04-11T08:30:59Z</time></trkpt><trkpt lat="45.13003086082052" lon="7.823972542538251"><ele>214.66666666666669</ele><time>2026-04-11T08:31:00Z</time></trkpt><trkpt lat="45.13007314593811" lon="7.82407261955731"><ele>214.0</ele><time>2026-04-11T08:31:01Z</time></trkpt><trkpt lat="45.13011695016463" lon="7.824171706690122"><ele>213.33333333333334</ele><time>2026-04-11T08:31:02Z</time></trkpt><trkpt lat="45.13015792954104" lon="7.824266183882002"><ele>212.66666666666669</ele><time>2026-04-11T08:31:03Z</time></trkpt><trkpt lat="45.13019401490836" lon="7.824351068801295"><ele>212.0</ele><time>2026-04-11T08:31:04Z</time></trkpt><trkpt lat="45.13022694810743" lon="7.82442748315537"><ele>211.8</ele><time>2026-04-11T08:31:05Z</time></trkpt><trkpt lat="45.13025962912367" lon="7.824504645630929"><ele>211.6</ele><time>2026-04-11T08:31:06Z</time></trkpt><trkpt lat="45.130319017338124" lon="7.824648801188541"><ele>211.4</ele><time>2026-04-11T08:31:08Z</time></trkpt><trkpt lat="45.13036688970709" lon="7.8247593625843255"><ele>211.20000000000002</ele><time>2026-04-11T08:31:10Z</time></trkpt><trkpt lat="45.1304060708401" lon="7.824885450060521"><ele>211.0</ele><time>2026-04-11T08:31:14Z</time></trkpt><trkpt lat="45.13045529886404" lon="7.824998795010182"><ele>211.0</ele><time>2026-04-11T08:31:16Z</time></trkpt><trkpt lat="45.13051467154401" lon="7.82513174792797"><ele>211.0</ele><time>2026-04-11T08:31:18Z</time></trkpt><trkpt lat="45.130549831211056" lon="7.825206826443456"><ele>211.0</ele><time>2026-04-11T08:31:19Z</time></trkpt><trkpt lat="45.13060759655307" lon="7.825353768560969"><ele>211.0</ele><time>2026-04-11T08:31:21Z</time></trkpt><trkpt lat="45.13063265925376" lon="7.825457644796669"><ele>211.0</ele><time>2026-04-11T08:31:23Z</time></trkpt><trkpt lat="45.130599562078466" lon="7.825568816051928"><ele>210.4</ele><time>2026-04-11T08:31:26Z</time></trkpt><trkpt lat="45.13050855851857" lon="7.825590696584658"><ele>209.8</ele><time>2026-04-11T08:31:28Z</time></trkpt><trkpt lat="45.1303948658656" lon="7.825498849405867"><ele>209.20000000000002</ele><time>2026-04-11T08:31:30Z</time></trkpt><trkpt lat="45.1303466209694" lon="7.825423444257557"><ele>208.60000000000002</ele><time>2026-04-11T08:31:31Z</time></trkpt><trkpt lat="45.130239105560186" lon="7.825352590819043"><ele>208.0</ele><time>2026-04-11T08:31:33Z</time></trkpt><trkpt lat="45.13011328155494" lon="7.825418218562613"><ele>207.99999999999997</ele><time>2026-04-11T08:31:35Z</time></trkpt><trkpt lat="45.13005502522754" lon="7.82547554639993"><ele>208.0</ele><time>2026-04-11T08:31:36Z</time></trkpt><trkpt lat="45.12999291902897" lon="7.825539694657172"><ele>208.0</ele><time>2026-04-11T08:31:37Z</time></trkpt><trkpt lat="45.1299086385851" lon="7.825598603765304"><ele>208.0</ele><time>2026-04-11T08:31:38Z</time></trkpt><trkpt lat="45.12982508542859" lon="7.8256349477796"><ele>207.99999999999997</ele><time>2026-04-11T08:31:39Z</time></trkpt><trkpt lat="45.12973499009532" lon="7.825667607345496"><ele>208.0</ele><time>2026-04-11T08:31:40Z</time></trkpt><trkpt lat="45.12964758128477" lon="7.8257089497370655"><ele>207.83333333333331</ele><time>2026-04-11T08:31:41Z</time></trkpt><trkpt lat="45.129571956468766" lon="7.82574950667741"><ele>207.66666666666666</ele><time>2026-04-11T08:31:42Z</time></trkpt><trkpt lat="45.129492151468796" lon="7.825796726092828"><ele>207.5</ele><time>2026-04-11T08:31:43Z</time></trkpt><trkpt lat="45.12941403982482" lon="7.825842113179575"><ele>207.33333333333331</ele><time>2026-04-11T08:31:44Z</time></trkpt><trkpt lat="45.12935049078554" lon="7.825898959847836"><ele>207.16666666666666</ele><time>2026-04-11T08:31:45Z</time></trkpt><trkpt lat="45.12926230705687" lon="7.82601033767121"><ele>207.0</ele><time>2026-04-11T08:31:47Z</time></trkpt><trkpt lat="45.129210942241734" lon="7.826171042617628"><ele>207.0</ele><time>2026-04-11T08:31:49Z</time></trkpt><trkpt lat="45.1291898240576" lon="7.826266210110721"><ele>207.0</ele><time>2026-04-11T08:31:50Z</time></trkpt><trkpt lat="45.12917715363119" lon="7.826384273357374"><ele>207.0</ele><time>2026-04-11T08:31:51Z</time></trkpt><trkpt lat="45.129179983708106" lon="7.82650056504933"><ele>207.0</ele><time>2026-04-11T08:31:52Z</time></trkpt><trkpt lat="45.129194835630265" lon="7.826628905241943"><ele>207.0</ele><time>2026-04-11T08:31:53Z</time></trkpt><trkpt lat="45.12921929743314" lon="7.826764513958679"><ele>207.0</ele><time>2026-04-11T08:31:54Z</time></trkpt><trkpt lat="45.129242944154896" lon="7.8269050308124815"><ele>207.0</ele><time>2026-04-11T08:31:55Z</time></trkpt><trkpt lat="45.129271221450686" lon="7.827041338290128"><ele>207.0</ele><time>2026-04-11T08:31:56Z</time></trkpt><trkpt lat="45.129302339217396" lon="7.827180237361981"><ele>207.0</ele><time>2026-04-11T08:31:57Z</time></trkpt><trkpt lat="45.129333674734916" lon="7.827330069940735"><ele>207.0</ele><time>2026-04-11T08:31:58Z</time></trkpt><trkpt lat="45.12936967225244" lon="7.827482550836725"><ele>207.0</ele><time>2026-04-11T08:31:59Z</time></trkpt><trkpt lat="45.12940968858682" lon="7.8276403131298355"><ele>207.0</ele><time>2026-04-11T08:32:00Z</time></trkpt><trkpt lat="45.12944652202463" lon="7.827797120797712"><ele>207.0</ele><time>2026-04-11T08:32:01Z</time></trkpt><trkpt lat="45.12948460743176" lon="7.827947437092368"><ele>207.0</ele><time>2026-04-11T08:32:02Z</time></trkpt><trkpt lat="45.129525697398634" lon="7.828093114330661"><ele>207.0</ele><time>2026-04-11T08:32:03Z</time></trkpt><trkpt lat="45.129571188596294" lon="7.828234279804572"><ele>207.0</ele><time>2026-04-11T08:32:04Z</time></trkpt><trkpt lat="45.12961250385694" lon="7.828398691123999"><ele>207.0</ele><time>2026-04-11T08:32:05Z</time></trkpt><trkpt lat="45.129656637097135" lon="7.828551438661423"><ele>207.0</ele><time>2026-04-11T08:32:06Z</time></trkpt><trkpt lat="45.1296964548961" lon="7.828695336239573"><ele>207.0</ele><time>2026-04-11T08:32:07Z</time></trkpt><trkpt lat="45.12973885851273" lon="7.828840948025088"><ele>207.0</ele><time>2026-04-11T08:32:08Z</time></trkpt><trkpt lat="45.129780686841855" lon="7.828987656286082"><ele>207.0</ele><time>2026-04-11T08:32:09Z</time></trkpt><trkpt lat="45.12982432577354" lon="7.829129820993279"><ele>207.0</ele><time>2026-04-11T08:32:10Z</time></trkpt><trkpt lat="45.12986746121955" lon="7.829271057612052"><ele>207.0</ele><time>2026-04-11T08:32:11Z</time></trkpt><trkpt lat="45.129912114170814" lon="7.829413947284637"><ele>207.0</ele><time>2026-04-11T08:32:12Z</time></trkpt><trkpt lat="45.129956061424146" lon="7.829558040943979"><ele>207.0</ele><time>2026-04-11T08:32:13Z</time></trkpt><trkpt lat="45.13000592520197" lon="7.82970832525669"><ele>207.0</ele><time>2026-04-11T08:32:14Z</time></trkpt><trkpt lat="45.130068405419905" lon="7.829868102811412"><ele>206.25</ele><time>2026-04-11T08:32:15Z</time></trkpt><trkpt lat="45.13013868941328" lon="7.830017999785343"><ele>205.5</ele><time>2026-04-11T08:32:16Z</time></trkpt><trkpt lat="45.13020933922578" lon="7.830158576430304"><ele>204.75</ele><time>2026-04-11T08:32:17Z</time></trkpt><trkpt lat="45.130278182164325" lon="7.830275020617611"><ele>204.0</ele><time>2026-04-11T08:32:18Z</time></trkpt><trkpt lat="45.130347646613316" lon="7.830382290148579"><ele>203.79999999999998</ele><time>2026-04-11T08:32:19Z</time></trkpt><trkpt lat="45.13042029324974" lon="7.830488476633599"><ele>203.6</ele><time>2026-04-11T08:32:20Z</time></trkpt><trkpt lat="45.13048850123372" lon="7.830590117875829"><ele>203.4</ele><time>2026-04-11T08:32:21Z</time></trkpt><trkpt lat="45.1305660103608" lon="7.830694643655887"><ele>203.2</ele><time>2026-04-11T08:32:22Z</time></trkpt><trkpt lat="45.130653484844515" lon="7.830806038876018"><ele>203.0</ele><time>2026-04-11T08:32:23Z</time></trkpt><trkpt lat="45.130745331573515" lon="7.830935047082893"><ele>203.4</ele><time>2026-04-11T08:32:24Z</time></trkpt><trkpt lat="45.1308342445604" lon="7.8310472350107245"><ele>203.8</ele><time>2026-04-11T08:32:25Z</time></trkpt><trkpt lat="45.13091148032271" lon="7.831159216190395"><ele>204.2</ele><time>2026-04-11T08:32:26Z</time></trkpt><trkpt lat="45.13097646860293" lon="7.831264014603059"><ele>204.6</ele><time>2026-04-11T08:32:27Z</time></trkpt><trkpt lat="45.131018670254015" lon="7.831382473979541"><ele>205.0</ele><time>2026-04-11T08:32:28Z</time></trkpt><trkpt lat="45.131039881962266" lon="7.8315055640390705"><ele>205.0</ele><time>2026-04-11T08:32:29Z</time></trkpt><trkpt lat="45.13101017382056" lon="7.831634371969707"><ele>205.0</ele><time>2026-04-11T08:32:30Z</time></trkpt><trkpt lat="45.13095516254476" lon="7.83177669311443"><ele>205.0</ele><time>2026-04-11T08:32:31Z</time></trkpt><trkpt lat="45.1308797900664" lon="7.831973964711873"><ele>205.0</ele><time>2026-04-11T08:32:32Z</time></trkpt><trkpt lat="45.130793351318104" lon="7.832241780298415"><ele>205.0</ele><time>2026-04-11T08:32:33Z</time></trkpt><trkpt lat="45.1306893909376" lon="7.832532521711226"><ele>205.0</ele><time>2026-04-11T08:32:34Z</time></trkpt><trkpt lat="45.130596489631635" lon="7.832789692914209"><ele>205.0</ele><time>2026-04-11T08:32:35Z</time></trkpt><trkpt lat="45.13051868700603" lon="7.833025416820861"><ele>205.66666666666666</ele><time>2026-04-11T08:32:36Z</time></trkpt><trkpt lat="45.130432473254984" lon="7.833281730633729"><ele>206.33333333333331</ele><time>2026-04-11T08:32:37Z</time></trkpt><trkpt lat="45.1303329770866" lon="7.833528423539425"><ele>207.0</ele><time>2026-04-11T08:32:38Z</time></trkpt><trkpt lat="45.1302128538432" lon="7.833740946024394"><ele>207.33333333333331</ele><time>2026-04-11T08:32:39Z</time></trkpt><trkpt lat="45.130085033966786" lon="7.833956978290059"><ele>207.66666666666666</ele><time>2026-04-11T08:32:40Z</time></trkpt><trkpt lat="45.12996120092584" lon="7.834176017882547"><ele>208.0</ele><time>2026-04-11T08:32:41Z</time></trkpt><trkpt lat="45.1298419326212" lon="7.834365750270391"><ele>209.0</ele><time>2026-04-11T08:32:42Z</time></trkpt><trkpt lat="45.12971925136223" lon="7.83451975528285"><ele>210.0</ele><time>2026-04-11T08:32:43Z</time></trkpt><trkpt lat="45.129585853651214" lon="7.834664536688256"><ele>211.0</ele><time>2026-04-11T08:32:44Z</time></trkpt><trkpt lat="45.12945019735659" lon="7.834785125372113"><ele>211.0</ele><time>2026-04-11T08:32:45Z</time></trkpt><trkpt lat="45.12932534600178" lon="7.834885835773293"><ele>211.0</ele><time>2026-04-11T08:32:46Z</time></trkpt><trkpt lat="45.129207850845525" lon="7.834972832090427"><ele>211.0</ele><time>2026-04-11T08:32:47Z</time></trkpt><trkpt lat="45.12910574587944" lon="7.835080503771298"><ele>211.0</ele><time>2026-04-11T08:32:48Z</time></trkpt><trkpt lat="45.12900531250264" lon="7.835169865817567"><ele>210.75</ele><time>2026-04-11T08:32:49Z</time></trkpt><trkpt lat="45.12889237806441" lon="7.835268987550146"><ele>210.5</ele><time>2026-04-11T08:32:50Z</time></trkpt><trkpt lat="45.12878086585172" lon="7.83536723999865"><ele>210.25</ele><time>2026-04-11T08:32:51Z</time></trkpt><trkpt lat="45.12867262832219" lon="7.835471895914419"><ele>210.0</ele><time>2026-04-11T08:32:52Z</time></trkpt><trkpt lat="45.12857796720023" lon="7.83559320475021"><ele>210.0</ele><time>2026-04-11T08:32:53Z</time></trkpt><trkpt lat="45.128491215432916" lon="7.835736219167474"><ele>210.0</ele><time>2026-04-11T08:32:54Z</time></trkpt><trkpt lat="45.12842095909185" lon="7.835881466049362"><ele>210.0</ele><time>2026-04-11T08:32:55Z</time></trkpt><trkpt lat="45.12838496820653" lon="7.83601599911914"><ele>210.0</ele><time>2026-04-11T08:32:56Z</time></trkpt><trkpt lat="45.12834856750421" lon="7.836121338386931"><ele>210.0</ele><time>2026-04-11T08:32:57Z</time></trkpt><trkpt lat="45.12831540226802" lon="7.836214950669148"><ele>209.8</ele><time>2026-04-11T08:32:58Z</time></trkpt><trkpt lat="45.12827999638319" lon="7.836308774610204"><ele>209.6</ele><time>2026-04-11T08:32:59Z</time></trkpt><trkpt lat="45.12824077073001" lon="7.8364022425754944"><ele>209.39999999999998</ele><time>2026-04-11T08:33:00Z</time></trkpt><trkpt lat="45.12820369838269" lon="7.836499221150649"><ele>209.2</ele><time>2026-04-11T08:33:01Z</time></trkpt><trkpt lat="45.128148583411416" lon="7.836631319357541"><ele>209.0</ele><time>2026-04-11T08:33:02Z</time></trkpt><trkpt lat="45.128089201920034" lon="7.836765640429112"><ele>209.25</ele><time>2026-04-11T08:33:03Z</time></trkpt><trkpt lat="45.128014347800615" lon="7.836924791285001"><ele>209.5</ele><time>2026-04-11T08:33:04Z</time></trkpt><trkpt lat="45.127942597111755" lon="7.837089516149341"><ele>209.75</ele><time>2026-04-11T08:33:05Z</time></trkpt><trkpt lat="45.12785741493452" lon="7.837286348421012"><ele>210.0</ele><time>2026-04-11T08:33:06Z</time></trkpt><trkpt lat="45.12775145437431" lon="7.837459426798637"><ele>211.0</ele><time>2026-04-11T08:33:07Z</time></trkpt><trkpt lat="45.12766974404225" lon="7.837647053436594"><ele>212.0</ele><time>2026-04-11T08:33:08Z</time></trkpt><trkpt lat="45.12757402590104" lon="7.83780255165163"><ele>213.0</ele><time>2026-04-11T08:33:09Z</time></trkpt><trkpt lat="45.127484090433065" lon="7.837945817599293"><ele>214.0</ele><time>2026-04-11T08:33:10Z</time></trkpt><trkpt lat="45.127384115673244" lon="7.83809486084669"><ele>212.33333333333331</ele><time>2026-04-11T08:33:11Z</time></trkpt><trkpt lat="45.127284607948816" lon="7.838260792888035"><ele>210.66666666666669</ele><time>2026-04-11T08:33:12Z</time></trkpt><trkpt lat="45.12719794841383" lon="7.838440217762752"><ele>209.0</ele><time>2026-04-11T08:33:13Z</time></trkpt><trkpt lat="45.12711999521405" lon="7.838628506152812"><ele>209.0</ele><time>2026-04-11T08:33:14Z</time></trkpt><trkpt lat="45.127067649661804" lon="7.838813564227165"><ele>209.0</ele><time>2026-04-11T08:33:15Z</time></trkpt><trkpt lat="45.127031754402516" lon="7.839031048460694"><ele>209.0</ele><time>2026-04-11T08:33:16Z</time></trkpt><trkpt lat="45.12700923207603" lon="7.839282909550673"><ele>209.66666666666669</ele><time>2026-04-11T08:33:17Z</time></trkpt><trkpt lat="45.12700113511449" lon="7.839525396158927"><ele>210.33333333333331</ele><time>2026-04-11T08:33:18Z</time></trkpt><trkpt lat="45.126996929616084" lon="7.839769570231009"><ele>211.0</ele><time>2026-04-11T08:33:19Z</time></trkpt><trkpt lat="45.126989370090385" lon="7.840007386244418"><ele>211.33333333333331</ele><time>2026-04-11T08:33:20Z</time></trkpt><trkpt lat="45.12697578558914" lon="7.840250935690753"><ele>211.66666666666669</ele><time>2026-04-11T08:33:21Z</time></trkpt><trkpt lat="45.12695974645786" lon="7.840480077441468"><ele>212.0</ele><time>2026-04-11T08:33:22Z</time></trkpt><trkpt lat="45.12694049563324" lon="7.840705679353017"><ele>212.0</ele><time>2026-04-11T08:33:23Z</time></trkpt><trkpt lat="45.126924078279465" lon="7.840923490145116"><ele>212.0</ele><time>2026-04-11T08:33:24Z</time></trkpt><trkpt lat="45.12690556028499" lon="7.8411468893082406"><ele>212.0</ele><time>2026-04-11T08:33:25Z</time></trkpt><trkpt lat="45.12688779922167" lon="7.84138027401735"><ele>212.66666666666669</ele><time>2026-04-11T08:33:26Z</time></trkpt><trkpt lat="45.12686444752957" lon="7.841607350426154"><ele>213.33333333333331</ele><time>2026-04-11T08:33:27Z</time></trkpt><trkpt lat="45.126842092894755" lon="7.841821671247984"><ele>214.0</ele><time>2026-04-11T08:33:28Z</time></trkpt><trkpt lat="45.1268170172083" lon="7.842034751654527"><ele>214.0</ele><time>2026-04-11T08:33:29Z</time></trkpt><trkpt lat="45.12679178050426" lon="7.8422543453234566"><ele>214.0</ele><time>2026-04-11T08:33:30Z</time></trkpt><trkpt lat="45.126776642730995" lon="7.8424782597552705"><ele>214.0</ele><time>2026-04-11T08:33:31Z</time></trkpt><trkpt lat="45.12677801784721" lon="7.8427075372462385"><ele>214.25</ele><time>2026-04-11T08:33:32Z</time></trkpt><trkpt lat="45.12679070322483" lon="7.842928543642575"><ele>214.5</ele><time>2026-04-11T08:33:33Z</time></trkpt><trkpt lat="45.126817982374206" lon="7.843133598606198"><ele>214.75</ele><time>2026-04-11T08:33:34Z</time></trkpt><trkpt lat="45.12684676994915" lon="7.84333019631847"><ele>215.0</ele><time>2026-04-11T08:33:35Z</time></trkpt><trkpt lat="45.126866223515165" lon="7.843519074483015"><ele>215.75</ele><time>2026-04-11T08:33:36Z</time></trkpt><trkpt lat="45.12687953636124" lon="7.843727948483684"><ele>216.5</ele><time>2026-04-11T08:33:37Z</time></trkpt><trkpt lat="45.12688109173933" lon="7.8439486104117115"><ele>217.25</ele><time>2026-04-11T08:33:38Z</time></trkpt><trkpt lat="45.12686574756793" lon="7.844150463332105"><ele>218.0</ele><time>2026-04-11T08:33:39Z</time></trkpt><trkpt lat="45.12684260232654" lon="7.844347281378896"><ele>218.0</ele><time>2026-04-11T08:33:40Z</time></trkpt><trkpt lat="45.126810603850075" lon="7.844557869521763"><ele>218.0</ele><time>2026-04-11T08:33:41Z</time></trkpt><trkpt lat="45.12677475885813" lon="7.844762251500484"><ele>218.0</ele><time>2026-04-11T08:33:42Z</time></trkpt><trkpt lat="45.12674309480433" lon="7.844986167501293"><ele>217.66666666666669</ele><time>2026-04-11T08:33:43Z</time></trkpt><trkpt lat="45.12668995050444" lon="7.845267671491807"><ele>217.33333333333331</ele><time>2026-04-11T08:33:44Z</time></trkpt><trkpt lat="45.1266442317094" lon="7.845580069748886"><ele>217.0</ele><time>2026-04-11T08:33:45Z</time></trkpt><trkpt lat="45.12657778997769" lon="7.845864549637068"><ele>215.66666666666666</ele><time>2026-04-11T08:33:46Z</time></trkpt><trkpt lat="45.12652537263211" lon="7.846111861585109"><ele>214.33333333333331</ele><time>2026-04-11T08:33:47Z</time></trkpt><trkpt lat="45.12649530652749" lon="7.846352231982953"><ele>213.0</ele><time>2026-04-11T08:33:48Z</time></trkpt><trkpt lat="45.12649468531247" lon="7.846626030115592"><ele>214.0</ele><time>2026-04-11T08:33:49Z</time></trkpt><trkpt lat="45.12651507182209" lon="7.846935744755582"><ele>215.0</ele><time>2026-04-11T08:33:50Z</time></trkpt><trkpt lat="45.12654297649199" lon="7.847272526415016"><ele>216.0</ele><time>2026-04-11T08:33:51Z</time></trkpt><trkpt lat="45.12657156148272" lon="7.84760066335281"><ele>217.0</ele><time>2026-04-11T08:33:52Z</time></trkpt><trkpt lat="45.12659819477703" lon="7.847895586416493"><ele>218.0</ele><time>2026-04-11T08:33:53Z</time></trkpt><trkpt lat="45.126623736113885" lon="7.848160134868016"><ele>220.0</ele><time>2026-04-11T08:33:54Z</time></trkpt><trkpt lat="45.12664305961789" lon="7.848409943239679"><ele>222.0</ele><time>2026-04-11T08:33:55Z</time></trkpt><trkpt lat="45.126651717714495" lon="7.84865944271315"><ele>224.0</ele><time>2026-04-11T08:33:56Z</time></trkpt><trkpt lat="45.12662577386566" lon="7.84890410213302"><ele>222.0</ele><time>2026-04-11T08:33:57Z</time></trkpt><trkpt lat="45.12657463017152" lon="7.849160018079408"><ele>220.0</ele><time>2026-04-11T08:33:58Z</time></trkpt><trkpt lat="45.126507482099335" lon="7.849462749902385"><ele>218.0</ele><time>2026-04-11T08:33:59Z</time></trkpt><trkpt lat="45.12644176776502" lon="7.849819803319859"><ele>218.0</ele><time>2026-04-11T08:34:00Z</time></trkpt><trkpt lat="45.12637921311412" lon="7.8501901406714865"><ele>218.0</ele><time>2026-04-11T08:34:01Z</time></trkpt><trkpt lat="45.12632155218439" lon="7.8505225307041355"><ele>218.0</ele><time>2026-04-11T08:34:02Z</time></trkpt><trkpt lat="45.126269580872595" lon="7.850814146336643"><ele>218.0</ele><time>2026-04-11T08:34:03Z</time></trkpt><trkpt lat="45.126222772877284" lon="7.851094717697184"><ele>218.0</ele><time>2026-04-11T08:34:04Z</time></trkpt><trkpt lat="45.12617458227929" lon="7.851360772474857"><ele>218.33333333333334</ele><time>2026-04-11T08:34:05Z</time></trkpt><trkpt lat="45.12612774606474" lon="7.851617451791634"><ele>218.66666666666669</ele><time>2026-04-11T08:34:06Z</time></trkpt><trkpt lat="45.12608284069548" lon="7.851853420790947"><ele>219.0</ele><time>2026-04-11T08:34:07Z</time></trkpt><trkpt lat="45.1260281376244" lon="7.852085095024152"><ele>219.33333333333331</ele><time>2026-04-11T08:34:08Z</time></trkpt><trkpt lat="45.125945233203055" lon="7.852317147002892"><ele>219.66666666666666</ele><time>2026-04-11T08:34:09Z</time></trkpt><trkpt lat="45.125853670666324" lon="7.852562858282513"><ele>220.0</ele><time>2026-04-11T08:34:10Z</time></trkpt><trkpt lat="45.12576117760457" lon="7.852813765019278"><ele>220.33333333333331</ele><time>2026-04-11T08:34:11Z</time></trkpt><trkpt lat="45.12566915237326" lon="7.853062370825063"><ele>220.66666666666669</ele><time>2026-04-11T08:34:12Z</time></trkpt><trkpt lat="45.12557965397848" lon="7.853291545295333"><ele>221.0</ele><time>2026-04-11T08:34:13Z</time></trkpt><trkpt lat="45.125495202740055" lon="7.8535079017890945"><ele>221.0</ele><time>2026-04-11T08:34:14Z</time></trkpt><trkpt lat="45.12541035689845" lon="7.853724054412099"><ele>221.0</ele><time>2026-04-11T08:34:15Z</time></trkpt><trkpt lat="45.12534081849062" lon="7.853936656679507"><ele>221.0</ele><time>2026-04-11T08:34:16Z</time></trkpt><trkpt lat="45.12525115660224" lon="7.854109277878183"><ele>221.66666666666669</ele><time>2026-04-11T08:34:17Z</time></trkpt><trkpt lat="45.12515396697192" lon="7.854354796367373"><ele>222.33333333333331</ele><time>2026-04-11T08:34:18Z</time></trkpt><trkpt lat="45.125072041942914" lon="7.854610275464257"><ele>223.0</ele><time>2026-04-11T08:34:19Z</time></trkpt><trkpt lat="45.1249646708566" lon="7.854819639268718"><ele>222.66666666666666</ele><time>2026-04-11T08:34:20Z</time></trkpt><trkpt lat="45.12487637452971" lon="7.855040046024964"><ele>222.33333333333331</ele><time>2026-04-11T08:34:21Z</time></trkpt><trkpt lat="45.124782273903044" lon="7.855257262169944"><ele>222.0</ele><time>2026-04-11T08:34:22.001Z</time></trkpt><trkpt lat="45.12468970960413" lon="7.855468399888162"><ele>222.0</ele><time>2026-04-11T08:34:23.001Z</time></trkpt><trkpt lat="45.12459762989822" lon="7.855642991174735"><ele>222.0</ele><time>2026-04-11T08:34:24.001Z</time></trkpt><trkpt lat="45.12447975359768" lon="7.855807112447511"><ele>222.0</ele><time>2026-04-11T08:34:25.001Z</time></trkpt><trkpt lat="45.12434091168821" lon="7.855960749373123"><ele>222.0</ele><time>2026-04-11T08:34:26.001Z</time></trkpt><trkpt lat="45.124182193922735" lon="7.856102295283454"><ele>222.0</ele><time>2026-04-11T08:34:27.001Z</time></trkpt><trkpt lat="45.124010498400004" lon="7.856232260110195"><ele>222.0</ele><time>2026-04-11T08:34:28.001Z</time></trkpt><trkpt lat="45.12383698054441" lon="7.856360687827368"><ele>222.0</ele><time>2026-04-11T08:34:29.001Z</time></trkpt><trkpt lat="45.123663867895644" lon="7.8565010824488475"><ele>222.0</ele><time>2026-04-11T08:34:30.001Z</time></trkpt><trkpt lat="45.12348143753205" lon="7.856638089993034"><ele>222.0</ele><time>2026-04-11T08:34:31.001Z</time></trkpt><trkpt lat="45.12331600803016" lon="7.8567694893461395"><ele>223.0</ele><time>2026-04-11T08:34:32.001Z</time></trkpt><trkpt lat="45.1231670601965" lon="7.8569051284916345"><ele>224.0</ele><time>2026-04-11T08:34:33.001Z</time></trkpt><trkpt lat="45.12303026228671" lon="7.857074255847723"><ele>225.0</ele><time>2026-04-11T08:34:34.001Z</time></trkpt><trkpt lat="45.122916599397335" lon="7.857296020709936"><ele>225.0</ele><time>2026-04-11T08:34:35.001Z</time></trkpt><trkpt lat="45.12282905991618" lon="7.857550995137392"><ele>225.0</ele><time>2026-04-11T08:34:36.001Z</time></trkpt><trkpt lat="45.122725202846794" lon="7.857802178452553"><ele>225.0</ele><time>2026-04-11T08:34:37.001Z</time></trkpt><trkpt lat="45.12256034912287" lon="7.857996250127513"><ele>225.33333333333331</ele><time>2026-04-11T08:34:38Z</time></trkpt><trkpt lat="45.122377795509166" lon="7.858181349134669"><ele>225.66666666666666</ele><time>2026-04-11T08:34:39Z</time></trkpt><trkpt lat="45.122201420786844" lon="7.858372638455717"><ele>226.0</ele><time>2026-04-11T08:34:40Z</time></trkpt><trkpt lat="45.12204693256957" lon="7.858520301605236"><ele>229.66666666666666</ele><time>2026-04-11T08:34:41Z</time></trkpt><trkpt lat="45.121909935393695" lon="7.85865238132299"><ele>233.33333333333331</ele><time>2026-04-11T08:34:42Z</time></trkpt><trkpt lat="45.121796080835374" lon="7.858792764649751"><ele>237.0</ele><time>2026-04-11T08:34:43Z</time></trkpt><trkpt lat="45.121697519378024" lon="7.858992297136227"><ele>237.0</ele><time>2026-04-11T08:34:44Z</time></trkpt><trkpt lat="45.12159089699217" lon="7.859257527045841"><ele>237.0</ele><time>2026-04-11T08:34:45Z</time></trkpt><trkpt lat="45.12146984222967" lon="7.859531457577669"><ele>237.0</ele><time>2026-04-11T08:34:46Z</time></trkpt><trkpt lat="45.1213612720189" lon="7.859745788311339"><ele>236.0</ele><time>2026-04-11T08:34:47Z</time></trkpt><trkpt lat="45.12125266454311" lon="7.859946983585143"><ele>235.0</ele><time>2026-04-11T08:34:48Z</time></trkpt><trkpt lat="45.12111792954883" lon="7.860142378794406"><ele>234.0</ele><time>2026-04-11T08:34:49Z</time></trkpt><trkpt lat="45.120952196839454" lon="7.8603319299418875"><ele>234.0</ele><time>2026-04-11T08:34:50Z</time></trkpt><trkpt lat="45.120801847624904" lon="7.860522301901483"><ele>234.0</ele><time>2026-04-11T08:34:51Z</time></trkpt><trkpt lat="45.1206535253214" lon="7.860738875650784"><ele>234.0</ele><time>2026-04-11T08:34:52Z</time></trkpt><trkpt lat="45.120500868383864" lon="7.860994055223337"><ele>232.66666666666669</ele><time>2026-04-11T08:34:53Z</time></trkpt><trkpt lat="45.120355383951555" lon="7.861222827387585"><ele>231.33333333333334</ele><time>2026-04-11T08:34:54Z</time></trkpt><trkpt lat="45.12021836646868" lon="7.86142579791003"><ele>230.0</ele><time>2026-04-11T08:34:55Z</time></trkpt><trkpt lat="45.120093743402535" lon="7.86161028716399"><ele>230.0</ele><time>2026-04-11T08:34:56Z</time></trkpt><trkpt lat="45.11997619484168" lon="7.861781625661559"><ele>230.0</ele><time>2026-04-11T08:34:57Z</time></trkpt><trkpt lat="45.11986728289474" lon="7.861943941899384"><ele>230.0</ele><time>2026-04-11T08:34:58Z</time></trkpt><trkpt lat="45.11977071000424" lon="7.862098782975708"><ele>229.25</ele><time>2026-04-11T08:34:59Z</time></trkpt><trkpt lat="45.1196861506718" lon="7.862250277773216"><ele>228.5</ele><time>2026-04-11T08:35:00Z</time></trkpt><trkpt lat="45.119610382937545" lon="7.862393265075543"><ele>227.75</ele><time>2026-04-11T08:35:01Z</time></trkpt><trkpt lat="45.119552696133645" lon="7.8625554173701415"><ele>227.0</ele><time>2026-04-11T08:35:02Z</time></trkpt><trkpt lat="45.11951516360373" lon="7.8627543926262"><ele>229.33333333333334</ele><time>2026-04-11T08:35:03Z</time></trkpt><trkpt lat="45.119498750700224" lon="7.862982885585862"><ele>231.66666666666669</ele><time>2026-04-11T08:35:04Z</time></trkpt><trkpt lat="45.119514045215894" lon="7.863216870327815"><ele>234.0</ele><time>2026-04-11T08:35:05Z</time></trkpt><trkpt lat="45.119514198032284" lon="7.863406356349798"><ele>234.66666666666669</ele><time>2026-04-11T08:35:06Z</time></trkpt><trkpt lat="45.119502683695266" lon="7.863609140151175"><ele>235.33333333333334</ele><time>2026-04-11T08:35:07Z</time></trkpt><trkpt lat="45.119464425681045" lon="7.863811495828894"><ele>236.0</ele><time>2026-04-11T08:35:08Z</time></trkpt><trkpt lat="45.11938652238621" lon="7.864035524605327"><ele>236.0</ele><time>2026-04-11T08:35:09Z</time></trkpt><trkpt lat="45.119283503620736" lon="7.864268858443455"><ele>236.0</ele><time>2026-04-11T08:35:10Z</time></trkpt><trkpt lat="45.11916273137442" lon="7.86453084036986"><ele>236.0</ele><time>2026-04-11T08:35:11Z</time></trkpt><trkpt lat="45.11903230224967" lon="7.864839514186341"><ele>234.5</ele><time>2026-04-11T08:35:12Z</time></trkpt><trkpt lat="45.11889823593062" lon="7.865155274380515"><ele>233.0</ele><time>2026-04-11T08:35:13Z</time></trkpt><trkpt lat="45.118784596187716" lon="7.865437011741083"><ele>233.0</ele><time>2026-04-11T08:35:14Z</time></trkpt><trkpt lat="45.11867819324466" lon="7.865698958104713"><ele>233.0</ele><time>2026-04-11T08:35:15Z</time></trkpt><trkpt lat="45.11857720658235" lon="7.865959407614694"><ele>233.0</ele><time>2026-04-11T08:35:16Z</time></trkpt><trkpt lat="45.11849158168938" lon="7.866219494548217"><ele>233.66666666666669</ele><time>2026-04-11T08:35:17Z</time></trkpt><trkpt lat="45.1184147951511" lon="7.8664883432691886"><ele>234.33333333333331</ele><time>2026-04-11T08:35:18Z</time></trkpt><trkpt lat="45.118302942706755" lon="7.866732964152463"><ele>235.0</ele><time>2026-04-11T08:35:19Z</time></trkpt><trkpt lat="45.1181519935194" lon="7.866926626491863"><ele>236.33333333333331</ele><time>2026-04-11T08:35:20Z</time></trkpt><trkpt lat="45.11800779990039" lon="7.867130972393204"><ele>237.66666666666669</ele><time>2026-04-11T08:35:21Z</time></trkpt><trkpt lat="45.11785610712624" lon="7.8673522119011965"><ele>239.0</ele><time>2026-04-11T08:35:22Z</time></trkpt><trkpt lat="45.117683805205765" lon="7.86760628463287"><ele>242.0</ele><time>2026-04-11T08:35:23Z</time></trkpt><trkpt lat="45.11752007427311" lon="7.867863584313412"><ele>245.0</ele><time>2026-04-11T08:35:24Z</time></trkpt><trkpt lat="45.11734649937053" lon="7.868079006071098"><ele>245.0</ele><time>2026-04-11T08:35:25Z</time></trkpt><trkpt lat="45.11717947607664" lon="7.868291496482307"><ele>245.0</ele><time>2026-04-11T08:35:26Z</time></trkpt><trkpt lat="45.11701453422151" lon="7.868484713837702"><ele>245.0</ele><time>2026-04-11T08:35:27Z</time></trkpt><trkpt lat="45.11686439020051" lon="7.868651993019822"><ele>244.66666666666669</ele><time>2026-04-11T08:35:28Z</time></trkpt><trkpt lat="45.11672121946081" lon="7.868817782831149"><ele>244.33333333333331</ele><time>2026-04-11T08:35:29Z</time></trkpt><trkpt lat="45.11658149854117" lon="7.868990343953435"><ele>244.0</ele><time>2026-04-11T08:35:30Z</time></trkpt><trkpt lat="45.1164480233419" lon="7.86917673549711"><ele>243.0</ele><time>2026-04-11T08:35:31Z</time></trkpt><trkpt lat="45.116337646768244" lon="7.869396342675977"><ele>242.0</ele><time>2026-04-11T08:35:32Z</time></trkpt><trkpt lat="45.116242931715696" lon="7.869655961446033"><ele>241.0</ele><time>2026-04-11T08:35:33Z</time></trkpt><trkpt lat="45.11615081724302" lon="7.86995713398476"><ele>245.5</ele><time>2026-04-11T08:35:34Z</time></trkpt><trkpt lat="45.116040433057194" lon="7.870286899667724"><ele>250.0</ele><time>2026-04-11T08:35:35Z</time></trkpt><trkpt lat="45.115920268721936" lon="7.870619762144579"><ele>245.5</ele><time>2026-04-11T08:35:36Z</time></trkpt><trkpt lat="45.115803504761466" lon="7.870948408905311"><ele>241.0</ele><time>2026-04-11T08:35:37Z</time></trkpt><trkpt lat="45.11568887669399" lon="7.871270584681923"><ele>241.0</ele><time>2026-04-11T08:35:38Z</time></trkpt><trkpt lat="45.11557503428825" lon="7.871580742149293"><ele>241.0</ele><time>2026-04-11T08:35:39Z</time></trkpt><trkpt lat="45.11547061087257" lon="7.871871498481375"><ele>242.33333333333331</ele><time>2026-04-11T08:35:40Z</time></trkpt><trkpt lat="45.11537694291045" lon="7.872138885603931"><ele>243.66666666666669</ele><time>2026-04-11T08:35:41Z</time></trkpt><trkpt lat="45.11527392113954" lon="7.872390331833666"><ele>245.0</ele><time>2026-04-11T08:35:42Z</time></trkpt><trkpt lat="45.11514762098939" lon="7.872632478813721"><ele>244.0</ele><time>2026-04-11T08:35:43Z</time></trkpt><trkpt lat="45.114995398281565" lon="7.872858600467511"><ele>243.0</ele><time>2026-04-11T08:35:44Z</time></trkpt><trkpt lat="45.11482712080379" lon="7.873066372407945"><ele>242.0</ele><time>2026-04-11T08:35:45Z</time></trkpt><trkpt lat="45.114673304708234" lon="7.873289187819042"><ele>244.0</ele><time>2026-04-11T08:35:46Z</time></trkpt><trkpt lat="45.114540522420434" lon="7.8735447620672545"><ele>246.0</ele><time>2026-04-11T08:35:47Z</time></trkpt><trkpt lat="45.11441781018001" lon="7.873811216064994"><ele>248.0</ele><time>2026-04-11T08:35:48Z</time></trkpt><trkpt lat="45.11430371868595" lon="7.87405697328039"><ele>248.0</ele><time>2026-04-11T08:35:49Z</time></trkpt><trkpt lat="45.11421436747394" lon="7.8742636884311"><ele>248.0</ele><time>2026-04-11T08:35:50Z</time></trkpt><trkpt lat="45.1141513885688" lon="7.874466052851497"><ele>248.0</ele><time>2026-04-11T08:35:51Z</time></trkpt><trkpt lat="45.11413119713016" lon="7.874679060487905"><ele>249.0</ele><time>2026-04-11T08:35:52Z</time></trkpt><trkpt lat="45.114123852224814" lon="7.87492912149715"><ele>250.0</ele><time>2026-04-11T08:35:53Z</time></trkpt><trkpt lat="45.11412754323103" lon="7.875207415605335"><ele>251.0</ele><time>2026-04-11T08:35:54Z</time></trkpt><trkpt lat="45.11412894038244" lon="7.875497844442014"><ele>252.0</ele><time>2026-04-11T08:35:55Z</time></trkpt><trkpt lat="45.11410712103671" lon="7.875773720850581"><ele>253.0</ele><time>2026-04-11T08:35:56Z</time></trkpt><trkpt lat="45.11413200162133" lon="7.8760635151168366"><ele>254.0</ele><time>2026-04-11T08:35:57Z</time></trkpt><trkpt lat="45.11412426733218" lon="7.8763351365588585"><ele>254.0</ele><time>2026-04-11T08:35:58Z</time></trkpt><trkpt lat="45.11410343301434" lon="7.876586129504158"><ele>254.0</ele><time>2026-04-11T08:35:59Z</time></trkpt><trkpt lat="45.11407517980081" lon="7.8768346579000115"><ele>254.0</ele><time>2026-04-11T08:36:00Z</time></trkpt><trkpt lat="45.1140308529584" lon="7.8770613541255825"><ele>252.0</ele><time>2026-04-11T08:36:01Z</time></trkpt><trkpt lat="45.11398908642605" lon="7.877284068725276"><ele>250.0</ele><time>2026-04-11T08:36:02Z</time></trkpt><trkpt lat="45.113947441089806" lon="7.8775293027729605"><ele>248.0</ele><time>2026-04-11T08:36:03Z</time></trkpt><trkpt lat="45.113889058506025" lon="7.877790930666927"><ele>248.0</ele><time>2026-04-11T08:36:04Z</time></trkpt><trkpt lat="45.11380312192767" lon="7.878059515539698"><ele>248.0</ele><time>2026-04-11T08:36:05Z</time></trkpt><trkpt lat="45.113685483074086" lon="7.878333797610081"><ele>248.0</ele><time>2026-04-11T08:36:06Z</time></trkpt><trkpt lat="45.11355749877483" lon="7.878601719175488"><ele>249.5</ele><time>2026-04-11T08:36:07Z</time></trkpt><trkpt lat="45.11342629185421" lon="7.878861711995073"><ele>251.0</ele><time>2026-04-11T08:36:08Z</time></trkpt><trkpt lat="45.11329153914191" lon="7.87913200475186"><ele>249.0</ele><time>2026-04-11T08:36:09Z</time></trkpt><trkpt lat="45.11314808878133" lon="7.87943960476833"><ele>247.0</ele><time>2026-04-11T08:36:10Z</time></trkpt><trkpt lat="45.11300266160777" lon="7.879765956611089"><ele>247.0</ele><time>2026-04-11T08:36:11Z</time></trkpt><trkpt lat="45.1128717669577" lon="7.880079655655018"><ele>247.0</ele><time>2026-04-11T08:36:12Z</time></trkpt><trkpt lat="45.112755498965626" lon="7.880378365484764"><ele>249.0</ele><time>2026-04-11T08:36:13Z</time></trkpt><trkpt lat="45.112655051564374" lon="7.880652943175896"><ele>251.0</ele><time>2026-04-11T08:36:14Z</time></trkpt><trkpt lat="45.11255765646365" lon="7.88091117400078"><ele>253.0</ele><time>2026-04-11T08:36:15Z</time></trkpt><trkpt lat="45.11246481271684" lon="7.881152375349198"><ele>252.33333333333331</ele><time>2026-04-11T08:36:16Z</time></trkpt><trkpt lat="45.112377803742085" lon="7.881371729540913"><ele>251.66666666666669</ele><time>2026-04-11T08:36:17Z</time></trkpt><trkpt lat="45.11231052614925" lon="7.881585825026239"><ele>251.0</ele><time>2026-04-11T08:36:18Z</time></trkpt><trkpt lat="45.11226325808236" lon="7.881814096157859"><ele>251.0</ele><time>2026-04-11T08:36:19Z</time></trkpt><trkpt lat="45.112231442064825" lon="7.882085759400611"><ele>251.0</ele><time>2026-04-11T08:36:20Z</time></trkpt><trkpt lat="45.112207758757734" lon="7.8823666466400235"><ele>251.0</ele><time>2026-04-11T08:36:21Z</time></trkpt><trkpt lat="45.11217319245922" lon="7.882652605834161"><ele>251.66666666666669</ele><time>2026-04-11T08:36:22Z</time></trkpt><trkpt lat="45.11214190967308" lon="7.882964444751055"><ele>252.33333333333331</ele><time>2026-04-11T08:36:23Z</time></trkpt><trkpt lat="45.11210765733422" lon="7.8832820622730315"><ele>253.0</ele><time>2026-04-11T08:36:24Z</time></trkpt><trkpt lat="45.11207440106427" lon="7.883596157804645"><ele>253.33333333333331</ele><time>2026-04-11T08:36:25Z</time></trkpt><trkpt lat="45.11204118501345" lon="7.88390495509471"><ele>253.66666666666669</ele><time>2026-04-11T08:36:26Z</time></trkpt><trkpt lat="45.11200810419629" lon="7.884215238877463"><ele>254.0</ele><time>2026-04-11T08:36:27Z</time></trkpt><trkpt lat="45.11197344494376" lon="7.884542193792195"><ele>254.0</ele><time>2026-04-11T08:36:28Z</time></trkpt><trkpt lat="45.11194080804212" lon="7.884877105925756"><ele>254.0</ele><time>2026-04-11T08:36:29Z</time></trkpt><trkpt lat="45.111918281077315" lon="7.885213667975301"><ele>254.0</ele><time>2026-04-11T08:36:30Z</time></trkpt><trkpt lat="45.111898639408174" lon="7.885534327752918"><ele>254.0</ele><time>2026-04-11T08:36:31Z</time></trkpt><trkpt lat="45.11188367406926" lon="7.885848331088187"><ele>254.0</ele><time>2026-04-11T08:36:32Z</time></trkpt><trkpt lat="45.11186957085084" lon="7.886146471319344"><ele>255.0</ele><time>2026-04-11T08:36:33.001Z</time></trkpt><trkpt lat="45.11185635776227" lon="7.886444619667977"><ele>256.0</ele><time>2026-04-11T08:36:34.001Z</time></trkpt><trkpt lat="45.11183987187002" lon="7.886748124224191"><ele>257.0</ele><time>2026-04-11T08:36:35.001Z</time></trkpt><trkpt lat="45.11183056771164" lon="7.887047543008813"><ele>257.33333333333337</ele><time>2026-04-11T08:36:36.001Z</time></trkpt><trkpt lat="45.1118210442187" lon="7.88732185419646"><ele>257.6666666666667</ele><time>2026-04-11T08:36:37.001Z</time></trkpt><trkpt lat="45.11181296837205" lon="7.887575281901545"><ele>258.0</ele><time>2026-04-11T08:36:38.001Z</time></trkpt><trkpt lat="45.11179851962527" lon="7.8877947682208"><ele>261.0</ele><time>2026-04-11T08:36:39.001Z</time></trkpt><trkpt lat="45.11177224280426" lon="7.887987538043161"><ele>264.0</ele><time>2026-04-11T08:36:40.001Z</time></trkpt><trkpt lat="45.111703092587575" lon="7.888180494257921"><ele>267.0</ele><time>2026-04-11T08:36:41.001Z</time></trkpt><trkpt lat="45.111612001916114" lon="7.888376356099152"><ele>265.3333333333333</ele><time>2026-04-11T08:36:42.001Z</time></trkpt><trkpt lat="45.11148522210389" lon="7.8885619102789555"><ele>263.66666666666663</ele><time>2026-04-11T08:36:43.001Z</time></trkpt><trkpt lat="45.11134841339216" lon="7.888782137529498"><ele>262.0</ele><time>2026-04-11T08:36:44Z</time></trkpt><trkpt lat="45.11120027328879" lon="7.889034386884895"><ele>266.5</ele><time>2026-04-11T08:36:45Z</time></trkpt><trkpt lat="45.11104642933668" lon="7.889292362016715"><ele>271.0</ele><time>2026-04-11T08:36:46Z</time></trkpt><trkpt lat="45.11090064926634" lon="7.889527702192911"><ele>271.0</ele><time>2026-04-11T08:36:47Z</time></trkpt><trkpt lat="45.11074938942338" lon="7.889770927622854"><ele>271.0</ele><time>2026-04-11T08:36:48Z</time></trkpt><trkpt lat="45.110613773299065" lon="7.889990637351978"><ele>271.0</ele><time>2026-04-11T08:36:49Z</time></trkpt><trkpt lat="45.11048799000354" lon="7.890211314843329"><ele>268.66666666666663</ele><time>2026-04-11T08:36:50Z</time></trkpt><trkpt lat="45.1103575395794" lon="7.890442124977944"><ele>266.3333333333333</ele><time>2026-04-11T08:36:51Z</time></trkpt><trkpt lat="45.11022905330248" lon="7.890663618226359"><ele>264.0</ele><time>2026-04-11T08:36:52Z</time></trkpt><trkpt lat="45.110106033536425" lon="7.890864968354128"><ele>263.6666666666667</ele><time>2026-04-11T08:36:53Z</time></trkpt><trkpt lat="45.109988036736965" lon="7.891044793410972"><ele>263.33333333333337</ele><time>2026-04-11T08:36:54Z</time></trkpt><trkpt lat="45.10985214017706" lon="7.891209555182511"><ele>263.0</ele><time>2026-04-11T08:36:55Z</time></trkpt><trkpt lat="45.109704960442954" lon="7.891328962916461"><ele>263.0</ele><time>2026-04-11T08:36:56Z</time></trkpt><trkpt lat="45.10956119079416" lon="7.891444248784838"><ele>263.0</ele><time>2026-04-11T08:36:57Z</time></trkpt><trkpt lat="45.10942611944177" lon="7.891577194907712"><ele>263.0</ele><time>2026-04-11T08:36:58Z</time></trkpt><trkpt lat="45.109290759063086" lon="7.891735786369913"><ele>263.33333333333337</ele><time>2026-04-11T08:36:59Z</time></trkpt><trkpt lat="45.1091718683048" lon="7.891909365241401"><ele>263.6666666666667</ele><time>2026-04-11T08:37:00Z</time></trkpt><trkpt lat="45.10908164573804" lon="7.892081947765863"><ele>264.0</ele><time>2026-04-11T08:37:01Z</time></trkpt><trkpt lat="45.109008813346485" lon="7.892263285784915"><ele>263.3333333333333</ele><time>2026-04-11T08:37:02Z</time></trkpt><trkpt lat="45.10896103750769" lon="7.892474909139775"><ele>262.66666666666663</ele><time>2026-04-11T08:37:03Z</time></trkpt><trkpt lat="45.1089204801351" lon="7.89273175445439"><ele>262.0</ele><time>2026-04-11T08:37:04Z</time></trkpt><trkpt lat="45.1088832632943" lon="7.893025568090897"><ele>262.0</ele><time>2026-04-11T08:37:05Z</time></trkpt><trkpt lat="45.108852389803296" lon="7.893293730852377"><ele>262.0</ele><time>2026-04-11T08:37:06Z</time></trkpt><trkpt lat="45.10883296766801" lon="7.893542185895351"><ele>262.0</ele><time>2026-04-11T08:37:07Z</time></trkpt><trkpt lat="45.10881762885619" lon="7.893786452843315"><ele>262.0</ele><time>2026-04-11T08:37:08Z</time></trkpt><trkpt lat="45.10880451941543" lon="7.894016110135889"><ele>262.0</ele><time>2026-04-11T08:37:09Z</time></trkpt><trkpt lat="45.108805818171454" lon="7.894231055630899"><ele>262.0</ele><time>2026-04-11T08:37:10Z</time></trkpt><trkpt lat="45.108823515484616" lon="7.894431409902892"><ele>262.0</ele><time>2026-04-11T08:37:11Z</time></trkpt><trkpt lat="45.10884993874541" lon="7.894625907773763"><ele>262.0</ele><time>2026-04-11T08:37:12Z</time></trkpt><trkpt lat="45.10889156390897" lon="7.894818746322865"><ele>262.0</ele><time>2026-04-11T08:37:13Z</time></trkpt><trkpt lat="45.108962069189246" lon="7.895010255510038"><ele>262.0</ele><time>2026-04-11T08:37:14Z</time></trkpt><trkpt lat="45.10906140699021" lon="7.8951922206401255"><ele>263.66666666666663</ele><time>2026-04-11T08:37:15Z</time></trkpt><trkpt lat="45.10917812493639" lon="7.895364648949991"><ele>265.3333333333333</ele><time>2026-04-11T08:37:16Z</time></trkpt><trkpt lat="45.10930385381603" lon="7.895547463614346"><ele>267.0</ele><time>2026-04-11T08:37:17Z</time></trkpt><trkpt lat="45.10944451288457" lon="7.895758096406985"><ele>266.3333333333333</ele><time>2026-04-11T08:37:18Z</time></trkpt><trkpt lat="45.10958138122524" lon="7.895963085249197"><ele>265.66666666666663</ele><time>2026-04-11T08:37:19Z</time></trkpt><trkpt lat="45.10973091799444" lon="7.896193286036219"><ele>265.0</ele><time>2026-04-11T08:37:20Z</time></trkpt><trkpt lat="45.10986940533418" lon="7.8964006579072255"><ele>266.0</ele><time>2026-04-11T08:37:21Z</time></trkpt><trkpt lat="45.109998296095476" lon="7.896590688726684"><ele>267.0</ele><time>2026-04-11T08:37:22Z</time></trkpt><trkpt lat="45.110129428138706" lon="7.896780836587704"><ele>268.0</ele><time>2026-04-11T08:37:23Z</time></trkpt><trkpt lat="45.11026526382268" lon="7.896967959383996"><ele>268.0</ele><time>2026-04-11T08:37:24Z</time></trkpt><trkpt lat="45.11038703221344" lon="7.8971411056338665"><ele>268.0</ele><time>2026-04-11T08:37:25Z</time></trkpt><trkpt lat="45.11049677301304" lon="7.897278430796561"><ele>268.0</ele><time>2026-04-11T08:37:26Z</time></trkpt><trkpt lat="45.110602132666365" lon="7.897381953071812"><ele>268.0</ele><time>2026-04-11T08:37:27Z</time></trkpt><trkpt lat="45.11070512529573" lon="7.897498722613621"><ele>268.25</ele><time>2026-04-11T08:37:28Z</time></trkpt><trkpt lat="45.110811180886074" lon="7.897625497741676"><ele>268.5</ele><time>2026-04-11T08:37:29Z</time></trkpt><trkpt lat="45.11089352830211" lon="7.897782010199193"><ele>268.75</ele><time>2026-04-11T08:37:30Z</time></trkpt><trkpt lat="45.110946136464435" lon="7.89799266662677"><ele>269.0</ele><time>2026-04-11T08:37:31Z</time></trkpt><trkpt lat="45.111018931685145" lon="7.898223901430091"><ele>270.0</ele><time>2026-04-11T08:37:32Z</time></trkpt><trkpt lat="45.111054964924314" lon="7.898491329907745"><ele>271.0</ele><time>2026-04-11T08:37:33Z</time></trkpt><trkpt lat="45.1110723239324" lon="7.898782917003905"><ele>272.0</ele><time>2026-04-11T08:37:34Z</time></trkpt><trkpt lat="45.111073967615106" lon="7.899079584822551"><ele>273.33333333333337</ele><time>2026-04-11T08:37:35Z</time></trkpt><trkpt lat="45.11107335055124" lon="7.899363584682677"><ele>274.6666666666667</ele><time>2026-04-11T08:37:36Z</time></trkpt><trkpt lat="45.11107809669837" lon="7.899654906017564"><ele>276.0</ele><time>2026-04-11T08:37:37Z</time></trkpt><trkpt lat="45.111096767377745" lon="7.899941163695702"><ele>275.6666666666667</ele><time>2026-04-11T08:37:38Z</time></trkpt><trkpt lat="45.11113411380855" lon="7.900216774525769"><ele>275.33333333333337</ele><time>2026-04-11T08:37:39Z</time></trkpt><trkpt lat="45.111168958455316" lon="7.9004886962227445"><ele>275.0</ele><time>2026-04-11T08:37:40Z</time></trkpt><trkpt lat="45.1112074975154" lon="7.9007453867883"><ele>275.33333333333337</ele><time>2026-04-11T08:37:41Z</time></trkpt><trkpt lat="45.11125048865181" lon="7.900978600271539"><ele>275.6666666666667</ele><time>2026-04-11T08:37:42Z</time></trkpt><trkpt lat="45.11127620625451" lon="7.9011800420460725"><ele>276.0</ele><time>2026-04-11T08:37:43Z</time></trkpt><trkpt lat="45.11127792743077" lon="7.901386347616184"><ele>276.0</ele><time>2026-04-11T08:37:44Z</time></trkpt><trkpt lat="45.11124722978005" lon="7.901607158160959"><ele>276.0</ele><time>2026-04-11T08:37:45Z</time></trkpt><trkpt lat="45.11118573771543" lon="7.901842875996501"><ele>276.0</ele><time>2026-04-11T08:37:46Z</time></trkpt><trkpt lat="45.11110876673348" lon="7.902116292831407"><ele>277.0</ele><time>2026-04-11T08:37:47Z</time></trkpt><trkpt lat="45.11102231287111" lon="7.902422526836102"><ele>278.0</ele><time>2026-04-11T08:37:48Z</time></trkpt><trkpt lat="45.11094267868372" lon="7.902759436625677"><ele>280.0</ele><time>2026-04-11T08:37:49Z</time></trkpt><trkpt lat="45.110881871392024" lon="7.9031090751194535"><ele>282.0</ele><time>2026-04-11T08:37:50Z</time></trkpt><trkpt lat="45.1108351816501" lon="7.903442713003878"><ele>281.3333333333333</ele><time>2026-04-11T08:37:51Z</time></trkpt><trkpt lat="45.11078884886324" lon="7.903742648882714"><ele>280.66666666666663</ele><time>2026-04-11T08:37:52Z</time></trkpt><trkpt lat="45.11074680038633" lon="7.904011384295366"><ele>280.0</ele><time>2026-04-11T08:37:53Z</time></trkpt><trkpt lat="45.1107049883252" lon="7.904265093435364"><ele>280.0</ele><time>2026-04-11T08:37:54Z</time></trkpt><trkpt lat="45.1106630632744" lon="7.904512684295905"><ele>280.0</ele><time>2026-04-11T08:37:55Z</time></trkpt><trkpt lat="45.11062676812834" lon="7.904764583588107"><ele>280.0</ele><time>2026-04-11T08:37:56Z</time></trkpt><trkpt lat="45.1105946941586" lon="7.90502392741242"><ele>279.66666666666663</ele><time>2026-04-11T08:37:57Z</time></trkpt><trkpt lat="45.11056324429113" lon="7.905267524739714"><ele>279.3333333333333</ele><time>2026-04-11T08:37:58Z</time></trkpt><trkpt lat="45.1105319386264" lon="7.905487807616569"><ele>279.0</ele><time>2026-04-11T08:37:59Z</time></trkpt><trkpt lat="45.110505842433795" lon="7.905702732945523"><ele>278.6666666666667</ele><time>2026-04-11T08:38:00Z</time></trkpt><trkpt lat="45.11051042385679" lon="7.905932467285353"><ele>278.33333333333337</ele><time>2026-04-11T08:38:01Z</time></trkpt><trkpt lat="45.11053062682094" lon="7.906161944767523"><ele>278.0</ele><time>2026-04-11T08:38:02Z</time></trkpt><trkpt lat="45.11054221459017" lon="7.906396129773044"><ele>278.0</ele><time>2026-04-11T08:38:03Z</time></trkpt><trkpt lat="45.11053398048995" lon="7.9066548467180615"><ele>278.0</ele><time>2026-04-11T08:38:04Z</time></trkpt><trkpt lat="45.11052474141269" lon="7.906914732691087"><ele>278.0</ele><time>2026-04-11T08:38:05Z</time></trkpt><trkpt lat="45.11051761618812" lon="7.907154181877996"><ele>278.33333333333337</ele><time>2026-04-11T08:38:06Z</time></trkpt><trkpt lat="45.110504098766036" lon="7.907383809295572"><ele>278.6666666666667</ele><time>2026-04-11T08:38:07Z</time></trkpt><trkpt lat="45.11047471051798" lon="7.907595877891204"><ele>279.0</ele><time>2026-04-11T08:38:08Z</time></trkpt><trkpt lat="45.11041139592016" lon="7.907787924641852"><ele>281.6666666666667</ele><time>2026-04-11T08:38:09Z</time></trkpt><trkpt lat="45.11029531631454" lon="7.90794447025652"><ele>284.33333333333337</ele><time>2026-04-11T08:38:10Z</time></trkpt><trkpt lat="45.11018310294273" lon="7.9081180873202035"><ele>287.0</ele><time>2026-04-11T08:38:11Z</time></trkpt><trkpt lat="45.11006194141737" lon="7.908265125625098"><ele>286.0</ele><time>2026-04-11T08:38:12Z</time></trkpt><trkpt lat="45.10996880039776" lon="7.908426344754644"><ele>285.0</ele><time>2026-04-11T08:38:13Z</time></trkpt><trkpt lat="45.10989982876363" lon="7.9086025028022515"><ele>284.0</ele><time>2026-04-11T08:38:14Z</time></trkpt><trkpt lat="45.10982662292004" lon="7.9088179458955485"><ele>284.0</ele><time>2026-04-11T08:38:15Z</time></trkpt><trkpt lat="45.10973589332508" lon="7.9090460571345975"><ele>284.0</ele><time>2026-04-11T08:38:16Z</time></trkpt><trkpt lat="45.109659611625446" lon="7.909254340164046"><ele>284.0</ele><time>2026-04-11T08:38:17Z</time></trkpt><trkpt lat="45.109592908303426" lon="7.909448152944063"><ele>285.0</ele><time>2026-04-11T08:38:18Z</time></trkpt><trkpt lat="45.10952360469344" lon="7.909652514018724"><ele>286.0</ele><time>2026-04-11T08:38:19Z</time></trkpt><trkpt lat="45.10946509761761" lon="7.90989016219629"><ele>287.0</ele><time>2026-04-11T08:38:20Z</time></trkpt><trkpt lat="45.10942707572481" lon="7.9101522149684484"><ele>287.6666666666667</ele><time>2026-04-11T08:38:21Z</time></trkpt><trkpt lat="45.10940014326136" lon="7.910400609958102"><ele>288.3333333333333</ele><time>2026-04-11T08:38:22Z</time></trkpt><trkpt lat="45.109382067259475" lon="7.910635120367282"><ele>289.0</ele><time>2026-04-11T08:38:23Z</time></trkpt><trkpt lat="45.10937407386852" lon="7.910881736957534"><ele>289.0</ele><time>2026-04-11T08:38:24Z</time></trkpt><trkpt lat="45.10939137914403" lon="7.911137333472855"><ele>289.0</ele><time>2026-04-11T08:38:25Z</time></trkpt><trkpt lat="45.10941861509745" lon="7.911394784831901"><ele>289.0</ele><time>2026-04-11T08:38:26Z</time></trkpt><trkpt lat="45.10941677917341" lon="7.911650529005417"><ele>289.66666666666663</ele><time>2026-04-11T08:38:27Z</time></trkpt><trkpt lat="45.10937783283723" lon="7.9118874883690244"><ele>290.3333333333333</ele><time>2026-04-11T08:38:28Z</time></trkpt><trkpt lat="45.10933515317697" lon="7.912109906890957"><ele>291.0</ele><time>2026-04-11T08:38:29Z</time></trkpt><trkpt lat="45.10929102791244" lon="7.912327775386073"><ele>291.0</ele><time>2026-04-11T08:38:30Z</time></trkpt><trkpt lat="45.1092618147219" lon="7.912529163064436"><ele>291.0</ele><time>2026-04-11T08:38:31Z</time></trkpt><trkpt lat="45.10924775722866" lon="7.912732674177945"><ele>291.0</ele><time>2026-04-11T08:38:32Z</time></trkpt><trkpt lat="45.10924647416557" lon="7.912953074671988"><ele>291.0</ele><time>2026-04-11T08:38:33Z</time></trkpt><trkpt lat="45.10925501517692" lon="7.913168563888757"><ele>291.75</ele><time>2026-04-11T08:38:34Z</time></trkpt><trkpt lat="45.10926386054665" lon="7.913366621504919"><ele>292.5</ele><time>2026-04-11T08:38:35Z</time></trkpt><trkpt lat="45.10924395260425" lon="7.9135667358722825"><ele>293.25</ele><time>2026-04-11T08:38:36Z</time></trkpt><trkpt lat="45.109203060098906" lon="7.913757561572257"><ele>294.0</ele><time>2026-04-11T08:38:37Z</time></trkpt><trkpt lat="45.109073686372646" lon="7.913902705343349"><ele>294.0</ele><time>2026-04-11T08:38:38Z</time></trkpt><trkpt lat="45.10912897167264" lon="7.913949589661424"><ele>294.0</ele><time>2026-04-11T08:38:39Z</time></trkpt><trkpt lat="45.109021830412" lon="7.913997536682216"><ele>294.0</ele><time>2026-04-11T08:38:40Z</time></trkpt><trkpt lat="45.10887890778481" lon="7.914071872814306"><ele>294.0</ele><time>2026-04-11T08:38:41Z</time></trkpt><trkpt lat="45.10873023413042" lon="7.91416316242113"><ele>296.0</ele><time>2026-04-11T08:38:42Z</time></trkpt><trkpt lat="45.10860440004914" lon="7.914258328892487"><ele>298.0</ele><time>2026-04-11T08:38:43Z</time></trkpt><trkpt lat="45.10848035047844" lon="7.914426373882428"><ele>300.0</ele><time>2026-04-11T08:38:44Z</time></trkpt><trkpt lat="45.108364969804185" lon="7.914615646878954"><ele>300.0</ele><time>2026-04-11T08:38:45Z</time></trkpt><trkpt lat="45.10827276038433" lon="7.914766624675768"><ele>300.0</ele><time>2026-04-11T08:38:46Z</time></trkpt><trkpt lat="45.10820004144906" lon="7.9148988152547215"><ele>300.0</ele><time>2026-04-11T08:38:47.001Z</time></trkpt><trkpt lat="45.10815071759657" lon="7.915051808098771"><ele>300.0</ele><time>2026-04-11T08:38:48.001Z</time></trkpt><trkpt lat="45.108129825180185" lon="7.915238590319841"><ele>300.25</ele><time>2026-04-11T08:38:49.001Z</time></trkpt><trkpt lat="45.10813080031986" lon="7.9154402666407035"><ele>300.5</ele><time>2026-04-11T08:38:50Z</time></trkpt><trkpt lat="45.108141408808095" lon="7.915632007959931"><ele>300.75</ele><time>2026-04-11T08:38:51Z</time></trkpt><trkpt lat="45.10814817557746" lon="7.915778908523318"><ele>301.0</ele><time>2026-04-11T08:38:52Z</time></trkpt><trkpt lat="45.108156963984385" lon="7.915915025235651"><ele>303.40000000000003</ele><time>2026-04-11T08:38:53Z</time></trkpt><trkpt lat="45.1081337719611" lon="7.9160499898021275"><ele>305.8</ele><time>2026-04-11T08:38:54Z</time></trkpt><trkpt lat="45.1080719695979" lon="7.916147002291188"><ele>308.20000000000005</ele><time>2026-04-11T08:38:55Z</time></trkpt><trkpt lat="45.107968923636385" lon="7.916169943130104"><ele>310.6</ele><time>2026-04-11T08:38:56Z</time></trkpt><trkpt lat="45.107871169105564" lon="7.916166612848576"><ele>313.0</ele><time>2026-04-11T08:38:57Z</time></trkpt><trkpt lat="45.10775091737438" lon="7.916182606613673"><ele>313.0</ele><time>2026-04-11T08:38:58Z</time></trkpt><trkpt lat="45.10765187822064" lon="7.916200911283571"><ele>313.0</ele><time>2026-04-11T08:38:59Z</time></trkpt><trkpt lat="45.10757946320966" lon="7.916296911889923"><ele>313.0</ele><time>2026-04-11T08:39:00Z</time></trkpt><trkpt lat="45.10753623522248" lon="7.916467745107224"><ele>313.0</ele><time>2026-04-11T08:39:01Z</time></trkpt><trkpt lat="45.10749060437307" lon="7.916681927583396"><ele>315.66666666666663</ele><time>2026-04-11T08:39:02Z</time></trkpt><trkpt lat="45.107421231253404" lon="7.916894312015254"><ele>318.3333333333333</ele><time>2026-04-11T08:39:03Z</time></trkpt><trkpt lat="45.10731768905446" lon="7.9170738862764"><ele>321.0</ele><time>2026-04-11T08:39:04Z</time></trkpt><trkpt lat="45.10720440298115" lon="7.91725757536539"><ele>318.8</ele><time>2026-04-11T08:39:05Z</time></trkpt><trkpt lat="45.10712437365794" lon="7.917399691553019"><ele>316.6</ele><time>2026-04-11T08:39:06Z</time></trkpt><trkpt lat="45.10706528908614" lon="7.917499352585674"><ele>314.4</ele><time>2026-04-11T08:39:07Z</time></trkpt><trkpt lat="45.10702603913384" lon="7.917608748842821"><ele>312.2</ele><time>2026-04-11T08:39:08Z</time></trkpt><trkpt lat="45.107015160689286" lon="7.917748556025156"><ele>310.0</ele><time>2026-04-11T08:39:09Z</time></trkpt><trkpt lat="45.107046523308455" lon="7.917918744032215"><ele>310.0</ele><time>2026-04-11T08:39:10Z</time></trkpt><trkpt lat="45.10708022266605" lon="7.918085215982545"><ele>310.0</ele><time>2026-04-11T08:39:11Z</time></trkpt><trkpt lat="45.10710061938264" lon="7.918213290724578"><ele>310.0</ele><time>2026-04-11T08:39:12Z</time></trkpt><trkpt lat="45.10712551867217" lon="7.918308536976109"><ele>310.0</ele><time>2026-04-11T08:39:13Z</time></trkpt><trkpt lat="45.10717858114298" lon="7.918371762170446"><ele>310.0</ele><time>2026-04-11T08:39:14Z</time></trkpt><trkpt lat="45.10732351185654" lon="7.918293527511804"><ele>310.0</ele><time>2026-04-11T08:39:16Z</time></trkpt><trkpt lat="45.10730067950968" lon="7.9180867531334815"><ele>310.0</ele><time>2026-04-11T08:39:17Z</time></trkpt><trkpt lat="45.10729334237237" lon="7.917934438364228"><ele>310.0</ele><time>2026-04-11T08:39:18Z</time></trkpt><trkpt lat="45.107294864303356" lon="7.917807671365574"><ele>310.0</ele><time>2026-04-11T08:39:19Z</time></trkpt><trkpt lat="45.107391377967616" lon="7.917728051797071"><ele>314.0</ele><time>2026-04-11T08:39:21Z</time></trkpt><trkpt lat="45.10746280289416" lon="7.917748117574046"><ele>318.0</ele><time>2026-04-11T08:39:22Z</time></trkpt><trkpt lat="45.10753530746656" lon="7.917865461442241"><ele>322.0</ele><time>2026-04-11T08:39:23Z</time></trkpt><trkpt lat="45.10759845543214" lon="7.918014713495904"><ele>326.0</ele><time>2026-04-11T08:39:24Z</time></trkpt><trkpt lat="45.10766424617403" lon="7.918188260394832"><ele>330.0</ele><time>2026-04-11T08:39:25Z</time></trkpt><trkpt lat="45.1077236770686" lon="7.918366419095253"><ele>332.25</ele><time>2026-04-11T08:39:26Z</time></trkpt><trkpt lat="45.10773318958446" lon="7.918556852993922"><ele>334.5</ele><time>2026-04-11T08:39:27Z</time></trkpt><trkpt lat="45.107704640060334" lon="7.918740248390951"><ele>336.75</ele><time>2026-04-11T08:39:28Z</time></trkpt><trkpt lat="45.10764300355367" lon="7.91895221270158"><ele>339.0</ele><time>2026-04-11T08:39:29Z</time></trkpt><trkpt lat="45.107558722735924" lon="7.919212298575162"><ele>338.3333333333333</ele><time>2026-04-11T08:39:30Z</time></trkpt><trkpt lat="45.107472302464174" lon="7.91949357933442"><ele>337.66666666666663</ele><time>2026-04-11T08:39:31Z</time></trkpt><trkpt lat="45.10739448540365" lon="7.919748723150714"><ele>337.0</ele><time>2026-04-11T08:39:32Z</time></trkpt><trkpt lat="45.107329522031705" lon="7.919959330843409"><ele>340.66666666666663</ele><time>2026-04-11T08:39:33Z</time></trkpt><trkpt lat="45.107269580595" lon="7.9201595280637065"><ele>344.3333333333333</ele><time>2026-04-11T08:39:34Z</time></trkpt><trkpt lat="45.107207379471205" lon="7.920365947262722"><ele>348.0</ele><time>2026-04-11T08:39:35Z</time></trkpt><trkpt lat="45.10714642759014" lon="7.920566461458456"><ele>348.0</ele><time>2026-04-11T08:39:36Z</time></trkpt><trkpt lat="45.10709412845076" lon="7.920736195971232"><ele>348.0</ele><time>2026-04-11T08:39:37Z</time></trkpt><trkpt lat="45.107052875592615" lon="7.920875132878647"><ele>348.0</ele><time>2026-04-11T08:39:38Z</time></trkpt><trkpt lat="45.107028356205916" lon="7.920994587772861"><ele>348.0</ele><time>2026-04-11T08:39:39Z</time></trkpt><trkpt lat="45.1070312862212" lon="7.921117412571572"><ele>348.0</ele><time>2026-04-11T08:39:40Z</time></trkpt><trkpt lat="45.10706421365764" lon="7.9212445168211385"><ele>347.0</ele><time>2026-04-11T08:39:41Z</time></trkpt><trkpt lat="45.107137573884565" lon="7.921363141923005"><ele>346.0</ele><time>2026-04-11T08:39:42Z</time></trkpt><trkpt lat="45.10723523698598" lon="7.921507165908141"><ele>345.0</ele><time>2026-04-11T08:39:43Z</time></trkpt><trkpt lat="45.10734452740047" lon="7.9216645421723975"><ele>344.0</ele><time>2026-04-11T08:39:44Z</time></trkpt><trkpt lat="45.10745399363265" lon="7.92180655407663"><ele>347.25</ele><time>2026-04-11T08:39:45Z</time></trkpt><trkpt lat="45.107553873958445" lon="7.921949633496047"><ele>350.5</ele><time>2026-04-11T08:39:46Z</time></trkpt><trkpt lat="45.10764119934396" lon="7.922052983183773"><ele>353.75</ele><time>2026-04-11T08:39:47Z</time></trkpt><trkpt lat="45.10771062152601" lon="7.922182734182362"><ele>357.0</ele><time>2026-04-11T08:39:48Z</time></trkpt><trkpt lat="45.10777172946843" lon="7.922379364377976"><ele>358.25</ele><time>2026-04-11T08:39:49Z</time></trkpt><trkpt lat="45.107809407882435" lon="7.922609350123302"><ele>359.5</ele><time>2026-04-11T08:39:50Z</time></trkpt><trkpt lat="45.10784023023153" lon="7.9228141759842"><ele>360.75</ele><time>2026-04-11T08:39:51Z</time></trkpt><trkpt lat="45.107868486116004" lon="7.922980275651846"><ele>362.0</ele><time>2026-04-11T08:39:52Z</time></trkpt><trkpt lat="45.10785761988547" lon="7.923114852470415"><ele>362.0</ele><time>2026-04-11T08:39:53Z</time></trkpt><trkpt lat="45.107812991834365" lon="7.923228540084237"><ele>362.0</ele><time>2026-04-11T08:39:54Z</time></trkpt><trkpt lat="45.10772526735276" lon="7.923327645511097"><ele>362.0</ele><time>2026-04-11T08:39:55Z</time></trkpt><trkpt lat="45.10763514594777" lon="7.923396272426909"><ele>362.0</ele><time>2026-04-11T08:39:56Z</time></trkpt><trkpt lat="45.1075536897366" lon="7.923534617832125"><ele>362.0</ele><time>2026-04-11T08:39:57Z</time></trkpt><trkpt lat="45.107479126652024" lon="7.923707672856023"><ele>364.33333333333337</ele><time>2026-04-11T08:39:58Z</time></trkpt><trkpt lat="45.107420842240735" lon="7.923871619873742"><ele>366.6666666666667</ele><time>2026-04-11T08:39:59Z</time></trkpt><trkpt lat="45.107380511850124" lon="7.924097642167298"><ele>369.0</ele><time>2026-04-11T08:40:00Z</time></trkpt><trkpt lat="45.10736305671982" lon="7.924336009668768"><ele>361.6666666666667</ele><time>2026-04-11T08:40:01Z</time></trkpt><trkpt lat="45.10736191720534" lon="7.924595552549168"><ele>354.33333333333337</ele><time>2026-04-11T08:40:02Z</time></trkpt><trkpt lat="45.10732655065591" lon="7.924809476730789"><ele>347.0</ele><time>2026-04-11T08:40:03Z</time></trkpt><trkpt lat="45.10728003320679" lon="7.92499845721949"><ele>349.8</ele><time>2026-04-11T08:40:04Z</time></trkpt><trkpt lat="45.107224205001415" lon="7.925157974568183"><ele>352.6</ele><time>2026-04-11T08:40:05Z</time></trkpt><trkpt lat="45.10716316448616" lon="7.925294397956703"><ele>355.40000000000003</ele><time>2026-04-11T08:40:06Z</time></trkpt><trkpt lat="45.10710842165021" lon="7.925383136723864"><ele>358.20000000000005</ele><time>2026-04-11T08:40:07Z</time></trkpt><trkpt lat="45.107049873825126" lon="7.925441136598269"><ele>361.0</ele><time>2026-04-11T08:40:08Z</time></trkpt><trkpt lat="45.10692079612504" lon="7.925559217443231"><ele>361.0</ele><time>2026-04-11T08:40:11Z</time></trkpt><trkpt lat="45.10697459208011" lon="7.92583006075711"><ele>361.0</ele><time>2026-04-11T08:40:13Z</time></trkpt><trkpt lat="45.10702126507174" lon="7.925940549448371"><ele>361.0</ele><time>2026-04-11T08:40:14Z</time></trkpt><trkpt lat="45.10703738939183" lon="7.926073914823892"><ele>361.0</ele><time>2026-04-11T08:40:15Z</time></trkpt><trkpt lat="45.10701374562791" lon="7.926228333645263"><ele>361.4</ele><time>2026-04-11T08:40:16Z</time></trkpt><trkpt lat="45.106981736403384" lon="7.926382765212075"><ele>361.8</ele><time>2026-04-11T08:40:17Z</time></trkpt><trkpt lat="45.10693816271344" lon="7.92651919302789"><ele>362.2</ele><time>2026-04-11T08:40:18Z</time></trkpt><trkpt lat="45.106880130182034" lon="7.926643299073164"><ele>362.59999999999997</ele><time>2026-04-11T08:40:19Z</time></trkpt><trkpt lat="45.106813242423975" lon="7.926757992118447"><ele>363.0</ele><time>2026-04-11T08:40:20Z</time></trkpt><trkpt lat="45.10676043753437" lon="7.926871194979893"><ele>358.2</ele><time>2026-04-11T08:40:21Z</time></trkpt><trkpt lat="45.10669615450177" lon="7.926964571243129"><ele>353.4</ele><time>2026-04-11T08:40:23Z</time></trkpt><trkpt lat="45.10669280041854" lon="7.9271110906128035"><ele>348.59999999999997</ele><time>2026-04-11T08:40:25Z</time></trkpt><trkpt lat="45.106744500615974" lon="7.927177726835886"><ele>343.79999999999995</ele><time>2026-04-11T08:40:26Z</time></trkpt><trkpt lat="45.10683277729429" lon="7.927185475247737"><ele>339.0</ele><time>2026-04-11T08:40:27Z</time></trkpt><trkpt lat="45.10691018480522" lon="7.927100004570432"><ele>339.0</ele><time>2026-04-11T08:40:28Z</time></trkpt><trkpt lat="45.106965632439874" lon="7.9269706906467885"><ele>339.0</ele><time>2026-04-11T08:40:29Z</time></trkpt><trkpt lat="45.107036143798204" lon="7.926854457212483"><ele>339.0</ele><time>2026-04-11T08:40:30Z</time></trkpt><trkpt lat="45.10711471165526" lon="7.926749453563148"><ele>339.0</ele><time>2026-04-11T08:40:31Z</time></trkpt><trkpt lat="45.1072038346803" lon="7.926666347293736"><ele>339.0</ele><time>2026-04-11T08:40:32Z</time></trkpt><trkpt lat="45.10727595329437" lon="7.926582111539563"><ele>338.0</ele><time>2026-04-11T08:40:33Z</time></trkpt><trkpt lat="45.10735230378759" lon="7.926513030226021"><ele>337.0</ele><time>2026-04-11T08:40:34Z</time></trkpt><trkpt lat="45.10744187858972" lon="7.926461221396314"><ele>336.0</ele><time>2026-04-11T08:40:35Z</time></trkpt><trkpt lat="45.10754608774928" lon="7.926475174427904"><ele>335.0</ele><time>2026-04-11T08:40:36Z</time></trkpt><trkpt lat="45.10762920046112" lon="7.926601575695686"><ele>334.0</ele><time>2026-04-11T08:40:37Z</time></trkpt><trkpt lat="45.10774410091661" lon="7.926739295902752"><ele>334.0</ele><time>2026-04-11T08:40:38Z</time></trkpt><trkpt lat="45.10786211197611" lon="7.92686799925812"><ele>334.0</ele><time>2026-04-11T08:40:39Z</time></trkpt><trkpt lat="45.10796591965347" lon="7.926959837928116"><ele>334.0</ele><time>2026-04-11T08:40:40Z</time></trkpt><trkpt lat="45.10807675999101" lon="7.9270666959435925"><ele>334.0</ele><time>2026-04-11T08:40:41Z</time></trkpt><trkpt lat="45.10815878934043" lon="7.927190227369002"><ele>334.3333333333333</ele><time>2026-04-11T08:40:42Z</time></trkpt><trkpt lat="45.108336633240306" lon="7.927368702341286"><ele>334.6666666666667</ele><time>2026-04-11T08:40:43Z</time></trkpt><trkpt lat="45.108458749013664" lon="7.9274845202188455"><ele>335.0</ele><time>2026-04-11T08:40:44Z</time></trkpt><trkpt lat="45.108585938950235" lon="7.927559599772525"><ele>330.33333333333337</ele><time>2026-04-11T08:40:45Z</time></trkpt><trkpt lat="45.1087374048563" lon="7.927598509954131"><ele>325.6666666666667</ele><time>2026-04-11T08:40:46Z</time></trkpt><trkpt lat="45.10892337497008" lon="7.927622154489003"><ele>321.0</ele><time>2026-04-11T08:40:47Z</time></trkpt><trkpt lat="45.109108805064665" lon="7.927710992662925"><ele>321.0</ele><time>2026-04-11T08:40:48Z</time></trkpt><trkpt lat="45.10927896355613" lon="7.92779988173972"><ele>321.0</ele><time>2026-04-11T08:40:49Z</time></trkpt><trkpt lat="45.10943273760091" lon="7.927895623068635"><ele>321.0</ele><time>2026-04-11T08:40:50Z</time></trkpt><trkpt lat="45.109577325755616" lon="7.927986237470893"><ele>321.0</ele><time>2026-04-11T08:40:51Z</time></trkpt><trkpt lat="45.10970897632405" lon="7.92805962145994"><ele>321.0</ele><time>2026-04-11T08:40:52Z</time></trkpt><trkpt lat="45.10980078097194" lon="7.928106361730491"><ele>321.0</ele><time>2026-04-11T08:40:53Z</time></trkpt><trkpt lat="45.1098665156501" lon="7.928150920269243"><ele>321.0</ele><time>2026-04-11T08:40:54Z</time></trkpt><trkpt lat="45.10994635783728" lon="7.9281747786601935"><ele>321.0</ele><time>2026-04-11T08:40:55Z</time></trkpt><trkpt lat="45.11004956222379" lon="7.9281634646351"><ele>321.8</ele><time>2026-04-11T08:40:56Z</time></trkpt><trkpt lat="45.11016665899761" lon="7.928104744372368"><ele>322.6</ele><time>2026-04-11T08:40:57Z</time></trkpt><trkpt lat="45.11026998746118" lon="7.928018707687674"><ele>323.4</ele><time>2026-04-11T08:40:58Z</time></trkpt><trkpt lat="45.11037222032648" lon="7.927977320022784"><ele>324.2</ele><time>2026-04-11T08:40:59Z</time></trkpt><trkpt lat="45.110466429923086" lon="7.927956112474129"><ele>325.0</ele><time>2026-04-11T08:41:00Z</time></trkpt><trkpt lat="45.110548809141896" lon="7.927955524065342"><ele>325.0</ele><time>2026-04-11T08:41:01Z</time></trkpt><trkpt lat="45.11061330629311" lon="7.928081319539416"><ele>325.0</ele><time>2026-04-11T08:41:02Z</time></trkpt><trkpt lat="45.11067672920388" lon="7.928238565394717"><ele>325.0</ele><time>2026-04-11T08:41:03Z</time></trkpt><trkpt lat="45.11076355644957" lon="7.928436129086405"><ele>325.0</ele><time>2026-04-11T08:41:04Z</time></trkpt><trkpt lat="45.110853574557154" lon="7.928628326133043"><ele>322.25</ele><time>2026-04-11T08:41:05Z</time></trkpt><trkpt lat="45.11092599895164" lon="7.928789542486735"><ele>319.5</ele><time>2026-04-11T08:41:06Z</time></trkpt><trkpt lat="45.11097628725085" lon="7.9289438510341474"><ele>316.75</ele><time>2026-04-11T08:41:07Z</time></trkpt><trkpt lat="45.111040767963466" lon="7.929117380408698"><ele>314.0</ele><time>2026-04-11T08:41:08Z</time></trkpt><trkpt lat="45.111145823848844" lon="7.929276096170087"><ele>310.25</ele><time>2026-04-11T08:41:09Z</time></trkpt><trkpt lat="45.11124397450347" lon="7.929409691604649"><ele>306.5</ele><time>2026-04-11T08:41:10Z</time></trkpt><trkpt lat="45.111324381650114" lon="7.929551268783383"><ele>302.75</ele><time>2026-04-11T08:41:11Z</time></trkpt><trkpt lat="45.11136517389964" lon="7.929719647287278"><ele>299.0</ele><time>2026-04-11T08:41:12Z</time></trkpt><trkpt lat="45.11138743785526" lon="7.929882026621857"><ele>299.0</ele><time>2026-04-11T08:41:13Z</time></trkpt><trkpt lat="45.111431319454695" lon="7.930022608153954"><ele>299.0</ele><time>2026-04-11T08:41:14Z</time></trkpt><trkpt lat="45.11144795129431" lon="7.930155567137822"><ele>299.0</ele><time>2026-04-11T08:41:15Z</time></trkpt><trkpt lat="45.11156660867313" lon="7.930249436250382"><ele>299.0</ele><time>2026-04-11T08:41:16Z</time></trkpt><trkpt lat="45.11168415628623" lon="7.930351927341878"><ele>300.2</ele><time>2026-04-11T08:41:17Z</time></trkpt><trkpt lat="45.111769719103634" lon="7.930465813914218"><ele>301.4</ele><time>2026-04-11T08:41:18Z</time></trkpt><trkpt lat="45.111771462831186" lon="7.930627993970598"><ele>302.6</ele><time>2026-04-11T08:41:19Z</time></trkpt><trkpt lat="45.11182274164034" lon="7.93074906454864"><ele>303.8</ele><time>2026-04-11T08:41:20Z</time></trkpt><trkpt lat="45.111891366711546" lon="7.930870085020019"><ele>305.0</ele><time>2026-04-11T08:41:21Z</time></trkpt><trkpt lat="45.11200884661058" lon="7.93096929532843"><ele>299.33333333333337</ele><time>2026-04-11T08:41:22Z</time></trkpt><trkpt lat="45.112145743254565" lon="7.93106375067633"><ele>293.6666666666667</ele><time>2026-04-11T08:41:23Z</time></trkpt><trkpt lat="45.112280439884074" lon="7.931176691573665"><ele>288.0</ele><time>2026-04-11T08:41:24Z</time></trkpt><trkpt lat="45.11241980814097" lon="7.93126797038765"><ele>288.0</ele><time>2026-04-11T08:41:25Z</time></trkpt><trkpt lat="45.11255745306243" lon="7.931321447954916"><ele>288.0</ele><time>2026-04-11T08:41:26Z</time></trkpt><trkpt lat="45.11266849760102" lon="7.931385141262701"><ele>288.0</ele><time>2026-04-11T08:41:27Z</time></trkpt><trkpt lat="45.112776526634626" lon="7.931405866229936"><ele>288.0</ele><time>2026-04-11T08:41:28Z</time></trkpt><trkpt lat="45.11289630547934" lon="7.931350618344607"><ele>288.0</ele><time>2026-04-11T08:41:29Z</time></trkpt><trkpt lat="45.11300798800243" lon="7.9312769588229886"><ele>288.0</ele><time>2026-04-11T08:41:30Z</time></trkpt><trkpt lat="45.11311449675409" lon="7.931208190627137"><ele>288.0</ele><time>2026-04-11T08:41:31Z</time></trkpt><trkpt lat="45.11319984955484" lon="7.931142912346576"><ele>288.0</ele><time>2026-04-11T08:41:32Z</time></trkpt><trkpt lat="45.1132802436098" lon="7.931108261923832"><ele>288.0</ele><time>2026-04-11T08:41:33Z</time></trkpt><trkpt lat="45.11336697490051" lon="7.9311334038309775"><ele>290.25</ele><time>2026-04-11T08:41:34Z</time></trkpt><trkpt lat="45.113440547603545" lon="7.9312306575557985"><ele>292.5</ele><time>2026-04-11T08:41:35Z</time></trkpt><trkpt lat="45.113501099017306" lon="7.931360833213211"><ele>294.75</ele><time>2026-04-11T08:41:36Z</time></trkpt><trkpt lat="45.1135865489127" lon="7.931462236107427"><ele>297.0</ele><time>2026-04-11T08:41:37Z</time></trkpt><trkpt lat="45.11373508719783" lon="7.931511483459662"><ele>297.0</ele><time>2026-04-11T08:41:38Z</time></trkpt><trkpt lat="45.113866468920804" lon="7.9314974512669245"><ele>297.0</ele><time>2026-04-11T08:41:39Z</time></trkpt><trkpt lat="45.114025849471986" lon="7.931475478559619"><ele>297.0</ele><time>2026-04-11T08:41:40Z</time></trkpt><trkpt lat="45.114173071531106" lon="7.9314790046492005"><ele>297.0</ele><time>2026-04-11T08:41:41Z</time></trkpt><trkpt lat="45.11430508486631" lon="7.931476769105058"><ele>296.75</ele><time>2026-04-11T08:41:42Z</time></trkpt><trkpt lat="45.11444973039356" lon="7.931522776125249"><ele>296.5</ele><time>2026-04-11T08:41:43Z</time></trkpt><trkpt lat="45.11458852104614" lon="7.9316051748167835"><ele>296.25</ele><time>2026-04-11T08:41:44Z</time></trkpt><trkpt lat="45.11471873647315" lon="7.931667579845988"><ele>296.0</ele><time>2026-04-11T08:41:45Z</time></trkpt><trkpt lat="45.114844290130925" lon="7.931679711353989"><ele>294.5</ele><time>2026-04-11T08:41:46Z</time></trkpt><trkpt lat="45.114969480813976" lon="7.931668174818923"><ele>293.0</ele><time>2026-04-11T08:41:47Z</time></trkpt><trkpt lat="45.11509835553544" lon="7.931617683879247"><ele>291.5</ele><time>2026-04-11T08:41:48Z</time></trkpt><trkpt lat="45.1152405486263" lon="7.931596009810631"><ele>290.0</ele><time>2026-04-11T08:41:49Z</time></trkpt><trkpt lat="45.11538182399463" lon="7.931586363218772"><ele>290.0</ele><time>2026-04-11T08:41:50Z</time></trkpt><trkpt lat="45.115524935667736" lon="7.931612992334172"><ele>290.0</ele><time>2026-04-11T08:41:51Z</time></trkpt><trkpt lat="45.11565553037624" lon="7.931654307525224"><ele>290.0</ele><time>2026-04-11T08:41:52Z</time></trkpt><trkpt lat="45.115786592517" lon="7.931707402492369"><ele>290.0</ele><time>2026-04-11T08:41:53Z</time></trkpt><trkpt lat="45.11591130662382" lon="7.931780941428134"><ele>285.0</ele><time>2026-04-11T08:41:54Z</time></trkpt><trkpt lat="45.11601315689198" lon="7.931885662780486"><ele>280.0</ele><time>2026-04-11T08:41:55Z</time></trkpt><trkpt lat="45.11608720935978" lon="7.932005582696953"><ele>275.0</ele><time>2026-04-11T08:41:56Z</time></trkpt><trkpt lat="45.11613753419393" lon="7.932131072831697"><ele>270.0</ele><time>2026-04-11T08:41:57Z</time></trkpt><trkpt lat="45.11617463216025" lon="7.932257166213155"><ele>265.0</ele><time>2026-04-11T08:41:58Z</time></trkpt><trkpt lat="45.11620557180059" lon="7.932356910734775"><ele>265.0</ele><time>2026-04-11T08:41:59Z</time></trkpt><trkpt lat="45.1162296547775" lon="7.932454446676933"><ele>265.0</ele><time>2026-04-11T08:42:00Z</time></trkpt><trkpt lat="45.116201027248565" lon="7.93259806898982"><ele>265.0</ele><time>2026-04-11T08:42:02Z</time></trkpt><trkpt lat="45.11613057992563" lon="7.932624028104668"><ele>265.0</ele><time>2026-04-11T08:42:03Z</time></trkpt><trkpt lat="45.116059749089416" lon="7.932591998609446"><ele>265.0</ele><time>2026-04-11T08:42:04Z</time></trkpt><trkpt lat="45.116016578370065" lon="7.932491584206614"><ele>265.0</ele><time>2026-04-11T08:42:05Z</time></trkpt><trkpt lat="45.11602579689253" lon="7.932357253831716"><ele>265.0</ele><time>2026-04-11T08:42:06Z</time></trkpt><trkpt lat="45.115987880046674" lon="7.932231819169216"><ele>265.0</ele><time>2026-04-11T08:42:07Z</time></trkpt><trkpt lat="45.11595844162593" lon="7.932123753376578"><ele>265.0</ele><time>2026-04-11T08:42:08Z</time></trkpt><trkpt lat="45.11589872137656" lon="7.932041741272378"><ele>265.0</ele><time>2026-04-11T08:42:09Z</time></trkpt><trkpt lat="45.11580772553827" lon="7.931978749491375"><ele>265.0</ele><time>2026-04-11T08:42:10Z</time></trkpt><trkpt lat="45.11570414825402" lon="7.931953843035036"><ele>263.6</ele><time>2026-04-11T08:42:11Z</time></trkpt><trkpt lat="45.11559477343991" lon="7.931977778460536"><ele>262.2</ele><time>2026-04-11T08:42:12Z</time></trkpt><trkpt lat="45.115496173006576" lon="7.932050624840114"><ele>260.8</ele><time>2026-04-11T08:42:13Z</time></trkpt><trkpt lat="45.11542504449449" lon="7.932144309535886"><ele>259.4</ele><time>2026-04-11T08:42:14Z</time></trkpt><trkpt lat="45.115359867309635" lon="7.932227475015579"><ele>258.0</ele><time>2026-04-11T08:42:15Z</time></trkpt><trkpt lat="45.11528665787098" lon="7.932240441120707"><ele>258.0</ele><time>2026-04-11T08:42:16Z</time></trkpt><trkpt lat="45.1152012647257" lon="7.932214339128807"><ele>258.0</ele><time>2026-04-11T08:42:17Z</time></trkpt><trkpt lat="45.1150861462906" lon="7.932180964409262"><ele>258.0</ele><time>2026-04-11T08:42:18Z</time></trkpt><trkpt lat="45.114974033122046" lon="7.93214542678936"><ele>258.0</ele><time>2026-04-11T08:42:19Z</time></trkpt><trkpt lat="45.1148859043993" lon="7.932099257300288"><ele>258.0</ele><time>2026-04-11T08:42:20Z</time></trkpt><trkpt lat="45.11481100440937" lon="7.932037705296803"><ele>258.3333333333333</ele><time>2026-04-11T08:42:21Z</time></trkpt><trkpt lat="45.11475334845113" lon="7.931976756696598"><ele>258.6666666666667</ele><time>2026-04-11T08:42:22Z</time></trkpt><trkpt lat="45.114645807411954" lon="7.932026102231286"><ele>259.0</ele><time>2026-04-11T08:42:24Z</time></trkpt><trkpt lat="45.114618495489594" lon="7.932120703054669"><ele>259.33333333333337</ele><time>2026-04-11T08:42:25Z</time></trkpt><trkpt lat="45.114639648750114" lon="7.9322373969895565"><ele>259.6666666666667</ele><time>2026-04-11T08:42:26Z</time></trkpt><trkpt lat="45.11471731752549" lon="7.932299235834152"><ele>260.0</ele><time>2026-04-11T08:42:27Z</time></trkpt><trkpt lat="45.11482931617969" lon="7.9322700395252665"><ele>259.5</ele><time>2026-04-11T08:42:28Z</time></trkpt><trkpt lat="45.114944153430216" lon="7.93225154261574"><ele>259.0</ele><time>2026-04-11T08:42:29Z</time></trkpt><trkpt lat="45.11506445298303" lon="7.9322835817624435"><ele>258.5</ele><time>2026-04-11T08:42:30Z</time></trkpt><trkpt lat="45.115155967070756" lon="7.9323970079162684"><ele>258.0</ele><time>2026-04-11T08:42:31Z</time></trkpt><trkpt lat="45.115254154687584" lon="7.932479883533722"><ele>255.75</ele><time>2026-04-11T08:42:32Z</time></trkpt><trkpt lat="45.11535521830215" lon="7.932559009191504"><ele>253.5</ele><time>2026-04-11T08:42:33Z</time></trkpt><trkpt lat="45.115468241219126" lon="7.932611141485488"><ele>251.25</ele><time>2026-04-11T08:42:34Z</time></trkpt><trkpt lat="45.11559232513328" lon="7.932587262942185"><ele>249.0</ele><time>2026-04-11T08:42:35Z</time></trkpt><trkpt lat="45.11569361351619" lon="7.9326513715939235"><ele>248.75</ele><time>2026-04-11T08:42:36Z</time></trkpt><trkpt lat="45.115772706111244" lon="7.932744336492479"><ele>248.5</ele><time>2026-04-11T08:42:37Z</time></trkpt><trkpt lat="45.11583897274126" lon="7.932893170741676"><ele>248.25</ele><time>2026-04-11T08:42:38Z</time></trkpt><trkpt lat="45.11594018529831" lon="7.933035906381516"><ele>248.0</ele><time>2026-04-11T08:42:39Z</time></trkpt><trkpt lat="45.116063833974614" lon="7.933184120260208"><ele>248.0</ele><time>2026-04-11T08:42:40Z</time></trkpt><trkpt lat="45.11619875990041" lon="7.93336523895572"><ele>248.0</ele><time>2026-04-11T08:42:41Z</time></trkpt><trkpt lat="45.116318238595746" lon="7.933559175472957"><ele>248.0</ele><time>2026-04-11T08:42:42Z</time></trkpt><trkpt lat="45.116426837856906" lon="7.933748082767088"><ele>246.33333333333334</ele><time>2026-04-11T08:42:43Z</time></trkpt><trkpt lat="45.11652700021097" lon="7.933935708163904"><ele>244.66666666666669</ele><time>2026-04-11T08:42:44Z</time></trkpt><trkpt lat="45.116618399353804" lon="7.934115855147653"><ele>243.0</ele><time>2026-04-11T08:42:45Z</time></trkpt><trkpt lat="45.1167209916445" lon="7.9342804982161645"><ele>242.5</ele><time>2026-04-11T08:42:46Z</time></trkpt><trkpt lat="45.11679099676435" lon="7.9344520252433695"><ele>242.0</ele><time>2026-04-11T08:42:47Z</time></trkpt><trkpt lat="45.11689635039234" lon="7.934591856267137"><ele>241.5</ele><time>2026-04-11T08:42:48Z</time></trkpt><trkpt lat="45.11701859368108" lon="7.934717826498306"><ele>241.0</ele><time>2026-04-11T08:42:49Z</time></trkpt><trkpt lat="45.11717109234675" lon="7.9348151741385715"><ele>241.0</ele><time>2026-04-11T08:42:50Z</time></trkpt><trkpt lat="45.11732693454596" lon="7.934855164284417"><ele>241.0</ele><time>2026-04-11T08:42:51Z</time></trkpt><trkpt lat="45.11748238388779" lon="7.934829293752952"><ele>241.0</ele><time>2026-04-11T08:42:52Z</time></trkpt><trkpt lat="45.117651399737234" lon="7.934805612421432"><ele>238.66666666666666</ele><time>2026-04-11T08:42:53Z</time></trkpt><trkpt lat="45.11783969892396" lon="7.934824952197115"><ele>236.33333333333331</ele><time>2026-04-11T08:42:54Z</time></trkpt><trkpt lat="45.11802418738377" lon="7.934818105373895"><ele>234.0</ele><time>2026-04-11T08:42:55Z</time></trkpt><trkpt lat="45.118219983505874" lon="7.934791849876008"><ele>234.0</ele><time>2026-04-11T08:42:56Z</time></trkpt><trkpt lat="45.11840617046789" lon="7.934783890080144"><ele>234.0</ele><time>2026-04-11T08:42:57Z</time></trkpt><trkpt lat="45.11857636872706" lon="7.934800031670336"><ele>234.0</ele><time>2026-04-11T08:42:58Z</time></trkpt><trkpt lat="45.11875530851371" lon="7.934774584690681"><ele>234.0</ele><time>2026-04-11T08:42:59Z</time></trkpt><trkpt lat="45.118938140076075" lon="7.9347930879692905"><ele>234.0</ele><time>2026-04-11T08:43:00Z</time></trkpt><trkpt lat="45.11911705357192" lon="7.934786447235576"><ele>234.0</ele><time>2026-04-11T08:43:01Z</time></trkpt><trkpt lat="45.11927710887184" lon="7.9347858994973475"><ele>232.39999999999998</ele><time>2026-04-11T08:43:02Z</time></trkpt><trkpt lat="45.11939706374159" lon="7.93479660699932"><ele>230.79999999999998</ele><time>2026-04-11T08:43:03Z</time></trkpt><trkpt lat="45.11950334138914" lon="7.934839932503166"><ele>229.20000000000002</ele><time>2026-04-11T08:43:04Z</time></trkpt><trkpt lat="45.119587977555895" lon="7.934923457436595"><ele>227.60000000000002</ele><time>2026-04-11T08:43:05Z</time></trkpt><trkpt lat="45.11966282727049" lon="7.93503213564878"><ele>226.0</ele><time>2026-04-11T08:43:06Z</time></trkpt><trkpt lat="45.11971712347318" lon="7.9351621523549625"><ele>226.25</ele><time>2026-04-11T08:43:07Z</time></trkpt><trkpt lat="45.1197438890455" lon="7.935321260927582"><ele>226.5</ele><time>2026-04-11T08:43:08Z</time></trkpt><trkpt lat="45.11974066736618" lon="7.935489688472337"><ele>226.75</ele><time>2026-04-11T08:43:09Z</time></trkpt><trkpt lat="45.1197381007661" lon="7.9356856263314"><ele>227.0</ele><time>2026-04-11T08:43:10Z</time></trkpt><trkpt lat="45.11975913119605" lon="7.935896087343772"><ele>227.0</ele><time>2026-04-11T08:43:11Z</time></trkpt><trkpt lat="45.119782054820654" lon="7.936122297022655"><ele>227.0</ele><time>2026-04-11T08:43:12Z</time></trkpt><trkpt lat="45.11983180998983" lon="7.9363660029334655"><ele>227.0</ele><time>2026-04-11T08:43:13Z</time></trkpt><trkpt lat="45.11987116290056" lon="7.936616137827568"><ele>224.66666666666669</ele><time>2026-04-11T08:43:14Z</time></trkpt><trkpt lat="45.11992526658101" lon="7.936897020759805"><ele>222.33333333333331</ele><time>2026-04-11T08:43:15Z</time></trkpt><trkpt lat="45.12000832323723" lon="7.9371906462810715"><ele>220.0</ele><time>2026-04-11T08:43:16Z</time></trkpt><trkpt lat="45.12007038561447" lon="7.937457391719349"><ele>219.0</ele><time>2026-04-11T08:43:17Z</time></trkpt><trkpt lat="45.12013051055423" lon="7.937705386603201"><ele>218.0</ele><time>2026-04-11T08:43:18Z</time></trkpt><trkpt lat="45.12018949369909" lon="7.9379474091614375"><ele>217.0</ele><time>2026-04-11T08:43:19Z</time></trkpt><trkpt lat="45.12027566251221" lon="7.9382075141641435"><ele>217.0</ele><time>2026-04-11T08:43:20Z</time></trkpt><trkpt lat="45.12039025029816" lon="7.938479992252355"><ele>217.0</ele><time>2026-04-11T08:43:21Z</time></trkpt><trkpt lat="45.12047692467807" lon="7.938768770469923"><ele>217.0</ele><time>2026-04-11T08:43:22Z</time></trkpt><trkpt lat="45.12055641055368" lon="7.939020949562833"><ele>216.75</ele><time>2026-04-11T08:43:23Z</time></trkpt><trkpt lat="45.12061183397846" lon="7.939226035685428"><ele>216.5</ele><time>2026-04-11T08:43:24Z</time></trkpt><trkpt lat="45.1206425392614" lon="7.939392662067164"><ele>216.25</ele><time>2026-04-11T08:43:25Z</time></trkpt><trkpt lat="45.12066769455352" lon="7.939549557668731"><ele>216.0</ele><time>2026-04-11T08:43:26Z</time></trkpt><trkpt lat="45.120688305226004" lon="7.9396808341092955"><ele>216.0</ele><time>2026-04-11T08:43:27Z</time></trkpt><trkpt lat="45.12072077920293" lon="7.939843424183312"><ele>216.0</ele><time>2026-04-11T08:43:29Z</time></trkpt><trkpt lat="45.12072839672787" lon="7.939984935451716"><ele>216.0</ele><time>2026-04-11T08:43:32Z</time></trkpt><trkpt lat="45.120864535806966" lon="7.940003825132417"><ele>216.0</ele><time>2026-04-11T08:43:33Z</time></trkpt><trkpt lat="45.12096777844617" lon="7.940037815009166"><ele>215.66666666666669</ele><time>2026-04-11T08:43:34Z</time></trkpt><trkpt lat="45.121087328119906" lon="7.940076024187691"><ele>215.33333333333334</ele><time>2026-04-11T08:43:35Z</time></trkpt><trkpt lat="45.12122570557037" lon="7.94016074352846"><ele>215.0</ele><time>2026-04-11T08:43:36Z</time></trkpt><trkpt lat="45.12139829353976" lon="7.94023662072442"><ele>214.66666666666669</ele><time>2026-04-11T08:43:37Z</time></trkpt><trkpt lat="45.121582209634624" lon="7.940340894787617"><ele>214.33333333333331</ele><time>2026-04-11T08:43:38Z</time></trkpt><trkpt lat="45.12177977337376" lon="7.940453178153544"><ele>214.0</ele><time>2026-04-11T08:43:39Z</time></trkpt><trkpt lat="45.12195721613609" lon="7.940615829531681"><ele>214.0</ele><time>2026-04-11T08:43:40Z</time></trkpt><trkpt lat="45.122137458820184" lon="7.940785089189256"><ele>214.0</ele><time>2026-04-11T08:43:41Z</time></trkpt><trkpt lat="45.12233177995378" lon="7.94094503351637"><ele>214.0</ele><time>2026-04-11T08:43:42Z</time></trkpt><trkpt lat="45.122517135518805" lon="7.941125035356696"><ele>213.0</ele><time>2026-04-11T08:43:43Z</time></trkpt><trkpt lat="45.12270211571492" lon="7.9412716167799"><ele>212.0</ele><time>2026-04-11T08:43:44Z</time></trkpt><trkpt lat="45.12288983114147" lon="7.941398654866593"><ele>211.0</ele><time>2026-04-11T08:43:45Z</time></trkpt><trkpt lat="45.12307159347914" lon="7.9415045579066685"><ele>210.66666666666666</ele><time>2026-04-11T08:43:46Z</time></trkpt><trkpt lat="45.12324336874447" lon="7.941635778274767"><ele>210.33333333333331</ele><time>2026-04-11T08:43:47Z</time></trkpt><trkpt lat="45.12341460759365" lon="7.941760399314074"><ele>210.0</ele><time>2026-04-11T08:43:48Z</time></trkpt><trkpt lat="45.12358962862916" lon="7.94191350412353"><ele>210.0</ele><time>2026-04-11T08:43:49Z</time></trkpt><trkpt lat="45.12376709168928" lon="7.942105028219881"><ele>210.0</ele><time>2026-04-11T08:43:50Z</time></trkpt><trkpt lat="45.12394364025012" lon="7.942306376043391"><ele>209.33333333333331</ele><time>2026-04-11T08:43:51Z</time></trkpt><trkpt lat="45.12410391064014" lon="7.942481648131457"><ele>208.66666666666666</ele><time>2026-04-11T08:43:52Z</time></trkpt><trkpt lat="45.12427350013814" lon="7.942626880146678"><ele>208.0</ele><time>2026-04-11T08:43:53Z</time></trkpt><trkpt lat="45.12443672173769" lon="7.942798050492427"><ele>208.0</ele><time>2026-04-11T08:43:54Z</time></trkpt><trkpt lat="45.12460440734021" lon="7.9429626001933205"><ele>208.0</ele><time>2026-04-11T08:43:55Z</time></trkpt><trkpt lat="45.124775460727264" lon="7.943104173046367"><ele>208.0</ele><time>2026-04-11T08:43:56Z</time></trkpt><trkpt lat="45.12493125668584" lon="7.943223225831833"><ele>208.0</ele><time>2026-04-11T08:43:57Z</time></trkpt><trkpt lat="45.1250802563257" lon="7.943315499100979"><ele>208.0</ele><time>2026-04-11T08:43:58Z</time></trkpt><trkpt lat="45.125229714401506" lon="7.943388068871677"><ele>208.0</ele><time>2026-04-11T08:43:59Z</time></trkpt><trkpt lat="45.125377327908176" lon="7.943441512370322"><ele>208.0</ele><time>2026-04-11T08:44:00Z</time></trkpt><trkpt lat="45.125526594810474" lon="7.943484457882448"><ele>208.0</ele><time>2026-04-11T08:44:01Z</time></trkpt><trkpt lat="45.125680870968424" lon="7.943506951637873"><ele>208.0</ele><time>2026-04-11T08:44:02Z</time></trkpt><trkpt lat="45.1258357459178" lon="7.943515342166846"><ele>207.66666666666666</ele><time>2026-04-11T08:44:03Z</time></trkpt><trkpt lat="45.12599133473729" lon="7.943519984155666"><ele>207.33333333333331</ele><time>2026-04-11T08:44:04Z</time></trkpt><trkpt lat="45.126147581321774" lon="7.943532279042944"><ele>207.0</ele><time>2026-04-11T08:44:05Z</time></trkpt><trkpt lat="45.1262989225416" lon="7.943551684097238"><ele>207.0</ele><time>2026-04-11T08:44:06Z</time></trkpt><trkpt lat="45.12645333383368" lon="7.943571595983707"><ele>207.0</ele><time>2026-04-11T08:44:07Z</time></trkpt><trkpt lat="45.12660624549018" lon="7.943587933624822"><ele>207.0</ele><time>2026-04-11T08:44:08Z</time></trkpt><trkpt lat="45.126907477243" lon="7.94362287843755"><ele>207.0</ele><time>2026-04-11T08:44:10Z</time></trkpt><trkpt lat="45.127056852281015" lon="7.943640216344721"><ele>207.0</ele><time>2026-04-11T08:44:11Z</time></trkpt><trkpt lat="45.12720370382337" lon="7.94365944231044"><ele>207.0</ele><time>2026-04-11T08:44:12Z</time></trkpt><trkpt lat="45.12734125840357" lon="7.943681983744632"><ele>207.0</ele><time>2026-04-11T08:44:13Z</time></trkpt><trkpt lat="45.127466978725316" lon="7.943694782264433"><ele>207.25</ele><time>2026-04-11T08:44:14Z</time></trkpt><trkpt lat="45.127585694640125" lon="7.943687955198798"><ele>207.5</ele><time>2026-04-11T08:44:15Z</time></trkpt><trkpt lat="45.12769869876949" lon="7.943681312865311"><ele>207.75</ele><time>2026-04-11T08:44:16Z</time></trkpt><trkpt lat="45.127806895599115" lon="7.943659758640409"><ele>208.0</ele><time>2026-04-11T08:44:17Z</time></trkpt><trkpt lat="45.12791968772852" lon="7.943618191233406"><ele>208.0</ele><time>2026-04-11T08:44:18Z</time></trkpt><trkpt lat="45.12803801748955" lon="7.943550616332538"><ele>208.0</ele><time>2026-04-11T08:44:19Z</time></trkpt><trkpt lat="45.128157196470205" lon="7.943479702929216"><ele>208.0</ele><time>2026-04-11T08:44:20Z</time></trkpt><trkpt lat="45.128281073230696" lon="7.943434422799212"><ele>208.0</ele><time>2026-04-11T08:44:21Z</time></trkpt><trkpt lat="45.12839943494163" lon="7.943370461618831"><ele>208.25</ele><time>2026-04-11T08:44:22Z</time></trkpt><trkpt lat="45.128514958777295" lon="7.943308920876639"><ele>208.5</ele><time>2026-04-11T08:44:23Z</time></trkpt><trkpt lat="45.12862653324349" lon="7.943249485965414"><ele>208.75</ele><time>2026-04-11T08:44:24Z</time></trkpt><trkpt lat="45.128743310750465" lon="7.943187277220428"><ele>209.0</ele><time>2026-04-11T08:44:25Z</time></trkpt><trkpt lat="45.12885592649454" lon="7.943107444077775"><ele>209.0</ele><time>2026-04-11T08:44:26Z</time></trkpt><trkpt lat="45.12895951647203" lon="7.943055241747364"><ele>209.0</ele><time>2026-04-11T08:44:27Z</time></trkpt><trkpt lat="45.12905529229946" lon="7.943004523062954"><ele>209.0</ele><time>2026-04-11T08:44:28Z</time></trkpt><trkpt lat="45.129133521474934" lon="7.942972691839997"><ele>209.0</ele><time>2026-04-11T08:44:29Z</time></trkpt><trkpt lat="45.129228045448805" lon="7.942944744670731"><ele>209.0</ele><time>2026-04-11T08:44:31Z</time></trkpt><trkpt lat="45.129308793925894" lon="7.9430426070475795"><ele>208.79999999999998</ele><time>2026-04-11T08:44:33Z</time></trkpt><trkpt lat="45.129296107416735" lon="7.943139202391253"><ele>208.6</ele><time>2026-04-11T08:44:34Z</time></trkpt><trkpt lat="45.129272468848114" lon="7.943231984373858"><ele>208.4</ele><time>2026-04-11T08:44:35Z</time></trkpt><trkpt lat="45.12922086061218" lon="7.943329349706835"><ele>208.2</ele><time>2026-04-11T08:44:36Z</time></trkpt><trkpt lat="45.129157998663956" lon="7.943439167428903"><ele>208.0</ele><time>2026-04-11T08:44:37Z</time></trkpt><trkpt lat="45.129087654032304" lon="7.943588799606509"><ele>208.0</ele><time>2026-04-11T08:44:38Z</time></trkpt><trkpt lat="45.12902907559247" lon="7.943751716980858"><ele>208.0</ele><time>2026-04-11T08:44:39Z</time></trkpt><trkpt lat="45.128973662606114" lon="7.943939214513236"><ele>208.0</ele><time>2026-04-11T08:44:40Z</time></trkpt><trkpt lat="45.12890776477787" lon="7.94415503208238"><ele>208.0</ele><time>2026-04-11T08:44:41Z</time></trkpt><trkpt lat="45.12883939620254" lon="7.944389389245187"><ele>207.66666666666666</ele><time>2026-04-11T08:44:42Z</time></trkpt><trkpt lat="45.1287760991373" lon="7.94461727113505"><ele>207.33333333333331</ele><time>2026-04-11T08:44:43Z</time></trkpt><trkpt lat="45.128712080466485" lon="7.944826641024661"><ele>207.0</ele><time>2026-04-11T08:44:44Z</time></trkpt><trkpt lat="45.12866389696366" lon="7.945020845984657"><ele>206.8</ele><time>2026-04-11T08:44:45Z</time></trkpt><trkpt lat="45.12861918155062" lon="7.945184191385798"><ele>206.6</ele><time>2026-04-11T08:44:46Z</time></trkpt><trkpt lat="45.12858667432709" lon="7.9453059753108395"><ele>206.4</ele><time>2026-04-11T08:44:47Z</time></trkpt><trkpt lat="45.12856651316058" lon="7.945408445584693"><ele>206.20000000000002</ele><time>2026-04-11T08:44:48Z</time></trkpt><trkpt lat="45.12859708334446" lon="7.945627921178383"><ele>206.0</ele><time>2026-04-11T08:44:50Z</time></trkpt><trkpt lat="45.128629157923996" lon="7.945774887709546"><ele>205.75</ele><time>2026-04-11T08:44:51Z</time></trkpt><trkpt lat="45.12866883439009" lon="7.9459450080296135"><ele>205.5</ele><time>2026-04-11T08:44:52Z</time></trkpt><trkpt lat="45.128701648683645" lon="7.946123818770385"><ele>205.25</ele><time>2026-04-11T08:44:53Z</time></trkpt><trkpt lat="45.12873657746992" lon="7.946304034595847"><ele>205.0</ele><time>2026-04-11T08:44:54Z</time></trkpt><trkpt lat="45.128778917514936" lon="7.94649669457607"><ele>205.0</ele><time>2026-04-11T08:44:55Z</time></trkpt><trkpt lat="45.128818682740025" lon="7.9466917166150015"><ele>205.0</ele><time>2026-04-11T08:44:56Z</time></trkpt><trkpt lat="45.12885777000158" lon="7.946886873257517"><ele>205.0</ele><time>2026-04-11T08:44:57Z</time></trkpt><trkpt lat="45.128896071169095" lon="7.947088765918087"><ele>205.0</ele><time>2026-04-11T08:44:58Z</time></trkpt><trkpt lat="45.12892372547901" lon="7.947304585658219"><ele>205.0</ele><time>2026-04-11T08:44:59Z</time></trkpt><trkpt lat="45.1289778121348" lon="7.9474766846957"><ele>205.0</ele><time>2026-04-11T08:45:00Z</time></trkpt><trkpt lat="45.129022083611275" lon="7.947683664416905"><ele>205.0</ele><time>2026-04-11T08:45:01Z</time></trkpt><trkpt lat="45.12907467035101" lon="7.947901001009508"><ele>205.0</ele><time>2026-04-11T08:45:02Z</time></trkpt><trkpt lat="45.12916034313717" lon="7.9481244257718915"><ele>205.33333333333331</ele><time>2026-04-11T08:45:03Z</time></trkpt><trkpt lat="45.12926739783224" lon="7.9483398314517935"><ele>205.66666666666669</ele><time>2026-04-11T08:45:04Z</time></trkpt><trkpt lat="45.12938489185601" lon="7.948546609599454"><ele>206.0</ele><time>2026-04-11T08:45:05Z</time></trkpt><trkpt lat="45.12949124859035" lon="7.948720876140173"><ele>206.0</ele><time>2026-04-11T08:45:06Z</time></trkpt><trkpt lat="45.12959583490104" lon="7.948897766787037"><ele>206.0</ele><time>2026-04-11T08:45:07Z</time></trkpt><trkpt lat="45.12969695023316" lon="7.949082320568069"><ele>206.0</ele><time>2026-04-11T08:45:08Z</time></trkpt><trkpt lat="45.12978213963394" lon="7.949258862662927"><ele>206.0</ele><time>2026-04-11T08:45:09Z</time></trkpt><trkpt lat="45.12986808237385" lon="7.949429932435595"><ele>206.0</ele><time>2026-04-11T08:45:10Z</time></trkpt><trkpt lat="45.1299379270244" lon="7.94961174060444"><ele>206.0</ele><time>2026-04-11T08:45:11Z</time></trkpt><trkpt lat="45.129998558779434" lon="7.949809637544866"><ele>206.0</ele><time>2026-04-11T08:45:12Z</time></trkpt><trkpt lat="45.130037076824586" lon="7.950004967373223"><ele>209.33333333333334</ele><time>2026-04-11T08:45:13Z</time></trkpt><trkpt lat="45.13005033227469" lon="7.950205511818934"><ele>212.66666666666669</ele><time>2026-04-11T08:45:14Z</time></trkpt><trkpt lat="45.13003182355069" lon="7.950409287537111"><ele>216.0</ele><time>2026-04-11T08:45:15Z</time></trkpt><trkpt lat="45.12998125650849" lon="7.950632467732035"><ele>216.0</ele><time>2026-04-11T08:45:16Z</time></trkpt><trkpt lat="45.12993682081108" lon="7.9508522749729424"><ele>216.0</ele><time>2026-04-11T08:45:17Z</time></trkpt><trkpt lat="45.12991214829391" lon="7.951070124936204"><ele>216.0</ele><time>2026-04-11T08:45:18Z</time></trkpt><trkpt lat="45.12990033761732" lon="7.951284389477997"><ele>217.25</ele><time>2026-04-11T08:45:19Z</time></trkpt><trkpt lat="45.12990361020447" lon="7.951472358585445"><ele>218.5</ele><time>2026-04-11T08:45:20Z</time></trkpt><trkpt lat="45.129933613644035" lon="7.951668548794111"><ele>219.75</ele><time>2026-04-11T08:45:21Z</time></trkpt><trkpt lat="45.12997400685657" lon="7.951867443862546"><ele>221.0</ele><time>2026-04-11T08:45:22Z</time></trkpt><trkpt lat="45.1300162257145" lon="7.952077661748141"><ele>221.0</ele><time>2026-04-11T08:45:23Z</time></trkpt><trkpt lat="45.130071698353966" lon="7.952288280453918"><ele>221.0</ele><time>2026-04-11T08:45:24Z</time></trkpt><trkpt lat="45.130151215822366" lon="7.952515170474201"><ele>221.0</ele><time>2026-04-11T08:45:25Z</time></trkpt><trkpt lat="45.130236066361576" lon="7.952762307000793"><ele>220.0</ele><time>2026-04-11T08:45:26Z</time></trkpt><trkpt lat="45.130282743434535" lon="7.953016013311987"><ele>219.0</ele><time>2026-04-11T08:45:27Z</time></trkpt><trkpt lat="45.130340534531776" lon="7.953233994573281"><ele>218.0</ele><time>2026-04-11T08:45:28Z</time></trkpt><trkpt lat="45.13036260957949" lon="7.95344533269142"><ele>217.0</ele><time>2026-04-11T08:45:29Z</time></trkpt><trkpt lat="45.13038739211879" lon="7.953652744679991"><ele>216.0</ele><time>2026-04-11T08:45:30Z</time></trkpt><trkpt lat="45.13042893890287" lon="7.953854986612126"><ele>215.0</ele><time>2026-04-11T08:45:31Z</time></trkpt><trkpt lat="45.13048992880313" lon="7.954035220132574"><ele>214.0</ele><time>2026-04-11T08:45:32Z</time></trkpt><trkpt lat="45.130553566742485" lon="7.954188327952355"><ele>213.83333333333331</ele><time>2026-04-11T08:45:33Z</time></trkpt><trkpt lat="45.130612156461495" lon="7.954317746302132"><ele>213.66666666666666</ele><time>2026-04-11T08:45:34Z</time></trkpt><trkpt lat="45.13065093428373" lon="7.954421330274527"><ele>213.5</ele><time>2026-04-11T08:45:35Z</time></trkpt><trkpt lat="45.130656121535445" lon="7.954514679192716"><ele>213.33333333333331</ele><time>2026-04-11T08:45:36Z</time></trkpt><trkpt lat="45.13062612809841" lon="7.954626545443531"><ele>213.16666666666666</ele><time>2026-04-11T08:45:37Z</time></trkpt><trkpt lat="45.13062577561072" lon="7.954775288864164"><ele>213.0</ele><time>2026-04-11T08:45:38Z</time></trkpt><trkpt lat="45.130622528949814" lon="7.954908947211182"><ele>213.0</ele><time>2026-04-11T08:45:39Z</time></trkpt><trkpt lat="45.13063582851858" lon="7.955029644577118"><ele>213.0</ele><time>2026-04-11T08:45:40Z</time></trkpt><trkpt lat="45.13063474713679" lon="7.955164954484576"><ele>213.0</ele><time>2026-04-11T08:45:41Z</time></trkpt><trkpt lat="45.13059418397999" lon="7.95529166930505"><ele>213.0</ele><time>2026-04-11T08:45:42Z</time></trkpt><trkpt lat="45.13052389396157" lon="7.955407578333481"><ele>213.0</ele><time>2026-04-11T08:45:43Z</time></trkpt><trkpt lat="45.130435739766995" lon="7.955482804200281"><ele>212.8</ele><time>2026-04-11T08:45:44Z</time></trkpt><trkpt lat="45.130350049461384" lon="7.955538000318415"><ele>212.60000000000002</ele><time>2026-04-11T08:45:45Z</time></trkpt><trkpt lat="45.130276109870756" lon="7.955610215237919"><ele>212.39999999999998</ele><time>2026-04-11T08:45:46Z</time></trkpt><trkpt lat="45.1302304535494" lon="7.9557339933472"><ele>212.2</ele><time>2026-04-11T08:45:47Z</time></trkpt><trkpt lat="45.130207746939114" lon="7.95587795308161"><ele>212.0</ele><time>2026-04-11T08:45:48Z</time></trkpt><trkpt lat="45.13021984172584" lon="7.9560392549392835"><ele>212.0</ele><time>2026-04-11T08:45:49Z</time></trkpt><trkpt lat="45.130252998087734" lon="7.9562405706115715"><ele>212.0</ele><time>2026-04-11T08:45:50Z</time></trkpt><trkpt lat="45.13029642637986" lon="7.9565096597477165"><ele>212.0</ele><time>2026-04-11T08:45:51Z</time></trkpt><trkpt lat="45.13033798327097" lon="7.956808013637316"><ele>213.33333333333334</ele><time>2026-04-11T08:45:52Z</time></trkpt><trkpt lat="45.13038369247714" lon="7.957101748612858"><ele>214.66666666666669</ele><time>2026-04-11T08:45:53Z</time></trkpt><trkpt lat="45.13042925109274" lon="7.957359961551989"><ele>216.0</ele><time>2026-04-11T08:45:54Z</time></trkpt><trkpt lat="45.13045487124207" lon="7.95761208361277"><ele>217.0</ele><time>2026-04-11T08:45:55Z</time></trkpt><trkpt lat="45.13049457336851" lon="7.9578644026636765"><ele>218.0</ele><time>2026-04-11T08:45:56Z</time></trkpt><trkpt lat="45.13053095722623" lon="7.9581183434339575"><ele>219.0</ele><time>2026-04-11T08:45:57Z</time></trkpt><trkpt lat="45.13049402922127" lon="7.95836738904578"><ele>221.0</ele><time>2026-04-11T08:45:58Z</time></trkpt><trkpt lat="45.13045135582446" lon="7.9586070194616765"><ele>223.0</ele><time>2026-04-11T08:45:59Z</time></trkpt><trkpt lat="45.130423848262296" lon="7.958842645294441"><ele>225.0</ele><time>2026-04-11T08:46:00Z</time></trkpt><trkpt lat="45.13040678144829" lon="7.959105666613387"><ele>227.0</ele><time>2026-04-11T08:46:01Z</time></trkpt><trkpt lat="45.130420106207694" lon="7.959399299940152"><ele>229.0</ele><time>2026-04-11T08:46:02Z</time></trkpt><trkpt lat="45.13042305360458" lon="7.959724939814683"><ele>231.0</ele><time>2026-04-11T08:46:03Z</time></trkpt><trkpt lat="45.13041182537999" lon="7.960006081065222"><ele>232.0</ele><time>2026-04-11T08:46:04Z</time></trkpt><trkpt lat="45.13038839503606" lon="7.960227328423462"><ele>233.0</ele><time>2026-04-11T08:46:05Z</time></trkpt><trkpt lat="45.13036843234582" lon="7.9604217388642695"><ele>234.0</ele><time>2026-04-11T08:46:06Z</time></trkpt><trkpt lat="45.13035571348277" lon="7.960615062161747"><ele>235.0</ele><time>2026-04-11T08:46:07Z</time></trkpt><trkpt lat="45.130345617334704" lon="7.960800950512821"><ele>235.75</ele><time>2026-04-11T08:46:08Z</time></trkpt><trkpt lat="45.13035106258595" lon="7.9609630191719"><ele>236.5</ele><time>2026-04-11T08:46:09Z</time></trkpt><trkpt lat="45.13036993974661" lon="7.961127900684728"><ele>237.25</ele><time>2026-04-11T08:46:10Z</time></trkpt><trkpt lat="45.13041324248526" lon="7.961320148022488"><ele>238.0</ele><time>2026-04-11T08:46:11Z</time></trkpt><trkpt lat="45.13048237133368" lon="7.961543851787158"><ele>239.33333333333331</ele><time>2026-04-11T08:46:12Z</time></trkpt><trkpt lat="45.13055423397145" lon="7.961780281734729"><ele>240.66666666666669</ele><time>2026-04-11T08:46:13Z</time></trkpt><trkpt lat="45.1306330763937" lon="7.962022148851693"><ele>242.0</ele><time>2026-04-11T08:46:14Z</time></trkpt><trkpt lat="45.13071172013033" lon="7.962262867235413"><ele>245.25</ele><time>2026-04-11T08:46:15Z</time></trkpt><trkpt lat="45.13078162195713" lon="7.962498294489645"><ele>248.5</ele><time>2026-04-11T08:46:16Z</time></trkpt><trkpt lat="45.13083830426788" lon="7.962689528158776"><ele>251.75</ele><time>2026-04-11T08:46:17Z</time></trkpt><trkpt lat="45.130891304920155" lon="7.9628418618080685"><ele>255.0</ele><time>2026-04-11T08:46:18Z</time></trkpt><trkpt lat="45.13092553817577" lon="7.962984413369151"><ele>256.5</ele><time>2026-04-11T08:46:19Z</time></trkpt><trkpt lat="45.130945890757495" lon="7.963123943334104"><ele>258.0</ele><time>2026-04-11T08:46:20Z</time></trkpt><trkpt lat="45.13094013762889" lon="7.963259200068754"><ele>259.5</ele><time>2026-04-11T08:46:21Z</time></trkpt><trkpt lat="45.13090750156901" lon="7.963427961988683"><ele>261.0</ele><time>2026-04-11T08:46:22Z</time></trkpt><trkpt lat="45.13085872156887" lon="7.9636262119326755"><ele>263.0</ele><time>2026-04-11T08:46:23Z</time></trkpt><trkpt lat="45.130797466942774" lon="7.963864757625364"><ele>265.0</ele><time>2026-04-11T08:46:24Z</time></trkpt><trkpt lat="45.13075013621786" lon="7.964131386722732"><ele>267.0</ele><time>2026-04-11T08:46:25Z</time></trkpt><trkpt lat="45.130676969741465" lon="7.964421750727965"><ele>267.0</ele><time>2026-04-11T08:46:26Z</time></trkpt><trkpt lat="45.130608735678074" lon="7.964729606994395"><ele>267.0</ele><time>2026-04-11T08:46:27Z</time></trkpt><trkpt lat="45.13054047170803" lon="7.9650255857695855"><ele>267.0</ele><time>2026-04-11T08:46:28Z</time></trkpt><trkpt lat="45.130484510580416" lon="7.96528032461366"><ele>270.0</ele><time>2026-04-11T08:46:29Z</time></trkpt><trkpt lat="45.130432323641394" lon="7.965496268198307"><ele>273.0</ele><time>2026-04-11T08:46:30Z</time></trkpt><trkpt lat="45.130384308132186" lon="7.965694357110988"><ele>276.0</ele><time>2026-04-11T08:46:31Z</time></trkpt><trkpt lat="45.13033501134297" lon="7.965903789109577"><ele>280.0</ele><time>2026-04-11T08:46:32Z</time></trkpt><trkpt lat="45.130292504980524" lon="7.966137636908949"><ele>284.0</ele><time>2026-04-11T08:46:33Z</time></trkpt><trkpt lat="45.130263067689405" lon="7.966386270225302"><ele>288.0</ele><time>2026-04-11T08:46:34Z</time></trkpt><trkpt lat="45.13024679672769" lon="7.966634169740483"><ele>291.6666666666667</ele><time>2026-04-11T08:46:35Z</time></trkpt><trkpt lat="45.130242192320736" lon="7.96687162515321"><ele>295.33333333333337</ele><time>2026-04-11T08:46:36Z</time></trkpt><trkpt lat="45.13024590549826" lon="7.967100404391958"><ele>299.0</ele><time>2026-04-11T08:46:37Z</time></trkpt><trkpt lat="45.130250758039935" lon="7.967326175745844"><ele>302.0</ele><time>2026-04-11T08:46:38Z</time></trkpt><trkpt lat="45.130227903075806" lon="7.967551184323186"><ele>305.0</ele><time>2026-04-11T08:46:39Z</time></trkpt><trkpt lat="45.13015822778561" lon="7.967784628267694"><ele>308.0</ele><time>2026-04-11T08:46:40Z</time></trkpt><trkpt lat="45.13011180980944" lon="7.968039308781461"><ele>308.0</ele><time>2026-04-11T08:46:41Z</time></trkpt><trkpt lat="45.130055181539824" lon="7.968260735834676"><ele>308.0</ele><time>2026-04-11T08:46:42Z</time></trkpt><trkpt lat="45.129996458218564" lon="7.968455997493748"><ele>308.0</ele><time>2026-04-11T08:46:43Z</time></trkpt><trkpt lat="45.12992914288513" lon="7.9686460700340485"><ele>306.75</ele><time>2026-04-11T08:46:44Z</time></trkpt><trkpt lat="45.12986460170243" lon="7.968843834963568"><ele>305.5</ele><time>2026-04-11T08:46:45Z</time></trkpt><trkpt lat="45.1298162868551" lon="7.969033972461269"><ele>304.25</ele><time>2026-04-11T08:46:46Z</time></trkpt><trkpt lat="45.12979257174392" lon="7.969235906522045"><ele>303.0</ele><time>2026-04-11T08:46:47Z</time></trkpt><trkpt lat="45.12979246644115" lon="7.96945574145668"><ele>306.3333333333333</ele><time>2026-04-11T08:46:48Z</time></trkpt><trkpt lat="45.129820554603626" lon="7.969685793442105"><ele>309.66666666666663</ele><time>2026-04-11T08:46:49Z</time></trkpt><trkpt lat="45.129864683134905" lon="7.969897565485664"><ele>313.0</ele><time>2026-04-11T08:46:50Z</time></trkpt><trkpt lat="45.129903857309664" lon="7.970071842527995"><ele>313.4</ele><time>2026-04-11T08:46:51Z</time></trkpt><trkpt lat="45.12992013199771" lon="7.970221448076232"><ele>313.8</ele><time>2026-04-11T08:46:52Z</time></trkpt><trkpt lat="45.129915504363325" lon="7.970362927760874"><ele>314.2</ele><time>2026-04-11T08:46:53Z</time></trkpt><trkpt lat="45.12988728892608" lon="7.970481918700138"><ele>314.6</ele><time>2026-04-11T08:46:54Z</time></trkpt><trkpt lat="45.129837073509755" lon="7.970605477661331"><ele>315.0</ele><time>2026-04-11T08:46:55Z</time></trkpt><trkpt lat="45.12976769256851" lon="7.970750853037192"><ele>317.0</ele><time>2026-04-11T08:46:56Z</time></trkpt><trkpt lat="45.12972178673058" lon="7.970891567122871"><ele>319.0</ele><time>2026-04-11T08:46:57Z</time></trkpt><trkpt lat="45.12968999797237" lon="7.971034397538988"><ele>321.0</ele><time>2026-04-11T08:46:58Z</time></trkpt><trkpt lat="45.129668008950084" lon="7.971193539818989"><ele>323.0</ele><time>2026-04-11T08:46:59Z</time></trkpt><trkpt lat="45.129659353434064" lon="7.971349969642897"><ele>325.0</ele><time>2026-04-11T08:47:00Z</time></trkpt><trkpt lat="45.1296672693789" lon="7.971497520083812"><ele>325.0</ele><time>2026-04-11T08:47:01Z</time></trkpt><trkpt lat="45.129689903079175" lon="7.971646045753543"><ele>325.0</ele><time>2026-04-11T08:47:02Z</time></trkpt><trkpt lat="45.129716760174915" lon="7.971791471567647"><ele>325.0</ele><time>2026-04-11T08:47:03Z</time></trkpt><trkpt lat="45.129707385187885" lon="7.9719282064897286"><ele>325.0</ele><time>2026-04-11T08:47:04Z</time></trkpt><trkpt lat="45.12966426905227" lon="7.972071010949537"><ele>325.0</ele><time>2026-04-11T08:47:05Z</time></trkpt><trkpt lat="45.129565491997795" lon="7.972232586962914"><ele>330.3333333333333</ele><time>2026-04-11T08:47:06Z</time></trkpt><trkpt lat="45.129465871464234" lon="7.972435452665827"><ele>335.6666666666667</ele><time>2026-04-11T08:47:07Z</time></trkpt><trkpt lat="45.129374428566535" lon="7.972638907986528"><ele>341.0</ele><time>2026-04-11T08:47:08Z</time></trkpt><trkpt lat="45.12929701485707" lon="7.972800294052768"><ele>341.0</ele><time>2026-04-11T08:47:09Z</time></trkpt><trkpt lat="45.129233173575315" lon="7.972932471705561"><ele>341.0</ele><time>2026-04-11T08:47:10Z</time></trkpt><trkpt lat="45.12918074496725" lon="7.973027300382866"><ele>341.0</ele><time>2026-04-11T08:47:11Z</time></trkpt><trkpt lat="45.129101519526394" lon="7.973096426134322"><ele>341.0</ele><time>2026-04-11T08:47:12Z</time></trkpt><trkpt lat="45.12901553243605" lon="7.973117170115094"><ele>341.0</ele><time>2026-04-11T08:47:13Z</time></trkpt><trkpt lat="45.128914687520016" lon="7.973121174766283"><ele>341.0</ele><time>2026-04-11T08:47:14Z</time></trkpt><trkpt lat="45.12881377982826" lon="7.973122896352533"><ele>341.0</ele><time>2026-04-11T08:47:15Z</time></trkpt><trkpt lat="45.12872664959162" lon="7.973158427228596"><ele>341.0</ele><time>2026-04-11T08:47:16Z</time></trkpt><trkpt lat="45.128662206166624" lon="7.973243819988326"><ele>341.0</ele><time>2026-04-11T08:47:17Z</time></trkpt><trkpt lat="45.12861929361587" lon="7.973356708016164"><ele>341.0</ele><time>2026-04-11T08:47:18Z</time></trkpt><trkpt lat="45.12860341534034" lon="7.973482655001013"><ele>342.25</ele><time>2026-04-11T08:47:19Z</time></trkpt><trkpt lat="45.12859744439294" lon="7.973647842576268"><ele>343.5</ele><time>2026-04-11T08:47:20Z</time></trkpt><trkpt lat="45.12859070503157" lon="7.97383778461217"><ele>344.75</ele><time>2026-04-11T08:47:21Z</time></trkpt><trkpt lat="45.12858301736817" lon="7.974017844529749"><ele>346.0</ele><time>2026-04-11T08:47:22Z</time></trkpt><trkpt lat="45.12857328049626" lon="7.974183056876892"><ele>347.8</ele><time>2026-04-11T08:47:23Z</time></trkpt><trkpt lat="45.128537714098066" lon="7.974327109469325"><ele>349.6</ele><time>2026-04-11T08:47:24Z</time></trkpt><trkpt lat="45.12845669563009" lon="7.974446016915421"><ele>351.4</ele><time>2026-04-11T08:47:25Z</time></trkpt><trkpt lat="45.12839961313672" lon="7.974582978350373"><ele>353.2</ele><time>2026-04-11T08:47:26Z</time></trkpt><trkpt lat="45.12837157079988" lon="7.974707650676672"><ele>355.0</ele><time>2026-04-11T08:47:27Z</time></trkpt><trkpt lat="45.12840111161044" lon="7.974851496220555"><ele>355.0</ele><time>2026-04-11T08:47:28Z</time></trkpt><trkpt lat="45.12844768086407" lon="7.975009865851358"><ele>355.0</ele><time>2026-04-11T08:47:29Z</time></trkpt><trkpt lat="45.12851326257074" lon="7.975153863676024"><ele>355.0</ele><time>2026-04-11T08:47:30Z</time></trkpt><trkpt lat="45.128598208643304" lon="7.975270713711878"><ele>355.0</ele><time>2026-04-11T08:47:31Z</time></trkpt><trkpt lat="45.12867659811644" lon="7.975369748798043"><ele>356.6</ele><time>2026-04-11T08:47:32Z</time></trkpt><trkpt lat="45.128750152763665" lon="7.975430122477012"><ele>358.2</ele><time>2026-04-11T08:47:33Z</time></trkpt><trkpt lat="45.12877864783272" lon="7.975541350727486"><ele>359.79999999999995</ele><time>2026-04-11T08:47:34Z</time></trkpt><trkpt lat="45.12877100854442" lon="7.9756706906688954"><ele>361.4</ele><time>2026-04-11T08:47:35Z</time></trkpt><trkpt lat="45.12872147139929" lon="7.975780491248965"><ele>363.0</ele><time>2026-04-11T08:47:36Z</time></trkpt><trkpt lat="45.1286437962601" lon="7.975909094509434"><ele>369.0</ele><time>2026-04-11T08:47:37Z</time></trkpt><trkpt lat="45.12858420862308" lon="7.976057082296692"><ele>375.0</ele><time>2026-04-11T08:47:38Z</time></trkpt><trkpt lat="45.12849870462601" lon="7.976200911729516"><ele>381.0</ele><time>2026-04-11T08:47:39Z</time></trkpt><trkpt lat="45.128390256575635" lon="7.976289881974713"><ele>387.0</ele><time>2026-04-11T08:47:40Z</time></trkpt><trkpt lat="45.12826559384803" lon="7.976322147106055"><ele>385.25</ele><time>2026-04-11T08:47:41Z</time></trkpt><trkpt lat="45.1281265394384" lon="7.976313230963251"><ele>383.5</ele><time>2026-04-11T08:47:42Z</time></trkpt><trkpt lat="45.128006767924184" lon="7.976286453961363"><ele>381.75</ele><time>2026-04-11T08:47:43Z</time></trkpt><trkpt lat="45.127899240219165" lon="7.976281233288742"><ele>380.0</ele><time>2026-04-11T08:47:44Z</time></trkpt><trkpt lat="45.12779342523936" lon="7.9763455092088265"><ele>380.0</ele><time>2026-04-11T08:47:45Z</time></trkpt><trkpt lat="45.12769718832063" lon="7.976445735964694"><ele>380.0</ele><time>2026-04-11T08:47:46Z</time></trkpt><trkpt lat="45.12758477284978" lon="7.976527806464611"><ele>380.0</ele><time>2026-04-11T08:47:47Z</time></trkpt><trkpt lat="45.12746938973259" lon="7.976520626480683"><ele>380.0</ele><time>2026-04-11T08:47:48Z</time></trkpt><trkpt lat="45.12736475113363" lon="7.976498413044611"><ele>373.5</ele><time>2026-04-11T08:47:49Z</time></trkpt><trkpt lat="45.12726939105978" lon="7.976516131015777"><ele>367.0</ele><time>2026-04-11T08:47:50Z</time></trkpt><trkpt lat="45.12718532517605" lon="7.97657065899323"><ele>360.5</ele><time>2026-04-11T08:47:51Z</time></trkpt><trkpt lat="45.12713926341134" lon="7.976716068503957"><ele>354.0</ele><time>2026-04-11T08:47:52Z</time></trkpt><trkpt lat="45.12718428619423" lon="7.976938362043655"><ele>353.0</ele><time>2026-04-11T08:47:53Z</time></trkpt><trkpt lat="45.12722745484443" lon="7.977182744009578"><ele>352.0</ele><time>2026-04-11T08:47:54Z</time></trkpt><trkpt lat="45.1271856222331" lon="7.977058945984103"><ele>351.0</ele><time>2026-04-11T08:47:55Z</time></trkpt><trkpt lat="45.12724301440573" lon="7.9772658621391805"><ele>350.0</ele><time>2026-04-11T08:47:56Z</time></trkpt><trkpt lat="45.12727167854814" lon="7.977479576088204"><ele>352.5</ele><time>2026-04-11T08:47:57Z</time></trkpt><trkpt lat="45.12724553133936" lon="7.977680011344709"><ele>355.0</ele><time>2026-04-11T08:47:58Z</time></trkpt><trkpt lat="45.12720641122102" lon="7.977877743766508"><ele>357.5</ele><time>2026-04-11T08:47:59Z</time></trkpt><trkpt lat="45.12719360342853" lon="7.978095038929726"><ele>360.0</ele><time>2026-04-11T08:48:00Z</time></trkpt><trkpt lat="45.12719849861314" lon="7.978323391369776"><ele>363.5</ele><time>2026-04-11T08:48:01Z</time></trkpt><trkpt lat="45.127220737911486" lon="7.978542715848872"><ele>367.0</ele><time>2026-04-11T08:48:02Z</time></trkpt><trkpt lat="45.12720581503141" lon="7.978751497027555"><ele>370.5</ele><time>2026-04-11T08:48:03Z</time></trkpt><trkpt lat="45.127200936233834" lon="7.978918526852209"><ele>374.0</ele><time>2026-04-11T08:48:04Z</time></trkpt><trkpt lat="45.12717800909" lon="7.979064455489397"><ele>372.0</ele><time>2026-04-11T08:48:05Z</time></trkpt><trkpt lat="45.12712413450395" lon="7.979190519447668"><ele>370.0</ele><time>2026-04-11T08:48:06Z</time></trkpt><trkpt lat="45.12703513047956" lon="7.97928762174195"><ele>368.0</ele><time>2026-04-11T08:48:07Z</time></trkpt><trkpt lat="45.12693064706053" lon="7.979346814370666"><ele>366.0</ele><time>2026-04-11T08:48:08Z</time></trkpt><trkpt lat="45.12680982573267" lon="7.979351585398411"><ele>366.0</ele><time>2026-04-11T08:48:09Z</time></trkpt><trkpt lat="45.12666127094076" lon="7.979311691951336"><ele>366.0</ele><time>2026-04-11T08:48:10Z</time></trkpt><trkpt lat="45.126500877631216" lon="7.979241749877289"><ele>366.0</ele><time>2026-04-11T08:48:11Z</time></trkpt><trkpt lat="45.12633297265788" lon="7.97916107989949"><ele>370.3333333333333</ele><time>2026-04-11T08:48:12Z</time></trkpt><trkpt lat="45.1261588671947" lon="7.979104801994223"><ele>374.66666666666663</ele><time>2026-04-11T08:48:13Z</time></trkpt><trkpt lat="45.12602065891743" lon="7.979050679498417"><ele>379.0</ele><time>2026-04-11T08:48:14Z</time></trkpt><trkpt lat="45.12587388180722" lon="7.979041063636954"><ele>383.3333333333333</ele><time>2026-04-11T08:48:15Z</time></trkpt><trkpt lat="45.1257035908434" lon="7.979086897199921"><ele>387.66666666666663</ele><time>2026-04-11T08:48:16Z</time></trkpt><trkpt lat="45.12552727972143" lon="7.97915722874359"><ele>392.0</ele><time>2026-04-11T08:48:17Z</time></trkpt><trkpt lat="45.12535949952072" lon="7.979226727974365"><ele>394.3333333333333</ele><time>2026-04-11T08:48:18Z</time></trkpt><trkpt lat="45.125172181066176" lon="7.9792927068081925"><ele>396.66666666666663</ele><time>2026-04-11T08:48:19Z</time></trkpt><trkpt lat="45.125008439246116" lon="7.97937465594695"><ele>399.0</ele><time>2026-04-11T08:48:20Z</time></trkpt><trkpt lat="45.12483469072208" lon="7.979479990197702"><ele>399.25</ele><time>2026-04-11T08:48:21Z</time></trkpt><trkpt lat="45.12467530909143" lon="7.979571414597642"><ele>399.5</ele><time>2026-04-11T08:48:22Z</time></trkpt><trkpt lat="45.12455104389373" lon="7.979638220500236"><ele>399.75</ele><time>2026-04-11T08:48:23Z</time></trkpt><trkpt lat="45.124439124652646" lon="7.979689762315402"><ele>400.0</ele><time>2026-04-11T08:48:24Z</time></trkpt><trkpt lat="45.12432962070419" lon="7.979764889397711"><ele>400.0</ele><time>2026-04-11T08:48:25Z</time></trkpt><trkpt lat="45.12422488463863" lon="7.979874093516456"><ele>400.0</ele><time>2026-04-11T08:48:26Z</time></trkpt><trkpt lat="45.12411234472261" lon="7.980029844147384"><ele>400.0</ele><time>2026-04-11T08:48:27Z</time></trkpt><trkpt lat="45.12396304730832" lon="7.980190234902964"><ele>399.6666666666667</ele><time>2026-04-11T08:48:28Z</time></trkpt><trkpt lat="45.12379797340749" lon="7.980317649542665"><ele>399.33333333333337</ele><time>2026-04-11T08:48:29Z</time></trkpt><trkpt lat="45.12362274520148" lon="7.9804222413764725"><ele>399.0</ele><time>2026-04-11T08:48:30Z</time></trkpt><trkpt lat="45.12345901941607" lon="7.980501755275584"><ele>399.0</ele><time>2026-04-11T08:48:31Z</time></trkpt><trkpt lat="45.123306212881324" lon="7.98056389482226"><ele>399.0</ele><time>2026-04-11T08:48:32Z</time></trkpt><trkpt lat="45.123165068925594" lon="7.980617720251725"><ele>399.0</ele><time>2026-04-11T08:48:33Z</time></trkpt><trkpt lat="45.123039479964085" lon="7.980663660408901"><ele>399.0</ele><time>2026-04-11T08:48:34Z</time></trkpt><trkpt lat="45.12291281429396" lon="7.9807357314641765"><ele>397.0</ele><time>2026-04-11T08:48:35Z</time></trkpt><trkpt lat="45.12278293491482" lon="7.98085207217709"><ele>395.0</ele><time>2026-04-11T08:48:36Z</time></trkpt><trkpt lat="45.12265810504242" lon="7.980975077824845"><ele>393.0</ele><time>2026-04-11T08:48:37Z</time></trkpt><trkpt lat="45.12253970630967" lon="7.981092430407559"><ele>393.0</ele><time>2026-04-11T08:48:38Z</time></trkpt><trkpt lat="45.12244073829955" lon="7.981187526143214"><ele>393.0</ele><time>2026-04-11T08:48:39Z</time></trkpt><trkpt lat="45.12235819909993" lon="7.9812587803847395"><ele>393.0</ele><time>2026-04-11T08:48:40Z</time></trkpt><trkpt lat="45.12229277766547" lon="7.981337285930879"><ele>393.0</ele><time>2026-04-11T08:48:41Z</time></trkpt><trkpt lat="45.12224199140597" lon="7.9814165419775485"><ele>393.0</ele><time>2026-04-11T08:48:42Z</time></trkpt><trkpt lat="45.122208051128254" lon="7.981502344461878"><ele>393.0</ele><time>2026-04-11T08:48:43Z</time></trkpt><trkpt lat="45.122172614410495" lon="7.981614730489728"><ele>390.5</ele><time>2026-04-11T08:48:44Z</time></trkpt><trkpt lat="45.122133380249664" lon="7.981765439575829"><ele>388.0</ele><time>2026-04-11T08:48:45Z</time></trkpt><trkpt lat="45.122099421142" lon="7.9819276182575525"><ele>385.5</ele><time>2026-04-11T08:48:46Z</time></trkpt><trkpt lat="45.1220622744028" lon="7.982092490640499"><ele>383.0</ele><time>2026-04-11T08:48:47Z</time></trkpt><trkpt lat="45.12201510089812" lon="7.982254696393109"><ele>383.0</ele><time>2026-04-11T08:48:48Z</time></trkpt><trkpt lat="45.12192750052821" lon="7.982386998101447"><ele>383.0</ele><time>2026-04-11T08:48:49Z</time></trkpt><trkpt lat="45.12183813363071" lon="7.98251872940158"><ele>383.0</ele><time>2026-04-11T08:48:50Z</time></trkpt><trkpt lat="45.12173019583141" lon="7.982629875414218"><ele>383.0</ele><time>2026-04-11T08:48:51Z</time></trkpt><trkpt lat="45.12160674671969" lon="7.982720196705071"><ele>386.0</ele><time>2026-04-11T08:48:52Z</time></trkpt><trkpt lat="45.1214725632427" lon="7.982783546016507"><ele>389.0</ele><time>2026-04-11T08:48:53Z</time></trkpt><trkpt lat="45.12131683354522" lon="7.98282088110741"><ele>392.0</ele><time>2026-04-11T08:48:54Z</time></trkpt><trkpt lat="45.12116798177335" lon="7.982810180186539"><ele>395.0</ele><time>2026-04-11T08:48:55Z</time></trkpt><trkpt lat="45.121021270887624" lon="7.98277649002747"><ele>395.0</ele><time>2026-04-11T08:48:56Z</time></trkpt><trkpt lat="45.12088129073693" lon="7.982759364148675"><ele>395.0</ele><time>2026-04-11T08:48:57Z</time></trkpt><trkpt lat="45.120759566724765" lon="7.98273476986553"><ele>395.0</ele><time>2026-04-11T08:48:58Z</time></trkpt><trkpt lat="45.12065053202954" lon="7.982730342097192"><ele>395.0</ele><time>2026-04-11T08:48:59Z</time></trkpt><trkpt lat="45.12054677308671" lon="7.982754397048068"><ele>397.5</ele><time>2026-04-11T08:49:00Z</time></trkpt><trkpt lat="45.120433547664966" lon="7.982794744705753"><ele>400.0</ele><time>2026-04-11T08:49:01Z</time></trkpt><trkpt lat="45.120325572590325" lon="7.982857562190845"><ele>402.5</ele><time>2026-04-11T08:49:02Z</time></trkpt><trkpt lat="45.12022862543909" lon="7.982947643845311"><ele>405.0</ele><time>2026-04-11T08:49:03Z</time></trkpt><trkpt lat="45.1201324376753" lon="7.983048018328789"><ele>405.0</ele><time>2026-04-11T08:49:04Z</time></trkpt><trkpt lat="45.12004069934019" lon="7.983162786245594"><ele>405.0</ele><time>2026-04-11T08:49:05Z</time></trkpt><trkpt lat="45.119966339687664" lon="7.983302557624007"><ele>405.0</ele><time>2026-04-11T08:49:06Z</time></trkpt><trkpt lat="45.11989313351571" lon="7.983481012659966"><ele>405.0</ele><time>2026-04-11T08:49:07Z</time></trkpt><trkpt lat="45.11981679229384" lon="7.983676602856109"><ele>407.0</ele><time>2026-04-11T08:49:08Z</time></trkpt><trkpt lat="45.119751751993434" lon="7.983845092617028"><ele>409.0</ele><time>2026-04-11T08:49:09Z</time></trkpt><trkpt lat="45.119689209698016" lon="7.983985285498338"><ele>411.0</ele><time>2026-04-11T08:49:10Z</time></trkpt><trkpt lat="45.11964044631222" lon="7.984124867968304"><ele>413.0</ele><time>2026-04-11T08:49:11Z</time></trkpt><trkpt lat="45.11958440701589" lon="7.984251189377826"><ele>415.49999999999994</ele><time>2026-04-11T08:49:12Z</time></trkpt><trkpt lat="45.119526946115464" lon="7.984349532948802"><ele>418.0</ele><time>2026-04-11T08:49:13Z</time></trkpt><trkpt lat="45.11948296672279" lon="7.984422727840204"><ele>420.5</ele><time>2026-04-11T08:49:14Z</time></trkpt><trkpt lat="45.11941471213408" lon="7.984476205901771"><ele>423.0</ele><time>2026-04-11T08:49:16Z</time></trkpt><trkpt lat="45.119355616650715" lon="7.984540052693606"><ele>425.49999999999994</ele><time>2026-04-11T08:49:18Z</time></trkpt><trkpt lat="45.119350610293864" lon="7.984682895562076"><ele>428.0</ele><time>2026-04-11T08:49:19Z</time></trkpt><trkpt lat="45.11930414545722" lon="7.984767853100714"><ele>428.0</ele><time>2026-04-11T08:49:20Z</time></trkpt><trkpt lat="45.11926094673876" lon="7.9848547228172935"><ele>427.99999999999994</ele><time>2026-04-11T08:49:21Z</time></trkpt><trkpt lat="45.11920997695496" lon="7.984955775852607"><ele>427.99999999999994</ele><time>2026-04-11T08:49:22Z</time></trkpt><trkpt lat="45.119160611922" lon="7.985071253197274"><ele>428.0</ele><time>2026-04-11T08:49:23Z</time></trkpt><trkpt lat="45.11912937775848" lon="7.985207744914015"><ele>428.0</ele><time>2026-04-11T08:49:24Z</time></trkpt><trkpt lat="45.119099514655" lon="7.985344786361135"><ele>428.4</ele><time>2026-04-11T08:49:25Z</time></trkpt><trkpt lat="45.119085039573406" lon="7.98547338710068"><ele>428.79999999999995</ele><time>2026-04-11T08:49:26Z</time></trkpt><trkpt lat="45.11908298585626" lon="7.98559729372263"><ele>429.2</ele><time>2026-04-11T08:49:27Z</time></trkpt><trkpt lat="45.11908554713077" lon="7.985720583167121"><ele>429.6</ele><time>2026-04-11T08:49:28Z</time></trkpt><trkpt lat="45.11911906208965" lon="7.985842759096491"><ele>430.0</ele><time>2026-04-11T08:49:29Z</time></trkpt><trkpt lat="45.1191607501134" lon="7.985965675883808"><ele>432.4</ele><time>2026-04-11T08:49:30Z</time></trkpt><trkpt lat="45.11921766742878" lon="7.986079626035635"><ele>434.8</ele><time>2026-04-11T08:49:31Z</time></trkpt><trkpt lat="45.11927514086331" lon="7.986197521735606"><ele>437.20000000000005</ele><time>2026-04-11T08:49:32Z</time></trkpt><trkpt lat="45.11931810788742" lon="7.986310434631466"><ele>439.6</ele><time>2026-04-11T08:49:33Z</time></trkpt><trkpt lat="45.119354437818345" lon="7.986424883166895"><ele>442.0</ele><time>2026-04-11T08:49:34Z</time></trkpt><trkpt lat="45.119394222333874" lon="7.986552469116517"><ele>442.00000000000006</ele><time>2026-04-11T08:49:35Z</time></trkpt><trkpt lat="45.119449526185484" lon="7.986670828364892"><ele>442.0</ele><time>2026-04-11T08:49:36Z</time></trkpt><trkpt lat="45.119495218730464" lon="7.986771938715294"><ele>442.0</ele><time>2026-04-11T08:49:37Z</time></trkpt><trkpt lat="45.11951294537378" lon="7.986874645020771"><ele>442.0</ele><time>2026-04-11T08:49:38Z</time></trkpt><trkpt lat="45.1194996151264" lon="7.986986242159554"><ele>442.00000000000006</ele><time>2026-04-11T08:49:39Z</time></trkpt><trkpt lat="45.1194683428564" lon="7.987096716153833"><ele>442.0</ele><time>2026-04-11T08:49:40Z</time></trkpt><trkpt lat="45.11943190763328" lon="7.987208574397078"><ele>442.6666666666667</ele><time>2026-04-11T08:49:41Z</time></trkpt><trkpt lat="45.1193935293829" lon="7.987290944826155"><ele>443.33333333333337</ele><time>2026-04-11T08:49:42Z</time></trkpt><trkpt lat="45.11932229521255" lon="7.987340905808459"><ele>444.0</ele><time>2026-04-11T08:49:43Z</time></trkpt><trkpt lat="45.11924732966018" lon="7.987389539528881"><ele>444.66666666666663</ele><time>2026-04-11T08:49:44Z</time></trkpt><trkpt lat="45.119194173762565" lon="7.987440676821983"><ele>445.3333333333333</ele><time>2026-04-11T08:49:45Z</time></trkpt><trkpt lat="45.11916424078029" lon="7.9875540479957845"><ele>446.0</ele><time>2026-04-11T08:49:46Z</time></trkpt><trkpt lat="45.11921100583638" lon="7.987704649830048"><ele>447.5</ele><time>2026-04-11T08:49:47Z</time></trkpt><trkpt lat="45.11925018900178" lon="7.987854804544954"><ele>449.0</ele><time>2026-04-11T08:49:48Z</time></trkpt><trkpt lat="45.11925649537915" lon="7.988024791869233"><ele>450.5</ele><time>2026-04-11T08:49:49Z</time></trkpt><trkpt lat="45.11927834821811" lon="7.988203127527837"><ele>452.0</ele><time>2026-04-11T08:49:50Z</time></trkpt><trkpt lat="45.11930933997035" lon="7.988388597801216"><ele>456.75</ele><time>2026-04-11T08:49:51Z</time></trkpt><trkpt lat="45.119371260714274" lon="7.988544549644781"><ele>461.5</ele><time>2026-04-11T08:49:52Z</time></trkpt><trkpt lat="45.119430319785664" lon="7.988680879835069"><ele>466.25</ele><time>2026-04-11T08:49:53Z</time></trkpt><trkpt lat="45.11948948813741" lon="7.988804079608936"><ele>471.0</ele><time>2026-04-11T08:49:54Z</time></trkpt><trkpt lat="45.1195868098695" lon="7.988872065291353"><ele>471.0</ele><time>2026-04-11T08:49:55Z</time></trkpt><trkpt lat="45.119658522587144" lon="7.98897754805977"><ele>471.0</ele><time>2026-04-11T08:49:56Z</time></trkpt><trkpt lat="45.11970997519936" lon="7.989071215813237"><ele>471.0</ele><time>2026-04-11T08:49:57Z</time></trkpt><trkpt lat="45.11976635131652" lon="7.989196924345783"><ele>471.0</ele><time>2026-04-11T08:49:58Z</time></trkpt><trkpt lat="45.11983975512044" lon="7.989344868537513"><ele>471.0</ele><time>2026-04-11T08:49:59Z</time></trkpt><trkpt lat="45.11991715654109" lon="7.989487692181975"><ele>471.8</ele><time>2026-04-11T08:50:00Z</time></trkpt><trkpt lat="45.1200142378209" lon="7.989592751979624"><ele>472.6</ele><time>2026-04-11T08:50:01Z</time></trkpt><trkpt lat="45.120090114527514" lon="7.989700562071347"><ele>473.4</ele><time>2026-04-11T08:50:02Z</time></trkpt><trkpt lat="45.12014347998271" lon="7.989819736036991"><ele>474.2</ele><time>2026-04-11T08:50:03Z</time></trkpt><trkpt lat="45.12019116858418" lon="7.989934795495271"><ele>475.0</ele><time>2026-04-11T08:50:04Z</time></trkpt><trkpt lat="45.12026095607743" lon="7.990026685451525"><ele>475.0</ele><time>2026-04-11T08:50:05Z</time></trkpt><trkpt lat="45.120332419130456" lon="7.990095069400438"><ele>475.0</ele><time>2026-04-11T08:50:06Z</time></trkpt><trkpt lat="45.1204267216927" lon="7.990126406874854"><ele>475.0</ele><time>2026-04-11T08:50:07Z</time></trkpt><trkpt lat="45.12052582649076" lon="7.990157132101068"><ele>475.0</ele><time>2026-04-11T08:50:08Z</time></trkpt><trkpt lat="45.12062348003519" lon="7.990176677750697"><ele>475.0</ele><time>2026-04-11T08:50:09Z</time></trkpt><trkpt lat="45.1207009270666" lon="7.990199460444363"><ele>475.0</ele><time>2026-04-11T08:50:10Z</time></trkpt><trkpt lat="45.120800811529364" lon="7.990252511494681"><ele>475.0</ele><time>2026-04-11T08:50:12Z</time></trkpt><trkpt lat="45.12080688473353" lon="7.990347900737184"><ele>475.0</ele><time>2026-04-11T08:50:13Z</time></trkpt><trkpt lat="45.120778762733536" lon="7.990447799207411"><ele>475.0</ele><time>2026-04-11T08:50:14Z</time></trkpt><trkpt lat="45.12072811735396" lon="7.990571173438632"><ele>475.0</ele><time>2026-04-11T08:50:15Z</time></trkpt><trkpt lat="45.120673016556296" lon="7.990739086127873"><ele>472.5</ele><time>2026-04-11T08:50:16Z</time></trkpt><trkpt lat="45.12062996500721" lon="7.990925115381691"><ele>470.0</ele><time>2026-04-11T08:50:17Z</time></trkpt><trkpt lat="45.12059327950798" lon="7.991109948661291"><ele>467.5</ele><time>2026-04-11T08:50:18Z</time></trkpt><trkpt lat="45.12055556865426" lon="7.991288982794386"><ele>465.0</ele><time>2026-04-11T08:50:19Z</time></trkpt><trkpt lat="45.120519337411146" lon="7.991461838514059"><ele>465.0</ele><time>2026-04-11T08:50:20Z</time></trkpt><trkpt lat="45.120501026476866" lon="7.991637085034432"><ele>465.0</ele><time>2026-04-11T08:50:21Z</time></trkpt><trkpt lat="45.12049949332648" lon="7.991804657370654"><ele>465.0</ele><time>2026-04-11T08:50:22Z</time></trkpt><trkpt lat="45.120513406311886" lon="7.991977219561428"><ele>465.0</ele><time>2026-04-11T08:50:23Z</time></trkpt><trkpt lat="45.120532530686056" lon="7.992143680075994"><ele>462.2</ele><time>2026-04-11T08:50:24Z</time></trkpt><trkpt lat="45.12053885275724" lon="7.9923107805808975"><ele>459.4</ele><time>2026-04-11T08:50:25Z</time></trkpt><trkpt lat="45.12057847571087" lon="7.99245056400287"><ele>456.6</ele><time>2026-04-11T08:50:26Z</time></trkpt><trkpt lat="45.12060406214801" lon="7.992558871965019"><ele>453.8</ele><time>2026-04-11T08:50:27Z</time></trkpt><trkpt lat="45.120636618381326" lon="7.992696937237273"><ele>451.0</ele><time>2026-04-11T08:50:29Z</time></trkpt><trkpt lat="45.12066570502368" lon="7.992779233024115"><ele>449.8</ele><time>2026-04-11T08:50:30Z</time></trkpt><trkpt lat="45.12070263395165" lon="7.992892629298413"><ele>448.6</ele><time>2026-04-11T08:50:31Z</time></trkpt><trkpt lat="45.12074705331301" lon="7.993039699876009"><ele>447.4</ele><time>2026-04-11T08:50:32Z</time></trkpt><trkpt lat="45.12077681276786" lon="7.993211970244097"><ele>446.2</ele><time>2026-04-11T08:50:33Z</time></trkpt><trkpt lat="45.12080136352834" lon="7.993365627971805"><ele>445.0</ele><time>2026-04-11T08:50:34Z</time></trkpt><trkpt lat="45.12082834139232" lon="7.993497709078308"><ele>451.4</ele><time>2026-04-11T08:50:35Z</time></trkpt><trkpt lat="45.12087786394577" lon="7.99362294994325"><ele>457.8</ele><time>2026-04-11T08:50:36Z</time></trkpt><trkpt lat="45.120938405368946" lon="7.993726086260469"><ele>464.20000000000005</ele><time>2026-04-11T08:50:37Z</time></trkpt><trkpt lat="45.12103554333298" lon="7.993820838732015"><ele>470.6</ele><time>2026-04-11T08:50:38Z</time></trkpt><trkpt lat="45.12114229147423" lon="7.993933748747368"><ele>477.0</ele><time>2026-04-11T08:50:39Z</time></trkpt><trkpt lat="45.12123713424014" lon="7.994023072236992"><ele>477.0</ele><time>2026-04-11T08:50:40Z</time></trkpt><trkpt lat="45.1213222441236" lon="7.994109336103813"><ele>477.0</ele><time>2026-04-11T08:50:41Z</time></trkpt><trkpt lat="45.12142083887523" lon="7.99419500107767"><ele>477.0</ele><time>2026-04-11T08:50:42Z</time></trkpt><trkpt lat="45.12152234811361" lon="7.994326214456667"><ele>477.0</ele><time>2026-04-11T08:50:43Z</time></trkpt><trkpt lat="45.12162007933753" lon="7.99446800656722"><ele>472.75</ele><time>2026-04-11T08:50:44Z</time></trkpt><trkpt lat="45.121710552516234" lon="7.994598277880889"><ele>468.5</ele><time>2026-04-11T08:50:45Z</time></trkpt><trkpt lat="45.12180141974807" lon="7.994713892575074"><ele>464.25</ele><time>2026-04-11T08:50:46Z</time></trkpt><trkpt lat="45.12190992836845" lon="7.994805154808826"><ele>460.0</ele><time>2026-04-11T08:50:47Z</time></trkpt><trkpt lat="45.12202154826789" lon="7.994887935506648"><ele>460.0</ele><time>2026-04-11T08:50:48Z</time></trkpt><trkpt lat="45.12211763775211" lon="7.99496686359407"><ele>460.0</ele><time>2026-04-11T08:50:49Z</time></trkpt><trkpt lat="45.122199819222736" lon="7.995030883231425"><ele>460.0</ele><time>2026-04-11T08:50:50Z</time></trkpt><trkpt lat="45.12229016612012" lon="7.9950909176353155"><ele>460.0</ele><time>2026-04-11T08:50:51Z</time></trkpt><trkpt lat="45.1224186912269" lon="7.995137372121947"><ele>460.0</ele><time>2026-04-11T08:50:52Z</time></trkpt><trkpt lat="45.12255937056389" lon="7.995167045503634"><ele>456.75</ele><time>2026-04-11T08:50:53Z</time></trkpt><trkpt lat="45.12269119023686" lon="7.995194204755227"><ele>453.5</ele><time>2026-04-11T08:50:54Z</time></trkpt><trkpt lat="45.122813088246815" lon="7.995198523831662"><ele>450.25</ele><time>2026-04-11T08:50:55Z</time></trkpt><trkpt lat="45.12292403431276" lon="7.995210141161211"><ele>447.0</ele><time>2026-04-11T08:50:56Z</time></trkpt><trkpt lat="45.12303074788029" lon="7.9952249221070195"><ele>447.0</ele><time>2026-04-11T08:50:57Z</time></trkpt><trkpt lat="45.12312458603063" lon="7.995289178566254"><ele>447.00000000000006</ele><time>2026-04-11T08:50:58Z</time></trkpt><trkpt lat="45.12322158102624" lon="7.995337125381863"><ele>447.00000000000006</ele><time>2026-04-11T08:50:59Z</time></trkpt><trkpt lat="45.123300240656576" lon="7.995436479935258"><ele>447.0</ele><time>2026-04-11T08:51:00Z</time></trkpt><trkpt lat="45.123349448879885" lon="7.995565916221099"><ele>447.0</ele><time>2026-04-11T08:51:01Z</time></trkpt><trkpt lat="45.123353047946225" lon="7.995725628990144"><ele>443.25</ele><time>2026-04-11T08:51:02Z</time></trkpt><trkpt lat="45.12330739265587" lon="7.995885538661264"><ele>439.5</ele><time>2026-04-11T08:51:03Z</time></trkpt><trkpt lat="45.123271894255446" lon="7.996069084901821"><ele>435.75</ele><time>2026-04-11T08:51:04Z</time></trkpt><trkpt lat="45.12323536643547" lon="7.99624069744485"><ele>432.0</ele><time>2026-04-11T08:51:05Z</time></trkpt><trkpt lat="45.12320852288719" lon="7.996410141519636"><ele>432.0</ele><time>2026-04-11T08:51:06Z</time></trkpt><trkpt lat="45.123173960925676" lon="7.9965771622759965"><ele>432.0</ele><time>2026-04-11T08:51:07Z</time></trkpt><trkpt lat="45.12312885434631" lon="7.996740257293594"><ele>432.0</ele><time>2026-04-11T08:51:08Z</time></trkpt><trkpt lat="45.1230909781622" lon="7.996918021032633"><ele>432.0</ele><time>2026-04-11T08:51:09Z</time></trkpt><trkpt lat="45.1230770515795" lon="7.9970904986520965"><ele>432.40000000000003</ele><time>2026-04-11T08:51:10Z</time></trkpt><trkpt lat="45.12307712404823" lon="7.997255977002124"><ele>432.80000000000007</ele><time>2026-04-11T08:51:11Z</time></trkpt><trkpt lat="45.123071085766355" lon="7.997405268025841"><ele>433.2</ele><time>2026-04-11T08:51:12Z</time></trkpt><trkpt lat="45.12305446531122" lon="7.997541654371096"><ele>433.6</ele><time>2026-04-11T08:51:13Z</time></trkpt><trkpt lat="45.123028604968226" lon="7.9976520126135"><ele>434.0</ele><time>2026-04-11T08:51:14Z</time></trkpt><trkpt lat="45.122993570187546" lon="7.997732090728411"><ele>435.25</ele><time>2026-04-11T08:51:15Z</time></trkpt><trkpt lat="45.12289128069461" lon="7.997842862449724"><ele>436.5</ele><time>2026-04-11T08:51:17Z</time></trkpt><trkpt lat="45.12278544190697" lon="7.997912633951086"><ele>437.75</ele><time>2026-04-11T08:51:18Z</time></trkpt><trkpt lat="45.12265660782669" lon="7.997996833702472"><ele>439.0</ele><time>2026-04-11T08:51:19Z</time></trkpt><trkpt lat="45.12253553544325" lon="7.998094085012006"><ele>435.6666666666667</ele><time>2026-04-11T08:51:20Z</time></trkpt><trkpt lat="45.122397128946915" lon="7.998208984081376"><ele>432.33333333333337</ele><time>2026-04-11T08:51:21Z</time></trkpt><trkpt lat="45.12226406176843" lon="7.998316874091223"><ele>429.0</ele><time>2026-04-11T08:51:22Z</time></trkpt><trkpt lat="45.122138817428926" lon="7.998435465410622"><ele>429.0</ele><time>2026-04-11T08:51:23Z</time></trkpt><trkpt lat="45.12201442851871" lon="7.99859489444432"><ele>429.0</ele><time>2026-04-11T08:51:24Z</time></trkpt><trkpt lat="45.12190023248155" lon="7.998762120025504"><ele>429.0</ele><time>2026-04-11T08:51:25Z</time></trkpt><trkpt lat="45.12179220218585" lon="7.998922195417802"><ele>429.0</ele><time>2026-04-11T08:51:26Z</time></trkpt><trkpt lat="45.121689063502075" lon="7.999066015796175"><ele>429.0</ele><time>2026-04-11T08:51:27Z</time></trkpt><trkpt lat="45.12159844771872" lon="7.9991877102674795"><ele>429.0</ele><time>2026-04-11T08:51:28Z</time></trkpt><trkpt lat="45.121540245647104" lon="7.9993194427492575"><ele>429.0</ele><time>2026-04-11T08:51:29Z</time></trkpt><trkpt lat="45.12150677239118" lon="7.999460881803023"><ele>426.0</ele><time>2026-04-11T08:51:30Z</time></trkpt><trkpt lat="45.12151000578154" lon="7.999629811136863"><ele>423.0</ele><time>2026-04-11T08:51:31Z</time></trkpt><trkpt lat="45.121526777973656" lon="7.999818749124897"><ele>420.0</ele><time>2026-04-11T08:51:32Z</time></trkpt><trkpt lat="45.12153162051146" lon="8.000014968218698"><ele>417.0</ele><time>2026-04-11T08:51:33Z</time></trkpt><trkpt lat="45.121496200628364" lon="8.000200192118255"><ele>417.0</ele><time>2026-04-11T08:51:34Z</time></trkpt><trkpt lat="45.1214050397026" lon="8.000346341935533"><ele>417.0</ele><time>2026-04-11T08:51:35Z</time></trkpt><trkpt lat="45.1213109294636" lon="8.000486523320234"><ele>417.0</ele><time>2026-04-11T08:51:36Z</time></trkpt><trkpt lat="45.121225880089675" lon="8.000628698052358"><ele>417.0</ele><time>2026-04-11T08:51:37Z</time></trkpt><trkpt lat="45.12112561319566" lon="8.000747119678596"><ele>417.0</ele><time>2026-04-11T08:51:38Z</time></trkpt><trkpt lat="45.120997535671385" lon="8.000821549134034"><ele>417.0</ele><time>2026-04-11T08:51:39Z</time></trkpt><trkpt lat="45.12084531878999" lon="8.000867112437176"><ele>417.0</ele><time>2026-04-11T08:51:40Z</time></trkpt><trkpt lat="45.12068950528779" lon="8.000944748447939"><ele>418.66666666666663</ele><time>2026-04-11T08:51:41Z</time></trkpt><trkpt lat="45.120537434706506" lon="8.00104637945366"><ele>420.3333333333333</ele><time>2026-04-11T08:51:42Z</time></trkpt><trkpt lat="45.12039016703957" lon="8.001185313820658"><ele>422.0</ele><time>2026-04-11T08:51:43Z</time></trkpt><trkpt lat="45.120236245394594" lon="8.001318023702503"><ele>422.0</ele><time>2026-04-11T08:51:44Z</time></trkpt><trkpt lat="45.12008729292069" lon="8.001437097469939"><ele>422.0</ele><time>2026-04-11T08:51:45Z</time></trkpt><trkpt lat="45.11994180153466" lon="8.001560781161448"><ele>422.0</ele><time>2026-04-11T08:51:46Z</time></trkpt><trkpt lat="45.11979714076848" lon="8.001686729487375"><ele>423.5</ele><time>2026-04-11T08:51:47Z</time></trkpt><trkpt lat="45.119656802499925" lon="8.001800553584907"><ele>425.0</ele><time>2026-04-11T08:51:48Z</time></trkpt><trkpt lat="45.11953203089344" lon="8.001904191982339"><ele>426.5</ele><time>2026-04-11T08:51:49Z</time></trkpt><trkpt lat="45.11941294311273" lon="8.001988009710013"><ele>428.0</ele><time>2026-04-11T08:51:50Z</time></trkpt><trkpt lat="45.11930768966958" lon="8.002045969631327"><ele>428.0</ele><time>2026-04-11T08:51:51Z</time></trkpt><trkpt lat="45.11919578981546" lon="8.002051719025511"><ele>427.99999999999994</ele><time>2026-04-11T08:51:52Z</time></trkpt><trkpt lat="45.11908466378519" lon="8.002081164707933"><ele>427.99999999999994</ele><time>2026-04-11T08:51:53Z</time></trkpt><trkpt lat="45.11897326265171" lon="8.002079814279133"><ele>428.0</ele><time>2026-04-11T08:51:54Z</time></trkpt><trkpt lat="45.118864755722065" lon="8.002100581700889"><ele>428.0</ele><time>2026-04-11T08:51:55Z</time></trkpt><trkpt lat="45.11876005144312" lon="8.00214127318132"><ele>429.4</ele><time>2026-04-11T08:51:56Z</time></trkpt><trkpt lat="45.118661823168615" lon="8.002188253825102"><ele>430.79999999999995</ele><time>2026-04-11T08:51:57Z</time></trkpt><trkpt lat="45.1185718332218" lon="8.002247710473155"><ele>432.2</ele><time>2026-04-11T08:51:58Z</time></trkpt><trkpt lat="45.11848528994198" lon="8.002282518233594"><ele>433.6</ele><time>2026-04-11T08:51:59Z</time></trkpt><trkpt lat="45.11839634634616" lon="8.00231026330338"><ele>435.0</ele><time>2026-04-11T08:52:00Z</time></trkpt><trkpt lat="45.11829757225421" lon="8.002324281965219"><ele>437.8</ele><time>2026-04-11T08:52:01Z</time></trkpt><trkpt lat="45.11818930228228" lon="8.002320245203848"><ele>440.6</ele><time>2026-04-11T08:52:02Z</time></trkpt><trkpt lat="45.11808526155503" lon="8.002288523108966"><ele>443.4</ele><time>2026-04-11T08:52:03Z</time></trkpt><trkpt lat="45.11799216411382" lon="8.002289003754239"><ele>446.2</ele><time>2026-04-11T08:52:04Z</time></trkpt><trkpt lat="45.11789974717665" lon="8.00226341153108"><ele>449.0</ele><time>2026-04-11T08:52:05Z</time></trkpt><trkpt lat="45.117815645383985" lon="8.002251250438563"><ele>449.0</ele><time>2026-04-11T08:52:06Z</time></trkpt><trkpt lat="45.11773093254134" lon="8.002257481246012"><ele>449.0</ele><time>2026-04-11T08:52:07Z</time></trkpt><trkpt lat="45.11763387488418" lon="8.0022897850186"><ele>449.0</ele><time>2026-04-11T08:52:08Z</time></trkpt><trkpt lat="45.11752780332812" lon="8.002347208975985"><ele>449.0</ele><time>2026-04-11T08:52:09Z</time></trkpt><trkpt lat="45.11742026089025" lon="8.00241854824627"><ele>449.0</ele><time>2026-04-11T08:52:10Z</time></trkpt><trkpt lat="45.11732375755791" lon="8.002491109421435"><ele>447.0</ele><time>2026-04-11T08:52:11Z</time></trkpt><trkpt lat="45.117239132322496" lon="8.002549386633333"><ele>444.99999999999994</ele><time>2026-04-11T08:52:12Z</time></trkpt><trkpt lat="45.11716806566064" lon="8.002589317888708"><ele>443.0</ele><time>2026-04-11T08:52:13Z</time></trkpt><trkpt lat="45.11710669639675" lon="8.002622930078306"><ele>441.0</ele><time>2026-04-11T08:52:14Z</time></trkpt><trkpt lat="45.11705194807263" lon="8.002668805472583"><ele>439.0</ele><time>2026-04-11T08:52:15Z</time></trkpt><trkpt lat="45.11700998180228" lon="8.002745009479586"><ele>437.0</ele><time>2026-04-11T08:52:16Z</time></trkpt><trkpt lat="45.11697681907642" lon="8.002848743776857"><ele>435.0</ele><time>2026-04-11T08:52:17Z</time></trkpt><trkpt lat="45.11694430615591" lon="8.002947535921388"><ele>435.0</ele><time>2026-04-11T08:52:18Z</time></trkpt><trkpt lat="45.11690490312627" lon="8.003038773770466"><ele>435.0</ele><time>2026-04-11T08:52:19Z</time></trkpt><trkpt lat="45.116859336221054" lon="8.00313272218306"><ele>435.0</ele><time>2026-04-11T08:52:20Z</time></trkpt><trkpt lat="45.11681213215638" lon="8.003226983477187"><ele>435.0</ele><time>2026-04-11T08:52:21Z</time></trkpt><trkpt lat="45.11675302300336" lon="8.003325004801491"><ele>435.0</ele><time>2026-04-11T08:52:22Z</time></trkpt><trkpt lat="45.116686157875606" lon="8.003429638096074"><ele>435.0</ele><time>2026-04-11T08:52:23Z</time></trkpt><trkpt lat="45.11660816008413" lon="8.00355024663337"><ele>432.0</ele><time>2026-04-11T08:52:24Z</time></trkpt><trkpt lat="45.116515983673864" lon="8.003655626836709"><ele>429.0</ele><time>2026-04-11T08:52:25Z</time></trkpt><trkpt lat="45.11642821233533" lon="8.003761800490214"><ele>426.0</ele><time>2026-04-11T08:52:26Z</time></trkpt><trkpt lat="45.116319521403724" lon="8.003881936974262"><ele>423.0</ele><time>2026-04-11T08:52:27Z</time></trkpt><trkpt lat="45.1162133661841" lon="8.003960194110308"><ele>423.0</ele><time>2026-04-11T08:52:28Z</time></trkpt><trkpt lat="45.11610701039056" lon="8.004009019010969"><ele>423.0</ele><time>2026-04-11T08:52:29Z</time></trkpt><trkpt lat="45.11597992711449" lon="8.003996604852077"><ele>423.0</ele><time>2026-04-11T08:52:30Z</time></trkpt><trkpt lat="45.115845108661425" lon="8.004031956252998"><ele>423.0</ele><time>2026-04-11T08:52:31Z</time></trkpt><trkpt lat="45.11571562723867" lon="8.004053179723275"><ele>422.66666666666663</ele><time>2026-04-11T08:52:32Z</time></trkpt><trkpt lat="45.115586852491816" lon="8.004119975578421"><ele>422.3333333333333</ele><time>2026-04-11T08:52:33Z</time></trkpt><trkpt lat="45.115470640468146" lon="8.004248341470475"><ele>422.0</ele><time>2026-04-11T08:52:34Z</time></trkpt><trkpt lat="45.115342205123156" lon="8.004410567949797"><ele>426.3333333333333</ele><time>2026-04-11T08:52:35Z</time></trkpt><trkpt lat="45.115204160929345" lon="8.00455205841233"><ele>430.66666666666663</ele><time>2026-04-11T08:52:36Z</time></trkpt><trkpt lat="45.11507060906923" lon="8.004667437112468"><ele>435.0</ele><time>2026-04-11T08:52:37Z</time></trkpt><trkpt lat="45.11495104058853" lon="8.004794994613256"><ele>434.33333333333337</ele><time>2026-04-11T08:52:38Z</time></trkpt><trkpt lat="45.114853483711414" lon="8.004942356037866"><ele>433.6666666666667</ele><time>2026-04-11T08:52:39Z</time></trkpt><trkpt lat="45.114776039119" lon="8.005134315885964"><ele>433.0</ele><time>2026-04-11T08:52:40Z</time></trkpt><trkpt lat="45.11470081730304" lon="8.005326502368971"><ele>433.0</ele><time>2026-04-11T08:52:41Z</time></trkpt><trkpt lat="45.11458903078117" lon="8.005502843738201"><ele>433.0</ele><time>2026-04-11T08:52:42Z</time></trkpt><trkpt lat="45.1144543056012" lon="8.005663941103922"><ele>433.0</ele><time>2026-04-11T08:52:43Z</time></trkpt><trkpt lat="45.11434936809537" lon="8.005799074457252"><ele>439.0</ele><time>2026-04-11T08:52:44Z</time></trkpt><trkpt lat="45.114256160754685" lon="8.005900872024949"><ele>445.0</ele><time>2026-04-11T08:52:45Z</time></trkpt><trkpt lat="45.114135773168556" lon="8.005946640781856"><ele>451.0</ele><time>2026-04-11T08:52:46Z</time></trkpt><trkpt lat="45.11402191330226" lon="8.005933445144787"><ele>457.0</ele><time>2026-04-11T08:52:47Z</time></trkpt><trkpt lat="45.11390509167938" lon="8.005901644426947"><ele>457.0</ele><time>2026-04-11T08:52:48Z</time></trkpt><trkpt lat="45.11376529801814" lon="8.005866908653891"><ele>457.00000000000006</ele><time>2026-04-11T08:52:49Z</time></trkpt><trkpt lat="45.11364095609072" lon="8.00586401955443"><ele>457.00000000000006</ele><time>2026-04-11T08:52:50Z</time></trkpt><trkpt lat="45.11354557007448" lon="8.0058685283949"><ele>457.0</ele><time>2026-04-11T08:52:51Z</time></trkpt><trkpt lat="45.1134639273146" lon="8.005900929949757"><ele>457.0</ele><time>2026-04-11T08:52:52Z</time></trkpt><trkpt lat="45.11340325463275" lon="8.005937384512043"><ele>457.00000000000006</ele><time>2026-04-11T08:52:53Z</time></trkpt><trkpt lat="45.11332950933745" lon="8.005983394605087"><ele>457.0</ele><time>2026-04-11T08:52:56Z</time></trkpt><trkpt lat="45.11326161632564" lon="8.006009043659414"><ele>457.0</ele><time>2026-04-11T08:52:57Z</time></trkpt><trkpt lat="45.113176941676016" lon="8.006045045161047"><ele>457.0</ele><time>2026-04-11T08:52:58Z</time></trkpt><trkpt lat="45.11308783237945" lon="8.0060918806262"><ele>457.00000000000006</ele><time>2026-04-11T08:52:59Z</time></trkpt><trkpt lat="45.11302162680568" lon="8.006146888551712"><ele>457.0</ele><time>2026-04-11T08:53:00Z</time></trkpt><trkpt lat="45.11298282691115" lon="8.006223412480665"><ele>456.8</ele><time>2026-04-11T08:53:01Z</time></trkpt><trkpt lat="45.112957505952345" lon="8.006336811447113"><ele>456.6</ele><time>2026-04-11T08:53:02Z</time></trkpt><trkpt lat="45.11296703832485" lon="8.006463285320883"><ele>456.40000000000003</ele><time>2026-04-11T08:53:03Z</time></trkpt><trkpt lat="45.11302894272938" lon="8.006576009408573"><ele>456.20000000000005</ele><time>2026-04-11T08:53:04Z</time></trkpt><trkpt lat="45.11311899103253" lon="8.006654754204446"><ele>456.0</ele><time>2026-04-11T08:53:05Z</time></trkpt><trkpt lat="45.11323584775741" lon="8.006724168196452"><ele>459.0</ele><time>2026-04-11T08:53:06Z</time></trkpt><trkpt lat="45.11337472295343" lon="8.00681204894709"><ele>462.0</ele><time>2026-04-11T08:53:07Z</time></trkpt><trkpt lat="45.113517306978174" lon="8.006913802178804"><ele>465.0</ele><time>2026-04-11T08:53:08Z</time></trkpt><trkpt lat="45.11368363904851" lon="8.007035285461729"><ele>465.0</ele><time>2026-04-11T08:53:09Z</time></trkpt><trkpt lat="45.11385221136642" lon="8.00716029157851"><ele>465.0</ele><time>2026-04-11T08:53:10Z</time></trkpt><trkpt lat="45.11400733318872" lon="8.00726197218362"><ele>465.0</ele><time>2026-04-11T08:53:11Z</time></trkpt><trkpt lat="45.11417101375116" lon="8.007370660973574"><ele>463.0</ele><time>2026-04-11T08:53:12Z</time></trkpt><trkpt lat="45.11432297011377" lon="8.007504681508014"><ele>461.0</ele><time>2026-04-11T08:53:13Z</time></trkpt><trkpt lat="45.11447694142009" lon="8.007593833198673"><ele>459.0</ele><time>2026-04-11T08:53:14Z</time></trkpt><trkpt lat="45.114600099280686" lon="8.007692887548332"><ele>459.0</ele><time>2026-04-11T08:53:15Z</time></trkpt><trkpt lat="45.11469617086976" lon="8.007828039919037"><ele>459.0</ele><time>2026-04-11T08:53:16Z</time></trkpt><trkpt lat="45.11478177956988" lon="8.007983229493346"><ele>459.0</ele><time>2026-04-11T08:53:17Z</time></trkpt><trkpt lat="45.11478848040506" lon="8.008220304763672"><ele>459.0</ele><time>2026-04-11T08:53:18Z</time></trkpt><trkpt lat="45.11481598098247" lon="8.008478023073128"><ele>452.33333333333337</ele><time>2026-04-11T08:53:19Z</time></trkpt><trkpt lat="45.11482268948121" lon="8.00874601468891"><ele>445.6666666666667</ele><time>2026-04-11T08:53:20Z</time></trkpt><trkpt lat="45.114839016030245" lon="8.009029508221147"><ele>439.0</ele><time>2026-04-11T08:53:21Z</time></trkpt><trkpt lat="45.11485966381958" lon="8.009317829565813"><ele>436.33333333333337</ele><time>2026-04-11T08:53:22Z</time></trkpt><trkpt lat="45.1148734429736" lon="8.009577571321271"><ele>433.66666666666663</ele><time>2026-04-11T08:53:23Z</time></trkpt><trkpt lat="45.11487729667313" lon="8.009839715193763"><ele>431.0</ele><time>2026-04-11T08:53:24Z</time></trkpt><trkpt lat="45.114857863934596" lon="8.010106499656334"><ele>431.0</ele><time>2026-04-11T08:53:25Z</time></trkpt><trkpt lat="45.114823777193465" lon="8.010386952272762"><ele>431.0</ele><time>2026-04-11T08:53:26Z</time></trkpt><trkpt lat="45.11479397673636" lon="8.010699030663535"><ele>431.0</ele><time>2026-04-11T08:53:27Z</time></trkpt><trkpt lat="45.11476114279611" lon="8.011028962384703"><ele>430.0</ele><time>2026-04-11T08:53:28Z</time></trkpt><trkpt lat="45.114740314810014" lon="8.011318724486712"><ele>429.0</ele><time>2026-04-11T08:53:29Z</time></trkpt><trkpt lat="45.1147217929461" lon="8.011589526543435"><ele>428.0</ele><time>2026-04-11T08:53:30Z</time></trkpt><trkpt lat="45.11470567382028" lon="8.011849456436526"><ele>427.66666666666663</ele><time>2026-04-11T08:53:31Z</time></trkpt><trkpt lat="45.114666854692565" lon="8.0120982077263"><ele>427.33333333333337</ele><time>2026-04-11T08:53:32Z</time></trkpt><trkpt lat="45.11464943540492" lon="8.012344075692488"><ele>427.0</ele><time>2026-04-11T08:53:33Z</time></trkpt><trkpt lat="45.11457389944258" lon="8.012564844864809"><ele>430.33333333333337</ele><time>2026-04-11T08:53:34Z</time></trkpt><trkpt lat="45.11444242998729" lon="8.012743611415692"><ele>433.66666666666663</ele><time>2026-04-11T08:53:35Z</time></trkpt><trkpt lat="45.114293943121055" lon="8.012896952224706"><ele>437.0</ele><time>2026-04-11T08:53:36Z</time></trkpt><trkpt lat="45.11413440948492" lon="8.013014579024565"><ele>429.0</ele><time>2026-04-11T08:53:37Z</time></trkpt><trkpt lat="45.11398146296834" lon="8.013111564972704"><ele>421.0</ele><time>2026-04-11T08:53:38Z</time></trkpt><trkpt lat="45.113838461350326" lon="8.013173760181802"><ele>413.0</ele><time>2026-04-11T08:53:39Z</time></trkpt><trkpt lat="45.11370814496375" lon="8.013259571766262"><ele>417.0</ele><time>2026-04-11T08:53:40Z</time></trkpt><trkpt lat="45.113593532223426" lon="8.013397407170451"><ele>421.0</ele><time>2026-04-11T08:53:41Z</time></trkpt><trkpt lat="45.11347697618195" lon="8.01358679816222"><ele>425.0</ele><time>2026-04-11T08:53:42Z</time></trkpt><trkpt lat="45.11335389419038" lon="8.013813466908685"><ele>426.0</ele><time>2026-04-11T08:53:43Z</time></trkpt><trkpt lat="45.1132255333089" lon="8.01404486245274"><ele>427.0</ele><time>2026-04-11T08:53:44Z</time></trkpt><trkpt lat="45.11310899119003" lon="8.014243930835915"><ele>428.0</ele><time>2026-04-11T08:53:45Z</time></trkpt><trkpt lat="45.11300780138445" lon="8.014423319672016"><ele>428.0</ele><time>2026-04-11T08:53:46Z</time></trkpt><trkpt lat="45.112911898712085" lon="8.014587941253035"><ele>428.0</ele><time>2026-04-11T08:53:47Z</time></trkpt><trkpt lat="45.11281618681492" lon="8.01474121121603"><ele>428.0</ele><time>2026-04-11T08:53:48Z</time></trkpt><trkpt lat="45.11273349317261" lon="8.01488999689171"><ele>428.0</ele><time>2026-04-11T08:53:49Z</time></trkpt><trkpt lat="45.11267247827746" lon="8.015064338378377"><ele>430.66666666666663</ele><time>2026-04-11T08:53:50Z</time></trkpt><trkpt lat="45.11264451325588" lon="8.015278143420408"><ele>433.33333333333337</ele><time>2026-04-11T08:53:51Z</time></trkpt><trkpt lat="45.1126369615791" lon="8.015525597164599"><ele>436.0</ele><time>2026-04-11T08:53:52Z</time></trkpt><trkpt lat="45.11264202562435" lon="8.015804968604208"><ele>434.33333333333337</ele><time>2026-04-11T08:53:53Z</time></trkpt><trkpt lat="45.11261963783381" lon="8.016061710466444"><ele>432.66666666666663</ele><time>2026-04-11T08:53:54Z</time></trkpt><trkpt lat="45.11260421385059" lon="8.016293786930621"><ele>431.0</ele><time>2026-04-11T08:53:55Z</time></trkpt><trkpt lat="45.11256049425512" lon="8.016508685839575"><ele>431.0</ele><time>2026-04-11T08:53:56Z</time></trkpt><trkpt lat="45.11248149650504" lon="8.016728949148447"><ele>431.0</ele><time>2026-04-11T08:53:57Z</time></trkpt><trkpt lat="45.11238340037677" lon="8.016964330128262"><ele>431.0</ele><time>2026-04-11T08:53:58Z</time></trkpt><trkpt lat="45.11228135232728" lon="8.017223643583439"><ele>425.0</ele><time>2026-04-11T08:53:59Z</time></trkpt><trkpt lat="45.11216615213532" lon="8.017492315003448"><ele>419.0</ele><time>2026-04-11T08:54:00Z</time></trkpt><trkpt lat="45.11204589964248" lon="8.017778932448731"><ele>419.0</ele><time>2026-04-11T08:54:01Z</time></trkpt><trkpt lat="45.11192331562538" lon="8.018066428336338"><ele>419.0</ele><time>2026-04-11T08:54:02Z</time></trkpt><trkpt lat="45.1118059346265" lon="8.018349662578835"><ele>420.0</ele><time>2026-04-11T08:54:03Z</time></trkpt><trkpt lat="45.11170145200533" lon="8.018610621465866"><ele>421.0</ele><time>2026-04-11T08:54:04Z</time></trkpt><trkpt lat="45.111607547719196" lon="8.018840131403618"><ele>422.0</ele><time>2026-04-11T08:54:05Z</time></trkpt><trkpt lat="45.11151952241997" lon="8.019060934489131"><ele>420.3333333333333</ele><time>2026-04-11T08:54:06Z</time></trkpt><trkpt lat="45.1114348065591" lon="8.019261937506588"><ele>418.66666666666663</ele><time>2026-04-11T08:54:07Z</time></trkpt><trkpt lat="45.1113524111504" lon="8.019453107240862"><ele>417.0</ele><time>2026-04-11T08:54:08Z</time></trkpt><trkpt lat="45.1112740860783" lon="8.019626897477982"><ele>417.0</ele><time>2026-04-11T08:54:09Z</time></trkpt><trkpt lat="45.11119213409007" lon="8.019785209238703"><ele>417.0</ele><time>2026-04-11T08:54:10Z</time></trkpt><trkpt lat="45.111084806656024" lon="8.019926813580827"><ele>417.0</ele><time>2026-04-11T08:54:11Z</time></trkpt><trkpt lat="45.110928268779794" lon="8.019995306273778"><ele>417.0</ele><time>2026-04-11T08:54:12Z</time></trkpt><trkpt lat="45.11076209444913" lon="8.020103162891628"><ele>415.0</ele><time>2026-04-11T08:54:13Z</time></trkpt><trkpt lat="45.11056515325661" lon="8.020197006585818"><ele>413.0</ele><time>2026-04-11T08:54:14Z</time></trkpt><trkpt lat="45.11037092141112" lon="8.020307348161133"><ele>411.0</ele><time>2026-04-11T08:54:15Z</time></trkpt><trkpt lat="45.11019347324544" lon="8.020419187364014"><ele>411.0</ele><time>2026-04-11T08:54:16Z</time></trkpt><trkpt lat="45.11000207166236" lon="8.020504578997912"><ele>411.0</ele><time>2026-04-11T08:54:17Z</time></trkpt><trkpt lat="45.10980264088538" lon="8.020639500323227"><ele>411.0</ele><time>2026-04-11T08:54:18Z</time></trkpt><trkpt lat="45.109616789096684" lon="8.02081765988436"><ele>412.5</ele><time>2026-04-11T08:54:19Z</time></trkpt><trkpt lat="45.10944758179674" lon="8.02103235489458"><ele>414.0</ele><time>2026-04-11T08:54:20Z</time></trkpt><trkpt lat="45.1092994654813" lon="8.021271478888753"><ele>414.0</ele><time>2026-04-11T08:54:21Z</time></trkpt><trkpt lat="45.10913486057815" lon="8.021507419166227"><ele>414.0</ele><time>2026-04-11T08:54:22Z</time></trkpt><trkpt lat="45.10897886194745" lon="8.02170972964957"><ele>414.0</ele><time>2026-04-11T08:54:23Z</time></trkpt><trkpt lat="45.10882252898408" lon="8.021890350225473"><ele>413.66666666666663</ele><time>2026-04-11T08:54:24Z</time></trkpt><trkpt lat="45.108643415087094" lon="8.02205617768886"><ele>413.3333333333333</ele><time>2026-04-11T08:54:25Z</time></trkpt><trkpt lat="45.108446655645935" lon="8.02220247364237"><ele>413.0</ele><time>2026-04-11T08:54:26Z</time></trkpt><trkpt lat="45.108239295305296" lon="8.022329903922733"><ele>409.5</ele><time>2026-04-11T08:54:27Z</time></trkpt><trkpt lat="45.10802669030236" lon="8.022459730647126"><ele>406.0</ele><time>2026-04-11T08:54:28Z</time></trkpt><trkpt lat="45.107813886953124" lon="8.022592244553774"><ele>414.33333333333337</ele><time>2026-04-11T08:54:29Z</time></trkpt><trkpt lat="45.107631003750406" lon="8.02271160814509"><ele>422.66666666666663</ele><time>2026-04-11T08:54:30Z</time></trkpt><trkpt lat="45.107469974577036" lon="8.022818476333885"><ele>431.0</ele><time>2026-04-11T08:54:31Z</time></trkpt><trkpt lat="45.10733016764358" lon="8.022911947484275"><ele>431.0</ele><time>2026-04-11T08:54:32Z</time></trkpt><trkpt lat="45.107199789262566" lon="8.02298639154347"><ele>431.0</ele><time>2026-04-11T08:54:33Z</time></trkpt><trkpt lat="45.1070691431206" lon="8.023024443416794"><ele>431.0</ele><time>2026-04-11T08:54:34Z</time></trkpt><trkpt lat="45.10696699750239" lon="8.022995342148528"><ele>431.0</ele><time>2026-04-11T08:54:35Z</time></trkpt><trkpt lat="45.10689482120505" lon="8.023004501871807"><ele>431.0</ele><time>2026-04-11T08:54:36Z</time></trkpt><trkpt lat="45.106827109410446" lon="8.022986107909691"><ele>431.0</ele><time>2026-04-11T08:54:37Z</time></trkpt><trkpt lat="45.10675291235893" lon="8.022972945151388"><ele>431.0</ele><time>2026-04-11T08:54:38Z</time></trkpt><trkpt lat="45.10667908007812" lon="8.022957792064826"><ele>431.0</ele><time>2026-04-11T08:54:39Z</time></trkpt><trkpt lat="45.10660400600867" lon="8.022940906986138"><ele>431.0</ele><time>2026-04-11T08:54:40Z</time></trkpt><trkpt lat="45.10653105862787" lon="8.022927748031613"><ele>431.0</ele><time>2026-04-11T08:54:41Z</time></trkpt><trkpt lat="45.10646323476206" lon="8.022912867769818"><ele>431.0</ele><time>2026-04-11T08:54:42Z</time></trkpt><trkpt lat="45.10638989534463" lon="8.022898345947851"><ele>431.3333333333333</ele><time>2026-04-11T08:54:43Z</time></trkpt><trkpt lat="45.106312830304155" lon="8.022884667244517"><ele>431.66666666666663</ele><time>2026-04-11T08:54:44Z</time></trkpt><trkpt lat="45.10624050738922" lon="8.02287003332499"><ele>432.0</ele><time>2026-04-11T08:54:45Z</time></trkpt><trkpt lat="45.106166239605884" lon="8.022856484998735"><ele>432.33333333333337</ele><time>2026-04-11T08:54:46Z</time></trkpt><trkpt lat="45.10608092761287" lon="8.02284090984111"><ele>432.6666666666667</ele><time>2026-04-11T08:54:47Z</time></trkpt><trkpt lat="45.106004442615394" lon="8.02281823462084"><ele>433.0</ele><time>2026-04-11T08:54:48Z</time></trkpt><trkpt lat="45.10593430362517" lon="8.022783392696322"><ele>433.0</ele><time>2026-04-11T08:54:49Z</time></trkpt><trkpt lat="45.10585345204481" lon="8.022726507457064"><ele>432.99999999999994</ele><time>2026-04-11T08:54:50Z</time></trkpt><trkpt lat="45.105778372298936" lon="8.02262721040665"><ele>432.99999999999994</ele><time>2026-04-11T08:54:51Z</time></trkpt><trkpt lat="45.105677868795986" lon="8.022554206501926"><ele>433.0</ele><time>2026-04-11T08:54:52Z</time></trkpt><trkpt lat="45.1055979691624" lon="8.022445569131461"><ele>433.0</ele><time>2026-04-11T08:54:53Z</time></trkpt><trkpt lat="45.10551078072585" lon="8.02235899571038"><ele>435.0</ele><time>2026-04-11T08:54:54Z</time></trkpt><trkpt lat="45.10540553018791" lon="8.022284876748216"><ele>437.0</ele><time>2026-04-11T08:54:55Z</time></trkpt><trkpt lat="45.105304678862666" lon="8.022191176106997"><ele>439.0</ele><time>2026-04-11T08:54:56Z</time></trkpt><trkpt lat="45.105199218785586" lon="8.02210418147816"><ele>441.0</ele><time>2026-04-11T08:54:57Z</time></trkpt><trkpt lat="45.10509790311952" lon="8.022016717909787"><ele>441.0</ele><time>2026-04-11T08:54:58Z</time></trkpt><trkpt lat="45.10499235722703" lon="8.02194063618476"><ele>441.0</ele><time>2026-04-11T08:54:59Z</time></trkpt><trkpt lat="45.10488657185421" lon="8.021854530718265"><ele>441.0</ele><time>2026-04-11T08:55:00Z</time></trkpt><trkpt lat="45.104777513720194" lon="8.021764306070175"><ele>441.0</ele><time>2026-04-11T08:55:01Z</time></trkpt><trkpt lat="45.104668595470955" lon="8.021681285032125"><ele>440.25</ele><time>2026-04-11T08:55:02Z</time></trkpt><trkpt lat="45.1045595418616" lon="8.021633250656748"><ele>439.5</ele><time>2026-04-11T08:55:03Z</time></trkpt><trkpt lat="45.10444649184758" lon="8.021627691275095"><ele>438.75</ele><time>2026-04-11T08:55:04Z</time></trkpt><trkpt lat="45.10431748164185" lon="8.021645631051047"><ele>438.0</ele><time>2026-04-11T08:55:05Z</time></trkpt><trkpt lat="45.10416864638515" lon="8.021651563577128"><ele>435.0</ele><time>2026-04-11T08:55:06Z</time></trkpt><trkpt lat="45.104022888914606" lon="8.021629564781207"><ele>432.0</ele><time>2026-04-11T08:55:07Z</time></trkpt><trkpt lat="45.103890309866" lon="8.021611696570885"><ele>429.0</ele><time>2026-04-11T08:55:08Z</time></trkpt><trkpt lat="45.10374923737497" lon="8.021593402831082"><ele>426.0</ele><time>2026-04-11T08:55:09Z</time></trkpt><trkpt lat="45.1036191695086" lon="8.021579863239017"><ele>426.0</ele><time>2026-04-11T08:55:10Z</time></trkpt><trkpt lat="45.10350041725356" lon="8.021561642192964"><ele>426.0</ele><time>2026-04-11T08:55:11Z</time></trkpt><trkpt lat="45.1033726682135" lon="8.021562312892375"><ele>426.0</ele><time>2026-04-11T08:55:12Z</time></trkpt><trkpt lat="45.103241836784115" lon="8.021607355493867"><ele>426.0</ele><time>2026-04-11T08:55:13Z</time></trkpt><trkpt lat="45.10311051199523" lon="8.021687200839608"><ele>431.66666666666663</ele><time>2026-04-11T08:55:14Z</time></trkpt><trkpt lat="45.10297060286505" lon="8.021807869990035"><ele>437.3333333333333</ele><time>2026-04-11T08:55:15Z</time></trkpt><trkpt lat="45.1028109232234" lon="8.02195658244806"><ele>443.0</ele><time>2026-04-11T08:55:16Z</time></trkpt><trkpt lat="45.10262213320682" lon="8.022061066834933"><ele>443.0</ele><time>2026-04-11T08:55:17Z</time></trkpt><trkpt lat="45.1024459492168" lon="8.022108999029758"><ele>443.0</ele><time>2026-04-11T08:55:18Z</time></trkpt><trkpt lat="45.10228518863368" lon="8.022160374535442"><ele>443.0</ele><time>2026-04-11T08:55:19Z</time></trkpt><trkpt lat="45.1021370608865" lon="8.022219495170582"><ele>442.5</ele><time>2026-04-11T08:55:20Z</time></trkpt><trkpt lat="45.101994598165916" lon="8.02227303261399"><ele>442.0</ele><time>2026-04-11T08:55:21Z</time></trkpt><trkpt lat="45.101872252121005" lon="8.02232011630713"><ele>441.5</ele><time>2026-04-11T08:55:22Z</time></trkpt><trkpt lat="45.101751042185136" lon="8.02234323942239"><ele>441.0</ele><time>2026-04-11T08:55:23Z</time></trkpt><trkpt lat="45.10163550749064" lon="8.022366365847413"><ele>440.5</ele><time>2026-04-11T08:55:24Z</time></trkpt><trkpt lat="45.10151938217281" lon="8.022383299535708"><ele>440.0</ele><time>2026-04-11T08:55:25Z</time></trkpt><trkpt lat="45.1013984806407" lon="8.022406351619045"><ele>439.5</ele><time>2026-04-11T08:55:26Z</time></trkpt><trkpt lat="45.101265318367986" lon="8.022459667305919"><ele>439.0</ele><time>2026-04-11T08:55:27Z</time></trkpt><trkpt lat="45.10112798125218" lon="8.02256776480479"><ele>439.0</ele><time>2026-04-11T08:55:28Z</time></trkpt><trkpt lat="45.100986682092596" lon="8.022729390663324"><ele>439.0</ele><time>2026-04-11T08:55:29Z</time></trkpt><trkpt lat="45.100835900734744" lon="8.022903713158568"><ele>439.0</ele><time>2026-04-11T08:55:30Z</time></trkpt><trkpt lat="45.10067964154314" lon="8.023063818987545"><ele>440.0</ele><time>2026-04-11T08:55:31Z</time></trkpt><trkpt lat="45.100510920731516" lon="8.023216016321676"><ele>441.0</ele><time>2026-04-11T08:55:32Z</time></trkpt><trkpt lat="45.10034448997324" lon="8.023372003258947"><ele>442.0</ele><time>2026-04-11T08:55:33Z</time></trkpt><trkpt lat="45.10018881489944" lon="8.023519419546238"><ele>442.0</ele><time>2026-04-11T08:55:34Z</time></trkpt><trkpt lat="45.10003571176335" lon="8.023666141199259"><ele>442.0</ele><time>2026-04-11T08:55:35Z</time></trkpt><trkpt lat="45.09989703747694" lon="8.023804598836616"><ele>442.0</ele><time>2026-04-11T08:55:36Z</time></trkpt><trkpt lat="45.09975816070916" lon="8.023935735955737"><ele>442.0</ele><time>2026-04-11T08:55:37Z</time></trkpt><trkpt lat="45.09960437391772" lon="8.024056415088705"><ele>442.0</ele><time>2026-04-11T08:55:38Z</time></trkpt><trkpt lat="45.09942308513906" lon="8.024191759340164"><ele>442.0</ele><time>2026-04-11T08:55:39Z</time></trkpt><trkpt lat="45.09922786566853" lon="8.024328809498636"><ele>437.6666666666667</ele><time>2026-04-11T08:55:40Z</time></trkpt><trkpt lat="45.09903092883512" lon="8.024470915666058"><ele>433.33333333333337</ele><time>2026-04-11T08:55:41Z</time></trkpt><trkpt lat="45.09883787856149" lon="8.024611463502644"><ele>429.0</ele><time>2026-04-11T08:55:42Z</time></trkpt><trkpt lat="45.098659792753836" lon="8.024733498337076"><ele>429.0</ele><time>2026-04-11T08:55:43Z</time></trkpt><trkpt lat="45.098496101999864" lon="8.024845986500289"><ele>429.0</ele><time>2026-04-11T08:55:44Z</time></trkpt><trkpt lat="45.09833876761162" lon="8.024949401427287"><ele>429.0</ele><time>2026-04-11T08:55:45Z</time></trkpt><trkpt lat="45.09817014752139" lon="8.025035739075964"><ele>435.0</ele><time>2026-04-11T08:55:46Z</time></trkpt><trkpt lat="45.09800381688316" lon="8.025093888986362"><ele>441.0</ele><time>2026-04-11T08:55:47Z</time></trkpt><trkpt lat="45.09782905848561" lon="8.025119431200116"><ele>447.0</ele><time>2026-04-11T08:55:48Z</time></trkpt><trkpt lat="45.09764779093948" lon="8.025136635964003"><ele>447.0</ele><time>2026-04-11T08:55:49Z</time></trkpt><trkpt lat="45.09746902328458" lon="8.02516894591049"><ele>447.0</ele><time>2026-04-11T08:55:50Z</time></trkpt><trkpt lat="45.09728176126195" lon="8.025185956541533"><ele>447.0</ele><time>2026-04-11T08:55:51Z</time></trkpt><trkpt lat="45.09709712333274" lon="8.025200564320066"><ele>446.0</ele><time>2026-04-11T08:55:52Z</time></trkpt><trkpt lat="45.09691794543737" lon="8.025211061893167"><ele>445.0</ele><time>2026-04-11T08:55:53Z</time></trkpt><trkpt lat="45.09675996757625" lon="8.025228022580059"><ele>444.0</ele><time>2026-04-11T08:55:54Z</time></trkpt><trkpt lat="45.096619349118804" lon="8.025246958231772"><ele>442.0</ele><time>2026-04-11T08:55:55Z</time></trkpt><trkpt lat="45.09649583642009" lon="8.025278381117593"><ele>440.0</ele><time>2026-04-11T08:55:56Z</time></trkpt><trkpt lat="45.096362964860035" lon="8.02534183263097"><ele>438.0</ele><time>2026-04-11T08:55:57Z</time></trkpt><trkpt lat="45.09623885670489" lon="8.025448938975204"><ele>436.0</ele><time>2026-04-11T08:55:58Z</time></trkpt><trkpt lat="45.096111572679966" lon="8.025568267916452"><ele>436.0</ele><time>2026-04-11T08:55:59Z</time></trkpt><trkpt lat="45.09596518346488" lon="8.02565313952976"><ele>436.0</ele><time>2026-04-11T08:56:00Z</time></trkpt><trkpt lat="45.09580237093431" lon="8.025662498569641"><ele>436.0</ele><time>2026-04-11T08:56:01Z</time></trkpt><trkpt lat="45.09563032714923" lon="8.025682168755765"><ele>435.6666666666667</ele><time>2026-04-11T08:56:02Z</time></trkpt><trkpt lat="45.09544842383236" lon="8.025722272418077"><ele>435.33333333333337</ele><time>2026-04-11T08:56:03Z</time></trkpt><trkpt lat="45.095262425944476" lon="8.0257703843902"><ele>435.0</ele><time>2026-04-11T08:56:04Z</time></trkpt><trkpt lat="45.09506735605515" lon="8.025833545340628"><ele>436.0</ele><time>2026-04-11T08:56:05Z</time></trkpt><trkpt lat="45.09487472648302" lon="8.02589577190728"><ele>437.0</ele><time>2026-04-11T08:56:06Z</time></trkpt><trkpt lat="45.09469344381514" lon="8.025979836929167"><ele>438.0</ele><time>2026-04-11T08:56:07Z</time></trkpt><trkpt lat="45.09453261679888" lon="8.026095004681931"><ele>438.0</ele><time>2026-04-11T08:56:08Z</time></trkpt><trkpt lat="45.09437480096538" lon="8.026209909565235"><ele>438.0</ele><time>2026-04-11T08:56:09Z</time></trkpt><trkpt lat="45.09421576389793" lon="8.026326612675284"><ele>438.0</ele><time>2026-04-11T08:56:10Z</time></trkpt><trkpt lat="45.09405820038966" lon="8.02643670505916"><ele>439.0</ele><time>2026-04-11T08:56:11Z</time></trkpt><trkpt lat="45.093905484430984" lon="8.026546626427596"><ele>440.0</ele><time>2026-04-11T08:56:12Z</time></trkpt><trkpt lat="45.09375735476525" lon="8.026652819693947"><ele>441.0</ele><time>2026-04-11T08:56:13Z</time></trkpt><trkpt lat="45.09360337661512" lon="8.026738617472793"><ele>441.0</ele><time>2026-04-11T08:56:14Z</time></trkpt><trkpt lat="45.09347770488803" lon="8.026792276009319"><ele>441.0</ele><time>2026-04-11T08:56:15Z</time></trkpt><trkpt lat="45.093365393974835" lon="8.026825403663022"><ele>441.0</ele><time>2026-04-11T08:56:16Z</time></trkpt><trkpt lat="45.09327558460287" lon="8.026862629441041"><ele>441.0</ele><time>2026-04-11T08:56:17Z</time></trkpt><trkpt lat="45.09319335221007" lon="8.026931345710862"><ele>441.0</ele><time>2026-04-11T08:56:18Z</time></trkpt><trkpt lat="45.09311453930777" lon="8.0270550545625"><ele>438.75</ele><time>2026-04-11T08:56:19Z</time></trkpt><trkpt lat="45.093049001234945" lon="8.027227658187776"><ele>436.5</ele><time>2026-04-11T08:56:20Z</time></trkpt><trkpt lat="45.09299063722723" lon="8.027399704051664"><ele>434.25</ele><time>2026-04-11T08:56:21Z</time></trkpt><trkpt lat="45.09294071026373" lon="8.027551414489592"><ele>432.0</ele><time>2026-04-11T08:56:22Z</time></trkpt><trkpt lat="45.09293022542602" lon="8.027698495968025"><ele>432.0</ele><time>2026-04-11T08:56:23Z</time></trkpt><trkpt lat="45.09296084954516" lon="8.027850816975473"><ele>432.0</ele><time>2026-04-11T08:56:24Z</time></trkpt><trkpt lat="45.09304659724965" lon="8.027993139135045"><ele>432.0</ele><time>2026-04-11T08:56:25Z</time></trkpt><trkpt lat="45.09312544039674" lon="8.028165111982254"><ele>432.0</ele><time>2026-04-11T08:56:26Z</time></trkpt><trkpt lat="45.09321883728958" lon="8.028340017453651"><ele>437.66666666666663</ele><time>2026-04-11T08:56:27Z</time></trkpt><trkpt lat="45.09330880321135" lon="8.028530756339155"><ele>443.3333333333333</ele><time>2026-04-11T08:56:28Z</time></trkpt><trkpt lat="45.09335605012381" lon="8.02876699531231"><ele>449.0</ele><time>2026-04-11T08:56:29Z</time></trkpt><trkpt lat="45.09338795397838" lon="8.028987210483239"><ele>446.25</ele><time>2026-04-11T08:56:30Z</time></trkpt><trkpt lat="45.093400173060736" lon="8.029195292481234"><ele>443.5</ele><time>2026-04-11T08:56:31Z</time></trkpt><trkpt lat="45.09338187296547" lon="8.02937081817704"><ele>440.75</ele><time>2026-04-11T08:56:32Z</time></trkpt><trkpt lat="45.093313697550165" lon="8.029535618495903"><ele>438.0</ele><time>2026-04-11T08:56:33Z</time></trkpt><trkpt lat="45.093210155452645" lon="8.029706280610725"><ele>431.0</ele><time>2026-04-11T08:56:34Z</time></trkpt><trkpt lat="45.09310698714887" lon="8.029911753588497"><ele>424.0</ele><time>2026-04-11T08:56:35Z</time></trkpt><trkpt lat="45.09300677084617" lon="8.030074584168265"><ele>417.0</ele><time>2026-04-11T08:56:36Z</time></trkpt><trkpt lat="45.0929239286191" lon="8.030229808619843"><ele>417.0</ele><time>2026-04-11T08:56:37Z</time></trkpt><trkpt lat="45.09285110508707" lon="8.030372775896588"><ele>417.0</ele><time>2026-04-11T08:56:38Z</time></trkpt><trkpt lat="45.09277716064419" lon="8.030513338619029"><ele>417.0</ele><time>2026-04-11T08:56:39Z</time></trkpt><trkpt lat="45.09268044404467" lon="8.030609222177203"><ele>417.0</ele><time>2026-04-11T08:56:40Z</time></trkpt><trkpt lat="45.09258276607564" lon="8.030708819513015"><ele>421.0</ele><time>2026-04-11T08:56:41Z</time></trkpt><trkpt lat="45.092455206227456" lon="8.030815680496909"><ele>425.0</ele><time>2026-04-11T08:56:42Z</time></trkpt><trkpt lat="45.092314448591864" lon="8.030930125270038"><ele>429.0</ele><time>2026-04-11T08:56:43Z</time></trkpt><trkpt lat="45.09217582273912" lon="8.031053094109604"><ele>429.0</ele><time>2026-04-11T08:56:44Z</time></trkpt><trkpt lat="45.09200932533403" lon="8.031137512587604"><ele>429.0</ele><time>2026-04-11T08:56:45Z</time></trkpt><trkpt lat="45.09183603636483" lon="8.031210134796114"><ele>429.0</ele><time>2026-04-11T08:56:46Z</time></trkpt><trkpt lat="45.091665200191564" lon="8.031289718032033"><ele>426.0</ele><time>2026-04-11T08:56:47Z</time></trkpt><trkpt lat="45.091505384551326" lon="8.031367035310897"><ele>423.0</ele><time>2026-04-11T08:56:48Z</time></trkpt><trkpt lat="45.09137265621403" lon="8.031430361139522"><ele>420.0</ele><time>2026-04-11T08:56:49Z</time></trkpt><trkpt lat="45.091258642324796" lon="8.031492559317442"><ele>417.0</ele><time>2026-04-11T08:56:50Z</time></trkpt><trkpt lat="45.09116352974766" lon="8.031556659761568"><ele>417.0</ele><time>2026-04-11T08:56:51Z</time></trkpt><trkpt lat="45.09108498246641" lon="8.031636916211278"><ele>417.0</ele><time>2026-04-11T08:56:52Z</time></trkpt><trkpt lat="45.091023114176764" lon="8.031760905138972"><ele>417.0</ele><time>2026-04-11T08:56:53Z</time></trkpt><trkpt lat="45.09097811593171" lon="8.031943527605497"><ele>417.0</ele><time>2026-04-11T08:56:54Z</time></trkpt><trkpt lat="45.09092636988501" lon="8.032130930451498"><ele>417.25</ele><time>2026-04-11T08:56:55Z</time></trkpt><trkpt lat="45.09086262291744" lon="8.032299836958183"><ele>417.5</ele><time>2026-04-11T08:56:56Z</time></trkpt><trkpt lat="45.09078505827601" lon="8.032464386110655"><ele>417.75</ele><time>2026-04-11T08:56:57Z</time></trkpt><trkpt lat="45.09068631853695" lon="8.032617800315554"><ele>418.0</ele><time>2026-04-11T08:56:58Z</time></trkpt><trkpt lat="45.09058213403256" lon="8.032772171154773"><ele>418.0</ele><time>2026-04-11T08:56:59Z</time></trkpt><trkpt lat="45.09047404217941" lon="8.032941136949502"><ele>418.0</ele><time>2026-04-11T08:57:00Z</time></trkpt><trkpt lat="45.090361518073415" lon="8.0331134792575"><ele>418.0</ele><time>2026-04-11T08:57:01Z</time></trkpt><trkpt lat="45.09024094346872" lon="8.03327648068391"><ele>422.33333333333337</ele><time>2026-04-11T08:57:02Z</time></trkpt><trkpt lat="45.090111213350475" lon="8.033419940705684"><ele>426.66666666666663</ele><time>2026-04-11T08:57:03Z</time></trkpt><trkpt lat="45.08998830644059" lon="8.033568428130115"><ele>431.0</ele><time>2026-04-11T08:57:04Z</time></trkpt><trkpt lat="45.089856607462245" lon="8.033728135200079"><ele>431.0</ele><time>2026-04-11T08:57:05Z</time></trkpt><trkpt lat="45.089748330793576" lon="8.03391374909664"><ele>431.0</ele><time>2026-04-11T08:57:06Z</time></trkpt><trkpt lat="45.08963139982471" lon="8.034083369913255"><ele>431.0</ele><time>2026-04-11T08:57:07Z</time></trkpt><trkpt lat="45.089522559327314" lon="8.034233866664263"><ele>435.0</ele><time>2026-04-11T08:57:08Z</time></trkpt><trkpt lat="45.08942841839463" lon="8.034364439636427"><ele>439.0</ele><time>2026-04-11T08:57:09Z</time></trkpt><trkpt lat="45.08934409827853" lon="8.034473132221029"><ele>443.0</ele><time>2026-04-11T08:57:10Z</time></trkpt><trkpt lat="45.089272543277886" lon="8.034564671955398"><ele>447.0</ele><time>2026-04-11T08:57:11Z</time></trkpt><trkpt lat="45.089224281691614" lon="8.034653388963575"><ele>451.0</ele><time>2026-04-11T08:57:12Z</time></trkpt><trkpt lat="45.08921048996884" lon="8.034756213542776"><ele>451.0</ele><time>2026-04-11T08:57:13Z</time></trkpt><trkpt lat="45.089198342735116" lon="8.034858969809825"><ele>451.0</ele><time>2026-04-11T08:57:14Z</time></trkpt><trkpt lat="45.089254359387546" lon="8.034973594898867"><ele>451.0</ele><time>2026-04-11T08:57:15Z</time></trkpt><trkpt lat="45.08927702200796" lon="8.035107087238961"><ele>451.0</ele><time>2026-04-11T08:57:16Z</time></trkpt><trkpt lat="45.08927009748397" lon="8.035256298871813"><ele>451.0</ele><time>2026-04-11T08:57:17Z</time></trkpt><trkpt lat="45.08924172721246" lon="8.035411523066696"><ele>452.75</ele><time>2026-04-11T08:57:18Z</time></trkpt><trkpt lat="45.089189864092795" lon="8.035565249095795"><ele>454.5</ele><time>2026-04-11T08:57:19Z</time></trkpt><trkpt lat="45.089112791528215" lon="8.035718592672776"><ele>456.25</ele><time>2026-04-11T08:57:20Z</time></trkpt><trkpt lat="45.08903118050614" lon="8.035881120372155"><ele>458.0</ele><time>2026-04-11T08:57:21Z</time></trkpt><trkpt lat="45.08894200808067" lon="8.036064113706116"><ele>461.66666666666663</ele><time>2026-04-11T08:57:22Z</time></trkpt><trkpt lat="45.08885006834135" lon="8.036282824155164"><ele>465.33333333333337</ele><time>2026-04-11T08:57:23Z</time></trkpt><trkpt lat="45.08878745584653" lon="8.036519793250656"><ele>469.0</ele><time>2026-04-11T08:57:24Z</time></trkpt><trkpt lat="45.08873358317096" lon="8.036744888549638"><ele>471.6666666666667</ele><time>2026-04-11T08:57:25Z</time></trkpt><trkpt lat="45.088684214969376" lon="8.036966159701239"><ele>474.33333333333337</ele><time>2026-04-11T08:57:26Z</time></trkpt><trkpt lat="45.08863738345865" lon="8.037182828058233"><ele>477.0</ele><time>2026-04-11T08:57:27Z</time></trkpt><trkpt lat="45.088588528292384" lon="8.037391841781023"><ele>476.33333333333337</ele><time>2026-04-11T08:57:28Z</time></trkpt><trkpt lat="45.0885502591172" lon="8.03760364380281"><ele>475.6666666666667</ele><time>2026-04-11T08:57:29Z</time></trkpt><trkpt lat="45.08853960701761" lon="8.037821014986534"><ele>475.0</ele><time>2026-04-11T08:57:30Z</time></trkpt><trkpt lat="45.088547944868246" lon="8.038039972307358"><ele>475.0</ele><time>2026-04-11T08:57:31Z</time></trkpt><trkpt lat="45.088550583543906" lon="8.038244855965369"><ele>475.0</ele><time>2026-04-11T08:57:32Z</time></trkpt><trkpt lat="45.088528059349294" lon="8.038440169748544"><ele>475.0</ele><time>2026-04-11T08:57:33Z</time></trkpt><trkpt lat="45.08852502685021" lon="8.038636210896895"><ele>475.0</ele><time>2026-04-11T08:57:34Z</time></trkpt><trkpt lat="45.08854067523309" lon="8.038801331837082"><ele>474.0</ele><time>2026-04-11T08:57:35Z</time></trkpt><trkpt lat="45.088532863929316" lon="8.038936119815077"><ele>473.0</ele><time>2026-04-11T08:57:36Z</time></trkpt><trkpt lat="45.088495992924784" lon="8.039039195176317"><ele>472.0</ele><time>2026-04-11T08:57:37Z</time></trkpt><trkpt lat="45.08847072689016" lon="8.039150278948274"><ele>471.0</ele><time>2026-04-11T08:57:38Z</time></trkpt><trkpt lat="45.08843056933377" lon="8.03922729248172"><ele>470.0</ele><time>2026-04-11T08:57:39Z</time></trkpt><trkpt lat="45.08834379705997" lon="8.039379597452552"><ele>469.2</ele><time>2026-04-11T08:57:41Z</time></trkpt><trkpt lat="45.08828040417163" lon="8.039490733869664"><ele>468.4</ele><time>2026-04-11T08:57:42Z</time></trkpt><trkpt lat="45.088207729686275" lon="8.039606139292633"><ele>467.6</ele><time>2026-04-11T08:57:43Z</time></trkpt><trkpt lat="45.088125573393896" lon="8.039728239560011"><ele>466.8</ele><time>2026-04-11T08:57:44Z</time></trkpt><trkpt lat="45.088047378686966" lon="8.039854086996877"><ele>466.0</ele><time>2026-04-11T08:57:45Z</time></trkpt><trkpt lat="45.087962226733154" lon="8.03998228175305"><ele>464.75</ele><time>2026-04-11T08:57:46Z</time></trkpt><trkpt lat="45.08787009890163" lon="8.040103989143951"><ele>463.5</ele><time>2026-04-11T08:57:47Z</time></trkpt><trkpt lat="45.087774556490054" lon="8.040222578286835"><ele>462.25</ele><time>2026-04-11T08:57:48Z</time></trkpt><trkpt lat="45.08768220931602" lon="8.040336771391882"><ele>461.0</ele><time>2026-04-11T08:57:49Z</time></trkpt><trkpt lat="45.087594139669314" lon="8.040454895327946"><ele>461.0</ele><time>2026-04-11T08:57:50Z</time></trkpt><trkpt lat="45.08750635506422" lon="8.040568475065111"><ele>461.0</ele><time>2026-04-11T08:57:51Z</time></trkpt><trkpt lat="45.087416559579026" lon="8.040683726610022"><ele>461.0</ele><time>2026-04-11T08:57:52Z</time></trkpt><trkpt lat="45.08732321579136" lon="8.040796919725013"><ele>461.0</ele><time>2026-04-11T08:57:53Z</time></trkpt><trkpt lat="45.08723677818489" lon="8.040911642704147"><ele>457.8</ele><time>2026-04-11T08:57:54Z</time></trkpt><trkpt lat="45.08715366424529" lon="8.041019264417711"><ele>454.6</ele><time>2026-04-11T08:57:55Z</time></trkpt><trkpt lat="45.08707740848771" lon="8.041111692435495"><ele>451.4</ele><time>2026-04-11T08:57:56Z</time></trkpt><trkpt lat="45.08701433257021" lon="8.041199427857928"><ele>448.2</ele><time>2026-04-11T08:57:57Z</time></trkpt><trkpt lat="45.086955649881716" lon="8.041274968424702"><ele>445.0</ele><time>2026-04-11T08:57:58Z</time></trkpt><trkpt lat="45.08689238079365" lon="8.041317522618707"><ele>445.0</ele><time>2026-04-11T08:57:59Z</time></trkpt><trkpt lat="45.08677924830523" lon="8.041298599146893"><ele>445.0</ele><time>2026-04-11T08:58:01Z</time></trkpt><trkpt lat="45.08669638071749" lon="8.041229466301125"><ele>445.0</ele><time>2026-04-11T08:58:03Z</time></trkpt><trkpt lat="45.08664049383924" lon="8.041181428399451"><ele>445.0</ele><time>2026-04-11T08:58:04Z</time></trkpt><trkpt lat="45.08657342602793" lon="8.041097304972169"><ele>445.0</ele><time>2026-04-11T08:58:05Z</time></trkpt><trkpt lat="45.08651291946113" lon="8.040989286316025"><ele>443.0</ele><time>2026-04-11T08:58:06Z</time></trkpt><trkpt lat="45.0864718111562" lon="8.04084625678651"><ele>441.0</ele><time>2026-04-11T08:58:07Z</time></trkpt><trkpt lat="45.086405485939295" lon="8.040737069782784"><ele>439.0</ele><time>2026-04-11T08:58:08Z</time></trkpt><trkpt lat="45.086349378904636" lon="8.040634408625637"><ele>437.0</ele><time>2026-04-11T08:58:09Z</time></trkpt><trkpt lat="45.08629100479702" lon="8.040550780450044"><ele>435.0</ele><time>2026-04-11T08:58:10Z</time></trkpt><trkpt lat="45.0862434057684" lon="8.040469060209267"><ele>435.0</ele><time>2026-04-11T08:58:11Z</time></trkpt><trkpt lat="45.08619925920759" lon="8.040396197891019"><ele>435.0</ele><time>2026-04-11T08:58:12Z</time></trkpt><trkpt lat="45.086099398084706" lon="8.040228818107275"><ele>435.0</ele><time>2026-04-11T08:58:15Z</time></trkpt><trkpt lat="45.08604002038541" lon="8.04010763622907"><ele>435.0</ele><time>2026-04-11T08:58:17Z</time></trkpt><trkpt lat="45.08601691906622" lon="8.040019475680399"><ele>435.0</ele><time>2026-04-11T08:58:19Z</time></trkpt><trkpt lat="45.08602995744791" lon="8.040161691033086"><ele>435.0</ele><time>2026-04-11T08:59:55Z</time></trkpt><trkpt lat="45.085827165482534" lon="8.040298821639848"><ele>435.0</ele><time>2026-04-11T08:59:57Z</time></trkpt><trkpt lat="45.08580150417947" lon="8.040381703159694"><ele>435.0</ele><time>2026-04-11T08:59:58Z</time></trkpt><trkpt lat="45.08577275357006" lon="8.040565115597849"><ele>435.0</ele><time>2026-04-11T09:00:00Z</time></trkpt><trkpt lat="45.08570836721901" lon="8.040472546306258"><ele>433.6</ele><time>2026-04-11T09:00:01Z</time></trkpt><trkpt lat="45.08567216163477" lon="8.040547883288351"><ele>432.2</ele><time>2026-04-11T09:00:03Z</time></trkpt><trkpt lat="45.08562296619119" lon="8.04069001491579"><ele>430.79999999999995</ele><time>2026-04-11T09:00:05Z</time></trkpt><trkpt lat="45.08556153889258" lon="8.040757487384813"><ele>429.4</ele><time>2026-04-11T09:00:06.067Z</time></trkpt><trkpt lat="45.08550606645023" lon="8.040818737583715"><ele>428.0</ele><time>2026-04-11T09:00:07.034Z</time></trkpt><trkpt lat="45.085581842344354" lon="8.040369975364838"><ele>428.0</ele><time>2026-04-11T09:00:11.06Z</time></trkpt><trkpt lat="45.08572159360263" lon="8.040026071076639"><ele>428.0</ele><time>2026-04-11T09:00:23.033Z</time></trkpt><trkpt lat="45.085806393288486" lon="8.040020337663998"><ele>428.0</ele><time>2026-04-11T09:00:26Z</time></trkpt><trkpt lat="45.08590077354137" lon="8.03997874345029"><ele>429.16666666666663</ele><time>2026-04-11T09:03:22Z</time></trkpt><trkpt lat="45.085960011711286" lon="8.040018270934585"><ele>430.3333333333333</ele><time>2026-04-11T09:03:29Z</time></trkpt><trkpt lat="45.08598379307174" lon="8.04010445554493"><ele>431.5</ele><time>2026-04-11T09:10:56Z</time></trkpt><trkpt lat="45.086041864590264" lon="8.040154771260694"><ele>432.66666666666663</ele><time>2026-04-11T09:21:06Z</time></trkpt><trkpt lat="45.08607198756147" lon="8.040277764419745"><ele>433.8333333333333</ele><time>2026-04-11T09:21:08Z</time></trkpt><trkpt lat="45.08608341482574" lon="8.040406764503878"><ele>435.0</ele><time>2026-04-11T09:21:10Z</time></trkpt><trkpt lat="45.08603151387244" lon="8.0405010584847"><ele>435.0</ele><time>2026-04-11T09:21:12Z</time></trkpt><trkpt lat="45.08591013307106" lon="8.040478446945482"><ele>435.0</ele><time>2026-04-11T09:21:14.001Z</time></trkpt><trkpt lat="45.0858558981932" lon="8.040426169951127"><ele>435.0</ele><time>2026-04-11T09:21:15.001Z</time></trkpt><trkpt lat="45.08579983992814" lon="8.040373840995324"><ele>435.0</ele><time>2026-04-11T09:21:16.001Z</time></trkpt><trkpt lat="45.085737368031346" lon="8.040331316128837"><ele>435.0</ele><time>2026-04-11T09:21:17.001Z</time></trkpt><trkpt lat="45.08567858104805" lon="8.04028805972558"><ele>435.0</ele><time>2026-04-11T09:21:18.001Z</time></trkpt><trkpt lat="45.08557608581296" lon="8.040249050161368"><ele>435.0</ele><time>2026-04-11T09:21:20.001Z</time></trkpt><trkpt lat="45.08553593389997" lon="8.04033098449495"><ele>435.0</ele><time>2026-04-11T09:21:22.001Z</time></trkpt><trkpt lat="45.08558223169787" lon="8.04043185531961"><ele>435.0</ele><time>2026-04-11T09:21:24.001Z</time></trkpt><trkpt lat="45.08567862257972" lon="8.040509007582232"><ele>435.0</ele><time>2026-04-11T09:21:26.001Z</time></trkpt><trkpt lat="45.08573030880204" lon="8.040565893435708"><ele>435.0</ele><time>2026-04-11T09:21:27.001Z</time></trkpt><trkpt lat="45.0858191232574" lon="8.04070119449332"><ele>435.00000000000006</ele><time>2026-04-11T09:21:29.001Z</time></trkpt><trkpt lat="45.08586872308236" lon="8.040787409160977"><ele>435.0</ele><time>2026-04-11T09:21:30.001Z</time></trkpt><trkpt lat="45.08591122262521" lon="8.04087603801731"><ele>435.0</ele><time>2026-04-11T09:21:31.001Z</time></trkpt><trkpt lat="45.08594461596889" lon="8.040956052247408"><ele>435.0</ele><time>2026-04-11T09:21:32.001Z</time></trkpt><trkpt lat="45.08597549297719" lon="8.041035550357728"><ele>435.0</ele><time>2026-04-11T09:21:33.001Z</time></trkpt><trkpt lat="45.08600293919326" lon="8.041116045296869"><ele>435.00000000000006</ele><time>2026-04-11T09:21:34.001Z</time></trkpt><trkpt lat="45.086024151511786" lon="8.041210863214351"><ele>435.0</ele><time>2026-04-11T09:21:36.001Z</time></trkpt><trkpt lat="45.085954761553126" lon="8.041237405612751"><ele>435.0</ele><time>2026-04-11T09:21:40.001Z</time></trkpt><trkpt lat="45.08595078869936" lon="8.041136902107246"><ele>435.0</ele><time>2026-04-11T09:21:43.001Z</time></trkpt><trkpt lat="45.085985152686064" lon="8.041014434033523"><ele>435.0</ele><time>2026-04-11T09:21:45.001Z</time></trkpt><trkpt lat="45.08596156955911" lon="8.040928184471117"><ele>435.0</ele><time>2026-04-11T09:21:46.001Z</time></trkpt><trkpt lat="45.085914249489" lon="8.04084818928901"><ele>435.0</ele><time>2026-04-11T09:21:47.001Z</time></trkpt><trkpt lat="45.085863801240386" lon="8.04075667846418"><ele>435.0</ele><time>2026-04-11T09:21:48.001Z</time></trkpt><trkpt lat="45.08581789633814" lon="8.040661890331632"><ele>435.0</ele><time>2026-04-11T09:21:49.001Z</time></trkpt><trkpt lat="45.085778880532544" lon="8.04057842121834"><ele>435.0</ele><time>2026-04-11T09:21:50.001Z</time></trkpt><trkpt lat="45.085720795121794" lon="8.040492270509683"><ele>435.0</ele><time>2026-04-11T09:21:51.001Z</time></trkpt><trkpt lat="45.085651603075426" lon="8.040425277051577"><ele>435.0</ele><time>2026-04-11T09:21:52.001Z</time></trkpt><trkpt lat="45.08558818812909" lon="8.0403624550673"><ele>435.0</ele><time>2026-04-11T09:21:53.001Z</time></trkpt><trkpt lat="45.08551517034102" lon="8.040254321857288"><ele>435.0</ele><time>2026-04-11T09:21:55.001Z</time></trkpt><trkpt lat="45.0854377667644" lon="8.04020594912823"><ele>433.8333333333333</ele><time>2026-04-11T09:21:57.001Z</time></trkpt><trkpt lat="45.085319236833044" lon="8.04022721458995"><ele>432.66666666666663</ele><time>2026-04-11T09:21:59.001Z</time></trkpt><trkpt lat="45.08525045130074" lon="8.040236705166926"><ele>431.5</ele><time>2026-04-11T09:22:00.001Z</time></trkpt><trkpt lat="45.085184764158846" lon="8.04025400191553"><ele>430.3333333333333</ele><time>2026-04-11T09:22:01.001Z</time></trkpt><trkpt lat="45.085113088892605" lon="8.040265094072756"><ele>429.16666666666663</ele><time>2026-04-11T09:22:02.001Z</time></trkpt><trkpt lat="45.084993533424026" lon="8.040279264892044"><ele>428.0</ele><time>2026-04-11T09:22:04.001Z</time></trkpt><trkpt lat="45.08492086291613" lon="8.040266818859399"><ele>426.66666666666663</ele><time>2026-04-11T09:22:05.001Z</time></trkpt><trkpt lat="45.08486580337051" lon="8.040313627535859"><ele>425.3333333333333</ele><time>2026-04-11T09:22:06.001Z</time></trkpt><trkpt lat="45.08478665719908" lon="8.040345179195677"><ele>424.0</ele><time>2026-04-11T09:22:07.001Z</time></trkpt><trkpt lat="45.08469973879964" lon="8.040384030136524"><ele>422.66666666666663</ele><time>2026-04-11T09:22:08.001Z</time></trkpt><trkpt lat="45.08460808428432" lon="8.04038457209779"><ele>421.3333333333333</ele><time>2026-04-11T09:22:09.001Z</time></trkpt><trkpt lat="45.08451713274899" lon="8.040400764252022"><ele>420.0</ele><time>2026-04-11T09:22:10.001Z</time></trkpt><trkpt lat="45.084435357978634" lon="8.04040070362176"><ele>420.0</ele><time>2026-04-11T09:22:11.001Z</time></trkpt><trkpt lat="45.08435099282323" lon="8.040420338936302"><ele>420.0</ele><time>2026-04-11T09:22:12.001Z</time></trkpt><trkpt lat="45.08427043923623" lon="8.040394997762677"><ele>420.0</ele><time>2026-04-11T09:22:13.001Z</time></trkpt><trkpt lat="45.08418375943557" lon="8.040403119438977"><ele>420.0</ele><time>2026-04-11T09:22:14.001Z</time></trkpt><trkpt lat="45.084114288525086" lon="8.040387588601396"><ele>420.0</ele><time>2026-04-11T09:22:15.001Z</time></trkpt><trkpt lat="45.08405059304722" lon="8.04038112082696"><ele>420.0</ele><time>2026-04-11T09:22:16.001Z</time></trkpt><trkpt lat="45.083949167055074" lon="8.040345642641114"><ele>415.6666666666667</ele><time>2026-04-11T09:22:18.001Z</time></trkpt><trkpt lat="45.08385214722343" lon="8.040256212758633"><ele>411.33333333333337</ele><time>2026-04-11T09:22:20.001Z</time></trkpt><trkpt lat="45.08381483352363" lon="8.040167658573866"><ele>407.0</ele><time>2026-04-11T09:22:21.001Z</time></trkpt><trkpt lat="45.083755300089955" lon="8.040083979382787"><ele>402.6666666666667</ele><time>2026-04-11T09:22:22.001Z</time></trkpt><trkpt lat="45.08371816886454" lon="8.039989338037676"><ele>398.33333333333337</ele><time>2026-04-11T09:22:23.001Z</time></trkpt><trkpt lat="45.08368614430407" lon="8.039887330270368"><ele>394.0</ele><time>2026-04-11T09:22:24.001Z</time></trkpt><trkpt lat="45.08366198128199" lon="8.039773565145167"><ele>391.79999999999995</ele><time>2026-04-11T09:22:25.001Z</time></trkpt><trkpt lat="45.083639802808385" lon="8.039628663784072"><ele>389.59999999999997</ele><time>2026-04-11T09:22:26.001Z</time></trkpt><trkpt lat="45.083615629443614" lon="8.039470275462593"><ele>387.4</ele><time>2026-04-11T09:22:27.001Z</time></trkpt><trkpt lat="45.08359405029082" lon="8.039335191582158"><ele>385.2</ele><time>2026-04-11T09:22:28.001Z</time></trkpt><trkpt lat="45.08356680031207" lon="8.039200975699694"><ele>383.0</ele><time>2026-04-11T09:22:29.001Z</time></trkpt><trkpt lat="45.08350975575211" lon="8.039082441643593"><ele>382.5</ele><time>2026-04-11T09:22:30.001Z</time></trkpt><trkpt lat="45.083453813889456" lon="8.03897127181683"><ele>382.0</ele><time>2026-04-11T09:22:31.001Z</time></trkpt><trkpt lat="45.083372768104226" lon="8.038879826252343"><ele>381.5</ele><time>2026-04-11T09:22:32.001Z</time></trkpt><trkpt lat="45.08327451445996" lon="8.038796281904862"><ele>381.0</ele><time>2026-04-11T09:22:33.001Z</time></trkpt><trkpt lat="45.083154390190515" lon="8.03868635052377"><ele>375.0</ele><time>2026-04-11T09:22:34.001Z</time></trkpt><trkpt lat="45.08302346139259" lon="8.038547624558637"><ele>369.0</ele><time>2026-04-11T09:22:35.001Z</time></trkpt><trkpt lat="45.08292117701643" lon="8.038354839363128"><ele>363.0</ele><time>2026-04-11T09:22:36.001Z</time></trkpt><trkpt lat="45.08281043933905" lon="8.038190456774775"><ele>363.0</ele><time>2026-04-11T09:22:37.001Z</time></trkpt><trkpt lat="45.08268967327314" lon="8.038060890781068"><ele>363.0</ele><time>2026-04-11T09:22:38.001Z</time></trkpt><trkpt lat="45.08258020059029" lon="8.037930448562866"><ele>363.0</ele><time>2026-04-11T09:22:39.001Z</time></trkpt><trkpt lat="45.08246363317818" lon="8.03783012158361"><ele>363.0</ele><time>2026-04-11T09:22:40.001Z</time></trkpt><trkpt lat="45.082340208866285" lon="8.037741905905577"><ele>363.0</ele><time>2026-04-11T09:22:41.001Z</time></trkpt><trkpt lat="45.082212810707155" lon="8.037656770352436"><ele>363.0</ele><time>2026-04-11T09:22:42.001Z</time></trkpt><trkpt lat="45.082088412517855" lon="8.037571687757115"><ele>363.0</ele><time>2026-04-11T09:22:43.001Z</time></trkpt><trkpt lat="45.081960604941735" lon="8.037495999736377"><ele>363.0</ele><time>2026-04-11T09:22:44.001Z</time></trkpt><trkpt lat="45.081828740153796" lon="8.03744325085243"><ele>363.2</ele><time>2026-04-11T09:22:45.001Z</time></trkpt><trkpt lat="45.08170648400405" lon="8.037405859998795"><ele>363.4</ele><time>2026-04-11T09:22:46.001Z</time></trkpt><trkpt lat="45.08159441165916" lon="8.037367629663335"><ele>363.59999999999997</ele><time>2026-04-11T09:22:47.001Z</time></trkpt><trkpt lat="45.081503336333846" lon="8.037307015787578"><ele>363.79999999999995</ele><time>2026-04-11T09:22:48.001Z</time></trkpt><trkpt lat="45.0814618143535" lon="8.037196016641127"><ele>364.0</ele><time>2026-04-11T09:22:49.001Z</time></trkpt><trkpt lat="45.08143166005222" lon="8.03708190975355"><ele>364.79999999999995</ele><time>2026-04-11T09:22:50.001Z</time></trkpt><trkpt lat="45.08139256629142" lon="8.036951080534962"><ele>365.59999999999997</ele><time>2026-04-11T09:22:51.001Z</time></trkpt><trkpt lat="45.08133087972922" lon="8.036813965182997"><ele>366.4</ele><time>2026-04-11T09:22:52.001Z</time></trkpt><trkpt lat="45.08128255343597" lon="8.0366699758845"><ele>367.2</ele><time>2026-04-11T09:22:53Z</time></trkpt><trkpt lat="45.08122142234314" lon="8.036544188065683"><ele>368.0</ele><time>2026-04-11T09:22:54Z</time></trkpt><trkpt lat="45.08113447838235" lon="8.036423337815457"><ele>370.0</ele><time>2026-04-11T09:22:55Z</time></trkpt><trkpt lat="45.08103596810192" lon="8.036306126527588"><ele>372.0</ele><time>2026-04-11T09:22:56Z</time></trkpt><trkpt lat="45.0809634365702" lon="8.03615329678528"><ele>374.0</ele><time>2026-04-11T09:22:57Z</time></trkpt><trkpt lat="45.08090477618771" lon="8.036003517137814"><ele>376.0</ele><time>2026-04-11T09:22:58Z</time></trkpt><trkpt lat="45.080866595898655" lon="8.035862933921251"><ele>375.20000000000005</ele><time>2026-04-11T09:22:59Z</time></trkpt><trkpt lat="45.080815080821665" lon="8.035744670936067"><ele>374.40000000000003</ele><time>2026-04-11T09:23:00Z</time></trkpt><trkpt lat="45.08075544917302" lon="8.035651154318774"><ele>373.6</ele><time>2026-04-11T09:23:01Z</time></trkpt><trkpt lat="45.08067641967757" lon="8.035588277170259"><ele>372.8</ele><time>2026-04-11T09:23:02Z</time></trkpt><trkpt lat="45.08057580898362" lon="8.035556879237255"><ele>372.0</ele><time>2026-04-11T09:23:03Z</time></trkpt><trkpt lat="45.080467730651165" lon="8.035532902212225"><ele>372.0</ele><time>2026-04-11T09:23:04Z</time></trkpt><trkpt lat="45.080348366955924" lon="8.035501911367222"><ele>372.0</ele><time>2026-04-11T09:23:05Z</time></trkpt><trkpt lat="45.08023964449956" lon="8.035419904056784"><ele>372.0</ele><time>2026-04-11T09:23:06Z</time></trkpt><trkpt lat="45.080134096665745" lon="8.035331954071738"><ele>372.0</ele><time>2026-04-11T09:23:07Z</time></trkpt><trkpt lat="45.080046267346646" lon="8.035216860258243"><ele>372.0</ele><time>2026-04-11T09:23:08Z</time></trkpt><trkpt lat="45.07996348187452" lon="8.035093599929894"><ele>372.0</ele><time>2026-04-11T09:23:09Z</time></trkpt><trkpt lat="45.07986626357968" lon="8.035020244753559"><ele>372.0</ele><time>2026-04-11T09:23:10Z</time></trkpt><trkpt lat="45.07976543398667" lon="8.034976986309065"><ele>372.0</ele><time>2026-04-11T09:23:11Z</time></trkpt><trkpt lat="45.079659982813006" lon="8.03495033302084"><ele>372.0</ele><time>2026-04-11T09:23:12Z</time></trkpt><trkpt lat="45.07957166839352" lon="8.034861793562014"><ele>375.8</ele><time>2026-04-11T09:23:13Z</time></trkpt><trkpt lat="45.07949218572825" lon="8.034758233124741"><ele>379.6</ele><time>2026-04-11T09:23:14Z</time></trkpt><trkpt lat="45.07941451738502" lon="8.034680416599524"><ele>383.40000000000003</ele><time>2026-04-11T09:23:15Z</time></trkpt><trkpt lat="45.07933480864171" lon="8.03464271033605"><ele>387.20000000000005</ele><time>2026-04-11T09:23:16Z</time></trkpt><trkpt lat="45.07924419384194" lon="8.03469352415139"><ele>391.0</ele><time>2026-04-11T09:23:17Z</time></trkpt><trkpt lat="45.079158603194706" lon="8.034737084554958"><ele>387.0</ele><time>2026-04-11T09:23:18Z</time></trkpt><trkpt lat="45.07906305395972" lon="8.03474814688047"><ele>383.0</ele><time>2026-04-11T09:23:19Z</time></trkpt><trkpt lat="45.078973223550804" lon="8.034658530146377"><ele>379.0</ele><time>2026-04-11T09:23:20Z</time></trkpt><trkpt lat="45.078863881193314" lon="8.034623963215633"><ele>375.0</ele><time>2026-04-11T09:23:21Z</time></trkpt><trkpt lat="45.07875293884291" lon="8.03455175992926"><ele>371.0</ele><time>2026-04-11T09:23:22Z</time></trkpt><trkpt lat="45.07863553115596" lon="8.034481742386427"><ele>371.0</ele><time>2026-04-11T09:23:23Z</time></trkpt><trkpt lat="45.078513997581176" lon="8.034409602476202"><ele>371.0</ele><time>2026-04-11T09:23:24Z</time></trkpt><trkpt lat="45.07839324191323" lon="8.034354566113134"><ele>371.0</ele><time>2026-04-11T09:23:25Z</time></trkpt><trkpt lat="45.07827911848184" lon="8.034289430265108"><ele>371.0</ele><time>2026-04-11T09:23:26.001Z</time></trkpt><trkpt lat="45.0781808707077" lon="8.034206758530617"><ele>365.4</ele><time>2026-04-11T09:23:27.001Z</time></trkpt><trkpt lat="45.07808958645419" lon="8.03411468883275"><ele>359.8</ele><time>2026-04-11T09:23:28.001Z</time></trkpt><trkpt lat="45.077992949055975" lon="8.034044859561856"><ele>354.2</ele><time>2026-04-11T09:23:29.001Z</time></trkpt><trkpt lat="45.07788633806625" lon="8.034024640882617"><ele>348.59999999999997</ele><time>2026-04-11T09:23:30.001Z</time></trkpt><trkpt lat="45.077778961692594" lon="8.034034055564508"><ele>343.0</ele><time>2026-04-11T09:23:31.001Z</time></trkpt><trkpt lat="45.07766977554069" lon="8.034061102244094"><ele>343.0</ele><time>2026-04-11T09:23:32.001Z</time></trkpt><trkpt lat="45.077569559731955" lon="8.034069103474383"><ele>343.0</ele><time>2026-04-11T09:23:33.001Z</time></trkpt><trkpt lat="45.077479931641804" lon="8.034031417735111"><ele>343.0</ele><time>2026-04-11T09:23:34.001Z</time></trkpt><trkpt lat="45.077419903602056" lon="8.033942979878363"><ele>343.0</ele><time>2026-04-11T09:23:35.001Z</time></trkpt><trkpt lat="45.07741613900482" lon="8.033841481990475"><ele>343.0</ele><time>2026-04-11T09:23:36.001Z</time></trkpt><trkpt lat="45.07746561651116" lon="8.033768135078507"><ele>343.0</ele><time>2026-04-11T09:23:37.001Z</time></trkpt><trkpt lat="45.0775543059902" lon="8.033683085668946"><ele>343.0</ele><time>2026-04-11T09:23:39.001Z</time></trkpt><trkpt lat="45.077584385744515" lon="8.03355075937428"><ele>343.0</ele><time>2026-04-11T09:23:41.001Z</time></trkpt><trkpt lat="45.0775137444683" lon="8.033497176900195"><ele>343.0</ele><time>2026-04-11T09:23:42.001Z</time></trkpt><trkpt lat="45.077448487225446" lon="8.03350387864716"><ele>343.0</ele><time>2026-04-11T09:23:43.001Z</time></trkpt><trkpt lat="45.07738365725763" lon="8.033561113043008"><ele>343.0</ele><time>2026-04-11T09:23:44.001Z</time></trkpt><trkpt lat="45.07733006978951" lon="8.033636307010617"><ele>343.0</ele><time>2026-04-11T09:23:45.001Z</time></trkpt><trkpt lat="45.077276178361195" lon="8.033727827993813"><ele>339.0</ele><time>2026-04-11T09:23:46.001Z</time></trkpt><trkpt lat="45.07720715133492" lon="8.033802909661603"><ele>335.0</ele><time>2026-04-11T09:23:47.001Z</time></trkpt><trkpt lat="45.07711513183631" lon="8.033821239343796"><ele>331.0</ele><time>2026-04-11T09:23:48.001Z</time></trkpt><trkpt lat="45.0770165454486" lon="8.033869522765173"><ele>327.0</ele><time>2026-04-11T09:23:49.001Z</time></trkpt><trkpt lat="45.07690491696183" lon="8.033880397536226"><ele>323.0</ele><time>2026-04-11T09:23:50.001Z</time></trkpt><trkpt lat="45.076793127344565" lon="8.033883704810806"><ele>323.0</ele><time>2026-04-11T09:23:51.001Z</time></trkpt><trkpt lat="45.07667522764616" lon="8.03382543562008"><ele>323.0</ele><time>2026-04-11T09:23:52.001Z</time></trkpt><trkpt lat="45.076521924411466" lon="8.033794848872912"><ele>323.0</ele><time>2026-04-11T09:23:53.001Z</time></trkpt><trkpt lat="45.07634673383869" lon="8.03370754351721"><ele>323.5</ele><time>2026-04-11T09:23:54.001Z</time></trkpt><trkpt lat="45.07618625364408" lon="8.03366601151438"><ele>324.0</ele><time>2026-04-11T09:23:55.001Z</time></trkpt><trkpt lat="45.07605371216394" lon="8.03361803609132"><ele>324.5</ele><time>2026-04-11T09:23:56.001Z</time></trkpt><trkpt lat="45.0759232921664" lon="8.033582050271145"><ele>325.0</ele><time>2026-04-11T09:23:57.001Z</time></trkpt><trkpt lat="45.07579542293331" lon="8.033552437138294"><ele>323.5</ele><time>2026-04-11T09:23:58.001Z</time></trkpt><trkpt lat="45.07567284985343" lon="8.033542416907249"><ele>322.0</ele><time>2026-04-11T09:23:59.001Z</time></trkpt><trkpt lat="45.075557854923986" lon="8.033539286618705"><ele>320.5</ele><time>2026-04-11T09:24:00.001Z</time></trkpt><trkpt lat="45.0754396365442" lon="8.033533039598566"><ele>319.0</ele><time>2026-04-11T09:24:01.001Z</time></trkpt><trkpt lat="45.0753260455693" lon="8.033513074691983"><ele>319.0</ele><time>2026-04-11T09:24:02.001Z</time></trkpt><trkpt lat="45.0752170502169" lon="8.033498128967581"><ele>319.0</ele><time>2026-04-11T09:24:03.001Z</time></trkpt><trkpt lat="45.07512013355078" lon="8.03348803531162"><ele>319.0</ele><time>2026-04-11T09:24:04.001Z</time></trkpt><trkpt lat="45.07504232463869" lon="8.03347570989806"><ele>319.0</ele><time>2026-04-11T09:24:05.001Z</time></trkpt><trkpt lat="45.074971736701194" lon="8.033468060661354"><ele>319.0</ele><time>2026-04-11T09:24:06.001Z</time></trkpt><trkpt lat="45.07486690056601" lon="8.033545174208424"><ele>319.0</ele><time>2026-04-11T09:24:08.001Z</time></trkpt><trkpt lat="45.07484913716116" lon="8.033639961492455"><ele>319.0</ele><time>2026-04-11T09:24:09.001Z</time></trkpt><trkpt lat="45.07486570398668" lon="8.033740148545775"><ele>319.0</ele><time>2026-04-11T09:24:10.001Z</time></trkpt><trkpt lat="45.07488366385798" lon="8.03383657348285"><ele>319.0</ele><time>2026-04-11T09:24:11.001Z</time></trkpt><trkpt lat="45.074945531397745" lon="8.033920712372929"><ele>319.0</ele><time>2026-04-11T09:24:12.001Z</time></trkpt><trkpt lat="45.07497232924562" lon="8.0340382814371"><ele>319.0</ele><time>2026-04-11T09:24:13.001Z</time></trkpt><trkpt lat="45.07500039074664" lon="8.034157533373392"><ele>318.59999999999997</ele><time>2026-04-11T09:24:14.001Z</time></trkpt><trkpt lat="45.075012205480455" lon="8.034276865307232"><ele>318.2</ele><time>2026-04-11T09:24:15.001Z</time></trkpt><trkpt lat="45.07502706890046" lon="8.034394054143565"><ele>317.79999999999995</ele><time>2026-04-11T09:24:16.001Z</time></trkpt><trkpt lat="45.07501942272491" lon="8.03450030722129"><ele>317.4</ele><time>2026-04-11T09:24:17.001Z</time></trkpt><trkpt lat="45.07497878485767" lon="8.034641612119866"><ele>317.0</ele><time>2026-04-11T09:24:19.001Z</time></trkpt><trkpt lat="45.07486418890411" lon="8.034636602648796"><ele>313.4</ele><time>2026-04-11T09:24:21.001Z</time></trkpt><trkpt lat="45.07481633328365" lon="8.03454344064515"><ele>309.79999999999995</ele><time>2026-04-11T09:24:22.001Z</time></trkpt><trkpt lat="45.074738670333765" lon="8.034455489446154"><ele>306.2</ele><time>2026-04-11T09:24:23.001Z</time></trkpt><trkpt lat="45.07465549183906" lon="8.034334905444277"><ele>302.59999999999997</ele><time>2026-04-11T09:24:24.001Z</time></trkpt><trkpt lat="45.074564116753905" lon="8.034245702028468"><ele>299.0</ele><time>2026-04-11T09:24:25.001Z</time></trkpt><trkpt lat="45.074447827458265" lon="8.034174271054342"><ele>298.0</ele><time>2026-04-11T09:24:26.001Z</time></trkpt><trkpt lat="45.07433037569521" lon="8.034101646240417"><ele>297.0</ele><time>2026-04-11T09:24:27.001Z</time></trkpt><trkpt lat="45.07422175950506" lon="8.034025023211008"><ele>296.0</ele><time>2026-04-11T09:24:28.001Z</time></trkpt><trkpt lat="45.07411902199207" lon="8.033959795116944"><ele>295.0</ele><time>2026-04-11T09:24:29.001Z</time></trkpt><trkpt lat="45.074028008385625" lon="8.03389451654662"><ele>291.3333333333333</ele><time>2026-04-11T09:24:30.001Z</time></trkpt><trkpt lat="45.07393741223202" lon="8.033847967762403"><ele>287.66666666666663</ele><time>2026-04-11T09:24:31.001Z</time></trkpt><trkpt lat="45.07384888013222" lon="8.033847451396491"><ele>284.0</ele><time>2026-04-11T09:24:32.001Z</time></trkpt><trkpt lat="45.07377111855856" lon="8.03389177510491"><ele>280.3333333333333</ele><time>2026-04-11T09:24:33.001Z</time></trkpt><trkpt lat="45.073721463316375" lon="8.033961563818288"><ele>276.6666666666667</ele><time>2026-04-11T09:24:34.001Z</time></trkpt><trkpt lat="45.073704701298944" lon="8.03405506526653"><ele>273.0</ele><time>2026-04-11T09:24:35.001Z</time></trkpt><trkpt lat="45.07372964954994" lon="8.034152126966564"><ele>273.0</ele><time>2026-04-11T09:24:36.001Z</time></trkpt><trkpt lat="45.07376883923203" lon="8.034255045745686"><ele>273.0</ele><time>2026-04-11T09:24:37.001Z</time></trkpt><trkpt lat="45.073838661582734" lon="8.034343743991409"><ele>273.0</ele><time>2026-04-11T09:24:38.001Z</time></trkpt><trkpt lat="45.07391822253775" lon="8.03444123517829"><ele>273.0</ele><time>2026-04-11T09:24:39.001Z</time></trkpt><trkpt lat="45.073995512580765" lon="8.034541881132535"><ele>273.0</ele><time>2026-04-11T09:24:40.001Z</time></trkpt><trkpt lat="45.07406830579875" lon="8.03465053763061"><ele>276.0</ele><time>2026-04-11T09:24:41.001Z</time></trkpt><trkpt lat="45.07414418525362" lon="8.034752799046993"><ele>279.0</ele><time>2026-04-11T09:24:42.001Z</time></trkpt><trkpt lat="45.07417950707811" lon="8.03489716379688"><ele>282.0</ele><time>2026-04-11T09:24:43.001Z</time></trkpt><trkpt lat="45.07419364603816" lon="8.035050492921506"><ele>285.0</ele><time>2026-04-11T09:24:44.001Z</time></trkpt><trkpt lat="45.07418873395428" lon="8.035204459764499"><ele>288.0</ele><time>2026-04-11T09:24:45.001Z</time></trkpt><trkpt lat="45.074180625178094" lon="8.035359347110155"><ele>288.0</ele><time>2026-04-11T09:24:46.001Z</time></trkpt><trkpt lat="45.074178675297624" lon="8.035517239324228"><ele>288.0</ele><time>2026-04-11T09:24:47.001Z</time></trkpt><trkpt lat="45.07418652361561" lon="8.035668711881955"><ele>288.0</ele><time>2026-04-11T09:24:48.001Z</time></trkpt><trkpt lat="45.07421538677233" lon="8.035813396494166"><ele>288.0</ele><time>2026-04-11T09:24:49.001Z</time></trkpt><trkpt lat="45.074263658860225" lon="8.035942631677063"><ele>288.0</ele><time>2026-04-11T09:24:50.001Z</time></trkpt><trkpt lat="45.0743094160393" lon="8.036032183507432"><ele>285.0</ele><time>2026-04-11T09:24:51.001Z</time></trkpt><trkpt lat="45.07434403285294" lon="8.036192661018447"><ele>282.0</ele><time>2026-04-11T09:24:53.001Z</time></trkpt><trkpt lat="45.07431292975739" lon="8.036272008854146"><ele>279.0</ele><time>2026-04-11T09:24:54.001Z</time></trkpt><trkpt lat="45.07425420368466" lon="8.036311671024736"><ele>276.0</ele><time>2026-04-11T09:24:55.001Z</time></trkpt><trkpt lat="45.074178309896446" lon="8.036299731949562"><ele>273.0</ele><time>2026-04-11T09:24:56.001Z</time></trkpt><trkpt lat="45.07397657777667" lon="8.036205487836053"><ele>270.75</ele><time>2026-04-11T09:24:58.001Z</time></trkpt><trkpt lat="45.0738668923037" lon="8.036131342852235"><ele>268.5</ele><time>2026-04-11T09:24:59Z</time></trkpt><trkpt lat="45.07375022497608" lon="8.03603633721361"><ele>266.25</ele><time>2026-04-11T09:25:00Z</time></trkpt><trkpt lat="45.07362836643297" lon="8.035922044987414"><ele>264.0</ele><time>2026-04-11T09:25:01Z</time></trkpt><trkpt lat="45.07350736030981" lon="8.03578131006877"><ele>264.0</ele><time>2026-04-11T09:25:02Z</time></trkpt><trkpt lat="45.073386804217456" lon="8.03563394623547"><ele>264.0</ele><time>2026-04-11T09:25:03Z</time></trkpt><trkpt lat="45.07327421938113" lon="8.03548798203132"><ele>264.0</ele><time>2026-04-11T09:25:04Z</time></trkpt><trkpt lat="45.07314649277175" lon="8.035369242822224"><ele>260.0</ele><time>2026-04-11T09:25:05Z</time></trkpt><trkpt lat="45.07299755215517" lon="8.035264051831165"><ele>256.0</ele><time>2026-04-11T09:25:06Z</time></trkpt><trkpt lat="45.072880058376604" lon="8.03514579388254"><ele>252.0</ele><time>2026-04-11T09:25:07Z</time></trkpt><trkpt lat="45.07277112908444" lon="8.035038520515881"><ele>248.0</ele><time>2026-04-11T09:25:08Z</time></trkpt><trkpt lat="45.07268816777479" lon="8.034905003891367"><ele>248.0</ele><time>2026-04-11T09:25:09Z</time></trkpt><trkpt lat="45.07261989482563" lon="8.03478113207921"><ele>248.0</ele><time>2026-04-11T09:25:10Z</time></trkpt><trkpt lat="45.07254915657533" lon="8.034660363549955"><ele>248.0</ele><time>2026-04-11T09:25:11Z</time></trkpt><trkpt lat="45.072462439467955" lon="8.034576936910607"><ele>248.0</ele><time>2026-04-11T09:25:12Z</time></trkpt><trkpt lat="45.07236881231282" lon="8.03450778838263"><ele>248.0</ele><time>2026-04-11T09:25:13Z</time></trkpt><trkpt lat="45.0722620654313" lon="8.034485458747755"><ele>246.2</ele><time>2026-04-11T09:25:14Z</time></trkpt><trkpt lat="45.07215835010801" lon="8.034479901078583"><ele>244.4</ele><time>2026-04-11T09:25:15Z</time></trkpt><trkpt lat="45.07205892439942" lon="8.034478216415275"><ele>242.59999999999997</ele><time>2026-04-11T09:25:16Z</time></trkpt><trkpt lat="45.07196658492733" lon="8.034460910476234"><ele>240.79999999999998</ele><time>2026-04-11T09:25:17Z</time></trkpt><trkpt lat="45.0718972589709" lon="8.034369844649053"><ele>239.0</ele><time>2026-04-11T09:25:18Z</time></trkpt><trkpt lat="45.071860222961845" lon="8.034263519310029"><ele>239.0</ele><time>2026-04-11T09:25:19Z</time></trkpt><trkpt lat="45.071804973310265" lon="8.034147421491745"><ele>238.99999999999997</ele><time>2026-04-11T09:25:20Z</time></trkpt><trkpt lat="45.07174404615399" lon="8.03401624410528"><ele>238.99999999999997</ele><time>2026-04-11T09:25:21Z</time></trkpt><trkpt lat="45.07167973164364" lon="8.033881146357027"><ele>239.0</ele><time>2026-04-11T09:25:22Z</time></trkpt><trkpt lat="45.07161624122153" lon="8.033748965710476"><ele>239.0</ele><time>2026-04-11T09:25:23Z</time></trkpt><trkpt lat="45.07155656866239" lon="8.033622653254355"><ele>238.6</ele><time>2026-04-11T09:25:24Z</time></trkpt><trkpt lat="45.07150827404019" lon="8.033518906569787"><ele>238.2</ele><time>2026-04-11T09:25:25Z</time></trkpt><trkpt lat="45.07143839076031" lon="8.033419022359803"><ele>237.79999999999998</ele><time>2026-04-11T09:25:27Z</time></trkpt><trkpt lat="45.07131823332641" lon="8.033535835870492"><ele>237.39999999999998</ele><time>2026-04-11T09:25:30Z</time></trkpt><trkpt lat="45.071261271429435" lon="8.033669931320462"><ele>237.0</ele><time>2026-04-11T09:25:31Z</time></trkpt><trkpt lat="45.07118160782691" lon="8.033865994240838"><ele>237.0</ele><time>2026-04-11T09:25:32.001Z</time></trkpt><trkpt lat="45.0710830762925" lon="8.034089755264022"><ele>237.0</ele><time>2026-04-11T09:25:33.001Z</time></trkpt><trkpt lat="45.070971662890706" lon="8.034312185935953"><ele>237.0</ele><time>2026-04-11T09:25:34.001Z</time></trkpt><trkpt lat="45.07083971293761" lon="8.034525764798968"><ele>236.33333333333331</ele><time>2026-04-11T09:25:35.001Z</time></trkpt><trkpt lat="45.070691766426336" lon="8.034725075647934"><ele>235.66666666666666</ele><time>2026-04-11T09:25:36.001Z</time></trkpt><trkpt lat="45.070533131383755" lon="8.034897833272359"><ele>235.0</ele><time>2026-04-11T09:25:37.001Z</time></trkpt><trkpt lat="45.07035892609734" lon="8.035045386833712"><ele>235.0</ele><time>2026-04-11T09:25:38.001Z</time></trkpt><trkpt lat="45.07016493017623" lon="8.035162918801342"><ele>235.0</ele><time>2026-04-11T09:25:39.001Z</time></trkpt><trkpt lat="45.06996147507182" lon="8.035258344084891"><ele>235.0</ele><time>2026-04-11T09:25:40.001Z</time></trkpt><trkpt lat="45.06974555227098" lon="8.035322463781243"><ele>234.5</ele><time>2026-04-11T09:25:41.001Z</time></trkpt><trkpt lat="45.06952413766115" lon="8.035356167358758"><ele>234.0</ele><time>2026-04-11T09:25:42.001Z</time></trkpt><trkpt lat="45.0692858516997" lon="8.035364425776647"><ele>234.0</ele><time>2026-04-11T09:25:43.001Z</time></trkpt><trkpt lat="45.06903482185404" lon="8.035374285522856"><ele>234.0</ele><time>2026-04-11T09:25:44.001Z</time></trkpt><trkpt lat="45.068775854077614" lon="8.035383792484689"><ele>234.0</ele><time>2026-04-11T09:25:45.001Z</time></trkpt><trkpt lat="45.06849704664019" lon="8.035402294827593"><ele>234.0</ele><time>2026-04-11T09:25:46.001Z</time></trkpt><trkpt lat="45.068217497065575" lon="8.035421642786288"><ele>233.0</ele><time>2026-04-11T09:25:47.001Z</time></trkpt><trkpt lat="45.06794445039435" lon="8.035437378093413"><ele>232.0</ele><time>2026-04-11T09:25:48.001Z</time></trkpt><trkpt lat="45.067684106011484" lon="8.035452544064011"><ele>233.5</ele><time>2026-04-11T09:25:49.001Z</time></trkpt><trkpt lat="45.06743615075146" lon="8.035469242590379"><ele>235.0</ele><time>2026-04-11T09:25:50.001Z</time></trkpt><trkpt lat="45.0671903746254" lon="8.035484432321512"><ele>235.0</ele><time>2026-04-11T09:25:51.001Z</time></trkpt><trkpt lat="45.06694922360136" lon="8.035499324594397"><ele>235.0</ele><time>2026-04-11T09:25:52.001Z</time></trkpt><trkpt lat="45.0667133154476" lon="8.035513551142227"><ele>234.0</ele><time>2026-04-11T09:25:53.001Z</time></trkpt><trkpt lat="45.066480615663636" lon="8.035529643156885"><ele>233.0</ele><time>2026-04-11T09:25:54.001Z</time></trkpt><trkpt lat="45.06624281891692" lon="8.035545795757567"><ele>233.0</ele><time>2026-04-11T09:25:55.001Z</time></trkpt><trkpt lat="45.06601770130025" lon="8.03556354341003"><ele>233.0</ele><time>2026-04-11T09:25:56.001Z</time></trkpt><trkpt lat="45.06580795012727" lon="8.035575086931283"><ele>233.0</ele><time>2026-04-11T09:25:57.001Z</time></trkpt><trkpt lat="45.0655932808498" lon="8.035585278708398"><ele>232.66666666666669</ele><time>2026-04-11T09:25:58.001Z</time></trkpt><trkpt lat="45.06537922006371" lon="8.035613570829263"><ele>232.33333333333331</ele><time>2026-04-11T09:25:59.001Z</time></trkpt><trkpt lat="45.06515505792987" lon="8.035660686265441"><ele>232.0</ele><time>2026-04-11T09:26:00.001Z</time></trkpt><trkpt lat="45.06492683484753" lon="8.035730869958796"><ele>231.0</ele><time>2026-04-11T09:26:01.001Z</time></trkpt><trkpt lat="45.06470107907389" lon="8.035830385969668"><ele>230.0</ele><time>2026-04-11T09:26:02.001Z</time></trkpt><trkpt lat="45.064472939501385" lon="8.035947267055786"><ele>230.0</ele><time>2026-04-11T09:26:03.001Z</time></trkpt><trkpt lat="45.064247411204846" lon="8.036087186766798"><ele>230.0</ele><time>2026-04-11T09:26:04.001Z</time></trkpt><trkpt lat="45.06403207095887" lon="8.036247702305616"><ele>230.0</ele><time>2026-04-11T09:26:05.001Z</time></trkpt><trkpt lat="45.06382330826393" lon="8.036435869804572"><ele>230.0</ele><time>2026-04-11T09:26:06.001Z</time></trkpt><trkpt lat="45.06359946787" lon="8.03664970314155"><ele>230.0</ele><time>2026-04-11T09:26:07.001Z</time></trkpt><trkpt lat="45.06335632107365" lon="8.036886680744143"><ele>230.0</ele><time>2026-04-11T09:26:08.001Z</time></trkpt><trkpt lat="45.06313113893339" lon="8.037100939502807"><ele>230.0</ele><time>2026-04-11T09:26:09.001Z</time></trkpt><trkpt lat="45.062924153923795" lon="8.037293381251665"><ele>230.0</ele><time>2026-04-11T09:26:10.001Z</time></trkpt><trkpt lat="45.06272287931222" lon="8.037481273964032"><ele>229.5</ele><time>2026-04-11T09:26:11.001Z</time></trkpt><trkpt lat="45.062520962255114" lon="8.037670812884379"><ele>229.0</ele><time>2026-04-11T09:26:12.001Z</time></trkpt><trkpt lat="45.062322539154756" lon="8.037861109557637"><ele>227.5</ele><time>2026-04-11T09:26:13.001Z</time></trkpt><trkpt lat="45.06212093201269" lon="8.038055138084607"><ele>226.0</ele><time>2026-04-11T09:26:14.001Z</time></trkpt><trkpt lat="45.06192004309366" lon="8.038244496819813"><ele>226.0</ele><time>2026-04-11T09:26:15.001Z</time></trkpt><trkpt lat="45.061733287608554" lon="8.038413306885888"><ele>226.0</ele><time>2026-04-11T09:26:16.001Z</time></trkpt><trkpt lat="45.06154341907058" lon="8.038583701996492"><ele>226.0</ele><time>2026-04-11T09:26:17.001Z</time></trkpt><trkpt lat="45.06134600622058" lon="8.038753567625168"><ele>226.0</ele><time>2026-04-11T09:26:18.001Z</time></trkpt><trkpt lat="45.06114148189481" lon="8.03889256670213"><ele>226.0</ele><time>2026-04-11T09:26:19.001Z</time></trkpt><trkpt lat="45.060936232205734" lon="8.038999481957358"><ele>226.0</ele><time>2026-04-11T09:26:20.001Z</time></trkpt><trkpt lat="45.06074166398711" lon="8.039075590925451"><ele>225.5</ele><time>2026-04-11T09:26:21.001Z</time></trkpt><trkpt lat="45.06053692977185" lon="8.03915637144721"><ele>225.0</ele><time>2026-04-11T09:26:22.001Z</time></trkpt><trkpt lat="45.06028996642172" lon="8.039222718474246"><ele>225.0</ele><time>2026-04-11T09:26:23.001Z</time></trkpt><trkpt lat="45.06003369042314" lon="8.03932376447964"><ele>225.0</ele><time>2026-04-11T09:26:24.001Z</time></trkpt><trkpt lat="45.059748159569175" lon="8.039417069243637"><ele>227.0</ele><time>2026-04-11T09:26:25.001Z</time></trkpt><trkpt lat="45.05944043602789" lon="8.039524952864982"><ele>229.0</ele><time>2026-04-11T09:26:26.001Z</time></trkpt><trkpt lat="45.059125640360094" lon="8.039636574798099"><ele>229.0</ele><time>2026-04-11T09:26:27.001Z</time></trkpt><trkpt lat="45.058818707485706" lon="8.039747414639617"><ele>229.0</ele><time>2026-04-11T09:26:28.001Z</time></trkpt><trkpt lat="45.058526014027414" lon="8.03985511415528"><ele>229.0</ele><time>2026-04-11T09:26:29.001Z</time></trkpt><trkpt lat="45.0582398259687" lon="8.03996160060614"><ele>229.0</ele><time>2026-04-11T09:26:30.001Z</time></trkpt><trkpt lat="45.057958944883666" lon="8.040065804962223"><ele>229.0</ele><time>2026-04-11T09:26:31.001Z</time></trkpt><trkpt lat="45.05767985721942" lon="8.04016817779367"><ele>229.0</ele><time>2026-04-11T09:26:32.001Z</time></trkpt><trkpt lat="45.05740564965138" lon="8.04026553901729"><ele>228.0</ele><time>2026-04-11T09:26:33.001Z</time></trkpt><trkpt lat="45.057126634672194" lon="8.040368697840188"><ele>227.0</ele><time>2026-04-11T09:26:34.001Z</time></trkpt><trkpt lat="45.056824921153506" lon="8.040478282985019"><ele>225.0</ele><time>2026-04-11T09:26:35.001Z</time></trkpt><trkpt lat="45.05650649731014" lon="8.040594344942972"><ele>223.0</ele><time>2026-04-11T09:26:36.001Z</time></trkpt><trkpt lat="45.056176234191085" lon="8.040713971310577"><ele>223.5</ele><time>2026-04-11T09:26:37.001Z</time></trkpt><trkpt lat="45.05584092011332" lon="8.040838405639404"><ele>224.0</ele><time>2026-04-11T09:26:38.001Z</time></trkpt><trkpt lat="45.055529483686854" lon="8.040954337579501"><ele>222.0</ele><time>2026-04-11T09:26:39.001Z</time></trkpt><trkpt lat="45.0552491630208" lon="8.041058546865084"><ele>220.0</ele><time>2026-04-11T09:26:40.001Z</time></trkpt><trkpt lat="45.05498176025687" lon="8.04115533617576"><ele>221.0</ele><time>2026-04-11T09:26:41.001Z</time></trkpt><trkpt lat="45.05471124928485" lon="8.041249989831677"><ele>222.0</ele><time>2026-04-11T09:26:42.001Z</time></trkpt><trkpt lat="45.05443740405235" lon="8.041351949868332"><ele>222.0</ele><time>2026-04-11T09:26:43.001Z</time></trkpt><trkpt lat="45.054182225785844" lon="8.041445526088633"><ele>222.0</ele><time>2026-04-11T09:26:44.001Z</time></trkpt><trkpt lat="45.05394553908881" lon="8.041533930224283"><ele>220.5</ele><time>2026-04-11T09:26:45.001Z</time></trkpt><trkpt lat="45.05371031808211" lon="8.041611847910623"><ele>219.0</ele><time>2026-04-11T09:26:46.001Z</time></trkpt><trkpt lat="45.05346118832239" lon="8.041659283551978"><ele>223.0</ele><time>2026-04-11T09:26:47.001Z</time></trkpt><trkpt lat="45.05320984883935" lon="8.041667373325332"><ele>227.0</ele><time>2026-04-11T09:26:48.001Z</time></trkpt><trkpt lat="45.052949259821986" lon="8.041650244400508"><ele>222.5</ele><time>2026-04-11T09:26:49.001Z</time></trkpt><trkpt lat="45.05266782922047" lon="8.041625682603662"><ele>218.0</ele><time>2026-04-11T09:26:50.001Z</time></trkpt><trkpt lat="45.052360058745116" lon="8.041602809560413"><ele>218.0</ele><time>2026-04-11T09:26:51.001Z</time></trkpt><trkpt lat="45.0520282900851" lon="8.041577575941199"><ele>218.0</ele><time>2026-04-11T09:26:52.001Z</time></trkpt><trkpt lat="45.05167825516946" lon="8.041553147921926"><ele>219.5</ele><time>2026-04-11T09:26:53.001Z</time></trkpt><trkpt lat="45.05136494734072" lon="8.041527073262401"><ele>221.0</ele><time>2026-04-11T09:26:54.001Z</time></trkpt><trkpt lat="45.051078769798764" lon="8.04150446520459"><ele>221.0</ele><time>2026-04-11T09:26:55.001Z</time></trkpt><trkpt lat="45.050806164097736" lon="8.041482245621767"><ele>221.0</ele><time>2026-04-11T09:26:56.001Z</time></trkpt><trkpt lat="45.05054392480303" lon="8.041459388682238"><ele>220.0</ele><time>2026-04-11T09:26:57.001Z</time></trkpt><trkpt lat="45.05030067737879" lon="8.041440596159442"><ele>219.0</ele><time>2026-04-11T09:26:58.001Z</time></trkpt><trkpt lat="45.05006659410688" lon="8.041423384573498"><ele>218.33333333333331</ele><time>2026-04-11T09:26:59.001Z</time></trkpt><trkpt lat="45.049847745296795" lon="8.041407002301561"><ele>217.66666666666666</ele><time>2026-04-11T09:27:00.001Z</time></trkpt><trkpt lat="45.04963801787945" lon="8.041390650198476"><ele>217.0</ele><time>2026-04-11T09:27:01.001Z</time></trkpt><trkpt lat="45.0494449830901" lon="8.041376628604064"><ele>217.0</ele><time>2026-04-11T09:27:02.001Z</time></trkpt><trkpt lat="45.049255365139125" lon="8.041360597520537"><ele>217.0</ele><time>2026-04-11T09:27:03.001Z</time></trkpt><trkpt lat="45.04907517127168" lon="8.041342079302385"><ele>217.0</ele><time>2026-04-11T09:27:04.001Z</time></trkpt><trkpt lat="45.04889695002762" lon="8.041328503454872"><ele>217.33333333333331</ele><time>2026-04-11T09:27:05Z</time></trkpt><trkpt lat="45.04872934588145" lon="8.041315468629508"><ele>217.66666666666669</ele><time>2026-04-11T09:27:06Z</time></trkpt><trkpt lat="45.048570058845655" lon="8.04129944818294"><ele>218.0</ele><time>2026-04-11T09:27:07Z</time></trkpt><trkpt lat="45.04841513744225" lon="8.041291753009274"><ele>217.75</ele><time>2026-04-11T09:27:08Z</time></trkpt><trkpt lat="45.048266759018986" lon="8.041279415739945"><ele>217.5</ele><time>2026-04-11T09:27:09Z</time></trkpt><trkpt lat="45.04813658935292" lon="8.041271603994135"><ele>217.25</ele><time>2026-04-11T09:27:10Z</time></trkpt><trkpt lat="45.048015496873425" lon="8.041260266553516"><ele>217.0</ele><time>2026-04-11T09:27:11Z</time></trkpt><trkpt lat="45.047893537129276" lon="8.04124937086642"><ele>217.0</ele><time>2026-04-11T09:27:12Z</time></trkpt><trkpt lat="45.04777443156594" lon="8.041244433522637"><ele>217.0</ele><time>2026-04-11T09:27:13Z</time></trkpt><trkpt lat="45.0476617345049" lon="8.041235630938202"><ele>217.0</ele><time>2026-04-11T09:27:14Z</time></trkpt><trkpt lat="45.04755014607627" lon="8.041228603491573"><ele>217.0</ele><time>2026-04-11T09:27:15Z</time></trkpt><trkpt lat="45.0474385470244" lon="8.041220604356445"><ele>218.0</ele><time>2026-04-11T09:27:16Z</time></trkpt><trkpt lat="45.04732629210034" lon="8.041209883538828"><ele>219.0</ele><time>2026-04-11T09:27:17Z</time></trkpt><trkpt lat="45.047217756125235" lon="8.041199779468796"><ele>220.0</ele><time>2026-04-11T09:27:18Z</time></trkpt><trkpt lat="45.04710283142407" lon="8.041189646278"><ele>221.0</ele><time>2026-04-11T09:27:19Z</time></trkpt><trkpt lat="45.04697251610405" lon="8.041179486677034"><ele>221.0</ele><time>2026-04-11T09:27:20Z</time></trkpt><trkpt lat="45.04684316515291" lon="8.041166886402321"><ele>221.0</ele><time>2026-04-11T09:27:21Z</time></trkpt><trkpt lat="45.04671230917462" lon="8.041152816378322"><ele>221.0</ele><time>2026-04-11T09:27:22Z</time></trkpt><trkpt lat="45.04657851870487" lon="8.041148239346494"><ele>221.0</ele><time>2026-04-11T09:27:23Z</time></trkpt><trkpt lat="45.04643835418005" lon="8.041138708219115"><ele>221.25</ele><time>2026-04-11T09:27:24Z</time></trkpt><trkpt lat="45.04629878576997" lon="8.041125165082791"><ele>221.5</ele><time>2026-04-11T09:27:25Z</time></trkpt><trkpt lat="45.04615417400603" lon="8.041114113176988"><ele>221.75</ele><time>2026-04-11T09:27:26Z</time></trkpt><trkpt lat="45.046003857311504" lon="8.041103707643225"><ele>222.0</ele><time>2026-04-11T09:27:27Z</time></trkpt><trkpt lat="45.04585767482915" lon="8.041089495418156"><ele>222.0</ele><time>2026-04-11T09:27:28Z</time></trkpt><trkpt lat="45.045701612751714" lon="8.041079476352596"><ele>222.0</ele><time>2026-04-11T09:27:29Z</time></trkpt><trkpt lat="45.04553912761826" lon="8.04106450131679"><ele>222.0</ele><time>2026-04-11T09:27:30Z</time></trkpt><trkpt lat="45.04538424513938" lon="8.04105046984144"><ele>222.0</ele><time>2026-04-11T09:27:31Z</time></trkpt><trkpt lat="45.04522548091485" lon="8.04103625148697"><ele>222.0</ele><time>2026-04-11T09:27:32Z</time></trkpt><trkpt lat="45.04507035559309" lon="8.041024519689174"><ele>222.0</ele><time>2026-04-11T09:27:33Z</time></trkpt><trkpt lat="45.04491476797348" lon="8.041010810782721"><ele>223.66666666666669</ele><time>2026-04-11T09:27:34Z</time></trkpt><trkpt lat="45.04475938504615" lon="8.040999919178184"><ele>225.33333333333334</ele><time>2026-04-11T09:27:35Z</time></trkpt><trkpt lat="45.044602861110974" lon="8.040989351713106"><ele>227.0</ele><time>2026-04-11T09:27:36Z</time></trkpt><trkpt lat="45.044445623371246" lon="8.040976791163974"><ele>227.0</ele><time>2026-04-11T09:27:37Z</time></trkpt><trkpt lat="45.044289347829945" lon="8.040963540611491"><ele>227.0</ele><time>2026-04-11T09:27:38.001Z</time></trkpt><trkpt lat="45.04413363793003" lon="8.040954428971126"><ele>227.0</ele><time>2026-04-11T09:27:39.001Z</time></trkpt><trkpt lat="45.04397688940483" lon="8.040946530471063"><ele>227.75</ele><time>2026-04-11T09:27:40.001Z</time></trkpt><trkpt lat="45.04382921753435" lon="8.040928055608124"><ele>228.5</ele><time>2026-04-11T09:27:41.001Z</time></trkpt><trkpt lat="45.043693907690916" lon="8.040921628390313"><ele>229.25</ele><time>2026-04-11T09:27:42.001Z</time></trkpt><trkpt lat="45.043586313373254" lon="8.040921374124325"><ele>230.0</ele><time>2026-04-11T09:27:43.001Z</time></trkpt><trkpt lat="45.04347857143152" lon="8.040948611100706"><ele>230.0</ele><time>2026-04-11T09:27:44.001Z</time></trkpt><trkpt lat="45.043390373075056" lon="8.04099555033854"><ele>230.0</ele><time>2026-04-11T09:27:45.001Z</time></trkpt><trkpt lat="45.04330651615722" lon="8.04105895161158"><ele>230.0</ele><time>2026-04-11T09:27:46.001Z</time></trkpt><trkpt lat="45.04324348087257" lon="8.041147722851093"><ele>230.0</ele><time>2026-04-11T09:27:47.001Z</time></trkpt><trkpt lat="45.04318273765963" lon="8.041114153782662"><ele>230.0</ele><time>2026-04-11T09:27:48.001Z</time></trkpt><trkpt lat="45.04313053053623" lon="8.040936600711978"><ele>228.5</ele><time>2026-04-11T09:27:50.001Z</time></trkpt><trkpt lat="45.04307066063253" lon="8.040802715243391"><ele>227.0</ele><time>2026-04-11T09:27:51.001Z</time></trkpt><trkpt lat="45.04299802260792" lon="8.040640276771672"><ele>225.5</ele><time>2026-04-11T09:27:52.001Z</time></trkpt><trkpt lat="45.04292975815829" lon="8.04048761879105"><ele>224.0</ele><time>2026-04-11T09:27:53.001Z</time></trkpt><trkpt lat="45.0428515684525" lon="8.040341183471707"><ele>224.0</ele><time>2026-04-11T09:27:54.001Z</time></trkpt><trkpt lat="45.042777995131864" lon="8.040177504757356"><ele>224.0</ele><time>2026-04-11T09:27:55.001Z</time></trkpt><trkpt lat="45.04270556154763" lon="8.04001489588648"><ele>224.0</ele><time>2026-04-11T09:27:56.001Z</time></trkpt><trkpt lat="45.042632495789476" lon="8.039850613074965"><ele>224.0</ele><time>2026-04-11T09:27:57.001Z</time></trkpt><trkpt lat="45.042558550433206" lon="8.039682782662846"><ele>224.25</ele><time>2026-04-11T09:27:58.001Z</time></trkpt><trkpt lat="45.04248353117205" lon="8.039513012291362"><ele>224.5</ele><time>2026-04-11T09:27:59.001Z</time></trkpt><trkpt lat="45.04240604056176" lon="8.03933375213116"><ele>224.75</ele><time>2026-04-11T09:28:00.001Z</time></trkpt><trkpt lat="45.042319239651476" lon="8.039154455194668"><ele>225.0</ele><time>2026-04-11T09:28:01.001Z</time></trkpt><trkpt lat="45.042233074764084" lon="8.038959711487513"><ele>223.66666666666669</ele><time>2026-04-11T09:28:02.001Z</time></trkpt><trkpt lat="45.04214082995682" lon="8.038754290008278"><ele>222.33333333333334</ele><time>2026-04-11T09:28:03.001Z</time></trkpt><trkpt lat="45.04205794387943" lon="8.038567935442591"><ele>221.0</ele><time>2026-04-11T09:28:04.001Z</time></trkpt><trkpt lat="45.04197684698152" lon="8.03839112468916"><ele>220.25</ele><time>2026-04-11T09:28:05.001Z</time></trkpt><trkpt lat="45.04189811976735" lon="8.03821181822779"><ele>219.5</ele><time>2026-04-11T09:28:06.001Z</time></trkpt><trkpt lat="45.04182416441845" lon="8.038046556386762"><ele>218.75</ele><time>2026-04-11T09:28:07.001Z</time></trkpt><trkpt lat="45.0417511562137" lon="8.037878687761308"><ele>218.0</ele><time>2026-04-11T09:28:08.001Z</time></trkpt><trkpt lat="45.04166827945185" lon="8.03771880681477"><ele>217.75</ele><time>2026-04-11T09:28:09.001Z</time></trkpt><trkpt lat="45.04158838848474" lon="8.037547710617915"><ele>217.5</ele><time>2026-04-11T09:28:10.001Z</time></trkpt><trkpt lat="45.04150889537397" lon="8.037367974080949"><ele>217.25</ele><time>2026-04-11T09:28:11.001Z</time></trkpt><trkpt lat="45.041432309229684" lon="8.037178191677599"><ele>217.0</ele><time>2026-04-11T09:28:12.001Z</time></trkpt><trkpt lat="45.041349416619816" lon="8.036976280022573"><ele>216.33333333333331</ele><time>2026-04-11T09:28:13.001Z</time></trkpt><trkpt lat="45.04127654138563" lon="8.036762793662364"><ele>215.66666666666669</ele><time>2026-04-11T09:28:14.001Z</time></trkpt><trkpt lat="45.04122698511803" lon="8.036536933158436"><ele>215.0</ele><time>2026-04-11T09:28:15.001Z</time></trkpt><trkpt lat="45.04118990282037" lon="8.036289528839191"><ele>215.0</ele><time>2026-04-11T09:28:16.001Z</time></trkpt><trkpt lat="45.04121746906793" lon="8.03603559291175"><ele>215.0</ele><time>2026-04-11T09:28:17.001Z</time></trkpt><trkpt lat="45.04125197528393" lon="8.035800733943281"><ele>215.0</ele><time>2026-04-11T09:28:18.001Z</time></trkpt><trkpt lat="45.0413015519283" lon="8.035574492417032"><ele>214.66666666666669</ele><time>2026-04-11T09:28:19.001Z</time></trkpt><trkpt lat="45.04134586638167" lon="8.035363743604263"><ele>214.33333333333331</ele><time>2026-04-11T09:28:20.001Z</time></trkpt><trkpt lat="45.04138006349316" lon="8.035141151532148"><ele>214.0</ele><time>2026-04-11T09:28:21.001Z</time></trkpt><trkpt lat="45.041406760624405" lon="8.034864464425798"><ele>214.0</ele><time>2026-04-11T09:28:22.001Z</time></trkpt><trkpt lat="45.041377058086645" lon="8.034664954640045"><ele>214.0</ele><time>2026-04-11T09:28:23.001Z</time></trkpt><trkpt lat="45.04131566828756" lon="8.03443791384891"><ele>214.0</ele><time>2026-04-11T09:28:24.001Z</time></trkpt><trkpt lat="45.04121851895473" lon="8.03422595813642"><ele>214.0</ele><time>2026-04-11T09:28:25.001Z</time></trkpt><trkpt lat="45.04109261562239" lon="8.03402200951392"><ele>214.0</ele><time>2026-04-11T09:28:26.001Z</time></trkpt><trkpt lat="45.040919855760364" lon="8.033791617716634"><ele>214.0</ele><time>2026-04-11T09:28:27.001Z</time></trkpt><trkpt lat="45.04077896469505" lon="8.033544449445248"><ele>215.66666666666666</ele><time>2026-04-11T09:28:28.001Z</time></trkpt><trkpt lat="45.040643605922426" lon="8.03330144303407"><ele>217.33333333333331</ele><time>2026-04-11T09:28:29.001Z</time></trkpt><trkpt lat="45.04051049225368" lon="8.033063526326087"><ele>219.0</ele><time>2026-04-11T09:28:30.001Z</time></trkpt><trkpt lat="45.04038457470714" lon="8.032837400403714"><ele>219.0</ele><time>2026-04-11T09:28:31.001Z</time></trkpt><trkpt lat="45.0402670480798" lon="8.032620079314125"><ele>219.0</ele><time>2026-04-11T09:28:32.001Z</time></trkpt><trkpt lat="45.0401480849562" lon="8.032402441359926"><ele>219.0</ele><time>2026-04-11T09:28:33.001Z</time></trkpt><trkpt lat="45.040025881850404" lon="8.032181979776123"><ele>218.0</ele><time>2026-04-11T09:28:34.001Z</time></trkpt><trkpt lat="45.03990841038864" lon="8.031974216923109"><ele>217.0</ele><time>2026-04-11T09:28:35.001Z</time></trkpt><trkpt lat="45.03980085983757" lon="8.031778696039858"><ele>216.0</ele><time>2026-04-11T09:28:36.001Z</time></trkpt><trkpt lat="45.03970006393645" lon="8.031594666812717"><ele>216.0</ele><time>2026-04-11T09:28:37.001Z</time></trkpt><trkpt lat="45.0396063154381" lon="8.031419378820463"><ele>216.0</ele><time>2026-04-11T09:28:38.001Z</time></trkpt><trkpt lat="45.039510253853635" lon="8.031249802118545"><ele>216.0</ele><time>2026-04-11T09:28:39.001Z</time></trkpt><trkpt lat="45.03941261485287" lon="8.031078697038405"><ele>216.0</ele><time>2026-04-11T09:28:40.001Z</time></trkpt><trkpt lat="45.03930737253933" lon="8.030897673634634"><ele>216.0</ele><time>2026-04-11T09:28:41.001Z</time></trkpt><trkpt lat="45.03920793532273" lon="8.030720202327927"><ele>216.0</ele><time>2026-04-11T09:28:42.001Z</time></trkpt><trkpt lat="45.039121505513585" lon="8.03054415377565"><ele>215.5</ele><time>2026-04-11T09:28:43.001Z</time></trkpt><trkpt lat="45.03905664652221" lon="8.030359072931889"><ele>215.0</ele><time>2026-04-11T09:28:44.001Z</time></trkpt><trkpt lat="45.03901798508209" lon="8.030170870616935"><ele>214.5</ele><time>2026-04-11T09:28:45.001Z</time></trkpt><trkpt lat="45.03899457806807" lon="8.029969357153394"><ele>214.0</ele><time>2026-04-11T09:28:46.001Z</time></trkpt><trkpt lat="45.03896514846033" lon="8.029738567744175"><ele>213.33333333333331</ele><time>2026-04-11T09:28:47.001Z</time></trkpt><trkpt lat="45.03893114443949" lon="8.029489405852562"><ele>212.66666666666669</ele><time>2026-04-11T09:28:48.001Z</time></trkpt><trkpt lat="45.03889632726626" lon="8.029236077926692"><ele>212.0</ele><time>2026-04-11T09:28:49.001Z</time></trkpt><trkpt lat="45.038854612830235" lon="8.028971883499167"><ele>213.66666666666669</ele><time>2026-04-11T09:28:50.001Z</time></trkpt><trkpt lat="45.03882143950871" lon="8.028672024800715"><ele>215.33333333333331</ele><time>2026-04-11T09:28:51.001Z</time></trkpt><trkpt lat="45.038795717252455" lon="8.028401471967886"><ele>217.0</ele><time>2026-04-11T09:28:52.001Z</time></trkpt><trkpt lat="45.03879670613799" lon="8.028140858917578"><ele>221.0</ele><time>2026-04-11T09:28:53.001Z</time></trkpt><trkpt lat="45.03882249854152" lon="8.027869155067624"><ele>225.0</ele><time>2026-04-11T09:28:54.001Z</time></trkpt><trkpt lat="45.038889584607844" lon="8.027592802931505"><ele>229.0</ele><time>2026-04-11T09:28:55.001Z</time></trkpt><trkpt lat="45.038969028341874" lon="8.027322499111051"><ele>229.33333333333331</ele><time>2026-04-11T09:28:56.001Z</time></trkpt><trkpt lat="45.03904828223375" lon="8.02706860545506"><ele>229.66666666666669</ele><time>2026-04-11T09:28:57.001Z</time></trkpt><trkpt lat="45.03911273045479" lon="8.026801488491607"><ele>230.0</ele><time>2026-04-11T09:28:58.001Z</time></trkpt><trkpt lat="45.0391847918537" lon="8.026543615691944"><ele>230.0</ele><time>2026-04-11T09:28:59.001Z</time></trkpt><trkpt lat="45.03922847805889" lon="8.026280432460206"><ele>230.0</ele><time>2026-04-11T09:29:00.001Z</time></trkpt><trkpt lat="45.03924304677401" lon="8.026027387986394"><ele>230.0</ele><time>2026-04-11T09:29:01.001Z</time></trkpt><trkpt lat="45.039229150745996" lon="8.025782558533294"><ele>234.33333333333334</ele><time>2026-04-11T09:29:02.001Z</time></trkpt><trkpt lat="45.03919221252656" lon="8.025539176067284"><ele>238.66666666666669</ele><time>2026-04-11T09:29:03.001Z</time></trkpt><trkpt lat="45.03912827739137" lon="8.025311490723588"><ele>243.0</ele><time>2026-04-11T09:29:04.001Z</time></trkpt><trkpt lat="45.03906246011033" lon="8.025097382511738"><ele>247.0</ele><time>2026-04-11T09:29:05.001Z</time></trkpt><trkpt lat="45.03897908717931" lon="8.02490079054744"><ele>251.0</ele><time>2026-04-11T09:29:06.001Z</time></trkpt><trkpt lat="45.038891399149186" lon="8.024710704555305"><ele>255.0</ele><time>2026-04-11T09:29:07.001Z</time></trkpt><trkpt lat="45.03880501728955" lon="8.024512224010861"><ele>255.0</ele><time>2026-04-11T09:29:08.001Z</time></trkpt><trkpt lat="45.0387215283286" lon="8.024328320053051"><ele>255.0</ele><time>2026-04-11T09:29:09.001Z</time></trkpt><trkpt lat="45.03867431846796" lon="8.024131490416503"><ele>255.0</ele><time>2026-04-11T09:29:10.001Z</time></trkpt><trkpt lat="45.03862917950297" lon="8.023931856316917"><ele>255.0</ele><time>2026-04-11T09:29:11Z</time></trkpt><trkpt lat="45.038593365656354" lon="8.02372868402568"><ele>252.66666666666669</ele><time>2026-04-11T09:29:12Z</time></trkpt><trkpt lat="45.03854524921025" lon="8.02352046568197"><ele>250.33333333333334</ele><time>2026-04-11T09:29:13Z</time></trkpt><trkpt lat="45.03850451769479" lon="8.023293419778005"><ele>248.0</ele><time>2026-04-11T09:29:14Z</time></trkpt><trkpt lat="45.0384637537743" lon="8.0230685532679"><ele>243.33333333333334</ele><time>2026-04-11T09:29:15Z</time></trkpt><trkpt lat="45.03842322669449" lon="8.022851012126347"><ele>238.66666666666669</ele><time>2026-04-11T09:29:16Z</time></trkpt><trkpt lat="45.038383583772834" lon="8.02262504839462"><ele>234.0</ele><time>2026-04-11T09:29:17Z</time></trkpt><trkpt lat="45.03834300172366" lon="8.022384112828606"><ele>234.33333333333331</ele><time>2026-04-11T09:29:18Z</time></trkpt><trkpt lat="45.03830712777673" lon="8.022113266277186"><ele>234.66666666666666</ele><time>2026-04-11T09:29:19Z</time></trkpt><trkpt lat="45.038248999004665" lon="8.021784755823186"><ele>235.0</ele><time>2026-04-11T09:29:20Z</time></trkpt><trkpt lat="45.03818016398379" lon="8.021402415498411"><ele>228.5</ele><time>2026-04-11T09:29:21Z</time></trkpt><trkpt lat="45.03810284012308" lon="8.02099882061786"><ele>222.0</ele><time>2026-04-11T09:29:22Z</time></trkpt><trkpt lat="45.038054993176004" lon="8.020604557459171"><ele>218.5</ele><time>2026-04-11T09:29:23Z</time></trkpt><trkpt lat="45.038014407431646" lon="8.020245536778766"><ele>215.0</ele><time>2026-04-11T09:29:24Z</time></trkpt><trkpt lat="45.03797468700968" lon="8.019907841919906"><ele>214.5</ele><time>2026-04-11T09:29:25Z</time></trkpt><trkpt lat="45.03794164766253" lon="8.019583323024476"><ele>214.0</ele><time>2026-04-11T09:29:26Z</time></trkpt><trkpt lat="45.037911490357374" lon="8.01927637664869"><ele>214.33333333333331</ele><time>2026-04-11T09:29:27Z</time></trkpt><trkpt lat="45.03788013196089" lon="8.018989060633885"><ele>214.66666666666669</ele><time>2026-04-11T09:29:28Z</time></trkpt><trkpt lat="45.037848640246125" lon="8.01870684859249"><ele>215.0</ele><time>2026-04-11T09:29:29Z</time></trkpt><trkpt lat="45.037819998918934" lon="8.018441211602736"><ele>215.33333333333334</ele><time>2026-04-11T09:29:30Z</time></trkpt><trkpt lat="45.03779208427651" lon="8.01818873030434"><ele>215.66666666666669</ele><time>2026-04-11T09:29:31Z</time></trkpt><trkpt lat="45.037766408219674" lon="8.017941006899623"><ele>216.0</ele><time>2026-04-11T09:29:32Z</time></trkpt><trkpt lat="45.0377436676815" lon="8.017712364681719"><ele>216.0</ele><time>2026-04-11T09:29:33Z</time></trkpt><trkpt lat="45.037719477425654" lon="8.017496881176156"><ele>216.0</ele><time>2026-04-11T09:29:34Z</time></trkpt><trkpt lat="45.03769729818777" lon="8.017289700453595"><ele>216.0</ele><time>2026-04-11T09:29:35Z</time></trkpt><trkpt lat="45.037678066736994" lon="8.017092471061758"><ele>216.0</ele><time>2026-04-11T09:29:36Z</time></trkpt><trkpt lat="45.03765967590563" lon="8.016907241309166"><ele>215.8</ele><time>2026-04-11T09:29:37Z</time></trkpt><trkpt lat="45.0376407844929" lon="8.016735011900561"><ele>215.60000000000002</ele><time>2026-04-11T09:29:38Z</time></trkpt><trkpt lat="45.03762347052692" lon="8.016570193046416"><ele>215.4</ele><time>2026-04-11T09:29:39Z</time></trkpt><trkpt lat="45.03760854401781" lon="8.0164306689393"><ele>215.2</ele><time>2026-04-11T09:29:40Z</time></trkpt><trkpt lat="45.03759757569123" lon="8.016316389591834"><ele>215.0</ele><time>2026-04-11T09:29:41Z</time></trkpt><trkpt lat="45.037590576065604" lon="8.016226270832524"><ele>215.4</ele><time>2026-04-11T09:29:42Z</time></trkpt><trkpt lat="45.037582569120445" lon="8.016128052771535"><ele>215.8</ele><time>2026-04-11T09:29:44Z</time></trkpt><trkpt lat="45.037563438912215" lon="8.016004988944832"><ele>216.2</ele><time>2026-04-11T09:29:55.001Z</time></trkpt><trkpt lat="45.03754458552732" lon="8.0158443198601"><ele>216.6</ele><time>2026-04-11T09:29:56.001Z</time></trkpt><trkpt lat="45.03752797629908" lon="8.015668146301387"><ele>217.0</ele><time>2026-04-11T09:29:57.001Z</time></trkpt><trkpt lat="45.03752248430308" lon="8.015451708407921"><ele>217.0</ele><time>2026-04-11T09:29:58.001Z</time></trkpt><trkpt lat="45.037533876795294" lon="8.015210858423481"><ele>217.0</ele><time>2026-04-11T09:29:59.001Z</time></trkpt><trkpt lat="45.03756469459399" lon="8.014930492440568"><ele>217.0</ele><time>2026-04-11T09:30:00.001Z</time></trkpt><trkpt lat="45.03760308656974" lon="8.014636834653052"><ele>217.0</ele><time>2026-04-11T09:30:01.001Z</time></trkpt><trkpt lat="45.03765161238501" lon="8.014283110453126"><ele>217.0</ele><time>2026-04-11T09:30:02.001Z</time></trkpt><trkpt lat="45.0377054283399" lon="8.013884277135299"><ele>218.5</ele><time>2026-04-11T09:30:03.001Z</time></trkpt><trkpt lat="45.037764974957035" lon="8.013458506051334"><ele>220.0</ele><time>2026-04-11T09:30:04.001Z</time></trkpt><trkpt lat="45.03782121103825" lon="8.013044257552044"><ele>222.5</ele><time>2026-04-11T09:30:05.001Z</time></trkpt><trkpt lat="45.03786978752797" lon="8.012681682568193"><ele>225.0</ele><time>2026-04-11T09:30:06.001Z</time></trkpt><trkpt lat="45.03791720051362" lon="8.012343805924168"><ele>227.0</ele><time>2026-04-11T09:30:07.001Z</time></trkpt><trkpt lat="45.037962419824765" lon="8.01201395518493"><ele>229.0</ele><time>2026-04-11T09:30:08.001Z</time></trkpt><trkpt lat="45.03801985174725" lon="8.011685928923594"><ele>230.0</ele><time>2026-04-11T09:30:09.001Z</time></trkpt><trkpt lat="45.03806198463169" lon="8.011373026823685"><ele>231.0</ele><time>2026-04-11T09:30:10.001Z</time></trkpt><trkpt lat="45.038100159284845" lon="8.011089521467888"><ele>232.0</ele><time>2026-04-11T09:30:11.001Z</time></trkpt><trkpt lat="45.0381388317179" lon="8.010821467035692"><ele>230.33333333333331</ele><time>2026-04-11T09:30:12.001Z</time></trkpt><trkpt lat="45.03820668997488" lon="8.010563499157987"><ele>228.66666666666669</ele><time>2026-04-11T09:30:13.001Z</time></trkpt><trkpt lat="45.03831759232182" lon="8.0103261955463"><ele>227.0</ele><time>2026-04-11T09:30:14.001Z</time></trkpt><trkpt lat="45.038447720146145" lon="8.010091848120837"><ele>231.5</ele><time>2026-04-11T09:30:15.001Z</time></trkpt><trkpt lat="45.03857431895644" lon="8.009839878494017"><ele>236.0</ele><time>2026-04-11T09:30:16.001Z</time></trkpt><trkpt lat="45.038725329724215" lon="8.009582363362982"><ele>236.0</ele><time>2026-04-11T09:30:17.001Z</time></trkpt><trkpt lat="45.03888615640608" lon="8.009306624692728"><ele>236.0</ele><time>2026-04-11T09:30:18.001Z</time></trkpt><trkpt lat="45.0390472272292" lon="8.009030286671942"><ele>235.0</ele><time>2026-04-11T09:30:19.001Z</time></trkpt><trkpt lat="45.03920861558266" lon="8.008785932137092"><ele>234.0</ele><time>2026-04-11T09:30:20.001Z</time></trkpt><trkpt lat="45.03934917026769" lon="8.00853991714308"><ele>238.5</ele><time>2026-04-11T09:30:21.001Z</time></trkpt><trkpt lat="45.03946696827787" lon="8.008267012549013"><ele>243.0</ele><time>2026-04-11T09:30:22.001Z</time></trkpt><trkpt lat="45.039571271148546" lon="8.007983609216582"><ele>243.0</ele><time>2026-04-11T09:30:23.001Z</time></trkpt><trkpt lat="45.03965774038151" lon="8.007678151600887"><ele>243.0</ele><time>2026-04-11T09:30:24.001Z</time></trkpt><trkpt lat="45.03976447351535" lon="8.007365911755562"><ele>252.0</ele><time>2026-04-11T09:30:25.001Z</time></trkpt><trkpt lat="45.03986289471947" lon="8.007056611600861"><ele>261.0</ele><time>2026-04-11T09:30:26.001Z</time></trkpt><trkpt lat="45.03993979140126" lon="8.006765218584965"><ele>256.0</ele><time>2026-04-11T09:30:27.001Z</time></trkpt><trkpt lat="45.04002176650508" lon="8.006521747824651"><ele>251.0</ele><time>2026-04-11T09:30:28.001Z</time></trkpt><trkpt lat="45.040082269945145" lon="8.006336304688991"><ele>246.0</ele><time>2026-04-11T09:30:29.001Z</time></trkpt><trkpt lat="45.04012107191063" lon="8.006175459204647"><ele>246.0</ele><time>2026-04-11T09:30:30.001Z</time></trkpt><trkpt lat="45.04012262783162" lon="8.006014933059712"><ele>246.0</ele><time>2026-04-11T09:30:31.001Z</time></trkpt><trkpt lat="45.040088152209954" lon="8.005860161530416"><ele>246.0</ele><time>2026-04-11T09:30:32.001Z</time></trkpt><trkpt lat="45.0400083872385" lon="8.00568306941057"><ele>246.0</ele><time>2026-04-11T09:30:33.001Z</time></trkpt><trkpt lat="45.039894200273835" lon="8.005479033890493"><ele>252.0</ele><time>2026-04-11T09:30:34.001Z</time></trkpt><trkpt lat="45.039768114353706" lon="8.005243045037464"><ele>258.0</ele><time>2026-04-11T09:30:35.001Z</time></trkpt><trkpt lat="45.03967486288666" lon="8.005007205373307"><ele>264.0</ele><time>2026-04-11T09:30:36.001Z</time></trkpt><trkpt lat="45.039582233826664" lon="8.004798154481074"><ele>264.0</ele><time>2026-04-11T09:30:37.001Z</time></trkpt><trkpt lat="45.039523982377496" lon="8.004529082959618"><ele>264.0</ele><time>2026-04-11T09:30:38.001Z</time></trkpt><trkpt lat="45.03945645046165" lon="8.004228918756713"><ele>264.0</ele><time>2026-04-11T09:30:39.001Z</time></trkpt><trkpt lat="45.039396492198144" lon="8.003963456773757"><ele>267.3333333333333</ele><time>2026-04-11T09:30:40.001Z</time></trkpt><trkpt lat="45.0393639639067" lon="8.003733064305171"><ele>270.66666666666663</ele><time>2026-04-11T09:30:41.001Z</time></trkpt><trkpt lat="45.039328528604976" lon="8.003506608408228"><ele>274.0</ele><time>2026-04-11T09:30:42.001Z</time></trkpt><trkpt lat="45.03931358175652" lon="8.003262745194501"><ele>274.0</ele><time>2026-04-11T09:30:43.001Z</time></trkpt><trkpt lat="45.03928873858981" lon="8.002981189732338"><ele>274.0</ele><time>2026-04-11T09:30:44.001Z</time></trkpt><trkpt lat="45.039282881226846" lon="8.00268346319249"><ele>274.0</ele><time>2026-04-11T09:30:45.001Z</time></trkpt><trkpt lat="45.03929325998402" lon="8.002421096998754"><ele>274.0</ele><time>2026-04-11T09:30:46.001Z</time></trkpt><trkpt lat="45.03928903727255" lon="8.002177013595864"><ele>274.0</ele><time>2026-04-11T09:30:47.001Z</time></trkpt><trkpt lat="45.039277040231944" lon="8.001946417591602"><ele>274.0</ele><time>2026-04-11T09:30:48.001Z</time></trkpt><trkpt lat="45.039290455832685" lon="8.00171591431333"><ele>269.0</ele><time>2026-04-11T09:30:49.001Z</time></trkpt><trkpt lat="45.039301254914335" lon="8.001471626341623"><ele>264.0</ele><time>2026-04-11T09:30:50.001Z</time></trkpt><trkpt lat="45.03930610452577" lon="8.001214680735778"><ele>259.0</ele><time>2026-04-11T09:30:51.001Z</time></trkpt><trkpt lat="45.03926453056128" lon="8.000973408218552"><ele>256.3333333333333</ele><time>2026-04-11T09:30:52.001Z</time></trkpt><trkpt lat="45.039239719338894" lon="8.000754227832845"><ele>253.66666666666669</ele><time>2026-04-11T09:30:53.001Z</time></trkpt><trkpt lat="45.03919570307317" lon="8.000518311923884"><ele>251.0</ele><time>2026-04-11T09:30:54.001Z</time></trkpt><trkpt lat="45.03914410720236" lon="8.000273725280195"><ele>259.6666666666667</ele><time>2026-04-11T09:30:55.001Z</time></trkpt><trkpt lat="45.039092847384346" lon="8.000030732405758"><ele>268.3333333333333</ele><time>2026-04-11T09:30:56.001Z</time></trkpt><trkpt lat="45.039034357228296" lon="7.999756530754055"><ele>277.0</ele><time>2026-04-11T09:30:57.001Z</time></trkpt><trkpt lat="45.038970621741804" lon="7.999459927622432"><ele>270.0</ele><time>2026-04-11T09:30:58.001Z</time></trkpt><trkpt lat="45.038903957853556" lon="7.999150820672999"><ele>263.0</ele><time>2026-04-11T09:30:59.001Z</time></trkpt><trkpt lat="45.038837085933444" lon="7.998840749315746"><ele>263.0</ele><time>2026-04-11T09:31:00.001Z</time></trkpt><trkpt lat="45.03876977452963" lon="7.998527402833835"><ele>263.0</ele><time>2026-04-11T09:31:01.001Z</time></trkpt><trkpt lat="45.038703097042884" lon="7.998214201097714"><ele>258.6666666666667</ele><time>2026-04-11T09:31:02.001Z</time></trkpt><trkpt lat="45.03863624568321" lon="7.997902354701327"><ele>254.33333333333331</ele><time>2026-04-11T09:31:03.001Z</time></trkpt><trkpt lat="45.038572259412454" lon="7.997606460734931"><ele>250.0</ele><time>2026-04-11T09:31:04.001Z</time></trkpt><trkpt lat="45.0385053923798" lon="7.997297244644001"><ele>246.5</ele><time>2026-04-11T09:31:05.001Z</time></trkpt><trkpt lat="45.03843604958353" lon="7.996976580028795"><ele>243.0</ele><time>2026-04-11T09:31:06.001Z</time></trkpt><trkpt lat="45.038356141697314" lon="7.996682745808036"><ele>243.33333333333331</ele><time>2026-04-11T09:31:07.001Z</time></trkpt><trkpt lat="45.03830551299524" lon="7.996373506051637"><ele>243.66666666666666</ele><time>2026-04-11T09:31:08.001Z</time></trkpt><trkpt lat="45.038225278331055" lon="7.996083218014253"><ele>244.0</ele><time>2026-04-11T09:31:09.001Z</time></trkpt><trkpt lat="45.03816440446063" lon="7.9957937839626325"><ele>243.66666666666666</ele><time>2026-04-11T09:31:10.001Z</time></trkpt><trkpt lat="45.0381049524444" lon="7.995511104344287"><ele>243.33333333333331</ele><time>2026-04-11T09:31:11.001Z</time></trkpt><trkpt lat="45.03804400699622" lon="7.995229039108335"><ele>243.0</ele><time>2026-04-11T09:31:12.001Z</time></trkpt><trkpt lat="45.0379837983068" lon="7.994950022456583"><ele>243.0</ele><time>2026-04-11T09:31:13.001Z</time></trkpt><trkpt lat="45.037925541939806" lon="7.994673017631227"><ele>243.0</ele><time>2026-04-11T09:31:14.001Z</time></trkpt><trkpt lat="45.03787940925084" lon="7.994402345988908"><ele>243.0</ele><time>2026-04-11T09:31:15.001Z</time></trkpt><trkpt lat="45.03782442094334" lon="7.994148233630755"><ele>243.66666666666669</ele><time>2026-04-11T09:31:16.001Z</time></trkpt><trkpt lat="45.03775949661858" lon="7.993867071719829"><ele>244.33333333333334</ele><time>2026-04-11T09:31:17Z</time></trkpt><trkpt lat="45.03770321227934" lon="7.993614970989548"><ele>245.0</ele><time>2026-04-11T09:31:18Z</time></trkpt><trkpt lat="45.03765119922712" lon="7.993382408814942"><ele>245.33333333333334</ele><time>2026-04-11T09:31:19Z</time></trkpt><trkpt lat="45.03760451161715" lon="7.993151104056347"><ele>245.66666666666669</ele><time>2026-04-11T09:31:20Z</time></trkpt><trkpt lat="45.037549141885286" lon="7.99290438467594"><ele>246.0</ele><time>2026-04-11T09:31:21Z</time></trkpt><trkpt lat="45.037485771116195" lon="7.992637666189757"><ele>247.0</ele><time>2026-04-11T09:31:22Z</time></trkpt><trkpt lat="45.03743331530283" lon="7.992361907027782"><ele>248.0</ele><time>2026-04-11T09:31:23Z</time></trkpt><trkpt lat="45.03738102373777" lon="7.992107711935453"><ele>249.0</ele><time>2026-04-11T09:31:24Z</time></trkpt><trkpt lat="45.03732526744078" lon="7.9918845641860505"><ele>251.33333333333331</ele><time>2026-04-11T09:31:25Z</time></trkpt><trkpt lat="45.037273412382426" lon="7.99165033212905"><ele>253.66666666666666</ele><time>2026-04-11T09:31:26Z</time></trkpt><trkpt lat="45.03722349875979" lon="7.9914194112572225"><ele>256.0</ele><time>2026-04-11T09:31:27Z</time></trkpt><trkpt lat="45.03718273466956" lon="7.991199715317089"><ele>256.0</ele><time>2026-04-11T09:31:28Z</time></trkpt><trkpt lat="45.0371552972364" lon="7.991006106155311"><ele>256.0</ele><time>2026-04-11T09:31:29Z</time></trkpt><trkpt lat="45.03718110922897" lon="7.990813040126911"><ele>256.0</ele><time>2026-04-11T09:31:30Z</time></trkpt><trkpt lat="45.03721685731044" lon="7.990644633338608"><ele>256.0</ele><time>2026-04-11T09:31:31Z</time></trkpt><trkpt lat="45.03728050960362" lon="7.990465595174266"><ele>256.0</ele><time>2026-04-11T09:31:32Z</time></trkpt><trkpt lat="45.03737206146017" lon="7.990248427878183"><ele>256.0</ele><time>2026-04-11T09:31:33Z</time></trkpt><trkpt lat="45.03747876704576" lon="7.9899978812271994"><ele>256.0</ele><time>2026-04-11T09:31:34Z</time></trkpt><trkpt lat="45.03758087707393" lon="7.989758124403352"><ele>256.0</ele><time>2026-04-11T09:31:35Z</time></trkpt><trkpt lat="45.03767539128912" lon="7.989536422946617"><ele>256.0</ele><time>2026-04-11T09:31:36Z</time></trkpt><trkpt lat="45.037768590291456" lon="7.989327338140271"><ele>256.0</ele><time>2026-04-11T09:31:37Z</time></trkpt><trkpt lat="45.03785961415724" lon="7.989137553367946"><ele>253.33333333333331</ele><time>2026-04-11T09:31:38Z</time></trkpt><trkpt lat="45.03795532901849" lon="7.9889617617630755"><ele>250.66666666666669</ele><time>2026-04-11T09:31:39Z</time></trkpt><trkpt lat="45.03806396325704" lon="7.988801931066998"><ele>248.0</ele><time>2026-04-11T09:31:40Z</time></trkpt><trkpt lat="45.03818430018618" lon="7.988652595511153"><ele>250.0</ele><time>2026-04-11T09:31:41Z</time></trkpt><trkpt lat="45.03831688763448" lon="7.98852615270247"><ele>252.0</ele><time>2026-04-11T09:31:42Z</time></trkpt><trkpt lat="45.038456688819316" lon="7.988420402404013"><ele>254.0</ele><time>2026-04-11T09:31:43Z</time></trkpt><trkpt lat="45.038601910998835" lon="7.988334087400537"><ele>254.0</ele><time>2026-04-11T09:31:44Z</time></trkpt><trkpt lat="45.03874321255392" lon="7.988260971683245"><ele>254.0</ele><time>2026-04-11T09:31:45Z</time></trkpt><trkpt lat="45.03888460461473" lon="7.988201999840136"><ele>254.0</ele><time>2026-04-11T09:31:46Z</time></trkpt><trkpt lat="45.0390247339426" lon="7.988122789620774"><ele>254.0</ele><time>2026-04-11T09:31:47Z</time></trkpt><trkpt lat="45.03917420321555" lon="7.988050241351728"><ele>256.6666666666667</ele><time>2026-04-11T09:31:48Z</time></trkpt><trkpt lat="45.03932975018432" lon="7.987951484743811"><ele>259.3333333333333</ele><time>2026-04-11T09:31:49Z</time></trkpt><trkpt lat="45.03951892683244" lon="7.9878261624174085"><ele>262.0</ele><time>2026-04-11T09:31:50Z</time></trkpt><trkpt lat="45.03971693827971" lon="7.9876451846316785"><ele>264.0</ele><time>2026-04-11T09:31:51Z</time></trkpt><trkpt lat="45.03991272588834" lon="7.987451031402754"><ele>266.0</ele><time>2026-04-11T09:31:52Z</time></trkpt><trkpt lat="45.04008756160603" lon="7.987233423903628"><ele>266.0</ele><time>2026-04-11T09:31:53Z</time></trkpt><trkpt lat="45.04024887427632" lon="7.987001923779606"><ele>266.0</ele><time>2026-04-11T09:31:54Z</time></trkpt><trkpt lat="45.04039176787869" lon="7.986732548628498"><ele>263.5</ele><time>2026-04-11T09:31:55Z</time></trkpt><trkpt lat="45.040524303209814" lon="7.986408228720729"><ele>261.0</ele><time>2026-04-11T09:31:56Z</time></trkpt><trkpt lat="45.04067223734282" lon="7.986056887434028"><ele>263.0</ele><time>2026-04-11T09:31:57Z</time></trkpt><trkpt lat="45.04082391686601" lon="7.985718224260943"><ele>265.0</ele><time>2026-04-11T09:31:58Z</time></trkpt><trkpt lat="45.04096527705357" lon="7.985409124523551"><ele>265.0</ele><time>2026-04-11T09:31:59Z</time></trkpt><trkpt lat="45.04109854845153" lon="7.985110494155634"><ele>265.0</ele><time>2026-04-11T09:32:00Z</time></trkpt><trkpt lat="45.04124706714487" lon="7.984832739901784"><ele>267.0</ele><time>2026-04-11T09:32:01Z</time></trkpt><trkpt lat="45.041391003426476" lon="7.984548653044442"><ele>269.0</ele><time>2026-04-11T09:32:02Z</time></trkpt><trkpt lat="45.04152091674875" lon="7.984287004003875"><ele>269.0</ele><time>2026-04-11T09:32:03Z</time></trkpt><trkpt lat="45.04165508042197" lon="7.984070951882595"><ele>269.0</ele><time>2026-04-11T09:32:04Z</time></trkpt><trkpt lat="45.04177837121359" lon="7.983876521168765"><ele>269.0</ele><time>2026-04-11T09:32:05Z</time></trkpt><trkpt lat="45.04188395002594" lon="7.983692989243356"><ele>269.0</ele><time>2026-04-11T09:32:06Z</time></trkpt><trkpt lat="45.04197482695539" lon="7.983513316364314"><ele>269.0</ele><time>2026-04-11T09:32:07.001Z</time></trkpt><trkpt lat="45.04205100357394" lon="7.98331694486859"><ele>269.0</ele><time>2026-04-11T09:32:08.001Z</time></trkpt><trkpt lat="45.042098993075015" lon="7.983102640196899"><ele>269.6666666666667</ele><time>2026-04-11T09:32:09.001Z</time></trkpt><trkpt lat="45.04211752404023" lon="7.982887400250115"><ele>270.3333333333333</ele><time>2026-04-11T09:32:10.001Z</time></trkpt><trkpt lat="45.04211521077746" lon="7.982669323165971"><ele>271.0</ele><time>2026-04-11T09:32:11.001Z</time></trkpt><trkpt lat="45.04208246218221" lon="7.982448709592417"><ele>275.66666666666663</ele><time>2026-04-11T09:32:12.001Z</time></trkpt><trkpt lat="45.04201275993527" lon="7.98221680443268"><ele>280.3333333333333</ele><time>2026-04-11T09:32:13.001Z</time></trkpt><trkpt lat="45.04191883680319" lon="7.981965720944807"><ele>285.0</ele><time>2026-04-11T09:32:14.001Z</time></trkpt><trkpt lat="45.04182489663334" lon="7.981715315006463"><ele>286.3333333333333</ele><time>2026-04-11T09:32:15.001Z</time></trkpt><trkpt lat="45.041743439973594" lon="7.981494831172951"><ele>287.66666666666663</ele><time>2026-04-11T09:32:16.001Z</time></trkpt><trkpt lat="45.04166757538212" lon="7.981283319313684"><ele>289.0</ele><time>2026-04-11T09:32:17.001Z</time></trkpt><trkpt lat="45.04160170918669" lon="7.981089531924163"><ele>287.66666666666663</ele><time>2026-04-11T09:32:18.001Z</time></trkpt><trkpt lat="45.041527521243026" lon="7.980889568028291"><ele>286.3333333333333</ele><time>2026-04-11T09:32:19.001Z</time></trkpt><trkpt lat="45.04146778789763" lon="7.980649651726067"><ele>285.0</ele><time>2026-04-11T09:32:20.001Z</time></trkpt><trkpt lat="45.04143050722293" lon="7.980434458007595"><ele>285.0</ele><time>2026-04-11T09:32:21.001Z</time></trkpt><trkpt lat="45.041427936301034" lon="7.980269130141961"><ele>285.0</ele><time>2026-04-11T09:32:22.001Z</time></trkpt><trkpt lat="45.04140563229524" lon="7.980073874420887"><ele>285.0</ele><time>2026-04-11T09:32:23.001Z</time></trkpt><trkpt lat="45.04138486890263" lon="7.979899048484469"><ele>285.0</ele><time>2026-04-11T09:32:24.001Z</time></trkpt><trkpt lat="45.04136569352311" lon="7.979763830170787"><ele>282.4</ele><time>2026-04-11T09:32:25.001Z</time></trkpt><trkpt lat="45.0413671313929" lon="7.979648195380126"><ele>279.8</ele><time>2026-04-11T09:32:26.001Z</time></trkpt><trkpt lat="45.041348930673934" lon="7.979492607955799"><ele>277.2</ele><time>2026-04-11T09:32:28.001Z</time></trkpt><trkpt lat="45.041202479185635" lon="7.979544130342669"><ele>274.6</ele><time>2026-04-11T09:32:31.001Z</time></trkpt><trkpt lat="45.04116973014042" lon="7.979667318968879"><ele>272.0</ele><time>2026-04-11T09:32:33.001Z</time></trkpt><trkpt lat="45.04116439885947" lon="7.979803053593329"><ele>272.0</ele><time>2026-04-11T09:32:34.001Z</time></trkpt><trkpt lat="45.04117329831463" lon="7.9799546161383565"><ele>272.0</ele><time>2026-04-11T09:32:35.001Z</time></trkpt><trkpt lat="45.041200121654555" lon="7.980130992209363"><ele>272.0</ele><time>2026-04-11T09:32:36.001Z</time></trkpt><trkpt lat="45.04123584104393" lon="7.980309978632192"><ele>272.0</ele><time>2026-04-11T09:32:37.001Z</time></trkpt><trkpt lat="45.04127286537205" lon="7.980495089458801"><ele>275.25</ele><time>2026-04-11T09:32:38.001Z</time></trkpt><trkpt lat="45.04131076758116" lon="7.980684683731719"><ele>278.5</ele><time>2026-04-11T09:32:39.001Z</time></trkpt><trkpt lat="45.041342181411025" lon="7.980864457990489"><ele>281.75</ele><time>2026-04-11T09:32:40.001Z</time></trkpt><trkpt lat="45.04137755819242" lon="7.981046473687015"><ele>285.0</ele><time>2026-04-11T09:32:41.001Z</time></trkpt><trkpt lat="45.0414215855752" lon="7.9812096282161535"><ele>287.5</ele><time>2026-04-11T09:32:42.001Z</time></trkpt><trkpt lat="45.04147978094475" lon="7.981338540817059"><ele>290.0</ele><time>2026-04-11T09:32:43.001Z</time></trkpt><trkpt lat="45.04155687713506" lon="7.9815919241552145"><ele>292.5</ele><time>2026-04-11T09:32:45.001Z</time></trkpt><trkpt lat="45.04157029825755" lon="7.981754741211335"><ele>295.0</ele><time>2026-04-11T09:32:46.001Z</time></trkpt><trkpt lat="45.0415579285968" lon="7.981921149049834"><ele>295.25</ele><time>2026-04-11T09:32:47.001Z</time></trkpt><trkpt lat="45.04152488863552" lon="7.982093189193084"><ele>295.5</ele><time>2026-04-11T09:32:48.001Z</time></trkpt><trkpt lat="45.04146703204001" lon="7.982279853910478"><ele>295.75</ele><time>2026-04-11T09:32:49.001Z</time></trkpt><trkpt lat="45.04138124526334" lon="7.982473681208717"><ele>296.0</ele><time>2026-04-11T09:32:50.001Z</time></trkpt><trkpt lat="45.04128743071093" lon="7.982647491282652"><ele>295.25</ele><time>2026-04-11T09:32:51.001Z</time></trkpt><trkpt lat="45.04118850146854" lon="7.982796906724602"><ele>294.5</ele><time>2026-04-11T09:32:52.001Z</time></trkpt><trkpt lat="45.041078513928525" lon="7.982930514808596"><ele>293.75</ele><time>2026-04-11T09:32:53.001Z</time></trkpt><trkpt lat="45.04095831345047" lon="7.9830318325993295"><ele>293.0</ele><time>2026-04-11T09:32:54.001Z</time></trkpt><trkpt lat="45.04083571701473" lon="7.983111555048278"><ele>292.0</ele><time>2026-04-11T09:32:55.001Z</time></trkpt><trkpt lat="45.04073431431937" lon="7.983152562769804"><ele>291.0</ele><time>2026-04-11T09:32:56.001Z</time></trkpt><trkpt lat="45.04064410946139" lon="7.983169626091811"><ele>290.0</ele><time>2026-04-11T09:32:57.001Z</time></trkpt><trkpt lat="45.04053382999468" lon="7.983207948395882"><ele>289.0</ele><time>2026-04-11T09:32:58.001Z</time></trkpt><trkpt lat="45.04040123342194" lon="7.983288619760288"><ele>291.0</ele><time>2026-04-11T09:32:59.001Z</time></trkpt><trkpt lat="45.04023251036919" lon="7.983413127384214"><ele>293.0</ele><time>2026-04-11T09:33:00.001Z</time></trkpt><trkpt lat="45.04004774767765" lon="7.983549313629259"><ele>295.0</ele><time>2026-04-11T09:33:01.001Z</time></trkpt><trkpt lat="45.039848293359995" lon="7.983711340625926"><ele>295.0</ele><time>2026-04-11T09:33:02.001Z</time></trkpt><trkpt lat="45.039662006304425" lon="7.983874193466294"><ele>295.0</ele><time>2026-04-11T09:33:03.001Z</time></trkpt><trkpt lat="45.039494114262105" lon="7.984015790623625"><ele>295.0</ele><time>2026-04-11T09:33:04.001Z</time></trkpt><trkpt lat="45.03934578288218" lon="7.984143584192356"><ele>293.0</ele><time>2026-04-11T09:33:05.001Z</time></trkpt><trkpt lat="45.03919670234798" lon="7.984259428029511"><ele>291.0</ele><time>2026-04-11T09:33:06.001Z</time></trkpt><trkpt lat="45.03903785924548" lon="7.984365674503885"><ele>289.0</ele><time>2026-04-11T09:33:07.001Z</time></trkpt><trkpt lat="45.038879401191885" lon="7.984465704264055"><ele>289.0</ele><time>2026-04-11T09:33:08.001Z</time></trkpt><trkpt lat="45.038732510874254" lon="7.984567195640635"><ele>289.0</ele><time>2026-04-11T09:33:09.001Z</time></trkpt><trkpt lat="45.038592864600496" lon="7.9846814642006665"><ele>289.0</ele><time>2026-04-11T09:33:10.001Z</time></trkpt><trkpt lat="45.03846277301602" lon="7.98481643273256"><ele>289.0</ele><time>2026-04-11T09:33:11.001Z</time></trkpt><trkpt lat="45.038331131629626" lon="7.984961222194938"><ele>289.0</ele><time>2026-04-11T09:33:12.001Z</time></trkpt><trkpt lat="45.038198107208395" lon="7.98506483878708"><ele>289.0</ele><time>2026-04-11T09:33:13.001Z</time></trkpt><trkpt lat="45.038057665313055" lon="7.985108812893398"><ele>291.0</ele><time>2026-04-11T09:33:14.001Z</time></trkpt><trkpt lat="45.03791240360264" lon="7.985101834757062"><ele>293.0</ele><time>2026-04-11T09:33:15.001Z</time></trkpt><trkpt lat="45.03777271697874" lon="7.985078448590692"><ele>295.0</ele><time>2026-04-11T09:33:16.001Z</time></trkpt><trkpt lat="45.03763921984279" lon="7.985084235503867"><ele>297.0</ele><time>2026-04-11T09:33:17.001Z</time></trkpt><trkpt lat="45.037509958051444" lon="7.985138058833655"><ele>295.75</ele><time>2026-04-11T09:33:18.001Z</time></trkpt><trkpt lat="45.03738095294206" lon="7.98523218923922"><ele>294.5</ele><time>2026-04-11T09:33:19.001Z</time></trkpt><trkpt lat="45.03725790398942" lon="7.985365977097625"><ele>293.25</ele><time>2026-04-11T09:33:20.001Z</time></trkpt><trkpt lat="45.03715525086929" lon="7.985510554124361"><ele>292.0</ele><time>2026-04-11T09:33:21.001Z</time></trkpt><trkpt lat="45.03704723478673" lon="7.9856333390164345"><ele>292.0</ele><time>2026-04-11T09:33:22Z</time></trkpt><trkpt lat="45.03691888478529" lon="7.985690852177332"><ele>292.0</ele><time>2026-04-11T09:33:23Z</time></trkpt><trkpt lat="45.03675940262786" lon="7.985681847148775"><ele>292.0</ele><time>2026-04-11T09:33:24Z</time></trkpt><trkpt lat="45.03658497025" lon="7.985700020631926"><ele>290.0</ele><time>2026-04-11T09:33:25Z</time></trkpt><trkpt lat="45.03639524859615" lon="7.9856944794453435"><ele>288.0</ele><time>2026-04-11T09:33:26Z</time></trkpt><trkpt lat="45.03623412523327" lon="7.985708438537623"><ele>286.0</ele><time>2026-04-11T09:33:27Z</time></trkpt><trkpt lat="45.036089097991834" lon="7.985710069037495"><ele>286.0</ele><time>2026-04-11T09:33:28Z</time></trkpt><trkpt lat="45.035958848544276" lon="7.98566339943086"><ele>286.0</ele><time>2026-04-11T09:33:29Z</time></trkpt><trkpt lat="45.03584258324343" lon="7.985577053102476"><ele>286.0</ele><time>2026-04-11T09:33:30Z</time></trkpt><trkpt lat="45.035729571013746" lon="7.9854650574273585"><ele>286.0</ele><time>2026-04-11T09:33:31Z</time></trkpt><trkpt lat="45.035651498846384" lon="7.985302120006776"><ele>284.75</ele><time>2026-04-11T09:33:32Z</time></trkpt><trkpt lat="45.0355744922108" lon="7.985176352806805"><ele>283.5</ele><time>2026-04-11T09:33:33Z</time></trkpt><trkpt lat="45.035517382379744" lon="7.985059963801029"><ele>282.25</ele><time>2026-04-11T09:33:34Z</time></trkpt><trkpt lat="45.03542982906875" lon="7.984990251854509"><ele>281.0</ele><time>2026-04-11T09:33:35Z</time></trkpt><trkpt lat="45.035301657979815" lon="7.984941293591798"><ele>281.0</ele><time>2026-04-11T09:33:36Z</time></trkpt><trkpt lat="45.03515278178469" lon="7.98488731141484"><ele>281.0</ele><time>2026-04-11T09:33:37Z</time></trkpt><trkpt lat="45.035018651038335" lon="7.984832174186969"><ele>281.0</ele><time>2026-04-11T09:33:38Z</time></trkpt><trkpt lat="45.034894284986194" lon="7.984784536379397"><ele>281.0</ele><time>2026-04-11T09:33:39Z</time></trkpt><trkpt lat="45.03477743043949" lon="7.984771935906186"><ele>281.25</ele><time>2026-04-11T09:33:40Z</time></trkpt><trkpt lat="45.03464359051614" lon="7.984808637908914"><ele>281.5</ele><time>2026-04-11T09:33:41Z</time></trkpt><trkpt lat="45.03449589230314" lon="7.984888574378163"><ele>281.75</ele><time>2026-04-11T09:33:42Z</time></trkpt><trkpt lat="45.03436587706447" lon="7.98497798526447"><ele>282.0</ele><time>2026-04-11T09:33:43Z</time></trkpt><trkpt lat="45.03425255248807" lon="7.985071034076444"><ele>280.0</ele><time>2026-04-11T09:33:44Z</time></trkpt><trkpt lat="45.03413091009647" lon="7.98512677387331"><ele>278.0</ele><time>2026-04-11T09:33:45Z</time></trkpt><trkpt lat="45.033988854067424" lon="7.9851449907255105"><ele>276.0</ele><time>2026-04-11T09:33:46Z</time></trkpt><trkpt lat="45.033827496453924" lon="7.985130627020136"><ele>274.0</ele><time>2026-04-11T09:33:47Z</time></trkpt><trkpt lat="45.033663219593194" lon="7.985095903644095"><ele>273.3333333333333</ele><time>2026-04-11T09:33:48Z</time></trkpt><trkpt lat="45.03350517783547" lon="7.985001521460728"><ele>272.6666666666667</ele><time>2026-04-11T09:33:49Z</time></trkpt><trkpt lat="45.03334772695992" lon="7.984890737863223"><ele>272.0</ele><time>2026-04-11T09:33:50Z</time></trkpt><trkpt lat="45.03320624392661" lon="7.984769101199298"><ele>272.0</ele><time>2026-04-11T09:33:51Z</time></trkpt><trkpt lat="45.033080253363444" lon="7.984641553677961"><ele>272.0</ele><time>2026-04-11T09:33:52Z</time></trkpt><trkpt lat="45.032961003510835" lon="7.984539455848548"><ele>272.0</ele><time>2026-04-11T09:33:53Z</time></trkpt><trkpt lat="45.03282585080086" lon="7.984490910920944"><ele>272.0</ele><time>2026-04-11T09:33:54Z</time></trkpt><trkpt lat="45.03265950138828" lon="7.984480457400792"><ele>272.0</ele><time>2026-04-11T09:33:55Z</time></trkpt><trkpt lat="45.0324875564609" lon="7.9844926893977926"><ele>272.0</ele><time>2026-04-11T09:33:56Z</time></trkpt><trkpt lat="45.03232812658874" lon="7.9844917885215345"><ele>272.0</ele><time>2026-04-11T09:33:57Z</time></trkpt><trkpt lat="45.03217099865297" lon="7.984545745459149"><ele>272.0</ele><time>2026-04-11T09:33:58Z</time></trkpt><trkpt lat="45.03203329924953" lon="7.984612272414695"><ele>272.0</ele><time>2026-04-11T09:33:59Z</time></trkpt><trkpt lat="45.03190590109969" lon="7.984709655522856"><ele>272.0</ele><time>2026-04-11T09:34:00Z</time></trkpt><trkpt lat="45.03177307402276" lon="7.984859234217909"><ele>271.6666666666667</ele><time>2026-04-11T09:34:01Z</time></trkpt><trkpt lat="45.031627413891705" lon="7.985015689062505"><ele>271.3333333333333</ele><time>2026-04-11T09:34:02Z</time></trkpt><trkpt lat="45.03148486217545" lon="7.985166534419853"><ele>271.0</ele><time>2026-04-11T09:34:03Z</time></trkpt><trkpt lat="45.03133604754957" lon="7.985304586802023"><ele>271.0</ele><time>2026-04-11T09:34:04Z</time></trkpt><trkpt lat="45.03118200817659" lon="7.985430473417377"><ele>271.0</ele><time>2026-04-11T09:34:05Z</time></trkpt><trkpt lat="45.03103940045651" lon="7.985554276484884"><ele>271.0</ele><time>2026-04-11T09:34:06.001Z</time></trkpt><trkpt lat="45.03091140332046" lon="7.985679962955103"><ele>271.75</ele><time>2026-04-11T09:34:07.001Z</time></trkpt><trkpt lat="45.03079145946536" lon="7.9858313375427805"><ele>272.5</ele><time>2026-04-11T09:34:08.001Z</time></trkpt><trkpt lat="45.03069139000017" lon="7.986000533175673"><ele>273.25</ele><time>2026-04-11T09:34:09.001Z</time></trkpt><trkpt lat="45.03061866215141" lon="7.986142396694008"><ele>274.0</ele><time>2026-04-11T09:34:10.001Z</time></trkpt><trkpt lat="45.0305479222778" lon="7.986265248926406"><ele>274.0</ele><time>2026-04-11T09:34:11.001Z</time></trkpt><trkpt lat="45.0304764997446" lon="7.9863722166654965"><ele>274.0</ele><time>2026-04-11T09:34:12.001Z</time></trkpt><trkpt lat="45.03040719533066" lon="7.986468114765455"><ele>274.0</ele><time>2026-04-11T09:34:13.001Z</time></trkpt><trkpt lat="45.030317845910865" lon="7.9865063668457354"><ele>274.0</ele><time>2026-04-11T09:34:14.001Z</time></trkpt><trkpt lat="45.03021081210917" lon="7.986585468278029"><ele>274.0</ele><time>2026-04-11T09:34:15.001Z</time></trkpt><trkpt lat="45.03006432181177" lon="7.986652551945375"><ele>272.66666666666663</ele><time>2026-04-11T09:34:16.001Z</time></trkpt><trkpt lat="45.02990432479441" lon="7.986743970123927"><ele>271.3333333333333</ele><time>2026-04-11T09:34:17.001Z</time></trkpt><trkpt lat="45.02975892952349" lon="7.986841150541927"><ele>270.0</ele><time>2026-04-11T09:34:18.001Z</time></trkpt><trkpt lat="45.029610494829214" lon="7.986950730897919"><ele>270.0</ele><time>2026-04-11T09:34:19.001Z</time></trkpt><trkpt lat="45.02945024616419" lon="7.987060902220206"><ele>270.0</ele><time>2026-04-11T09:34:20.001Z</time></trkpt><trkpt lat="45.0292826048021" lon="7.98714649158919"><ele>270.0</ele><time>2026-04-11T09:34:21.001Z</time></trkpt><trkpt lat="45.02910693312397" lon="7.987204481358772"><ele>270.3333333333333</ele><time>2026-04-11T09:34:22.001Z</time></trkpt><trkpt lat="45.02892314132014" lon="7.987242621829755"><ele>270.66666666666663</ele><time>2026-04-11T09:34:23.001Z</time></trkpt><trkpt lat="45.02874047912785" lon="7.987265996702684"><ele>271.0</ele><time>2026-04-11T09:34:24.001Z</time></trkpt><trkpt lat="45.02856820267146" lon="7.9872866228571695"><ele>271.0</ele><time>2026-04-11T09:34:25.001Z</time></trkpt><trkpt lat="45.028384519897614" lon="7.987290359852081"><ele>271.0</ele><time>2026-04-11T09:34:26.001Z</time></trkpt><trkpt lat="45.028225451621594" lon="7.987230178387025"><ele>271.0</ele><time>2026-04-11T09:34:27.001Z</time></trkpt><trkpt lat="45.0280618782202" lon="7.987161846598903"><ele>269.0</ele><time>2026-04-11T09:34:28.001Z</time></trkpt><trkpt lat="45.027871503684324" lon="7.987101167290365"><ele>267.0</ele><time>2026-04-11T09:34:29.001Z</time></trkpt><trkpt lat="45.0276878768521" lon="7.987009261044297"><ele>265.0</ele><time>2026-04-11T09:34:30.001Z</time></trkpt><trkpt lat="45.02751765921085" lon="7.9869313096278045"><ele>265.0</ele><time>2026-04-11T09:34:31.001Z</time></trkpt><trkpt lat="45.027353201749094" lon="7.986866258245577"><ele>265.0</ele><time>2026-04-11T09:34:32.001Z</time></trkpt><trkpt lat="45.02719375592148" lon="7.986824011298186"><ele>265.0</ele><time>2026-04-11T09:34:33.001Z</time></trkpt><trkpt lat="45.02701772210626" lon="7.986827587443522"><ele>265.0</ele><time>2026-04-11T09:34:34.001Z</time></trkpt><trkpt lat="45.02684183762025" lon="7.986893400592429"><ele>265.0</ele><time>2026-04-11T09:34:35.001Z</time></trkpt><trkpt lat="45.02666011102447" lon="7.986998073448271"><ele>265.0</ele><time>2026-04-11T09:34:36.001Z</time></trkpt><trkpt lat="45.02647490787625" lon="7.987107401365106"><ele>267.3333333333333</ele><time>2026-04-11T09:34:37.001Z</time></trkpt><trkpt lat="45.0263119761043" lon="7.987215045248902"><ele>269.6666666666667</ele><time>2026-04-11T09:34:38.001Z</time></trkpt><trkpt lat="45.026161669171024" lon="7.98732894214216"><ele>272.0</ele><time>2026-04-11T09:34:39.001Z</time></trkpt><trkpt lat="45.02600744620401" lon="7.987431245957072"><ele>269.6666666666667</ele><time>2026-04-11T09:34:40.001Z</time></trkpt><trkpt lat="45.025858342110666" lon="7.987583206963402"><ele>267.3333333333333</ele><time>2026-04-11T09:34:41.001Z</time></trkpt><trkpt lat="45.02571584767711" lon="7.987760024036333"><ele>265.0</ele><time>2026-04-11T09:34:42.001Z</time></trkpt><trkpt lat="45.02560203646498" lon="7.987943798560105"><ele>266.66666666666663</ele><time>2026-04-11T09:34:43.001Z</time></trkpt><trkpt lat="45.02551359830383" lon="7.988129100377753"><ele>268.3333333333333</ele><time>2026-04-11T09:34:44.001Z</time></trkpt><trkpt lat="45.0254315976883" lon="7.988315458513786"><ele>270.0</ele><time>2026-04-11T09:34:45.001Z</time></trkpt><trkpt lat="45.025343843940945" lon="7.988485270494506"><ele>270.0</ele><time>2026-04-11T09:34:46.001Z</time></trkpt><trkpt lat="45.025258565953074" lon="7.988618817663761"><ele>270.0</ele><time>2026-04-11T09:34:47.001Z</time></trkpt><trkpt lat="45.02516494893892" lon="7.988723965282846"><ele>270.0</ele><time>2026-04-11T09:34:48.001Z</time></trkpt><trkpt lat="45.025061814652375" lon="7.988826101966348"><ele>270.0</ele><time>2026-04-11T09:34:49.001Z</time></trkpt><trkpt lat="45.0249438625311" lon="7.9889269079638225"><ele>269.0</ele><time>2026-04-11T09:34:50.001Z</time></trkpt><trkpt lat="45.02482042648591" lon="7.989017651085115"><ele>268.0</ele><time>2026-04-11T09:34:51.001Z</time></trkpt><trkpt lat="45.0247047345561" lon="7.989100762884264"><ele>267.0</ele><time>2026-04-11T09:34:52.001Z</time></trkpt><trkpt lat="45.02459499847234" lon="7.989160817387361"><ele>266.0</ele><time>2026-04-11T09:34:53.001Z</time></trkpt><trkpt lat="45.02451036052538" lon="7.989195242190031"><ele>266.0</ele><time>2026-04-11T09:34:54.001Z</time></trkpt><trkpt lat="45.02441975540152" lon="7.989213391513712"><ele>266.0</ele><time>2026-04-11T09:34:55.001Z</time></trkpt><trkpt lat="45.024315384394754" lon="7.98917538385261"><ele>266.0</ele><time>2026-04-11T09:34:56.001Z</time></trkpt><trkpt lat="45.0242077507245" lon="7.989053078271869"><ele>266.0</ele><time>2026-04-11T09:34:57.001Z</time></trkpt><trkpt lat="45.024084110595226" lon="7.98891418113582"><ele>260.6666666666667</ele><time>2026-04-11T09:34:58.001Z</time></trkpt><trkpt lat="45.02393894825014" lon="7.988798650335344"><ele>255.33333333333331</ele><time>2026-04-11T09:34:59.001Z</time></trkpt><trkpt lat="45.02377826851625" lon="7.98866601837286"><ele>250.0</ele><time>2026-04-11T09:35:00.001Z</time></trkpt><trkpt lat="45.02357139027911" lon="7.988542105218296"><ele>250.0</ele><time>2026-04-11T09:35:01.001Z</time></trkpt><trkpt lat="45.02335877649317" lon="7.988432408148194"><ele>250.0</ele><time>2026-04-11T09:35:02.001Z</time></trkpt><trkpt lat="45.0231632689155" lon="7.988324081650696"><ele>250.0</ele><time>2026-04-11T09:35:03.001Z</time></trkpt><trkpt lat="45.02298897697457" lon="7.98821835673988"><ele>253.0</ele><time>2026-04-11T09:35:04.001Z</time></trkpt><trkpt lat="45.022821445670395" lon="7.988112135629978"><ele>256.0</ele><time>2026-04-11T09:35:05.001Z</time></trkpt><trkpt lat="45.02266413353447" lon="7.988005788931836"><ele>259.0</ele><time>2026-04-11T09:35:06.001Z</time></trkpt><trkpt lat="45.02251636832445" lon="7.98790681903441"><ele>260.75</ele><time>2026-04-11T09:35:07.001Z</time></trkpt><trkpt lat="45.02238693656578" lon="7.987830845896156"><ele>262.5</ele><time>2026-04-11T09:35:08.001Z</time></trkpt><trkpt lat="45.022262848089085" lon="7.987773238720287"><ele>264.25</ele><time>2026-04-11T09:35:09.001Z</time></trkpt><trkpt lat="45.02215699563211" lon="7.987757305294586"><ele>266.0</ele><time>2026-04-11T09:35:10.001Z</time></trkpt><trkpt lat="45.02205495697485" lon="7.987732324316583"><ele>266.0</ele><time>2026-04-11T09:35:11.001Z</time></trkpt><trkpt lat="45.02194932276888" lon="7.987780108938409"><ele>266.0</ele><time>2026-04-11T09:35:12.001Z</time></trkpt><trkpt lat="45.02182002877657" lon="7.9878480382268515"><ele>266.0</ele><time>2026-04-11T09:35:13.001Z</time></trkpt><trkpt lat="45.02166428532209" lon="7.987922115632416"><ele>266.0</ele><time>2026-04-11T09:35:14.001Z</time></trkpt><trkpt lat="45.021502315835704" lon="7.9879978361538795"><ele>268.6666666666667</ele><time>2026-04-11T09:35:15.001Z</time></trkpt><trkpt lat="45.02132496853073" lon="7.9880657985425225"><ele>271.3333333333333</ele><time>2026-04-11T09:35:16.001Z</time></trkpt><trkpt lat="45.02117935497708" lon="7.988111522771981"><ele>274.0</ele><time>2026-04-11T09:35:17.001Z</time></trkpt><trkpt lat="45.0210464271064" lon="7.9881379068621285"><ele>274.0</ele><time>2026-04-11T09:35:18.001Z</time></trkpt><trkpt lat="45.020912891641004" lon="7.988127365883423"><ele>274.0</ele><time>2026-04-11T09:35:19.001Z</time></trkpt><trkpt lat="45.02077431949254" lon="7.988073668977369"><ele>274.0</ele><time>2026-04-11T09:35:20.001Z</time></trkpt><trkpt lat="45.020628715284914" lon="7.987972673920076"><ele>274.0</ele><time>2026-04-11T09:35:21.001Z</time></trkpt><trkpt lat="45.020493202193585" lon="7.987933938840129"><ele>274.25</ele><time>2026-04-11T09:35:22.001Z</time></trkpt><trkpt lat="45.020360697224035" lon="7.987881293059536"><ele>274.5</ele><time>2026-04-11T09:35:23.001Z</time></trkpt><trkpt lat="45.02023029392499" lon="7.987833080866214"><ele>274.75</ele><time>2026-04-11T09:35:24.001Z</time></trkpt><trkpt lat="45.02013392674536" lon="7.987770694699649"><ele>275.0</ele><time>2026-04-11T09:35:25.001Z</time></trkpt><trkpt lat="45.020053735439426" lon="7.987731636404763"><ele>274.8</ele><time>2026-04-11T09:35:26.001Z</time></trkpt><trkpt lat="45.01998154883046" lon="7.987696418254405"><ele>274.6</ele><time>2026-04-11T09:35:27.001Z</time></trkpt><trkpt lat="45.019902972089525" lon="7.987662374758903"><ele>274.4</ele><time>2026-04-11T09:35:28Z</time></trkpt><trkpt lat="45.01980991769629" lon="7.987623385837489"><ele>274.2</ele><time>2026-04-11T09:35:29Z</time></trkpt><trkpt lat="45.01970763905801" lon="7.9876162474135075"><ele>274.0</ele><time>2026-04-11T09:35:30Z</time></trkpt><trkpt lat="45.01959156298809" lon="7.987644128066259"><ele>274.0</ele><time>2026-04-11T09:35:31Z</time></trkpt><trkpt lat="45.019474295643896" lon="7.987687855409079"><ele>274.0</ele><time>2026-04-11T09:35:32Z</time></trkpt><trkpt lat="45.01935493634446" lon="7.987746214686414"><ele>274.0</ele><time>2026-04-11T09:35:33Z</time></trkpt><trkpt lat="45.01923876476403" lon="7.987839126978759"><ele>274.0</ele><time>2026-04-11T09:35:34Z</time></trkpt><trkpt lat="45.01913644356143" lon="7.987952646933208"><ele>274.25</ele><time>2026-04-11T09:35:35Z</time></trkpt><trkpt lat="45.01903556046375" lon="7.988077890807997"><ele>274.5</ele><time>2026-04-11T09:35:36Z</time></trkpt><trkpt lat="45.01894103606392" lon="7.988201399210914"><ele>274.75</ele><time>2026-04-11T09:35:37Z</time></trkpt><trkpt lat="45.01885659845876" lon="7.988351077937402"><ele>275.0</ele><time>2026-04-11T09:35:38Z</time></trkpt><trkpt lat="45.018774940360245" lon="7.988557829700549"><ele>275.0</ele><time>2026-04-11T09:35:39Z</time></trkpt><trkpt lat="45.01869767397705" lon="7.9887870774259575"><ele>275.0</ele><time>2026-04-11T09:35:40Z</time></trkpt><trkpt lat="45.01862365646703" lon="7.989013302481907"><ele>275.0</ele><time>2026-04-11T09:35:41Z</time></trkpt><trkpt lat="45.01854662125889" lon="7.989229660512092"><ele>273.33333333333337</ele><time>2026-04-11T09:35:42Z</time></trkpt><trkpt lat="45.01847308917995" lon="7.989441603952763"><ele>271.6666666666667</ele><time>2026-04-11T09:35:43Z</time></trkpt><trkpt lat="45.018401858105946" lon="7.9896498582071995"><ele>270.0</ele><time>2026-04-11T09:35:44Z</time></trkpt><trkpt lat="45.01832656826642" lon="7.989864185937802"><ele>268.0</ele><time>2026-04-11T09:35:45Z</time></trkpt><trkpt lat="45.01824660271174" lon="7.990081388915563"><ele>266.0</ele><time>2026-04-11T09:35:46Z</time></trkpt><trkpt lat="45.01815924007034" lon="7.990319013074283"><ele>264.0</ele><time>2026-04-11T09:35:47Z</time></trkpt><trkpt lat="45.01807219769395" lon="7.990572998198895"><ele>264.0</ele><time>2026-04-11T09:35:48Z</time></trkpt><trkpt lat="45.017957126673885" lon="7.990805995322067"><ele>264.0</ele><time>2026-04-11T09:35:49Z</time></trkpt><trkpt lat="45.01786615526614" lon="7.991050981544643"><ele>264.0</ele><time>2026-04-11T09:35:50Z</time></trkpt><trkpt lat="45.01776266279593" lon="7.991258106360057"><ele>264.6666666666667</ele><time>2026-04-11T09:35:51Z</time></trkpt><trkpt lat="45.01765010997781" lon="7.991447199389536"><ele>265.33333333333337</ele><time>2026-04-11T09:35:52Z</time></trkpt><trkpt lat="45.017511727221695" lon="7.9916248004197765"><ele>266.0</ele><time>2026-04-11T09:35:53Z</time></trkpt><trkpt lat="45.01735748865225" lon="7.99178956871682"><ele>267.33333333333337</ele><time>2026-04-11T09:35:54Z</time></trkpt><trkpt lat="45.01718808686353" lon="7.991944910968928"><ele>268.6666666666667</ele><time>2026-04-11T09:35:55Z</time></trkpt><trkpt lat="45.01702290229839" lon="7.992097407941635"><ele>270.0</ele><time>2026-04-11T09:35:56Z</time></trkpt><trkpt lat="45.01685874402078" lon="7.9922324083340115"><ele>270.0</ele><time>2026-04-11T09:35:57Z</time></trkpt><trkpt lat="45.016705696345575" lon="7.992342886307658"><ele>270.0</ele><time>2026-04-11T09:35:58Z</time></trkpt><trkpt lat="45.01656448337381" lon="7.992443656738859"><ele>270.0</ele><time>2026-04-11T09:35:59Z</time></trkpt><trkpt lat="45.016427963257705" lon="7.992537445005979"><ele>270.0</ele><time>2026-04-11T09:36:00Z</time></trkpt><trkpt lat="45.01629139855958" lon="7.992619112296936"><ele>270.0</ele><time>2026-04-11T09:36:01Z</time></trkpt><trkpt lat="45.016140021396325" lon="7.992670891427702"><ele>270.0</ele><time>2026-04-11T09:36:02Z</time></trkpt><trkpt lat="45.01598155839817" lon="7.992702861586357"><ele>268.6666666666667</ele><time>2026-04-11T09:36:03Z</time></trkpt><trkpt lat="45.01581536967962" lon="7.992722297422488"><ele>267.33333333333337</ele><time>2026-04-11T09:36:04Z</time></trkpt><trkpt lat="45.015641633585396" lon="7.992729037703618"><ele>266.0</ele><time>2026-04-11T09:36:05Z</time></trkpt><trkpt lat="45.01546443344845" lon="7.992720024918219"><ele>266.0</ele><time>2026-04-11T09:36:06Z</time></trkpt><trkpt lat="45.01527942964373" lon="7.992696311398716"><ele>266.0</ele><time>2026-04-11T09:36:07Z</time></trkpt><trkpt lat="45.01509037231452" lon="7.992654503714649"><ele>266.0</ele><time>2026-04-11T09:36:08Z</time></trkpt><trkpt lat="45.01490146222342" lon="7.992604038202299"><ele>266.33333333333337</ele><time>2026-04-11T09:36:09Z</time></trkpt><trkpt lat="45.01469501734513" lon="7.992530714621475"><ele>266.6666666666667</ele><time>2026-04-11T09:36:10Z</time></trkpt><trkpt lat="45.014491697552" lon="7.992457789001592"><ele>267.0</ele><time>2026-04-11T09:36:11Z</time></trkpt><trkpt lat="45.01429639663183" lon="7.992395333200273"><ele>265.3333333333333</ele><time>2026-04-11T09:36:12Z</time></trkpt><trkpt lat="45.01409917201458" lon="7.992336945716751"><ele>263.66666666666663</ele><time>2026-04-11T09:36:13Z</time></trkpt><trkpt lat="45.01390937633733" lon="7.992277965505522"><ele>262.0</ele><time>2026-04-11T09:36:14Z</time></trkpt><trkpt lat="45.01373298128642" lon="7.992220052828702"><ele>262.0</ele><time>2026-04-11T09:36:15Z</time></trkpt><trkpt lat="45.01357002024" lon="7.992154526342021"><ele>262.0</ele><time>2026-04-11T09:36:16Z</time></trkpt><trkpt lat="45.01342387271813" lon="7.992045480202523"><ele>262.0</ele><time>2026-04-11T09:36:17Z</time></trkpt><trkpt lat="45.01328488628732" lon="7.991910646057801"><ele>262.66666666666663</ele><time>2026-04-11T09:36:18Z</time></trkpt><trkpt lat="45.0131597394369" lon="7.991754415930508"><ele>263.3333333333333</ele><time>2026-04-11T09:36:19Z</time></trkpt><trkpt lat="45.01306615228623" lon="7.991564765628265"><ele>264.0</ele><time>2026-04-11T09:36:20Z</time></trkpt><trkpt lat="45.01297795651637" lon="7.991379529145485"><ele>264.0</ele><time>2026-04-11T09:36:21Z</time></trkpt><trkpt lat="45.01289875679684" lon="7.991206715349309"><ele>264.0</ele><time>2026-04-11T09:36:22Z</time></trkpt><trkpt lat="45.01282005119595" lon="7.9910319517780275"><ele>264.0</ele><time>2026-04-11T09:36:23.001Z</time></trkpt><trkpt lat="45.01271727993601" lon="7.990847784026039"><ele>262.5</ele><time>2026-04-11T09:36:24.001Z</time></trkpt><trkpt lat="45.01262870595429" lon="7.9906606173584995"><ele>261.0</ele><time>2026-04-11T09:36:25.001Z</time></trkpt><trkpt lat="45.01252753657166" lon="7.99050715696895"><ele>259.5</ele><time>2026-04-11T09:36:26.001Z</time></trkpt><trkpt lat="45.012417132271864" lon="7.990389138837393"><ele>258.0</ele><time>2026-04-11T09:36:27.001Z</time></trkpt><trkpt lat="45.012295342944284" lon="7.9903016210451145"><ele>257.5</ele><time>2026-04-11T09:36:28.001Z</time></trkpt><trkpt lat="45.012160971693156" lon="7.990239038261119"><ele>257.0</ele><time>2026-04-11T09:36:29.001Z</time></trkpt><trkpt lat="45.01201702738241" lon="7.99019242682568"><ele>256.5</ele><time>2026-04-11T09:36:30.001Z</time></trkpt><trkpt lat="45.01188042459011" lon="7.990143056671629"><ele>256.0</ele><time>2026-04-11T09:36:31.001Z</time></trkpt><trkpt lat="45.01174396703339" lon="7.990093438481088"><ele>255.0</ele><time>2026-04-11T09:36:32.001Z</time></trkpt><trkpt lat="45.011607370051024" lon="7.990050187464234"><ele>254.0</ele><time>2026-04-11T09:36:33.001Z</time></trkpt><trkpt lat="45.01146607045096" lon="7.990013618845576"><ele>253.0</ele><time>2026-04-11T09:36:34.001Z</time></trkpt><trkpt lat="45.01132751341455" lon="7.990000809606459"><ele>252.0</ele><time>2026-04-11T09:36:35.001Z</time></trkpt><trkpt lat="45.011203723705265" lon="7.989989828519407"><ele>252.0</ele><time>2026-04-11T09:36:36.001Z</time></trkpt><trkpt lat="45.01107630695979" lon="7.990125729516757"><ele>252.0</ele><time>2026-04-11T09:36:37.001Z</time></trkpt><trkpt lat="45.01087682986315" lon="7.989961901251032"><ele>252.0</ele><time>2026-04-11T09:36:38.001Z</time></trkpt><trkpt lat="45.010738319348114" lon="7.989942030270864"><ele>250.25</ele><time>2026-04-11T09:36:39.001Z</time></trkpt><trkpt lat="45.01060922065002" lon="7.9899294256291284"><ele>248.5</ele><time>2026-04-11T09:36:40.001Z</time></trkpt><trkpt lat="45.010484786583476" lon="7.9899109507588495"><ele>246.75</ele><time>2026-04-11T09:36:41.001Z</time></trkpt><trkpt lat="45.01036180163782" lon="7.98988932470398"><ele>245.0</ele><time>2026-04-11T09:36:42.001Z</time></trkpt><trkpt lat="45.01023786099092" lon="7.989858866017785"><ele>245.0</ele><time>2026-04-11T09:36:43.001Z</time></trkpt><trkpt lat="45.0101170834244" lon="7.98983053956364"><ele>245.0</ele><time>2026-04-11T09:36:44.001Z</time></trkpt><trkpt lat="45.00999989511235" lon="7.989801588760299"><ele>245.0</ele><time>2026-04-11T09:36:45.001Z</time></trkpt><trkpt lat="45.009906612104956" lon="7.989775639061976"><ele>245.0</ele><time>2026-04-11T09:36:46.001Z</time></trkpt><trkpt lat="45.00984019645239" lon="7.989758989436865"><ele>245.0</ele><time>2026-04-11T09:36:47.001Z</time></trkpt><trkpt lat="45.00978182404913" lon="7.989715533683755"><ele>245.0</ele><time>2026-04-11T09:36:48.001Z</time></trkpt><trkpt lat="45.00974994617263" lon="7.989617650947862"><ele>245.0</ele><time>2026-04-11T09:36:49.001Z</time></trkpt><trkpt lat="45.00978534469159" lon="7.989513048314742"><ele>245.0</ele><time>2026-04-11T09:36:50.001Z</time></trkpt><trkpt lat="45.009865517191685" lon="7.9894783586539635"><ele>245.0</ele><time>2026-04-11T09:36:51.001Z</time></trkpt><trkpt lat="45.009946162090245" lon="7.989442036127033"><ele>245.0</ele><time>2026-04-11T09:36:52.001Z</time></trkpt><trkpt lat="45.01006968123151" lon="7.9893706017683765"><ele>245.0</ele><time>2026-04-11T09:36:53.001Z</time></trkpt><trkpt lat="45.01018631648753" lon="7.989283600866168"><ele>245.0</ele><time>2026-04-11T09:36:54.001Z</time></trkpt><trkpt lat="45.01027355381964" lon="7.98917859513082"><ele>245.0</ele><time>2026-04-11T09:36:55.001Z</time></trkpt><trkpt lat="45.01031932572927" lon="7.989022982363734"><ele>245.0</ele><time>2026-04-11T09:36:56.001Z</time></trkpt><trkpt lat="45.010360917100876" lon="7.988839099334529"><ele>240.0</ele><time>2026-04-11T09:36:57.001Z</time></trkpt><trkpt lat="45.01037941427718" lon="7.988618526155773"><ele>235.0</ele><time>2026-04-11T09:36:58.001Z</time></trkpt><trkpt lat="45.010393791690205" lon="7.988391622241367"><ele>230.0</ele><time>2026-04-11T09:36:59.001Z</time></trkpt><trkpt lat="45.010417915981236" lon="7.988124199536304"><ele>228.25</ele><time>2026-04-11T09:37:00.001Z</time></trkpt><trkpt lat="45.010446289683976" lon="7.98790134493045"><ele>226.5</ele><time>2026-04-11T09:37:01.001Z</time></trkpt><trkpt lat="45.010472720285385" lon="7.9877012340862805"><ele>224.75</ele><time>2026-04-11T09:37:02.001Z</time></trkpt><trkpt lat="45.01049374692727" lon="7.987511176795103"><ele>223.0</ele><time>2026-04-11T09:37:03.001Z</time></trkpt><trkpt lat="45.01051472160324" lon="7.987326674683484"><ele>221.75</ele><time>2026-04-11T09:37:04.001Z</time></trkpt><trkpt lat="45.01053446040656" lon="7.987161035008537"><ele>220.5</ele><time>2026-04-11T09:37:05.001Z</time></trkpt><trkpt lat="45.010555754935154" lon="7.987007602510712"><ele>219.25</ele><time>2026-04-11T09:37:06.001Z</time></trkpt><trkpt lat="45.01057314224155" lon="7.986861111611749"><ele>218.0</ele><time>2026-04-11T09:37:07.001Z</time></trkpt><trkpt lat="45.01059818637106" lon="7.986677994351842"><ele>217.4</ele><time>2026-04-11T09:37:09.001Z</time></trkpt><trkpt lat="45.01061304416011" lon="7.986566843226714"><ele>216.8</ele><time>2026-04-11T09:37:11.001Z</time></trkpt><trkpt lat="45.01061224474715" lon="7.986476816465213"><ele>216.2</ele><time>2026-04-11T09:37:15.001Z</time></trkpt><trkpt lat="45.01043838409314" lon="7.986520737723005"><ele>215.6</ele><time>2026-04-11T09:37:16.001Z</time></trkpt><trkpt lat="45.01033994966544" lon="7.986484300958448"><ele>215.0</ele><time>2026-04-11T09:37:17.001Z</time></trkpt><trkpt lat="45.010239697869395" lon="7.986507927653349"><ele>215.0</ele><time>2026-04-11T09:37:18.001Z</time></trkpt><trkpt lat="45.0101159610149" lon="7.986504036789775"><ele>215.0</ele><time>2026-04-11T09:37:19.001Z</time></trkpt><trkpt lat="45.00997210948215" lon="7.986488220757597"><ele>215.0</ele><time>2026-04-11T09:37:20.001Z</time></trkpt><trkpt lat="45.00982384151234" lon="7.986485362382111"><ele>215.0</ele><time>2026-04-11T09:37:21.001Z</time></trkpt><trkpt lat="45.00969767827025" lon="7.986490265510415"><ele>217.5</ele><time>2026-04-11T09:37:22.001Z</time></trkpt><trkpt lat="45.00956794186979" lon="7.9865173219580985"><ele>220.0</ele><time>2026-04-11T09:37:23.001Z</time></trkpt><trkpt lat="45.009452983070005" lon="7.98652486522201"><ele>222.5</ele><time>2026-04-11T09:37:24.001Z</time></trkpt><trkpt lat="45.009332274196524" lon="7.986541253074298"><ele>225.0</ele><time>2026-04-11T09:37:25.001Z</time></trkpt><trkpt lat="45.00921791429136" lon="7.986548075008466"><ele>225.5</ele><time>2026-04-11T09:37:26.001Z</time></trkpt><trkpt lat="45.00909660238937" lon="7.986575830804133"><ele>226.0</ele><time>2026-04-11T09:37:27.001Z</time></trkpt><trkpt lat="45.00897409908594" lon="7.986633670806088"><ele>226.5</ele><time>2026-04-11T09:37:28.001Z</time></trkpt><trkpt lat="45.00885429793713" lon="7.986707356889373"><ele>227.0</ele><time>2026-04-11T09:37:29.001Z</time></trkpt><trkpt lat="45.00872538235395" lon="7.986780512405465"><ele>231.5</ele><time>2026-04-11T09:37:30.001Z</time></trkpt><trkpt lat="45.00859924037388" lon="7.986861677617442"><ele>236.0</ele><time>2026-04-11T09:37:31.001Z</time></trkpt><trkpt lat="45.0084644974404" lon="7.986858472974395"><ele>240.5</ele><time>2026-04-11T09:37:32.001Z</time></trkpt><trkpt lat="45.008334008727005" lon="7.986847155302339"><ele>245.0</ele><time>2026-04-11T09:37:33.001Z</time></trkpt><trkpt lat="45.00820608447063" lon="7.986808885281009"><ele>245.5</ele><time>2026-04-11T09:37:34Z</time></trkpt><trkpt lat="45.008081684438075" lon="7.986811401541633"><ele>246.0</ele><time>2026-04-11T09:37:35Z</time></trkpt><trkpt lat="45.0079748859811" lon="7.986829611972532"><ele>246.5</ele><time>2026-04-11T09:37:36Z</time></trkpt><trkpt lat="45.00786144241662" lon="7.986882834451634"><ele>247.0</ele><time>2026-04-11T09:37:37Z</time></trkpt><trkpt lat="45.00774580281015" lon="7.986960665330281"><ele>247.0</ele><time>2026-04-11T09:37:38Z</time></trkpt><trkpt lat="45.0076260744756" lon="7.987021473036386"><ele>247.0</ele><time>2026-04-11T09:37:39Z</time></trkpt><trkpt lat="45.007529459154526" lon="7.987111098634748"><ele>247.0</ele><time>2026-04-11T09:37:40Z</time></trkpt><trkpt lat="45.00743580712511" lon="7.987148886119266"><ele>247.0</ele><time>2026-04-11T09:37:41Z</time></trkpt><trkpt lat="45.00733228608652" lon="7.987214351133411"><ele>245.5</ele><time>2026-04-11T09:37:42Z</time></trkpt><trkpt lat="45.007217330664034" lon="7.987269550868113"><ele>244.0</ele><time>2026-04-11T09:37:43Z</time></trkpt><trkpt lat="45.0070954665191" lon="7.987320947232551"><ele>242.5</ele><time>2026-04-11T09:37:44Z</time></trkpt><trkpt lat="45.006975641574634" lon="7.9873467634770625"><ele>241.0</ele><time>2026-04-11T09:37:45Z</time></trkpt><trkpt lat="45.00685503624652" lon="7.987369106089856"><ele>241.0</ele><time>2026-04-11T09:37:46Z</time></trkpt><trkpt lat="45.00674303165539" lon="7.9874191742650815"><ele>241.00000000000003</ele><time>2026-04-11T09:37:47Z</time></trkpt><trkpt lat="45.00663637606926" lon="7.987446002011905"><ele>241.00000000000003</ele><time>2026-04-11T09:37:48Z</time></trkpt><trkpt lat="45.00655760734377" lon="7.987464649347123"><ele>241.0</ele><time>2026-04-11T09:37:49Z</time></trkpt><trkpt lat="45.00648001726476" lon="7.987495192218511"><ele>241.0</ele><time>2026-04-11T09:37:50Z</time></trkpt><trkpt lat="45.00640858087927" lon="7.987567661003871"><ele>240.4</ele><time>2026-04-11T09:37:52Z</time></trkpt><trkpt lat="45.00638346430539" lon="7.987674319302671"><ele>239.8</ele><time>2026-04-11T09:37:53Z</time></trkpt><trkpt lat="45.0063675349243" lon="7.987831030440021"><ele>239.20000000000002</ele><time>2026-04-11T09:37:54Z</time></trkpt><trkpt lat="45.006378022254324" lon="7.987979960978996"><ele>238.60000000000002</ele><time>2026-04-11T09:37:55Z</time></trkpt><trkpt lat="45.0063973639802" lon="7.988139734350251"><ele>238.0</ele><time>2026-04-11T09:37:56Z</time></trkpt><trkpt lat="45.00643845146081" lon="7.988286077641345"><ele>238.25</ele><time>2026-04-11T09:37:57Z</time></trkpt><trkpt lat="45.006506107555275" lon="7.988399081422005"><ele>238.5</ele><time>2026-04-11T09:37:58Z</time></trkpt><trkpt lat="45.00660045840966" lon="7.988478073901899"><ele>238.75</ele><time>2026-04-11T09:37:59Z</time></trkpt><trkpt lat="45.00670262396426" lon="7.988564471098027"><ele>239.0</ele><time>2026-04-11T09:38:00Z</time></trkpt><trkpt lat="45.00680881679631" lon="7.988658091198456"><ele>239.0</ele><time>2026-04-11T09:38:01Z</time></trkpt><trkpt lat="45.006909998771626" lon="7.988744513863217"><ele>238.99999999999997</ele><time>2026-04-11T09:38:02Z</time></trkpt><trkpt lat="45.006995933746936" lon="7.988817913523967"><ele>238.99999999999997</ele><time>2026-04-11T09:38:03Z</time></trkpt><trkpt lat="45.0070692420353" lon="7.988882399969549"><ele>239.0</ele><time>2026-04-11T09:38:04Z</time></trkpt><trkpt lat="45.0071617914176" lon="7.98896614755882"><ele>239.0</ele><time>2026-04-11T09:38:06Z</time></trkpt><trkpt lat="45.00725064314551" lon="7.989049843938346"><ele>239.00000000000003</ele><time>2026-04-11T09:38:08Z</time></trkpt><trkpt lat="45.00730503327738" lon="7.989125995279321"><ele>239.0</ele><time>2026-04-11T09:38:09Z</time></trkpt><trkpt lat="45.00738095956739" lon="7.9891787861035635"><ele>239.0</ele><time>2026-04-11T09:38:10Z</time></trkpt><trkpt lat="45.00744530227689" lon="7.989241090152128"><ele>239.0</ele><time>2026-04-11T09:38:11Z</time></trkpt><trkpt lat="45.00751681728127" lon="7.989297192068399"><ele>239.00000000000003</ele><time>2026-04-11T09:38:12Z</time></trkpt><trkpt lat="45.007581735277654" lon="7.989360785939095"><ele>239.0</ele><time>2026-04-11T09:38:13Z</time></trkpt><trkpt lat="45.007650642762236" lon="7.989423257836764"><ele>240.33333333333334</ele><time>2026-04-11T09:38:14Z</time></trkpt><trkpt lat="45.0077192529742" lon="7.989494007008632"><ele>241.66666666666669</ele><time>2026-04-11T09:38:15Z</time></trkpt><trkpt lat="45.00778019514568" lon="7.989549478215321"><ele>243.0</ele><time>2026-04-11T09:38:16Z</time></trkpt><trkpt lat="45.0078562346479" lon="7.989631069951439"><ele>244.33333333333331</ele><time>2026-04-11T09:38:18Z</time></trkpt><trkpt lat="45.00791743936703" lon="7.989677689149434"><ele>245.66666666666666</ele><time>2026-04-11T09:38:20Z</time></trkpt><trkpt lat="45.00801754146055" lon="7.989736741887094"><ele>247.0</ele><time>2026-04-11T09:38:22Z</time></trkpt><trkpt lat="45.00809809510363" lon="7.989804751640266"><ele>247.0</ele><time>2026-04-11T09:38:24Z</time></trkpt><trkpt lat="45.00819416187919" lon="7.989876305956832"><ele>247.0</ele><time>2026-04-11T09:38:26Z</time></trkpt><trkpt lat="45.008290644233064" lon="7.989973210358009"><ele>247.0</ele><time>2026-04-11T09:38:28Z</time></trkpt><trkpt lat="45.00836367889317" lon="7.990014849989476"><ele>247.0</ele><time>2026-04-11T09:38:29Z</time></trkpt><trkpt lat="45.00841963725484" lon="7.990084140497201"><ele>247.0</ele><time>2026-04-11T09:38:30Z</time></trkpt><trkpt lat="45.00847820337964" lon="7.990139561468335"><ele>246.49999999999997</ele><time>2026-04-11T09:38:31.001Z</time></trkpt><trkpt lat="45.008535591705446" lon="7.990199512365045"><ele>246.0</ele><time>2026-04-11T09:38:32.001Z</time></trkpt><trkpt lat="45.00860009504437" lon="7.990249911997333"><ele>245.5</ele><time>2026-04-11T09:38:33.001Z</time></trkpt><trkpt lat="45.00866047479394" lon="7.990295695934935"><ele>245.0</ele><time>2026-04-11T09:38:34.001Z</time></trkpt><trkpt lat="45.00877334861586" lon="7.990370917263253"><ele>244.49999999999997</ele><time>2026-04-11T09:38:36.001Z</time></trkpt><trkpt lat="45.008833702034934" lon="7.990413611889677"><ele>244.0</ele><time>2026-04-11T09:38:37.001Z</time></trkpt><trkpt lat="45.00889451552536" lon="7.990456356658751"><ele>243.99999999999997</ele><time>2026-04-11T09:38:38.001Z</time></trkpt><trkpt lat="45.008950617407415" lon="7.990510588781332"><ele>244.0</ele><time>2026-04-11T09:38:39.001Z</time></trkpt><trkpt lat="45.009012302792854" lon="7.990554503581253"><ele>244.0</ele><time>2026-04-11T09:38:40.001Z</time></trkpt><trkpt lat="45.00907164187366" lon="7.990591982628327"><ele>244.0</ele><time>2026-04-11T09:38:41.001Z</time></trkpt><trkpt lat="45.00917626689763" lon="7.990586091231971"><ele>243.99999999999997</ele><time>2026-04-11T09:38:43.001Z</time></trkpt><trkpt lat="45.00926556480247" lon="7.990601169705792"><ele>244.0</ele><time>2026-04-11T09:38:45.001Z</time></trkpt><trkpt lat="45.00932946730605" lon="7.990564491160644"><ele>244.99999999999997</ele><time>2026-04-11T09:38:47.001Z</time></trkpt><trkpt lat="45.009400756503915" lon="7.990528511726794"><ele>246.0</ele><time>2026-04-11T09:40:03Z</time></trkpt><trkpt lat="45.00948577721866" lon="7.990443775367929"><ele>247.0</ele><time>2026-04-11T09:40:05Z</time></trkpt><trkpt lat="45.00953526502817" lon="7.990320801617917"><ele>248.0</ele><time>2026-04-11T09:40:07Z</time></trkpt><trkpt lat="45.00956244182979" lon="7.990232067615398"><ele>248.99999999999997</ele><time>2026-04-11T09:40:08Z</time></trkpt><trkpt lat="45.00957583696513" lon="7.99014395897841"><ele>250.0</ele><time>2026-04-11T09:40:09Z</time></trkpt><trkpt lat="45.009561393242876" lon="7.989973272577181"><ele>250.33333333333331</ele><time>2026-04-11T09:40:11Z</time></trkpt><trkpt lat="45.0095593670796" lon="7.9898665136415365"><ele>250.66666666666666</ele><time>2026-04-11T09:40:12Z</time></trkpt><trkpt lat="45.00952715224791" lon="7.989754680899463"><ele>251.0</ele><time>2026-04-11T09:40:13Z</time></trkpt><trkpt lat="45.00949177933739" lon="7.989670446891475"><ele>251.33333333333331</ele><time>2026-04-11T09:40:14Z</time></trkpt><trkpt lat="45.0094523230935" lon="7.989577298131329"><ele>251.66666666666666</ele><time>2026-04-11T09:40:15Z</time></trkpt><trkpt lat="45.009410192306554" lon="7.9894811691174334"><ele>252.0</ele><time>2026-04-11T09:40:16Z</time></trkpt><trkpt lat="45.00936269260994" lon="7.989371696846289"><ele>252.0</ele><time>2026-04-11T09:40:17Z</time></trkpt><trkpt lat="45.00931161892529" lon="7.989253987542761"><ele>252.0</ele><time>2026-04-11T09:40:18Z</time></trkpt><trkpt lat="45.00925631261412" lon="7.98912969928699"><ele>252.0</ele><time>2026-04-11T09:40:19Z</time></trkpt><trkpt lat="45.009198148953914" lon="7.98899980842883"><ele>252.0</ele><time>2026-04-11T09:40:20Z</time></trkpt><trkpt lat="45.00913798040129" lon="7.988865440296759"><ele>252.0</ele><time>2026-04-11T09:40:21Z</time></trkpt><trkpt lat="45.00908099911245" lon="7.988723730085228"><ele>252.8</ele><time>2026-04-11T09:40:22Z</time></trkpt><trkpt lat="45.009023281680676" lon="7.988580497214812"><ele>253.6</ele><time>2026-04-11T09:40:23Z</time></trkpt><trkpt lat="45.008965448280556" lon="7.988457499316484"><ele>254.40000000000003</ele><time>2026-04-11T09:40:24Z</time></trkpt><trkpt lat="45.00891169518273" lon="7.98834687476771"><ele>255.20000000000002</ele><time>2026-04-11T09:40:25Z</time></trkpt><trkpt lat="45.00885760442908" lon="7.988270435437962"><ele>256.0</ele><time>2026-04-11T09:40:26Z</time></trkpt><trkpt lat="45.00879816195911" lon="7.988224848229942"><ele>256.0</ele><time>2026-04-11T09:40:27Z</time></trkpt><trkpt lat="45.00868538894367" lon="7.988103587170111"><ele>256.0</ele><time>2026-04-11T09:40:29Z</time></trkpt><trkpt lat="45.00861091664292" lon="7.988018066371333"><ele>256.0</ele><time>2026-04-11T09:40:30Z</time></trkpt><trkpt lat="45.00853278533835" lon="7.987921151419468"><ele>256.0</ele><time>2026-04-11T09:40:31Z</time></trkpt><trkpt lat="45.0084462186483" lon="7.987817097919295"><ele>256.0</ele><time>2026-04-11T09:40:32Z</time></trkpt><trkpt lat="45.00836472531549" lon="7.987724973531888"><ele>256.0</ele><time>2026-04-11T09:40:33Z</time></trkpt><trkpt lat="45.00828690097764" lon="7.987639706809026"><ele>256.0</ele><time>2026-04-11T09:40:34Z</time></trkpt><trkpt lat="45.00821141225512" lon="7.9875565062151885"><ele>256.0</ele><time>2026-04-11T09:40:35Z</time></trkpt><trkpt lat="45.008144922336555" lon="7.98748274119225"><ele>256.0</ele><time>2026-04-11T09:40:36Z</time></trkpt><trkpt lat="45.00806185428282" lon="7.987462154412075"><ele>256.6</ele><time>2026-04-11T09:40:37Z</time></trkpt><trkpt lat="45.00798957302646" lon="7.9874396014745415"><ele>257.20000000000005</ele><time>2026-04-11T09:40:38Z</time></trkpt><trkpt lat="45.00792301375659" lon="7.987472493066926"><ele>257.79999999999995</ele><time>2026-04-11T09:40:39Z</time></trkpt><trkpt lat="45.00784523974391" lon="7.987505334244658"><ele>258.4</ele><time>2026-04-11T09:40:40Z</time></trkpt><trkpt lat="45.007737674715976" lon="7.9875308713883735"><ele>259.0</ele><time>2026-04-11T09:40:41Z</time></trkpt><trkpt lat="45.007620752715304" lon="7.98755242471237"><ele>256.0</ele><time>2026-04-11T09:40:42Z</time></trkpt><trkpt lat="45.007490233764955" lon="7.987576484476242"><ele>253.0</ele><time>2026-04-11T09:40:43Z</time></trkpt><trkpt lat="45.00736180606791" lon="7.98760015875105"><ele>250.0</ele><time>2026-04-11T09:40:44Z</time></trkpt><trkpt lat="45.0072202251522" lon="7.987626257676802"><ele>247.0</ele><time>2026-04-11T09:40:45Z</time></trkpt><trkpt lat="45.0070746616588" lon="7.9876345384433245"><ele>247.0</ele><time>2026-04-11T09:40:46Z</time></trkpt><trkpt lat="45.00693916720358" lon="7.9876878277142715"><ele>247.0</ele><time>2026-04-11T09:40:47Z</time></trkpt><trkpt lat="45.00681310036626" lon="7.987709633750581"><ele>247.0</ele><time>2026-04-11T09:40:48Z</time></trkpt><trkpt lat="45.006701204045434" lon="7.987739184747675"><ele>247.0</ele><time>2026-04-11T09:40:49Z</time></trkpt><trkpt lat="45.00661753693526" lon="7.9877533864890236"><ele>245.8</ele><time>2026-04-11T09:40:50Z</time></trkpt><trkpt lat="45.00655288446469" lon="7.987750699031974"><ele>244.6</ele><time>2026-04-11T09:40:51Z</time></trkpt><trkpt lat="45.00646852237908" lon="7.987699322931651"><ele>243.40000000000003</ele><time>2026-04-11T09:40:53Z</time></trkpt><trkpt lat="45.00650036986507" lon="7.987473082338818"><ele>242.20000000000002</ele><time>2026-04-11T09:40:55Z</time></trkpt><trkpt lat="45.00659796365061" lon="7.987467845050494"><ele>241.0</ele><time>2026-04-11T09:40:56Z</time></trkpt><trkpt lat="45.00669237176311" lon="7.987480335987232"><ele>241.0</ele><time>2026-04-11T09:40:57Z</time></trkpt><trkpt lat="45.00680960973265" lon="7.987447808697465"><ele>241.0</ele><time>2026-04-11T09:40:58.001Z</time></trkpt><trkpt lat="45.00693859137033" lon="7.987392997531153"><ele>241.0</ele><time>2026-04-11T09:40:59.001Z</time></trkpt><trkpt lat="45.00706617024813" lon="7.987354448154136"><ele>241.0</ele><time>2026-04-11T09:41:00.001Z</time></trkpt><trkpt lat="45.00720546981519" lon="7.987304565148233"><ele>241.0</ele><time>2026-04-11T09:41:01.001Z</time></trkpt><trkpt lat="45.00735788179582" lon="7.987256666290452"><ele>241.0</ele><time>2026-04-11T09:41:02.001Z</time></trkpt><trkpt lat="45.00750510670002" lon="7.987176008510371"><ele>241.0</ele><time>2026-04-11T09:41:03.001Z</time></trkpt><trkpt lat="45.00764930936237" lon="7.987081372553505"><ele>242.5</ele><time>2026-04-11T09:41:04.001Z</time></trkpt><trkpt lat="45.00778531243654" lon="7.986971769168658"><ele>244.0</ele><time>2026-04-11T09:41:05.001Z</time></trkpt><trkpt lat="45.007917837011654" lon="7.986893456625915"><ele>245.5</ele><time>2026-04-11T09:41:06.001Z</time></trkpt><trkpt lat="45.00804756835416" lon="7.986860184183025"><ele>247.0</ele><time>2026-04-11T09:41:07.001Z</time></trkpt><trkpt lat="45.00816552280672" lon="7.98686005716436"><ele>247.0</ele><time>2026-04-11T09:41:08.001Z</time></trkpt><trkpt lat="45.008289465890606" lon="7.9868793114533725"><ele>247.0</ele><time>2026-04-11T09:41:09.001Z</time></trkpt><trkpt lat="45.00842005794105" lon="7.986910784399785"><ele>247.0</ele><time>2026-04-11T09:41:10.001Z</time></trkpt><trkpt lat="45.008553882727995" lon="7.9869241258526955"><ele>247.0</ele><time>2026-04-11T09:41:11.001Z</time></trkpt><trkpt lat="45.008693735629386" lon="7.986875479740149"><ele>246.5</ele><time>2026-04-11T09:41:12.001Z</time></trkpt><trkpt lat="45.00882194617476" lon="7.986788884500401"><ele>246.0</ele><time>2026-04-11T09:41:13.001Z</time></trkpt><trkpt lat="45.00894004369589" lon="7.986716213077357"><ele>245.5</ele><time>2026-04-11T09:41:14.001Z</time></trkpt><trkpt lat="45.009060481753124" lon="7.986634509489823"><ele>245.0</ele><time>2026-04-11T09:41:15.001Z</time></trkpt><trkpt lat="45.00918949509601" lon="7.986591824179703"><ele>240.0</ele><time>2026-04-11T09:41:16.001Z</time></trkpt><trkpt lat="45.00931607670974" lon="7.986572132626796"><ele>235.0</ele><time>2026-04-11T09:41:17.001Z</time></trkpt><trkpt lat="45.0094513265017" lon="7.9865633076640945"><ele>230.0</ele><time>2026-04-11T09:41:18.001Z</time></trkpt><trkpt lat="45.00957788231892" lon="7.98652820733906"><ele>225.0</ele><time>2026-04-11T09:41:19.001Z</time></trkpt><trkpt lat="45.00970310208145" lon="7.986538888054329"><ele>225.0</ele><time>2026-04-11T09:41:20.001Z</time></trkpt><trkpt lat="45.00981502402803" lon="7.986511355034291"><ele>225.0</ele><time>2026-04-11T09:41:21.001Z</time></trkpt><trkpt lat="45.00992561096674" lon="7.98651076299939"><ele>225.0</ele><time>2026-04-11T09:41:22.001Z</time></trkpt><trkpt lat="45.01003186943937" lon="7.98651073073049"><ele>225.0</ele><time>2026-04-11T09:41:23.001Z</time></trkpt><trkpt lat="45.01013484507118" lon="7.986518305079745"><ele>225.0</ele><time>2026-04-11T09:41:24.001Z</time></trkpt><trkpt lat="45.01023086162618" lon="7.986527681743753"><ele>222.5</ele><time>2026-04-11T09:41:25.001Z</time></trkpt><trkpt lat="45.010403613250034" lon="7.9865640258093995"><ele>220.0</ele><time>2026-04-11T09:41:27.001Z</time></trkpt><trkpt lat="45.01048096662656" lon="7.986572448148443"><ele>217.5</ele><time>2026-04-11T09:41:28.001Z</time></trkpt><trkpt lat="45.010555271697136" lon="7.986580538581269"><ele>215.0</ele><time>2026-04-11T09:41:29.001Z</time></trkpt><trkpt lat="45.01067857291402" lon="7.986593963934389"><ele>215.0</ele><time>2026-04-11T09:41:31.001Z</time></trkpt><trkpt lat="45.01075613241993" lon="7.986307840517589"><ele>215.0</ele><time>2026-04-11T09:41:32.001Z</time></trkpt><trkpt lat="45.01086608588391" lon="7.986271580272086"><ele>215.0</ele><time>2026-04-11T09:41:33.001Z</time></trkpt><trkpt lat="45.0109758506136" lon="7.986175352165138"><ele>215.0</ele><time>2026-04-11T09:41:34.001Z</time></trkpt><trkpt lat="45.01109509263721" lon="7.98604698949912"><ele>215.0</ele><time>2026-04-11T09:41:35.001Z</time></trkpt><trkpt lat="45.011226845644565" lon="7.985891840695312"><ele>215.0</ele><time>2026-04-11T09:41:36.001Z</time></trkpt><trkpt lat="45.01136528381532" lon="7.985718255755491"><ele>215.0</ele><time>2026-04-11T09:41:37.001Z</time></trkpt><trkpt lat="45.01148375252997" lon="7.985541353113444"><ele>215.0</ele><time>2026-04-11T09:41:38.001Z</time></trkpt><trkpt lat="45.0116032271693" lon="7.985383338354775"><ele>215.0</ele><time>2026-04-11T09:41:39.001Z</time></trkpt><trkpt lat="45.01174406410193" lon="7.985182574648808"><ele>215.0</ele><time>2026-04-11T09:41:40.001Z</time></trkpt><trkpt lat="45.011904628946525" lon="7.984961938369078"><ele>215.0</ele><time>2026-04-11T09:41:41.001Z</time></trkpt><trkpt lat="45.01207975633286" lon="7.984720458948832"><ele>215.0</ele><time>2026-04-11T09:41:42.001Z</time></trkpt><trkpt lat="45.01224928608927" lon="7.984460068451729"><ele>215.0</ele><time>2026-04-11T09:41:43.001Z</time></trkpt><trkpt lat="45.01243413213128" lon="7.984217028484526"><ele>217.0</ele><time>2026-04-11T09:41:44.001Z</time></trkpt><trkpt lat="45.01262265608592" lon="7.983965753587534"><ele>219.0</ele><time>2026-04-11T09:41:45.001Z</time></trkpt><trkpt lat="45.012811886556904" lon="7.983718771502814"><ele>219.0</ele><time>2026-04-11T09:41:46Z</time></trkpt><trkpt lat="45.012998430440994" lon="7.983483077723829"><ele>219.0</ele><time>2026-04-11T09:41:47Z</time></trkpt><trkpt lat="45.01318346434542" lon="7.983254555865485"><ele>219.5</ele><time>2026-04-11T09:41:48Z</time></trkpt><trkpt lat="45.013363743758326" lon="7.983028525234211"><ele>220.0</ele><time>2026-04-11T09:41:49Z</time></trkpt><trkpt lat="45.01353733722836" lon="7.982806092113926"><ele>220.0</ele><time>2026-04-11T09:41:50Z</time></trkpt><trkpt lat="45.013710930070246" lon="7.98259015175005"><ele>220.0</ele><time>2026-04-11T09:41:51Z</time></trkpt><trkpt lat="45.013884765533156" lon="7.982374833896176"><ele>219.0</ele><time>2026-04-11T09:41:52Z</time></trkpt><trkpt lat="45.014056548946144" lon="7.982160633528509"><ele>218.0</ele><time>2026-04-11T09:41:53Z</time></trkpt><trkpt lat="45.014226586377944" lon="7.9819471684039405"><ele>218.0</ele><time>2026-04-11T09:41:54Z</time></trkpt><trkpt lat="45.01439122961666" lon="7.981735338755654"><ele>218.0</ele><time>2026-04-11T09:41:55Z</time></trkpt><trkpt lat="45.01455772577507" lon="7.981524708964728"><ele>218.0</ele><time>2026-04-11T09:41:56Z</time></trkpt><trkpt lat="45.01472146229559" lon="7.981318656670016"><ele>217.33333333333334</ele><time>2026-04-11T09:41:57Z</time></trkpt><trkpt lat="45.01488549742976" lon="7.981114071544896"><ele>216.66666666666669</ele><time>2026-04-11T09:41:58Z</time></trkpt><trkpt lat="45.01504847892236" lon="7.980908459894158"><ele>216.0</ele><time>2026-04-11T09:41:59Z</time></trkpt><trkpt lat="45.01521726250164" lon="7.980698794485595"><ele>215.5</ele><time>2026-04-11T09:42:00Z</time></trkpt><trkpt lat="45.01538904055926" lon="7.980486948968862"><ele>215.0</ele><time>2026-04-11T09:42:01Z</time></trkpt><trkpt lat="45.01556351490847" lon="7.980275412226798"><ele>215.0</ele><time>2026-04-11T09:42:02Z</time></trkpt><trkpt lat="45.015735949872855" lon="7.980056773549757"><ele>215.0</ele><time>2026-04-11T09:42:03Z</time></trkpt><trkpt lat="45.01590873897638" lon="7.979841710090192"><ele>216.0</ele><time>2026-04-11T09:42:04Z</time></trkpt><trkpt lat="45.01608410571812" lon="7.9796209122761"><ele>217.0</ele><time>2026-04-11T09:42:05Z</time></trkpt><trkpt lat="45.01625833588556" lon="7.979402705506566"><ele>217.0</ele><time>2026-04-11T09:42:06Z</time></trkpt><trkpt lat="45.01643133465473" lon="7.979186761765959"><ele>217.0</ele><time>2026-04-11T09:42:07Z</time></trkpt><trkpt lat="45.01660438704308" lon="7.978971597451611"><ele>218.5</ele><time>2026-04-11T09:42:08Z</time></trkpt><trkpt lat="45.01677647354338" lon="7.978754079573176"><ele>220.0</ele><time>2026-04-11T09:42:09Z</time></trkpt><trkpt lat="45.01694486681462" lon="7.978540863661178"><ele>220.0</ele><time>2026-04-11T09:42:10Z</time></trkpt><trkpt lat="45.01711806431612" lon="7.978328321719651"><ele>220.0</ele><time>2026-04-11T09:42:11Z</time></trkpt><trkpt lat="45.01728847490303" lon="7.9781242281933125"><ele>220.0</ele><time>2026-04-11T09:42:12Z</time></trkpt><trkpt lat="45.017466504410486" lon="7.977926081876496"><ele>220.0</ele><time>2026-04-11T09:42:13Z</time></trkpt><trkpt lat="45.01764637054337" lon="7.977730925259436"><ele>222.0</ele><time>2026-04-11T09:42:14Z</time></trkpt><trkpt lat="45.017828551791965" lon="7.977544767086639"><ele>224.0</ele><time>2026-04-11T09:42:15Z</time></trkpt><trkpt lat="45.01801721523419" lon="7.977359231334325"><ele>224.0</ele><time>2026-04-11T09:42:16Z</time></trkpt><trkpt lat="45.01819780653474" lon="7.977181205822366"><ele>224.0</ele><time>2026-04-11T09:42:17Z</time></trkpt><trkpt lat="45.0183847040836" lon="7.976993086109551"><ele>224.0</ele><time>2026-04-11T09:42:18Z</time></trkpt><trkpt lat="45.01858840694668" lon="7.9768070548769465"><ele>222.5</ele><time>2026-04-11T09:42:19Z</time></trkpt><trkpt lat="45.0187920678419" lon="7.976607633175086"><ele>221.0</ele><time>2026-04-11T09:42:20Z</time></trkpt><trkpt lat="45.018993839967415" lon="7.976411019138963"><ele>224.0</ele><time>2026-04-11T09:42:21Z</time></trkpt><trkpt lat="45.019196900069645" lon="7.976219724522677"><ele>227.0</ele><time>2026-04-11T09:42:22Z</time></trkpt><trkpt lat="45.01939599493241" lon="7.976027126792967"><ele>223.5</ele><time>2026-04-11T09:42:23Z</time></trkpt><trkpt lat="45.01959343076071" lon="7.9758346132753895"><ele>220.0</ele><time>2026-04-11T09:42:24Z</time></trkpt><trkpt lat="45.019789261422325" lon="7.975645580535587"><ele>223.0</ele><time>2026-04-11T09:42:25Z</time></trkpt><trkpt lat="45.01998564585163" lon="7.9754562432300435"><ele>226.0</ele><time>2026-04-11T09:42:26Z</time></trkpt><trkpt lat="45.02018516464326" lon="7.975266182248561"><ele>226.0</ele><time>2026-04-11T09:42:27Z</time></trkpt><trkpt lat="45.02038176870537" lon="7.975076212272732"><ele>226.0</ele><time>2026-04-11T09:42:28Z</time></trkpt><trkpt lat="45.02057796843973" lon="7.974883474007434"><ele>223.0</ele><time>2026-04-11T09:42:29Z</time></trkpt><trkpt lat="45.02076571385549" lon="7.9746913517544815"><ele>220.0</ele><time>2026-04-11T09:42:30Z</time></trkpt><trkpt lat="45.020942782284244" lon="7.974484830474127"><ele>220.0</ele><time>2026-04-11T09:42:31Z</time></trkpt><trkpt lat="45.02110830563123" lon="7.974258509436969"><ele>220.0</ele><time>2026-04-11T09:42:32Z</time></trkpt><trkpt lat="45.02126429131055" lon="7.9740003782511515"><ele>219.5</ele><time>2026-04-11T09:42:33Z</time></trkpt><trkpt lat="45.021406068687504" lon="7.973715331349609"><ele>219.0</ele><time>2026-04-11T09:42:34Z</time></trkpt><trkpt lat="45.02155073017711" lon="7.97340554967957"><ele>223.5</ele><time>2026-04-11T09:42:35Z</time></trkpt><trkpt lat="45.02172260349599" lon="7.973109787493811"><ele>228.0</ele><time>2026-04-11T09:42:36Z</time></trkpt><trkpt lat="45.0218854650162" lon="7.972798403263383"><ele>225.5</ele><time>2026-04-11T09:42:37Z</time></trkpt><trkpt lat="45.02203778147153" lon="7.972473769694249"><ele>223.0</ele><time>2026-04-11T09:42:38Z</time></trkpt><trkpt lat="45.02220134558111" lon="7.972170100496568"><ele>223.0</ele><time>2026-04-11T09:42:39Z</time></trkpt><trkpt lat="45.022359762939324" lon="7.97185394846536"><ele>223.0</ele><time>2026-04-11T09:42:40Z</time></trkpt><trkpt lat="45.02251388883236" lon="7.97154897370143"><ele>225.0</ele><time>2026-04-11T09:42:41Z</time></trkpt><trkpt lat="45.022657617364594" lon="7.97127115927576"><ele>227.0</ele><time>2026-04-11T09:42:42Z</time></trkpt><trkpt lat="45.022794108051905" lon="7.971012707229932"><ele>225.66666666666669</ele><time>2026-04-11T09:42:43Z</time></trkpt><trkpt lat="45.022926844882996" lon="7.970775332172809"><ele>224.33333333333331</ele><time>2026-04-11T09:42:44Z</time></trkpt><trkpt lat="45.02306211359944" lon="7.970549318457541"><ele>223.0</ele><time>2026-04-11T09:42:45Z</time></trkpt><trkpt lat="45.02320977930905" lon="7.97034446796425"><ele>224.0</ele><time>2026-04-11T09:42:46Z</time></trkpt><trkpt lat="45.02336027448152" lon="7.970165508673037"><ele>225.0</ele><time>2026-04-11T09:42:47Z</time></trkpt><trkpt lat="45.02351431911911" lon="7.97000568542171"><ele>226.0</ele><time>2026-04-11T09:42:48Z</time></trkpt><trkpt lat="45.023675868171146" lon="7.969852705572147"><ele>226.0</ele><time>2026-04-11T09:42:49Z</time></trkpt><trkpt lat="45.02384532256447" lon="7.969713065389599"><ele>226.0</ele><time>2026-04-11T09:42:50Z</time></trkpt><trkpt lat="45.024026139960924" lon="7.969618867678664"><ele>226.0</ele><time>2026-04-11T09:42:51Z</time></trkpt><trkpt lat="45.02420394340623" lon="7.969526122052692"><ele>228.66666666666666</ele><time>2026-04-11T09:42:52Z</time></trkpt><trkpt lat="45.02437611007234" lon="7.969428873654195"><ele>231.33333333333331</ele><time>2026-04-11T09:42:53Z</time></trkpt><trkpt lat="45.024569930000084" lon="7.969390475888828"><ele>234.0</ele><time>2026-04-11T09:42:54Z</time></trkpt><trkpt lat="45.02476927075952" lon="7.969334429405848"><ele>233.0</ele><time>2026-04-11T09:42:55Z</time></trkpt><trkpt lat="45.024993340117035" lon="7.969273064027068"><ele>232.0</ele><time>2026-04-11T09:42:56Z</time></trkpt><trkpt lat="45.02523690444524" lon="7.969203835732065"><ele>228.5</ele><time>2026-04-11T09:42:57Z</time></trkpt><trkpt lat="45.02548422064763" lon="7.9691318734522305"><ele>225.0</ele><time>2026-04-11T09:42:58Z</time></trkpt><trkpt lat="45.02571768375582" lon="7.969065957670942"><ele>227.33333333333331</ele><time>2026-04-11T09:42:59Z</time></trkpt><trkpt lat="45.025930634716545" lon="7.969003528859213"><ele>229.66666666666666</ele><time>2026-04-11T09:43:00Z</time></trkpt><trkpt lat="45.02613588681161" lon="7.9689373183328"><ele>232.0</ele><time>2026-04-11T09:43:01Z</time></trkpt><trkpt lat="45.02633946394335" lon="7.968870725450316"><ele>232.0</ele><time>2026-04-11T09:43:02Z</time></trkpt><trkpt lat="45.02654505144004" lon="7.96880347495057"><ele>232.0</ele><time>2026-04-11T09:43:03Z</time></trkpt><trkpt lat="45.02674021926583" lon="7.9686737936125045"><ele>232.0</ele><time>2026-04-11T09:43:04Z</time></trkpt><trkpt lat="45.02694222658716" lon="7.9685999699173715"><ele>232.5</ele><time>2026-04-11T09:43:05Z</time></trkpt><trkpt lat="45.02731964554657" lon="7.968455655003722"><ele>233.0</ele><time>2026-04-11T09:43:07Z</time></trkpt><trkpt lat="45.027503928231084" lon="7.968379914251258"><ele>231.33333333333334</ele><time>2026-04-11T09:43:08Z</time></trkpt><trkpt lat="45.027684141827066" lon="7.968305756452579"><ele>229.66666666666669</ele><time>2026-04-11T09:43:09Z</time></trkpt><trkpt lat="45.027861996275625" lon="7.9682367677262365"><ele>228.0</ele><time>2026-04-11T09:43:10Z</time></trkpt><trkpt lat="45.02803158829776" lon="7.968171365406753"><ele>228.0</ele><time>2026-04-11T09:43:11Z</time></trkpt><trkpt lat="45.02819691130698" lon="7.9681073182811994"><ele>228.0</ele><time>2026-04-11T09:43:12Z</time></trkpt><trkpt lat="45.02834604704114" lon="7.968047582096849"><ele>228.0</ele><time>2026-04-11T09:43:13Z</time></trkpt><trkpt lat="45.02847576340467" lon="7.967995953013005"><ele>228.0</ele><time>2026-04-11T09:43:14Z</time></trkpt><trkpt lat="45.02858700883808" lon="7.967953238524225"><ele>228.0</ele><time>2026-04-11T09:43:15Z</time></trkpt><trkpt lat="45.02868722336154" lon="7.967917846215546"><ele>228.0</ele><time>2026-04-11T09:43:16Z</time></trkpt><trkpt lat="45.028780779967974" lon="7.9678768234436355"><ele>228.0</ele><time>2026-04-11T09:43:17Z</time></trkpt><trkpt lat="45.028861562545664" lon="7.9678338290671915"><ele>228.0</ele><time>2026-04-11T09:43:18Z</time></trkpt><trkpt lat="45.02892975752037" lon="7.967779010039639"><ele>228.0</ele><time>2026-04-11T09:43:19Z</time></trkpt><trkpt lat="45.02899518744813" lon="7.967714953371726"><ele>228.0</ele><time>2026-04-11T09:43:20.001Z</time></trkpt><trkpt lat="45.02905492227494" lon="7.967665812150197"><ele>228.0</ele><time>2026-04-11T09:43:21.001Z</time></trkpt><trkpt lat="45.029116452484544" lon="7.967636752062199"><ele>228.0</ele><time>2026-04-11T09:43:22.001Z</time></trkpt><trkpt lat="45.029185329506284" lon="7.967619121428225"><ele>228.0</ele><time>2026-04-11T09:43:23.001Z</time></trkpt><trkpt lat="45.02929691335556" lon="7.967533419840503"><ele>228.0</ele><time>2026-04-11T09:43:25.001Z</time></trkpt><trkpt lat="45.02933828691252" lon="7.967379810840628"><ele>227.66666666666666</ele><time>2026-04-11T09:43:27.001Z</time></trkpt><trkpt lat="45.02930772543804" lon="7.96729258705743"><ele>227.33333333333331</ele><time>2026-04-11T09:43:28.001Z</time></trkpt><trkpt lat="45.029256262838956" lon="7.967230760185462"><ele>227.0</ele><time>2026-04-11T09:43:29.001Z</time></trkpt><trkpt lat="45.02917966062493" lon="7.967198751856648"><ele>226.66666666666666</ele><time>2026-04-11T09:43:30.001Z</time></trkpt><trkpt lat="45.029090049871016" lon="7.96715670346615"><ele>226.33333333333331</ele><time>2026-04-11T09:43:31.001Z</time></trkpt><trkpt lat="45.02899951625709" lon="7.967060713290152"><ele>226.0</ele><time>2026-04-11T09:43:32.001Z</time></trkpt><trkpt lat="45.02890399784102" lon="7.9669222689436605"><ele>226.0</ele><time>2026-04-11T09:43:33.001Z</time></trkpt><trkpt lat="45.02879976131104" lon="7.966792150150706"><ele>226.0</ele><time>2026-04-11T09:43:34.001Z</time></trkpt><trkpt lat="45.02866799612366" lon="7.966659558472608"><ele>226.0</ele><time>2026-04-11T09:43:35.001Z</time></trkpt><trkpt lat="45.02849896020523" lon="7.966513539327421"><ele>225.0</ele><time>2026-04-11T09:43:36.001Z</time></trkpt><trkpt lat="45.028303328639836" lon="7.966349254598322"><ele>224.0</ele><time>2026-04-11T09:43:37.001Z</time></trkpt><trkpt lat="45.028109636957275" lon="7.966171926796973"><ele>224.0</ele><time>2026-04-11T09:43:38.001Z</time></trkpt><trkpt lat="45.02792076738452" lon="7.965989564154707"><ele>224.0</ele><time>2026-04-11T09:43:39.001Z</time></trkpt><trkpt lat="45.027750926556074" lon="7.965816707171044"><ele>224.0</ele><time>2026-04-11T09:43:40.001Z</time></trkpt><trkpt lat="45.02758609390053" lon="7.965644964220893"><ele>223.5</ele><time>2026-04-11T09:43:41.001Z</time></trkpt><trkpt lat="45.027407696911936" lon="7.965453643044655"><ele>223.0</ele><time>2026-04-11T09:43:42.001Z</time></trkpt><trkpt lat="45.027237035419276" lon="7.965218275002689"><ele>223.0</ele><time>2026-04-11T09:43:43.001Z</time></trkpt><trkpt lat="45.027064642679775" lon="7.964954961713694"><ele>223.0</ele><time>2026-04-11T09:43:44.001Z</time></trkpt><trkpt lat="45.0268806481946" lon="7.964680756786012"><ele>223.0</ele><time>2026-04-11T09:43:45.001Z</time></trkpt><trkpt lat="45.026692292080156" lon="7.964398142636627"><ele>223.0</ele><time>2026-04-11T09:43:46.001Z</time></trkpt><trkpt lat="45.026513832154244" lon="7.964122927984241"><ele>223.5</ele><time>2026-04-11T09:43:47.001Z</time></trkpt><trkpt lat="45.02634071603807" lon="7.963872613698214"><ele>224.0</ele><time>2026-04-11T09:43:48.001Z</time></trkpt><trkpt lat="45.02616471107632" lon="7.96362807565323"><ele>224.0</ele><time>2026-04-11T09:43:49.001Z</time></trkpt><trkpt lat="45.026024929901745" lon="7.963318802194733"><ele>224.0</ele><time>2026-04-11T09:43:50.001Z</time></trkpt><trkpt lat="45.025870212540475" lon="7.963056543047069"><ele>227.0</ele><time>2026-04-11T09:43:51.001Z</time></trkpt><trkpt lat="45.02556718107712" lon="7.962562285005329"><ele>226.0</ele><time>2026-04-11T09:43:53Z</time></trkpt><trkpt lat="45.025441773990096" lon="7.962284577801537"><ele>225.0</ele><time>2026-04-11T09:43:54Z</time></trkpt><trkpt lat="45.02533231391569" lon="7.961997348930147"><ele>225.0</ele><time>2026-04-11T09:43:55Z</time></trkpt><trkpt lat="45.02524107109379" lon="7.961708278028214"><ele>225.0</ele><time>2026-04-11T09:43:56Z</time></trkpt><trkpt lat="45.02517357429613" lon="7.961423202708043"><ele>225.0</ele><time>2026-04-11T09:43:57Z</time></trkpt><trkpt lat="45.025120197142655" lon="7.961138729156573"><ele>225.0</ele><time>2026-04-11T09:43:58Z</time></trkpt><trkpt lat="45.02507449854567" lon="7.960856841486465"><ele>225.0</ele><time>2026-04-11T09:43:59Z</time></trkpt><trkpt lat="45.025016246808384" lon="7.960575692933377"><ele>225.0</ele><time>2026-04-11T09:44:00Z</time></trkpt><trkpt lat="45.02494269176449" lon="7.960311265897653"><ele>225.0</ele><time>2026-04-11T09:44:01Z</time></trkpt><trkpt lat="45.024869370666714" lon="7.960082122505866"><ele>225.0</ele><time>2026-04-11T09:44:02Z</time></trkpt><trkpt lat="45.02479558234647" lon="7.959898565577963"><ele>225.0</ele><time>2026-04-11T09:44:03Z</time></trkpt><trkpt lat="45.02473308670284" lon="7.959757253458621"><ele>225.0</ele><time>2026-04-11T09:44:04Z</time></trkpt><trkpt lat="45.0246962302731" lon="7.959616193634788"><ele>226.33333333333331</ele><time>2026-04-11T09:44:05Z</time></trkpt><trkpt lat="45.02470465229432" lon="7.959321060898396"><ele>227.66666666666666</ele><time>2026-04-11T09:44:07Z</time></trkpt><trkpt lat="45.024734195075126" lon="7.959156554956002"><ele>229.0</ele><time>2026-04-11T09:44:08Z</time></trkpt><trkpt lat="45.02478936852047" lon="7.958998116633135"><ele>230.0</ele><time>2026-04-11T09:44:09Z</time></trkpt><trkpt lat="45.024889931755546" lon="7.958847583469814"><ele>231.0</ele><time>2026-04-11T09:44:10Z</time></trkpt><trkpt lat="45.02502994828488" lon="7.958710650167816"><ele>232.0</ele><time>2026-04-11T09:44:11Z</time></trkpt><trkpt lat="45.02517055002486" lon="7.958491967340986"><ele>232.33333333333331</ele><time>2026-04-11T09:44:12Z</time></trkpt><trkpt lat="45.02531353151038" lon="7.958264186807185"><ele>232.66666666666669</ele><time>2026-04-11T09:44:13Z</time></trkpt><trkpt lat="45.02545255296439" lon="7.958014802038432"><ele>233.0</ele><time>2026-04-11T09:44:14Z</time></trkpt><trkpt lat="45.02558093792292" lon="7.95775327888157"><ele>236.5</ele><time>2026-04-11T09:44:15Z</time></trkpt><trkpt lat="45.025690692677436" lon="7.9574712626761395"><ele>240.0</ele><time>2026-04-11T09:44:16Z</time></trkpt><trkpt lat="45.02578399628173" lon="7.957164542030942"><ele>235.0</ele><time>2026-04-11T09:44:17Z</time></trkpt><trkpt lat="45.025864423538756" lon="7.956836856152528"><ele>230.0</ele><time>2026-04-11T09:44:18Z</time></trkpt><trkpt lat="45.02594165511967" lon="7.95648977830786"><ele>230.0</ele><time>2026-04-11T09:44:19Z</time></trkpt><trkpt lat="45.02600638674228" lon="7.956119833246572"><ele>230.0</ele><time>2026-04-11T09:44:20Z</time></trkpt><trkpt lat="45.026068688563605" lon="7.955722345593215"><ele>231.0</ele><time>2026-04-11T09:44:21Z</time></trkpt><trkpt lat="45.02613852038266" lon="7.9552928689672875"><ele>232.0</ele><time>2026-04-11T09:44:22Z</time></trkpt><trkpt lat="45.02623295217339" lon="7.954863677590634"><ele>232.5</ele><time>2026-04-11T09:44:23Z</time></trkpt><trkpt lat="45.02634718673707" lon="7.954463260398024"><ele>233.0</ele><time>2026-04-11T09:44:24Z</time></trkpt><trkpt lat="45.02647104441953" lon="7.9540960965279215"><ele>234.0</ele><time>2026-04-11T09:44:25Z</time></trkpt><trkpt lat="45.02660887531786" lon="7.95373937752631"><ele>235.0</ele><time>2026-04-11T09:44:26Z</time></trkpt><trkpt lat="45.02676885409682" lon="7.953377294511667"><ele>234.5</ele><time>2026-04-11T09:44:27Z</time></trkpt><trkpt lat="45.026939417505695" lon="7.953015343953859"><ele>234.0</ele><time>2026-04-11T09:44:28Z</time></trkpt><trkpt lat="45.02710822283276" lon="7.952654790753803"><ele>234.5</ele><time>2026-04-11T09:44:29Z</time></trkpt><trkpt lat="45.02726456619991" lon="7.952290954813286"><ele>235.0</ele><time>2026-04-11T09:44:30Z</time></trkpt><trkpt lat="45.02739528199617" lon="7.951946273122175"><ele>240.5</ele><time>2026-04-11T09:44:31Z</time></trkpt><trkpt lat="45.02750902036307" lon="7.95162268543917"><ele>246.0</ele><time>2026-04-11T09:44:32Z</time></trkpt><trkpt lat="45.0276115562125" lon="7.951300811752648"><ele>246.0</ele><time>2026-04-11T09:44:33Z</time></trkpt><trkpt lat="45.02769736595195" lon="7.950979133176038"><ele>246.0</ele><time>2026-04-11T09:44:34Z</time></trkpt><trkpt lat="45.02776525362463" lon="7.950666885136324"><ele>247.33333333333331</ele><time>2026-04-11T09:44:35Z</time></trkpt><trkpt lat="45.02781952203335" lon="7.950366869824532"><ele>248.66666666666666</ele><time>2026-04-11T09:44:36Z</time></trkpt><trkpt lat="45.02785974501848" lon="7.950065873165677"><ele>250.0</ele><time>2026-04-11T09:44:37Z</time></trkpt><trkpt lat="45.027916399617745" lon="7.949751539015027"><ele>253.0</ele><time>2026-04-11T09:44:38Z</time></trkpt><trkpt lat="45.02795452308093" lon="7.94940868848048"><ele>256.0</ele><time>2026-04-11T09:44:39Z</time></trkpt><trkpt lat="45.02797788565646" lon="7.949061084432921"><ele>257.3333333333333</ele><time>2026-04-11T09:44:40Z</time></trkpt><trkpt lat="45.02799488396782" lon="7.948749953358195"><ele>258.6666666666667</ele><time>2026-04-11T09:44:41Z</time></trkpt><trkpt lat="45.02799872899019" lon="7.948473741266862"><ele>260.0</ele><time>2026-04-11T09:44:42Z</time></trkpt><trkpt lat="45.02801280290956" lon="7.948224322041067"><ele>265.33333333333337</ele><time>2026-04-11T09:44:43Z</time></trkpt><trkpt lat="45.02801934177955" lon="7.947990678350955"><ele>270.6666666666667</ele><time>2026-04-11T09:44:44Z</time></trkpt><trkpt lat="45.02802588485543" lon="7.947759085519176"><ele>276.0</ele><time>2026-04-11T09:44:45Z</time></trkpt><trkpt lat="45.0280335974834" lon="7.947534637631729"><ele>279.0</ele><time>2026-04-11T09:44:46Z</time></trkpt><trkpt lat="45.02806889272617" lon="7.9473289953519"><ele>282.0</ele><time>2026-04-11T09:44:47Z</time></trkpt><trkpt lat="45.028099958426864" lon="7.947129667067618"><ele>285.0</ele><time>2026-04-11T09:44:48Z</time></trkpt><trkpt lat="45.02814235520228" lon="7.946930310520855"><ele>288.0</ele><time>2026-04-11T09:44:49Z</time></trkpt><trkpt lat="45.02819914936989" lon="7.946755534145829"><ele>288.25</ele><time>2026-04-11T09:44:50Z</time></trkpt><trkpt lat="45.02826630302573" lon="7.9465846614876945"><ele>288.5</ele><time>2026-04-11T09:44:51Z</time></trkpt><trkpt lat="45.028324796907924" lon="7.9464376559472125"><ele>288.75</ele><time>2026-04-11T09:44:52Z</time></trkpt><trkpt lat="45.02838700386864" lon="7.946318464088174"><ele>289.0</ele><time>2026-04-11T09:44:53Z</time></trkpt><trkpt lat="45.02846452844588" lon="7.946189579567129"><ele>289.0</ele><time>2026-04-11T09:44:54Z</time></trkpt><trkpt lat="45.02853651291461" lon="7.9460400868162475"><ele>289.0</ele><time>2026-04-11T09:44:55Z</time></trkpt><trkpt lat="45.02861677892989" lon="7.945915125079781"><ele>289.0</ele><time>2026-04-11T09:44:56Z</time></trkpt><trkpt lat="45.028689470113555" lon="7.9457943270039815"><ele>289.0</ele><time>2026-04-11T09:44:57Z</time></trkpt><trkpt lat="45.028754959360136" lon="7.945644265305095"><ele>289.0</ele><time>2026-04-11T09:44:58Z</time></trkpt><trkpt lat="45.02881299231347" lon="7.945487330948597"><ele>289.0</ele><time>2026-04-11T09:44:59Z</time></trkpt><trkpt lat="45.0288594390248" lon="7.945331045502814"><ele>289.0</ele><time>2026-04-11T09:45:00Z</time></trkpt><trkpt lat="45.02889213516302" lon="7.945174993603053"><ele>289.0</ele><time>2026-04-11T09:45:01Z</time></trkpt><trkpt lat="45.02891774094914" lon="7.945025924021213"><ele>289.4</ele><time>2026-04-11T09:45:02Z</time></trkpt><trkpt lat="45.02893444531046" lon="7.944886182650426"><ele>289.79999999999995</ele><time>2026-04-11T09:45:03Z</time></trkpt><trkpt lat="45.02894274296783" lon="7.944752529923072"><ele>290.20000000000005</ele><time>2026-04-11T09:45:04Z</time></trkpt><trkpt lat="45.02894187953518" lon="7.944626131288067"><ele>290.6</ele><time>2026-04-11T09:45:05Z</time></trkpt><trkpt lat="45.02893736730681" lon="7.944519689904043"><ele>291.0</ele><time>2026-04-11T09:45:06Z</time></trkpt><trkpt lat="45.02891956095549" lon="7.944332196937015"><ele>291.1666666666667</ele><time>2026-04-11T09:45:08Z</time></trkpt><trkpt lat="45.02892337048312" lon="7.944167816745974"><ele>291.3333333333333</ele><time>2026-04-11T09:45:10Z</time></trkpt><trkpt lat="45.028883719325876" lon="7.944077098494763"><ele>291.5</ele><time>2026-04-11T09:45:11Z</time></trkpt><trkpt lat="45.02887977256294" lon="7.943978367542005"><ele>291.66666666666663</ele><time>2026-04-11T09:45:12Z</time></trkpt><trkpt lat="45.02888274603898" lon="7.943883909654553"><ele>291.8333333333333</ele><time>2026-04-11T09:45:13Z</time></trkpt><trkpt lat="45.028901202500904" lon="7.943771176542576"><ele>292.0</ele><time>2026-04-11T09:45:14Z</time></trkpt><trkpt lat="45.02891888339872" lon="7.943668297227172"><ele>292.0</ele><time>2026-04-11T09:45:15Z</time></trkpt><trkpt lat="45.02891668491724" lon="7.943569765504667"><ele>292.0</ele><time>2026-04-11T09:45:16Z</time></trkpt><trkpt lat="45.02890281098271" lon="7.943473877754032"><ele>292.0</ele><time>2026-04-11T09:45:17Z</time></trkpt><trkpt lat="45.0288657516111" lon="7.9433906043378135"><ele>292.0</ele><time>2026-04-11T09:45:18Z</time></trkpt><trkpt lat="45.028808454481734" lon="7.943327073041911"><ele>292.0</ele><time>2026-04-11T09:45:19Z</time></trkpt><trkpt lat="45.02863860508288" lon="7.943265823748009"><ele>291.8</ele><time>2026-04-11T09:45:21Z</time></trkpt><trkpt lat="45.02852984728308" lon="7.943282855528235"><ele>291.6</ele><time>2026-04-11T09:45:22Z</time></trkpt><trkpt lat="45.02842304072911" lon="7.943293141772309"><ele>291.40000000000003</ele><time>2026-04-11T09:45:23.001Z</time></trkpt><trkpt lat="45.028318409605944" lon="7.943255864385309"><ele>291.2</ele><time>2026-04-11T09:45:24.001Z</time></trkpt><trkpt lat="45.028236214565766" lon="7.943172187759278"><ele>291.0</ele><time>2026-04-11T09:45:25.001Z</time></trkpt><trkpt lat="45.028177107249974" lon="7.943045518378822"><ele>291.0</ele><time>2026-04-11T09:45:26.001Z</time></trkpt><trkpt lat="45.028118920887785" lon="7.942884747727357"><ele>291.0</ele><time>2026-04-11T09:45:27.001Z</time></trkpt><trkpt lat="45.028068169496876" lon="7.9427089309117465"><ele>291.0</ele><time>2026-04-11T09:45:28.001Z</time></trkpt><trkpt lat="45.02801363818774" lon="7.942513200077324"><ele>291.0</ele><time>2026-04-11T09:45:29.001Z</time></trkpt><trkpt lat="45.02794021798516" lon="7.942329167426859"><ele>291.0</ele><time>2026-04-11T09:45:30.001Z</time></trkpt><trkpt lat="45.02783374292348" lon="7.942182151355542"><ele>291.0</ele><time>2026-04-11T09:45:31.001Z</time></trkpt><trkpt lat="45.027694888135905" lon="7.942048377523771"><ele>291.0</ele><time>2026-04-11T09:45:32.001Z</time></trkpt><trkpt lat="45.02751492959584" lon="7.94192602955739"><ele>291.0</ele><time>2026-04-11T09:45:33.001Z</time></trkpt><trkpt lat="45.02729925913471" lon="7.941763985938996"><ele>291.0</ele><time>2026-04-11T09:45:34.001Z</time></trkpt><trkpt lat="45.02706490063046" lon="7.941567908698481"><ele>291.0</ele><time>2026-04-11T09:45:35.001Z</time></trkpt><trkpt lat="45.0268227539402" lon="7.941359971975962"><ele>291.0</ele><time>2026-04-11T09:45:36.001Z</time></trkpt><trkpt lat="45.02659953004915" lon="7.941180564046985"><ele>292.0</ele><time>2026-04-11T09:45:37.001Z</time></trkpt><trkpt lat="45.02639329557002" lon="7.941020499348186"><ele>293.0</ele><time>2026-04-11T09:45:38.001Z</time></trkpt><trkpt lat="45.026188775083796" lon="7.940850428777211"><ele>293.0</ele><time>2026-04-11T09:45:39.001Z</time></trkpt><trkpt lat="45.02599291932803" lon="7.940676790959276"><ele>293.0</ele><time>2026-04-11T09:45:40.001Z</time></trkpt><trkpt lat="45.02581143336152" lon="7.9404953299960885"><ele>293.33333333333337</ele><time>2026-04-11T09:45:41.001Z</time></trkpt><trkpt lat="45.025640950358145" lon="7.940308306721202"><ele>293.6666666666667</ele><time>2026-04-11T09:45:42.001Z</time></trkpt><trkpt lat="45.02548322008961" lon="7.940109750972916"><ele>294.0</ele><time>2026-04-11T09:45:43.001Z</time></trkpt><trkpt lat="45.025332947967215" lon="7.939904623036531"><ele>294.6666666666667</ele><time>2026-04-11T09:45:44.001Z</time></trkpt><trkpt lat="45.02518518047752" lon="7.939685646711491"><ele>295.33333333333337</ele><time>2026-04-11T09:45:45.001Z</time></trkpt><trkpt lat="45.025040840149636" lon="7.939456649568448"><ele>296.0</ele><time>2026-04-11T09:45:46.001Z</time></trkpt><trkpt lat="45.02490379910919" lon="7.93921936444294"><ele>296.33333333333337</ele><time>2026-04-11T09:45:47.001Z</time></trkpt><trkpt lat="45.02477485569413" lon="7.93896737913711"><ele>296.6666666666667</ele><time>2026-04-11T09:45:48.001Z</time></trkpt><trkpt lat="45.02465381788612" lon="7.9387028613970845"><ele>297.0</ele><time>2026-04-11T09:45:49.001Z</time></trkpt><trkpt lat="45.02453628318749" lon="7.938438641571031"><ele>297.3333333333333</ele><time>2026-04-11T09:45:50.001Z</time></trkpt><trkpt lat="45.024419839654406" lon="7.938178710653497"><ele>297.66666666666663</ele><time>2026-04-11T09:45:51.001Z</time></trkpt><trkpt lat="45.02430390325372" lon="7.937921892993531"><ele>298.0</ele><time>2026-04-11T09:45:52.001Z</time></trkpt><trkpt lat="45.024187288548866" lon="7.937659534362955"><ele>295.0</ele><time>2026-04-11T09:45:53.001Z</time></trkpt><trkpt lat="45.02406191714664" lon="7.937397617737632"><ele>292.0</ele><time>2026-04-11T09:45:54.001Z</time></trkpt><trkpt lat="45.02392879005157" lon="7.937136643419308"><ele>292.0</ele><time>2026-04-11T09:45:55.001Z</time></trkpt><trkpt lat="45.023785489599284" lon="7.936883961778317"><ele>292.0</ele><time>2026-04-11T09:45:56.001Z</time></trkpt><trkpt lat="45.02363715131703" lon="7.936650754530049"><ele>291.5</ele><time>2026-04-11T09:45:57.001Z</time></trkpt><trkpt lat="45.02347377785451" lon="7.936429193531812"><ele>291.0</ele><time>2026-04-11T09:45:58Z</time></trkpt><trkpt lat="45.023291794502896" lon="7.9362197356109085"><ele>290.3333333333333</ele><time>2026-04-11T09:45:59Z</time></trkpt><trkpt lat="45.023113440172224" lon="7.936027596833039"><ele>289.66666666666663</ele><time>2026-04-11T09:46:00Z</time></trkpt><trkpt lat="45.02293001542777" lon="7.935865098473679"><ele>289.0</ele><time>2026-04-11T09:46:01Z</time></trkpt><trkpt lat="45.022746870310236" lon="7.935714547182211"><ele>289.66666666666663</ele><time>2026-04-11T09:46:02Z</time></trkpt><trkpt lat="45.022560232787214" lon="7.935584584643184"><ele>290.3333333333333</ele><time>2026-04-11T09:46:03Z</time></trkpt><trkpt lat="45.02236333994755" lon="7.935470886538251"><ele>291.0</ele><time>2026-04-11T09:46:04Z</time></trkpt><trkpt lat="45.02216375427738" lon="7.9353692150517645"><ele>291.0</ele><time>2026-04-11T09:46:05Z</time></trkpt><trkpt lat="45.02196270609598" lon="7.9352841709306094"><ele>291.0</ele><time>2026-04-11T09:46:06Z</time></trkpt><trkpt lat="45.0217540336741" lon="7.9352150153687715"><ele>291.0</ele><time>2026-04-11T09:46:07Z</time></trkpt><trkpt lat="45.021541752998274" lon="7.935165448376852"><ele>290.0</ele><time>2026-04-11T09:46:08Z</time></trkpt><trkpt lat="45.02132629912747" lon="7.935135915280036"><ele>289.0</ele><time>2026-04-11T09:46:09Z</time></trkpt><trkpt lat="45.02111432606615" lon="7.935121772462514"><ele>288.0</ele><time>2026-04-11T09:46:10Z</time></trkpt><trkpt lat="45.02091550652294" lon="7.9351215048904695"><ele>287.0</ele><time>2026-04-11T09:46:11Z</time></trkpt><trkpt lat="45.02071607128322" lon="7.935127184555463"><ele>286.0</ele><time>2026-04-11T09:46:12Z</time></trkpt><trkpt lat="45.020510338510654" lon="7.9351356031190035"><ele>285.0</ele><time>2026-04-11T09:46:13Z</time></trkpt><trkpt lat="45.0203022296784" lon="7.935146847150082"><ele>285.0</ele><time>2026-04-11T09:46:14Z</time></trkpt><trkpt lat="45.02009186382576" lon="7.935158654955581"><ele>285.0</ele><time>2026-04-11T09:46:15Z</time></trkpt><trkpt lat="45.01987781548373" lon="7.935169471509334"><ele>285.0</ele><time>2026-04-11T09:46:16Z</time></trkpt><trkpt lat="45.019669722527" lon="7.935175469174074"><ele>285.0</ele><time>2026-04-11T09:46:17Z</time></trkpt><trkpt lat="45.019465615557465" lon="7.935169912477557"><ele>285.0</ele><time>2026-04-11T09:46:18Z</time></trkpt><trkpt lat="45.019256779134665" lon="7.935145417839721"><ele>285.0</ele><time>2026-04-11T09:46:19Z</time></trkpt><trkpt lat="45.01905013622758" lon="7.935099607922443"><ele>285.0</ele><time>2026-04-11T09:46:20Z</time></trkpt><trkpt lat="45.01884229857751" lon="7.935032526472074"><ele>285.0</ele><time>2026-04-11T09:46:21Z</time></trkpt><trkpt lat="45.01864215657162" lon="7.934939794740118"><ele>285.0</ele><time>2026-04-11T09:46:22Z</time></trkpt><trkpt lat="45.01844828315936" lon="7.934814811167732"><ele>284.3333333333333</ele><time>2026-04-11T09:46:23Z</time></trkpt><trkpt lat="45.01826643037814" lon="7.934673063575721"><ele>283.66666666666663</ele><time>2026-04-11T09:46:24Z</time></trkpt><trkpt lat="45.01808465365062" lon="7.934492953305358"><ele>283.0</ele><time>2026-04-11T09:46:25Z</time></trkpt><trkpt lat="45.01790828980876" lon="7.934290865717441"><ele>282.5</ele><time>2026-04-11T09:46:26Z</time></trkpt><trkpt lat="45.01773762956759" lon="7.934070615466426"><ele>282.0</ele><time>2026-04-11T09:46:27Z</time></trkpt><trkpt lat="45.01757702488699" lon="7.933856625091819"><ele>282.0</ele><time>2026-04-11T09:46:28Z</time></trkpt><trkpt lat="45.01742336184415" lon="7.933641099831752"><ele>282.0</ele><time>2026-04-11T09:46:29Z</time></trkpt><trkpt lat="45.017273614170435" lon="7.933429793568774"><ele>282.0</ele><time>2026-04-11T09:46:30Z</time></trkpt><trkpt lat="45.01711771774464" lon="7.933216385966565"><ele>281.6666666666667</ele><time>2026-04-11T09:46:31Z</time></trkpt><trkpt lat="45.01695055082971" lon="7.9330149734032736"><ele>281.33333333333337</ele><time>2026-04-11T09:46:32Z</time></trkpt><trkpt lat="45.016775669511304" lon="7.932830998779106"><ele>281.0</ele><time>2026-04-11T09:46:33Z</time></trkpt><trkpt lat="45.01659149258966" lon="7.93267347243458"><ele>280.33333333333337</ele><time>2026-04-11T09:46:34Z</time></trkpt><trkpt lat="45.01639681518785" lon="7.9325406963087035"><ele>279.6666666666667</ele><time>2026-04-11T09:46:35Z</time></trkpt><trkpt lat="45.016202127197204" lon="7.9324391514918755"><ele>279.0</ele><time>2026-04-11T09:46:36Z</time></trkpt><trkpt lat="45.01600637910512" lon="7.932369063511721"><ele>279.0</ele><time>2026-04-11T09:46:37Z</time></trkpt><trkpt lat="45.01581639057207" lon="7.9323314969752206"><ele>279.0</ele><time>2026-04-11T09:46:38Z</time></trkpt><trkpt lat="45.01562638288205" lon="7.932319138414617"><ele>279.0</ele><time>2026-04-11T09:46:39Z</time></trkpt><trkpt lat="45.015433250916566" lon="7.932325601630832"><ele>279.0</ele><time>2026-04-11T09:46:40Z</time></trkpt><trkpt lat="45.01523649265327" lon="7.932348797246257"><ele>279.0</ele><time>2026-04-11T09:46:41Z</time></trkpt><trkpt lat="45.01505192412886" lon="7.932384601745067"><ele>279.0</ele><time>2026-04-11T09:46:42Z</time></trkpt><trkpt lat="45.01487969063971" lon="7.932427843220571"><ele>278.6666666666667</ele><time>2026-04-11T09:46:43Z</time></trkpt><trkpt lat="45.014716159843644" lon="7.932474686483962"><ele>278.33333333333337</ele><time>2026-04-11T09:46:44Z</time></trkpt><trkpt lat="45.01455560136699" lon="7.932502584054053"><ele>278.0</ele><time>2026-04-11T09:46:45Z</time></trkpt><trkpt lat="45.01440522290616" lon="7.9325326578693645"><ele>278.0</ele><time>2026-04-11T09:46:46Z</time></trkpt><trkpt lat="45.014282146393754" lon="7.932565390002155"><ele>278.0</ele><time>2026-04-11T09:46:47Z</time></trkpt><trkpt lat="45.014179521671856" lon="7.932596286311413"><ele>278.0</ele><time>2026-04-11T09:46:48Z</time></trkpt><trkpt lat="45.01409782131635" lon="7.932595616295554"><ele>278.0</ele><time>2026-04-11T09:46:49Z</time></trkpt><trkpt lat="45.01402178616932" lon="7.932577539329191"><ele>278.0</ele><time>2026-04-11T09:46:50Z</time></trkpt><trkpt lat="45.013945904365144" lon="7.932530615099"><ele>277.75</ele><time>2026-04-11T09:46:51Z</time></trkpt><trkpt lat="45.01385200201566" lon="7.932448200648128"><ele>277.5</ele><time>2026-04-11T09:46:52Z</time></trkpt><trkpt lat="45.01374960135829" lon="7.9323388520860405"><ele>277.25</ele><time>2026-04-11T09:46:53Z</time></trkpt><trkpt lat="45.01365633326686" lon="7.932203918070589"><ele>277.0</ele><time>2026-04-11T09:46:54Z</time></trkpt><trkpt lat="45.013583224467816" lon="7.932032464572648"><ele>277.0</ele><time>2026-04-11T09:46:55Z</time></trkpt><trkpt lat="45.013552663916" lon="7.9318183995379234"><ele>277.0</ele><time>2026-04-11T09:46:56Z</time></trkpt><trkpt lat="45.01348066354851" lon="7.9315798168254075"><ele>277.0</ele><time>2026-04-11T09:46:57Z</time></trkpt><trkpt lat="45.01341738742283" lon="7.931330290795226"><ele>277.5</ele><time>2026-04-11T09:46:58Z</time></trkpt><trkpt lat="45.01332998870823" lon="7.931025351421173"><ele>278.0</ele><time>2026-04-11T09:46:59Z</time></trkpt><trkpt lat="45.013245644082545" lon="7.9306390660487525"><ele>278.0</ele><time>2026-04-11T09:47:00Z</time></trkpt><trkpt lat="45.0131269662507" lon="7.9302504657338595"><ele>278.0</ele><time>2026-04-11T09:47:01Z</time></trkpt><trkpt lat="45.012968752143735" lon="7.929584927474489"><ele>278.33333333333337</ele><time>2026-04-11T09:47:03Z</time></trkpt><trkpt lat="45.01289657538925" lon="7.929308439184176"><ele>278.6666666666667</ele><time>2026-04-11T09:47:04Z</time></trkpt><trkpt lat="45.012821731199196" lon="7.9290282506218315"><ele>279.0</ele><time>2026-04-11T09:47:05Z</time></trkpt><trkpt lat="45.01274413415177" lon="7.928748735008353"><ele>279.0</ele><time>2026-04-11T09:47:06Z</time></trkpt><trkpt lat="45.012661497914806" lon="7.928450552491481"><ele>279.0</ele><time>2026-04-11T09:47:07Z</time></trkpt><trkpt lat="45.01257295856364" lon="7.928096269677431"><ele>279.5</ele><time>2026-04-11T09:47:08Z</time></trkpt><trkpt lat="45.01247676944694" lon="7.927725408318869"><ele>280.0</ele><time>2026-04-11T09:47:09Z</time></trkpt><trkpt lat="45.012379613694165" lon="7.927350820147469"><ele>280.0</ele><time>2026-04-11T09:47:10Z</time></trkpt><trkpt lat="45.012272382438525" lon="7.9269550408266305"><ele>280.0</ele><time>2026-04-11T09:47:11Z</time></trkpt><trkpt lat="45.01216390180573" lon="7.926517009836732"><ele>279.5</ele><time>2026-04-11T09:47:12Z</time></trkpt><trkpt lat="45.01205598109728" lon="7.9260871236224855"><ele>279.0</ele><time>2026-04-11T09:47:13Z</time></trkpt><trkpt lat="45.01196218324858" lon="7.92569579571464"><ele>280.0</ele><time>2026-04-11T09:47:14Z</time></trkpt><trkpt lat="45.011878136292005" lon="7.925331211000496"><ele>281.0</ele><time>2026-04-11T09:47:15Z</time></trkpt><trkpt lat="45.011795156872914" lon="7.924968335050631"><ele>280.5</ele><time>2026-04-11T09:47:16Z</time></trkpt><trkpt lat="45.01171020024119" lon="7.924603942844164"><ele>280.0</ele><time>2026-04-11T09:47:17Z</time></trkpt><trkpt lat="45.011621640474814" lon="7.924228141250298"><ele>280.0</ele><time>2026-04-11T09:47:18Z</time></trkpt><trkpt lat="45.01153164380425" lon="7.923844486927986"><ele>280.0</ele><time>2026-04-11T09:47:19Z</time></trkpt><trkpt lat="45.01144277797006" lon="7.923462327236295"><ele>279.5</ele><time>2026-04-11T09:47:20Z</time></trkpt><trkpt lat="45.011351033609" lon="7.923073377082167"><ele>279.0</ele><time>2026-04-11T09:47:21Z</time></trkpt><trkpt lat="45.01125779230796" lon="7.922685845951451"><ele>279.0</ele><time>2026-04-11T09:47:22Z</time></trkpt><trkpt lat="45.01117223956627" lon="7.922332827624464"><ele>279.0</ele><time>2026-04-11T09:47:23Z</time></trkpt><trkpt lat="45.011093114816425" lon="7.921992581952109"><ele>279.0</ele><time>2026-04-11T09:47:24Z</time></trkpt><trkpt lat="45.01101749881768" lon="7.921659115144478"><ele>279.0</ele><time>2026-04-11T09:47:25Z</time></trkpt><trkpt lat="45.0109432231983" lon="7.9213225746986256"><ele>279.0</ele><time>2026-04-11T09:47:26Z</time></trkpt><trkpt lat="45.01086878722598" lon="7.920992274550851"><ele>279.0</ele><time>2026-04-11T09:47:27Z</time></trkpt><trkpt lat="45.01079247840001" lon="7.9206603539770875"><ele>279.5</ele><time>2026-04-11T09:47:28Z</time></trkpt><trkpt lat="45.01071449597624" lon="7.920332731923446"><ele>280.0</ele><time>2026-04-11T09:47:29Z</time></trkpt><trkpt lat="45.01063500449898" lon="7.920000930264737"><ele>280.5</ele><time>2026-04-11T09:47:30Z</time></trkpt><trkpt lat="45.01055241232537" lon="7.919659824141842"><ele>281.0</ele><time>2026-04-11T09:47:31.001Z</time></trkpt><trkpt lat="45.01046972272608" lon="7.919316875325834"><ele>280.0</ele><time>2026-04-11T09:47:32.001Z</time></trkpt><trkpt lat="45.01038531359426" lon="7.918969262591998"><ele>279.0</ele><time>2026-04-11T09:47:33.001Z</time></trkpt><trkpt lat="45.0102995744917" lon="7.918624411171539"><ele>278.5</ele><time>2026-04-11T09:47:34.001Z</time></trkpt><trkpt lat="45.01021255066622" lon="7.918267755014165"><ele>278.0</ele><time>2026-04-11T09:47:35.001Z</time></trkpt><trkpt lat="45.01012556317241" lon="7.91790006454152"><ele>278.0</ele><time>2026-04-11T09:47:36.001Z</time></trkpt><trkpt lat="45.01004033002173" lon="7.917525755586093"><ele>278.0</ele><time>2026-04-11T09:47:37.001Z</time></trkpt><trkpt lat="45.00995215527212" lon="7.917142816558455"><ele>276.5</ele><time>2026-04-11T09:47:38.001Z</time></trkpt><trkpt lat="45.009863229045116" lon="7.9167664269531635"><ele>275.0</ele><time>2026-04-11T09:47:39.001Z</time></trkpt><trkpt lat="45.009769089732906" lon="7.916385468641593"><ele>273.5</ele><time>2026-04-11T09:47:40.001Z</time></trkpt><trkpt lat="45.00966178837156" lon="7.916016254098665"><ele>272.0</ele><time>2026-04-11T09:47:41.001Z</time></trkpt><trkpt lat="45.00953851967548" lon="7.915668476612783"><ele>271.5</ele><time>2026-04-11T09:47:42.001Z</time></trkpt><trkpt lat="45.00940665061466" lon="7.915316531315121"><ele>271.0</ele><time>2026-04-11T09:47:43.001Z</time></trkpt><trkpt lat="45.00927791863205" lon="7.914973543115172"><ele>271.5</ele><time>2026-04-11T09:47:44.001Z</time></trkpt><trkpt lat="45.00915693037696" lon="7.914642025965911"><ele>272.0</ele><time>2026-04-11T09:47:45.001Z</time></trkpt><trkpt lat="45.00903995189893" lon="7.914319870768446"><ele>273.0</ele><time>2026-04-11T09:47:46.001Z</time></trkpt><trkpt lat="45.00892504435911" lon="7.9139990683671275"><ele>274.0</ele><time>2026-04-11T09:47:47.001Z</time></trkpt><trkpt lat="45.00881071579649" lon="7.913679840307416"><ele>275.0</ele><time>2026-04-11T09:47:48.001Z</time></trkpt><trkpt lat="45.00869854999501" lon="7.913366820905671"><ele>276.0</ele><time>2026-04-11T09:47:49.001Z</time></trkpt><trkpt lat="45.00858740966288" lon="7.9130564838966135"><ele>276.0</ele><time>2026-04-11T09:47:50.001Z</time></trkpt><trkpt lat="45.00847554081203" lon="7.9127483442475395"><ele>276.0</ele><time>2026-04-11T09:47:51.001Z</time></trkpt><trkpt lat="45.008364172024365" lon="7.912443021334443"><ele>276.0</ele><time>2026-04-11T09:47:52.001Z</time></trkpt><trkpt lat="45.00825321931349" lon="7.912138459354516"><ele>276.0</ele><time>2026-04-11T09:47:53.001Z</time></trkpt><trkpt lat="45.00814802441048" lon="7.9118406961637975"><ele>276.6666666666667</ele><time>2026-04-11T09:47:54.001Z</time></trkpt><trkpt lat="45.008055452694876" lon="7.911570022911429"><ele>277.33333333333337</ele><time>2026-04-11T09:47:55.001Z</time></trkpt><trkpt lat="45.00796661028727" lon="7.911314774321572"><ele>278.0</ele><time>2026-04-11T09:47:56.001Z</time></trkpt><trkpt lat="45.00786135265775" lon="7.911074921550905"><ele>277.6666666666667</ele><time>2026-04-11T09:47:57.001Z</time></trkpt><trkpt lat="45.00773302444644" lon="7.910847552582813"><ele>277.3333333333333</ele><time>2026-04-11T09:47:58.001Z</time></trkpt><trkpt lat="45.00758859572246" lon="7.910630095943544"><ele>277.0</ele><time>2026-04-11T09:47:59.001Z</time></trkpt><trkpt lat="45.00741914513228" lon="7.910424316384842"><ele>276.0</ele><time>2026-04-11T09:48:00.001Z</time></trkpt><trkpt lat="45.0072475612605" lon="7.910221081270254"><ele>275.0</ele><time>2026-04-11T09:48:01.001Z</time></trkpt><trkpt lat="45.0070645703074" lon="7.910019988813573"><ele>275.0</ele><time>2026-04-11T09:48:02.001Z</time></trkpt><trkpt lat="45.0068658215994" lon="7.9098078581899705"><ele>275.0</ele><time>2026-04-11T09:48:03.001Z</time></trkpt><trkpt lat="45.00666426934727" lon="7.909592902660186"><ele>275.5</ele><time>2026-04-11T09:48:04Z</time></trkpt><trkpt lat="45.006467899222585" lon="7.909385170911456"><ele>276.0</ele><time>2026-04-11T09:48:05Z</time></trkpt><trkpt lat="45.00627137470905" lon="7.9091762819065226"><ele>276.0</ele><time>2026-04-11T09:48:06Z</time></trkpt><trkpt lat="45.006087535178054" lon="7.908971280269323"><ele>276.0</ele><time>2026-04-11T09:48:07Z</time></trkpt><trkpt lat="45.00590557882244" lon="7.90876622563074"><ele>275.5</ele><time>2026-04-11T09:48:08Z</time></trkpt><trkpt lat="45.00573348168879" lon="7.9085432892111225"><ele>275.0</ele><time>2026-04-11T09:48:09Z</time></trkpt><trkpt lat="45.005575921977645" lon="7.9082923453110565"><ele>275.0</ele><time>2026-04-11T09:48:10Z</time></trkpt><trkpt lat="45.005433334433086" lon="7.908023930796815"><ele>275.0</ele><time>2026-04-11T09:48:11Z</time></trkpt><trkpt lat="45.00529183877791" lon="7.9077553873358335"><ele>275.0</ele><time>2026-04-11T09:48:12Z</time></trkpt><trkpt lat="45.005146203543994" lon="7.90748854147426"><ele>275.0</ele><time>2026-04-11T09:48:13Z</time></trkpt><trkpt lat="45.00500814628756" lon="7.9072271038623505"><ele>275.0</ele><time>2026-04-11T09:48:14Z</time></trkpt><trkpt lat="45.00486915709089" lon="7.906974016326805"><ele>275.0</ele><time>2026-04-11T09:48:15Z</time></trkpt><trkpt lat="45.004730197019306" lon="7.906720542307108"><ele>275.0</ele><time>2026-04-11T09:48:16Z</time></trkpt><trkpt lat="45.00459199640851" lon="7.906470568379444"><ele>275.0</ele><time>2026-04-11T09:48:17Z</time></trkpt><trkpt lat="45.00445540788671" lon="7.9062229797003925"><ele>275.0</ele><time>2026-04-11T09:48:18Z</time></trkpt><trkpt lat="45.00432153862047" lon="7.9059786752167"><ele>275.0</ele><time>2026-04-11T09:48:19Z</time></trkpt><trkpt lat="45.00419332556424" lon="7.905741075706546"><ele>275.0</ele><time>2026-04-11T09:48:20Z</time></trkpt><trkpt lat="45.004067168007154" lon="7.905513964209043"><ele>275.0</ele><time>2026-04-11T09:48:21Z</time></trkpt><trkpt lat="45.003949490491195" lon="7.905303600481113"><ele>275.0</ele><time>2026-04-11T09:48:22Z</time></trkpt><trkpt lat="45.00384186749698" lon="7.905109082048025"><ele>275.0</ele><time>2026-04-11T09:48:23Z</time></trkpt><trkpt lat="45.0037526234627" lon="7.9049458722152135"><ele>275.0</ele><time>2026-04-11T09:48:24Z</time></trkpt><trkpt lat="45.003673345286444" lon="7.904807244730424"><ele>275.0</ele><time>2026-04-11T09:48:25Z</time></trkpt><trkpt lat="45.003609187971" lon="7.904686625248663"><ele>274.6666666666667</ele><time>2026-04-11T09:48:26Z</time></trkpt><trkpt lat="45.00356472680915" lon="7.904570322330036"><ele>274.33333333333337</ele><time>2026-04-11T09:48:27Z</time></trkpt><trkpt lat="45.00355196539415" lon="7.9044540693824645"><ele>274.0</ele><time>2026-04-11T09:48:28Z</time></trkpt><trkpt lat="45.00354908229991" lon="7.904347676871238"><ele>273.6666666666667</ele><time>2026-04-11T09:48:29Z</time></trkpt><trkpt lat="45.00354520560508" lon="7.904220147202202"><ele>273.3333333333333</ele><time>2026-04-11T09:48:30Z</time></trkpt><trkpt lat="45.003503007111114" lon="7.904104023224614"><ele>273.0</ele><time>2026-04-11T09:48:31Z</time></trkpt><trkpt lat="45.00342676953018" lon="7.904024008719899"><ele>273.0</ele><time>2026-04-11T09:48:32Z</time></trkpt><trkpt lat="45.0033261817556" lon="7.903970229647027"><ele>273.0</ele><time>2026-04-11T09:48:33Z</time></trkpt><trkpt lat="45.00320880436909" lon="7.903905801180553"><ele>273.0</ele><time>2026-04-11T09:48:34Z</time></trkpt><trkpt lat="45.00309865225421" lon="7.903781889719278"><ele>273.0</ele><time>2026-04-11T09:48:35Z</time></trkpt><trkpt lat="45.00299271436754" lon="7.903583093191699"><ele>272.6666666666667</ele><time>2026-04-11T09:48:36Z</time></trkpt><trkpt lat="45.00287298299948" lon="7.90335001583679"><ele>272.33333333333337</ele><time>2026-04-11T09:48:37Z</time></trkpt><trkpt lat="45.00273282327569" lon="7.903091779397754"><ele>272.0</ele><time>2026-04-11T09:48:38Z</time></trkpt><trkpt lat="45.0025781391346" lon="7.90281183478678"><ele>273.5</ele><time>2026-04-11T09:48:39Z</time></trkpt><trkpt lat="45.002425551895534" lon="7.9025319817757005"><ele>275.0</ele><time>2026-04-11T09:48:40Z</time></trkpt><trkpt lat="45.002291079446394" lon="7.9022815653666205"><ele>275.0</ele><time>2026-04-11T09:48:41Z</time></trkpt><trkpt lat="45.00216560509755" lon="7.9020551305882725"><ele>275.0</ele><time>2026-04-11T09:48:42Z</time></trkpt><trkpt lat="45.002049054200334" lon="7.901837954091129"><ele>275.0</ele><time>2026-04-11T09:48:43Z</time></trkpt><trkpt lat="45.00193837575422" lon="7.901628541249738"><ele>275.33333333333337</ele><time>2026-04-11T09:48:44Z</time></trkpt><trkpt lat="45.001830067515044" lon="7.901431731386863"><ele>275.6666666666667</ele><time>2026-04-11T09:48:45Z</time></trkpt><trkpt lat="45.001720570495394" lon="7.9012350804023495"><ele>276.0</ele><time>2026-04-11T09:48:46Z</time></trkpt><trkpt lat="45.00160969142904" lon="7.901038930074593"><ele>275.0</ele><time>2026-04-11T09:48:47Z</time></trkpt><trkpt lat="45.001488674242054" lon="7.900862695081927"><ele>274.0</ele><time>2026-04-11T09:48:48Z</time></trkpt><trkpt lat="45.001401101996365" lon="7.900654826440814"><ele>273.0</ele><time>2026-04-11T09:48:49Z</time></trkpt><trkpt lat="45.00131357972516" lon="7.900433244262412"><ele>273.0</ele><time>2026-04-11T09:48:50Z</time></trkpt><trkpt lat="45.00116436787668" lon="7.900235084910715"><ele>273.0</ele><time>2026-04-11T09:48:51Z</time></trkpt><trkpt lat="45.0010159756361" lon="7.899983313922568"><ele>273.0</ele><time>2026-04-11T09:48:52Z</time></trkpt><trkpt lat="45.000854859180805" lon="7.899697742511067"><ele>272.5</ele><time>2026-04-11T09:48:53Z</time></trkpt><trkpt lat="45.00069046466248" lon="7.899388011639816"><ele>272.0</ele><time>2026-04-11T09:48:54Z</time></trkpt><trkpt lat="45.000521952566245" lon="7.899054432348294"><ele>271.0</ele><time>2026-04-11T09:48:55Z</time></trkpt><trkpt lat="45.00034966640978" lon="7.898724290765481"><ele>270.0</ele><time>2026-04-11T09:48:56Z</time></trkpt><trkpt lat="45.00015785460348" lon="7.898392935010739"><ele>269.5</ele><time>2026-04-11T09:48:57Z</time></trkpt><trkpt lat="44.99994666440995" lon="7.8980249945801555"><ele>269.0</ele><time>2026-04-11T09:48:58Z</time></trkpt><trkpt lat="44.99973085238054" lon="7.89761545211862"><ele>269.0</ele><time>2026-04-11T09:48:59Z</time></trkpt><trkpt lat="44.999516203210476" lon="7.897195046002994"><ele>269.0</ele><time>2026-04-11T09:49:00Z</time></trkpt><trkpt lat="44.999299308444044" lon="7.896791482663731"><ele>269.0</ele><time>2026-04-11T09:49:01Z</time></trkpt><trkpt lat="44.9990834330294" lon="7.896405579481102"><ele>269.0</ele><time>2026-04-11T09:49:02Z</time></trkpt><trkpt lat="44.998867573478634" lon="7.896013420509658"><ele>268.5</ele><time>2026-04-11T09:49:03Z</time></trkpt><trkpt lat="44.99865763901298" lon="7.89562282379608"><ele>268.0</ele><time>2026-04-11T09:49:04Z</time></trkpt><trkpt lat="44.9984564512773" lon="7.8952495356876895"><ele>268.0</ele><time>2026-04-11T09:49:05Z</time></trkpt><trkpt lat="44.99826102541285" lon="7.894887713553787"><ele>268.0</ele><time>2026-04-11T09:49:06Z</time></trkpt><trkpt lat="44.99806490920363" lon="7.894527025797514"><ele>268.0</ele><time>2026-04-11T09:49:07Z</time></trkpt><trkpt lat="44.997864480912874" lon="7.89415672808842"><ele>268.0</ele><time>2026-04-11T09:49:08Z</time></trkpt><trkpt lat="44.99766047838166" lon="7.893779606601887"><ele>269.0</ele><time>2026-04-11T09:49:09Z</time></trkpt><trkpt lat="44.99744942156879" lon="7.893386544279331"><ele>270.0</ele><time>2026-04-11T09:49:10Z</time></trkpt><trkpt lat="44.997226133780465" lon="7.892971891711311"><ele>269.5</ele><time>2026-04-11T09:49:11Z</time></trkpt><trkpt lat="44.99699988026074" lon="7.892551535796776"><ele>269.0</ele><time>2026-04-11T09:49:12Z</time></trkpt><trkpt lat="44.99678049626595" lon="7.892129028721594"><ele>269.0</ele><time>2026-04-11T09:49:13Z</time></trkpt><trkpt lat="44.9965679400763" lon="7.891717401528637"><ele>269.0</ele><time>2026-04-11T09:49:14Z</time></trkpt><trkpt lat="44.99636632953019" lon="7.891309750394003"><ele>269.5</ele><time>2026-04-11T09:49:15Z</time></trkpt><trkpt lat="44.9961669630794" lon="7.890896047593031"><ele>270.0</ele><time>2026-04-11T09:49:16Z</time></trkpt><trkpt lat="44.99597298831473" lon="7.890488607918585"><ele>267.5</ele><time>2026-04-11T09:49:17Z</time></trkpt><trkpt lat="44.99578136776531" lon="7.8900823550692465"><ele>265.0</ele><time>2026-04-11T09:49:18Z</time></trkpt><trkpt lat="44.99559340949459" lon="7.889679356745875"><ele>265.0</ele><time>2026-04-11T09:49:19Z</time></trkpt><trkpt lat="44.9954033029715" lon="7.889277455747798"><ele>265.0</ele><time>2026-04-11T09:49:20Z</time></trkpt><trkpt lat="44.99520910343077" lon="7.888874427718948"><ele>265.0</ele><time>2026-04-11T09:49:21Z</time></trkpt><trkpt lat="44.99501822768506" lon="7.888475331672421"><ele>265.0</ele><time>2026-04-11T09:49:22Z</time></trkpt><trkpt lat="44.99482735383439" lon="7.888074510638769"><ele>265.0</ele><time>2026-04-11T09:49:23Z</time></trkpt><trkpt lat="44.99463699110966" lon="7.887672110008111"><ele>265.0</ele><time>2026-04-11T09:49:24Z</time></trkpt><trkpt lat="44.994445697627526" lon="7.887268187221926"><ele>264.5</ele><time>2026-04-11T09:49:25Z</time></trkpt><trkpt lat="44.99425419367634" lon="7.886863583898882"><ele>264.0</ele><time>2026-04-11T09:49:26Z</time></trkpt><trkpt lat="44.99407171066444" lon="7.886478124462963"><ele>264.0</ele><time>2026-04-11T09:49:27Z</time></trkpt><trkpt lat="44.99390259883444" lon="7.886127191599093"><ele>264.0</ele><time>2026-04-11T09:49:28Z</time></trkpt><trkpt lat="44.99374355288801" lon="7.8857922555922935"><ele>264.0</ele><time>2026-04-11T09:49:29Z</time></trkpt><trkpt lat="44.99358851725507" lon="7.88546378113116"><ele>264.0</ele><time>2026-04-11T09:49:30Z</time></trkpt><trkpt lat="44.993436914089905" lon="7.885147976025612"><ele>263.0</ele><time>2026-04-11T09:49:31Z</time></trkpt><trkpt lat="44.99328562543225" lon="7.8848368109552265"><ele>262.0</ele><time>2026-04-11T09:49:32Z</time></trkpt><trkpt lat="44.993137646818326" lon="7.884525291921448"><ele>262.5</ele><time>2026-04-11T09:49:33Z</time></trkpt><trkpt lat="44.9929896396007" lon="7.884213227858634"><ele>263.0</ele><time>2026-04-11T09:49:34Z</time></trkpt><trkpt lat="44.99284245449701" lon="7.883901544683575"><ele>263.0</ele><time>2026-04-11T09:49:35Z</time></trkpt><trkpt lat="44.99269326103833" lon="7.883586405676122"><ele>263.0</ele><time>2026-04-11T09:49:36Z</time></trkpt><trkpt lat="44.992544841832874" lon="7.883279283375223"><ele>263.0</ele><time>2026-04-11T09:49:37Z</time></trkpt><trkpt lat="44.99239781575594" lon="7.882976007668429"><ele>263.0</ele><time>2026-04-11T09:49:38Z</time></trkpt><trkpt lat="44.99225473032335" lon="7.882672063229288"><ele>264.0</ele><time>2026-04-11T09:49:39.001Z</time></trkpt><trkpt lat="44.99211623523128" lon="7.882379092016336"><ele>265.0</ele><time>2026-04-11T09:49:40.001Z</time></trkpt><trkpt lat="44.991986380971866" lon="7.882107073686854"><ele>265.0</ele><time>2026-04-11T09:49:41.001Z</time></trkpt><trkpt lat="44.991862012166436" lon="7.8818475742997345"><ele>265.0</ele><time>2026-04-11T09:49:42.001Z</time></trkpt><trkpt lat="44.991740420557775" lon="7.881593317634897"><ele>265.0</ele><time>2026-04-11T09:49:43.001Z</time></trkpt><trkpt lat="44.99162011079772" lon="7.8813352723619845"><ele>265.0</ele><time>2026-04-11T09:49:44.001Z</time></trkpt><trkpt lat="44.99149927561162" lon="7.881079525636706"><ele>265.0</ele><time>2026-04-11T09:49:45.001Z</time></trkpt><trkpt lat="44.991377131659426" lon="7.880825198846619"><ele>265.0</ele><time>2026-04-11T09:49:46.001Z</time></trkpt><trkpt lat="44.99125374279662" lon="7.880567714791122"><ele>265.0</ele><time>2026-04-11T09:49:47.001Z</time></trkpt><trkpt lat="44.99113165592728" lon="7.880312156506994"><ele>265.0</ele><time>2026-04-11T09:49:48.001Z</time></trkpt><trkpt lat="44.99101588757392" lon="7.880067262399394"><ele>265.0</ele><time>2026-04-11T09:49:49.001Z</time></trkpt><trkpt lat="44.990901546341725" lon="7.8798426785244216"><ele>265.0</ele><time>2026-04-11T09:49:50.001Z</time></trkpt><trkpt lat="44.990784538999385" lon="7.879635112355181"><ele>265.0</ele><time>2026-04-11T09:49:51.001Z</time></trkpt><trkpt lat="44.99069019269364" lon="7.879402549641778"><ele>265.0</ele><time>2026-04-11T09:49:52.001Z</time></trkpt><trkpt lat="44.990596451937726" lon="7.879201724534862"><ele>265.0</ele><time>2026-04-11T09:49:53.001Z</time></trkpt><trkpt lat="44.990509503634726" lon="7.8790155688439505"><ele>265.0</ele><time>2026-04-11T09:49:54.001Z</time></trkpt><trkpt lat="44.99042689807912" lon="7.878841525225774"><ele>265.0</ele><time>2026-04-11T09:49:55.001Z</time></trkpt><trkpt lat="44.990352392856366" lon="7.878682615104189"><ele>265.0</ele><time>2026-04-11T09:49:56.001Z</time></trkpt><trkpt lat="44.9902816416646" lon="7.878532078684303"><ele>264.75</ele><time>2026-04-11T09:49:57.001Z</time></trkpt><trkpt lat="44.99021330055339" lon="7.8783857825033925"><ele>264.5</ele><time>2026-04-11T09:49:58.001Z</time></trkpt><trkpt lat="44.99014247880757" lon="7.878239440646918"><ele>264.25</ele><time>2026-04-11T09:49:59.001Z</time></trkpt><trkpt lat="44.9900769917948" lon="7.878103561632319"><ele>264.0</ele><time>2026-04-11T09:50:00.001Z</time></trkpt><trkpt lat="44.99001168744588" lon="7.877976703443083"><ele>264.0</ele><time>2026-04-11T09:50:01.001Z</time></trkpt><trkpt lat="44.98995156946732" lon="7.877853969719731"><ele>264.0</ele><time>2026-04-11T09:50:02.001Z</time></trkpt><trkpt lat="44.989916725264145" lon="7.877724407632711"><ele>264.0</ele><time>2026-04-11T09:50:03.001Z</time></trkpt><trkpt lat="44.98991831904503" lon="7.877587939452403"><ele>264.0</ele><time>2026-04-11T09:50:04.001Z</time></trkpt><trkpt lat="44.989921841481596" lon="7.877467400682385"><ele>264.0</ele><time>2026-04-11T09:50:05.001Z</time></trkpt><trkpt lat="44.98988065402494" lon="7.8773675368225895"><ele>263.59999999999997</ele><time>2026-04-11T09:50:06.001Z</time></trkpt><trkpt lat="44.989798863202495" lon="7.8772991624013535"><ele>263.2</ele><time>2026-04-11T09:50:07.001Z</time></trkpt><trkpt lat="44.98970083578987" lon="7.877248563086805"><ele>262.79999999999995</ele><time>2026-04-11T09:50:08.001Z</time></trkpt><trkpt lat="44.989603524755" lon="7.877155175866637"><ele>262.4</ele><time>2026-04-11T09:50:09.001Z</time></trkpt><trkpt lat="44.98954669461741" lon="7.877022666431268"><ele>262.0</ele><time>2026-04-11T09:50:10Z</time></trkpt><trkpt lat="44.98949852269984" lon="7.876898019864795"><ele>262.0</ele><time>2026-04-11T09:50:11Z</time></trkpt><trkpt lat="44.98944594968927" lon="7.876784167095829"><ele>262.0</ele><time>2026-04-11T09:50:12Z</time></trkpt><trkpt lat="44.98938772993187" lon="7.876667692159227"><ele>262.0</ele><time>2026-04-11T09:50:13Z</time></trkpt><trkpt lat="44.989326520832705" lon="7.876540108698815"><ele>262.0</ele><time>2026-04-11T09:50:14Z</time></trkpt><trkpt lat="44.989261611225515" lon="7.876403342537408"><ele>262.0</ele><time>2026-04-11T09:50:15Z</time></trkpt><trkpt lat="44.98918113646603" lon="7.876256890417712"><ele>263.0</ele><time>2026-04-11T09:50:16Z</time></trkpt><trkpt lat="44.98908928417464" lon="7.876087685859316"><ele>264.0</ele><time>2026-04-11T09:50:17Z</time></trkpt><trkpt lat="44.98898334532975" lon="7.875879651111856"><ele>265.0</ele><time>2026-04-11T09:50:18Z</time></trkpt><trkpt lat="44.98887060003925" lon="7.875634727698721"><ele>265.0</ele><time>2026-04-11T09:50:19Z</time></trkpt><trkpt lat="44.988771914903154" lon="7.875416372240276"><ele>265.0</ele><time>2026-04-11T09:50:20Z</time></trkpt><trkpt lat="44.98868983810489" lon="7.8752259391681525"><ele>265.0</ele><time>2026-04-11T09:50:21Z</time></trkpt><trkpt lat="44.98861765239957" lon="7.875047974627472"><ele>265.0</ele><time>2026-04-11T09:50:22Z</time></trkpt><trkpt lat="44.98853833726493" lon="7.874870973187323"><ele>265.0</ele><time>2026-04-11T09:50:23Z</time></trkpt><trkpt lat="44.98846061634051" lon="7.87470356872044"><ele>265.0</ele><time>2026-04-11T09:50:24Z</time></trkpt><trkpt lat="44.98838107654506" lon="7.874547796067324"><ele>265.0</ele><time>2026-04-11T09:50:25Z</time></trkpt><trkpt lat="44.988314204416696" lon="7.874397880528864"><ele>264.8</ele><time>2026-04-11T09:50:26Z</time></trkpt><trkpt lat="44.988257897526246" lon="7.874256176458454"><ele>264.6</ele><time>2026-04-11T09:50:27Z</time></trkpt><trkpt lat="44.988221333093854" lon="7.874115457558207"><ele>264.4</ele><time>2026-04-11T09:50:28Z</time></trkpt><trkpt lat="44.9881995235586" lon="7.873987065531815"><ele>264.2</ele><time>2026-04-11T09:50:29Z</time></trkpt><trkpt lat="44.98818297345058" lon="7.873874250123948"><ele>264.0</ele><time>2026-04-11T09:50:30Z</time></trkpt><trkpt lat="44.988175685804954" lon="7.8737636105813005"><ele>264.0</ele><time>2026-04-11T09:50:31Z</time></trkpt><trkpt lat="44.98818232446931" lon="7.873640056641079"><ele>264.0</ele><time>2026-04-11T09:50:32Z</time></trkpt><trkpt lat="44.98818984691763" lon="7.873504314670503"><ele>264.0</ele><time>2026-04-11T09:50:33Z</time></trkpt><trkpt lat="44.9881977269038" lon="7.8733526734653925"><ele>264.0</ele><time>2026-04-11T09:50:34Z</time></trkpt><trkpt lat="44.98823167065395" lon="7.873186623180831"><ele>264.0</ele><time>2026-04-11T09:50:35Z</time></trkpt><trkpt lat="44.98829324387851" lon="7.872996319461025"><ele>263.5</ele><time>2026-04-11T09:50:36Z</time></trkpt><trkpt lat="44.98836752403925" lon="7.872788031118415"><ele>263.0</ele><time>2026-04-11T09:50:37Z</time></trkpt><trkpt lat="44.988429812205425" lon="7.87259970554873"><ele>262.5</ele><time>2026-04-11T09:50:38Z</time></trkpt><trkpt lat="44.98848973877311" lon="7.872431712170364"><ele>262.0</ele><time>2026-04-11T09:50:39Z</time></trkpt><trkpt lat="44.988563347823465" lon="7.872250709329788"><ele>261.66666666666663</ele><time>2026-04-11T09:50:40Z</time></trkpt><trkpt lat="44.988651163764835" lon="7.87207278252055"><ele>261.3333333333333</ele><time>2026-04-11T09:50:41Z</time></trkpt><trkpt lat="44.98871240613295" lon="7.871865443505151"><ele>261.0</ele><time>2026-04-11T09:50:42Z</time></trkpt><trkpt lat="44.988796687727515" lon="7.871643808187619"><ele>261.0</ele><time>2026-04-11T09:50:43Z</time></trkpt><trkpt lat="44.98888385983096" lon="7.871404772603593"><ele>261.0</ele><time>2026-04-11T09:50:44Z</time></trkpt><trkpt lat="44.988973935353705" lon="7.871172766116364"><ele>261.0</ele><time>2026-04-11T09:50:45Z</time></trkpt><trkpt lat="44.98906237166679" lon="7.870959354320812"><ele>261.3333333333333</ele><time>2026-04-11T09:50:46Z</time></trkpt><trkpt lat="44.989165539720055" lon="7.870728237703692"><ele>261.66666666666663</ele><time>2026-04-11T09:50:47Z</time></trkpt><trkpt lat="44.989267843924104" lon="7.87051123865352"><ele>262.0</ele><time>2026-04-11T09:50:48Z</time></trkpt><trkpt lat="44.98936915687698" lon="7.870299847676912"><ele>259.3333333333333</ele><time>2026-04-11T09:50:49Z</time></trkpt><trkpt lat="44.9894706213777" lon="7.870094683371166"><ele>256.6666666666667</ele><time>2026-04-11T09:50:50Z</time></trkpt><trkpt lat="44.9895690726619" lon="7.869884135390682"><ele>254.0</ele><time>2026-04-11T09:50:51Z</time></trkpt><trkpt lat="44.98966442895798" lon="7.869676066844668"><ele>254.0</ele><time>2026-04-11T09:50:52Z</time></trkpt><trkpt lat="44.98976583206201" lon="7.869462207994339"><ele>254.0</ele><time>2026-04-11T09:50:53Z</time></trkpt><trkpt lat="44.98987101907076" lon="7.869243563359005"><ele>254.0</ele><time>2026-04-11T09:50:54Z</time></trkpt><trkpt lat="44.989979493525155" lon="7.869018726063798"><ele>254.66666666666669</ele><time>2026-04-11T09:50:55Z</time></trkpt><trkpt lat="44.99008299727539" lon="7.8687920579729145"><ele>255.33333333333331</ele><time>2026-04-11T09:50:56Z</time></trkpt><trkpt lat="44.990187353111146" lon="7.8685667177394505"><ele>256.0</ele><time>2026-04-11T09:50:57Z</time></trkpt><trkpt lat="44.99029278426838" lon="7.868339251487495"><ele>256.0</ele><time>2026-04-11T09:50:58Z</time></trkpt><trkpt lat="44.99040149355028" lon="7.868114436429832"><ele>256.0</ele><time>2026-04-11T09:50:59Z</time></trkpt><trkpt lat="44.99051048116246" lon="7.867882154722736"><ele>256.0</ele><time>2026-04-11T09:51:00Z</time></trkpt><trkpt lat="44.990616791008726" lon="7.8676563498279695"><ele>256.3333333333333</ele><time>2026-04-11T09:51:01Z</time></trkpt><trkpt lat="44.99072505163208" lon="7.867424034243219"><ele>256.6666666666667</ele><time>2026-04-11T09:51:02Z</time></trkpt><trkpt lat="44.99083274133562" lon="7.867193885178233"><ele>257.0</ele><time>2026-04-11T09:51:03Z</time></trkpt><trkpt lat="44.990940276817476" lon="7.866966911503975"><ele>257.0</ele><time>2026-04-11T09:51:04Z</time></trkpt><trkpt lat="44.991046680049145" lon="7.866738007448876"><ele>257.0</ele><time>2026-04-11T09:51:05Z</time></trkpt><trkpt lat="44.99115220399569" lon="7.866508308432045"><ele>257.0</ele><time>2026-04-11T09:51:06Z</time></trkpt><trkpt lat="44.9912600342355" lon="7.866279108470264"><ele>257.0</ele><time>2026-04-11T09:51:07Z</time></trkpt><trkpt lat="44.99136792079089" lon="7.866046027247998"><ele>257.0</ele><time>2026-04-11T09:51:08Z</time></trkpt><trkpt lat="44.991474290187696" lon="7.865818331872141"><ele>257.0</ele><time>2026-04-11T09:51:09Z</time></trkpt><trkpt lat="44.99158224197411" lon="7.86558676442758"><ele>257.33333333333337</ele><time>2026-04-11T09:51:10Z</time></trkpt><trkpt lat="44.991693672765926" lon="7.865355743269292"><ele>257.6666666666667</ele><time>2026-04-11T09:51:11Z</time></trkpt><trkpt lat="44.99180656226185" lon="7.865124686137352"><ele>258.0</ele><time>2026-04-11T09:51:12Z</time></trkpt><trkpt lat="44.99191868016464" lon="7.8648889806310365"><ele>258.0</ele><time>2026-04-11T09:51:13Z</time></trkpt><trkpt lat="44.992029728455535" lon="7.864650546450968"><ele>258.0</ele><time>2026-04-11T09:51:14Z</time></trkpt><trkpt lat="44.992139807769284" lon="7.86441353351728"><ele>258.0</ele><time>2026-04-11T09:51:15Z</time></trkpt><trkpt lat="44.99225094268009" lon="7.8641762344927"><ele>257.0</ele><time>2026-04-11T09:51:16Z</time></trkpt><trkpt lat="44.99236342053307" lon="7.863931203162126"><ele>256.0</ele><time>2026-04-11T09:51:17Z</time></trkpt><trkpt lat="44.992476274304124" lon="7.863692778218552"><ele>255.0</ele><time>2026-04-11T09:51:18Z</time></trkpt><trkpt lat="44.99258927921193" lon="7.863448401686039"><ele>255.0</ele><time>2026-04-11T09:51:19Z</time></trkpt><trkpt lat="44.992702569929634" lon="7.863200422482635"><ele>255.0</ele><time>2026-04-11T09:51:20Z</time></trkpt><trkpt lat="44.99281899606858" lon="7.862942095904718"><ele>255.0</ele><time>2026-04-11T09:51:21Z</time></trkpt><trkpt lat="44.992948948518155" lon="7.862701521302803"><ele>255.0</ele><time>2026-04-11T09:51:22Z</time></trkpt><trkpt lat="44.993059220519" lon="7.862424607798807"><ele>255.0</ele><time>2026-04-11T09:51:23Z</time></trkpt><trkpt lat="44.993214020170996" lon="7.862136176502712"><ele>253.5</ele><time>2026-04-11T09:51:24Z</time></trkpt><trkpt lat="44.99336114568732" lon="7.861822387303003"><ele>252.0</ele><time>2026-04-11T09:51:25Z</time></trkpt><trkpt lat="44.99350598632999" lon="7.8615134711596575"><ele>252.0</ele><time>2026-04-11T09:51:26Z</time></trkpt><trkpt lat="44.993651495004" lon="7.86120313027661"><ele>252.0</ele><time>2026-04-11T09:51:27Z</time></trkpt><trkpt lat="44.993781361807784" lon="7.860894506247296"><ele>253.0</ele><time>2026-04-11T09:51:28Z</time></trkpt><trkpt lat="44.99391493308587" lon="7.8606092227723945"><ele>254.0</ele><time>2026-04-11T09:51:29Z</time></trkpt><trkpt lat="44.99404262921177" lon="7.860340237794471"><ele>254.33333333333334</ele><time>2026-04-11T09:51:30Z</time></trkpt><trkpt lat="44.99416404411176" lon="7.860077197358806"><ele>254.66666666666669</ele><time>2026-04-11T09:51:31Z</time></trkpt><trkpt lat="44.99428917587994" lon="7.859813608200989"><ele>255.0</ele><time>2026-04-11T09:51:32Z</time></trkpt><trkpt lat="44.994410905460555" lon="7.859553726667404"><ele>255.33333333333331</ele><time>2026-04-11T09:51:33Z</time></trkpt><trkpt lat="44.99453250746282" lon="7.859295821701715"><ele>255.66666666666666</ele><time>2026-04-11T09:51:34Z</time></trkpt><trkpt lat="44.994650564792856" lon="7.859045135305933"><ele>256.0</ele><time>2026-04-11T09:51:35Z</time></trkpt><trkpt lat="44.994767326574255" lon="7.858798906652469"><ele>256.3333333333333</ele><time>2026-04-11T09:51:36Z</time></trkpt><trkpt lat="44.9948811442063" lon="7.858553594934267"><ele>256.6666666666667</ele><time>2026-04-11T09:51:37Z</time></trkpt><trkpt lat="44.99499322226149" lon="7.85831292529685"><ele>257.0</ele><time>2026-04-11T09:51:38Z</time></trkpt><trkpt lat="44.99510362596865" lon="7.858084773339621"><ele>257.33333333333337</ele><time>2026-04-11T09:51:39Z</time></trkpt><trkpt lat="44.99521304520017" lon="7.857879490398691"><ele>257.6666666666667</ele><time>2026-04-11T09:51:40Z</time></trkpt><trkpt lat="44.99531250885132" lon="7.857666913158158"><ele>258.0</ele><time>2026-04-11T09:51:41Z</time></trkpt><trkpt lat="44.99541645234035" lon="7.8574447613767955"><ele>258.0</ele><time>2026-04-11T09:51:42Z</time></trkpt><trkpt lat="44.99551205422158" lon="7.857240437646477"><ele>258.0</ele><time>2026-04-11T09:51:43Z</time></trkpt><trkpt lat="44.995603079576966" lon="7.857045893877564"><ele>258.0</ele><time>2026-04-11T09:51:44Z</time></trkpt><trkpt lat="44.995688641692595" lon="7.856821167923843"><ele>257.6666666666667</ele><time>2026-04-11T09:51:45Z</time></trkpt><trkpt lat="44.99579658857351" lon="7.856593499931361"><ele>257.33333333333337</ele><time>2026-04-11T09:51:46Z</time></trkpt><trkpt lat="44.99590786095308" lon="7.856357209720324"><ele>257.0</ele><time>2026-04-11T09:51:47Z</time></trkpt><trkpt lat="44.996019450307195" lon="7.85611677110393"><ele>257.0</ele><time>2026-04-11T09:51:48Z</time></trkpt><trkpt lat="44.9961288338898" lon="7.855876145178783"><ele>257.0</ele><time>2026-04-11T09:51:49Z</time></trkpt><trkpt lat="44.99624437871424" lon="7.855641264811362"><ele>257.0</ele><time>2026-04-11T09:51:50Z</time></trkpt><trkpt lat="44.996357584183414" lon="7.855390708942478"><ele>257.0</ele><time>2026-04-11T09:51:51Z</time></trkpt><trkpt lat="44.99647743496724" lon="7.85511854578616"><ele>257.0</ele><time>2026-04-11T09:51:52Z</time></trkpt><trkpt lat="44.996605521686554" lon="7.854832452837269"><ele>257.5</ele><time>2026-04-11T09:51:53.001Z</time></trkpt><trkpt lat="44.996745592091614" lon="7.854552432744333"><ele>258.0</ele><time>2026-04-11T09:51:54.001Z</time></trkpt><trkpt lat="44.99688735638446" lon="7.854274679871855"><ele>258.0</ele><time>2026-04-11T09:51:55.001Z</time></trkpt><trkpt lat="44.99702176829487" lon="7.853988917646006"><ele>258.0</ele><time>2026-04-11T09:51:56.001Z</time></trkpt><trkpt lat="44.9971526176775" lon="7.853700651965903"><ele>257.5</ele><time>2026-04-11T09:51:57.001Z</time></trkpt><trkpt lat="44.997288977993016" lon="7.853411095570067"><ele>257.0</ele><time>2026-04-11T09:51:58.001Z</time></trkpt><trkpt lat="44.997428370478325" lon="7.853127392427768"><ele>258.0</ele><time>2026-04-11T09:51:59.001Z</time></trkpt><trkpt lat="44.997564366396496" lon="7.852844664923895"><ele>259.0</ele><time>2026-04-11T09:52:00.001Z</time></trkpt><trkpt lat="44.99769505938587" lon="7.8525697903835"><ele>260.0</ele><time>2026-04-11T09:52:01.001Z</time></trkpt><trkpt lat="44.99782381108844" lon="7.852295395181257"><ele>261.0</ele><time>2026-04-11T09:52:02.001Z</time></trkpt><trkpt lat="44.997949615187274" lon="7.852031171912983"><ele>261.3333333333333</ele><time>2026-04-11T09:52:03.001Z</time></trkpt><trkpt lat="44.99806439687951" lon="7.851788300980919"><ele>261.66666666666663</ele><time>2026-04-11T09:52:04.001Z</time></trkpt><trkpt lat="44.99817314178784" lon="7.851562967958577"><ele>262.0</ele><time>2026-04-11T09:52:05.001Z</time></trkpt><trkpt lat="44.99827181778747" lon="7.851347055142948"><ele>262.0</ele><time>2026-04-11T09:52:06.001Z</time></trkpt><trkpt lat="44.99836425551387" lon="7.851142613436446"><ele>262.0</ele><time>2026-04-11T09:52:07.001Z</time></trkpt><trkpt lat="44.998456392720925" lon="7.850947979314272"><ele>262.0</ele><time>2026-04-11T09:52:08.001Z</time></trkpt><trkpt lat="44.99854701178015" lon="7.850757894955217"><ele>262.0</ele><time>2026-04-11T09:52:09.001Z</time></trkpt><trkpt lat="44.99863508688067" lon="7.85057103585387"><ele>262.0</ele><time>2026-04-11T09:52:10.001Z</time></trkpt><trkpt lat="44.998724867001165" lon="7.850383046831558"><ele>262.0</ele><time>2026-04-11T09:52:11.001Z</time></trkpt><trkpt lat="44.998815579763765" lon="7.850190479998547"><ele>261.3333333333333</ele><time>2026-04-11T09:52:12.001Z</time></trkpt><trkpt lat="44.99891062386249" lon="7.849990537363096"><ele>260.6666666666667</ele><time>2026-04-11T09:52:13.001Z</time></trkpt><trkpt lat="44.99900558036646" lon="7.849789413477853"><ele>260.0</ele><time>2026-04-11T09:52:14.001Z</time></trkpt><trkpt lat="44.9991033567804" lon="7.849579328147352"><ele>260.6666666666667</ele><time>2026-04-11T09:52:15.001Z</time></trkpt><trkpt lat="44.999198890422754" lon="7.849371007350818"><ele>261.3333333333333</ele><time>2026-04-11T09:52:16Z</time></trkpt><trkpt lat="44.99929545000527" lon="7.84916373749331"><ele>262.0</ele><time>2026-04-11T09:52:17Z</time></trkpt><trkpt lat="44.99938727264102" lon="7.848962472363167"><ele>262.5</ele><time>2026-04-11T09:52:18Z</time></trkpt><trkpt lat="44.999473103969294" lon="7.84877405092051"><ele>263.0</ele><time>2026-04-11T09:52:19Z</time></trkpt><trkpt lat="44.99955404880954" lon="7.848600022552778"><ele>263.5</ele><time>2026-04-11T09:52:20Z</time></trkpt><trkpt lat="44.99962955496468" lon="7.848440069090301"><ele>264.0</ele><time>2026-04-11T09:52:21Z</time></trkpt><trkpt lat="44.99969962763473" lon="7.8482830959353365"><ele>264.0</ele><time>2026-04-11T09:52:22Z</time></trkpt><trkpt lat="44.99975886595725" lon="7.848143366192582"><ele>264.0</ele><time>2026-04-11T09:52:23Z</time></trkpt><trkpt lat="44.999807778997535" lon="7.848023162979251"><ele>264.0</ele><time>2026-04-11T09:52:24Z</time></trkpt><trkpt lat="44.99985189266364" lon="7.847921430139272"><ele>264.0</ele><time>2026-04-11T09:52:25Z</time></trkpt><trkpt lat="44.99989158346214" lon="7.847851450304637"><ele>264.0</ele><time>2026-04-11T09:52:26Z</time></trkpt><trkpt lat="44.99997287721825" lon="7.847783257131509"><ele>264.0</ele><time>2026-04-11T09:52:28Z</time></trkpt><trkpt lat="45.00006756527863" lon="7.847741621827645"><ele>264.0</ele><time>2026-04-11T09:52:30Z</time></trkpt><trkpt lat="45.000164866033415" lon="7.847707454686141"><ele>264.0</ele><time>2026-04-11T09:52:32Z</time></trkpt><trkpt lat="45.00026557683836" lon="7.847604632713609"><ele>264.0</ele><time>2026-04-11T09:52:34Z</time></trkpt><trkpt lat="45.00029394951733" lon="7.847508993883587"><ele>264.0</ele><time>2026-04-11T09:52:35Z</time></trkpt><trkpt lat="45.000307764368586" lon="7.847399124619546"><ele>264.0</ele><time>2026-04-11T09:52:36Z</time></trkpt><trkpt lat="45.000307423179606" lon="7.8472794362245475"><ele>264.0</ele><time>2026-04-11T09:52:37Z</time></trkpt><trkpt lat="45.00030521584706" lon="7.847159722191537"><ele>264.0</ele><time>2026-04-11T09:52:38Z</time></trkpt><trkpt lat="45.00032318348289" lon="7.847035747308407"><ele>264.0</ele><time>2026-04-11T09:52:39Z</time></trkpt><trkpt lat="45.00035259468176" lon="7.846914022579847"><ele>264.0</ele><time>2026-04-11T09:52:40Z</time></trkpt><trkpt lat="45.00039693033258" lon="7.846787882580592"><ele>264.0</ele><time>2026-04-11T09:52:41Z</time></trkpt><trkpt lat="45.00045453061913" lon="7.846662982331995"><ele>264.4</ele><time>2026-04-11T09:52:42Z</time></trkpt><trkpt lat="45.000513974643795" lon="7.846535101047885"><ele>264.79999999999995</ele><time>2026-04-11T09:52:43Z</time></trkpt><trkpt lat="45.00057355946664" lon="7.846410593609288"><ele>265.20000000000005</ele><time>2026-04-11T09:52:44Z</time></trkpt><trkpt lat="45.00063008608646" lon="7.8462932625060695"><ele>265.6</ele><time>2026-04-11T09:52:45Z</time></trkpt><trkpt lat="45.0006879473488" lon="7.846170402999471"><ele>266.0</ele><time>2026-04-11T09:52:46Z</time></trkpt><trkpt lat="45.00075129997557" lon="7.846038291010676"><ele>266.25</ele><time>2026-04-11T09:52:47Z</time></trkpt><trkpt lat="45.00081606005831" lon="7.8459027412232745"><ele>266.5</ele><time>2026-04-11T09:52:48Z</time></trkpt><trkpt lat="45.00088261579232" lon="7.84576072473541"><ele>266.75</ele><time>2026-04-11T09:52:49Z</time></trkpt><trkpt lat="45.00094908546588" lon="7.8456156477404475"><ele>267.0</ele><time>2026-04-11T09:52:50Z</time></trkpt><trkpt lat="45.001014517335506" lon="7.845472637269496"><ele>267.2</ele><time>2026-04-11T09:52:51Z</time></trkpt><trkpt lat="45.0010752164838" lon="7.845347359851234"><ele>267.4</ele><time>2026-04-11T09:52:52Z</time></trkpt><trkpt lat="45.00113600353356" lon="7.845222312281375"><ele>267.6</ele><time>2026-04-11T09:52:53Z</time></trkpt><trkpt lat="45.00119739612332" lon="7.845094502892509"><ele>267.8</ele><time>2026-04-11T09:52:54Z</time></trkpt><trkpt lat="45.00125972314873" lon="7.8449632638049"><ele>268.0</ele><time>2026-04-11T09:52:55Z</time></trkpt><trkpt lat="45.0013220916598" lon="7.844830141695863"><ele>268.0</ele><time>2026-04-11T09:52:56Z</time></trkpt><trkpt lat="45.00138518575076" lon="7.8446963168498955"><ele>268.0</ele><time>2026-04-11T09:52:57Z</time></trkpt><trkpt lat="45.001449333659885" lon="7.844563114762376"><ele>268.0</ele><time>2026-04-11T09:52:58Z</time></trkpt><trkpt lat="45.00151123335915" lon="7.844428974601618"><ele>268.0</ele><time>2026-04-11T09:52:59Z</time></trkpt><trkpt lat="45.00156904947282" lon="7.84429434951898"><ele>268.0</ele><time>2026-04-11T09:53:00Z</time></trkpt><trkpt lat="45.00162401839396" lon="7.844176088875565"><ele>268.0</ele><time>2026-04-11T09:53:01Z</time></trkpt><trkpt lat="45.00167346577344" lon="7.844070537577344"><ele>268.0</ele><time>2026-04-11T09:53:02Z</time></trkpt><trkpt lat="45.00171916709643" lon="7.843972199973389"><ele>268.0</ele><time>2026-04-11T09:53:03Z</time></trkpt><trkpt lat="45.0017663914872" lon="7.843870579555543"><ele>268.0</ele><time>2026-04-11T09:53:04Z</time></trkpt><trkpt lat="45.00181482292571" lon="7.8437741004323955"><ele>268.0</ele><time>2026-04-11T09:53:05Z</time></trkpt><trkpt lat="45.001867200817586" lon="7.843686692133336"><ele>268.0</ele><time>2026-04-11T09:53:06Z</time></trkpt><trkpt lat="45.00192929360398" lon="7.8436116329691234"><ele>268.0</ele><time>2026-04-11T09:53:07Z</time></trkpt><trkpt lat="45.0020019378204" lon="7.843539357561893"><ele>268.0</ele><time>2026-04-11T09:53:08Z</time></trkpt><trkpt lat="45.00206057807056" lon="7.84346470705641"><ele>268.0</ele><time>2026-04-11T09:53:09Z</time></trkpt><trkpt lat="45.00209116802733" lon="7.843365726064863"><ele>268.0</ele><time>2026-04-11T09:53:10Z</time></trkpt><trkpt lat="45.00210838868418" lon="7.8432404012993375"><ele>268.0</ele><time>2026-04-11T09:53:11Z</time></trkpt><trkpt lat="45.0021404377438" lon="7.843093007155425"><ele>268.5</ele><time>2026-04-11T09:53:12Z</time></trkpt><trkpt lat="45.002203139945365" lon="7.84293418537388"><ele>269.0</ele><time>2026-04-11T09:53:13Z</time></trkpt><trkpt lat="45.00227770000746" lon="7.842779317444242"><ele>269.5</ele><time>2026-04-11T09:53:14Z</time></trkpt><trkpt lat="45.002338080156555" lon="7.842649222872657"><ele>270.0</ele><time>2026-04-11T09:53:15Z</time></trkpt><trkpt lat="45.00239359654582" lon="7.8425313947280015"><ele>270.0</ele><time>2026-04-11T09:53:16Z</time></trkpt><trkpt lat="45.00244568780916" lon="7.842425534216325"><ele>270.0</ele><time>2026-04-11T09:53:17Z</time></trkpt><trkpt lat="45.00248370572048" lon="7.842342867001343"><ele>270.0</ele><time>2026-04-11T09:53:18Z</time></trkpt><trkpt lat="45.00254638079083" lon="7.842261605397965"><ele>270.0</ele><time>2026-04-11T09:53:20Z</time></trkpt><trkpt lat="45.00259663524252" lon="7.842153505351064"><ele>270.0</ele><time>2026-04-11T09:53:38Z</time></trkpt><trkpt lat="45.0026422993203" lon="7.842039478927651"><ele>270.0</ele><time>2026-04-11T09:53:39Z</time></trkpt><trkpt lat="45.002694705393" lon="7.841879095643241"><ele>271.0</ele><time>2026-04-11T09:53:40Z</time></trkpt><trkpt lat="45.00277158151793" lon="7.84171655314237"><ele>272.0</ele><time>2026-04-11T09:53:41Z</time></trkpt><trkpt lat="45.002866112640916" lon="7.841538285293335"><ele>273.0</ele><time>2026-04-11T09:53:42Z</time></trkpt><trkpt lat="45.00295866176761" lon="7.841343976930954"><ele>273.0</ele><time>2026-04-11T09:53:43Z</time></trkpt><trkpt lat="45.0030536008425" lon="7.8411463596951725"><ele>273.0</ele><time>2026-04-11T09:53:44Z</time></trkpt><trkpt lat="45.00316665154992" lon="7.84090647028643"><ele>273.0</ele><time>2026-04-11T09:53:45Z</time></trkpt><trkpt lat="45.003266096834224" lon="7.840705706992222"><ele>274.0</ele><time>2026-04-11T09:53:46Z</time></trkpt><trkpt lat="45.003368856610116" lon="7.840499724327173"><ele>275.0</ele><time>2026-04-11T09:53:47Z</time></trkpt><trkpt lat="45.003472483692406" lon="7.840286536186282"><ele>276.0</ele><time>2026-04-11T09:53:48Z</time></trkpt><trkpt lat="45.00356974054545" lon="7.840072134589116"><ele>276.3333333333333</ele><time>2026-04-11T09:53:49Z</time></trkpt><trkpt lat="45.00366829126099" lon="7.839854075364571"><ele>276.66666666666663</ele><time>2026-04-11T09:53:50Z</time></trkpt><trkpt lat="45.00377149659225" lon="7.839642185212466"><ele>277.0</ele><time>2026-04-11T09:53:51Z</time></trkpt><trkpt lat="45.003870683075306" lon="7.839429566377786"><ele>276.66666666666663</ele><time>2026-04-11T09:53:52Z</time></trkpt><trkpt lat="45.00397331872028" lon="7.839212215652757"><ele>276.3333333333333</ele><time>2026-04-11T09:53:53Z</time></trkpt><trkpt lat="45.00407310440445" lon="7.839002191454298"><ele>276.0</ele><time>2026-04-11T09:53:54Z</time></trkpt><trkpt lat="45.004175434928975" lon="7.838788810556894"><ele>276.0</ele><time>2026-04-11T09:53:55Z</time></trkpt><trkpt lat="45.00427320677808" lon="7.838578235321841"><ele>276.0</ele><time>2026-04-11T09:53:56Z</time></trkpt><trkpt lat="45.004370119614414" lon="7.8383721115624105"><ele>276.0</ele><time>2026-04-11T09:53:57Z</time></trkpt><trkpt lat="45.004462871214315" lon="7.838166101724414"><ele>277.0</ele><time>2026-04-11T09:53:58Z</time></trkpt><trkpt lat="45.00455848647457" lon="7.8379634229482225"><ele>278.0</ele><time>2026-04-11T09:53:59Z</time></trkpt><trkpt lat="45.00465179183013" lon="7.837765261001287"><ele>279.0</ele><time>2026-04-11T09:54:00Z</time></trkpt><trkpt lat="45.00473859559834" lon="7.837563336415982"><ele>279.3333333333333</ele><time>2026-04-11T09:54:01Z</time></trkpt><trkpt lat="45.004824873247244" lon="7.83737433541596"><ele>279.66666666666663</ele><time>2026-04-11T09:54:02Z</time></trkpt><trkpt lat="45.00491244637836" lon="7.837188343176252"><ele>280.0</ele><time>2026-04-11T09:54:03Z</time></trkpt><trkpt lat="45.00500327677615" lon="7.837004467780307"><ele>279.5</ele><time>2026-04-11T09:54:04Z</time></trkpt><trkpt lat="45.0050879046145" lon="7.836816200812204"><ele>279.0</ele><time>2026-04-11T09:54:05Z</time></trkpt><trkpt lat="45.005171162154134" lon="7.836643766317129"><ele>278.5</ele><time>2026-04-11T09:54:06.001Z</time></trkpt><trkpt lat="45.005252487819966" lon="7.836492328893191"><ele>278.0</ele><time>2026-04-11T09:54:07.001Z</time></trkpt><trkpt lat="45.00532565691404" lon="7.8363626771439785"><ele>278.0</ele><time>2026-04-11T09:54:08.001Z</time></trkpt><trkpt lat="45.005400454765265" lon="7.836239353680338"><ele>278.0</ele><time>2026-04-11T09:54:09.001Z</time></trkpt><trkpt lat="45.0054624106072" lon="7.83612549521137"><ele>278.0</ele><time>2026-04-11T09:54:10.001Z</time></trkpt><trkpt lat="45.00551784035128" lon="7.836020412594814"><ele>278.0</ele><time>2026-04-11T09:54:11.001Z</time></trkpt><trkpt lat="45.00556606521024" lon="7.835931578647807"><ele>278.0</ele><time>2026-04-11T09:54:12.001Z</time></trkpt><trkpt lat="45.00562862962727" lon="7.8358498199178195"><ele>278.2</ele><time>2026-04-11T09:54:13.001Z</time></trkpt><trkpt lat="45.00570873815194" lon="7.835774058048827"><ele>278.4</ele><time>2026-04-11T09:54:14.001Z</time></trkpt><trkpt lat="45.005794139599324" lon="7.835692009063686"><ele>278.59999999999997</ele><time>2026-04-11T09:54:15.001Z</time></trkpt><trkpt lat="45.00587172893079" lon="7.835624193259809"><ele>278.8</ele><time>2026-04-11T09:54:16.001Z</time></trkpt><trkpt lat="45.005964316363716" lon="7.835555420763424"><ele>279.0</ele><time>2026-04-11T09:54:17.001Z</time></trkpt><trkpt lat="45.00606740774281" lon="7.83549186242435"><ele>279.25</ele><time>2026-04-11T09:54:18.001Z</time></trkpt><trkpt lat="45.00617894307815" lon="7.835434201215606"><ele>279.5</ele><time>2026-04-11T09:54:19.001Z</time></trkpt><trkpt lat="45.006285009191814" lon="7.8353754591071265"><ele>279.75</ele><time>2026-04-11T09:54:20.001Z</time></trkpt><trkpt lat="45.0063933907222" lon="7.835313635850588"><ele>280.0</ele><time>2026-04-11T09:54:21.001Z</time></trkpt><trkpt lat="45.00653391577196" lon="7.835262390657867"><ele>280.66666666666663</ele><time>2026-04-11T09:54:22Z</time></trkpt><trkpt lat="45.006687296876166" lon="7.835177536701616"><ele>281.3333333333333</ele><time>2026-04-11T09:54:23Z</time></trkpt><trkpt lat="45.00684008446244" lon="7.835092467657778"><ele>282.0</ele><time>2026-04-11T09:54:24Z</time></trkpt><trkpt lat="45.007004892854546" lon="7.835000627865173"><ele>282.3333333333333</ele><time>2026-04-11T09:54:25Z</time></trkpt><trkpt lat="45.00717150448086" lon="7.834907325518138"><ele>282.66666666666663</ele><time>2026-04-11T09:54:26Z</time></trkpt><trkpt lat="45.00734674888514" lon="7.834808957675514"><ele>283.0</ele><time>2026-04-11T09:54:27Z</time></trkpt><trkpt lat="45.0075276394865" lon="7.834708255160527"><ele>281.3333333333333</ele><time>2026-04-11T09:54:28Z</time></trkpt><trkpt lat="45.007698622034745" lon="7.8346134716759925"><ele>279.6666666666667</ele><time>2026-04-11T09:54:29Z</time></trkpt><trkpt lat="45.00787633716358" lon="7.834514956011636"><ele>278.0</ele><time>2026-04-11T09:54:30Z</time></trkpt><trkpt lat="45.008058400483165" lon="7.834414253498035"><ele>277.6666666666667</ele><time>2026-04-11T09:54:31Z</time></trkpt><trkpt lat="45.00822869566273" lon="7.8342980373306474"><ele>277.3333333333333</ele><time>2026-04-11T09:54:32Z</time></trkpt><trkpt lat="45.00839908385163" lon="7.834205714363478"><ele>277.0</ele><time>2026-04-11T09:54:33Z</time></trkpt><trkpt lat="45.008566420873045" lon="7.834138875735128"><ele>277.0</ele><time>2026-04-11T09:54:34Z</time></trkpt><trkpt lat="45.008723798086024" lon="7.834061746420002"><ele>277.0</ele><time>2026-04-11T09:54:35Z</time></trkpt><trkpt lat="45.00887715071269" lon="7.833997515772951"><ele>277.0</ele><time>2026-04-11T09:54:36Z</time></trkpt><trkpt lat="45.00901518763322" lon="7.833943410010237"><ele>277.0</ele><time>2026-04-11T09:54:37Z</time></trkpt><trkpt lat="45.0091346899734" lon="7.8339007872704745"><ele>277.0</ele><time>2026-04-11T09:54:38Z</time></trkpt><trkpt lat="45.00924311504371" lon="7.833866114696807"><ele>277.0</ele><time>2026-04-11T09:54:39Z</time></trkpt><trkpt lat="45.0093369042883" lon="7.833841678195958"><ele>277.0</ele><time>2026-04-11T09:54:40Z</time></trkpt><trkpt lat="45.00941396275882" lon="7.833824621626374"><ele>277.0</ele><time>2026-04-11T09:54:41Z</time></trkpt><trkpt lat="45.009481261123724" lon="7.8338115329311835"><ele>277.2857142857143</ele><time>2026-04-11T09:54:42Z</time></trkpt><trkpt lat="45.00954777229797" lon="7.833798541656822"><ele>277.57142857142856</ele><time>2026-04-11T09:54:43Z</time></trkpt><trkpt lat="45.00961197762558" lon="7.8337858666714935"><ele>277.85714285714283</ele><time>2026-04-11T09:54:44Z</time></trkpt><trkpt lat="45.009682208896535" lon="7.833770940436809"><ele>278.1428571428571</ele><time>2026-04-11T09:54:45Z</time></trkpt><trkpt lat="45.009750302837155" lon="7.833756438026401"><ele>278.42857142857144</ele><time>2026-04-11T09:54:46Z</time></trkpt><trkpt lat="45.00981699444451" lon="7.833742194871651"><ele>278.71428571428567</ele><time>2026-04-11T09:54:47Z</time></trkpt><trkpt lat="45.00987988746986" lon="7.833683140591491"><ele>279.0</ele><time>2026-04-11T09:54:48Z</time></trkpt><trkpt lat="45.00997798683838" lon="7.833658525248037"><ele>279.1666666666667</ele><time>2026-04-11T09:54:49Z</time></trkpt><trkpt lat="45.01008584838138" lon="7.833634749130584"><ele>279.3333333333333</ele><time>2026-04-11T09:54:50Z</time></trkpt><trkpt lat="45.01017549767535" lon="7.833619353567121"><ele>279.5</ele><time>2026-04-11T09:54:51Z</time></trkpt><trkpt lat="45.01025679221446" lon="7.833608852391742"><ele>279.66666666666663</ele><time>2026-04-11T09:54:52Z</time></trkpt><trkpt lat="45.0103293204375" lon="7.833595734006972"><ele>279.8333333333333</ele><time>2026-04-11T09:54:53Z</time></trkpt><trkpt lat="45.010407304743836" lon="7.833618537394693"><ele>280.0</ele><time>2026-04-11T09:54:54Z</time></trkpt><trkpt lat="45.01048038262429" lon="7.833603395647969"><ele>280.0</ele><time>2026-04-11T09:54:55Z</time></trkpt><trkpt lat="45.010544368090166" lon="7.833590137854478"><ele>280.0</ele><time>2026-04-11T09:54:56Z</time></trkpt><trkpt lat="45.010611503327745" lon="7.833575740101773"><ele>280.0</ele><time>2026-04-11T09:54:57Z</time></trkpt><trkpt lat="45.010705858867986" lon="7.833555517797981"><ele>280.0</ele><time>2026-04-11T09:54:59Z</time></trkpt><trkpt lat="45.01084282082943" lon="7.8335246723772745"><ele>280.0</ele><time>2026-04-11T09:55:01Z</time></trkpt><trkpt lat="45.01095595321674" lon="7.833497197632298"><ele>280.8</ele><time>2026-04-11T09:55:02Z</time></trkpt><trkpt lat="45.01106083315973" lon="7.833466102507459"><ele>281.6</ele><time>2026-04-11T09:55:03Z</time></trkpt><trkpt lat="45.01116685320362" lon="7.833422987574914"><ele>282.4</ele><time>2026-04-11T09:55:04Z</time></trkpt><trkpt lat="45.01126828042574" lon="7.833371698867099"><ele>283.2</ele><time>2026-04-11T09:55:05Z</time></trkpt><trkpt lat="45.01135764823544" lon="7.833325374787986"><ele>284.0</ele><time>2026-04-11T09:55:06Z</time></trkpt><trkpt lat="45.01144126798761" lon="7.833260501249828"><ele>284.0</ele><time>2026-04-11T09:55:07Z</time></trkpt><trkpt lat="45.01154150773405" lon="7.833187267748868"><ele>284.0</ele><time>2026-04-11T09:55:08Z</time></trkpt><trkpt lat="45.01166139119751" lon="7.833124848330421"><ele>284.0</ele><time>2026-04-11T09:55:09Z</time></trkpt><trkpt lat="45.01178251331546" lon="7.833040553855292"><ele>284.0</ele><time>2026-04-11T09:55:10Z</time></trkpt><trkpt lat="45.01189812784515" lon="7.83296054700739"><ele>284.0</ele><time>2026-04-11T09:55:11Z</time></trkpt><trkpt lat="45.01200188811944" lon="7.832865319395034"><ele>284.0</ele><time>2026-04-11T09:55:12Z</time></trkpt><trkpt lat="45.012130806830605" lon="7.832799104408331"><ele>284.0</ele><time>2026-04-11T09:55:13Z</time></trkpt><trkpt lat="45.01225097051299" lon="7.832715441974173"><ele>284.0</ele><time>2026-04-11T09:55:14Z</time></trkpt><trkpt lat="45.01236256593047" lon="7.832614657219629"><ele>284.25</ele><time>2026-04-11T09:55:15Z</time></trkpt><trkpt lat="45.01247629445903" lon="7.832539088209818"><ele>284.5</ele><time>2026-04-11T09:55:16Z</time></trkpt><trkpt lat="45.01259001894609" lon="7.8324612933534175"><ele>284.75</ele><time>2026-04-11T09:55:17Z</time></trkpt><trkpt lat="45.0126990701974" lon="7.832380674651549"><ele>285.0</ele><time>2026-04-11T09:55:18Z</time></trkpt><trkpt lat="45.01281586827451" lon="7.832328057864795"><ele>285.0</ele><time>2026-04-11T09:55:19Z</time></trkpt><trkpt lat="45.012919271365924" lon="7.8322598986158525"><ele>285.0</ele><time>2026-04-11T09:55:20Z</time></trkpt><trkpt lat="45.013020920666015" lon="7.83219231284054"><ele>285.0</ele><time>2026-04-11T09:55:21Z</time></trkpt><trkpt lat="45.01311501114795" lon="7.832132515245905"><ele>285.0</ele><time>2026-04-11T09:55:22Z</time></trkpt><trkpt lat="45.01321308037258" lon="7.832070672363187"><ele>285.0</ele><time>2026-04-11T09:55:23Z</time></trkpt><trkpt lat="45.01330603613775" lon="7.832012054042421"><ele>284.8333333333333</ele><time>2026-04-11T09:55:24Z</time></trkpt><trkpt lat="45.01338929772104" lon="7.8319595489003255"><ele>284.6666666666667</ele><time>2026-04-11T09:55:25Z</time></trkpt><trkpt lat="45.0134583337517" lon="7.83189534462414"><ele>284.5</ele><time>2026-04-11T09:55:26Z</time></trkpt><trkpt lat="45.01353325492885" lon="7.831850827882981"><ele>284.33333333333337</ele><time>2026-04-11T09:55:27Z</time></trkpt><trkpt lat="45.01360813011111" lon="7.831808449894986"><ele>284.1666666666667</ele><time>2026-04-11T09:55:28Z</time></trkpt><trkpt lat="45.01368213005583" lon="7.831763804741783"><ele>284.0</ele><time>2026-04-11T09:55:29Z</time></trkpt><trkpt lat="45.013745643172165" lon="7.831721101768677"><ele>284.8</ele><time>2026-04-11T09:55:30Z</time></trkpt><trkpt lat="45.013834524531084" lon="7.831664809972647"><ele>285.59999999999997</ele><time>2026-04-11T09:55:32Z</time></trkpt><trkpt lat="45.013911563603834" lon="7.831631816547167"><ele>286.4</ele><time>2026-04-11T09:55:34Z</time></trkpt><trkpt lat="45.01399285816838" lon="7.83160731730856"><ele>287.2</ele><time>2026-04-11T09:55:36Z</time></trkpt><trkpt lat="45.01409885747793" lon="7.831660560585185"><ele>288.0</ele><time>2026-04-11T09:55:38Z</time></trkpt><trkpt lat="45.01419435357881" lon="7.831640658588906"><ele>288.2</ele><time>2026-04-11T09:55:40Z</time></trkpt><trkpt lat="45.014233360914474" lon="7.831569458385545"><ele>288.4</ele><time>2026-04-11T09:55:41Z</time></trkpt><trkpt lat="45.01430944918781" lon="7.831352460033524"><ele>288.59999999999997</ele><time>2026-04-11T09:55:43Z</time></trkpt><trkpt lat="45.01437486532281" lon="7.831247990148313"><ele>288.8</ele><time>2026-04-11T09:55:44Z</time></trkpt><trkpt lat="45.01445881986585" lon="7.8311498342513595"><ele>289.0</ele><time>2026-04-11T09:55:45Z</time></trkpt><trkpt lat="45.01453790492978" lon="7.8310653784816"><ele>289.5</ele><time>2026-04-11T09:55:46Z</time></trkpt><trkpt lat="45.01460753703168" lon="7.830966795978975"><ele>290.0</ele><time>2026-04-11T09:55:47Z</time></trkpt><trkpt lat="45.01468526084466" lon="7.830839782697627"><ele>290.5</ele><time>2026-04-11T09:55:48Z</time></trkpt><trkpt lat="45.01477417116534" lon="7.8306615965992"><ele>291.0</ele><time>2026-04-11T09:55:49Z</time></trkpt><trkpt lat="45.014858960188874" lon="7.830462895232042"><ele>291.0</ele><time>2026-04-11T09:55:50Z</time></trkpt><trkpt lat="45.01493946224533" lon="7.830275970710415"><ele>291.0</ele><time>2026-04-11T09:55:51Z</time></trkpt><trkpt lat="45.015015585302244" lon="7.830096411083829"><ele>291.0</ele><time>2026-04-11T09:55:52Z</time></trkpt><trkpt lat="45.0150826388265" lon="7.82993702248118"><ele>291.0</ele><time>2026-04-11T09:55:53Z</time></trkpt><trkpt lat="45.015136448978225" lon="7.82981030371255"><ele>290.8333333333333</ele><time>2026-04-11T09:55:54Z</time></trkpt><trkpt lat="45.01518881298766" lon="7.829691375595294"><ele>290.6666666666667</ele><time>2026-04-11T09:55:55Z</time></trkpt><trkpt lat="45.01523673551872" lon="7.829584314216371"><ele>290.5</ele><time>2026-04-11T09:55:56Z</time></trkpt><trkpt lat="45.015280698652035" lon="7.829486177808556"><ele>290.33333333333337</ele><time>2026-04-11T09:55:57Z</time></trkpt><trkpt lat="45.01532397891726" lon="7.829390863901261"><ele>290.1666666666667</ele><time>2026-04-11T09:55:58Z</time></trkpt><trkpt lat="45.01536721307492" lon="7.829298124860718"><ele>290.0</ele><time>2026-04-11T09:55:59Z</time></trkpt><trkpt lat="45.015409486982975" lon="7.829208072744933"><ele>290.0</ele><time>2026-04-11T09:56:00Z</time></trkpt><trkpt lat="45.015462004087105" lon="7.829093772145236"><ele>290.0</ele><time>2026-04-11T09:56:01Z</time></trkpt><trkpt lat="45.01551130943033" lon="7.828972048736703"><ele>290.0</ele><time>2026-04-11T09:56:02Z</time></trkpt><trkpt lat="45.01555770580508" lon="7.828858661137258"><ele>290.0</ele><time>2026-04-11T09:56:03Z</time></trkpt><trkpt lat="45.01559683637704" lon="7.828769498409036"><ele>290.0</ele><time>2026-04-11T09:56:04.001Z</time></trkpt><trkpt lat="45.01564905822787" lon="7.828640436187282"><ele>290.0</ele><time>2026-04-11T09:56:06.001Z</time></trkpt><trkpt lat="45.01570526173832" lon="7.828537132912468"><ele>290.0</ele><time>2026-04-11T09:56:47Z</time></trkpt><trkpt lat="45.01573873865618" lon="7.828433657313799"><ele>290.0</ele><time>2026-04-11T09:56:48Z</time></trkpt><trkpt lat="45.01576871778217" lon="7.828307997482236"><ele>290.0</ele><time>2026-04-11T09:56:49Z</time></trkpt><trkpt lat="45.0158054498659" lon="7.828158407263966"><ele>290.0</ele><time>2026-04-11T09:56:50Z</time></trkpt><trkpt lat="45.01584452553112" lon="7.8279674057339745"><ele>290.33333333333337</ele><time>2026-04-11T09:56:51Z</time></trkpt><trkpt lat="45.01589188769789" lon="7.827791119251042"><ele>290.6666666666667</ele><time>2026-04-11T09:56:52Z</time></trkpt><trkpt lat="45.01593031480401" lon="7.827575321522779"><ele>291.0</ele><time>2026-04-11T09:56:53Z</time></trkpt><trkpt lat="45.01595589860573" lon="7.827330808780508"><ele>291.6666666666667</ele><time>2026-04-11T09:56:54Z</time></trkpt><trkpt lat="45.01599524540385" lon="7.827087344649571"><ele>292.33333333333337</ele><time>2026-04-11T09:56:55Z</time></trkpt><trkpt lat="45.01603719273241" lon="7.826848478805863"><ele>293.0</ele><time>2026-04-11T09:56:56Z</time></trkpt><trkpt lat="45.01608375943879" lon="7.826600171762718"><ele>293.33333333333337</ele><time>2026-04-11T09:56:57Z</time></trkpt><trkpt lat="45.01613457121897" lon="7.826325781477925"><ele>293.6666666666667</ele><time>2026-04-11T09:56:58Z</time></trkpt><trkpt lat="45.01618010587117" lon="7.826066493725285"><ele>294.0</ele><time>2026-04-11T09:56:59Z</time></trkpt><trkpt lat="45.01623198675743" lon="7.825786177224767"><ele>294.3333333333333</ele><time>2026-04-11T09:57:00Z</time></trkpt><trkpt lat="45.01628299922226" lon="7.825496789192074"><ele>294.66666666666663</ele><time>2026-04-11T09:57:01Z</time></trkpt><trkpt lat="45.01632633583902" lon="7.825208187032808"><ele>295.0</ele><time>2026-04-11T09:57:02Z</time></trkpt><trkpt lat="45.01635860582892" lon="7.824911199916892"><ele>296.3333333333333</ele><time>2026-04-11T09:57:03Z</time></trkpt><trkpt lat="45.0163737418823" lon="7.824625470650318"><ele>297.6666666666667</ele><time>2026-04-11T09:57:04Z</time></trkpt><trkpt lat="45.01637827902579" lon="7.824339587523737"><ele>299.0</ele><time>2026-04-11T09:57:05Z</time></trkpt><trkpt lat="45.01638549402898" lon="7.824043238027807"><ele>301.0</ele><time>2026-04-11T09:57:06Z</time></trkpt><trkpt lat="45.01639033059175" lon="7.823755629895785"><ele>303.0</ele><time>2026-04-11T09:57:07Z</time></trkpt><trkpt lat="45.016385566217" lon="7.8234782409789805"><ele>305.0</ele><time>2026-04-11T09:57:08Z</time></trkpt><trkpt lat="45.01636785116175" lon="7.8232039237846696"><ele>305.0</ele><time>2026-04-11T09:57:09Z</time></trkpt><trkpt lat="45.01634605745743" lon="7.822936308851719"><ele>305.0</ele><time>2026-04-11T09:57:10Z</time></trkpt><trkpt lat="45.01632024750859" lon="7.82266758953225"><ele>305.0</ele><time>2026-04-11T09:57:11Z</time></trkpt><trkpt lat="45.016298803233894" lon="7.822410513361842"><ele>305.0</ele><time>2026-04-11T09:57:12Z</time></trkpt><trkpt lat="45.016272505999765" lon="7.822158545325089"><ele>305.0</ele><time>2026-04-11T09:57:13Z</time></trkpt><trkpt lat="45.016249810566435" lon="7.821909832816112"><ele>305.0</ele><time>2026-04-11T09:57:14Z</time></trkpt><trkpt lat="45.016231799302595" lon="7.821658593699537"><ele>304.33333333333337</ele><time>2026-04-11T09:57:15Z</time></trkpt><trkpt lat="45.016233905376154" lon="7.821413822156554"><ele>303.6666666666667</ele><time>2026-04-11T09:57:16Z</time></trkpt><trkpt lat="45.01625532397998" lon="7.8211808563117255"><ele>303.0</ele><time>2026-04-11T09:57:17Z</time></trkpt><trkpt lat="45.01629140641485" lon="7.820978474686495"><ele>302.4</ele><time>2026-04-11T09:57:18Z</time></trkpt><trkpt lat="45.01633308157209" lon="7.82079080117771"><ele>301.8</ele><time>2026-04-11T09:57:19Z</time></trkpt><trkpt lat="45.01629983720822" lon="7.8207006662409055"><ele>301.2</ele><time>2026-04-11T09:57:20Z</time></trkpt><trkpt lat="45.01633086534697" lon="7.82056077547677"><ele>300.6</ele><time>2026-04-11T09:57:22Z</time></trkpt><trkpt lat="45.016360501860994" lon="7.8204659743761615"><ele>300.0</ele><time>2026-04-11T09:57:30Z</time></trkpt><trkpt lat="45.01638341629087" lon="7.82035757671524"><ele>300.0</ele><time>2026-04-11T09:57:33Z</time></trkpt><trkpt lat="45.01640458002472" lon="7.820267116299579"><ele>300.0</ele><time>2026-04-11T09:57:34Z</time></trkpt><trkpt lat="45.01643428005739" lon="7.82016359973479"><ele>300.0</ele><time>2026-04-11T09:57:35Z</time></trkpt><trkpt lat="45.01648629581391" lon="7.820023362936432"><ele>300.0</ele><time>2026-04-11T09:57:39Z</time></trkpt><trkpt lat="45.016523727704474" lon="7.819886109201237"><ele>300.0</ele><time>2026-04-11T09:57:41Z</time></trkpt><trkpt lat="45.01655484602038" lon="7.81976023508887"><ele>301.3333333333333</ele><time>2026-04-11T09:57:42Z</time></trkpt><trkpt lat="45.016581596180444" lon="7.819631130020841"><ele>302.66666666666663</ele><time>2026-04-11T09:57:43Z</time></trkpt><trkpt lat="45.01662817839724" lon="7.819420741443499"><ele>304.0</ele><time>2026-04-11T09:57:44Z</time></trkpt><trkpt lat="45.01672233552189" lon="7.819131162695102"><ele>304.0</ele><time>2026-04-11T09:57:45Z</time></trkpt><trkpt lat="45.016813924294354" lon="7.818765368253134"><ele>304.0</ele><time>2026-04-11T09:57:46Z</time></trkpt><trkpt lat="45.0169009147176" lon="7.818387674526496"><ele>304.0</ele><time>2026-04-11T09:57:47Z</time></trkpt><trkpt lat="45.016956038982364" lon="7.818083349200296"><ele>304.0</ele><time>2026-04-11T09:57:48Z</time></trkpt><trkpt lat="45.01700645216572" lon="7.81787584048758"><ele>304.0</ele><time>2026-04-11T09:57:49Z</time></trkpt><trkpt lat="45.01704225219117" lon="7.817726563998939"><ele>303.3333333333333</ele><time>2026-04-11T09:57:50Z</time></trkpt><trkpt lat="45.01706742136632" lon="7.817614961805017"><ele>302.66666666666663</ele><time>2026-04-11T09:57:51Z</time></trkpt><trkpt lat="45.01709548859215" lon="7.817512901510468"><ele>302.0</ele><time>2026-04-11T09:57:52Z</time></trkpt><trkpt lat="45.01712377369342" lon="7.81740774596549"><ele>301.3333333333333</ele><time>2026-04-11T09:57:53Z</time></trkpt><trkpt lat="45.01715014773198" lon="7.817283389292678"><ele>300.6666666666667</ele><time>2026-04-11T09:57:54Z</time></trkpt><trkpt lat="45.01717959973931" lon="7.817146355476739"><ele>300.0</ele><time>2026-04-11T09:57:55Z</time></trkpt><trkpt lat="45.01721124037631" lon="7.817006282224564"><ele>300.0</ele><time>2026-04-11T09:57:56Z</time></trkpt><trkpt lat="45.0172433589103" lon="7.816864139546649"><ele>300.0</ele><time>2026-04-11T09:57:57Z</time></trkpt><trkpt lat="45.01727463979702" lon="7.816722769904784"><ele>300.0</ele><time>2026-04-11T09:57:58Z</time></trkpt><trkpt lat="45.017309820694955" lon="7.816580291380852"><ele>300.0</ele><time>2026-04-11T09:57:59Z</time></trkpt><trkpt lat="45.017346849697766" lon="7.816428359436205"><ele>300.0</ele><time>2026-04-11T09:58:00Z</time></trkpt><trkpt lat="45.01738305224946" lon="7.816275899948084"><ele>300.2</ele><time>2026-04-11T09:58:01Z</time></trkpt><trkpt lat="45.01741478583436" lon="7.816132790677407"><ele>300.4</ele><time>2026-04-11T09:58:02Z</time></trkpt><trkpt lat="45.01744309747877" lon="7.815999192348041"><ele>300.6</ele><time>2026-04-11T09:58:03Z</time></trkpt><trkpt lat="45.01747701082618" lon="7.815864782453721"><ele>300.8</ele><time>2026-04-11T09:58:04Z</time></trkpt><trkpt lat="45.01750745137812" lon="7.81574628804711"><ele>301.0</ele><time>2026-04-11T09:58:05Z</time></trkpt><trkpt lat="45.01753264423738" lon="7.815640354273393"><ele>301.0</ele><time>2026-04-11T09:58:06Z</time></trkpt><trkpt lat="45.017559915804036" lon="7.81554085134816"><ele>301.0</ele><time>2026-04-11T09:58:07Z</time></trkpt><trkpt lat="45.01760591726056" lon="7.815441304196681"><ele>301.0</ele><time>2026-04-11T09:58:08Z</time></trkpt><trkpt lat="45.01765871802743" lon="7.815348339398839"><ele>301.0</ele><time>2026-04-11T09:58:09Z</time></trkpt><trkpt lat="45.01768576488107" lon="7.815217611229664"><ele>301.0</ele><time>2026-04-11T09:58:10Z</time></trkpt><trkpt lat="45.01771160156946" lon="7.815055923854112"><ele>301.25</ele><time>2026-04-11T09:58:11Z</time></trkpt><trkpt lat="45.017770223859294" lon="7.814881051106353"><ele>301.5</ele><time>2026-04-11T09:58:12Z</time></trkpt><trkpt lat="45.01784798220876" lon="7.81471772672755"><ele>301.75</ele><time>2026-04-11T09:58:13Z</time></trkpt><trkpt lat="45.01793312805434" lon="7.814569832946911"><ele>302.0</ele><time>2026-04-11T09:58:14Z</time></trkpt><trkpt lat="45.01803018439968" lon="7.81440596876519"><ele>302.25</ele><time>2026-04-11T09:58:15Z</time></trkpt><trkpt lat="45.01813388133005" lon="7.814245174657789"><ele>302.5</ele><time>2026-04-11T09:58:16Z</time></trkpt><trkpt lat="45.01822713162966" lon="7.814100014690781"><ele>302.75</ele><time>2026-04-11T09:58:17Z</time></trkpt><trkpt lat="45.01831539314521" lon="7.813966967627715"><ele>303.0</ele><time>2026-04-11T09:58:18Z</time></trkpt><trkpt lat="45.01840087964591" lon="7.813837252045723"><ele>303.2</ele><time>2026-04-11T09:58:19Z</time></trkpt><trkpt lat="45.01848229820398" lon="7.813704365170436"><ele>303.4</ele><time>2026-04-11T09:58:20Z</time></trkpt><trkpt lat="45.018561525417404" lon="7.813582519120965"><ele>303.59999999999997</ele><time>2026-04-11T09:58:21Z</time></trkpt><trkpt lat="45.01863267792098" lon="7.81347407550123"><ele>303.8</ele><time>2026-04-11T09:58:22Z</time></trkpt><trkpt lat="45.01869710919964" lon="7.813375929882949"><ele>304.0</ele><time>2026-04-11T09:58:23Z</time></trkpt><trkpt lat="45.01875072170111" lon="7.813292355624744"><ele>304.0</ele><time>2026-04-11T09:58:24Z</time></trkpt><trkpt lat="45.0187949512049" lon="7.813220762229922"><ele>304.0</ele><time>2026-04-11T09:58:25Z</time></trkpt><trkpt lat="45.018849037977965" lon="7.8131470350551435"><ele>304.0</ele><time>2026-04-11T09:58:27.001Z</time></trkpt><trkpt lat="45.01896169852953" lon="7.812981790644941"><ele>304.0</ele><time>2026-04-11T09:58:45Z</time></trkpt><trkpt lat="45.01902649418565" lon="7.812886271369097"><ele>304.0</ele><time>2026-04-11T09:58:46Z</time></trkpt><trkpt lat="45.019106683877624" lon="7.812770489830129"><ele>305.0</ele><time>2026-04-11T09:58:47Z</time></trkpt><trkpt lat="45.019202420444174" lon="7.812624644242742"><ele>306.0</ele><time>2026-04-11T09:58:48Z</time></trkpt><trkpt lat="45.019292317711226" lon="7.812484945844373"><ele>307.0</ele><time>2026-04-11T09:58:49Z</time></trkpt><trkpt lat="45.019387430807846" lon="7.81234339764481"><ele>308.0</ele><time>2026-04-11T09:58:50Z</time></trkpt><trkpt lat="45.019478254915875" lon="7.8122017731758495"><ele>308.0</ele><time>2026-04-11T09:58:51Z</time></trkpt><trkpt lat="45.01955678729952" lon="7.8120839097316965"><ele>308.0</ele><time>2026-04-11T09:58:52Z</time></trkpt><trkpt lat="45.01963160780544" lon="7.811970790457565"><ele>308.0</ele><time>2026-04-11T09:58:53Z</time></trkpt><trkpt lat="45.01970870303085" lon="7.8118502695205665"><ele>308.0</ele><time>2026-04-11T09:58:54Z</time></trkpt><trkpt lat="45.0197955367876" lon="7.811722584311166"><ele>307.6666666666667</ele><time>2026-04-11T09:58:55Z</time></trkpt><trkpt lat="45.01988989627534" lon="7.811585325309314"><ele>307.3333333333333</ele><time>2026-04-11T09:58:56Z</time></trkpt><trkpt lat="45.019983913911986" lon="7.811443328594644"><ele>307.0</ele><time>2026-04-11T09:58:57Z</time></trkpt><trkpt lat="45.020186251316424" lon="7.811134608829846"><ele>307.0</ele><time>2026-04-11T09:58:59Z</time></trkpt><trkpt lat="45.020282773899915" lon="7.810982863607365"><ele>307.0</ele><time>2026-04-11T09:59:00Z</time></trkpt><trkpt lat="45.020385369365606" lon="7.8108266515220555"><ele>307.0</ele><time>2026-04-11T09:59:01Z</time></trkpt><trkpt lat="45.020488380538325" lon="7.8106666316808155"><ele>307.0</ele><time>2026-04-11T09:59:02Z</time></trkpt><trkpt lat="45.020598603204924" lon="7.810504572748135"><ele>307.0</ele><time>2026-04-11T09:59:03Z</time></trkpt><trkpt lat="45.02070585503836" lon="7.8103429241527405"><ele>307.0</ele><time>2026-04-11T09:59:04Z</time></trkpt><trkpt lat="45.020812293905045" lon="7.810186168073994"><ele>307.0</ele><time>2026-04-11T09:59:05Z</time></trkpt><trkpt lat="45.02091263918334" lon="7.810028179504845"><ele>307.3333333333333</ele><time>2026-04-11T09:59:06Z</time></trkpt><trkpt lat="45.021013690247976" lon="7.809872464914666"><ele>307.6666666666667</ele><time>2026-04-11T09:59:07Z</time></trkpt><trkpt lat="45.02111563764918" lon="7.809716290140131"><ele>308.0</ele><time>2026-04-11T09:59:08Z</time></trkpt><trkpt lat="45.021218912941755" lon="7.809560120716613"><ele>308.0</ele><time>2026-04-11T09:59:09Z</time></trkpt><trkpt lat="45.02131762624368" lon="7.809405911149741"><ele>308.0</ele><time>2026-04-11T09:59:10Z</time></trkpt><trkpt lat="45.021421571276676" lon="7.809248891180208"><ele>308.0</ele><time>2026-04-11T09:59:11Z</time></trkpt><trkpt lat="45.02152502377219" lon="7.809091787946845"><ele>308.33333333333337</ele><time>2026-04-11T09:59:12Z</time></trkpt><trkpt lat="45.02163371690231" lon="7.808926414661298"><ele>308.6666666666667</ele><time>2026-04-11T09:59:13Z</time></trkpt><trkpt lat="45.021745567121535" lon="7.808758845604824"><ele>309.0</ele><time>2026-04-11T09:59:14Z</time></trkpt><trkpt lat="45.021858778511415" lon="7.80858854850111"><ele>308.0</ele><time>2026-04-11T09:59:15Z</time></trkpt><trkpt lat="45.021974289732796" lon="7.808413471646501"><ele>307.0</ele><time>2026-04-11T09:59:16Z</time></trkpt><trkpt lat="45.02209046630857" lon="7.808241926887207"><ele>306.0</ele><time>2026-04-11T09:59:17Z</time></trkpt><trkpt lat="45.02220194974594" lon="7.808067563266655"><ele>306.0</ele><time>2026-04-11T09:59:18Z</time></trkpt><trkpt lat="45.02232025712853" lon="7.807893549431712"><ele>306.0</ele><time>2026-04-11T09:59:19Z</time></trkpt><trkpt lat="45.02243513197879" lon="7.807717470297918"><ele>306.0</ele><time>2026-04-11T09:59:20Z</time></trkpt><trkpt lat="45.02254896936047" lon="7.80754368602235"><ele>306.6666666666667</ele><time>2026-04-11T09:59:21Z</time></trkpt><trkpt lat="45.022661680827255" lon="7.80737557215057"><ele>307.33333333333337</ele><time>2026-04-11T09:59:22Z</time></trkpt><trkpt lat="45.02277674137778" lon="7.8072042233185"><ele>308.0</ele><time>2026-04-11T09:59:23Z</time></trkpt><trkpt lat="45.02289027432866" lon="7.80703466219665"><ele>308.0</ele><time>2026-04-11T09:59:24Z</time></trkpt><trkpt lat="45.0230009324558" lon="7.806868102225875"><ele>308.0</ele><time>2026-04-11T09:59:25Z</time></trkpt><trkpt lat="45.02311359076384" lon="7.806699330347229"><ele>308.0</ele><time>2026-04-11T09:59:26Z</time></trkpt><trkpt lat="45.02322553484133" lon="7.806532877344258"><ele>308.6666666666667</ele><time>2026-04-11T09:59:27Z</time></trkpt><trkpt lat="45.023335954463484" lon="7.8063652565280615"><ele>309.3333333333333</ele><time>2026-04-11T09:59:28Z</time></trkpt><trkpt lat="45.02344586164779" lon="7.806194446594518"><ele>310.0</ele><time>2026-04-11T09:59:29Z</time></trkpt><trkpt lat="45.02355541220295" lon="7.8060256602353935"><ele>311.3333333333333</ele><time>2026-04-11T09:59:30Z</time></trkpt><trkpt lat="45.02366348602496" lon="7.805866641285128"><ele>312.6666666666667</ele><time>2026-04-11T09:59:31Z</time></trkpt><trkpt lat="45.02376790687037" lon="7.80570231894028"><ele>314.0</ele><time>2026-04-11T09:59:32Z</time></trkpt><trkpt lat="45.02386985677946" lon="7.805540458224152"><ele>314.0</ele><time>2026-04-11T09:59:33Z</time></trkpt><trkpt lat="45.02397717625921" lon="7.805361027009369"><ele>314.0</ele><time>2026-04-11T09:59:34Z</time></trkpt><trkpt lat="45.0241042642858" lon="7.805195754341023"><ele>314.0</ele><time>2026-04-11T09:59:35Z</time></trkpt><trkpt lat="45.02421123548863" lon="7.805030786359117"><ele>315.25</ele><time>2026-04-11T09:59:36Z</time></trkpt><trkpt lat="45.0242982962254" lon="7.804862667423385"><ele>316.5</ele><time>2026-04-11T09:59:37Z</time></trkpt><trkpt lat="45.02439673147376" lon="7.804717037579221"><ele>317.75</ele><time>2026-04-11T09:59:38Z</time></trkpt><trkpt lat="45.02449502513922" lon="7.8045974988812645"><ele>319.0</ele><time>2026-04-11T09:59:39Z</time></trkpt><trkpt lat="45.024590977630474" lon="7.804452683637243"><ele>321.3333333333333</ele><time>2026-04-11T09:59:40Z</time></trkpt><trkpt lat="45.024695439976945" lon="7.804295615185566"><ele>323.6666666666667</ele><time>2026-04-11T09:59:41Z</time></trkpt><trkpt lat="45.02481247423958" lon="7.804119644672266"><ele>326.0</ele><time>2026-04-11T09:59:42Z</time></trkpt><trkpt lat="45.024933039048875" lon="7.803934748248384"><ele>326.33333333333337</ele><time>2026-04-11T09:59:43Z</time></trkpt><trkpt lat="45.025048883529024" lon="7.803754707422654"><ele>326.6666666666667</ele><time>2026-04-11T09:59:44Z</time></trkpt><trkpt lat="45.025161583021394" lon="7.803580763080782"><ele>327.0</ele><time>2026-04-11T09:59:45Z</time></trkpt><trkpt lat="45.025264417726355" lon="7.803424982178595"><ele>327.0</ele><time>2026-04-11T09:59:46Z</time></trkpt><trkpt lat="45.025346411479944" lon="7.8032707941756785"><ele>327.0</ele><time>2026-04-11T09:59:47Z</time></trkpt><trkpt lat="45.02543434900245" lon="7.803147489821076"><ele>327.0</ele><time>2026-04-11T09:59:48Z</time></trkpt><trkpt lat="45.02550347679304" lon="7.803045931416377"><ele>327.0</ele><time>2026-04-11T09:59:49Z</time></trkpt><trkpt lat="45.025553975860475" lon="7.802966250808069"><ele>327.0</ele><time>2026-04-11T09:59:50Z</time></trkpt><trkpt lat="45.025628485160674" lon="7.802888757633532"><ele>327.0</ele><time>2026-04-11T09:59:52Z</time></trkpt><trkpt lat="45.02569387400417" lon="7.802761867703828"><ele>327.0</ele><time>2026-04-11T10:00:04Z</time></trkpt><trkpt lat="45.0257713887228" lon="7.802678267484934"><ele>327.0</ele><time>2026-04-11T10:00:05Z</time></trkpt><trkpt lat="45.02582301528558" lon="7.802568786876783"><ele>327.0</ele><time>2026-04-11T10:00:06Z</time></trkpt><trkpt lat="45.02591367022343" lon="7.802435952275557"><ele>327.0</ele><time>2026-04-11T10:00:07Z</time></trkpt><trkpt lat="45.026018100285555" lon="7.802277995017368"><ele>328.3333333333333</ele><time>2026-04-11T10:00:08Z</time></trkpt><trkpt lat="45.026128656715564" lon="7.802119330303015"><ele>329.66666666666663</ele><time>2026-04-11T10:00:09Z</time></trkpt><trkpt lat="45.02625024715832" lon="7.801940070536547"><ele>331.0</ele><time>2026-04-11T10:00:10Z</time></trkpt><trkpt lat="45.026374696434154" lon="7.801747814742821"><ele>331.66666666666663</ele><time>2026-04-11T10:00:11Z</time></trkpt><trkpt lat="45.026494010341956" lon="7.801561987165431"><ele>332.3333333333333</ele><time>2026-04-11T10:00:12Z</time></trkpt><trkpt lat="45.02659842702015" lon="7.801400738252199"><ele>333.0</ele><time>2026-04-11T10:00:13Z</time></trkpt><trkpt lat="45.02669311419389" lon="7.801255657872303"><ele>333.25</ele><time>2026-04-11T10:00:14Z</time></trkpt><trkpt lat="45.02678497378906" lon="7.801132399635585"><ele>333.5</ele><time>2026-04-11T10:00:15Z</time></trkpt><trkpt lat="45.02687874810085" lon="7.8010358306365255"><ele>333.75</ele><time>2026-04-11T10:00:16Z</time></trkpt><trkpt lat="45.02696779771764" lon="7.80095951450091"><ele>334.0</ele><time>2026-04-11T10:00:17Z</time></trkpt><trkpt lat="45.02707643092608" lon="7.800866121769813"><ele>335.3333333333333</ele><time>2026-04-11T10:00:18Z</time></trkpt><trkpt lat="45.027215168501876" lon="7.800778786685854"><ele>336.6666666666667</ele><time>2026-04-11T10:00:19Z</time></trkpt><trkpt lat="45.02735929070008" lon="7.8006701328816614"><ele>338.0</ele><time>2026-04-11T10:00:20Z</time></trkpt><trkpt lat="45.02728259672341" lon="7.800366804070533"><ele>338.0</ele><time>2026-04-11T10:00:21Z</time></trkpt><trkpt lat="45.0273940106975" lon="7.800187964848626"><ele>338.0</ele><time>2026-04-11T10:00:22Z</time></trkpt><trkpt lat="45.027510753883426" lon="7.800000180894956"><ele>338.0</ele><time>2026-04-11T10:00:23Z</time></trkpt><trkpt lat="45.02762445855452" lon="7.799826613948037"><ele>339.33333333333337</ele><time>2026-04-11T10:00:24Z</time></trkpt><trkpt lat="45.027726350033156" lon="7.799668949728153"><ele>340.6666666666667</ele><time>2026-04-11T10:00:25Z</time></trkpt><trkpt lat="45.02783056964975" lon="7.799514939504557"><ele>342.0</ele><time>2026-04-11T10:00:26Z</time></trkpt><trkpt lat="45.02793457578443" lon="7.7993537633977255"><ele>344.0</ele><time>2026-04-11T10:00:27Z</time></trkpt><trkpt lat="45.02803404834376" lon="7.799203656783734"><ele>346.0</ele><time>2026-04-11T10:00:28Z</time></trkpt><trkpt lat="45.02812246981096" lon="7.799072426627498"><ele>348.0</ele><time>2026-04-11T10:00:29Z</time></trkpt><trkpt lat="45.0281961981323" lon="7.798958416221651"><ele>350.0</ele><time>2026-04-11T10:00:30Z</time></trkpt><trkpt lat="45.02826189115609" lon="7.798862093453916"><ele>349.0</ele><time>2026-04-11T10:00:31Z</time></trkpt><trkpt lat="45.028340378652516" lon="7.798800087526281"><ele>348.0</ele><time>2026-04-11T10:00:32Z</time></trkpt><trkpt lat="45.02842161965668" lon="7.798772009507702"><ele>347.0</ele><time>2026-04-11T10:00:33Z</time></trkpt><trkpt lat="45.02850171910394" lon="7.798765545481313"><ele>346.0</ele><time>2026-04-11T10:00:34Z</time></trkpt><trkpt lat="45.028573868418896" lon="7.798767826857"><ele>345.0</ele><time>2026-04-11T10:00:35Z</time></trkpt><trkpt lat="45.0286348363384" lon="7.7987221357197365"><ele>344.0</ele><time>2026-04-11T10:00:36Z</time></trkpt><trkpt lat="45.02869845054244" lon="7.798515495226261"><ele>346.25</ele><time>2026-04-11T10:00:38Z</time></trkpt><trkpt lat="45.028703179014165" lon="7.798381879479585"><ele>348.5</ele><time>2026-04-11T10:00:39Z</time></trkpt><trkpt lat="45.02870429801013" lon="7.7982011997193945"><ele>350.75</ele><time>2026-04-11T10:00:40Z</time></trkpt><trkpt lat="45.02874318668305" lon="7.797999419665969"><ele>353.0</ele><time>2026-04-11T10:00:41Z</time></trkpt><trkpt lat="45.02883181210744" lon="7.797804116340917"><ele>353.6666666666667</ele><time>2026-04-11T10:00:42Z</time></trkpt><trkpt lat="45.02897186550688" lon="7.797568635725515"><ele>354.3333333333333</ele><time>2026-04-11T10:00:43Z</time></trkpt><trkpt lat="45.02909713779263" lon="7.797323637777374"><ele>355.0</ele><time>2026-04-11T10:00:44Z</time></trkpt><trkpt lat="45.02921818528495" lon="7.797076008262828"><ele>357.0</ele><time>2026-04-11T10:00:45Z</time></trkpt><trkpt lat="45.029352203109134" lon="7.79680821009282"><ele>359.0</ele><time>2026-04-11T10:00:46Z</time></trkpt><trkpt lat="45.02947309306538" lon="7.796567593519062"><ele>361.0</ele><time>2026-04-11T10:00:47Z</time></trkpt><trkpt lat="45.029587796656834" lon="7.796339076024174"><ele>361.0</ele><time>2026-04-11T10:00:48Z</time></trkpt><trkpt lat="45.029701353347576" lon="7.7961130073398195"><ele>361.0</ele><time>2026-04-11T10:00:49Z</time></trkpt><trkpt lat="45.029812818410235" lon="7.795886293003818"><ele>361.0</ele><time>2026-04-11T10:00:50Z</time></trkpt><trkpt lat="45.02992700107516" lon="7.795661436805943"><ele>363.0</ele><time>2026-04-11T10:00:51Z</time></trkpt><trkpt lat="45.030040666491495" lon="7.7954343181373345"><ele>365.0</ele><time>2026-04-11T10:00:52Z</time></trkpt><trkpt lat="45.03014841629939" lon="7.795214369777261"><ele>367.0</ele><time>2026-04-11T10:00:53Z</time></trkpt><trkpt lat="45.03025271608636" lon="7.79499949958763"><ele>369.0</ele><time>2026-04-11T10:00:54Z</time></trkpt><trkpt lat="45.03035999648112" lon="7.794781733665604"><ele>371.0</ele><time>2026-04-11T10:00:55Z</time></trkpt><trkpt lat="45.030465282040524" lon="7.794562859111808"><ele>373.0</ele><time>2026-04-11T10:00:56Z</time></trkpt><trkpt lat="45.030568333371704" lon="7.794355524754389"><ele>374.3333333333333</ele><time>2026-04-11T10:00:57Z</time></trkpt><trkpt lat="45.03068422508182" lon="7.7941776319298715"><ele>375.6666666666667</ele><time>2026-04-11T10:00:58Z</time></trkpt><trkpt lat="45.03076693367773" lon="7.793983006795744"><ele>377.0</ele><time>2026-04-11T10:00:59Z</time></trkpt><trkpt lat="45.030856700405444" lon="7.7938159058242595"><ele>377.0</ele><time>2026-04-11T10:01:00Z</time></trkpt><trkpt lat="45.03093302699838" lon="7.793662650467353"><ele>377.0</ele><time>2026-04-11T10:01:01Z</time></trkpt><trkpt lat="45.0310065461993" lon="7.793511590472513"><ele>377.0</ele><time>2026-04-11T10:01:02Z</time></trkpt><trkpt lat="45.03107546794099" lon="7.793373053331806"><ele>377.0</ele><time>2026-04-11T10:01:03Z</time></trkpt><trkpt lat="45.03114007004309" lon="7.793241672140054"><ele>378.5</ele><time>2026-04-11T10:01:04Z</time></trkpt><trkpt lat="45.03119712479342" lon="7.793131233328235"><ele>380.0</ele><time>2026-04-11T10:01:05Z</time></trkpt><trkpt lat="45.031248927038725" lon="7.793030880619342"><ele>381.5</ele><time>2026-04-11T10:01:06Z</time></trkpt><trkpt lat="45.03129450266489" lon="7.792940152389855"><ele>383.0</ele><time>2026-04-11T10:01:07Z</time></trkpt><trkpt lat="45.03133821184126" lon="7.792844800197474"><ele>384.49999999999994</ele><time>2026-04-11T10:01:08Z</time></trkpt><trkpt lat="45.0313962823425" lon="7.792723613387638"><ele>386.0</ele><time>2026-04-11T10:01:09Z</time></trkpt><trkpt lat="45.03147484087449" lon="7.792601754243085"><ele>386.4</ele><time>2026-04-11T10:01:10Z</time></trkpt><trkpt lat="45.03152744053971" lon="7.792448618476334"><ele>386.8</ele><time>2026-04-11T10:01:11Z</time></trkpt><trkpt lat="45.03159069598858" lon="7.792315998406381"><ele>387.2</ele><time>2026-04-11T10:01:12Z</time></trkpt><trkpt lat="45.03164607832184" lon="7.792201598344409"><ele>387.59999999999997</ele><time>2026-04-11T10:01:13Z</time></trkpt><trkpt lat="45.03170472267567" lon="7.792082188067874"><ele>388.0</ele><time>2026-04-11T10:01:14Z</time></trkpt><trkpt lat="45.03177109093819" lon="7.791958326320565"><ele>387.0</ele><time>2026-04-11T10:01:15Z</time></trkpt><trkpt lat="45.03184170376794" lon="7.791827845170629"><ele>386.0</ele><time>2026-04-11T10:01:16Z</time></trkpt><trkpt lat="45.03193678419432" lon="7.791686763535462"><ele>385.0</ele><time>2026-04-11T10:01:17Z</time></trkpt><trkpt lat="45.032017102714626" lon="7.791508185068884"><ele>384.0</ele><time>2026-04-11T10:01:18Z</time></trkpt><trkpt lat="45.032113386287655" lon="7.791356710958173"><ele>384.0</ele><time>2026-04-11T10:01:19Z</time></trkpt><trkpt lat="45.032205555936606" lon="7.79122889117968"><ele>384.0</ele><time>2026-04-11T10:01:20Z</time></trkpt><trkpt lat="45.03229130243756" lon="7.791118805588831"><ele>384.0</ele><time>2026-04-11T10:01:21Z</time></trkpt><trkpt lat="45.03237365118635" lon="7.791027359575992"><ele>384.0</ele><time>2026-04-11T10:01:22Z</time></trkpt><trkpt lat="45.032454607657755" lon="7.790948189667203"><ele>384.0</ele><time>2026-04-11T10:01:23Z</time></trkpt><trkpt lat="45.0325305185614" lon="7.790875881848038"><ele>383.5</ele><time>2026-04-11T10:01:24Z</time></trkpt><trkpt lat="45.03260298883349" lon="7.790809581106439"><ele>383.0</ele><time>2026-04-11T10:01:25Z</time></trkpt><trkpt lat="45.03269134638848" lon="7.790732569449559"><ele>382.5</ele><time>2026-04-11T10:01:26Z</time></trkpt><trkpt lat="45.03280464141071" lon="7.790645543216975"><ele>382.0</ele><time>2026-04-11T10:01:27Z</time></trkpt><trkpt lat="45.03292952274201" lon="7.790565049534633"><ele>382.0</ele><time>2026-04-11T10:01:28Z</time></trkpt><trkpt lat="45.03304824667541" lon="7.790492253159277"><ele>382.0</ele><time>2026-04-11T10:01:29Z</time></trkpt><trkpt lat="45.03314935242553" lon="7.790433038818999"><ele>382.0</ele><time>2026-04-11T10:01:30Z</time></trkpt><trkpt lat="45.03323853729142" lon="7.790380162454054"><ele>382.0</ele><time>2026-04-11T10:01:31Z</time></trkpt><trkpt lat="45.0333134555637" lon="7.7903296532871025"><ele>382.0</ele><time>2026-04-11T10:01:32Z</time></trkpt><trkpt lat="45.033382570632654" lon="7.790282086890061"><ele>381.8</ele><time>2026-04-11T10:01:33Z</time></trkpt><trkpt lat="45.03346045005386" lon="7.790233424762684"><ele>381.6</ele><time>2026-04-11T10:01:34Z</time></trkpt><trkpt lat="45.03354907192764" lon="7.7901749523087025"><ele>381.40000000000003</ele><time>2026-04-11T10:01:35Z</time></trkpt><trkpt lat="45.03364637252997" lon="7.790111891333525"><ele>381.20000000000005</ele><time>2026-04-11T10:01:36Z</time></trkpt><trkpt lat="45.03374095303728" lon="7.790048482775014"><ele>381.0</ele><time>2026-04-11T10:01:37Z</time></trkpt><trkpt lat="45.0338245097058" lon="7.7899906169466435"><ele>381.0</ele><time>2026-04-11T10:01:38Z</time></trkpt><trkpt lat="45.033914058509204" lon="7.789931412401702"><ele>381.0</ele><time>2026-04-11T10:01:39Z</time></trkpt><trkpt lat="45.03401141433987" lon="7.789863850729493"><ele>381.0</ele><time>2026-04-11T10:01:40Z</time></trkpt><trkpt lat="45.03413254664054" lon="7.789774386160419"><ele>381.0</ele><time>2026-04-11T10:01:41Z</time></trkpt><trkpt lat="45.03427592363454" lon="7.789677283448486"><ele>381.0</ele><time>2026-04-11T10:01:42Z</time></trkpt><trkpt lat="45.03444025022878" lon="7.7895734323617996"><ele>381.0</ele><time>2026-04-11T10:01:43Z</time></trkpt><trkpt lat="45.03460196781432" lon="7.789469313325829"><ele>381.0</ele><time>2026-04-11T10:01:44Z</time></trkpt><trkpt lat="45.03476980499691" lon="7.78936165412966"><ele>380.3333333333333</ele><time>2026-04-11T10:01:45Z</time></trkpt><trkpt lat="45.03494650050189" lon="7.789244949423298"><ele>379.66666666666663</ele><time>2026-04-11T10:01:46Z</time></trkpt><trkpt lat="45.03512836845687" lon="7.789128797737099"><ele>379.0</ele><time>2026-04-11T10:01:47Z</time></trkpt><trkpt lat="45.03530651921479" lon="7.789019730762352"><ele>380.66666666666663</ele><time>2026-04-11T10:01:48Z</time></trkpt><trkpt lat="45.035481902301356" lon="7.788913807698397"><ele>382.3333333333333</ele><time>2026-04-11T10:01:49Z</time></trkpt><trkpt lat="45.03564867061857" lon="7.78880946938856"><ele>384.0</ele><time>2026-04-11T10:01:50Z</time></trkpt><trkpt lat="45.03581422800396" lon="7.788700299434313"><ele>385.0</ele><time>2026-04-11T10:01:51Z</time></trkpt><trkpt lat="45.035976539075065" lon="7.788582128583041"><ele>386.0</ele><time>2026-04-11T10:01:52Z</time></trkpt><trkpt lat="45.0361355314062" lon="7.788457039694558"><ele>387.0</ele><time>2026-04-11T10:01:53Z</time></trkpt><trkpt lat="45.03629077201813" lon="7.78832435840254"><ele>387.0</ele><time>2026-04-11T10:01:54Z</time></trkpt><trkpt lat="45.036435355551475" lon="7.788193251065135"><ele>387.0</ele><time>2026-04-11T10:01:55Z</time></trkpt><trkpt lat="45.03657500545149" lon="7.788054115259612"><ele>387.0</ele><time>2026-04-11T10:01:56Z</time></trkpt><trkpt lat="45.036705708108386" lon="7.78790522496539"><ele>388.66666666666663</ele><time>2026-04-11T10:01:57Z</time></trkpt><trkpt lat="45.036829009349155" lon="7.787742283454877"><ele>390.3333333333333</ele><time>2026-04-11T10:01:58Z</time></trkpt><trkpt lat="45.0369393525334" lon="7.787577703719822"><ele>392.0</ele><time>2026-04-11T10:01:59Z</time></trkpt><trkpt lat="45.03704331417443" lon="7.787432586790994"><ele>392.20000000000005</ele><time>2026-04-11T10:02:00Z</time></trkpt><trkpt lat="45.03713895424355" lon="7.787307727751202"><ele>392.4</ele><time>2026-04-11T10:02:01Z</time></trkpt><trkpt lat="45.03722515857322" lon="7.787207760946057"><ele>392.6</ele><time>2026-04-11T10:02:02Z</time></trkpt><trkpt lat="45.03730426032113" lon="7.787139203150535"><ele>392.79999999999995</ele><time>2026-04-11T10:02:03Z</time></trkpt><trkpt lat="45.037380407324484" lon="7.787107228367196"><ele>393.0</ele><time>2026-04-11T10:02:04Z</time></trkpt><trkpt lat="45.0374639370433" lon="7.787089485361829"><ele>394.0</ele><time>2026-04-11T10:02:05Z</time></trkpt><trkpt lat="45.03754766413843" lon="7.787073212660432"><ele>395.0</ele><time>2026-04-11T10:02:06Z</time></trkpt><trkpt lat="45.037603508700315" lon="7.787030532741901"><ele>396.0</ele><time>2026-04-11T10:02:07Z</time></trkpt><trkpt lat="45.03764091986515" lon="7.7869397502818085"><ele>397.0</ele><time>2026-04-11T10:02:08Z</time></trkpt><trkpt lat="45.037648539794205" lon="7.78681705584559"><ele>398.0</ele><time>2026-04-11T10:02:09Z</time></trkpt><trkpt lat="45.037667390281776" lon="7.78651521736549"><ele>398.25</ele><time>2026-04-11T10:02:11Z</time></trkpt><trkpt lat="45.03772316001682" lon="7.786365349767684"><ele>398.5</ele><time>2026-04-11T10:02:12Z</time></trkpt><trkpt lat="45.03782083024596" lon="7.786242687346406"><ele>398.75</ele><time>2026-04-11T10:02:13Z</time></trkpt><trkpt lat="45.03789575818307" lon="7.786110532170576"><ele>399.0</ele><time>2026-04-11T10:02:14Z</time></trkpt><trkpt lat="45.037962516681745" lon="7.785959154521133"><ele>398.25</ele><time>2026-04-11T10:02:15Z</time></trkpt><trkpt lat="45.038044154313624" lon="7.785812490327527"><ele>397.5</ele><time>2026-04-11T10:02:16Z</time></trkpt><trkpt lat="45.0381412945354" lon="7.785677463898459"><ele>396.75</ele><time>2026-04-11T10:02:17Z</time></trkpt><trkpt lat="45.038235275126674" lon="7.785511704273634"><ele>396.0</ele><time>2026-04-11T10:02:18Z</time></trkpt><trkpt lat="45.03833798269012" lon="7.785330552268947"><ele>398.33333333333337</ele><time>2026-04-11T10:02:19Z</time></trkpt><trkpt lat="45.038451999357896" lon="7.785129453762286"><ele>400.6666666666667</ele><time>2026-04-11T10:02:20Z</time></trkpt><trkpt lat="45.03856513626991" lon="7.784929908748762"><ele>403.0</ele><time>2026-04-11T10:02:21Z</time></trkpt><trkpt lat="45.03866097579175" lon="7.784727440816095"><ele>403.0</ele><time>2026-04-11T10:02:22Z</time></trkpt><trkpt lat="45.038774164572466" lon="7.784528165092962"><ele>403.0</ele><time>2026-04-11T10:02:23Z</time></trkpt><trkpt lat="45.038889118067225" lon="7.784329069508032"><ele>403.0</ele><time>2026-04-11T10:02:24Z</time></trkpt><trkpt lat="45.03900290923873" lon="7.784135924256272"><ele>402.6666666666667</ele><time>2026-04-11T10:02:25Z</time></trkpt><trkpt lat="45.03911794963801" lon="7.783939456059269"><ele>402.33333333333337</ele><time>2026-04-11T10:02:26Z</time></trkpt><trkpt lat="45.039221984097246" lon="7.783741091675751"><ele>402.0</ele><time>2026-04-11T10:02:27Z</time></trkpt><trkpt lat="45.039343153409334" lon="7.7835626753171825"><ele>405.33333333333337</ele><time>2026-04-11T10:02:28Z</time></trkpt><trkpt lat="45.03945786861978" lon="7.783358828902719"><ele>408.6666666666667</ele><time>2026-04-11T10:02:29Z</time></trkpt><trkpt lat="45.039558893952105" lon="7.783145381798872"><ele>412.0</ele><time>2026-04-11T10:02:30Z</time></trkpt><trkpt lat="45.039675112535875" lon="7.78294502447952"><ele>412.0</ele><time>2026-04-11T10:02:31Z</time></trkpt><trkpt lat="45.03978568584123" lon="7.782745472509409"><ele>412.0</ele><time>2026-04-11T10:02:32Z</time></trkpt><trkpt lat="45.04003329254302" lon="7.782328396153583"><ele>414.25</ele><time>2026-04-11T10:02:34Z</time></trkpt><trkpt lat="45.040093386011655" lon="7.78219712652814"><ele>416.5</ele><time>2026-04-11T10:02:35Z</time></trkpt><trkpt lat="45.0401684914605" lon="7.78203693662267"><ele>418.75</ele><time>2026-04-11T10:02:36Z</time></trkpt><trkpt lat="45.04022847665483" lon="7.781876493332674"><ele>421.0</ele><time>2026-04-11T10:02:37Z</time></trkpt><trkpt lat="45.040286805214706" lon="7.7817031587273595"><ele>421.0</ele><time>2026-04-11T10:02:38Z</time></trkpt><trkpt lat="45.040379839545764" lon="7.781378254325051"><ele>421.0</ele><time>2026-04-11T10:02:40Z</time></trkpt><trkpt lat="45.040403969801474" lon="7.781244573945673"><ele>421.0</ele><time>2026-04-11T10:02:41Z</time></trkpt><trkpt lat="45.040419249767425" lon="7.781129863705121"><ele>421.0</ele><time>2026-04-11T10:02:42Z</time></trkpt><trkpt lat="45.04044736671327" lon="7.7809838924305135"><ele>420.6</ele><time>2026-04-11T10:02:44Z</time></trkpt><trkpt lat="45.040459587472455" lon="7.780889051556016"><ele>420.20000000000005</ele><time>2026-04-11T10:02:46Z</time></trkpt><trkpt lat="45.040487324093796" lon="7.780726591095447"><ele>419.79999999999995</ele><time>2026-04-11T10:03:09Z</time></trkpt><trkpt lat="45.04050474883284" lon="7.7805925917904535"><ele>419.4</ele><time>2026-04-11T10:03:10Z</time></trkpt><trkpt lat="45.04051399598438" lon="7.780443828403234"><ele>419.0</ele><time>2026-04-11T10:03:11Z</time></trkpt><trkpt lat="45.040508113282655" lon="7.780243118449167"><ele>419.3333333333333</ele><time>2026-04-11T10:03:12Z</time></trkpt><trkpt lat="45.04051723500671" lon="7.780009916259134"><ele>419.66666666666663</ele><time>2026-04-11T10:03:13Z</time></trkpt><trkpt lat="45.04052768771712" lon="7.779741655779607"><ele>420.0</ele><time>2026-04-11T10:03:14Z</time></trkpt><trkpt lat="45.040521068845294" lon="7.779466165644143"><ele>419.66666666666663</ele><time>2026-04-11T10:03:15Z</time></trkpt><trkpt lat="45.04050931739728" lon="7.779204061198253"><ele>419.3333333333333</ele><time>2026-04-11T10:03:16Z</time></trkpt><trkpt lat="45.04050323927914" lon="7.77895402014231"><ele>419.0</ele><time>2026-04-11T10:03:17Z</time></trkpt><trkpt lat="45.04050053302229" lon="7.778697761697305"><ele>419.3333333333333</ele><time>2026-04-11T10:03:18Z</time></trkpt><trkpt lat="45.04049989128379" lon="7.778438695574663"><ele>419.66666666666663</ele><time>2026-04-11T10:03:19Z</time></trkpt><trkpt lat="45.04049964483348" lon="7.778174018824303"><ele>420.0</ele><time>2026-04-11T10:03:20Z</time></trkpt><trkpt lat="45.0404957610989" lon="7.777908002849904"><ele>421.66666666666663</ele><time>2026-04-11T10:03:21Z</time></trkpt><trkpt lat="45.04049244304909" lon="7.7776399089915955"><ele>423.3333333333333</ele><time>2026-04-11T10:03:22Z</time></trkpt><trkpt lat="45.04049048853798" lon="7.777367219739008"><ele>425.0</ele><time>2026-04-11T10:03:23Z</time></trkpt><trkpt lat="45.04048117282846" lon="7.777098040061218"><ele>428.0</ele><time>2026-04-11T10:03:24Z</time></trkpt><trkpt lat="45.04047314551761" lon="7.77684209734696"><ele>431.0</ele><time>2026-04-11T10:03:25Z</time></trkpt><trkpt lat="45.04046869843577" lon="7.776581985085901"><ele>434.0</ele><time>2026-04-11T10:03:26Z</time></trkpt><trkpt lat="45.04046602145432" lon="7.7763284174272"><ele>434.0</ele><time>2026-04-11T10:03:27Z</time></trkpt><trkpt lat="45.040468294589765" lon="7.776092817985352"><ele>434.0</ele><time>2026-04-11T10:03:28Z</time></trkpt><trkpt lat="45.04048655582572" lon="7.775854022150291"><ele>434.0</ele><time>2026-04-11T10:03:29Z</time></trkpt><trkpt lat="45.040516447334056" lon="7.77561270294121"><ele>434.0</ele><time>2026-04-11T10:03:30Z</time></trkpt><trkpt lat="45.040557746374176" lon="7.775372404118267"><ele>434.0</ele><time>2026-04-11T10:03:31Z</time></trkpt><trkpt lat="45.04061254394621" lon="7.775136939228748"><ele>434.0</ele><time>2026-04-11T10:03:32Z</time></trkpt><trkpt lat="45.04070115495035" lon="7.774932843404293"><ele>435.0</ele><time>2026-04-11T10:03:33Z</time></trkpt><trkpt lat="45.04079019777054" lon="7.774738031979485"><ele>436.0</ele><time>2026-04-11T10:03:34Z</time></trkpt><trkpt lat="45.040891188946816" lon="7.774549649361058"><ele>437.0</ele><time>2026-04-11T10:03:35Z</time></trkpt><trkpt lat="45.04099941516576" lon="7.774357583666366"><ele>440.66666666666663</ele><time>2026-04-11T10:03:36Z</time></trkpt><trkpt lat="45.04112833029037" lon="7.774186101207601"><ele>444.33333333333337</ele><time>2026-04-11T10:03:37Z</time></trkpt><trkpt lat="45.04125808085214" lon="7.774018933873312"><ele>448.0</ele><time>2026-04-11T10:03:38Z</time></trkpt><trkpt lat="45.041389847459584" lon="7.773852651366415"><ele>448.0</ele><time>2026-04-11T10:03:39Z</time></trkpt><trkpt lat="45.04152659042816" lon="7.773686730322437"><ele>448.0</ele><time>2026-04-11T10:03:40Z</time></trkpt><trkpt lat="45.0416648784774" lon="7.773514892853163"><ele>448.0</ele><time>2026-04-11T10:03:41Z</time></trkpt><trkpt lat="45.041799270315245" lon="7.773347724742921"><ele>450.6666666666667</ele><time>2026-04-11T10:03:42Z</time></trkpt><trkpt lat="45.04194314440801" lon="7.773182729471303"><ele>453.33333333333337</ele><time>2026-04-11T10:03:43Z</time></trkpt><trkpt lat="45.042031611087076" lon="7.773051889085011"><ele>456.0</ele><time>2026-04-11T10:03:44Z</time></trkpt><trkpt lat="45.04218248494803" lon="7.772884462289184"><ele>456.0</ele><time>2026-04-11T10:03:45Z</time></trkpt><trkpt lat="45.04231601586867" lon="7.772752229841882"><ele>456.0</ele><time>2026-04-11T10:03:46Z</time></trkpt><trkpt lat="45.042448228739055" lon="7.772609636522757"><ele>456.0</ele><time>2026-04-11T10:03:47Z</time></trkpt><trkpt lat="45.04259173867657" lon="7.772478897732386"><ele>462.33333333333337</ele><time>2026-04-11T10:03:48Z</time></trkpt><trkpt lat="45.04273301746771" lon="7.772347966084794"><ele>468.6666666666667</ele><time>2026-04-11T10:03:49Z</time></trkpt><trkpt lat="45.04284526289185" lon="7.772186150904838"><ele>475.0</ele><time>2026-04-11T10:03:50Z</time></trkpt><trkpt lat="45.04296668555918" lon="7.772031551744879"><ele>475.0</ele><time>2026-04-11T10:03:51Z</time></trkpt><trkpt lat="45.04308847854618" lon="7.771876481244679"><ele>475.0</ele><time>2026-04-11T10:03:52Z</time></trkpt><trkpt lat="45.04321459707555" lon="7.7717173522644565"><ele>475.0</ele><time>2026-04-11T10:03:53Z</time></trkpt><trkpt lat="45.04343212994046" lon="7.771445941753685"><ele>478.0</ele><time>2026-04-11T10:03:54Z</time></trkpt><trkpt lat="45.04357808756927" lon="7.771262750970398"><ele>481.0</ele><time>2026-04-11T10:03:55Z</time></trkpt><trkpt lat="45.043707750392265" lon="7.771099134002972"><ele>484.0</ele><time>2026-04-11T10:03:56Z</time></trkpt><trkpt lat="45.04390082132921" lon="7.770856039064439"><ele>487.0</ele><time>2026-04-11T10:03:57.065Z</time></trkpt><trkpt lat="45.044068314141626" lon="7.770645235053901"><ele>490.0</ele><time>2026-04-11T10:03:58.025Z</time></trkpt><trkpt lat="45.0442064994694" lon="7.770470833952525"><ele>493.0</ele><time>2026-04-11T10:03:59.025Z</time></trkpt><trkpt lat="45.04435753095689" lon="7.770279758126073"><ele>498.33333333333337</ele><time>2026-04-11T10:04:00.026Z</time></trkpt><trkpt lat="45.044502977501196" lon="7.770095936768506"><ele>503.66666666666663</ele><time>2026-04-11T10:04:01.024Z</time></trkpt><trkpt lat="45.04465104462535" lon="7.769908807499147"><ele>509.0</ele><time>2026-04-11T10:04:02.025Z</time></trkpt><trkpt lat="45.04480420434811" lon="7.769716599184949"><ele>509.0</ele><time>2026-04-11T10:04:03.026Z</time></trkpt><trkpt lat="45.04495249837999" lon="7.769530460674524"><ele>509.0</ele><time>2026-04-11T10:04:04.025Z</time></trkpt><trkpt lat="45.04615174007699" lon="7.767837976195734"><ele>510.5</ele><time>2026-04-11T10:04:07.895Z</time></trkpt><trkpt lat="45.046487390150034" lon="7.76741571667847"><ele>512.0</ele><time>2026-04-11T10:04:08.895Z</time></trkpt><trkpt lat="45.04682364951379" lon="7.766995305510175"><ele>505.0</ele><time>2026-04-11T10:04:09.893Z</time></trkpt><trkpt lat="45.04715852466012" lon="7.766571340461088"><ele>498.0</ele><time>2026-04-11T10:04:10.894Z</time></trkpt><trkpt lat="45.04749205674744" lon="7.766144538192648"><ele>487.0</ele><time>2026-04-11T10:04:11.894Z</time></trkpt><trkpt lat="45.047827848512625" lon="7.765723783655067"><ele>476.0</ele><time>2026-04-11T10:04:12.893Z</time></trkpt><trkpt lat="45.048164846967495" lon="7.765304548301924"><ele>458.0</ele><time>2026-04-11T10:04:13.891Z</time></trkpt><trkpt lat="45.0483422" lon="7.7650847"><ele>440.0</ele><time>2026-04-11T10:04:14.891Z</time></trkpt><trkpt lat="45.04973181260392" lon="7.764789184699473"><ele>440.0</ele><time>2026-04-11T10:04:29Z</time></trkpt><trkpt lat="45.04878395997504" lon="7.76475178791141"><ele>440.0</ele><time>2026-04-11T10:04:30Z</time></trkpt><trkpt lat="45.04900148834139" lon="7.7646845895521075"><ele>440.0</ele><time>2026-04-11T10:04:31Z</time></trkpt><trkpt lat="45.04939621651817" lon="7.7647385098109964"><ele>436.0</ele><time>2026-04-11T10:04:33Z</time></trkpt><trkpt lat="45.04959622540278" lon="7.764892324425249"><ele>432.0</ele><time>2026-04-11T10:04:34Z</time></trkpt><trkpt lat="45.04980644992344" lon="7.765007391956864"><ele>431.5</ele><time>2026-04-11T10:04:35Z</time></trkpt><trkpt lat="45.050040394692175" lon="7.765145142333091"><ele>431.0</ele><time>2026-04-11T10:04:36Z</time></trkpt><trkpt lat="45.05027073061227" lon="7.765280735073299"><ele>431.0</ele><time>2026-04-11T10:04:37Z</time></trkpt><trkpt lat="45.0507821555408" lon="7.765524160598547"><ele>425.0</ele><time>2026-04-11T10:04:39Z</time></trkpt><trkpt lat="45.05103708977498" lon="7.765627539516594"><ele>419.0</ele><time>2026-04-11T10:04:40Z</time></trkpt><trkpt lat="45.051290211234914" lon="7.7656948843359395"><ele>419.0</ele><time>2026-04-11T10:04:41Z</time></trkpt><trkpt lat="45.051529783995484" lon="7.765726451331939"><ele>419.0</ele><time>2026-04-11T10:04:42Z</time></trkpt><trkpt lat="45.05177125370101" lon="7.765709492182765"><ele>416.0</ele><time>2026-04-11T10:04:43Z</time></trkpt><trkpt lat="45.0520187091914" lon="7.7656577123623665"><ele>413.0</ele><time>2026-04-11T10:04:44Z</time></trkpt><trkpt lat="45.05227147129837" lon="7.765593050098487"><ele>409.5</ele><time>2026-04-11T10:04:45Z</time></trkpt><trkpt lat="45.05255035655704" lon="7.7655698428982705"><ele>406.0</ele><time>2026-04-11T10:04:46Z</time></trkpt><trkpt lat="45.052849774348" lon="7.765578867101706"><ele>406.0</ele><time>2026-04-11T10:04:47Z</time></trkpt><trkpt lat="45.05313692845282" lon="7.76560363935412"><ele>406.0</ele><time>2026-04-11T10:04:48Z</time></trkpt><trkpt lat="45.05339631829098" lon="7.765630370618116"><ele>405.0</ele><time>2026-04-11T10:04:49Z</time></trkpt><trkpt lat="45.053640019128764" lon="7.765654385009065"><ele>404.0</ele><time>2026-04-11T10:04:50Z</time></trkpt><trkpt lat="45.053873395074326" lon="7.765675854216715"><ele>404.0</ele><time>2026-04-11T10:04:51Z</time></trkpt><trkpt lat="45.0540811527346" lon="7.765696806917429"><ele>404.0</ele><time>2026-04-11T10:04:52Z</time></trkpt><trkpt lat="45.05427044202792" lon="7.765731220576285"><ele>404.0</ele><time>2026-04-11T10:04:53Z</time></trkpt><trkpt lat="45.05444948127153" lon="7.765778770579368"><ele>402.66666666666663</ele><time>2026-04-11T10:04:54Z</time></trkpt><trkpt lat="45.054619768350456" lon="7.765808822224209"><ele>401.33333333333337</ele><time>2026-04-11T10:04:55Z</time></trkpt><trkpt lat="45.05479959997448" lon="7.765865526985904"><ele>400.0</ele><time>2026-04-11T10:04:56Z</time></trkpt><trkpt lat="45.05497041841618" lon="7.765908157384637"><ele>398.0</ele><time>2026-04-11T10:04:57Z</time></trkpt><trkpt lat="45.055138313303495" lon="7.765924452294076"><ele>396.0</ele><time>2026-04-11T10:04:58Z</time></trkpt><trkpt lat="45.055276642072705" lon="7.76589800291158"><ele>394.0</ele><time>2026-04-11T10:04:59Z</time></trkpt><trkpt lat="45.055396866506435" lon="7.765873530151807"><ele>392.0</ele><time>2026-04-11T10:05:00Z</time></trkpt><trkpt lat="45.055502337685084" lon="7.765822032283523"><ele>392.0</ele><time>2026-04-11T10:05:01Z</time></trkpt><trkpt lat="45.05560799420771" lon="7.765755721682104"><ele>392.0</ele><time>2026-04-11T10:05:02Z</time></trkpt><trkpt lat="45.05573572629272" lon="7.765658449156787"><ele>392.0</ele><time>2026-04-11T10:05:03Z</time></trkpt><trkpt lat="45.05587116146442" lon="7.765518335625475"><ele>392.0</ele><time>2026-04-11T10:05:04Z</time></trkpt><trkpt lat="45.055993672018275" lon="7.76534227920512"><ele>389.3333333333333</ele><time>2026-04-11T10:05:05Z</time></trkpt><trkpt lat="45.05610061070671" lon="7.765157276827811"><ele>386.66666666666663</ele><time>2026-04-11T10:05:06Z</time></trkpt><trkpt lat="45.056193777796196" lon="7.764994454172427"><ele>384.0</ele><time>2026-04-11T10:05:07Z</time></trkpt><trkpt lat="45.056280640616706" lon="7.764842693147672"><ele>384.0</ele><time>2026-04-11T10:05:08Z</time></trkpt><trkpt lat="45.05636669897773" lon="7.764711320318225"><ele>384.0</ele><time>2026-04-11T10:05:09Z</time></trkpt><trkpt lat="45.05647237452149" lon="7.764567623865574"><ele>384.0</ele><time>2026-04-11T10:05:10Z</time></trkpt><trkpt lat="45.056603659963386" lon="7.764424770986367"><ele>384.0</ele><time>2026-04-11T10:05:11Z</time></trkpt><trkpt lat="45.056748386280795" lon="7.764299655069942"><ele>382.0</ele><time>2026-04-11T10:05:12Z</time></trkpt><trkpt lat="45.056879685507006" lon="7.764180592290582"><ele>380.0</ele><time>2026-04-11T10:05:13Z</time></trkpt><trkpt lat="45.05703770830331" lon="7.764141855573682"><ele>378.0</ele><time>2026-04-11T10:05:14Z</time></trkpt><trkpt lat="45.057201283395315" lon="7.764075764757632"><ele>378.0</ele><time>2026-04-11T10:05:15Z</time></trkpt><trkpt lat="45.05736716243504" lon="7.7640531726858795"><ele>378.0</ele><time>2026-04-11T10:05:16Z</time></trkpt><trkpt lat="45.0575253567659" lon="7.764031883430441"><ele>378.0</ele><time>2026-04-11T10:05:17Z</time></trkpt><trkpt lat="45.057679452304434" lon="7.764005165175765"><ele>378.3333333333333</ele><time>2026-04-11T10:05:18Z</time></trkpt><trkpt lat="45.057840654249176" lon="7.763973242894494"><ele>378.66666666666663</ele><time>2026-04-11T10:05:19Z</time></trkpt><trkpt lat="45.057933210211786" lon="7.763645640247087"><ele>379.0</ele><time>2026-04-11T10:05:20Z</time></trkpt><trkpt lat="45.05808112061973" lon="7.763583144748866"><ele>379.5</ele><time>2026-04-11T10:05:21Z</time></trkpt><trkpt lat="45.05830492942845" lon="7.763890520869986"><ele>380.0</ele><time>2026-04-11T10:05:22Z</time></trkpt><trkpt lat="45.0584615407727" lon="7.76384865695504"><ele>380.0</ele><time>2026-04-11T10:05:23Z</time></trkpt><trkpt lat="45.05861675563884" lon="7.7637716332663045"><ele>380.0</ele><time>2026-04-11T10:05:24Z</time></trkpt><trkpt lat="45.05876328525731" lon="7.763668939641722"><ele>380.0</ele><time>2026-04-11T10:05:25Z</time></trkpt><trkpt lat="45.05889924878419" lon="7.763546036727761"><ele>379.0</ele><time>2026-04-11T10:05:26Z</time></trkpt><trkpt lat="45.05902682357664" lon="7.763408204404431"><ele>378.0</ele><time>2026-04-11T10:05:27Z</time></trkpt><trkpt lat="45.059136503571416" lon="7.76325410152654"><ele>377.0</ele><time>2026-04-11T10:05:28Z</time></trkpt><trkpt lat="45.05922891602518" lon="7.763073271397717"><ele>376.0</ele><time>2026-04-11T10:05:29Z</time></trkpt><trkpt lat="45.059308306184256" lon="7.762884823856888"><ele>375.0</ele><time>2026-04-11T10:05:30Z</time></trkpt><trkpt lat="45.0593830705479" lon="7.762695089823165"><ele>374.0</ele><time>2026-04-11T10:05:31Z</time></trkpt><trkpt lat="45.0594618097656" lon="7.762505040667922"><ele>371.6666666666667</ele><time>2026-04-11T10:05:32Z</time></trkpt><trkpt lat="45.059544521725385" lon="7.762315523800334"><ele>369.3333333333333</ele><time>2026-04-11T10:05:33Z</time></trkpt><trkpt lat="45.059647053330735" lon="7.762131791292276"><ele>367.0</ele><time>2026-04-11T10:05:34Z</time></trkpt><trkpt lat="45.05977138793431" lon="7.761970075234169"><ele>365.0</ele><time>2026-04-11T10:05:35Z</time></trkpt><trkpt lat="45.05990432776005" lon="7.761841578124593"><ele>363.0</ele><time>2026-04-11T10:05:36Z</time></trkpt><trkpt lat="45.06004977902932" lon="7.761736492859298"><ele>361.0</ele><time>2026-04-11T10:05:37Z</time></trkpt><trkpt lat="45.060203232104534" lon="7.761652065758386"><ele>361.0</ele><time>2026-04-11T10:05:38Z</time></trkpt><trkpt lat="45.06035746048853" lon="7.7615876773400725"><ele>361.0</ele><time>2026-04-11T10:05:39Z</time></trkpt><trkpt lat="45.06050998735327" lon="7.761533999216805"><ele>361.0</ele><time>2026-04-11T10:05:40Z</time></trkpt><trkpt lat="45.06066563351869" lon="7.761477771000259"><ele>361.66666666666663</ele><time>2026-04-11T10:05:41Z</time></trkpt><trkpt lat="45.06082080622888" lon="7.761408058229127"><ele>362.3333333333333</ele><time>2026-04-11T10:05:42Z</time></trkpt><trkpt lat="45.06097446128621" lon="7.761320406293303"><ele>363.0</ele><time>2026-04-11T10:05:43Z</time></trkpt><trkpt lat="45.06111656490378" lon="7.7612078736407355"><ele>363.0</ele><time>2026-04-11T10:05:44Z</time></trkpt><trkpt lat="45.06125946880495" lon="7.761046501060555"><ele>363.0</ele><time>2026-04-11T10:05:45Z</time></trkpt><trkpt lat="45.06141859526493" lon="7.760841358620486"><ele>363.0</ele><time>2026-04-11T10:05:46Z</time></trkpt><trkpt lat="45.06157090231677" lon="7.760626075160893"><ele>365.5</ele><time>2026-04-11T10:05:47Z</time></trkpt><trkpt lat="45.06173133071114" lon="7.760370335066713"><ele>368.0</ele><time>2026-04-11T10:05:48Z</time></trkpt><trkpt lat="45.061902337683705" lon="7.760089652227334"><ele>359.5</ele><time>2026-04-11T10:05:49Z</time></trkpt><trkpt lat="45.06207489714891" lon="7.75985052404721"><ele>351.0</ele><time>2026-04-11T10:05:50Z</time></trkpt><trkpt lat="45.0622354925165" lon="7.759645411780285"><ele>351.0</ele><time>2026-04-11T10:05:51Z</time></trkpt><trkpt lat="45.06238469216937" lon="7.759454656761748"><ele>351.0</ele><time>2026-04-11T10:05:52Z</time></trkpt><trkpt lat="45.06253402901577" lon="7.759302910325058"><ele>351.0</ele><time>2026-04-11T10:05:53Z</time></trkpt><trkpt lat="45.06269020904551" lon="7.759187958120866"><ele>350.0</ele><time>2026-04-11T10:05:54Z</time></trkpt><trkpt lat="45.06286762940184" lon="7.759097955737502"><ele>349.0</ele><time>2026-04-11T10:05:55Z</time></trkpt><trkpt lat="45.063060239189966" lon="7.759037129247681"><ele>348.0</ele><time>2026-04-11T10:05:56Z</time></trkpt><trkpt lat="45.063264588455176" lon="7.759010998681597"><ele>351.3333333333333</ele><time>2026-04-11T10:05:57Z</time></trkpt><trkpt lat="45.06345788744979" lon="7.758994719889505"><ele>354.66666666666663</ele><time>2026-04-11T10:05:58Z</time></trkpt><trkpt lat="45.06363878131963" lon="7.758978798880918"><ele>358.0</ele><time>2026-04-11T10:05:59Z</time></trkpt><trkpt lat="45.06381008809272" lon="7.758945353771478"><ele>358.0</ele><time>2026-04-11T10:06:00Z</time></trkpt><trkpt lat="45.06398806817692" lon="7.758866661869202"><ele>358.0</ele><time>2026-04-11T10:06:01Z</time></trkpt><trkpt lat="45.06414338291408" lon="7.758813718840544"><ele>358.0</ele><time>2026-04-11T10:06:02Z</time></trkpt><trkpt lat="45.06427677170317" lon="7.75876227511896"><ele>357.66666666666663</ele><time>2026-04-11T10:06:03Z</time></trkpt><trkpt lat="45.064415722008384" lon="7.7586860895027785"><ele>357.3333333333333</ele><time>2026-04-11T10:06:04Z</time></trkpt><trkpt lat="45.06459029043981" lon="7.758514838779587"><ele>357.0</ele><time>2026-04-11T10:06:05Z</time></trkpt><trkpt lat="45.06470474728632" lon="7.758406383308936"><ele>353.0</ele><time>2026-04-11T10:06:06Z</time></trkpt><trkpt lat="45.064845567609794" lon="7.758332075366006"><ele>349.0</ele><time>2026-04-11T10:06:07Z</time></trkpt><trkpt lat="45.064982493319796" lon="7.758238810618398"><ele>345.0</ele><time>2026-04-11T10:06:08Z</time></trkpt><trkpt lat="45.06514768520056" lon="7.7581235421514645"><ele>345.0</ele><time>2026-04-11T10:06:09Z</time></trkpt><trkpt lat="45.06533690455463" lon="7.757984043403368"><ele>345.0</ele><time>2026-04-11T10:06:10Z</time></trkpt><trkpt lat="45.065514632769336" lon="7.75785304838555"><ele>345.0</ele><time>2026-04-11T10:06:11Z</time></trkpt><trkpt lat="45.065664391395835" lon="7.757751047078546"><ele>341.0</ele><time>2026-04-11T10:06:12Z</time></trkpt><trkpt lat="45.0657998226346" lon="7.757670376787216"><ele>337.0</ele><time>2026-04-11T10:06:13Z</time></trkpt><trkpt lat="45.06592543083871" lon="7.757590363822281"><ele>333.0</ele><time>2026-04-11T10:06:14Z</time></trkpt><trkpt lat="45.0660512765232" lon="7.757502613213721"><ele>329.0</ele><time>2026-04-11T10:06:15Z</time></trkpt><trkpt lat="45.066205661449715" lon="7.7574243062012345"><ele>329.0</ele><time>2026-04-11T10:06:16Z</time></trkpt><trkpt lat="45.066398935489616" lon="7.757319843446807"><ele>329.0</ele><time>2026-04-11T10:06:17Z</time></trkpt><trkpt lat="45.066622144159744" lon="7.757210964647942"><ele>329.0</ele><time>2026-04-11T10:06:18Z</time></trkpt><trkpt lat="45.06688872549577" lon="7.757089692337035"><ele>331.0</ele><time>2026-04-11T10:06:19Z</time></trkpt><trkpt lat="45.067169148073596" lon="7.7569665303793"><ele>333.0</ele><time>2026-04-11T10:06:20Z</time></trkpt><trkpt lat="45.067438176074596" lon="7.756848736331423"><ele>328.5</ele><time>2026-04-11T10:06:21Z</time></trkpt><trkpt lat="45.06767916359153" lon="7.756743219775445"><ele>324.0</ele><time>2026-04-11T10:06:22Z</time></trkpt><trkpt lat="45.067896923545064" lon="7.756630464126775"><ele>324.0</ele><time>2026-04-11T10:06:23Z</time></trkpt><trkpt lat="45.06810522247751" lon="7.7565447364245905"><ele>324.0</ele><time>2026-04-11T10:06:24Z</time></trkpt><trkpt lat="45.068292674484155" lon="7.756456485555653"><ele>324.0</ele><time>2026-04-11T10:06:25Z</time></trkpt><trkpt lat="45.0684696297832" lon="7.756356836945304"><ele>324.3333333333333</ele><time>2026-04-11T10:06:26Z</time></trkpt><trkpt lat="45.06863078373992" lon="7.756232735764662"><ele>324.66666666666663</ele><time>2026-04-11T10:06:27Z</time></trkpt><trkpt lat="45.06877830098205" lon="7.7560769523759685"><ele>325.0</ele><time>2026-04-11T10:06:28Z</time></trkpt><trkpt lat="45.0689160326822" lon="7.7558926013217855"><ele>321.0</ele><time>2026-04-11T10:06:29Z</time></trkpt><trkpt lat="45.069048918573415" lon="7.755678490156472"><ele>317.0</ele><time>2026-04-11T10:06:30Z</time></trkpt><trkpt lat="45.06915315895518" lon="7.755437162408282"><ele>313.0</ele><time>2026-04-11T10:06:31Z</time></trkpt><trkpt lat="45.06925487762995" lon="7.755161298955669"><ele>312.3333333333333</ele><time>2026-04-11T10:06:32Z</time></trkpt><trkpt lat="45.06938882080489" lon="7.754893244538991"><ele>311.6666666666667</ele><time>2026-04-11T10:06:33Z</time></trkpt><trkpt lat="45.06950069239308" lon="7.754639071512728"><ele>311.0</ele><time>2026-04-11T10:06:34Z</time></trkpt><trkpt lat="45.06959890230586" lon="7.754397600402706"><ele>312.0</ele><time>2026-04-11T10:06:35Z</time></trkpt><trkpt lat="45.06972021144422" lon="7.7541873588543515"><ele>313.0</ele><time>2026-04-11T10:06:36Z</time></trkpt><trkpt lat="45.06987211419995" lon="7.7540163278773"><ele>314.0</ele><time>2026-04-11T10:06:37Z</time></trkpt><trkpt lat="45.07003688493844" lon="7.753844146280084"><ele>314.0</ele><time>2026-04-11T10:06:38Z</time></trkpt><trkpt lat="45.07022005667095" lon="7.753712024081972"><ele>314.0</ele><time>2026-04-11T10:06:39Z</time></trkpt><trkpt lat="45.07042002549385" lon="7.753590088356985"><ele>314.0</ele><time>2026-04-11T10:06:40Z</time></trkpt><trkpt lat="45.07062010466617" lon="7.7534718983376205"><ele>312.6666666666667</ele><time>2026-04-11T10:06:41Z</time></trkpt><trkpt lat="45.07081894692907" lon="7.753332308614731"><ele>311.3333333333333</ele><time>2026-04-11T10:06:42Z</time></trkpt><trkpt lat="45.071022493370556" lon="7.753216304608885"><ele>310.0</ele><time>2026-04-11T10:06:43Z</time></trkpt><trkpt lat="45.07120337010683" lon="7.753111281391786"><ele>310.0</ele><time>2026-04-11T10:06:44Z</time></trkpt><trkpt lat="45.07138264499109" lon="7.753012554300012"><ele>310.0</ele><time>2026-04-11T10:06:45Z</time></trkpt><trkpt lat="45.07154501227467" lon="7.752914979237967"><ele>310.0</ele><time>2026-04-11T10:06:46Z</time></trkpt><trkpt lat="45.071705343440925" lon="7.752820949267452"><ele>304.66666666666663</ele><time>2026-04-11T10:06:47Z</time></trkpt><trkpt lat="45.07185939617402" lon="7.752696440895254"><ele>299.3333333333333</ele><time>2026-04-11T10:06:48Z</time></trkpt><trkpt lat="45.072000724883196" lon="7.752532563036572"><ele>294.0</ele><time>2026-04-11T10:06:49Z</time></trkpt><trkpt lat="45.072123538666375" lon="7.752331727007303"><ele>294.0</ele><time>2026-04-11T10:06:50Z</time></trkpt><trkpt lat="45.07223881014407" lon="7.752105554196208"><ele>294.0</ele><time>2026-04-11T10:06:51Z</time></trkpt><trkpt lat="45.07234299982159" lon="7.751854650117101"><ele>294.0</ele><time>2026-04-11T10:06:52Z</time></trkpt><trkpt lat="45.072452819775336" lon="7.75157190106481"><ele>295.5</ele><time>2026-04-11T10:06:53Z</time></trkpt><trkpt lat="45.07258471262967" lon="7.751257000162098"><ele>297.0</ele><time>2026-04-11T10:06:54Z</time></trkpt><trkpt lat="45.07272834607614" lon="7.7509486957267315"><ele>291.0</ele><time>2026-04-11T10:06:55Z</time></trkpt><trkpt lat="45.07286946717956" lon="7.750667413771873"><ele>285.0</ele><time>2026-04-11T10:06:56Z</time></trkpt><trkpt lat="45.07300643189045" lon="7.750413546206058"><ele>283.6666666666667</ele><time>2026-04-11T10:06:57Z</time></trkpt><trkpt lat="45.07313747966511" lon="7.75017426276093"><ele>282.33333333333337</ele><time>2026-04-11T10:06:58Z</time></trkpt><trkpt lat="45.073257359593924" lon="7.749937106770965"><ele>281.0</ele><time>2026-04-11T10:06:59Z</time></trkpt><trkpt lat="45.073365307432304" lon="7.749708360821039"><ele>282.6666666666667</ele><time>2026-04-11T10:07:00Z</time></trkpt><trkpt lat="45.073451610100186" lon="7.749475171712393"><ele>284.3333333333333</ele><time>2026-04-11T10:07:01Z</time></trkpt><trkpt lat="45.07351078677657" lon="7.749229346093128"><ele>286.0</ele><time>2026-04-11T10:07:02Z</time></trkpt><trkpt lat="45.0735548798272" lon="7.748959673640848"><ele>286.0</ele><time>2026-04-11T10:07:03Z</time></trkpt><trkpt lat="45.07362018682295" lon="7.748663751659118"><ele>286.0</ele><time>2026-04-11T10:07:04Z</time></trkpt><trkpt lat="45.073712948190455" lon="7.748380355716987"><ele>286.0</ele><time>2026-04-11T10:07:05Z</time></trkpt><trkpt lat="45.07381355343668" lon="7.748111472614558"><ele>287.0</ele><time>2026-04-11T10:07:06Z</time></trkpt><trkpt lat="45.0739205121932" lon="7.747840290912695"><ele>288.0</ele><time>2026-04-11T10:07:07Z</time></trkpt><trkpt lat="45.07403866042575" lon="7.747567535481775"><ele>289.0</ele><time>2026-04-11T10:07:08Z</time></trkpt><trkpt lat="45.07416345840408" lon="7.747309895038886"><ele>289.0</ele><time>2026-04-11T10:07:09Z</time></trkpt><trkpt lat="45.07428840951805" lon="7.7470607517916745"><ele>289.0</ele><time>2026-04-11T10:07:10Z</time></trkpt><trkpt lat="45.074421251310234" lon="7.746786083000637"><ele>281.0</ele><time>2026-04-11T10:07:11Z</time></trkpt><trkpt lat="45.07456337901465" lon="7.746467697154307"><ele>273.0</ele><time>2026-04-11T10:07:12Z</time></trkpt><trkpt lat="45.07470389869756" lon="7.746138736784726"><ele>270.0</ele><time>2026-04-11T10:07:13Z</time></trkpt><trkpt lat="45.07482809373232" lon="7.745821950564082"><ele>267.0</ele><time>2026-04-11T10:07:14Z</time></trkpt><trkpt lat="45.07494728019354" lon="7.745504598899417"><ele>271.0</ele><time>2026-04-11T10:07:15Z</time></trkpt><trkpt lat="45.07505742300094" lon="7.74520490857764"><ele>275.0</ele><time>2026-04-11T10:07:16Z</time></trkpt><trkpt lat="45.07516236309777" lon="7.744903281140389"><ele>275.0</ele><time>2026-04-11T10:07:17Z</time></trkpt><trkpt lat="45.07525924526287" lon="7.744602897370668"><ele>275.0</ele><time>2026-04-11T10:07:18Z</time></trkpt><trkpt lat="45.07535606882306" lon="7.744294040333986"><ele>270.5</ele><time>2026-04-11T10:07:19Z</time></trkpt><trkpt lat="45.07545095406201" lon="7.7439802601892245"><ele>266.0</ele><time>2026-04-11T10:07:20Z</time></trkpt><trkpt lat="45.07554183792729" lon="7.7436629110604445"><ele>261.0</ele><time>2026-04-11T10:07:21Z</time></trkpt><trkpt lat="45.07562393282442" lon="7.743338905103309"><ele>256.0</ele><time>2026-04-11T10:07:22Z</time></trkpt><trkpt lat="45.07570011468926" lon="7.743019958521308"><ele>260.0</ele><time>2026-04-11T10:07:23Z</time></trkpt><trkpt lat="45.07577583752909" lon="7.742711700677906"><ele>264.0</ele><time>2026-04-11T10:07:24Z</time></trkpt><trkpt lat="45.07585162396836" lon="7.742412004387086"><ele>264.0</ele><time>2026-04-11T10:07:25Z</time></trkpt><trkpt lat="45.0759250193961" lon="7.7421299937283665"><ele>264.0</ele><time>2026-04-11T10:07:26Z</time></trkpt><trkpt lat="45.075999444153005" lon="7.741840365162297"><ele>264.0</ele><time>2026-04-11T10:07:27Z</time></trkpt><trkpt lat="45.07607402522051" lon="7.741553138349734"><ele>262.3333333333333</ele><time>2026-04-11T10:07:28Z</time></trkpt><trkpt lat="45.07614407638274" lon="7.7412829148071385"><ele>260.66666666666663</ele><time>2026-04-11T10:07:29Z</time></trkpt><trkpt lat="45.076207653223015" lon="7.74103828032964"><ele>259.0</ele><time>2026-04-11T10:07:30Z</time></trkpt><trkpt lat="45.07628150946506" lon="7.740815725885738"><ele>260.3333333333333</ele><time>2026-04-11T10:07:31Z</time></trkpt><trkpt lat="45.07636457989413" lon="7.740606158767789"><ele>261.6666666666667</ele><time>2026-04-11T10:07:32Z</time></trkpt><trkpt lat="45.07646404284947" lon="7.740407045663268"><ele>263.0</ele><time>2026-04-11T10:07:33Z</time></trkpt><trkpt lat="45.07660393433621" lon="7.74023743583974"><ele>259.6666666666667</ele><time>2026-04-11T10:07:34Z</time></trkpt><trkpt lat="45.07676413222995" lon="7.740101220098206"><ele>256.3333333333333</ele><time>2026-04-11T10:07:35Z</time></trkpt><trkpt lat="45.07693960967104" lon="7.739955020900467"><ele>253.0</ele><time>2026-04-11T10:07:36Z</time></trkpt><trkpt lat="45.07714711738283" lon="7.739806766479147"><ele>253.0</ele><time>2026-04-11T10:07:37Z</time></trkpt><trkpt lat="45.0773402760218" lon="7.739654604301475"><ele>253.0</ele><time>2026-04-11T10:07:38Z</time></trkpt><trkpt lat="45.07752112776338" lon="7.73950373964871"><ele>253.0</ele><time>2026-04-11T10:07:39Z</time></trkpt><trkpt lat="45.07769396501381" lon="7.739363464636162"><ele>251.33333333333331</ele><time>2026-04-11T10:07:40Z</time></trkpt><trkpt lat="45.07786020202253" lon="7.739218741843913"><ele>249.66666666666669</ele><time>2026-04-11T10:07:41Z</time></trkpt><trkpt lat="45.07802297885713" lon="7.739058951735039"><ele>248.0</ele><time>2026-04-11T10:07:42Z</time></trkpt><trkpt lat="45.07818582818621" lon="7.738886139249558"><ele>247.33333333333334</ele><time>2026-04-11T10:07:43Z</time></trkpt><trkpt lat="45.07835219739345" lon="7.738716631365725"><ele>246.66666666666669</ele><time>2026-04-11T10:07:44Z</time></trkpt><trkpt lat="45.07850702658243" lon="7.738556637539056"><ele>246.0</ele><time>2026-04-11T10:07:45Z</time></trkpt><trkpt lat="45.0786532726221" lon="7.73841639504476"><ele>246.0</ele><time>2026-04-11T10:07:46Z</time></trkpt><trkpt lat="45.078792574152445" lon="7.738276287861284"><ele>246.0</ele><time>2026-04-11T10:07:47Z</time></trkpt><trkpt lat="45.078922908472336" lon="7.738132699096262"><ele>246.0</ele><time>2026-04-11T10:07:48Z</time></trkpt><trkpt lat="45.07904498433853" lon="7.737983624462429"><ele>247.33333333333331</ele><time>2026-04-11T10:07:49Z</time></trkpt><trkpt lat="45.07916406460634" lon="7.737826511882047"><ele>248.66666666666666</ele><time>2026-04-11T10:07:50Z</time></trkpt><trkpt lat="45.0792864595739" lon="7.737646445197008"><ele>250.0</ele><time>2026-04-11T10:07:51Z</time></trkpt><trkpt lat="45.07940661424274" lon="7.737469248605174"><ele>247.0</ele><time>2026-04-11T10:07:52Z</time></trkpt><trkpt lat="45.079526251726115" lon="7.737293981677341"><ele>244.0</ele><time>2026-04-11T10:07:53Z</time></trkpt><trkpt lat="45.07965240656359" lon="7.737116209230601"><ele>241.0</ele><time>2026-04-11T10:07:54Z</time></trkpt><trkpt lat="45.07977551341049" lon="7.736935240244669"><ele>240.33333333333331</ele><time>2026-04-11T10:07:55Z</time></trkpt><trkpt lat="45.07988610092025" lon="7.736765679127887"><ele>239.66666666666669</ele><time>2026-04-11T10:07:56Z</time></trkpt><trkpt lat="45.079994200861506" lon="7.736601288485586"><ele>239.0</ele><time>2026-04-11T10:07:57Z</time></trkpt><trkpt lat="45.08010600032376" lon="7.73643642659317"><ele>239.33333333333334</ele><time>2026-04-11T10:07:58Z</time></trkpt><trkpt lat="45.08022201132384" lon="7.736273966116781"><ele>239.66666666666669</ele><time>2026-04-11T10:07:59Z</time></trkpt><trkpt lat="45.08033151186053" lon="7.736116772742618"><ele>240.0</ele><time>2026-04-11T10:08:00Z</time></trkpt><trkpt lat="45.080436714874104" lon="7.7359632471002655"><ele>240.0</ele><time>2026-04-11T10:08:01Z</time></trkpt><trkpt lat="45.080537143455444" lon="7.735817939213686"><ele>240.0</ele><time>2026-04-11T10:08:02Z</time></trkpt><trkpt lat="45.0806363459114" lon="7.735675926755942"><ele>240.0</ele><time>2026-04-11T10:08:03Z</time></trkpt><trkpt lat="45.08073325243355" lon="7.735526931954899"><ele>240.0</ele><time>2026-04-11T10:08:04Z</time></trkpt><trkpt lat="45.08082780825036" lon="7.73534888817856"><ele>239.5</ele><time>2026-04-11T10:08:05Z</time></trkpt><trkpt lat="45.080908641485635" lon="7.735163543230308"><ele>239.0</ele><time>2026-04-11T10:08:06Z</time></trkpt><trkpt lat="45.08097836914224" lon="7.734977232563301"><ele>238.5</ele><time>2026-04-11T10:08:07Z</time></trkpt><trkpt lat="45.08103819521921" lon="7.734791350160265"><ele>238.0</ele><time>2026-04-11T10:08:08Z</time></trkpt><trkpt lat="45.081068006894505" lon="7.734599144904419"><ele>238.0</ele><time>2026-04-11T10:08:09Z</time></trkpt><trkpt lat="45.081037274892175" lon="7.73441223707726"><ele>238.0</ele><time>2026-04-11T10:08:10Z</time></trkpt><trkpt lat="45.0809659941808" lon="7.734219813007629"><ele>238.0</ele><time>2026-04-11T10:08:11Z</time></trkpt><trkpt lat="45.08086806723526" lon="7.734022115236561"><ele>236.33333333333331</ele><time>2026-04-11T10:08:12Z</time></trkpt><trkpt lat="45.08097459960706" lon="7.733862524457343"><ele>234.66666666666669</ele><time>2026-04-11T10:08:13Z</time></trkpt><trkpt lat="45.08087661545706" lon="7.733624878610967"><ele>233.0</ele><time>2026-04-11T10:08:14Z</time></trkpt><trkpt lat="45.08079223485865" lon="7.733408559141636"><ele>231.66666666666669</ele><time>2026-04-11T10:08:15Z</time></trkpt><trkpt lat="45.08071286682956" lon="7.733194527162906"><ele>230.33333333333331</ele><time>2026-04-11T10:08:16Z</time></trkpt><trkpt lat="45.080644035634066" lon="7.732992729985674"><ele>229.0</ele><time>2026-04-11T10:08:17Z</time></trkpt><trkpt lat="45.080579103102814" lon="7.732799508073875"><ele>228.0</ele><time>2026-04-11T10:08:18Z</time></trkpt><trkpt lat="45.08050806904978" lon="7.732590240449004"><ele>227.0</ele><time>2026-04-11T10:08:19Z</time></trkpt><trkpt lat="45.08044289838493" lon="7.732392056543655"><ele>226.0</ele><time>2026-04-11T10:08:20Z</time></trkpt><trkpt lat="45.080387416109915" lon="7.7322101760654975"><ele>226.0</ele><time>2026-04-11T10:08:21Z</time></trkpt><trkpt lat="45.08034051239143" lon="7.732041530256727"><ele>226.00000000000003</ele><time>2026-04-11T10:08:22Z</time></trkpt><trkpt lat="45.08030189570896" lon="7.731890483777015"><ele>226.00000000000003</ele><time>2026-04-11T10:08:23Z</time></trkpt><trkpt lat="45.08027819809791" lon="7.731766477409933"><ele>226.0</ele><time>2026-04-11T10:08:24Z</time></trkpt><trkpt lat="45.080259566906484" lon="7.731659422288249"><ele>226.0</ele><time>2026-04-11T10:08:25Z</time></trkpt><trkpt lat="45.080234967130906" lon="7.731533254022894"><ele>225.99999999999997</ele><time>2026-04-11T10:08:27Z</time></trkpt><trkpt lat="45.080184942434975" lon="7.731412705655454"><ele>226.0</ele><time>2026-04-11T10:08:37Z</time></trkpt><trkpt lat="45.08009072871006" lon="7.731334744679249"><ele>226.0</ele><time>2026-04-11T10:08:39Z</time></trkpt><trkpt lat="45.08002184350755" lon="7.731325356862259"><ele>226.0</ele><time>2026-04-11T10:08:40Z</time></trkpt><trkpt lat="45.07994397196014" lon="7.731350336133564"><ele>225.99999999999997</ele><time>2026-04-11T10:08:41Z</time></trkpt><trkpt lat="45.07986743513207" lon="7.731391583477483"><ele>226.0</ele><time>2026-04-11T10:08:42Z</time></trkpt><trkpt lat="45.07978630906451" lon="7.731444919438704"><ele>226.0</ele><time>2026-04-11T10:08:43Z</time></trkpt><trkpt lat="45.07968944913496" lon="7.731507308459072"><ele>226.00000000000003</ele><time>2026-04-11T10:08:44Z</time></trkpt><trkpt lat="45.079594580001185" lon="7.73157125586684"><ele>226.00000000000003</ele><time>2026-04-11T10:08:45Z</time></trkpt><trkpt lat="45.079508543367204" lon="7.731627924203073"><ele>226.0</ele><time>2026-04-11T10:08:46Z</time></trkpt><trkpt lat="45.07942156446082" lon="7.731681031144736"><ele>226.0</ele><time>2026-04-11T10:08:47Z</time></trkpt><trkpt lat="45.07933068332289" lon="7.731737332641069"><ele>226.0</ele><time>2026-04-11T10:08:48Z</time></trkpt><trkpt lat="45.07923325879722" lon="7.731794609367124"><ele>226.00000000000003</ele><time>2026-04-11T10:08:49Z</time></trkpt><trkpt lat="45.079138837282926" lon="7.731848692798684"><ele>226.00000000000003</ele><time>2026-04-11T10:08:50Z</time></trkpt><trkpt lat="45.07904756749121" lon="7.731905256919412"><ele>226.0</ele><time>2026-04-11T10:08:51Z</time></trkpt><trkpt lat="45.078965086354344" lon="7.731955796915221"><ele>226.0</ele><time>2026-04-11T10:08:52Z</time></trkpt><trkpt lat="45.0788956833346" lon="7.732000125395217"><ele>226.33333333333331</ele><time>2026-04-11T10:08:53Z</time></trkpt><trkpt lat="45.07883441042261" lon="7.732040114284726"><ele>226.66666666666666</ele><time>2026-04-11T10:08:54Z</time></trkpt><trkpt lat="45.07873635411799" lon="7.732097235476193"><ele>227.0</ele><time>2026-04-11T10:08:56Z</time></trkpt><trkpt lat="45.07865586113846" lon="7.7321469697794045"><ele>227.33333333333331</ele><time>2026-04-11T10:08:58Z</time></trkpt><trkpt lat="45.078595326848756" lon="7.732184690053018"><ele>227.66666666666666</ele><time>2026-04-11T10:09:02Z</time></trkpt><trkpt lat="45.07849985010309" lon="7.732237030697767"><ele>228.0</ele><time>2026-04-11T10:09:16Z</time></trkpt><trkpt lat="45.078431799628966" lon="7.7322780347208475"><ele>228.0</ele><time>2026-04-11T10:09:17Z</time></trkpt><trkpt lat="45.078362917293546" lon="7.7323236720664825"><ele>228.0</ele><time>2026-04-11T10:09:18Z</time></trkpt><trkpt lat="45.07828480436589" lon="7.732371142317163"><ele>228.0</ele><time>2026-04-11T10:09:19Z</time></trkpt><trkpt lat="45.07820638793482" lon="7.7323955829274"><ele>228.0</ele><time>2026-04-11T10:09:20Z</time></trkpt><trkpt lat="45.07812408112332" lon="7.732396697539023"><ele>228.0</ele><time>2026-04-11T10:09:21Z</time></trkpt><trkpt lat="45.07804049863919" lon="7.732370157306455"><ele>228.0</ele><time>2026-04-11T10:09:22Z</time></trkpt><trkpt lat="45.07794548062017" lon="7.732310788479257"><ele>227.75</ele><time>2026-04-11T10:09:23Z</time></trkpt><trkpt lat="45.07783892947389" lon="7.732232418533176"><ele>227.5</ele><time>2026-04-11T10:09:24Z</time></trkpt><trkpt lat="45.077730518566014" lon="7.732171262921731"><ele>227.25</ele><time>2026-04-11T10:09:25Z</time></trkpt><trkpt lat="45.07761858231727" lon="7.732112536337915"><ele>227.0</ele><time>2026-04-11T10:09:26Z</time></trkpt><trkpt lat="45.07751258207016" lon="7.7320230106709875"><ele>226.75</ele><time>2026-04-11T10:09:27Z</time></trkpt><trkpt lat="45.07738651145813" lon="7.731949529893887"><ele>226.5</ele><time>2026-04-11T10:09:28Z</time></trkpt><trkpt lat="45.07726556975191" lon="7.731875396081996"><ele>226.25</ele><time>2026-04-11T10:09:29Z</time></trkpt><trkpt lat="45.077151654052386" lon="7.731796299833437"><ele>226.0</ele><time>2026-04-11T10:09:30Z</time></trkpt><trkpt lat="45.07704754694101" lon="7.731723653901855"><ele>224.75</ele><time>2026-04-11T10:09:31Z</time></trkpt><trkpt lat="45.07694607671419" lon="7.731661439595435"><ele>223.5</ele><time>2026-04-11T10:09:32Z</time></trkpt><trkpt lat="45.07683758239182" lon="7.731598020547786"><ele>222.25</ele><time>2026-04-11T10:09:33Z</time></trkpt><trkpt lat="45.07673038090636" lon="7.731525951163555"><ele>221.0</ele><time>2026-04-11T10:09:34Z</time></trkpt><trkpt lat="45.076622000996345" lon="7.731450751987932"><ele>222.75</ele><time>2026-04-11T10:09:35Z</time></trkpt><trkpt lat="45.07651582918705" lon="7.731385104051074"><ele>224.5</ele><time>2026-04-11T10:09:36Z</time></trkpt><trkpt lat="45.076416651320166" lon="7.731319472758548"><ele>226.25</ele><time>2026-04-11T10:09:37Z</time></trkpt><trkpt lat="45.07631060910396" lon="7.731250338582488"><ele>228.0</ele><time>2026-04-11T10:09:38Z</time></trkpt><trkpt lat="45.07620994719933" lon="7.731184046891345"><ele>228.0</ele><time>2026-04-11T10:09:39Z</time></trkpt><trkpt lat="45.076108755101934" lon="7.731112871097702"><ele>228.0</ele><time>2026-04-11T10:09:40Z</time></trkpt><trkpt lat="45.07600158633968" lon="7.731037257036234"><ele>228.0</ele><time>2026-04-11T10:09:41Z</time></trkpt><trkpt lat="45.075885888789344" lon="7.730958914532429"><ele>228.0</ele><time>2026-04-11T10:09:42Z</time></trkpt><trkpt lat="45.075766369599854" lon="7.730882918286936"><ele>226.75</ele><time>2026-04-11T10:09:43Z</time></trkpt><trkpt lat="45.07564857730298" lon="7.730799044172835"><ele>225.5</ele><time>2026-04-11T10:09:44Z</time></trkpt><trkpt lat="45.07552750116094" lon="7.730704047273281"><ele>224.25</ele><time>2026-04-11T10:09:45Z</time></trkpt><trkpt lat="45.07540068231602" lon="7.730608207797374"><ele>223.0</ele><time>2026-04-11T10:09:46Z</time></trkpt><trkpt lat="45.075277899388425" lon="7.7305381173387415"><ele>223.0</ele><time>2026-04-11T10:09:47Z</time></trkpt><trkpt lat="45.075155494733245" lon="7.730474192889381"><ele>223.0</ele><time>2026-04-11T10:09:48Z</time></trkpt><trkpt lat="45.075031330872434" lon="7.730405107957608"><ele>223.0</ele><time>2026-04-11T10:09:49Z</time></trkpt><trkpt lat="45.074888941054134" lon="7.730318563092621"><ele>223.0</ele><time>2026-04-11T10:09:50Z</time></trkpt><trkpt lat="45.074740071874366" lon="7.730215613761409"><ele>223.33333333333331</ele><time>2026-04-11T10:09:51Z</time></trkpt><trkpt lat="45.07458353900849" lon="7.73010910099519"><ele>223.66666666666669</ele><time>2026-04-11T10:09:52Z</time></trkpt><trkpt lat="45.074436065641976" lon="7.730005533697952"><ele>224.0</ele><time>2026-04-11T10:09:53Z</time></trkpt><trkpt lat="45.074300164562636" lon="7.7299097062504805"><ele>224.0</ele><time>2026-04-11T10:09:54Z</time></trkpt><trkpt lat="45.074181950165034" lon="7.729825128826021"><ele>223.99999999999997</ele><time>2026-04-11T10:09:55Z</time></trkpt><trkpt lat="45.07408338015613" lon="7.7297619076264095"><ele>223.99999999999997</ele><time>2026-04-11T10:09:56Z</time></trkpt><trkpt lat="45.07401207923103" lon="7.729713801563532"><ele>224.0</ele><time>2026-04-11T10:09:57Z</time></trkpt><trkpt lat="45.07395108947104" lon="7.729679461867816"><ele>224.0</ele><time>2026-04-11T10:09:58Z</time></trkpt><trkpt lat="45.07388816192166" lon="7.729647039771461"><ele>223.57142857142858</ele><time>2026-04-11T10:09:59Z</time></trkpt><trkpt lat="45.073817718790814" lon="7.729610542247707"><ele>223.14285714285714</ele><time>2026-04-11T10:10:00Z</time></trkpt><trkpt lat="45.073739632018835" lon="7.7295625939993435"><ele>222.71428571428572</ele><time>2026-04-11T10:10:01Z</time></trkpt><trkpt lat="45.073673948643794" lon="7.729513904798071"><ele>222.28571428571428</ele><time>2026-04-11T10:10:02Z</time></trkpt><trkpt lat="45.07360465692334" lon="7.729476185437357"><ele>221.85714285714286</ele><time>2026-04-11T10:10:03Z</time></trkpt><trkpt lat="45.07354053425864" lon="7.729435676590363"><ele>221.42857142857144</ele><time>2026-04-11T10:10:04Z</time></trkpt><trkpt lat="45.073482875527496" lon="7.72939870790429"><ele>221.0</ele><time>2026-04-11T10:10:05Z</time></trkpt><trkpt lat="45.07337926191028" lon="7.7293328645932045"><ele>221.0</ele><time>2026-04-11T10:10:07Z</time></trkpt><trkpt lat="45.073273543225774" lon="7.729264164257865"><ele>221.00000000000003</ele><time>2026-04-11T10:10:09Z</time></trkpt><trkpt lat="45.07318183427753" lon="7.729205156026848"><ele>221.00000000000003</ele><time>2026-04-11T10:10:11Z</time></trkpt><trkpt lat="45.07309477306809" lon="7.729140596223119"><ele>221.0</ele><time>2026-04-11T10:10:13Z</time></trkpt><trkpt lat="45.07301803444225" lon="7.7290876924942875"><ele>221.0</ele><time>2026-04-11T10:10:15Z</time></trkpt><trkpt lat="45.072951657520356" lon="7.729045988937189"><ele>222.50000000000003</ele><time>2026-04-11T10:10:19Z</time></trkpt><trkpt lat="45.07285090443062" lon="7.72897291980694"><ele>224.0</ele><time>2026-04-11T10:10:22Z</time></trkpt><trkpt lat="45.07279193917078" lon="7.728923455275959"><ele>225.5</ele><time>2026-04-11T10:10:23Z</time></trkpt><trkpt lat="45.0727222027499" lon="7.728870706073283"><ele>227.0</ele><time>2026-04-11T10:10:24Z</time></trkpt><trkpt lat="45.072658783940966" lon="7.72882181082378"><ele>228.50000000000003</ele><time>2026-04-11T10:10:25Z</time></trkpt><trkpt lat="45.07257454685325" lon="7.728739292309069"><ele>230.0</ele><time>2026-04-11T10:10:26Z</time></trkpt><trkpt lat="45.072482671444746" lon="7.728661235481786"><ele>229.4</ele><time>2026-04-11T10:10:27Z</time></trkpt><trkpt lat="45.072394085962955" lon="7.7285822039947085"><ele>228.8</ele><time>2026-04-11T10:10:28Z</time></trkpt><trkpt lat="45.072301285184544" lon="7.728498071595566"><ele>228.2</ele><time>2026-04-11T10:10:29Z</time></trkpt><trkpt lat="45.07220319720886" lon="7.7284067402105965"><ele>227.6</ele><time>2026-04-11T10:10:30Z</time></trkpt><trkpt lat="45.072124800704366" lon="7.728330127391833"><ele>227.0</ele><time>2026-04-11T10:10:31Z</time></trkpt><trkpt lat="45.0720473577675" lon="7.728258695716692"><ele>227.00000000000003</ele><time>2026-04-11T10:10:32Z</time></trkpt><trkpt lat="45.07196994778468" lon="7.728191559772422"><ele>227.0</ele><time>2026-04-11T10:10:33Z</time></trkpt><trkpt lat="45.07189485437348" lon="7.728128529262463"><ele>227.0</ele><time>2026-04-11T10:10:34Z</time></trkpt><trkpt lat="45.07183175474527" lon="7.728065910321257"><ele>227.0</ele><time>2026-04-11T10:10:35Z</time></trkpt><trkpt lat="45.07176612563906" lon="7.728006423089233"><ele>227.00000000000003</ele><time>2026-04-11T10:10:36Z</time></trkpt><trkpt lat="45.071698583511676" lon="7.7279454955256215"><ele>227.0</ele><time>2026-04-11T10:10:37Z</time></trkpt><trkpt lat="45.07163483655396" lon="7.72788547814504"><ele>227.50000000000003</ele><time>2026-04-11T10:10:38Z</time></trkpt><trkpt lat="45.07156900159007" lon="7.727829079887451"><ele>228.0</ele><time>2026-04-11T10:10:39Z</time></trkpt><trkpt lat="45.07150370778071" lon="7.727771837596664"><ele>228.5</ele><time>2026-04-11T10:10:40Z</time></trkpt><trkpt lat="45.0714372494766" lon="7.727710933747865"><ele>229.0</ele><time>2026-04-11T10:10:41Z</time></trkpt><trkpt lat="45.07137432719453" lon="7.727656959740043"><ele>229.50000000000003</ele><time>2026-04-11T10:10:42Z</time></trkpt><trkpt lat="45.071317489412365" lon="7.72760728928883"><ele>230.0</ele><time>2026-04-11T10:10:43Z</time></trkpt><trkpt lat="45.071253306863625" lon="7.727548713544808"><ele>228.25</ele><time>2026-04-11T10:10:44Z</time></trkpt><trkpt lat="45.07117852669483" lon="7.727483234794622"><ele>226.5</ele><time>2026-04-11T10:10:45Z</time></trkpt><trkpt lat="45.071080317221565" lon="7.727397483631286"><ele>224.75</ele><time>2026-04-11T10:10:46Z</time></trkpt><trkpt lat="45.07095969814158" lon="7.727289233410893"><ele>223.0</ele><time>2026-04-11T10:10:47Z</time></trkpt><trkpt lat="45.07086194551975" lon="7.72719623774617"><ele>222.99999999999997</ele><time>2026-04-11T10:10:48Z</time></trkpt><trkpt lat="45.07077273360123" lon="7.727120569278648"><ele>223.0</ele><time>2026-04-11T10:10:49Z</time></trkpt><trkpt lat="45.07069339665661" lon="7.727053390687576"><ele>223.0</ele><time>2026-04-11T10:10:50Z</time></trkpt><trkpt lat="45.07062150744705" lon="7.7269984863839"><ele>223.0</ele><time>2026-04-11T10:10:51Z</time></trkpt><trkpt lat="45.07056604955113" lon="7.726945058387172"><ele>222.99999999999997</ele><time>2026-04-11T10:10:52Z</time></trkpt><trkpt lat="45.07048694726687" lon="7.726875677047621"><ele>223.0</ele><time>2026-04-11T10:10:54Z</time></trkpt><trkpt lat="45.07041370693374" lon="7.726826253142799"><ele>223.0</ele><time>2026-04-11T10:11:20Z</time></trkpt><trkpt lat="45.070324233165636" lon="7.726694369862038"><ele>223.0</ele><time>2026-04-11T10:11:22Z</time></trkpt><trkpt lat="45.07027878150189" lon="7.726610124610988"><ele>223.0</ele><time>2026-04-11T10:11:23Z</time></trkpt><trkpt lat="45.070233981711695" lon="7.72649759528901"><ele>223.0</ele><time>2026-04-11T10:11:24Z</time></trkpt><trkpt lat="45.07018888287713" lon="7.726385358921947"><ele>223.0</ele><time>2026-04-11T10:11:25Z</time></trkpt><trkpt lat="45.070189937361384" lon="7.7262575837162"><ele>222.0</ele><time>2026-04-11T10:11:26Z</time></trkpt><trkpt lat="45.07015343046195" lon="7.726003000255625"><ele>221.0</ele><time>2026-04-11T10:11:28Z</time></trkpt><trkpt lat="45.07014107745162" lon="7.725869804538444"><ele>220.0</ele><time>2026-04-11T10:11:29Z</time></trkpt><trkpt lat="45.07012954446714" lon="7.725731946531116"><ele>219.0</ele><time>2026-04-11T10:11:30Z</time></trkpt><trkpt lat="45.07013136867556" lon="7.725579393777059"><ele>219.0</ele><time>2026-04-11T10:11:31Z</time></trkpt><trkpt lat="45.07010735210414" lon="7.725432185968721"><ele>218.99999999999997</ele><time>2026-04-11T10:11:32Z</time></trkpt><trkpt lat="45.07009094324137" lon="7.725291147420647"><ele>218.99999999999997</ele><time>2026-04-11T10:11:33Z</time></trkpt><trkpt lat="45.07009368617317" lon="7.725129542553961"><ele>219.0</ele><time>2026-04-11T10:11:34Z</time></trkpt><trkpt lat="45.070068363183225" lon="7.724973349639638"><ele>219.0</ele><time>2026-04-11T10:11:35Z</time></trkpt><trkpt lat="45.070050436016444" lon="7.724822818688693"><ele>219.0</ele><time>2026-04-11T10:11:36Z</time></trkpt><trkpt lat="45.07002461291336" lon="7.7246707867497495"><ele>219.0</ele><time>2026-04-11T10:11:37Z</time></trkpt><trkpt lat="45.0700005564148" lon="7.7245159741654"><ele>219.0</ele><time>2026-04-11T10:11:38Z</time></trkpt><trkpt lat="45.069968318991734" lon="7.724360958096937"><ele>219.0</ele><time>2026-04-11T10:11:39Z</time></trkpt><trkpt lat="45.06992358370612" lon="7.724205536463303"><ele>219.25</ele><time>2026-04-11T10:11:40Z</time></trkpt><trkpt lat="45.06988356971567" lon="7.724025574633514"><ele>219.5</ele><time>2026-04-11T10:11:41Z</time></trkpt><trkpt lat="45.069859708874496" lon="7.723828124072643"><ele>219.75</ele><time>2026-04-11T10:11:42Z</time></trkpt><trkpt lat="45.06983335706444" lon="7.723620310522246"><ele>220.0</ele><time>2026-04-11T10:11:43Z</time></trkpt><trkpt lat="45.0697874664283" lon="7.7233933787649995"><ele>220.0</ele><time>2026-04-11T10:11:44Z</time></trkpt><trkpt lat="45.06976207122597" lon="7.723155606022074"><ele>220.0</ele><time>2026-04-11T10:11:45Z</time></trkpt><trkpt lat="45.06971114005933" lon="7.722937602438427"><ele>220.0</ele><time>2026-04-11T10:11:46Z</time></trkpt><trkpt lat="45.06966867638074" lon="7.722694431237053"><ele>219.75</ele><time>2026-04-11T10:11:47Z</time></trkpt><trkpt lat="45.069629438055294" lon="7.72248280858969"><ele>219.5</ele><time>2026-04-11T10:11:48Z</time></trkpt><trkpt lat="45.06959185706894" lon="7.722283185735524"><ele>219.25</ele><time>2026-04-11T10:11:49Z</time></trkpt><trkpt lat="45.0695590085764" lon="7.72209393767968"><ele>219.0</ele><time>2026-04-11T10:11:50Z</time></trkpt><trkpt lat="45.069525050225785" lon="7.721908654591522"><ele>219.2</ele><time>2026-04-11T10:11:51Z</time></trkpt><trkpt lat="45.06951192315646" lon="7.7217373222533245"><ele>219.39999999999998</ele><time>2026-04-11T10:11:52Z</time></trkpt><trkpt lat="45.0694714080712" lon="7.721593103371325"><ele>219.6</ele><time>2026-04-11T10:11:53Z</time></trkpt><trkpt lat="45.0694506435597" lon="7.721451353176506"><ele>219.8</ele><time>2026-04-11T10:11:54Z</time></trkpt><trkpt lat="45.06943107047586" lon="7.721348351801052"><ele>220.0</ele><time>2026-04-11T10:11:55Z</time></trkpt><trkpt lat="45.06942742906109" lon="7.72125734234601"><ele>220.0</ele><time>2026-04-11T10:11:56Z</time></trkpt><trkpt lat="45.06940550798542" lon="7.721131367472487"><ele>220.0</ele><time>2026-04-11T10:11:58Z</time></trkpt><trkpt lat="45.06938098521273" lon="7.720990441257999"><ele>220.0</ele><time>2026-04-11T10:12:08Z</time></trkpt><trkpt lat="45.06936054511345" lon="7.720872977075484"><ele>220.0</ele><time>2026-04-11T10:12:09Z</time></trkpt><trkpt lat="45.069339192508515" lon="7.72078197476721"><ele>220.0</ele><time>2026-04-11T10:12:10Z</time></trkpt><trkpt lat="45.06930679299934" lon="7.72060205232486"><ele>220.25</ele><time>2026-04-11T10:12:12Z</time></trkpt><trkpt lat="45.069278049778426" lon="7.720436383123526"><ele>220.5</ele><time>2026-04-11T10:12:13Z</time></trkpt><trkpt lat="45.06924416696104" lon="7.720241776607929"><ele>220.75</ele><time>2026-04-11T10:12:14Z</time></trkpt><trkpt lat="45.069205701793344" lon="7.720010815024278"><ele>221.0</ele><time>2026-04-11T10:12:15Z</time></trkpt><trkpt lat="45.06917078054246" lon="7.719793374339118"><ele>221.25</ele><time>2026-04-11T10:12:16Z</time></trkpt><trkpt lat="45.06912803254867" lon="7.719579597816946"><ele>221.5</ele><time>2026-04-11T10:12:17Z</time></trkpt><trkpt lat="45.06909365690675" lon="7.719393619950512"><ele>221.75</ele><time>2026-04-11T10:12:18Z</time></trkpt><trkpt lat="45.069062626241724" lon="7.719222929892309"><ele>222.0</ele><time>2026-04-11T10:12:19Z</time></trkpt><trkpt lat="45.06903293520664" lon="7.719063462594181"><ele>221.66666666666666</ele><time>2026-04-11T10:12:20Z</time></trkpt><trkpt lat="45.069007758041046" lon="7.71891090471846"><ele>221.33333333333331</ele><time>2026-04-11T10:12:21Z</time></trkpt><trkpt lat="45.06898630287122" lon="7.718775775651199"><ele>221.0</ele><time>2026-04-11T10:12:22Z</time></trkpt><trkpt lat="45.06896279342769" lon="7.718656295051969"><ele>220.66666666666666</ele><time>2026-04-11T10:12:23Z</time></trkpt><trkpt lat="45.068947724666494" lon="7.718550489666332"><ele>220.33333333333331</ele><time>2026-04-11T10:12:24Z</time></trkpt><trkpt lat="45.06892681529448" lon="7.718453496231682"><ele>220.0</ele><time>2026-04-11T10:12:25Z</time></trkpt><trkpt lat="45.06891016506419" lon="7.718363356236158"><ele>220.0</ele><time>2026-04-11T10:12:26Z</time></trkpt><trkpt lat="45.06889539494625" lon="7.718266483215734"><ele>220.0</ele><time>2026-04-11T10:12:27Z</time></trkpt><trkpt lat="45.068877521095516" lon="7.718179171712833"><ele>220.0</ele><time>2026-04-11T10:12:28Z</time></trkpt><trkpt lat="45.06886535574833" lon="7.71803376060247"><ele>220.0</ele><time>2026-04-11T10:12:29Z</time></trkpt><trkpt lat="45.068832491476414" lon="7.717847066451631"><ele>220.0</ele><time>2026-04-11T10:12:30Z</time></trkpt><trkpt lat="45.06880235066768" lon="7.717675843631522"><ele>220.5</ele><time>2026-04-11T10:12:31Z</time></trkpt><trkpt lat="45.068760202042924" lon="7.71751205859048"><ele>221.0</ele><time>2026-04-11T10:12:32Z</time></trkpt><trkpt lat="45.06873449807182" lon="7.717350233240844"><ele>221.5</ele><time>2026-04-11T10:12:33Z</time></trkpt><trkpt lat="45.068706950586275" lon="7.7171912024300315"><ele>222.0</ele><time>2026-04-11T10:12:34Z</time></trkpt><trkpt lat="45.06868227872682" lon="7.717041272057594"><ele>222.0</ele><time>2026-04-11T10:12:35Z</time></trkpt><trkpt lat="45.06865978761106" lon="7.716916300225351"><ele>222.0</ele><time>2026-04-11T10:12:36Z</time></trkpt><trkpt lat="45.06864365082638" lon="7.716827404084197"><ele>222.0</ele><time>2026-04-11T10:12:37Z</time></trkpt><trkpt lat="45.068613081436105" lon="7.716681300299213"><ele>222.0</ele><time>2026-04-11T10:12:39Z</time></trkpt><trkpt lat="45.06860080618354" lon="7.716571886529836"><ele>222.0</ele><time>2026-04-11T10:12:41Z</time></trkpt><trkpt lat="45.06857759504563" lon="7.7164648971404235"><ele>222.0</ele><time>2026-04-11T10:12:43Z</time></trkpt><trkpt lat="45.068550134794855" lon="7.716265394911559"><ele>222.0</ele><time>2026-04-11T10:12:45Z</time></trkpt><trkpt lat="45.06852048530049" lon="7.716122375961647"><ele>222.0</ele><time>2026-04-11T10:12:46Z</time></trkpt><trkpt lat="45.068501656403434" lon="7.71599809983783"><ele>222.0</ele><time>2026-04-11T10:12:47Z</time></trkpt><trkpt lat="45.068479185436715" lon="7.715886378187212"><ele>222.0</ele><time>2026-04-11T10:12:48Z</time></trkpt><trkpt lat="45.06846151839069" lon="7.71578118921349"><ele>222.0</ele><time>2026-04-11T10:12:49Z</time></trkpt><trkpt lat="45.068448410137464" lon="7.715677186019547"><ele>222.0</ele><time>2026-04-11T10:12:50Z</time></trkpt><trkpt lat="45.06842848876344" lon="7.7155869130516574"><ele>222.2</ele><time>2026-04-11T10:12:51Z</time></trkpt><trkpt lat="45.06840873073568" lon="7.7154606762292985"><ele>222.39999999999998</ele><time>2026-04-11T10:12:53Z</time></trkpt><trkpt lat="45.068378563846316" lon="7.715295982206605"><ele>222.60000000000002</ele><time>2026-04-11T10:13:08Z</time></trkpt><trkpt lat="45.06835915547781" lon="7.71516151374657"><ele>222.8</ele><time>2026-04-11T10:13:09Z</time></trkpt><trkpt lat="45.068334182120886" lon="7.715032566747353"><ele>223.0</ele><time>2026-04-11T10:13:10Z</time></trkpt><trkpt lat="45.068311658179475" lon="7.714902550992146"><ele>223.0</ele><time>2026-04-11T10:13:11Z</time></trkpt><trkpt lat="45.06828367452751" lon="7.714774919264719"><ele>223.0</ele><time>2026-04-11T10:13:12Z</time></trkpt><trkpt lat="45.06826313541518" lon="7.714640984241418"><ele>223.0</ele><time>2026-04-11T10:13:13Z</time></trkpt><trkpt lat="45.068237791695836" lon="7.714514189063538"><ele>223.0</ele><time>2026-04-11T10:13:14Z</time></trkpt><trkpt lat="45.06823008222374" lon="7.714378043094165"><ele>223.0</ele><time>2026-04-11T10:13:15Z</time></trkpt><trkpt lat="45.068191259223184" lon="7.714256121487351"><ele>223.33333333333331</ele><time>2026-04-11T10:13:16Z</time></trkpt><trkpt lat="45.06816854571576" lon="7.71412165054609"><ele>223.66666666666666</ele><time>2026-04-11T10:13:17Z</time></trkpt><trkpt lat="45.06814799709096" lon="7.71398443055961"><ele>224.0</ele><time>2026-04-11T10:13:18Z</time></trkpt><trkpt lat="45.06812542468369" lon="7.713857805847126"><ele>224.33333333333331</ele><time>2026-04-11T10:13:19Z</time></trkpt><trkpt lat="45.06810692245086" lon="7.71375181602931"><ele>224.66666666666666</ele><time>2026-04-11T10:13:20Z</time></trkpt><trkpt lat="45.068090746009524" lon="7.713662785414837"><ele>225.0</ele><time>2026-04-11T10:13:21Z</time></trkpt><trkpt lat="45.06806219698851" lon="7.713512185471954"><ele>225.2</ele><time>2026-04-11T10:13:23Z</time></trkpt><trkpt lat="45.06804021283492" lon="7.713372739542919"><ele>225.4</ele><time>2026-04-11T10:13:25Z</time></trkpt><trkpt lat="45.0680087422311" lon="7.713194526265445"><ele>225.60000000000002</ele><time>2026-04-11T10:13:27Z</time></trkpt><trkpt lat="45.06799523037605" lon="7.713085570531004"><ele>225.8</ele><time>2026-04-11T10:13:28Z</time></trkpt><trkpt lat="45.06797777772908" lon="7.712974532169832"><ele>226.0</ele><time>2026-04-11T10:13:29Z</time></trkpt><trkpt lat="45.0679568889831" lon="7.712866486449976"><ele>226.0</ele><time>2026-04-11T10:13:30Z</time></trkpt><trkpt lat="45.067937768340954" lon="7.712760691088535"><ele>226.00000000000003</ele><time>2026-04-11T10:13:31Z</time></trkpt><trkpt lat="45.06792243556088" lon="7.7126708176348355"><ele>226.00000000000003</ele><time>2026-04-11T10:13:32Z</time></trkpt><trkpt lat="45.067894104300194" lon="7.712510278431614"><ele>226.0</ele><time>2026-04-11T10:13:34Z</time></trkpt><trkpt lat="45.067862700424406" lon="7.7123613359946805"><ele>226.0</ele><time>2026-04-11T10:13:36Z</time></trkpt><trkpt lat="45.067852772566084" lon="7.712220366763412"><ele>225.49999999999997</ele><time>2026-04-11T10:13:38Z</time></trkpt><trkpt lat="45.0678224254096" lon="7.712046925345499"><ele>225.0</ele><time>2026-04-11T10:13:40Z</time></trkpt><trkpt lat="45.06780522685906" lon="7.711948612276742"><ele>224.5</ele><time>2026-04-11T10:13:41Z</time></trkpt><trkpt lat="45.067785624247776" lon="7.711836556724034"><ele>224.0</ele><time>2026-04-11T10:13:42Z</time></trkpt><trkpt lat="45.06776498762346" lon="7.711718590382106"><ele>223.49999999999997</ele><time>2026-04-11T10:13:43Z</time></trkpt><trkpt lat="45.06774586294461" lon="7.711609266875772"><ele>223.0</ele><time>2026-04-11T10:13:44Z</time></trkpt><trkpt lat="45.06772861930433" lon="7.711510696025792"><ele>223.0</ele><time>2026-04-11T10:13:45Z</time></trkpt><trkpt lat="45.06770425139341" lon="7.711371400344872"><ele>223.0</ele><time>2026-04-11T10:13:47Z</time></trkpt><trkpt lat="45.0676721527232" lon="7.711263603701544"><ele>223.0</ele><time>2026-04-11T10:13:49Z</time></trkpt><trkpt lat="45.06765284525697" lon="7.711099089090218"><ele>223.0</ele><time>2026-04-11T10:13:51Z</time></trkpt><trkpt lat="45.06763487054691" lon="7.711004217755823"><ele>223.0</ele><time>2026-04-11T10:13:52Z</time></trkpt><trkpt lat="45.06761194196721" lon="7.710895778625135"><ele>223.16666666666666</ele><time>2026-04-11T10:13:53Z</time></trkpt><trkpt lat="45.067593010426144" lon="7.7107839748340625"><ele>223.33333333333331</ele><time>2026-04-11T10:13:54Z</time></trkpt><trkpt lat="45.06757501013036" lon="7.710671532246079"><ele>223.5</ele><time>2026-04-11T10:13:55Z</time></trkpt><trkpt lat="45.067555939598385" lon="7.710556062554183"><ele>223.66666666666669</ele><time>2026-04-11T10:13:56Z</time></trkpt><trkpt lat="45.06753515577082" lon="7.7104352066726785"><ele>223.83333333333334</ele><time>2026-04-11T10:13:57Z</time></trkpt><trkpt lat="45.067515048002114" lon="7.710320447393955"><ele>224.0</ele><time>2026-04-11T10:13:58Z</time></trkpt><trkpt lat="45.067495970522295" lon="7.710205995022479"><ele>223.66666666666669</ele><time>2026-04-11T10:13:59Z</time></trkpt><trkpt lat="45.06747929464929" lon="7.710100556021107"><ele>223.33333333333334</ele><time>2026-04-11T10:14:00Z</time></trkpt><trkpt lat="45.067459272841205" lon="7.709998631882068"><ele>223.0</ele><time>2026-04-11T10:14:01Z</time></trkpt><trkpt lat="45.067438177780055" lon="7.709900400489689"><ele>222.66666666666669</ele><time>2026-04-11T10:14:02Z</time></trkpt><trkpt lat="45.06742080288572" lon="7.709812498070923"><ele>222.33333333333334</ele><time>2026-04-11T10:14:03Z</time></trkpt><trkpt lat="45.067400329792285" lon="7.709679607993462"><ele>222.0</ele><time>2026-04-11T10:14:05Z</time></trkpt><trkpt lat="45.06739599321735" lon="7.70957367682774"><ele>222.8</ele><time>2026-04-11T10:14:07Z</time></trkpt><trkpt lat="45.067387091929035" lon="7.70944771546028"><ele>223.6</ele><time>2026-04-11T10:14:09Z</time></trkpt><trkpt lat="45.06735940388685" lon="7.709295689267132"><ele>224.40000000000003</ele><time>2026-04-11T10:14:11Z</time></trkpt><trkpt lat="45.06732605277146" lon="7.7092188604467715"><ele>225.20000000000002</ele><time>2026-04-11T10:14:47Z</time></trkpt><trkpt lat="45.067276282911735" lon="7.709020022642928"><ele>226.0</ele><time>2026-04-11T10:15:07Z</time></trkpt><trkpt lat="45.06724467601531" lon="7.708903112556034"><ele>226.0</ele><time>2026-04-11T10:15:08Z</time></trkpt><trkpt lat="45.06720039696646" lon="7.708760823202564"><ele>226.0</ele><time>2026-04-11T10:15:09Z</time></trkpt><trkpt lat="45.06713567855582" lon="7.708579624155903"><ele>226.0</ele><time>2026-04-11T10:15:10Z</time></trkpt><trkpt lat="45.06706826163261" lon="7.708398110879779"><ele>226.0</ele><time>2026-04-11T10:15:11Z</time></trkpt><trkpt lat="45.0669884682236" lon="7.708182200606321"><ele>225.66666666666666</ele><time>2026-04-11T10:15:12Z</time></trkpt><trkpt lat="45.06689300216233" lon="7.707934605614507"><ele>225.33333333333331</ele><time>2026-04-11T10:15:13Z</time></trkpt><trkpt lat="45.06679728840225" lon="7.70769788509861"><ele>225.0</ele><time>2026-04-11T10:15:14Z</time></trkpt><trkpt lat="45.066709118346054" lon="7.707482877606945"><ele>225.0</ele><time>2026-04-11T10:15:15Z</time></trkpt><trkpt lat="45.066621171861456" lon="7.707272630352583"><ele>225.0</ele><time>2026-04-11T10:15:16Z</time></trkpt><trkpt lat="45.06656195612867" lon="7.7070741481258835"><ele>225.0</ele><time>2026-04-11T10:15:17Z</time></trkpt><trkpt lat="45.066501726139" lon="7.706915441972802"><ele>225.66666666666669</ele><time>2026-04-11T10:15:18Z</time></trkpt><trkpt lat="45.06644412610831" lon="7.706763220341797"><ele>226.33333333333334</ele><time>2026-04-11T10:15:19Z</time></trkpt><trkpt lat="45.06639170450408" lon="7.706629115811654"><ele>227.0</ele><time>2026-04-11T10:15:20Z</time></trkpt><trkpt lat="45.066281629654185" lon="7.706348454477865"><ele>227.0</ele><time>2026-04-11T10:15:21Z</time></trkpt><trkpt lat="45.06622475648519" lon="7.706203682026015"><ele>227.0</ele><time>2026-04-11T10:15:22Z</time></trkpt><trkpt lat="45.06616730441241" lon="7.706051105532679"><ele>227.0</ele><time>2026-04-11T10:15:23Z</time></trkpt><trkpt lat="45.066091604801635" lon="7.705868331214359"><ele>227.0</ele><time>2026-04-11T10:15:24Z</time></trkpt><trkpt lat="45.066000250064164" lon="7.705651249960167"><ele>227.0</ele><time>2026-04-11T10:15:25Z</time></trkpt><trkpt lat="45.065903815471465" lon="7.705400096408154"><ele>227.0</ele><time>2026-04-11T10:15:26Z</time></trkpt><trkpt lat="45.06581306146151" lon="7.705119240220799"><ele>227.0</ele><time>2026-04-11T10:15:27Z</time></trkpt><trkpt lat="45.06570015888499" lon="7.7048720128012755"><ele>228.0</ele><time>2026-04-11T10:15:28Z</time></trkpt><trkpt lat="45.06558881071511" lon="7.704585235962823"><ele>229.0</ele><time>2026-04-11T10:15:29Z</time></trkpt><trkpt lat="45.06549105900459" lon="7.704278032569137"><ele>229.33333333333331</ele><time>2026-04-11T10:15:30Z</time></trkpt><trkpt lat="45.0653855605342" lon="7.7039990572549755"><ele>229.66666666666669</ele><time>2026-04-11T10:15:31Z</time></trkpt><trkpt lat="45.06528552624729" lon="7.703735411665635"><ele>230.0</ele><time>2026-04-11T10:15:32Z</time></trkpt><trkpt lat="45.0651772368471" lon="7.70345999876221"><ele>229.0</ele><time>2026-04-11T10:15:33Z</time></trkpt><trkpt lat="45.06506990860066" lon="7.703165679967144"><ele>228.0</ele><time>2026-04-11T10:15:34Z</time></trkpt><trkpt lat="45.064960638180246" lon="7.702879587507164"><ele>228.33333333333331</ele><time>2026-04-11T10:15:35Z</time></trkpt><trkpt lat="45.06485332287389" lon="7.702599216443654"><ele>228.66666666666666</ele><time>2026-04-11T10:15:36Z</time></trkpt><trkpt lat="45.06474891073498" lon="7.702334188209711"><ele>229.0</ele><time>2026-04-11T10:15:37Z</time></trkpt><trkpt lat="45.064651056689755" lon="7.702094042438439"><ele>229.0</ele><time>2026-04-11T10:15:38Z</time></trkpt><trkpt lat="45.06455963717001" lon="7.701865523582236"><ele>229.0</ele><time>2026-04-11T10:15:39Z</time></trkpt><trkpt lat="45.064460108361345" lon="7.701620877169482"><ele>229.0</ele><time>2026-04-11T10:15:40Z</time></trkpt><trkpt lat="45.064373396302244" lon="7.70134741124212"><ele>228.66666666666666</ele><time>2026-04-11T10:15:41Z</time></trkpt><trkpt lat="45.064269679834126" lon="7.701071038350448"><ele>228.33333333333331</ele><time>2026-04-11T10:15:42Z</time></trkpt><trkpt lat="45.06416414975753" lon="7.700798434216092"><ele>228.0</ele><time>2026-04-11T10:15:43Z</time></trkpt><trkpt lat="45.06404949821646" lon="7.700543157069624"><ele>227.66666666666669</ele><time>2026-04-11T10:15:44Z</time></trkpt><trkpt lat="45.063962900053085" lon="7.700262316881763"><ele>227.33333333333334</ele><time>2026-04-11T10:15:45Z</time></trkpt><trkpt lat="45.063870722810485" lon="7.7000193445142315"><ele>227.0</ele><time>2026-04-11T10:15:46Z</time></trkpt><trkpt lat="45.063773428230306" lon="7.699807655348885"><ele>226.66666666666669</ele><time>2026-04-11T10:15:47Z</time></trkpt><trkpt lat="45.063685923428686" lon="7.699612540006752"><ele>226.33333333333331</ele><time>2026-04-11T10:15:48Z</time></trkpt><trkpt lat="45.06359605621049" lon="7.6994482213123145"><ele>226.0</ele><time>2026-04-11T10:15:49Z</time></trkpt><trkpt lat="45.063489960441856" lon="7.699310579839409"><ele>225.5</ele><time>2026-04-11T10:15:50Z</time></trkpt><trkpt lat="45.063384231159574" lon="7.699192171670388"><ele>225.0</ele><time>2026-04-11T10:15:51Z</time></trkpt><trkpt lat="45.06328640288464" lon="7.699082389495138"><ele>224.5</ele><time>2026-04-11T10:15:52Z</time></trkpt><trkpt lat="45.06320698247504" lon="7.698980680962872"><ele>224.0</ele><time>2026-04-11T10:15:53Z</time></trkpt><trkpt lat="45.06314761254861" lon="7.698893468806558"><ele>223.83333333333334</ele><time>2026-04-11T10:15:54Z</time></trkpt><trkpt lat="45.063093567556656" lon="7.698818972597431"><ele>223.66666666666669</ele><time>2026-04-11T10:15:55Z</time></trkpt><trkpt lat="45.06303777464493" lon="7.698741685538988"><ele>223.5</ele><time>2026-04-11T10:15:57Z</time></trkpt><trkpt lat="45.06307688375871" lon="7.698664134677551"><ele>223.33333333333331</ele><time>2026-04-11T10:16:01Z</time></trkpt><trkpt lat="45.063016498163044" lon="7.698593427250019"><ele>223.16666666666666</ele><time>2026-04-11T10:16:38Z</time></trkpt><trkpt lat="45.062930213365675" lon="7.698504909780402"><ele>223.0</ele><time>2026-04-11T10:16:40Z</time></trkpt><trkpt lat="45.06288853351083" lon="7.69843277376094"><ele>222.83333333333331</ele><time>2026-04-11T10:16:43Z</time></trkpt><trkpt lat="45.062956693252964" lon="7.698300888990632"><ele>222.66666666666666</ele><time>2026-04-11T10:16:44Z</time></trkpt><trkpt lat="45.06303006689242" lon="7.698201568640265"><ele>222.5</ele><time>2026-04-11T10:16:46Z</time></trkpt><trkpt lat="45.06307888706086" lon="7.698128869491806"><ele>222.33333333333331</ele><time>2026-04-11T10:16:47Z</time></trkpt><trkpt lat="45.063132094678515" lon="7.698049637059826"><ele>222.16666666666666</ele><time>2026-04-11T10:16:48Z</time></trkpt><trkpt lat="45.06318924250242" lon="7.697964537127885"><ele>222.0</ele><time>2026-04-11T10:16:49Z</time></trkpt><trkpt lat="45.063246542560385" lon="7.697877373634005"><ele>221.16666666666666</ele><time>2026-04-11T10:16:50Z</time></trkpt><trkpt lat="45.06329607852174" lon="7.6978002173217135"><ele>220.33333333333331</ele><time>2026-04-11T10:16:51Z</time></trkpt><trkpt lat="45.06334652787109" lon="7.697720102149299"><ele>219.5</ele><time>2026-04-11T10:16:52Z</time></trkpt><trkpt lat="45.063398528773696" lon="7.697635535760208"><ele>218.66666666666666</ele><time>2026-04-11T10:16:53Z</time></trkpt><trkpt lat="45.06345123554257" lon="7.697549821470877"><ele>217.83333333333331</ele><time>2026-04-11T10:16:54Z</time></trkpt><trkpt lat="45.063504061366054" lon="7.697463547374011"><ele>217.0</ele><time>2026-04-11T10:16:55Z</time></trkpt><trkpt lat="45.063542505117056" lon="7.69736546966968"><ele>216.49999999999997</ele><time>2026-04-11T10:16:56Z</time></trkpt><trkpt lat="45.063591520631206" lon="7.697301824200568"><ele>216.0</ele><time>2026-04-11T10:16:57Z</time></trkpt><trkpt lat="45.06367085946706" lon="7.697190748761596"><ele>215.5</ele><time>2026-04-11T10:16:59Z</time></trkpt><trkpt lat="45.06372031731339" lon="7.697075767168612"><ele>215.0</ele><time>2026-04-11T10:17:01Z</time></trkpt><trkpt lat="45.06378677459859" lon="7.697005605102668"><ele>214.49999999999997</ele><time>2026-04-11T10:17:03Z</time></trkpt><trkpt lat="45.06384953314348" lon="7.696909051278186"><ele>214.0</ele><time>2026-04-11T10:17:05Z</time></trkpt><trkpt lat="45.063921852932424" lon="7.696797795231098"><ele>216.0</ele><time>2026-04-11T10:17:21Z</time></trkpt><trkpt lat="45.06396038919464" lon="7.696715571954884"><ele>217.99999999999997</ele><time>2026-04-11T10:17:22Z</time></trkpt><trkpt lat="45.064027064898895" lon="7.696621601854428"><ele>219.99999999999997</ele><time>2026-04-11T10:17:23Z</time></trkpt><trkpt lat="45.06408984457145" lon="7.696539891780566"><ele>222.0</ele><time>2026-04-11T10:17:24Z</time></trkpt><trkpt lat="45.06415957582153" lon="7.696442326170964"><ele>224.0</ele><time>2026-04-11T10:17:25Z</time></trkpt><trkpt lat="45.064257780824356" lon="7.696315503576673"><ele>224.0</ele><time>2026-04-11T10:17:26Z</time></trkpt><trkpt lat="45.06437103813682" lon="7.696166742526126"><ele>224.0</ele><time>2026-04-11T10:17:27Z</time></trkpt><trkpt lat="45.06446200207778" lon="7.696038817141"><ele>224.0</ele><time>2026-04-11T10:17:28Z</time></trkpt><trkpt lat="45.06453524555197" lon="7.6959280546565765"><ele>224.0</ele><time>2026-04-11T10:17:29Z</time></trkpt><trkpt lat="45.0646099464434" lon="7.695821458949474"><ele>224.79999999999998</ele><time>2026-04-11T10:17:30Z</time></trkpt><trkpt lat="45.0646734813327" lon="7.695689868742748"><ele>225.59999999999997</ele><time>2026-04-11T10:17:31Z</time></trkpt><trkpt lat="45.06474793363319" lon="7.695575406736718"><ele>226.4</ele><time>2026-04-11T10:17:32Z</time></trkpt><trkpt lat="45.0648275177576" lon="7.695478449490286"><ele>227.2</ele><time>2026-04-11T10:17:33Z</time></trkpt><trkpt lat="45.06490003597795" lon="7.695371080495438"><ele>228.0</ele><time>2026-04-11T10:17:34Z</time></trkpt><trkpt lat="45.06495852627218" lon="7.69525097944101"><ele>228.2</ele><time>2026-04-11T10:17:35Z</time></trkpt><trkpt lat="45.06502583589649" lon="7.695147003857258"><ele>228.4</ele><time>2026-04-11T10:17:36Z</time></trkpt><trkpt lat="45.065089277424974" lon="7.695049073311551"><ele>228.59999999999997</ele><time>2026-04-11T10:17:37Z</time></trkpt><trkpt lat="45.06516020889913" lon="7.694939760602715"><ele>228.79999999999998</ele><time>2026-04-11T10:17:38Z</time></trkpt><trkpt lat="45.06521803555022" lon="7.694844389582364"><ele>229.0</ele><time>2026-04-11T10:17:39Z</time></trkpt><trkpt lat="45.065275740369785" lon="7.694719026175261"><ele>229.0</ele><time>2026-04-11T10:17:40Z</time></trkpt><trkpt lat="45.06534029536397" lon="7.694596969886821"><ele>228.99999999999997</ele><time>2026-04-11T10:17:41Z</time></trkpt><trkpt lat="45.065412463828665" lon="7.694486064787408"><ele>228.99999999999997</ele><time>2026-04-11T10:17:42Z</time></trkpt><trkpt lat="45.065472751982774" lon="7.694385716601307"><ele>229.0</ele><time>2026-04-11T10:17:43Z</time></trkpt><trkpt lat="45.06552271724042" lon="7.694308606260469"><ele>229.0</ele><time>2026-04-11T10:17:44Z</time></trkpt><trkpt lat="45.0656039569612" lon="7.694189715934228"><ele>229.79999999999998</ele><time>2026-04-11T10:17:46Z</time></trkpt><trkpt lat="45.06566623630713" lon="7.6941004717424075"><ele>230.59999999999997</ele><time>2026-04-11T10:17:47Z</time></trkpt><trkpt lat="45.065731926422025" lon="7.694002470374834"><ele>231.4</ele><time>2026-04-11T10:17:48Z</time></trkpt><trkpt lat="45.06580298102986" lon="7.693900218080224"><ele>232.2</ele><time>2026-04-11T10:17:49Z</time></trkpt><trkpt lat="45.06587193984574" lon="7.693802070908335"><ele>233.0</ele><time>2026-04-11T10:17:50Z</time></trkpt><trkpt lat="45.065927688485786" lon="7.693715166464358"><ele>233.2</ele><time>2026-04-11T10:17:51Z</time></trkpt><trkpt lat="45.06598725194577" lon="7.693615791580126"><ele>233.4</ele><time>2026-04-11T10:17:53Z</time></trkpt><trkpt lat="45.06606836199373" lon="7.693500092731084"><ele>233.59999999999997</ele><time>2026-04-11T10:17:56Z</time></trkpt><trkpt lat="45.06612388505581" lon="7.693429855293052"><ele>233.79999999999998</ele><time>2026-04-11T10:17:57Z</time></trkpt><trkpt lat="45.066192525879" lon="7.693349029329455"><ele>234.0</ele><time>2026-04-11T10:17:58Z</time></trkpt><trkpt lat="45.06626265342492" lon="7.693257863558156"><ele>235.0</ele><time>2026-04-11T10:17:59Z</time></trkpt><trkpt lat="45.066326895663536" lon="7.693158465917129"><ele>236.0</ele><time>2026-04-11T10:18:00Z</time></trkpt><trkpt lat="45.066379417007106" lon="7.6930712051256025"><ele>237.0</ele><time>2026-04-11T10:18:01Z</time></trkpt><trkpt lat="45.06642725320271" lon="7.69299528049219"><ele>238.0</ele><time>2026-04-11T10:18:02Z</time></trkpt><trkpt lat="45.066491006459934" lon="7.692890044761051"><ele>239.0</ele><time>2026-04-11T10:18:04Z</time></trkpt><trkpt lat="45.06653927743694" lon="7.692780859242671"><ele>240.0</ele><time>2026-04-11T10:18:21Z</time></trkpt><trkpt lat="45.06659299750309" lon="7.692700736888308"><ele>240.75</ele><time>2026-04-11T10:18:22Z</time></trkpt><trkpt lat="45.06664966086043" lon="7.692594919113589"><ele>241.5</ele><time>2026-04-11T10:18:23Z</time></trkpt><trkpt lat="45.066726648290114" lon="7.692470756695588"><ele>242.25</ele><time>2026-04-11T10:18:24Z</time></trkpt><trkpt lat="45.066821219633454" lon="7.692331844162656"><ele>243.0</ele><time>2026-04-11T10:18:25Z</time></trkpt><trkpt lat="45.066906568476504" lon="7.6922056960221585"><ele>243.0</ele><time>2026-04-11T10:18:26Z</time></trkpt><trkpt lat="45.06700162944318" lon="7.692060274034661"><ele>243.0</ele><time>2026-04-11T10:18:27Z</time></trkpt><trkpt lat="45.06709456651248" lon="7.691914053329038"><ele>243.0</ele><time>2026-04-11T10:18:28Z</time></trkpt><trkpt lat="45.06718803576577" lon="7.691768765213459"><ele>243.0</ele><time>2026-04-11T10:18:29Z</time></trkpt><trkpt lat="45.067279842287526" lon="7.69162334416622"><ele>243.5</ele><time>2026-04-11T10:18:30Z</time></trkpt><trkpt lat="45.067373808437075" lon="7.691479266715627"><ele>244.0</ele><time>2026-04-11T10:18:31Z</time></trkpt><trkpt lat="45.06746930961064" lon="7.691333085353113"><ele>244.5</ele><time>2026-04-11T10:18:32Z</time></trkpt><trkpt lat="45.06756350829222" lon="7.6911871124059665"><ele>245.0</ele><time>2026-04-11T10:18:33Z</time></trkpt><trkpt lat="45.06765659297503" lon="7.691043800380916"><ele>245.0</ele><time>2026-04-11T10:18:34Z</time></trkpt><trkpt lat="45.06774918730694" lon="7.6909139968659"><ele>245.0</ele><time>2026-04-11T10:18:35Z</time></trkpt><trkpt lat="45.06783009987074" lon="7.690796997570729"><ele>245.0</ele><time>2026-04-11T10:18:36Z</time></trkpt><trkpt lat="45.06791578473502" lon="7.690679257919828"><ele>245.0</ele><time>2026-04-11T10:18:37Z</time></trkpt><trkpt lat="45.06800332516836" lon="7.690555557443348"><ele>245.0</ele><time>2026-04-11T10:18:38Z</time></trkpt><trkpt lat="45.06808663113763" lon="7.690425494625502"><ele>245.0</ele><time>2026-04-11T10:18:39Z</time></trkpt><trkpt lat="45.06816458128583" lon="7.690296295584209"><ele>245.0</ele><time>2026-04-11T10:18:40Z</time></trkpt><trkpt lat="45.06823497358745" lon="7.690168175538386"><ele>245.0</ele><time>2026-04-11T10:18:41Z</time></trkpt><trkpt lat="45.068307607194136" lon="7.6900410490888085"><ele>244.75</ele><time>2026-04-11T10:18:42Z</time></trkpt><trkpt lat="45.06838007080781" lon="7.689904584027363"><ele>244.5</ele><time>2026-04-11T10:18:43Z</time></trkpt><trkpt lat="45.068470993315685" lon="7.689782846544467"><ele>244.25</ele><time>2026-04-11T10:18:44Z</time></trkpt><trkpt lat="45.06854610494084" lon="7.689636808580167"><ele>244.0</ele><time>2026-04-11T10:18:45Z</time></trkpt><trkpt lat="45.06864283133765" lon="7.689506136051552"><ele>244.5</ele><time>2026-04-11T10:18:46Z</time></trkpt><trkpt lat="45.06873072093957" lon="7.6893768847894295"><ele>245.0</ele><time>2026-04-11T10:18:47Z</time></trkpt><trkpt lat="45.06881925353169" lon="7.689245845870673"><ele>245.5</ele><time>2026-04-11T10:18:48Z</time></trkpt><trkpt lat="45.06891055359158" lon="7.689100386844844"><ele>246.0</ele><time>2026-04-11T10:18:49Z</time></trkpt><trkpt lat="45.069005922479064" lon="7.688951509393675"><ele>246.0</ele><time>2026-04-11T10:18:50Z</time></trkpt><trkpt lat="45.06910451041189" lon="7.6888027236763525"><ele>246.0</ele><time>2026-04-11T10:18:51Z</time></trkpt><trkpt lat="45.069220386036804" lon="7.688656146883221"><ele>246.0</ele><time>2026-04-11T10:18:52Z</time></trkpt><trkpt lat="45.069337218387055" lon="7.688480882539705"><ele>246.5</ele><time>2026-04-11T10:18:53Z</time></trkpt><trkpt lat="45.06942680011782" lon="7.688368398393947"><ele>247.0</ele><time>2026-04-11T10:18:54Z</time></trkpt><trkpt lat="45.06948290616483" lon="7.68823132992851"><ele>247.5</ele><time>2026-04-11T10:18:55Z</time></trkpt><trkpt lat="45.06955015949913" lon="7.688104235759626"><ele>248.0</ele><time>2026-04-11T10:18:56Z</time></trkpt><trkpt lat="45.06964772985388" lon="7.687965001173166"><ele>248.0</ele><time>2026-04-11T10:18:57Z</time></trkpt><trkpt lat="45.0697281621821" lon="7.687841983377042"><ele>248.0</ele><time>2026-04-11T10:18:58Z</time></trkpt><trkpt lat="45.06980606826513" lon="7.68772128007725"><ele>248.0</ele><time>2026-04-11T10:18:59Z</time></trkpt><trkpt lat="45.06987927669055" lon="7.687607642974623"><ele>248.0</ele><time>2026-04-11T10:19:00Z</time></trkpt><trkpt lat="45.06994458320101" lon="7.687502328565076"><ele>248.0</ele><time>2026-04-11T10:19:01Z</time></trkpt><trkpt lat="45.0700009334084" lon="7.687418205986468"><ele>248.00000000000003</ele><time>2026-04-11T10:19:02Z</time></trkpt><trkpt lat="45.07005902604037" lon="7.687337588158465"><ele>248.0</ele><time>2026-04-11T10:19:03Z</time></trkpt><trkpt lat="45.07011231170928" lon="7.687261930067577"><ele>248.0</ele><time>2026-04-11T10:19:04Z</time></trkpt><trkpt lat="45.07015893656121" lon="7.6871902990006005"><ele>248.0</ele><time>2026-04-11T10:19:05Z</time></trkpt><trkpt lat="45.070207982057546" lon="7.687109415541023"><ele>248.00000000000003</ele><time>2026-04-11T10:19:07Z</time></trkpt><trkpt lat="45.0702704079273" lon="7.686988296530506"><ele>248.0</ele><time>2026-04-11T10:19:50Z</time></trkpt><trkpt lat="45.070325911261065" lon="7.686926387615603"><ele>248.00000000000003</ele><time>2026-04-11T10:19:51Z</time></trkpt><trkpt lat="45.07036040512779" lon="7.6868449010063475"><ele>248.0</ele><time>2026-04-11T10:19:52Z</time></trkpt><trkpt lat="45.070405386149" lon="7.686765558205456"><ele>248.0</ele><time>2026-04-11T10:19:54Z</time></trkpt><trkpt lat="45.07044689151066" lon="7.686692346158214"><ele>248.0</ele><time>2026-04-11T10:20:10Z</time></trkpt><trkpt lat="45.070523205578716" lon="7.686689320170984"><ele>248.00000000000003</ele><time>2026-04-11T10:20:11Z</time></trkpt><trkpt lat="45.07042966015179" lon="7.686528531748128"><ele>248.0</ele><time>2026-04-11T10:20:13Z</time></trkpt><trkpt lat="45.07037788379069" lon="7.68646105817943"><ele>248.00000000000003</ele><time>2026-04-11T10:20:14Z</time></trkpt><trkpt lat="45.07033224226298" lon="7.6863785047714135"><ele>248.0</ele><time>2026-04-11T10:20:15Z</time></trkpt><trkpt lat="45.070305957475234" lon="7.68629145995707"><ele>248.0</ele><time>2026-04-11T10:20:16Z</time></trkpt><trkpt lat="45.07030094713483" lon="7.6861781347023035"><ele>248.0</ele><time>2026-04-11T10:20:17Z</time></trkpt><trkpt lat="45.0703189015829" lon="7.686063179024073"><ele>248.00000000000003</ele><time>2026-04-11T10:20:18Z</time></trkpt><trkpt lat="45.07035680503298" lon="7.685938798140594"><ele>248.0</ele><time>2026-04-11T10:20:19Z</time></trkpt><trkpt lat="45.07041088103618" lon="7.685786926878465"><ele>247.75</ele><time>2026-04-11T10:20:20Z</time></trkpt><trkpt lat="45.070474553505505" lon="7.68561409032761"><ele>247.5</ele><time>2026-04-11T10:20:21Z</time></trkpt><trkpt lat="45.07054078940621" lon="7.6854394302083255"><ele>247.25</ele><time>2026-04-11T10:20:22Z</time></trkpt><trkpt lat="45.07060501602715" lon="7.685274522180004"><ele>247.0</ele><time>2026-04-11T10:20:23Z</time></trkpt><trkpt lat="45.07068529136201" lon="7.685084853493249"><ele>247.0</ele><time>2026-04-11T10:20:24Z</time></trkpt><trkpt lat="45.070747453623675" lon="7.684912954324967"><ele>247.0</ele><time>2026-04-11T10:20:25Z</time></trkpt><trkpt lat="45.0707934839446" lon="7.684767491940955"><ele>247.0</ele><time>2026-04-11T10:20:26Z</time></trkpt><trkpt lat="45.07082249402393" lon="7.684639248363138"><ele>247.0</ele><time>2026-04-11T10:20:27Z</time></trkpt><trkpt lat="45.07083448623437" lon="7.684517664000943"><ele>247.0</ele><time>2026-04-11T10:20:28Z</time></trkpt><trkpt lat="45.07083708385091" lon="7.684402918202746"><ele>246.99999999999997</ele><time>2026-04-11T10:20:29Z</time></trkpt><trkpt lat="45.070831362742865" lon="7.684304942090862"><ele>247.0</ele><time>2026-04-11T10:20:30Z</time></trkpt><trkpt lat="45.07081502598921" lon="7.684134957988833"><ele>247.0</ele><time>2026-04-11T10:20:32Z</time></trkpt><trkpt lat="45.070797794515286" lon="7.684020316828327"><ele>247.0</ele><time>2026-04-11T10:20:34Z</time></trkpt><trkpt lat="45.07078808343785" lon="7.6839246660648435"><ele>246.99999999999997</ele><time>2026-04-11T10:20:36Z</time></trkpt><trkpt lat="45.07078234785979" lon="7.683833507901519"><ele>247.0</ele><time>2026-04-11T10:20:37Z</time></trkpt><trkpt lat="45.07077695895459" lon="7.683742317949399"><ele>247.8</ele><time>2026-04-11T10:20:38Z</time></trkpt><trkpt lat="45.070767804485364" lon="7.6836495933086795"><ele>248.6</ele><time>2026-04-11T10:20:39Z</time></trkpt><trkpt lat="45.07074693036019" lon="7.683499067864035"><ele>249.40000000000003</ele><time>2026-04-11T10:20:41Z</time></trkpt><trkpt lat="45.07074766818505" lon="7.683332316496386"><ele>250.20000000000002</ele><time>2026-04-11T10:20:43Z</time></trkpt><trkpt lat="45.07074113404888" lon="7.683211361678899"><ele>251.0</ele><time>2026-04-11T10:20:45Z</time></trkpt><trkpt lat="45.07072977112886" lon="7.683021688038206"><ele>251.20000000000002</ele><time>2026-04-11T10:21:12Z</time></trkpt><trkpt lat="45.07071856748815" lon="7.682896522214722"><ele>251.40000000000003</ele><time>2026-04-11T10:21:13Z</time></trkpt><trkpt lat="45.070710441129734" lon="7.682764070071403"><ele>251.6</ele><time>2026-04-11T10:21:14Z</time></trkpt><trkpt lat="45.07070582257546" lon="7.682599399815118"><ele>251.8</ele><time>2026-04-11T10:21:15Z</time></trkpt><trkpt lat="45.070687838521714" lon="7.682430308224388"><ele>252.0</ele><time>2026-04-11T10:21:16Z</time></trkpt><trkpt lat="45.07067130735306" lon="7.682235993497353"><ele>252.0</ele><time>2026-04-11T10:21:17Z</time></trkpt><trkpt lat="45.07065774174136" lon="7.682054011362759"><ele>252.0</ele><time>2026-04-11T10:21:18Z</time></trkpt><trkpt lat="45.07064063745352" lon="7.6818514933567865"><ele>252.0</ele><time>2026-04-11T10:21:19Z</time></trkpt><trkpt lat="45.07062550909091" lon="7.681663773897407"><ele>252.0</ele><time>2026-04-11T10:21:20Z</time></trkpt><trkpt lat="45.07060946685967" lon="7.681481541965463"><ele>252.39999999999998</ele><time>2026-04-11T10:21:21Z</time></trkpt><trkpt lat="45.070596607130476" lon="7.68130867068058"><ele>252.79999999999998</ele><time>2026-04-11T10:21:22Z</time></trkpt><trkpt lat="45.07058415739562" lon="7.681144533314967"><ele>253.2</ele><time>2026-04-11T10:21:23Z</time></trkpt><trkpt lat="45.0705786047229" lon="7.681001517612073"><ele>253.6</ele><time>2026-04-11T10:21:24Z</time></trkpt><trkpt lat="45.070562777661706" lon="7.680871199140492"><ele>254.0</ele><time>2026-04-11T10:21:25Z</time></trkpt><trkpt lat="45.070559316230266" lon="7.680747478481905"><ele>254.6</ele><time>2026-04-11T10:21:26Z</time></trkpt><trkpt lat="45.07054932048361" lon="7.680636242433695"><ele>255.2</ele><time>2026-04-11T10:21:27Z</time></trkpt><trkpt lat="45.07052239386138" lon="7.6804208938895835"><ele>255.79999999999998</ele><time>2026-04-11T10:21:29Z</time></trkpt><trkpt lat="45.07051435375226" lon="7.680319708736116"><ele>256.4</ele><time>2026-04-11T10:21:30Z</time></trkpt><trkpt lat="45.07049987786479" lon="7.680220855832918"><ele>257.0</ele><time>2026-04-11T10:21:31Z</time></trkpt><trkpt lat="45.07047878910168" lon="7.680119122912645"><ele>257.0</ele><time>2026-04-11T10:21:32Z</time></trkpt><trkpt lat="45.07046451676716" lon="7.680006887736238"><ele>257.0</ele><time>2026-04-11T10:21:33Z</time></trkpt><trkpt lat="45.070454727497676" lon="7.679890226613192"><ele>257.0</ele><time>2026-04-11T10:21:34Z</time></trkpt><trkpt lat="45.07044511783183" lon="7.679776243776647"><ele>257.0</ele><time>2026-04-11T10:21:35Z</time></trkpt><trkpt lat="45.070437058544364" lon="7.6796644104115295"><ele>257.0</ele><time>2026-04-11T10:21:36Z</time></trkpt><trkpt lat="45.07043176220525" lon="7.679546485014387"><ele>257.0</ele><time>2026-04-11T10:21:37Z</time></trkpt><trkpt lat="45.07040745552439" lon="7.679206623481669"><ele>257.0</ele><time>2026-04-11T10:21:39Z</time></trkpt><trkpt lat="45.07039413550614" lon="7.679037847064704"><ele>257.0</ele><time>2026-04-11T10:21:40Z</time></trkpt><trkpt lat="45.070383877228764" lon="7.678886066565264"><ele>257.0</ele><time>2026-04-11T10:21:41Z</time></trkpt><trkpt lat="45.07037459127113" lon="7.678743326611065"><ele>257.0</ele><time>2026-04-11T10:21:42Z</time></trkpt><trkpt lat="45.07036401514977" lon="7.678616359043025"><ele>257.0</ele><time>2026-04-11T10:21:43Z</time></trkpt><trkpt lat="45.07035778222722" lon="7.6784704690646315"><ele>256.6</ele><time>2026-04-11T10:21:44Z</time></trkpt><trkpt lat="45.070348419345805" lon="7.678335317423787"><ele>256.2</ele><time>2026-04-11T10:21:45Z</time></trkpt><trkpt lat="45.07033751628356" lon="7.678212723324667"><ele>255.8</ele><time>2026-04-11T10:21:46Z</time></trkpt><trkpt lat="45.07032278075118" lon="7.6781062940961515"><ele>255.4</ele><time>2026-04-11T10:21:47Z</time></trkpt><trkpt lat="45.07029224944389" lon="7.6779453055851565"><ele>255.0</ele><time>2026-04-11T10:21:49Z</time></trkpt><trkpt lat="45.070200199264114" lon="7.677776158069793"><ele>254.33333333333334</ele><time>2026-04-11T10:21:51Z</time></trkpt><trkpt lat="45.070130056308905" lon="7.677737765152019"><ele>253.66666666666669</ele><time>2026-04-11T10:21:52Z</time></trkpt><trkpt lat="45.07005429663379" lon="7.6777005951571455"><ele>253.0</ele><time>2026-04-11T10:21:53Z</time></trkpt><trkpt lat="45.069984394648834" lon="7.677637697898005"><ele>252.33333333333334</ele><time>2026-04-11T10:21:54Z</time></trkpt><trkpt lat="45.06991894591129" lon="7.677566075721453"><ele>251.66666666666669</ele><time>2026-04-11T10:21:55Z</time></trkpt><trkpt lat="45.0698560098865" lon="7.677488582417385"><ele>251.0</ele><time>2026-04-11T10:21:56Z</time></trkpt><trkpt lat="45.06979046073549" lon="7.677403864583753"><ele>250.60000000000002</ele><time>2026-04-11T10:21:57Z</time></trkpt><trkpt lat="45.06972329080836" lon="7.67732724887335"><ele>250.20000000000002</ele><time>2026-04-11T10:21:58Z</time></trkpt><trkpt lat="45.069649344505834" lon="7.677255565718656"><ele>249.79999999999998</ele><time>2026-04-11T10:21:59Z</time></trkpt><trkpt lat="45.06957236243593" lon="7.6771982546075925"><ele>249.39999999999998</ele><time>2026-04-11T10:22:00Z</time></trkpt><trkpt lat="45.06948535865" lon="7.677132447336703"><ele>249.0</ele><time>2026-04-11T10:22:01Z</time></trkpt><trkpt lat="45.06940167901127" lon="7.677074700388937"><ele>249.0</ele><time>2026-04-11T10:22:02Z</time></trkpt><trkpt lat="45.069316866281" lon="7.677019105388783"><ele>249.0</ele><time>2026-04-11T10:22:03Z</time></trkpt><trkpt lat="45.06924792836819" lon="7.676969616715816"><ele>249.0</ele><time>2026-04-11T10:22:04Z</time></trkpt><trkpt lat="45.06918383990239" lon="7.676915637596006"><ele>249.0</ele><time>2026-04-11T10:22:05Z</time></trkpt><trkpt lat="45.06912843105091" lon="7.676870542995385"><ele>249.0</ele><time>2026-04-11T10:22:06Z</time></trkpt><trkpt lat="45.0690639573857" lon="7.676812160919134"><ele>249.0</ele><time>2026-04-11T10:22:07Z</time></trkpt><trkpt lat="45.06899388151717" lon="7.676750719442232"><ele>249.5</ele><time>2026-04-11T10:22:08Z</time></trkpt><trkpt lat="45.0689079389002" lon="7.6766795915386625"><ele>250.0</ele><time>2026-04-11T10:22:09Z</time></trkpt><trkpt lat="45.06880404133269" lon="7.67660114827022"><ele>250.5</ele><time>2026-04-11T10:22:10Z</time></trkpt><trkpt lat="45.06869157015794" lon="7.676520589522141"><ele>251.0</ele><time>2026-04-11T10:22:11Z</time></trkpt><trkpt lat="45.068593082134434" lon="7.676445235103072"><ele>251.00000000000003</ele><time>2026-04-11T10:22:12Z</time></trkpt><trkpt lat="45.06850974520359" lon="7.6763740383712324"><ele>251.0</ele><time>2026-04-11T10:22:13Z</time></trkpt><trkpt lat="45.068423894107" lon="7.676310522845724"><ele>251.0</ele><time>2026-04-11T10:22:14Z</time></trkpt><trkpt lat="45.06832616332059" lon="7.676301478414504"><ele>251.0</ele><time>2026-04-11T10:22:15Z</time></trkpt><trkpt lat="45.068245347129896" lon="7.676277771220004"><ele>251.00000000000003</ele><time>2026-04-11T10:22:16Z</time></trkpt><trkpt lat="45.06817400116865" lon="7.676264571347141"><ele>251.0</ele><time>2026-04-11T10:22:17Z</time></trkpt><trkpt lat="45.06808653786631" lon="7.676248674855247"><ele>251.00000000000003</ele><time>2026-04-11T10:22:18Z</time></trkpt><trkpt lat="45.068010111102296" lon="7.676202816625013"><ele>251.0</ele><time>2026-04-11T10:22:19Z</time></trkpt><trkpt lat="45.06795271243332" lon="7.676128670785425"><ele>251.0</ele><time>2026-04-11T10:22:20Z</time></trkpt><trkpt lat="45.06787373086929" lon="7.6760891022244895"><ele>251.0</ele><time>2026-04-11T10:22:21Z</time></trkpt><trkpt lat="45.06779335101447" lon="7.676044582775656"><ele>251.00000000000003</ele><time>2026-04-11T10:22:22Z</time></trkpt><trkpt lat="45.06770718349884" lon="7.675996537467447"><ele>251.0</ele><time>2026-04-11T10:22:23Z</time></trkpt><trkpt lat="45.06762252428766" lon="7.675930551710833"><ele>250.75</ele><time>2026-04-11T10:22:24Z</time></trkpt><trkpt lat="45.067536663819006" lon="7.675861179592275"><ele>250.5</ele><time>2026-04-11T10:22:25Z</time></trkpt><trkpt lat="45.06740833186328" lon="7.675773357226829"><ele>250.25</ele><time>2026-04-11T10:22:26Z</time></trkpt><trkpt lat="45.06724396052882" lon="7.6756737210767785"><ele>250.0</ele><time>2026-04-11T10:22:27Z</time></trkpt><trkpt lat="45.067115007208706" lon="7.675590837702216"><ele>250.0</ele><time>2026-04-11T10:22:28Z</time></trkpt><trkpt lat="45.06702023715166" lon="7.675509454781511"><ele>250.0</ele><time>2026-04-11T10:22:29Z</time></trkpt><trkpt lat="45.06692836502939" lon="7.675440163639774"><ele>250.0</ele><time>2026-04-11T10:22:30Z</time></trkpt><trkpt lat="45.06683557395756" lon="7.675370553016065"><ele>250.0</ele><time>2026-04-11T10:22:31Z</time></trkpt><trkpt lat="45.066747178397996" lon="7.675309466550845"><ele>250.0</ele><time>2026-04-11T10:22:32Z</time></trkpt><trkpt lat="45.06667279757111" lon="7.675259638460773"><ele>250.66666666666666</ele><time>2026-04-11T10:22:33Z</time></trkpt><trkpt lat="45.066608581090485" lon="7.675215276869669"><ele>251.33333333333331</ele><time>2026-04-11T10:22:34Z</time></trkpt><trkpt lat="45.06654579328556" lon="7.675182435419913"><ele>252.0</ele><time>2026-04-11T10:22:35Z</time></trkpt><trkpt lat="45.06647813138356" lon="7.675124172769895"><ele>252.66666666666669</ele><time>2026-04-11T10:22:37Z</time></trkpt><trkpt lat="45.06641085567389" lon="7.6750742342532465"><ele>253.33333333333334</ele><time>2026-04-11T10:23:27Z</time></trkpt><trkpt lat="45.06636023062576" lon="7.675007299678302"><ele>254.0</ele><time>2026-04-11T10:23:29Z</time></trkpt><trkpt lat="45.06638976488245" lon="7.674871610608744"><ele>254.0</ele><time>2026-04-11T10:23:31Z</time></trkpt><trkpt lat="45.06642962145359" lon="7.674764067420195"><ele>254.0</ele><time>2026-04-11T10:23:32Z</time></trkpt><trkpt lat="45.066476324206114" lon="7.674634205322443"><ele>254.0</ele><time>2026-04-11T10:23:33Z</time></trkpt><trkpt lat="45.06652968580428" lon="7.674479562948544"><ele>254.0</ele><time>2026-04-11T10:23:34Z</time></trkpt><trkpt lat="45.06660096593329" lon="7.674272992503522"><ele>252.66666666666669</ele><time>2026-04-11T10:23:35Z</time></trkpt><trkpt lat="45.066664394889806" lon="7.674078660377332"><ele>251.33333333333331</ele><time>2026-04-11T10:23:36Z</time></trkpt><trkpt lat="45.06674828879209" lon="7.673876896751915"><ele>250.0</ele><time>2026-04-11T10:23:37Z</time></trkpt><trkpt lat="45.066828020376676" lon="7.673680457818461"><ele>251.0</ele><time>2026-04-11T10:23:38Z</time></trkpt><trkpt lat="45.06691329075016" lon="7.673466499186204"><ele>252.0</ele><time>2026-04-11T10:23:39Z</time></trkpt><trkpt lat="45.06698793445973" lon="7.673257411332349"><ele>253.0</ele><time>2026-04-11T10:23:40Z</time></trkpt><trkpt lat="45.0670559062185" lon="7.673066258970459"><ele>253.0</ele><time>2026-04-11T10:23:41Z</time></trkpt><trkpt lat="45.067113407164726" lon="7.672889260271916"><ele>253.0</ele><time>2026-04-11T10:23:42Z</time></trkpt><trkpt lat="45.067170559254684" lon="7.6727286170297"><ele>253.0</ele><time>2026-04-11T10:23:43Z</time></trkpt><trkpt lat="45.06722312400512" lon="7.672571614501159"><ele>253.0</ele><time>2026-04-11T10:23:44Z</time></trkpt><trkpt lat="45.06727524401275" lon="7.672420479009977"><ele>252.8</ele><time>2026-04-11T10:23:45Z</time></trkpt><trkpt lat="45.06732380675735" lon="7.672287785995915"><ele>252.60000000000002</ele><time>2026-04-11T10:23:46Z</time></trkpt><trkpt lat="45.06736867396445" lon="7.672166820663594"><ele>252.39999999999998</ele><time>2026-04-11T10:23:47Z</time></trkpt><trkpt lat="45.067403514204365" lon="7.672060644697106"><ele>252.2</ele><time>2026-04-11T10:23:48Z</time></trkpt><trkpt lat="45.06742776809794" lon="7.6719762215049805"><ele>252.0</ele><time>2026-04-11T10:23:49Z</time></trkpt><trkpt lat="45.067476926612535" lon="7.6718408270437255"><ele>252.39999999999998</ele><time>2026-04-11T10:23:51Z</time></trkpt><trkpt lat="45.067510532574346" lon="7.6717584625476585"><ele>252.79999999999998</ele><time>2026-04-11T10:23:52Z</time></trkpt><trkpt lat="45.06755096697607" lon="7.671652760186875"><ele>253.2</ele><time>2026-04-11T10:23:53Z</time></trkpt><trkpt lat="45.06761245226651" lon="7.671510522804758"><ele>253.6</ele><time>2026-04-11T10:23:54Z</time></trkpt><trkpt lat="45.06765446643346" lon="7.6713592955142635"><ele>254.0</ele><time>2026-04-11T10:23:55Z</time></trkpt><trkpt lat="45.06768685847681" lon="7.671252547536337"><ele>254.0</ele><time>2026-04-11T10:23:56Z</time></trkpt><trkpt lat="45.06771956617744" lon="7.671148012170091"><ele>253.99999999999997</ele><time>2026-04-11T10:23:57Z</time></trkpt><trkpt lat="45.067751493750364" lon="7.671062358115333"><ele>253.99999999999997</ele><time>2026-04-11T10:23:58Z</time></trkpt><trkpt lat="45.0678023148798" lon="7.670905840293846"><ele>254.0</ele><time>2026-04-11T10:24:00Z</time></trkpt><trkpt lat="45.06785878954668" lon="7.670755006301924"><ele>254.0</ele><time>2026-04-11T10:24:02Z</time></trkpt><trkpt lat="45.06788764954324" lon="7.6706694995574365"><ele>254.00000000000003</ele><time>2026-04-11T10:24:03Z</time></trkpt><trkpt lat="45.067935317665416" lon="7.67052044228798"><ele>254.0</ele><time>2026-04-11T10:24:05Z</time></trkpt><trkpt lat="45.067966473761544" lon="7.670427602185932"><ele>254.0</ele><time>2026-04-11T10:24:06Z</time></trkpt><trkpt lat="45.067999965505244" lon="7.670325108683277"><ele>254.0</ele><time>2026-04-11T10:24:07Z</time></trkpt><trkpt lat="45.06803752110375" lon="7.670218632651533"><ele>254.00000000000003</ele><time>2026-04-11T10:24:08Z</time></trkpt><trkpt lat="45.06808468489255" lon="7.670107214565726"><ele>254.0</ele><time>2026-04-11T10:24:09Z</time></trkpt><trkpt lat="45.06812345729653" lon="7.670001169533447"><ele>254.00000000000003</ele><time>2026-04-11T10:24:10Z</time></trkpt><trkpt lat="45.068158152217784" lon="7.669901028024738"><ele>254.0</ele><time>2026-04-11T10:24:11Z</time></trkpt><trkpt lat="45.06819673953627" lon="7.6697944876264"><ele>254.0</ele><time>2026-04-11T10:24:12Z</time></trkpt><trkpt lat="45.06823457606604" lon="7.669686819139286"><ele>254.0</ele><time>2026-04-11T10:24:13Z</time></trkpt><trkpt lat="45.06827054696711" lon="7.669581721790575"><ele>254.00000000000003</ele><time>2026-04-11T10:24:14Z</time></trkpt><trkpt lat="45.06830346799554" lon="7.6694848677009535"><ele>254.0</ele><time>2026-04-11T10:24:15Z</time></trkpt><trkpt lat="45.06834075660337" lon="7.669383500727837"><ele>254.42857142857144</ele><time>2026-04-11T10:24:16Z</time></trkpt><trkpt lat="45.06837569174527" lon="7.669282797743145"><ele>254.85714285714283</ele><time>2026-04-11T10:24:17Z</time></trkpt><trkpt lat="45.0684079224151" lon="7.66919441618914"><ele>255.28571428571428</ele><time>2026-04-11T10:24:18Z</time></trkpt><trkpt lat="45.068443061390624" lon="7.6690953558829085"><ele>255.71428571428572</ele><time>2026-04-11T10:24:19Z</time></trkpt><trkpt lat="45.06847825044866" lon="7.669004550085285"><ele>256.14285714285717</ele><time>2026-04-11T10:24:20Z</time></trkpt><trkpt lat="45.0685114535637" lon="7.6689281709431"><ele>256.57142857142856</ele><time>2026-04-11T10:24:21Z</time></trkpt><trkpt lat="45.06854422622123" lon="7.668835294042357"><ele>257.0</ele><time>2026-04-11T10:24:22Z</time></trkpt><trkpt lat="45.06857680601401" lon="7.668753145883938"><ele>257.0</ele><time>2026-04-11T10:24:23Z</time></trkpt><trkpt lat="45.06863663787051" lon="7.668607397191281"><ele>257.0</ele><time>2026-04-11T10:24:25Z</time></trkpt><trkpt lat="45.068695579975405" lon="7.6684403642448915"><ele>257.0</ele><time>2026-04-11T10:24:27Z</time></trkpt><trkpt lat="45.068725767102656" lon="7.668357358411823"><ele>257.0</ele><time>2026-04-11T10:24:28Z</time></trkpt><trkpt lat="45.06875837299163" lon="7.668274130551585"><ele>257.0</ele><time>2026-04-11T10:24:29Z</time></trkpt><trkpt lat="45.06879238575185" lon="7.668175426931571"><ele>257.0</ele><time>2026-04-11T10:24:31Z</time></trkpt><trkpt lat="45.06882849621558" lon="7.668068641724263"><ele>257.0</ele><time>2026-04-11T10:24:34Z</time></trkpt><trkpt lat="45.06885183291104" lon="7.667981452936956"><ele>257.0</ele><time>2026-04-11T10:24:36Z</time></trkpt><trkpt lat="45.06888986620328" lon="7.667878489144162"><ele>257.0</ele><time>2026-04-11T10:24:39Z</time></trkpt><trkpt lat="45.06893462639232" lon="7.6677556677323055"><ele>257.0</ele><time>2026-04-11T10:25:21Z</time></trkpt><trkpt lat="45.06907694441314" lon="7.667800574271474"><ele>257.0</ele><time>2026-04-11T10:25:24Z</time></trkpt><trkpt lat="45.069142558649396" lon="7.667864589898051"><ele>257.0</ele><time>2026-04-11T10:25:25Z</time></trkpt><trkpt lat="45.06921466591881" lon="7.667924534776941"><ele>257.0</ele><time>2026-04-11T10:25:26Z</time></trkpt><trkpt lat="45.06928441504935" lon="7.667963603885658"><ele>257.0</ele><time>2026-04-11T10:25:27Z</time></trkpt><trkpt lat="45.06937145237895" lon="7.668027135961052"><ele>257.0</ele><time>2026-04-11T10:25:29Z</time></trkpt><trkpt lat="45.069423989348245" lon="7.668077119663946"><ele>257.0</ele><time>2026-04-11T10:28:30Z</time></trkpt><trkpt lat="45.06949277309096" lon="7.668126631832652"><ele>257.0</ele><time>2026-04-11T10:29:04Z</time></trkpt><trkpt lat="45.06936842448663" lon="7.668515983570438"><ele>257.0</ele><time>2026-04-11T10:29:12.062Z</time></trkpt></trkseg></trk></gpx>